<?xml version="1.0" encoding="UTF-8"?>
<gpx xmlns="http://www.topografix.com/GPX/1/1"
     creator="GpsDump 4.73"
     version="1.1"
     xmlns:xsi="http://www.w3.org/2001/XMLSchema-instance"
     xsi:schemaLocation="http://www.topografix.com/GPX/1/1 http://www.topografix.com/GPX/1/1/gpx.xsd">
  <metadata>
    <link href="http://www.gethome.no/stein.sorensen/">
      <text>GPS dump for www.flightlog.org</text>
    </link>
    <time>2013-09-08T14:23:44Z</time>
    <bounds minlat="40.028050" minlon="-5.617183" maxlat="40.252617" maxlon="-4.884650"/>
  </metadata>
  <trk>
    <name>Track 001</name>
    <trkseg>
      <trkpt lat="40.252483" lon="-4.887567">
        <ele>1017.0</ele>
        <time>2013-06-30T12:08:13Z</time>
      </trkpt>
      <trkpt lat="40.252450" lon="-4.887517">
        <ele>1017.0</ele>
        <time>2013-06-30T12:08:14Z</time>
      </trkpt>
      <trkpt lat="40.252400" lon="-4.887450">
        <ele>1017.0</ele>
        <time>2013-06-30T12:08:15Z</time>
      </trkpt>
      <trkpt lat="40.252383" lon="-4.887383">
        <ele>1017.0</ele>
        <time>2013-06-30T12:08:16Z</time>
      </trkpt>
      <trkpt lat="40.252367" lon="-4.887300">
        <ele>1016.0</ele>
        <time>2013-06-30T12:08:17Z</time>
      </trkpt>
      <trkpt lat="40.252350" lon="-4.887233">
        <ele>1016.0</ele>
        <time>2013-06-30T12:08:18Z</time>
      </trkpt>
      <trkpt lat="40.252350" lon="-4.887183">
        <ele>1017.0</ele>
        <time>2013-06-30T12:08:19Z</time>
      </trkpt>
      <trkpt lat="40.252350" lon="-4.887133">
        <ele>1018.0</ele>
        <time>2013-06-30T12:08:20Z</time>
      </trkpt>
      <trkpt lat="40.252333" lon="-4.887100">
        <ele>1018.0</ele>
        <time>2013-06-30T12:08:21Z</time>
      </trkpt>
      <trkpt lat="40.252317" lon="-4.887050">
        <ele>1017.0</ele>
        <time>2013-06-30T12:08:22Z</time>
      </trkpt>
      <trkpt lat="40.252317" lon="-4.886967">
        <ele>1015.0</ele>
        <time>2013-06-30T12:08:23Z</time>
      </trkpt>
      <trkpt lat="40.252333" lon="-4.886883">
        <ele>1014.0</ele>
        <time>2013-06-30T12:08:24Z</time>
      </trkpt>
      <trkpt lat="40.252350" lon="-4.886817">
        <ele>1014.0</ele>
        <time>2013-06-30T12:08:25Z</time>
      </trkpt>
      <trkpt lat="40.252350" lon="-4.886767">
        <ele>1015.0</ele>
        <time>2013-06-30T12:08:26Z</time>
      </trkpt>
      <trkpt lat="40.252333" lon="-4.886733">
        <ele>1015.0</ele>
        <time>2013-06-30T12:08:27Z</time>
      </trkpt>
      <trkpt lat="40.252317" lon="-4.886683">
        <ele>1015.0</ele>
        <time>2013-06-30T12:08:28Z</time>
      </trkpt>
      <trkpt lat="40.252300" lon="-4.886633">
        <ele>1013.0</ele>
        <time>2013-06-30T12:08:29Z</time>
      </trkpt>
      <trkpt lat="40.252300" lon="-4.886550">
        <ele>1011.0</ele>
        <time>2013-06-30T12:08:30Z</time>
      </trkpt>
      <trkpt lat="40.252283" lon="-4.886467">
        <ele>1010.0</ele>
        <time>2013-06-30T12:08:31Z</time>
      </trkpt>
      <trkpt lat="40.252300" lon="-4.886383">
        <ele>1010.0</ele>
        <time>2013-06-30T12:08:32Z</time>
      </trkpt>
      <trkpt lat="40.252317" lon="-4.886333">
        <ele>1012.0</ele>
        <time>2013-06-30T12:08:33Z</time>
      </trkpt>
      <trkpt lat="40.252333" lon="-4.886300">
        <ele>1014.0</ele>
        <time>2013-06-30T12:08:34Z</time>
      </trkpt>
      <trkpt lat="40.252350" lon="-4.886267">
        <ele>1016.0</ele>
        <time>2013-06-30T12:08:35Z</time>
      </trkpt>
      <trkpt lat="40.252383" lon="-4.886217">
        <ele>1018.0</ele>
        <time>2013-06-30T12:08:36Z</time>
      </trkpt>
      <trkpt lat="40.252417" lon="-4.886167">
        <ele>1018.0</ele>
        <time>2013-06-30T12:08:37Z</time>
      </trkpt>
      <trkpt lat="40.252450" lon="-4.886100">
        <ele>1019.0</ele>
        <time>2013-06-30T12:08:38Z</time>
      </trkpt>
      <trkpt lat="40.252483" lon="-4.886050">
        <ele>1021.0</ele>
        <time>2013-06-30T12:08:39Z</time>
      </trkpt>
      <trkpt lat="40.252517" lon="-4.886000">
        <ele>1023.0</ele>
        <time>2013-06-30T12:08:40Z</time>
      </trkpt>
      <trkpt lat="40.252550" lon="-4.885950">
        <ele>1025.0</ele>
        <time>2013-06-30T12:08:41Z</time>
      </trkpt>
      <trkpt lat="40.252583" lon="-4.885900">
        <ele>1026.0</ele>
        <time>2013-06-30T12:08:42Z</time>
      </trkpt>
      <trkpt lat="40.252600" lon="-4.885867">
        <ele>1025.0</ele>
        <time>2013-06-30T12:08:43Z</time>
      </trkpt>
      <trkpt lat="40.252617" lon="-4.885817">
        <ele>1024.0</ele>
        <time>2013-06-30T12:08:44Z</time>
      </trkpt>
      <trkpt lat="40.252617" lon="-4.885750">
        <ele>1023.0</ele>
        <time>2013-06-30T12:08:45Z</time>
      </trkpt>
      <trkpt lat="40.252617" lon="-4.885683">
        <ele>1022.0</ele>
        <time>2013-06-30T12:08:46Z</time>
      </trkpt>
      <trkpt lat="40.252600" lon="-4.885617">
        <ele>1022.0</ele>
        <time>2013-06-30T12:08:47Z</time>
      </trkpt>
      <trkpt lat="40.252583" lon="-4.885550">
        <ele>1022.0</ele>
        <time>2013-06-30T12:08:48Z</time>
      </trkpt>
      <trkpt lat="40.252567" lon="-4.885500">
        <ele>1023.0</ele>
        <time>2013-06-30T12:08:49Z</time>
      </trkpt>
      <trkpt lat="40.252550" lon="-4.885450">
        <ele>1024.0</ele>
        <time>2013-06-30T12:08:50Z</time>
      </trkpt>
      <trkpt lat="40.252550" lon="-4.885400">
        <ele>1026.0</ele>
        <time>2013-06-30T12:08:51Z</time>
      </trkpt>
      <trkpt lat="40.252533" lon="-4.885350">
        <ele>1027.0</ele>
        <time>2013-06-30T12:08:52Z</time>
      </trkpt>
      <trkpt lat="40.252500" lon="-4.885317">
        <ele>1028.0</ele>
        <time>2013-06-30T12:08:53Z</time>
      </trkpt>
      <trkpt lat="40.252450" lon="-4.885283">
        <ele>1029.0</ele>
        <time>2013-06-30T12:08:54Z</time>
      </trkpt>
      <trkpt lat="40.252400" lon="-4.885267">
        <ele>1029.0</ele>
        <time>2013-06-30T12:08:55Z</time>
      </trkpt>
      <trkpt lat="40.252333" lon="-4.885250">
        <ele>1029.0</ele>
        <time>2013-06-30T12:08:56Z</time>
      </trkpt>
      <trkpt lat="40.252267" lon="-4.885250">
        <ele>1028.0</ele>
        <time>2013-06-30T12:08:57Z</time>
      </trkpt>
      <trkpt lat="40.252183" lon="-4.885233">
        <ele>1026.0</ele>
        <time>2013-06-30T12:08:58Z</time>
      </trkpt>
      <trkpt lat="40.252100" lon="-4.885200">
        <ele>1025.0</ele>
        <time>2013-06-30T12:08:59Z</time>
      </trkpt>
      <trkpt lat="40.252033" lon="-4.885183">
        <ele>1024.0</ele>
        <time>2013-06-30T12:09:00Z</time>
      </trkpt>
      <trkpt lat="40.251967" lon="-4.885167">
        <ele>1024.0</ele>
        <time>2013-06-30T12:09:01Z</time>
      </trkpt>
      <trkpt lat="40.251900" lon="-4.885150">
        <ele>1023.0</ele>
        <time>2013-06-30T12:09:02Z</time>
      </trkpt>
      <trkpt lat="40.251817" lon="-4.885133">
        <ele>1021.0</ele>
        <time>2013-06-30T12:09:03Z</time>
      </trkpt>
      <trkpt lat="40.251733" lon="-4.885117">
        <ele>1020.0</ele>
        <time>2013-06-30T12:09:04Z</time>
      </trkpt>
      <trkpt lat="40.251667" lon="-4.885083">
        <ele>1018.0</ele>
        <time>2013-06-30T12:09:05Z</time>
      </trkpt>
      <trkpt lat="40.251583" lon="-4.885067">
        <ele>1018.0</ele>
        <time>2013-06-30T12:09:06Z</time>
      </trkpt>
      <trkpt lat="40.251517" lon="-4.885033">
        <ele>1017.0</ele>
        <time>2013-06-30T12:09:07Z</time>
      </trkpt>
      <trkpt lat="40.251450" lon="-4.885017">
        <ele>1016.0</ele>
        <time>2013-06-30T12:09:08Z</time>
      </trkpt>
      <trkpt lat="40.251367" lon="-4.885000">
        <ele>1015.0</ele>
        <time>2013-06-30T12:09:09Z</time>
      </trkpt>
      <trkpt lat="40.251283" lon="-4.884983">
        <ele>1015.0</ele>
        <time>2013-06-30T12:09:10Z</time>
      </trkpt>
      <trkpt lat="40.251200" lon="-4.884983">
        <ele>1014.0</ele>
        <time>2013-06-30T12:09:11Z</time>
      </trkpt>
      <trkpt lat="40.251133" lon="-4.884983">
        <ele>1014.0</ele>
        <time>2013-06-30T12:09:12Z</time>
      </trkpt>
      <trkpt lat="40.251067" lon="-4.884967">
        <ele>1013.0</ele>
        <time>2013-06-30T12:09:13Z</time>
      </trkpt>
      <trkpt lat="40.250983" lon="-4.884967">
        <ele>1012.0</ele>
        <time>2013-06-30T12:09:14Z</time>
      </trkpt>
      <trkpt lat="40.250900" lon="-4.884967">
        <ele>1011.0</ele>
        <time>2013-06-30T12:09:15Z</time>
      </trkpt>
      <trkpt lat="40.250800" lon="-4.884967">
        <ele>1009.0</ele>
        <time>2013-06-30T12:09:16Z</time>
      </trkpt>
      <trkpt lat="40.250717" lon="-4.884983">
        <ele>1009.0</ele>
        <time>2013-06-30T12:09:17Z</time>
      </trkpt>
      <trkpt lat="40.250633" lon="-4.885000">
        <ele>1009.0</ele>
        <time>2013-06-30T12:09:18Z</time>
      </trkpt>
      <trkpt lat="40.250550" lon="-4.885017">
        <ele>1009.0</ele>
        <time>2013-06-30T12:09:19Z</time>
      </trkpt>
      <trkpt lat="40.250467" lon="-4.885017">
        <ele>1009.0</ele>
        <time>2013-06-30T12:09:20Z</time>
      </trkpt>
      <trkpt lat="40.250383" lon="-4.885033">
        <ele>1008.0</ele>
        <time>2013-06-30T12:09:21Z</time>
      </trkpt>
      <trkpt lat="40.250283" lon="-4.885033">
        <ele>1007.0</ele>
        <time>2013-06-30T12:09:22Z</time>
      </trkpt>
      <trkpt lat="40.250200" lon="-4.885050">
        <ele>1006.0</ele>
        <time>2013-06-30T12:09:23Z</time>
      </trkpt>
      <trkpt lat="40.250117" lon="-4.885050">
        <ele>1006.0</ele>
        <time>2013-06-30T12:09:24Z</time>
      </trkpt>
      <trkpt lat="40.250033" lon="-4.885067">
        <ele>1006.0</ele>
        <time>2013-06-30T12:09:25Z</time>
      </trkpt>
      <trkpt lat="40.249950" lon="-4.885067">
        <ele>1005.0</ele>
        <time>2013-06-30T12:09:26Z</time>
      </trkpt>
      <trkpt lat="40.249867" lon="-4.885067">
        <ele>1004.0</ele>
        <time>2013-06-30T12:09:27Z</time>
      </trkpt>
      <trkpt lat="40.249767" lon="-4.885067">
        <ele>1004.0</ele>
        <time>2013-06-30T12:09:28Z</time>
      </trkpt>
      <trkpt lat="40.249683" lon="-4.885083">
        <ele>1003.0</ele>
        <time>2013-06-30T12:09:29Z</time>
      </trkpt>
      <trkpt lat="40.249600" lon="-4.885100">
        <ele>1003.0</ele>
        <time>2013-06-30T12:09:30Z</time>
      </trkpt>
      <trkpt lat="40.249500" lon="-4.885117">
        <ele>1002.0</ele>
        <time>2013-06-30T12:09:31Z</time>
      </trkpt>
      <trkpt lat="40.249417" lon="-4.885133">
        <ele>1001.0</ele>
        <time>2013-06-30T12:09:32Z</time>
      </trkpt>
      <trkpt lat="40.249317" lon="-4.885150">
        <ele>1000.0</ele>
        <time>2013-06-30T12:09:33Z</time>
      </trkpt>
      <trkpt lat="40.249233" lon="-4.885167">
        <ele>1000.0</ele>
        <time>2013-06-30T12:09:34Z</time>
      </trkpt>
      <trkpt lat="40.249167" lon="-4.885183">
        <ele>1000.0</ele>
        <time>2013-06-30T12:09:35Z</time>
      </trkpt>
      <trkpt lat="40.249100" lon="-4.885200">
        <ele>1001.0</ele>
        <time>2013-06-30T12:09:36Z</time>
      </trkpt>
      <trkpt lat="40.249017" lon="-4.885217">
        <ele>1000.0</ele>
        <time>2013-06-30T12:09:37Z</time>
      </trkpt>
      <trkpt lat="40.248933" lon="-4.885233">
        <ele>1000.0</ele>
        <time>2013-06-30T12:09:38Z</time>
      </trkpt>
      <trkpt lat="40.248850" lon="-4.885233">
        <ele>999.0</ele>
        <time>2013-06-30T12:09:39Z</time>
      </trkpt>
      <trkpt lat="40.248767" lon="-4.885233">
        <ele>997.0</ele>
        <time>2013-06-30T12:09:40Z</time>
      </trkpt>
      <trkpt lat="40.248683" lon="-4.885233">
        <ele>995.0</ele>
        <time>2013-06-30T12:09:41Z</time>
      </trkpt>
      <trkpt lat="40.248617" lon="-4.885233">
        <ele>994.0</ele>
        <time>2013-06-30T12:09:42Z</time>
      </trkpt>
      <trkpt lat="40.248533" lon="-4.885233">
        <ele>992.0</ele>
        <time>2013-06-30T12:09:43Z</time>
      </trkpt>
      <trkpt lat="40.248450" lon="-4.885250">
        <ele>991.0</ele>
        <time>2013-06-30T12:09:44Z</time>
      </trkpt>
      <trkpt lat="40.248367" lon="-4.885283">
        <ele>990.0</ele>
        <time>2013-06-30T12:09:45Z</time>
      </trkpt>
      <trkpt lat="40.248283" lon="-4.885300">
        <ele>988.0</ele>
        <time>2013-06-30T12:09:46Z</time>
      </trkpt>
      <trkpt lat="40.248183" lon="-4.885317">
        <ele>986.0</ele>
        <time>2013-06-30T12:09:47Z</time>
      </trkpt>
      <trkpt lat="40.248100" lon="-4.885333">
        <ele>986.0</ele>
        <time>2013-06-30T12:09:48Z</time>
      </trkpt>
      <trkpt lat="40.248017" lon="-4.885350">
        <ele>985.0</ele>
        <time>2013-06-30T12:09:49Z</time>
      </trkpt>
      <trkpt lat="40.247950" lon="-4.885367">
        <ele>985.0</ele>
        <time>2013-06-30T12:09:50Z</time>
      </trkpt>
      <trkpt lat="40.247883" lon="-4.885367">
        <ele>985.0</ele>
        <time>2013-06-30T12:09:51Z</time>
      </trkpt>
      <trkpt lat="40.247817" lon="-4.885367">
        <ele>983.0</ele>
        <time>2013-06-30T12:09:52Z</time>
      </trkpt>
      <trkpt lat="40.247717" lon="-4.885367">
        <ele>981.0</ele>
        <time>2013-06-30T12:09:53Z</time>
      </trkpt>
      <trkpt lat="40.247633" lon="-4.885350">
        <ele>979.0</ele>
        <time>2013-06-30T12:09:54Z</time>
      </trkpt>
      <trkpt lat="40.247550" lon="-4.885350">
        <ele>979.0</ele>
        <time>2013-06-30T12:09:55Z</time>
      </trkpt>
      <trkpt lat="40.247467" lon="-4.885333">
        <ele>978.0</ele>
        <time>2013-06-30T12:09:56Z</time>
      </trkpt>
      <trkpt lat="40.247383" lon="-4.885317">
        <ele>978.0</ele>
        <time>2013-06-30T12:09:57Z</time>
      </trkpt>
      <trkpt lat="40.247283" lon="-4.885317">
        <ele>977.0</ele>
        <time>2013-06-30T12:09:58Z</time>
      </trkpt>
      <trkpt lat="40.247183" lon="-4.885317">
        <ele>976.0</ele>
        <time>2013-06-30T12:09:59Z</time>
      </trkpt>
      <trkpt lat="40.247100" lon="-4.885317">
        <ele>975.0</ele>
        <time>2013-06-30T12:10:00Z</time>
      </trkpt>
      <trkpt lat="40.247000" lon="-4.885317">
        <ele>975.0</ele>
        <time>2013-06-30T12:10:01Z</time>
      </trkpt>
      <trkpt lat="40.246900" lon="-4.885317">
        <ele>974.0</ele>
        <time>2013-06-30T12:10:02Z</time>
      </trkpt>
      <trkpt lat="40.246817" lon="-4.885300">
        <ele>974.0</ele>
        <time>2013-06-30T12:10:03Z</time>
      </trkpt>
      <trkpt lat="40.246733" lon="-4.885283">
        <ele>974.0</ele>
        <time>2013-06-30T12:10:04Z</time>
      </trkpt>
      <trkpt lat="40.246633" lon="-4.885267">
        <ele>973.0</ele>
        <time>2013-06-30T12:10:05Z</time>
      </trkpt>
      <trkpt lat="40.246533" lon="-4.885250">
        <ele>973.0</ele>
        <time>2013-06-30T12:10:06Z</time>
      </trkpt>
      <trkpt lat="40.246433" lon="-4.885233">
        <ele>973.0</ele>
        <time>2013-06-30T12:10:07Z</time>
      </trkpt>
      <trkpt lat="40.246333" lon="-4.885217">
        <ele>974.0</ele>
        <time>2013-06-30T12:10:08Z</time>
      </trkpt>
      <trkpt lat="40.246233" lon="-4.885200">
        <ele>974.0</ele>
        <time>2013-06-30T12:10:09Z</time>
      </trkpt>
      <trkpt lat="40.246150" lon="-4.885200">
        <ele>975.0</ele>
        <time>2013-06-30T12:10:10Z</time>
      </trkpt>
      <trkpt lat="40.246067" lon="-4.885200">
        <ele>976.0</ele>
        <time>2013-06-30T12:10:11Z</time>
      </trkpt>
      <trkpt lat="40.245983" lon="-4.885217">
        <ele>975.0</ele>
        <time>2013-06-30T12:10:12Z</time>
      </trkpt>
      <trkpt lat="40.245900" lon="-4.885217">
        <ele>975.0</ele>
        <time>2013-06-30T12:10:13Z</time>
      </trkpt>
      <trkpt lat="40.245800" lon="-4.885217">
        <ele>973.0</ele>
        <time>2013-06-30T12:10:14Z</time>
      </trkpt>
      <trkpt lat="40.245700" lon="-4.885200">
        <ele>973.0</ele>
        <time>2013-06-30T12:10:15Z</time>
      </trkpt>
      <trkpt lat="40.245617" lon="-4.885200">
        <ele>973.0</ele>
        <time>2013-06-30T12:10:16Z</time>
      </trkpt>
      <trkpt lat="40.245533" lon="-4.885183">
        <ele>973.0</ele>
        <time>2013-06-30T12:10:17Z</time>
      </trkpt>
      <trkpt lat="40.245433" lon="-4.885183">
        <ele>974.0</ele>
        <time>2013-06-30T12:10:18Z</time>
      </trkpt>
      <trkpt lat="40.245333" lon="-4.885183">
        <ele>973.0</ele>
        <time>2013-06-30T12:10:19Z</time>
      </trkpt>
      <trkpt lat="40.245233" lon="-4.885167">
        <ele>972.0</ele>
        <time>2013-06-30T12:10:20Z</time>
      </trkpt>
      <trkpt lat="40.245150" lon="-4.885150">
        <ele>973.0</ele>
        <time>2013-06-30T12:10:21Z</time>
      </trkpt>
      <trkpt lat="40.245067" lon="-4.885117">
        <ele>973.0</ele>
        <time>2013-06-30T12:10:22Z</time>
      </trkpt>
      <trkpt lat="40.245000" lon="-4.885083">
        <ele>974.0</ele>
        <time>2013-06-30T12:10:23Z</time>
      </trkpt>
      <trkpt lat="40.244933" lon="-4.885050">
        <ele>974.0</ele>
        <time>2013-06-30T12:10:24Z</time>
      </trkpt>
      <trkpt lat="40.244850" lon="-4.885033">
        <ele>973.0</ele>
        <time>2013-06-30T12:10:25Z</time>
      </trkpt>
      <trkpt lat="40.244767" lon="-4.885000">
        <ele>972.0</ele>
        <time>2013-06-30T12:10:26Z</time>
      </trkpt>
      <trkpt lat="40.244683" lon="-4.884983">
        <ele>971.0</ele>
        <time>2013-06-30T12:10:27Z</time>
      </trkpt>
      <trkpt lat="40.244567" lon="-4.884950">
        <ele>969.0</ele>
        <time>2013-06-30T12:10:28Z</time>
      </trkpt>
      <trkpt lat="40.244450" lon="-4.884933">
        <ele>968.0</ele>
        <time>2013-06-30T12:10:29Z</time>
      </trkpt>
      <trkpt lat="40.244350" lon="-4.884917">
        <ele>967.0</ele>
        <time>2013-06-30T12:10:30Z</time>
      </trkpt>
      <trkpt lat="40.244250" lon="-4.884917">
        <ele>968.0</ele>
        <time>2013-06-30T12:10:31Z</time>
      </trkpt>
      <trkpt lat="40.244150" lon="-4.884900">
        <ele>968.0</ele>
        <time>2013-06-30T12:10:32Z</time>
      </trkpt>
      <trkpt lat="40.244050" lon="-4.884883">
        <ele>968.0</ele>
        <time>2013-06-30T12:10:33Z</time>
      </trkpt>
      <trkpt lat="40.243950" lon="-4.884867">
        <ele>967.0</ele>
        <time>2013-06-30T12:10:34Z</time>
      </trkpt>
      <trkpt lat="40.243850" lon="-4.884867">
        <ele>967.0</ele>
        <time>2013-06-30T12:10:35Z</time>
      </trkpt>
      <trkpt lat="40.243750" lon="-4.884867">
        <ele>968.0</ele>
        <time>2013-06-30T12:10:36Z</time>
      </trkpt>
      <trkpt lat="40.243650" lon="-4.884867">
        <ele>969.0</ele>
        <time>2013-06-30T12:10:37Z</time>
      </trkpt>
      <trkpt lat="40.243567" lon="-4.884867">
        <ele>971.0</ele>
        <time>2013-06-30T12:10:38Z</time>
      </trkpt>
      <trkpt lat="40.243467" lon="-4.884867">
        <ele>974.0</ele>
        <time>2013-06-30T12:10:39Z</time>
      </trkpt>
      <trkpt lat="40.243383" lon="-4.884867">
        <ele>977.0</ele>
        <time>2013-06-30T12:10:40Z</time>
      </trkpt>
      <trkpt lat="40.243317" lon="-4.884867">
        <ele>979.0</ele>
        <time>2013-06-30T12:10:41Z</time>
      </trkpt>
      <trkpt lat="40.243250" lon="-4.884867">
        <ele>981.0</ele>
        <time>2013-06-30T12:10:42Z</time>
      </trkpt>
      <trkpt lat="40.243150" lon="-4.884850">
        <ele>980.0</ele>
        <time>2013-06-30T12:10:43Z</time>
      </trkpt>
      <trkpt lat="40.243050" lon="-4.884867">
        <ele>980.0</ele>
        <time>2013-06-30T12:10:44Z</time>
      </trkpt>
      <trkpt lat="40.242950" lon="-4.884933">
        <ele>981.0</ele>
        <time>2013-06-30T12:10:45Z</time>
      </trkpt>
      <trkpt lat="40.242900" lon="-4.885033">
        <ele>982.0</ele>
        <time>2013-06-30T12:10:46Z</time>
      </trkpt>
      <trkpt lat="40.242867" lon="-4.885183">
        <ele>982.0</ele>
        <time>2013-06-30T12:10:47Z</time>
      </trkpt>
      <trkpt lat="40.242883" lon="-4.885317">
        <ele>983.0</ele>
        <time>2013-06-30T12:10:48Z</time>
      </trkpt>
      <trkpt lat="40.242917" lon="-4.885450">
        <ele>986.0</ele>
        <time>2013-06-30T12:10:49Z</time>
      </trkpt>
      <trkpt lat="40.242950" lon="-4.885550">
        <ele>990.0</ele>
        <time>2013-06-30T12:10:50Z</time>
      </trkpt>
      <trkpt lat="40.242983" lon="-4.885633">
        <ele>994.0</ele>
        <time>2013-06-30T12:10:51Z</time>
      </trkpt>
      <trkpt lat="40.243017" lon="-4.885683">
        <ele>997.0</ele>
        <time>2013-06-30T12:10:52Z</time>
      </trkpt>
      <trkpt lat="40.243083" lon="-4.885733">
        <ele>998.0</ele>
        <time>2013-06-30T12:10:53Z</time>
      </trkpt>
      <trkpt lat="40.243167" lon="-4.885783">
        <ele>998.0</ele>
        <time>2013-06-30T12:10:54Z</time>
      </trkpt>
      <trkpt lat="40.243233" lon="-4.885817">
        <ele>999.0</ele>
        <time>2013-06-30T12:10:55Z</time>
      </trkpt>
      <trkpt lat="40.243317" lon="-4.885817">
        <ele>1000.0</ele>
        <time>2013-06-30T12:10:56Z</time>
      </trkpt>
      <trkpt lat="40.243383" lon="-4.885783">
        <ele>1001.0</ele>
        <time>2013-06-30T12:10:57Z</time>
      </trkpt>
      <trkpt lat="40.243433" lon="-4.885750">
        <ele>1003.0</ele>
        <time>2013-06-30T12:10:58Z</time>
      </trkpt>
      <trkpt lat="40.243500" lon="-4.885683">
        <ele>1004.0</ele>
        <time>2013-06-30T12:10:59Z</time>
      </trkpt>
      <trkpt lat="40.243533" lon="-4.885600">
        <ele>1007.0</ele>
        <time>2013-06-30T12:11:00Z</time>
      </trkpt>
      <trkpt lat="40.243550" lon="-4.885533">
        <ele>1010.0</ele>
        <time>2013-06-30T12:11:01Z</time>
      </trkpt>
      <trkpt lat="40.243567" lon="-4.885450">
        <ele>1012.0</ele>
        <time>2013-06-30T12:11:02Z</time>
      </trkpt>
      <trkpt lat="40.243567" lon="-4.885350">
        <ele>1012.0</ele>
        <time>2013-06-30T12:11:03Z</time>
      </trkpt>
      <trkpt lat="40.243567" lon="-4.885233">
        <ele>1013.0</ele>
        <time>2013-06-30T12:11:04Z</time>
      </trkpt>
      <trkpt lat="40.243533" lon="-4.885117">
        <ele>1014.0</ele>
        <time>2013-06-30T12:11:05Z</time>
      </trkpt>
      <trkpt lat="40.243500" lon="-4.885017">
        <ele>1017.0</ele>
        <time>2013-06-30T12:11:06Z</time>
      </trkpt>
      <trkpt lat="40.243450" lon="-4.884933">
        <ele>1020.0</ele>
        <time>2013-06-30T12:11:07Z</time>
      </trkpt>
      <trkpt lat="40.243400" lon="-4.884867">
        <ele>1023.0</ele>
        <time>2013-06-30T12:11:08Z</time>
      </trkpt>
      <trkpt lat="40.243350" lon="-4.884783">
        <ele>1026.0</ele>
        <time>2013-06-30T12:11:09Z</time>
      </trkpt>
      <trkpt lat="40.243283" lon="-4.884717">
        <ele>1027.0</ele>
        <time>2013-06-30T12:11:10Z</time>
      </trkpt>
      <trkpt lat="40.243200" lon="-4.884667">
        <ele>1029.0</ele>
        <time>2013-06-30T12:11:11Z</time>
      </trkpt>
      <trkpt lat="40.243117" lon="-4.884650">
        <ele>1030.0</ele>
        <time>2013-06-30T12:11:12Z</time>
      </trkpt>
      <trkpt lat="40.243033" lon="-4.884650">
        <ele>1032.0</ele>
        <time>2013-06-30T12:11:13Z</time>
      </trkpt>
      <trkpt lat="40.242933" lon="-4.884667">
        <ele>1033.0</ele>
        <time>2013-06-30T12:11:14Z</time>
      </trkpt>
      <trkpt lat="40.242850" lon="-4.884683">
        <ele>1036.0</ele>
        <time>2013-06-30T12:11:15Z</time>
      </trkpt>
      <trkpt lat="40.242767" lon="-4.884700">
        <ele>1040.0</ele>
        <time>2013-06-30T12:11:16Z</time>
      </trkpt>
      <trkpt lat="40.242700" lon="-4.884717">
        <ele>1043.0</ele>
        <time>2013-06-30T12:11:17Z</time>
      </trkpt>
      <trkpt lat="40.242600" lon="-4.884733">
        <ele>1046.0</ele>
        <time>2013-06-30T12:11:18Z</time>
      </trkpt>
      <trkpt lat="40.242517" lon="-4.884750">
        <ele>1049.0</ele>
        <time>2013-06-30T12:11:19Z</time>
      </trkpt>
      <trkpt lat="40.242417" lon="-4.884783">
        <ele>1051.0</ele>
        <time>2013-06-30T12:11:20Z</time>
      </trkpt>
      <trkpt lat="40.242333" lon="-4.884817">
        <ele>1054.0</ele>
        <time>2013-06-30T12:11:21Z</time>
      </trkpt>
      <trkpt lat="40.242250" lon="-4.884867">
        <ele>1058.0</ele>
        <time>2013-06-30T12:11:22Z</time>
      </trkpt>
      <trkpt lat="40.242200" lon="-4.884933">
        <ele>1060.0</ele>
        <time>2013-06-30T12:11:23Z</time>
      </trkpt>
      <trkpt lat="40.242150" lon="-4.885033">
        <ele>1062.0</ele>
        <time>2013-06-30T12:11:24Z</time>
      </trkpt>
      <trkpt lat="40.242100" lon="-4.885133">
        <ele>1062.0</ele>
        <time>2013-06-30T12:11:25Z</time>
      </trkpt>
      <trkpt lat="40.242050" lon="-4.885250">
        <ele>1062.0</ele>
        <time>2013-06-30T12:11:26Z</time>
      </trkpt>
      <trkpt lat="40.242017" lon="-4.885367">
        <ele>1063.0</ele>
        <time>2013-06-30T12:11:27Z</time>
      </trkpt>
      <trkpt lat="40.242000" lon="-4.885483">
        <ele>1064.0</ele>
        <time>2013-06-30T12:11:28Z</time>
      </trkpt>
      <trkpt lat="40.242017" lon="-4.885600">
        <ele>1065.0</ele>
        <time>2013-06-30T12:11:29Z</time>
      </trkpt>
      <trkpt lat="40.242050" lon="-4.885700">
        <ele>1065.0</ele>
        <time>2013-06-30T12:11:30Z</time>
      </trkpt>
      <trkpt lat="40.242100" lon="-4.885783">
        <ele>1065.0</ele>
        <time>2013-06-30T12:11:31Z</time>
      </trkpt>
      <trkpt lat="40.242150" lon="-4.885850">
        <ele>1065.0</ele>
        <time>2013-06-30T12:11:32Z</time>
      </trkpt>
      <trkpt lat="40.242217" lon="-4.885900">
        <ele>1066.0</ele>
        <time>2013-06-30T12:11:33Z</time>
      </trkpt>
      <trkpt lat="40.242283" lon="-4.885950">
        <ele>1068.0</ele>
        <time>2013-06-30T12:11:34Z</time>
      </trkpt>
      <trkpt lat="40.242333" lon="-4.886000">
        <ele>1070.0</ele>
        <time>2013-06-30T12:11:35Z</time>
      </trkpt>
      <trkpt lat="40.242400" lon="-4.886050">
        <ele>1072.0</ele>
        <time>2013-06-30T12:11:36Z</time>
      </trkpt>
      <trkpt lat="40.242467" lon="-4.886067">
        <ele>1074.0</ele>
        <time>2013-06-30T12:11:37Z</time>
      </trkpt>
      <trkpt lat="40.242533" lon="-4.886083">
        <ele>1076.0</ele>
        <time>2013-06-30T12:11:38Z</time>
      </trkpt>
      <trkpt lat="40.242600" lon="-4.886067">
        <ele>1078.0</ele>
        <time>2013-06-30T12:11:39Z</time>
      </trkpt>
      <trkpt lat="40.242683" lon="-4.886050">
        <ele>1081.0</ele>
        <time>2013-06-30T12:11:40Z</time>
      </trkpt>
      <trkpt lat="40.242750" lon="-4.886033">
        <ele>1085.0</ele>
        <time>2013-06-30T12:11:41Z</time>
      </trkpt>
      <trkpt lat="40.242800" lon="-4.886000">
        <ele>1089.0</ele>
        <time>2013-06-30T12:11:42Z</time>
      </trkpt>
      <trkpt lat="40.242850" lon="-4.885950">
        <ele>1093.0</ele>
        <time>2013-06-30T12:11:43Z</time>
      </trkpt>
      <trkpt lat="40.242917" lon="-4.885900">
        <ele>1096.0</ele>
        <time>2013-06-30T12:11:44Z</time>
      </trkpt>
      <trkpt lat="40.242983" lon="-4.885850">
        <ele>1100.0</ele>
        <time>2013-06-30T12:11:45Z</time>
      </trkpt>
      <trkpt lat="40.243033" lon="-4.885817">
        <ele>1103.0</ele>
        <time>2013-06-30T12:11:46Z</time>
      </trkpt>
      <trkpt lat="40.243100" lon="-4.885750">
        <ele>1106.0</ele>
        <time>2013-06-30T12:11:47Z</time>
      </trkpt>
      <trkpt lat="40.243133" lon="-4.885683">
        <ele>1109.0</ele>
        <time>2013-06-30T12:11:48Z</time>
      </trkpt>
      <trkpt lat="40.243167" lon="-4.885583">
        <ele>1111.0</ele>
        <time>2013-06-30T12:11:49Z</time>
      </trkpt>
      <trkpt lat="40.243167" lon="-4.885500">
        <ele>1113.0</ele>
        <time>2013-06-30T12:11:50Z</time>
      </trkpt>
      <trkpt lat="40.243150" lon="-4.885400">
        <ele>1116.0</ele>
        <time>2013-06-30T12:11:51Z</time>
      </trkpt>
      <trkpt lat="40.243117" lon="-4.885317">
        <ele>1118.0</ele>
        <time>2013-06-30T12:11:52Z</time>
      </trkpt>
      <trkpt lat="40.243083" lon="-4.885250">
        <ele>1121.0</ele>
        <time>2013-06-30T12:11:53Z</time>
      </trkpt>
      <trkpt lat="40.243033" lon="-4.885183">
        <ele>1123.0</ele>
        <time>2013-06-30T12:11:54Z</time>
      </trkpt>
      <trkpt lat="40.242967" lon="-4.885117">
        <ele>1125.0</ele>
        <time>2013-06-30T12:11:55Z</time>
      </trkpt>
      <trkpt lat="40.242883" lon="-4.885083">
        <ele>1127.0</ele>
        <time>2013-06-30T12:11:56Z</time>
      </trkpt>
      <trkpt lat="40.242800" lon="-4.885083">
        <ele>1129.0</ele>
        <time>2013-06-30T12:11:57Z</time>
      </trkpt>
      <trkpt lat="40.242717" lon="-4.885100">
        <ele>1131.0</ele>
        <time>2013-06-30T12:11:58Z</time>
      </trkpt>
      <trkpt lat="40.242617" lon="-4.885117">
        <ele>1134.0</ele>
        <time>2013-06-30T12:11:59Z</time>
      </trkpt>
      <trkpt lat="40.242533" lon="-4.885117">
        <ele>1136.0</ele>
        <time>2013-06-30T12:12:00Z</time>
      </trkpt>
      <trkpt lat="40.242450" lon="-4.885133">
        <ele>1139.0</ele>
        <time>2013-06-30T12:12:01Z</time>
      </trkpt>
      <trkpt lat="40.242367" lon="-4.885183">
        <ele>1141.0</ele>
        <time>2013-06-30T12:12:02Z</time>
      </trkpt>
      <trkpt lat="40.242283" lon="-4.885233">
        <ele>1144.0</ele>
        <time>2013-06-30T12:12:03Z</time>
      </trkpt>
      <trkpt lat="40.242200" lon="-4.885333">
        <ele>1145.0</ele>
        <time>2013-06-30T12:12:04Z</time>
      </trkpt>
      <trkpt lat="40.242133" lon="-4.885450">
        <ele>1148.0</ele>
        <time>2013-06-30T12:12:05Z</time>
      </trkpt>
      <trkpt lat="40.242100" lon="-4.885567">
        <ele>1151.0</ele>
        <time>2013-06-30T12:12:06Z</time>
      </trkpt>
      <trkpt lat="40.242083" lon="-4.885700">
        <ele>1154.0</ele>
        <time>2013-06-30T12:12:07Z</time>
      </trkpt>
      <trkpt lat="40.242083" lon="-4.885833">
        <ele>1156.0</ele>
        <time>2013-06-30T12:12:08Z</time>
      </trkpt>
      <trkpt lat="40.242083" lon="-4.885950">
        <ele>1159.0</ele>
        <time>2013-06-30T12:12:09Z</time>
      </trkpt>
      <trkpt lat="40.242117" lon="-4.886083">
        <ele>1161.0</ele>
        <time>2013-06-30T12:12:10Z</time>
      </trkpt>
      <trkpt lat="40.242150" lon="-4.886183">
        <ele>1164.0</ele>
        <time>2013-06-30T12:12:11Z</time>
      </trkpt>
      <trkpt lat="40.242200" lon="-4.886283">
        <ele>1166.0</ele>
        <time>2013-06-30T12:12:12Z</time>
      </trkpt>
      <trkpt lat="40.242250" lon="-4.886367">
        <ele>1170.0</ele>
        <time>2013-06-30T12:12:13Z</time>
      </trkpt>
      <trkpt lat="40.242317" lon="-4.886417">
        <ele>1174.0</ele>
        <time>2013-06-30T12:12:14Z</time>
      </trkpt>
      <trkpt lat="40.242367" lon="-4.886450">
        <ele>1178.0</ele>
        <time>2013-06-30T12:12:15Z</time>
      </trkpt>
      <trkpt lat="40.242433" lon="-4.886467">
        <ele>1181.0</ele>
        <time>2013-06-30T12:12:16Z</time>
      </trkpt>
      <trkpt lat="40.242500" lon="-4.886467">
        <ele>1185.0</ele>
        <time>2013-06-30T12:12:17Z</time>
      </trkpt>
      <trkpt lat="40.242583" lon="-4.886467">
        <ele>1188.0</ele>
        <time>2013-06-30T12:12:18Z</time>
      </trkpt>
      <trkpt lat="40.242650" lon="-4.886450">
        <ele>1192.0</ele>
        <time>2013-06-30T12:12:19Z</time>
      </trkpt>
      <trkpt lat="40.242700" lon="-4.886400">
        <ele>1195.0</ele>
        <time>2013-06-30T12:12:20Z</time>
      </trkpt>
      <trkpt lat="40.242750" lon="-4.886333">
        <ele>1198.0</ele>
        <time>2013-06-30T12:12:21Z</time>
      </trkpt>
      <trkpt lat="40.242800" lon="-4.886250">
        <ele>1201.0</ele>
        <time>2013-06-30T12:12:22Z</time>
      </trkpt>
      <trkpt lat="40.242817" lon="-4.886150">
        <ele>1204.0</ele>
        <time>2013-06-30T12:12:23Z</time>
      </trkpt>
      <trkpt lat="40.242817" lon="-4.886067">
        <ele>1207.0</ele>
        <time>2013-06-30T12:12:24Z</time>
      </trkpt>
      <trkpt lat="40.242800" lon="-4.886000">
        <ele>1210.0</ele>
        <time>2013-06-30T12:12:25Z</time>
      </trkpt>
      <trkpt lat="40.242800" lon="-4.885917">
        <ele>1213.0</ele>
        <time>2013-06-30T12:12:26Z</time>
      </trkpt>
      <trkpt lat="40.242783" lon="-4.885850">
        <ele>1215.0</ele>
        <time>2013-06-30T12:12:27Z</time>
      </trkpt>
      <trkpt lat="40.242750" lon="-4.885750">
        <ele>1216.0</ele>
        <time>2013-06-30T12:12:28Z</time>
      </trkpt>
      <trkpt lat="40.242733" lon="-4.885667">
        <ele>1217.0</ele>
        <time>2013-06-30T12:12:29Z</time>
      </trkpt>
      <trkpt lat="40.242683" lon="-4.885600">
        <ele>1220.0</ele>
        <time>2013-06-30T12:12:30Z</time>
      </trkpt>
      <trkpt lat="40.242600" lon="-4.885567">
        <ele>1222.0</ele>
        <time>2013-06-30T12:12:31Z</time>
      </trkpt>
      <trkpt lat="40.242517" lon="-4.885550">
        <ele>1223.0</ele>
        <time>2013-06-30T12:12:32Z</time>
      </trkpt>
      <trkpt lat="40.242417" lon="-4.885567">
        <ele>1225.0</ele>
        <time>2013-06-30T12:12:33Z</time>
      </trkpt>
      <trkpt lat="40.242333" lon="-4.885600">
        <ele>1228.0</ele>
        <time>2013-06-30T12:12:34Z</time>
      </trkpt>
      <trkpt lat="40.242250" lon="-4.885633">
        <ele>1231.0</ele>
        <time>2013-06-30T12:12:35Z</time>
      </trkpt>
      <trkpt lat="40.242167" lon="-4.885700">
        <ele>1234.0</ele>
        <time>2013-06-30T12:12:36Z</time>
      </trkpt>
      <trkpt lat="40.242100" lon="-4.885767">
        <ele>1236.0</ele>
        <time>2013-06-30T12:12:37Z</time>
      </trkpt>
      <trkpt lat="40.242033" lon="-4.885883">
        <ele>1237.0</ele>
        <time>2013-06-30T12:12:38Z</time>
      </trkpt>
      <trkpt lat="40.241967" lon="-4.886000">
        <ele>1239.0</ele>
        <time>2013-06-30T12:12:39Z</time>
      </trkpt>
      <trkpt lat="40.241933" lon="-4.886133">
        <ele>1241.0</ele>
        <time>2013-06-30T12:12:40Z</time>
      </trkpt>
      <trkpt lat="40.241933" lon="-4.886267">
        <ele>1244.0</ele>
        <time>2013-06-30T12:12:41Z</time>
      </trkpt>
      <trkpt lat="40.241933" lon="-4.886400">
        <ele>1247.0</ele>
        <time>2013-06-30T12:12:42Z</time>
      </trkpt>
      <trkpt lat="40.241950" lon="-4.886500">
        <ele>1250.0</ele>
        <time>2013-06-30T12:12:43Z</time>
      </trkpt>
      <trkpt lat="40.241983" lon="-4.886583">
        <ele>1252.0</ele>
        <time>2013-06-30T12:12:44Z</time>
      </trkpt>
      <trkpt lat="40.242033" lon="-4.886667">
        <ele>1255.0</ele>
        <time>2013-06-30T12:12:45Z</time>
      </trkpt>
      <trkpt lat="40.242100" lon="-4.886700">
        <ele>1257.0</ele>
        <time>2013-06-30T12:12:46Z</time>
      </trkpt>
      <trkpt lat="40.242167" lon="-4.886717">
        <ele>1260.0</ele>
        <time>2013-06-30T12:12:47Z</time>
      </trkpt>
      <trkpt lat="40.242217" lon="-4.886700">
        <ele>1263.0</ele>
        <time>2013-06-30T12:12:48Z</time>
      </trkpt>
      <trkpt lat="40.242267" lon="-4.886667">
        <ele>1266.0</ele>
        <time>2013-06-30T12:12:49Z</time>
      </trkpt>
      <trkpt lat="40.242300" lon="-4.886600">
        <ele>1268.0</ele>
        <time>2013-06-30T12:12:50Z</time>
      </trkpt>
      <trkpt lat="40.242317" lon="-4.886517">
        <ele>1270.0</ele>
        <time>2013-06-30T12:12:51Z</time>
      </trkpt>
      <trkpt lat="40.242333" lon="-4.886433">
        <ele>1272.0</ele>
        <time>2013-06-30T12:12:52Z</time>
      </trkpt>
      <trkpt lat="40.242350" lon="-4.886350">
        <ele>1274.0</ele>
        <time>2013-06-30T12:12:53Z</time>
      </trkpt>
      <trkpt lat="40.242350" lon="-4.886250">
        <ele>1276.0</ele>
        <time>2013-06-30T12:12:54Z</time>
      </trkpt>
      <trkpt lat="40.242333" lon="-4.886150">
        <ele>1279.0</ele>
        <time>2013-06-30T12:12:55Z</time>
      </trkpt>
      <trkpt lat="40.242317" lon="-4.886067">
        <ele>1282.0</ele>
        <time>2013-06-30T12:12:56Z</time>
      </trkpt>
      <trkpt lat="40.242300" lon="-4.885983">
        <ele>1284.0</ele>
        <time>2013-06-30T12:12:57Z</time>
      </trkpt>
      <trkpt lat="40.242267" lon="-4.885883">
        <ele>1286.0</ele>
        <time>2013-06-30T12:12:58Z</time>
      </trkpt>
      <trkpt lat="40.242217" lon="-4.885800">
        <ele>1288.0</ele>
        <time>2013-06-30T12:12:59Z</time>
      </trkpt>
      <trkpt lat="40.242150" lon="-4.885750">
        <ele>1290.0</ele>
        <time>2013-06-30T12:13:00Z</time>
      </trkpt>
      <trkpt lat="40.242067" lon="-4.885700">
        <ele>1292.0</ele>
        <time>2013-06-30T12:13:01Z</time>
      </trkpt>
      <trkpt lat="40.241967" lon="-4.885700">
        <ele>1293.0</ele>
        <time>2013-06-30T12:13:02Z</time>
      </trkpt>
      <trkpt lat="40.241867" lon="-4.885733">
        <ele>1295.0</ele>
        <time>2013-06-30T12:13:03Z</time>
      </trkpt>
      <trkpt lat="40.241767" lon="-4.885800">
        <ele>1297.0</ele>
        <time>2013-06-30T12:13:04Z</time>
      </trkpt>
      <trkpt lat="40.241700" lon="-4.885883">
        <ele>1299.0</ele>
        <time>2013-06-30T12:13:05Z</time>
      </trkpt>
      <trkpt lat="40.241633" lon="-4.885983">
        <ele>1302.0</ele>
        <time>2013-06-30T12:13:06Z</time>
      </trkpt>
      <trkpt lat="40.241583" lon="-4.886100">
        <ele>1303.0</ele>
        <time>2013-06-30T12:13:07Z</time>
      </trkpt>
      <trkpt lat="40.241550" lon="-4.886217">
        <ele>1303.0</ele>
        <time>2013-06-30T12:13:08Z</time>
      </trkpt>
      <trkpt lat="40.241517" lon="-4.886350">
        <ele>1304.0</ele>
        <time>2013-06-30T12:13:09Z</time>
      </trkpt>
      <trkpt lat="40.241517" lon="-4.886483">
        <ele>1305.0</ele>
        <time>2013-06-30T12:13:10Z</time>
      </trkpt>
      <trkpt lat="40.241517" lon="-4.886583">
        <ele>1305.0</ele>
        <time>2013-06-30T12:13:11Z</time>
      </trkpt>
      <trkpt lat="40.241533" lon="-4.886700">
        <ele>1306.0</ele>
        <time>2013-06-30T12:13:12Z</time>
      </trkpt>
      <trkpt lat="40.241567" lon="-4.886800">
        <ele>1306.0</ele>
        <time>2013-06-30T12:13:13Z</time>
      </trkpt>
      <trkpt lat="40.241600" lon="-4.886900">
        <ele>1305.0</ele>
        <time>2013-06-30T12:13:14Z</time>
      </trkpt>
      <trkpt lat="40.241650" lon="-4.886983">
        <ele>1305.0</ele>
        <time>2013-06-30T12:13:15Z</time>
      </trkpt>
      <trkpt lat="40.241717" lon="-4.887033">
        <ele>1306.0</ele>
        <time>2013-06-30T12:13:16Z</time>
      </trkpt>
      <trkpt lat="40.241783" lon="-4.887067">
        <ele>1308.0</ele>
        <time>2013-06-30T12:13:17Z</time>
      </trkpt>
      <trkpt lat="40.241850" lon="-4.887083">
        <ele>1309.0</ele>
        <time>2013-06-30T12:13:18Z</time>
      </trkpt>
      <trkpt lat="40.241900" lon="-4.887083">
        <ele>1311.0</ele>
        <time>2013-06-30T12:13:19Z</time>
      </trkpt>
      <trkpt lat="40.241967" lon="-4.887067">
        <ele>1313.0</ele>
        <time>2013-06-30T12:13:20Z</time>
      </trkpt>
      <trkpt lat="40.242017" lon="-4.887050">
        <ele>1314.0</ele>
        <time>2013-06-30T12:13:21Z</time>
      </trkpt>
      <trkpt lat="40.242067" lon="-4.887017">
        <ele>1316.0</ele>
        <time>2013-06-30T12:13:22Z</time>
      </trkpt>
      <trkpt lat="40.242117" lon="-4.886967">
        <ele>1317.0</ele>
        <time>2013-06-30T12:13:23Z</time>
      </trkpt>
      <trkpt lat="40.242150" lon="-4.886900">
        <ele>1320.0</ele>
        <time>2013-06-30T12:13:24Z</time>
      </trkpt>
      <trkpt lat="40.242200" lon="-4.886833">
        <ele>1322.0</ele>
        <time>2013-06-30T12:13:25Z</time>
      </trkpt>
      <trkpt lat="40.242217" lon="-4.886767">
        <ele>1325.0</ele>
        <time>2013-06-30T12:13:26Z</time>
      </trkpt>
      <trkpt lat="40.242233" lon="-4.886700">
        <ele>1327.0</ele>
        <time>2013-06-30T12:13:27Z</time>
      </trkpt>
      <trkpt lat="40.242233" lon="-4.886617">
        <ele>1328.0</ele>
        <time>2013-06-30T12:13:28Z</time>
      </trkpt>
      <trkpt lat="40.242233" lon="-4.886517">
        <ele>1330.0</ele>
        <time>2013-06-30T12:13:29Z</time>
      </trkpt>
      <trkpt lat="40.242200" lon="-4.886433">
        <ele>1332.0</ele>
        <time>2013-06-30T12:13:30Z</time>
      </trkpt>
      <trkpt lat="40.242167" lon="-4.886350">
        <ele>1335.0</ele>
        <time>2013-06-30T12:13:31Z</time>
      </trkpt>
      <trkpt lat="40.242117" lon="-4.886300">
        <ele>1339.0</ele>
        <time>2013-06-30T12:13:32Z</time>
      </trkpt>
      <trkpt lat="40.242067" lon="-4.886250">
        <ele>1342.0</ele>
        <time>2013-06-30T12:13:33Z</time>
      </trkpt>
      <trkpt lat="40.242000" lon="-4.886183">
        <ele>1343.0</ele>
        <time>2013-06-30T12:13:34Z</time>
      </trkpt>
      <trkpt lat="40.241917" lon="-4.886117">
        <ele>1344.0</ele>
        <time>2013-06-30T12:13:35Z</time>
      </trkpt>
      <trkpt lat="40.241817" lon="-4.886067">
        <ele>1345.0</ele>
        <time>2013-06-30T12:13:36Z</time>
      </trkpt>
      <trkpt lat="40.241717" lon="-4.886050">
        <ele>1347.0</ele>
        <time>2013-06-30T12:13:37Z</time>
      </trkpt>
      <trkpt lat="40.241617" lon="-4.886083">
        <ele>1348.0</ele>
        <time>2013-06-30T12:13:38Z</time>
      </trkpt>
      <trkpt lat="40.241517" lon="-4.886117">
        <ele>1349.0</ele>
        <time>2013-06-30T12:13:39Z</time>
      </trkpt>
      <trkpt lat="40.241417" lon="-4.886167">
        <ele>1350.0</ele>
        <time>2013-06-30T12:13:40Z</time>
      </trkpt>
      <trkpt lat="40.241317" lon="-4.886233">
        <ele>1351.0</ele>
        <time>2013-06-30T12:13:41Z</time>
      </trkpt>
      <trkpt lat="40.241233" lon="-4.886300">
        <ele>1351.0</ele>
        <time>2013-06-30T12:13:42Z</time>
      </trkpt>
      <trkpt lat="40.241150" lon="-4.886383">
        <ele>1352.0</ele>
        <time>2013-06-30T12:13:43Z</time>
      </trkpt>
      <trkpt lat="40.241100" lon="-4.886500">
        <ele>1351.0</ele>
        <time>2013-06-30T12:13:44Z</time>
      </trkpt>
      <trkpt lat="40.241067" lon="-4.886633">
        <ele>1350.0</ele>
        <time>2013-06-30T12:13:45Z</time>
      </trkpt>
      <trkpt lat="40.241017" lon="-4.886750">
        <ele>1349.0</ele>
        <time>2013-06-30T12:13:46Z</time>
      </trkpt>
      <trkpt lat="40.240983" lon="-4.886867">
        <ele>1350.0</ele>
        <time>2013-06-30T12:13:47Z</time>
      </trkpt>
      <trkpt lat="40.240950" lon="-4.886983">
        <ele>1351.0</ele>
        <time>2013-06-30T12:13:48Z</time>
      </trkpt>
      <trkpt lat="40.240950" lon="-4.887100">
        <ele>1352.0</ele>
        <time>2013-06-30T12:13:49Z</time>
      </trkpt>
      <trkpt lat="40.240967" lon="-4.887217">
        <ele>1351.0</ele>
        <time>2013-06-30T12:13:50Z</time>
      </trkpt>
      <trkpt lat="40.241000" lon="-4.887350">
        <ele>1350.0</ele>
        <time>2013-06-30T12:13:51Z</time>
      </trkpt>
      <trkpt lat="40.241033" lon="-4.887450">
        <ele>1350.0</ele>
        <time>2013-06-30T12:13:52Z</time>
      </trkpt>
      <trkpt lat="40.241067" lon="-4.887533">
        <ele>1351.0</ele>
        <time>2013-06-30T12:13:53Z</time>
      </trkpt>
      <trkpt lat="40.241100" lon="-4.887583">
        <ele>1352.0</ele>
        <time>2013-06-30T12:13:54Z</time>
      </trkpt>
      <trkpt lat="40.241133" lon="-4.887617">
        <ele>1352.0</ele>
        <time>2013-06-30T12:13:55Z</time>
      </trkpt>
      <trkpt lat="40.241183" lon="-4.887683">
        <ele>1351.0</ele>
        <time>2013-06-30T12:13:56Z</time>
      </trkpt>
      <trkpt lat="40.241250" lon="-4.887750">
        <ele>1348.0</ele>
        <time>2013-06-30T12:13:57Z</time>
      </trkpt>
      <trkpt lat="40.241333" lon="-4.887800">
        <ele>1346.0</ele>
        <time>2013-06-30T12:13:58Z</time>
      </trkpt>
      <trkpt lat="40.241417" lon="-4.887850">
        <ele>1345.0</ele>
        <time>2013-06-30T12:13:59Z</time>
      </trkpt>
      <trkpt lat="40.241500" lon="-4.887850">
        <ele>1344.0</ele>
        <time>2013-06-30T12:14:00Z</time>
      </trkpt>
      <trkpt lat="40.241567" lon="-4.887850">
        <ele>1346.0</ele>
        <time>2013-06-30T12:14:01Z</time>
      </trkpt>
      <trkpt lat="40.241633" lon="-4.887817">
        <ele>1346.0</ele>
        <time>2013-06-30T12:14:02Z</time>
      </trkpt>
      <trkpt lat="40.241683" lon="-4.887800">
        <ele>1346.0</ele>
        <time>2013-06-30T12:14:03Z</time>
      </trkpt>
      <trkpt lat="40.241750" lon="-4.887750">
        <ele>1347.0</ele>
        <time>2013-06-30T12:14:04Z</time>
      </trkpt>
      <trkpt lat="40.241800" lon="-4.887700">
        <ele>1348.0</ele>
        <time>2013-06-30T12:14:05Z</time>
      </trkpt>
      <trkpt lat="40.241850" lon="-4.887650">
        <ele>1350.0</ele>
        <time>2013-06-30T12:14:06Z</time>
      </trkpt>
      <trkpt lat="40.241917" lon="-4.887600">
        <ele>1352.0</ele>
        <time>2013-06-30T12:14:07Z</time>
      </trkpt>
      <trkpt lat="40.241967" lon="-4.887583">
        <ele>1355.0</ele>
        <time>2013-06-30T12:14:08Z</time>
      </trkpt>
      <trkpt lat="40.242017" lon="-4.887550">
        <ele>1356.0</ele>
        <time>2013-06-30T12:14:09Z</time>
      </trkpt>
      <trkpt lat="40.242083" lon="-4.887500">
        <ele>1358.0</ele>
        <time>2013-06-30T12:14:10Z</time>
      </trkpt>
      <trkpt lat="40.242150" lon="-4.887467">
        <ele>1360.0</ele>
        <time>2013-06-30T12:14:11Z</time>
      </trkpt>
      <trkpt lat="40.242217" lon="-4.887417">
        <ele>1362.0</ele>
        <time>2013-06-30T12:14:12Z</time>
      </trkpt>
      <trkpt lat="40.242283" lon="-4.887350">
        <ele>1366.0</ele>
        <time>2013-06-30T12:14:13Z</time>
      </trkpt>
      <trkpt lat="40.242317" lon="-4.887283">
        <ele>1372.0</ele>
        <time>2013-06-30T12:14:14Z</time>
      </trkpt>
      <trkpt lat="40.242333" lon="-4.887217">
        <ele>1376.0</ele>
        <time>2013-06-30T12:14:15Z</time>
      </trkpt>
      <trkpt lat="40.242367" lon="-4.887117">
        <ele>1380.0</ele>
        <time>2013-06-30T12:14:16Z</time>
      </trkpt>
      <trkpt lat="40.242383" lon="-4.887033">
        <ele>1383.0</ele>
        <time>2013-06-30T12:14:17Z</time>
      </trkpt>
      <trkpt lat="40.242400" lon="-4.886950">
        <ele>1386.0</ele>
        <time>2013-06-30T12:14:18Z</time>
      </trkpt>
      <trkpt lat="40.242417" lon="-4.886850">
        <ele>1390.0</ele>
        <time>2013-06-30T12:14:19Z</time>
      </trkpt>
      <trkpt lat="40.242400" lon="-4.886767">
        <ele>1395.0</ele>
        <time>2013-06-30T12:14:20Z</time>
      </trkpt>
      <trkpt lat="40.242383" lon="-4.886700">
        <ele>1400.0</ele>
        <time>2013-06-30T12:14:21Z</time>
      </trkpt>
      <trkpt lat="40.242367" lon="-4.886633">
        <ele>1403.0</ele>
        <time>2013-06-30T12:14:22Z</time>
      </trkpt>
      <trkpt lat="40.242333" lon="-4.886567">
        <ele>1406.0</ele>
        <time>2013-06-30T12:14:23Z</time>
      </trkpt>
      <trkpt lat="40.242283" lon="-4.886500">
        <ele>1408.0</ele>
        <time>2013-06-30T12:14:24Z</time>
      </trkpt>
      <trkpt lat="40.242233" lon="-4.886450">
        <ele>1411.0</ele>
        <time>2013-06-30T12:14:25Z</time>
      </trkpt>
      <trkpt lat="40.242167" lon="-4.886417">
        <ele>1413.0</ele>
        <time>2013-06-30T12:14:26Z</time>
      </trkpt>
      <trkpt lat="40.242100" lon="-4.886383">
        <ele>1414.0</ele>
        <time>2013-06-30T12:14:27Z</time>
      </trkpt>
      <trkpt lat="40.242017" lon="-4.886383">
        <ele>1415.0</ele>
        <time>2013-06-30T12:14:28Z</time>
      </trkpt>
      <trkpt lat="40.241950" lon="-4.886400">
        <ele>1416.0</ele>
        <time>2013-06-30T12:14:29Z</time>
      </trkpt>
      <trkpt lat="40.241867" lon="-4.886433">
        <ele>1417.0</ele>
        <time>2013-06-30T12:14:30Z</time>
      </trkpt>
      <trkpt lat="40.241783" lon="-4.886483">
        <ele>1417.0</ele>
        <time>2013-06-30T12:14:31Z</time>
      </trkpt>
      <trkpt lat="40.241717" lon="-4.886567">
        <ele>1417.0</ele>
        <time>2013-06-30T12:14:32Z</time>
      </trkpt>
      <trkpt lat="40.241633" lon="-4.886683">
        <ele>1417.0</ele>
        <time>2013-06-30T12:14:33Z</time>
      </trkpt>
      <trkpt lat="40.241567" lon="-4.886800">
        <ele>1417.0</ele>
        <time>2013-06-30T12:14:34Z</time>
      </trkpt>
      <trkpt lat="40.241517" lon="-4.886917">
        <ele>1417.0</ele>
        <time>2013-06-30T12:14:35Z</time>
      </trkpt>
      <trkpt lat="40.241483" lon="-4.887033">
        <ele>1418.0</ele>
        <time>2013-06-30T12:14:36Z</time>
      </trkpt>
      <trkpt lat="40.241467" lon="-4.887183">
        <ele>1419.0</ele>
        <time>2013-06-30T12:14:37Z</time>
      </trkpt>
      <trkpt lat="40.241450" lon="-4.887333">
        <ele>1419.0</ele>
        <time>2013-06-30T12:14:38Z</time>
      </trkpt>
      <trkpt lat="40.241433" lon="-4.887500">
        <ele>1420.0</ele>
        <time>2013-06-30T12:14:39Z</time>
      </trkpt>
      <trkpt lat="40.241417" lon="-4.887633">
        <ele>1423.0</ele>
        <time>2013-06-30T12:14:40Z</time>
      </trkpt>
      <trkpt lat="40.241417" lon="-4.887750">
        <ele>1428.0</ele>
        <time>2013-06-30T12:14:41Z</time>
      </trkpt>
      <trkpt lat="40.241433" lon="-4.887867">
        <ele>1432.0</ele>
        <time>2013-06-30T12:14:42Z</time>
      </trkpt>
      <trkpt lat="40.241450" lon="-4.887983">
        <ele>1435.0</ele>
        <time>2013-06-30T12:14:43Z</time>
      </trkpt>
      <trkpt lat="40.241500" lon="-4.888100">
        <ele>1438.0</ele>
        <time>2013-06-30T12:14:44Z</time>
      </trkpt>
      <trkpt lat="40.241550" lon="-4.888217">
        <ele>1439.0</ele>
        <time>2013-06-30T12:14:45Z</time>
      </trkpt>
      <trkpt lat="40.241600" lon="-4.888317">
        <ele>1442.0</ele>
        <time>2013-06-30T12:14:46Z</time>
      </trkpt>
      <trkpt lat="40.241650" lon="-4.888400">
        <ele>1445.0</ele>
        <time>2013-06-30T12:14:47Z</time>
      </trkpt>
      <trkpt lat="40.241717" lon="-4.888450">
        <ele>1448.0</ele>
        <time>2013-06-30T12:14:48Z</time>
      </trkpt>
      <trkpt lat="40.241783" lon="-4.888500">
        <ele>1450.0</ele>
        <time>2013-06-30T12:14:49Z</time>
      </trkpt>
      <trkpt lat="40.241850" lon="-4.888533">
        <ele>1452.0</ele>
        <time>2013-06-30T12:14:50Z</time>
      </trkpt>
      <trkpt lat="40.241917" lon="-4.888583">
        <ele>1454.0</ele>
        <time>2013-06-30T12:14:51Z</time>
      </trkpt>
      <trkpt lat="40.242000" lon="-4.888617">
        <ele>1457.0</ele>
        <time>2013-06-30T12:14:52Z</time>
      </trkpt>
      <trkpt lat="40.242067" lon="-4.888617">
        <ele>1459.0</ele>
        <time>2013-06-30T12:14:53Z</time>
      </trkpt>
      <trkpt lat="40.242133" lon="-4.888617">
        <ele>1463.0</ele>
        <time>2013-06-30T12:14:54Z</time>
      </trkpt>
      <trkpt lat="40.242183" lon="-4.888583">
        <ele>1466.0</ele>
        <time>2013-06-30T12:14:55Z</time>
      </trkpt>
      <trkpt lat="40.242233" lon="-4.888567">
        <ele>1469.0</ele>
        <time>2013-06-30T12:14:56Z</time>
      </trkpt>
      <trkpt lat="40.242283" lon="-4.888533">
        <ele>1472.0</ele>
        <time>2013-06-30T12:14:57Z</time>
      </trkpt>
      <trkpt lat="40.242333" lon="-4.888483">
        <ele>1473.0</ele>
        <time>2013-06-30T12:14:58Z</time>
      </trkpt>
      <trkpt lat="40.242383" lon="-4.888417">
        <ele>1475.0</ele>
        <time>2013-06-30T12:14:59Z</time>
      </trkpt>
      <trkpt lat="40.242417" lon="-4.888333">
        <ele>1477.0</ele>
        <time>2013-06-30T12:15:00Z</time>
      </trkpt>
      <trkpt lat="40.242450" lon="-4.888267">
        <ele>1479.0</ele>
        <time>2013-06-30T12:15:01Z</time>
      </trkpt>
      <trkpt lat="40.242450" lon="-4.888200">
        <ele>1482.0</ele>
        <time>2013-06-30T12:15:02Z</time>
      </trkpt>
      <trkpt lat="40.242450" lon="-4.888117">
        <ele>1485.0</ele>
        <time>2013-06-30T12:15:03Z</time>
      </trkpt>
      <trkpt lat="40.242467" lon="-4.888033">
        <ele>1487.0</ele>
        <time>2013-06-30T12:15:04Z</time>
      </trkpt>
      <trkpt lat="40.242467" lon="-4.887950">
        <ele>1490.0</ele>
        <time>2013-06-30T12:15:05Z</time>
      </trkpt>
      <trkpt lat="40.242483" lon="-4.887867">
        <ele>1493.0</ele>
        <time>2013-06-30T12:15:06Z</time>
      </trkpt>
      <trkpt lat="40.242467" lon="-4.887800">
        <ele>1497.0</ele>
        <time>2013-06-30T12:15:07Z</time>
      </trkpt>
      <trkpt lat="40.242467" lon="-4.887733">
        <ele>1499.0</ele>
        <time>2013-06-30T12:15:08Z</time>
      </trkpt>
      <trkpt lat="40.242433" lon="-4.887650">
        <ele>1500.0</ele>
        <time>2013-06-30T12:15:09Z</time>
      </trkpt>
      <trkpt lat="40.242400" lon="-4.887567">
        <ele>1500.0</ele>
        <time>2013-06-30T12:15:10Z</time>
      </trkpt>
      <trkpt lat="40.242367" lon="-4.887500">
        <ele>1499.0</ele>
        <time>2013-06-30T12:15:11Z</time>
      </trkpt>
      <trkpt lat="40.242317" lon="-4.887433">
        <ele>1499.0</ele>
        <time>2013-06-30T12:15:12Z</time>
      </trkpt>
      <trkpt lat="40.242250" lon="-4.887383">
        <ele>1498.0</ele>
        <time>2013-06-30T12:15:13Z</time>
      </trkpt>
      <trkpt lat="40.242183" lon="-4.887317">
        <ele>1496.0</ele>
        <time>2013-06-30T12:15:14Z</time>
      </trkpt>
      <trkpt lat="40.242083" lon="-4.887267">
        <ele>1495.0</ele>
        <time>2013-06-30T12:15:15Z</time>
      </trkpt>
      <trkpt lat="40.242000" lon="-4.887217">
        <ele>1495.0</ele>
        <time>2013-06-30T12:15:16Z</time>
      </trkpt>
      <trkpt lat="40.241933" lon="-4.887200">
        <ele>1496.0</ele>
        <time>2013-06-30T12:15:17Z</time>
      </trkpt>
      <trkpt lat="40.241867" lon="-4.887200">
        <ele>1497.0</ele>
        <time>2013-06-30T12:15:18Z</time>
      </trkpt>
      <trkpt lat="40.241783" lon="-4.887217">
        <ele>1498.0</ele>
        <time>2013-06-30T12:15:19Z</time>
      </trkpt>
      <trkpt lat="40.241683" lon="-4.887250">
        <ele>1498.0</ele>
        <time>2013-06-30T12:15:20Z</time>
      </trkpt>
      <trkpt lat="40.241583" lon="-4.887283">
        <ele>1498.0</ele>
        <time>2013-06-30T12:15:21Z</time>
      </trkpt>
      <trkpt lat="40.241467" lon="-4.887367">
        <ele>1498.0</ele>
        <time>2013-06-30T12:15:22Z</time>
      </trkpt>
      <trkpt lat="40.241383" lon="-4.887450">
        <ele>1499.0</ele>
        <time>2013-06-30T12:15:23Z</time>
      </trkpt>
      <trkpt lat="40.241317" lon="-4.887550">
        <ele>1500.0</ele>
        <time>2013-06-30T12:15:24Z</time>
      </trkpt>
      <trkpt lat="40.241250" lon="-4.887650">
        <ele>1501.0</ele>
        <time>2013-06-30T12:15:25Z</time>
      </trkpt>
      <trkpt lat="40.241200" lon="-4.887750">
        <ele>1500.0</ele>
        <time>2013-06-30T12:15:26Z</time>
      </trkpt>
      <trkpt lat="40.241133" lon="-4.887883">
        <ele>1498.0</ele>
        <time>2013-06-30T12:15:27Z</time>
      </trkpt>
      <trkpt lat="40.241083" lon="-4.888050">
        <ele>1496.0</ele>
        <time>2013-06-30T12:15:28Z</time>
      </trkpt>
      <trkpt lat="40.241033" lon="-4.888217">
        <ele>1495.0</ele>
        <time>2013-06-30T12:15:29Z</time>
      </trkpt>
      <trkpt lat="40.240983" lon="-4.888367">
        <ele>1496.0</ele>
        <time>2013-06-30T12:15:30Z</time>
      </trkpt>
      <trkpt lat="40.240933" lon="-4.888517">
        <ele>1497.0</ele>
        <time>2013-06-30T12:15:31Z</time>
      </trkpt>
      <trkpt lat="40.240900" lon="-4.888667">
        <ele>1498.0</ele>
        <time>2013-06-30T12:15:32Z</time>
      </trkpt>
      <trkpt lat="40.240867" lon="-4.888817">
        <ele>1499.0</ele>
        <time>2013-06-30T12:15:33Z</time>
      </trkpt>
      <trkpt lat="40.240850" lon="-4.888983">
        <ele>1500.0</ele>
        <time>2013-06-30T12:15:34Z</time>
      </trkpt>
      <trkpt lat="40.240850" lon="-4.889167">
        <ele>1501.0</ele>
        <time>2013-06-30T12:15:35Z</time>
      </trkpt>
      <trkpt lat="40.240850" lon="-4.889333">
        <ele>1502.0</ele>
        <time>2013-06-30T12:15:36Z</time>
      </trkpt>
      <trkpt lat="40.240850" lon="-4.889483">
        <ele>1504.0</ele>
        <time>2013-06-30T12:15:37Z</time>
      </trkpt>
      <trkpt lat="40.240867" lon="-4.889633">
        <ele>1506.0</ele>
        <time>2013-06-30T12:15:38Z</time>
      </trkpt>
      <trkpt lat="40.240900" lon="-4.889750">
        <ele>1508.0</ele>
        <time>2013-06-30T12:15:39Z</time>
      </trkpt>
      <trkpt lat="40.240933" lon="-4.889867">
        <ele>1511.0</ele>
        <time>2013-06-30T12:15:40Z</time>
      </trkpt>
      <trkpt lat="40.240967" lon="-4.889967">
        <ele>1513.0</ele>
        <time>2013-06-30T12:15:41Z</time>
      </trkpt>
      <trkpt lat="40.241017" lon="-4.890083">
        <ele>1514.0</ele>
        <time>2013-06-30T12:15:42Z</time>
      </trkpt>
      <trkpt lat="40.241067" lon="-4.890200">
        <ele>1515.0</ele>
        <time>2013-06-30T12:15:43Z</time>
      </trkpt>
      <trkpt lat="40.241133" lon="-4.890283">
        <ele>1517.0</ele>
        <time>2013-06-30T12:15:44Z</time>
      </trkpt>
      <trkpt lat="40.241183" lon="-4.890350">
        <ele>1520.0</ele>
        <time>2013-06-30T12:15:45Z</time>
      </trkpt>
      <trkpt lat="40.241233" lon="-4.890400">
        <ele>1523.0</ele>
        <time>2013-06-30T12:15:46Z</time>
      </trkpt>
      <trkpt lat="40.241283" lon="-4.890467">
        <ele>1525.0</ele>
        <time>2013-06-30T12:15:47Z</time>
      </trkpt>
      <trkpt lat="40.241333" lon="-4.890517">
        <ele>1526.0</ele>
        <time>2013-06-30T12:15:48Z</time>
      </trkpt>
      <trkpt lat="40.241400" lon="-4.890533">
        <ele>1527.0</ele>
        <time>2013-06-30T12:15:49Z</time>
      </trkpt>
      <trkpt lat="40.241450" lon="-4.890550">
        <ele>1527.0</ele>
        <time>2013-06-30T12:15:50Z</time>
      </trkpt>
      <trkpt lat="40.241517" lon="-4.890550">
        <ele>1527.0</ele>
        <time>2013-06-30T12:15:51Z</time>
      </trkpt>
      <trkpt lat="40.241567" lon="-4.890550">
        <ele>1528.0</ele>
        <time>2013-06-30T12:15:52Z</time>
      </trkpt>
      <trkpt lat="40.241633" lon="-4.890550">
        <ele>1528.0</ele>
        <time>2013-06-30T12:15:53Z</time>
      </trkpt>
      <trkpt lat="40.241700" lon="-4.890550">
        <ele>1528.0</ele>
        <time>2013-06-30T12:15:54Z</time>
      </trkpt>
      <trkpt lat="40.241750" lon="-4.890517">
        <ele>1528.0</ele>
        <time>2013-06-30T12:15:55Z</time>
      </trkpt>
      <trkpt lat="40.241800" lon="-4.890483">
        <ele>1528.0</ele>
        <time>2013-06-30T12:15:56Z</time>
      </trkpt>
      <trkpt lat="40.241833" lon="-4.890417">
        <ele>1527.0</ele>
        <time>2013-06-30T12:15:57Z</time>
      </trkpt>
      <trkpt lat="40.241867" lon="-4.890350">
        <ele>1528.0</ele>
        <time>2013-06-30T12:15:58Z</time>
      </trkpt>
      <trkpt lat="40.241900" lon="-4.890283">
        <ele>1528.0</ele>
        <time>2013-06-30T12:15:59Z</time>
      </trkpt>
      <trkpt lat="40.241950" lon="-4.890217">
        <ele>1529.0</ele>
        <time>2013-06-30T12:16:00Z</time>
      </trkpt>
      <trkpt lat="40.241983" lon="-4.890183">
        <ele>1531.0</ele>
        <time>2013-06-30T12:16:01Z</time>
      </trkpt>
      <trkpt lat="40.242000" lon="-4.890150">
        <ele>1533.0</ele>
        <time>2013-06-30T12:16:02Z</time>
      </trkpt>
      <trkpt lat="40.242033" lon="-4.890100">
        <ele>1534.0</ele>
        <time>2013-06-30T12:16:03Z</time>
      </trkpt>
      <trkpt lat="40.242050" lon="-4.890017">
        <ele>1534.0</ele>
        <time>2013-06-30T12:16:04Z</time>
      </trkpt>
      <trkpt lat="40.242067" lon="-4.889933">
        <ele>1533.0</ele>
        <time>2013-06-30T12:16:05Z</time>
      </trkpt>
      <trkpt lat="40.242050" lon="-4.889833">
        <ele>1533.0</ele>
        <time>2013-06-30T12:16:06Z</time>
      </trkpt>
      <trkpt lat="40.242017" lon="-4.889750">
        <ele>1533.0</ele>
        <time>2013-06-30T12:16:07Z</time>
      </trkpt>
      <trkpt lat="40.242000" lon="-4.889683">
        <ele>1534.0</ele>
        <time>2013-06-30T12:16:08Z</time>
      </trkpt>
      <trkpt lat="40.241983" lon="-4.889600">
        <ele>1534.0</ele>
        <time>2013-06-30T12:16:09Z</time>
      </trkpt>
      <trkpt lat="40.241950" lon="-4.889517">
        <ele>1534.0</ele>
        <time>2013-06-30T12:16:10Z</time>
      </trkpt>
      <trkpt lat="40.241917" lon="-4.889433">
        <ele>1534.0</ele>
        <time>2013-06-30T12:16:11Z</time>
      </trkpt>
      <trkpt lat="40.241850" lon="-4.889367">
        <ele>1535.0</ele>
        <time>2013-06-30T12:16:12Z</time>
      </trkpt>
      <trkpt lat="40.241783" lon="-4.889333">
        <ele>1535.0</ele>
        <time>2013-06-30T12:16:13Z</time>
      </trkpt>
      <trkpt lat="40.241700" lon="-4.889300">
        <ele>1535.0</ele>
        <time>2013-06-30T12:16:14Z</time>
      </trkpt>
      <trkpt lat="40.241600" lon="-4.889267">
        <ele>1536.0</ele>
        <time>2013-06-30T12:16:15Z</time>
      </trkpt>
      <trkpt lat="40.241500" lon="-4.889250">
        <ele>1537.0</ele>
        <time>2013-06-30T12:16:16Z</time>
      </trkpt>
      <trkpt lat="40.241400" lon="-4.889267">
        <ele>1537.0</ele>
        <time>2013-06-30T12:16:17Z</time>
      </trkpt>
      <trkpt lat="40.241283" lon="-4.889283">
        <ele>1538.0</ele>
        <time>2013-06-30T12:16:18Z</time>
      </trkpt>
      <trkpt lat="40.241167" lon="-4.889317">
        <ele>1539.0</ele>
        <time>2013-06-30T12:16:19Z</time>
      </trkpt>
      <trkpt lat="40.241050" lon="-4.889367">
        <ele>1540.0</ele>
        <time>2013-06-30T12:16:20Z</time>
      </trkpt>
      <trkpt lat="40.240950" lon="-4.889433">
        <ele>1541.0</ele>
        <time>2013-06-30T12:16:21Z</time>
      </trkpt>
      <trkpt lat="40.240833" lon="-4.889517">
        <ele>1543.0</ele>
        <time>2013-06-30T12:16:22Z</time>
      </trkpt>
      <trkpt lat="40.240733" lon="-4.889617">
        <ele>1544.0</ele>
        <time>2013-06-30T12:16:23Z</time>
      </trkpt>
      <trkpt lat="40.240633" lon="-4.889717">
        <ele>1545.0</ele>
        <time>2013-06-30T12:16:24Z</time>
      </trkpt>
      <trkpt lat="40.240550" lon="-4.889817">
        <ele>1547.0</ele>
        <time>2013-06-30T12:16:25Z</time>
      </trkpt>
      <trkpt lat="40.240483" lon="-4.889933">
        <ele>1548.0</ele>
        <time>2013-06-30T12:16:26Z</time>
      </trkpt>
      <trkpt lat="40.240433" lon="-4.890050">
        <ele>1549.0</ele>
        <time>2013-06-30T12:16:27Z</time>
      </trkpt>
      <trkpt lat="40.240367" lon="-4.890183">
        <ele>1549.0</ele>
        <time>2013-06-30T12:16:28Z</time>
      </trkpt>
      <trkpt lat="40.240283" lon="-4.890317">
        <ele>1547.0</ele>
        <time>2013-06-30T12:16:29Z</time>
      </trkpt>
      <trkpt lat="40.240200" lon="-4.890483">
        <ele>1546.0</ele>
        <time>2013-06-30T12:16:30Z</time>
      </trkpt>
      <trkpt lat="40.240133" lon="-4.890633">
        <ele>1545.0</ele>
        <time>2013-06-30T12:16:31Z</time>
      </trkpt>
      <trkpt lat="40.240083" lon="-4.890783">
        <ele>1546.0</ele>
        <time>2013-06-30T12:16:32Z</time>
      </trkpt>
      <trkpt lat="40.240050" lon="-4.890933">
        <ele>1547.0</ele>
        <time>2013-06-30T12:16:33Z</time>
      </trkpt>
      <trkpt lat="40.240017" lon="-4.891083">
        <ele>1547.0</ele>
        <time>2013-06-30T12:16:34Z</time>
      </trkpt>
      <trkpt lat="40.239983" lon="-4.891233">
        <ele>1546.0</ele>
        <time>2013-06-30T12:16:35Z</time>
      </trkpt>
      <trkpt lat="40.239967" lon="-4.891400">
        <ele>1546.0</ele>
        <time>2013-06-30T12:16:36Z</time>
      </trkpt>
      <trkpt lat="40.239967" lon="-4.891567">
        <ele>1545.0</ele>
        <time>2013-06-30T12:16:37Z</time>
      </trkpt>
      <trkpt lat="40.239983" lon="-4.891717">
        <ele>1543.0</ele>
        <time>2013-06-30T12:16:38Z</time>
      </trkpt>
      <trkpt lat="40.240017" lon="-4.891867">
        <ele>1542.0</ele>
        <time>2013-06-30T12:16:39Z</time>
      </trkpt>
      <trkpt lat="40.240067" lon="-4.892000">
        <ele>1541.0</ele>
        <time>2013-06-30T12:16:40Z</time>
      </trkpt>
      <trkpt lat="40.240133" lon="-4.892100">
        <ele>1539.0</ele>
        <time>2013-06-30T12:16:41Z</time>
      </trkpt>
      <trkpt lat="40.240217" lon="-4.892200">
        <ele>1538.0</ele>
        <time>2013-06-30T12:16:42Z</time>
      </trkpt>
      <trkpt lat="40.240283" lon="-4.892267">
        <ele>1538.0</ele>
        <time>2013-06-30T12:16:43Z</time>
      </trkpt>
      <trkpt lat="40.240367" lon="-4.892350">
        <ele>1538.0</ele>
        <time>2013-06-30T12:16:44Z</time>
      </trkpt>
      <trkpt lat="40.240450" lon="-4.892400">
        <ele>1537.0</ele>
        <time>2013-06-30T12:16:45Z</time>
      </trkpt>
      <trkpt lat="40.240533" lon="-4.892450">
        <ele>1536.0</ele>
        <time>2013-06-30T12:16:46Z</time>
      </trkpt>
      <trkpt lat="40.240617" lon="-4.892483">
        <ele>1536.0</ele>
        <time>2013-06-30T12:16:47Z</time>
      </trkpt>
      <trkpt lat="40.240683" lon="-4.892517">
        <ele>1536.0</ele>
        <time>2013-06-30T12:16:48Z</time>
      </trkpt>
      <trkpt lat="40.240750" lon="-4.892550">
        <ele>1536.0</ele>
        <time>2013-06-30T12:16:49Z</time>
      </trkpt>
      <trkpt lat="40.240817" lon="-4.892583">
        <ele>1536.0</ele>
        <time>2013-06-30T12:16:50Z</time>
      </trkpt>
      <trkpt lat="40.240900" lon="-4.892617">
        <ele>1535.0</ele>
        <time>2013-06-30T12:16:51Z</time>
      </trkpt>
      <trkpt lat="40.240983" lon="-4.892633">
        <ele>1534.0</ele>
        <time>2013-06-30T12:16:52Z</time>
      </trkpt>
      <trkpt lat="40.241067" lon="-4.892633">
        <ele>1533.0</ele>
        <time>2013-06-30T12:16:53Z</time>
      </trkpt>
      <trkpt lat="40.241133" lon="-4.892650">
        <ele>1533.0</ele>
        <time>2013-06-30T12:16:54Z</time>
      </trkpt>
      <trkpt lat="40.241200" lon="-4.892633">
        <ele>1533.0</ele>
        <time>2013-06-30T12:16:55Z</time>
      </trkpt>
      <trkpt lat="40.241250" lon="-4.892617">
        <ele>1532.0</ele>
        <time>2013-06-30T12:16:56Z</time>
      </trkpt>
      <trkpt lat="40.241317" lon="-4.892583">
        <ele>1529.0</ele>
        <time>2013-06-30T12:16:57Z</time>
      </trkpt>
      <trkpt lat="40.241367" lon="-4.892533">
        <ele>1527.0</ele>
        <time>2013-06-30T12:16:58Z</time>
      </trkpt>
      <trkpt lat="40.241433" lon="-4.892483">
        <ele>1525.0</ele>
        <time>2013-06-30T12:16:59Z</time>
      </trkpt>
      <trkpt lat="40.241483" lon="-4.892433">
        <ele>1523.0</ele>
        <time>2013-06-30T12:17:00Z</time>
      </trkpt>
      <trkpt lat="40.241517" lon="-4.892383">
        <ele>1523.0</ele>
        <time>2013-06-30T12:17:01Z</time>
      </trkpt>
      <trkpt lat="40.241550" lon="-4.892317">
        <ele>1521.0</ele>
        <time>2013-06-30T12:17:02Z</time>
      </trkpt>
      <trkpt lat="40.241583" lon="-4.892267">
        <ele>1521.0</ele>
        <time>2013-06-30T12:17:03Z</time>
      </trkpt>
      <trkpt lat="40.241600" lon="-4.892200">
        <ele>1520.0</ele>
        <time>2013-06-30T12:17:04Z</time>
      </trkpt>
      <trkpt lat="40.241617" lon="-4.892150">
        <ele>1520.0</ele>
        <time>2013-06-30T12:17:05Z</time>
      </trkpt>
      <trkpt lat="40.241617" lon="-4.892100">
        <ele>1520.0</ele>
        <time>2013-06-30T12:17:06Z</time>
      </trkpt>
      <trkpt lat="40.241633" lon="-4.892050">
        <ele>1520.0</ele>
        <time>2013-06-30T12:17:07Z</time>
      </trkpt>
      <trkpt lat="40.241667" lon="-4.891983">
        <ele>1518.0</ele>
        <time>2013-06-30T12:17:08Z</time>
      </trkpt>
      <trkpt lat="40.241717" lon="-4.891900">
        <ele>1517.0</ele>
        <time>2013-06-30T12:17:09Z</time>
      </trkpt>
      <trkpt lat="40.241750" lon="-4.891833">
        <ele>1516.0</ele>
        <time>2013-06-30T12:17:10Z</time>
      </trkpt>
      <trkpt lat="40.241800" lon="-4.891767">
        <ele>1517.0</ele>
        <time>2013-06-30T12:17:11Z</time>
      </trkpt>
      <trkpt lat="40.241833" lon="-4.891700">
        <ele>1518.0</ele>
        <time>2013-06-30T12:17:12Z</time>
      </trkpt>
      <trkpt lat="40.241867" lon="-4.891650">
        <ele>1520.0</ele>
        <time>2013-06-30T12:17:13Z</time>
      </trkpt>
      <trkpt lat="40.241900" lon="-4.891600">
        <ele>1521.0</ele>
        <time>2013-06-30T12:17:14Z</time>
      </trkpt>
      <trkpt lat="40.241917" lon="-4.891517">
        <ele>1522.0</ele>
        <time>2013-06-30T12:17:15Z</time>
      </trkpt>
      <trkpt lat="40.241933" lon="-4.891433">
        <ele>1522.0</ele>
        <time>2013-06-30T12:17:16Z</time>
      </trkpt>
      <trkpt lat="40.241950" lon="-4.891350">
        <ele>1524.0</ele>
        <time>2013-06-30T12:17:17Z</time>
      </trkpt>
      <trkpt lat="40.241967" lon="-4.891283">
        <ele>1526.0</ele>
        <time>2013-06-30T12:17:18Z</time>
      </trkpt>
      <trkpt lat="40.241967" lon="-4.891217">
        <ele>1528.0</ele>
        <time>2013-06-30T12:17:19Z</time>
      </trkpt>
      <trkpt lat="40.241967" lon="-4.891167">
        <ele>1529.0</ele>
        <time>2013-06-30T12:17:20Z</time>
      </trkpt>
      <trkpt lat="40.241967" lon="-4.891083">
        <ele>1529.0</ele>
        <time>2013-06-30T12:17:21Z</time>
      </trkpt>
      <trkpt lat="40.241967" lon="-4.890983">
        <ele>1528.0</ele>
        <time>2013-06-30T12:17:22Z</time>
      </trkpt>
      <trkpt lat="40.241967" lon="-4.890867">
        <ele>1527.0</ele>
        <time>2013-06-30T12:17:23Z</time>
      </trkpt>
      <trkpt lat="40.241983" lon="-4.890767">
        <ele>1528.0</ele>
        <time>2013-06-30T12:17:24Z</time>
      </trkpt>
      <trkpt lat="40.241983" lon="-4.890667">
        <ele>1529.0</ele>
        <time>2013-06-30T12:17:25Z</time>
      </trkpt>
      <trkpt lat="40.241967" lon="-4.890600">
        <ele>1531.0</ele>
        <time>2013-06-30T12:17:26Z</time>
      </trkpt>
      <trkpt lat="40.241933" lon="-4.890533">
        <ele>1533.0</ele>
        <time>2013-06-30T12:17:27Z</time>
      </trkpt>
      <trkpt lat="40.241900" lon="-4.890467">
        <ele>1535.0</ele>
        <time>2013-06-30T12:17:28Z</time>
      </trkpt>
      <trkpt lat="40.241883" lon="-4.890400">
        <ele>1536.0</ele>
        <time>2013-06-30T12:17:29Z</time>
      </trkpt>
      <trkpt lat="40.241867" lon="-4.890317">
        <ele>1537.0</ele>
        <time>2013-06-30T12:17:30Z</time>
      </trkpt>
      <trkpt lat="40.241850" lon="-4.890250">
        <ele>1537.0</ele>
        <time>2013-06-30T12:17:31Z</time>
      </trkpt>
      <trkpt lat="40.241833" lon="-4.890167">
        <ele>1537.0</ele>
        <time>2013-06-30T12:17:32Z</time>
      </trkpt>
      <trkpt lat="40.241800" lon="-4.890067">
        <ele>1536.0</ele>
        <time>2013-06-30T12:17:33Z</time>
      </trkpt>
      <trkpt lat="40.241767" lon="-4.889967">
        <ele>1536.0</ele>
        <time>2013-06-30T12:17:34Z</time>
      </trkpt>
      <trkpt lat="40.241717" lon="-4.889850">
        <ele>1537.0</ele>
        <time>2013-06-30T12:17:35Z</time>
      </trkpt>
      <trkpt lat="40.241683" lon="-4.889750">
        <ele>1539.0</ele>
        <time>2013-06-30T12:17:36Z</time>
      </trkpt>
      <trkpt lat="40.241667" lon="-4.889667">
        <ele>1541.0</ele>
        <time>2013-06-30T12:17:37Z</time>
      </trkpt>
      <trkpt lat="40.241667" lon="-4.889583">
        <ele>1544.0</ele>
        <time>2013-06-30T12:17:38Z</time>
      </trkpt>
      <trkpt lat="40.241650" lon="-4.889483">
        <ele>1547.0</ele>
        <time>2013-06-30T12:17:39Z</time>
      </trkpt>
      <trkpt lat="40.241633" lon="-4.889367">
        <ele>1549.0</ele>
        <time>2013-06-30T12:17:40Z</time>
      </trkpt>
      <trkpt lat="40.241583" lon="-4.889267">
        <ele>1551.0</ele>
        <time>2013-06-30T12:17:41Z</time>
      </trkpt>
      <trkpt lat="40.241500" lon="-4.889233">
        <ele>1553.0</ele>
        <time>2013-06-30T12:17:42Z</time>
      </trkpt>
      <trkpt lat="40.241400" lon="-4.889233">
        <ele>1555.0</ele>
        <time>2013-06-30T12:17:43Z</time>
      </trkpt>
      <trkpt lat="40.241317" lon="-4.889250">
        <ele>1557.0</ele>
        <time>2013-06-30T12:17:44Z</time>
      </trkpt>
      <trkpt lat="40.241250" lon="-4.889267">
        <ele>1560.0</ele>
        <time>2013-06-30T12:17:45Z</time>
      </trkpt>
      <trkpt lat="40.241167" lon="-4.889283">
        <ele>1562.0</ele>
        <time>2013-06-30T12:17:46Z</time>
      </trkpt>
      <trkpt lat="40.241083" lon="-4.889317">
        <ele>1563.0</ele>
        <time>2013-06-30T12:17:47Z</time>
      </trkpt>
      <trkpt lat="40.241000" lon="-4.889383">
        <ele>1562.0</ele>
        <time>2013-06-30T12:17:48Z</time>
      </trkpt>
      <trkpt lat="40.240917" lon="-4.889500">
        <ele>1559.0</ele>
        <time>2013-06-30T12:17:49Z</time>
      </trkpt>
      <trkpt lat="40.240850" lon="-4.889650">
        <ele>1559.0</ele>
        <time>2013-06-30T12:17:50Z</time>
      </trkpt>
      <trkpt lat="40.240833" lon="-4.889783">
        <ele>1561.0</ele>
        <time>2013-06-30T12:17:51Z</time>
      </trkpt>
      <trkpt lat="40.240800" lon="-4.889900">
        <ele>1563.0</ele>
        <time>2013-06-30T12:17:52Z</time>
      </trkpt>
      <trkpt lat="40.240783" lon="-4.890017">
        <ele>1565.0</ele>
        <time>2013-06-30T12:17:53Z</time>
      </trkpt>
      <trkpt lat="40.240767" lon="-4.890150">
        <ele>1567.0</ele>
        <time>2013-06-30T12:17:54Z</time>
      </trkpt>
      <trkpt lat="40.240767" lon="-4.890300">
        <ele>1568.0</ele>
        <time>2013-06-30T12:17:55Z</time>
      </trkpt>
      <trkpt lat="40.240783" lon="-4.890433">
        <ele>1570.0</ele>
        <time>2013-06-30T12:17:56Z</time>
      </trkpt>
      <trkpt lat="40.240817" lon="-4.890550">
        <ele>1573.0</ele>
        <time>2013-06-30T12:17:57Z</time>
      </trkpt>
      <trkpt lat="40.240850" lon="-4.890650">
        <ele>1576.0</ele>
        <time>2013-06-30T12:17:58Z</time>
      </trkpt>
      <trkpt lat="40.240883" lon="-4.890733">
        <ele>1580.0</ele>
        <time>2013-06-30T12:17:59Z</time>
      </trkpt>
      <trkpt lat="40.240933" lon="-4.890817">
        <ele>1583.0</ele>
        <time>2013-06-30T12:18:00Z</time>
      </trkpt>
      <trkpt lat="40.240967" lon="-4.890883">
        <ele>1585.0</ele>
        <time>2013-06-30T12:18:01Z</time>
      </trkpt>
      <trkpt lat="40.241017" lon="-4.890933">
        <ele>1587.0</ele>
        <time>2013-06-30T12:18:02Z</time>
      </trkpt>
      <trkpt lat="40.241083" lon="-4.890983">
        <ele>1589.0</ele>
        <time>2013-06-30T12:18:03Z</time>
      </trkpt>
      <trkpt lat="40.241150" lon="-4.891017">
        <ele>1591.0</ele>
        <time>2013-06-30T12:18:04Z</time>
      </trkpt>
      <trkpt lat="40.241217" lon="-4.891050">
        <ele>1593.0</ele>
        <time>2013-06-30T12:18:05Z</time>
      </trkpt>
      <trkpt lat="40.241283" lon="-4.891067">
        <ele>1595.0</ele>
        <time>2013-06-30T12:18:06Z</time>
      </trkpt>
      <trkpt lat="40.241350" lon="-4.891067">
        <ele>1596.0</ele>
        <time>2013-06-30T12:18:07Z</time>
      </trkpt>
      <trkpt lat="40.241433" lon="-4.891067">
        <ele>1597.0</ele>
        <time>2013-06-30T12:18:08Z</time>
      </trkpt>
      <trkpt lat="40.241517" lon="-4.891067">
        <ele>1597.0</ele>
        <time>2013-06-30T12:18:09Z</time>
      </trkpt>
      <trkpt lat="40.241600" lon="-4.891050">
        <ele>1598.0</ele>
        <time>2013-06-30T12:18:10Z</time>
      </trkpt>
      <trkpt lat="40.241683" lon="-4.891033">
        <ele>1600.0</ele>
        <time>2013-06-30T12:18:11Z</time>
      </trkpt>
      <trkpt lat="40.241750" lon="-4.891000">
        <ele>1600.0</ele>
        <time>2013-06-30T12:18:12Z</time>
      </trkpt>
      <trkpt lat="40.241833" lon="-4.890967">
        <ele>1601.0</ele>
        <time>2013-06-30T12:18:13Z</time>
      </trkpt>
      <trkpt lat="40.241900" lon="-4.890933">
        <ele>1602.0</ele>
        <time>2013-06-30T12:18:14Z</time>
      </trkpt>
      <trkpt lat="40.241967" lon="-4.890917">
        <ele>1603.0</ele>
        <time>2013-06-30T12:18:15Z</time>
      </trkpt>
      <trkpt lat="40.242033" lon="-4.890900">
        <ele>1606.0</ele>
        <time>2013-06-30T12:18:16Z</time>
      </trkpt>
      <trkpt lat="40.242083" lon="-4.890883">
        <ele>1608.0</ele>
        <time>2013-06-30T12:18:17Z</time>
      </trkpt>
      <trkpt lat="40.242150" lon="-4.890850">
        <ele>1609.0</ele>
        <time>2013-06-30T12:18:18Z</time>
      </trkpt>
      <trkpt lat="40.242217" lon="-4.890800">
        <ele>1609.0</ele>
        <time>2013-06-30T12:18:19Z</time>
      </trkpt>
      <trkpt lat="40.242283" lon="-4.890733">
        <ele>1609.0</ele>
        <time>2013-06-30T12:18:20Z</time>
      </trkpt>
      <trkpt lat="40.242317" lon="-4.890667">
        <ele>1612.0</ele>
        <time>2013-06-30T12:18:21Z</time>
      </trkpt>
      <trkpt lat="40.242350" lon="-4.890583">
        <ele>1616.0</ele>
        <time>2013-06-30T12:18:22Z</time>
      </trkpt>
      <trkpt lat="40.242383" lon="-4.890517">
        <ele>1620.0</ele>
        <time>2013-06-30T12:18:23Z</time>
      </trkpt>
      <trkpt lat="40.242400" lon="-4.890450">
        <ele>1622.0</ele>
        <time>2013-06-30T12:18:24Z</time>
      </trkpt>
      <trkpt lat="40.242417" lon="-4.890367">
        <ele>1624.0</ele>
        <time>2013-06-30T12:18:25Z</time>
      </trkpt>
      <trkpt lat="40.242433" lon="-4.890267">
        <ele>1625.0</ele>
        <time>2013-06-30T12:18:26Z</time>
      </trkpt>
      <trkpt lat="40.242433" lon="-4.890183">
        <ele>1627.0</ele>
        <time>2013-06-30T12:18:27Z</time>
      </trkpt>
      <trkpt lat="40.242400" lon="-4.890100">
        <ele>1629.0</ele>
        <time>2013-06-30T12:18:28Z</time>
      </trkpt>
      <trkpt lat="40.242350" lon="-4.890033">
        <ele>1631.0</ele>
        <time>2013-06-30T12:18:29Z</time>
      </trkpt>
      <trkpt lat="40.242283" lon="-4.889967">
        <ele>1633.0</ele>
        <time>2013-06-30T12:18:30Z</time>
      </trkpt>
      <trkpt lat="40.242217" lon="-4.889933">
        <ele>1634.0</ele>
        <time>2013-06-30T12:18:31Z</time>
      </trkpt>
      <trkpt lat="40.242150" lon="-4.889900">
        <ele>1636.0</ele>
        <time>2013-06-30T12:18:32Z</time>
      </trkpt>
      <trkpt lat="40.242083" lon="-4.889867">
        <ele>1638.0</ele>
        <time>2013-06-30T12:18:33Z</time>
      </trkpt>
      <trkpt lat="40.242000" lon="-4.889833">
        <ele>1639.0</ele>
        <time>2013-06-30T12:18:34Z</time>
      </trkpt>
      <trkpt lat="40.241917" lon="-4.889817">
        <ele>1639.0</ele>
        <time>2013-06-30T12:18:35Z</time>
      </trkpt>
      <trkpt lat="40.241817" lon="-4.889800">
        <ele>1640.0</ele>
        <time>2013-06-30T12:18:36Z</time>
      </trkpt>
      <trkpt lat="40.241717" lon="-4.889817">
        <ele>1641.0</ele>
        <time>2013-06-30T12:18:37Z</time>
      </trkpt>
      <trkpt lat="40.241633" lon="-4.889833">
        <ele>1643.0</ele>
        <time>2013-06-30T12:18:38Z</time>
      </trkpt>
      <trkpt lat="40.241550" lon="-4.889867">
        <ele>1645.0</ele>
        <time>2013-06-30T12:18:39Z</time>
      </trkpt>
      <trkpt lat="40.241467" lon="-4.889900">
        <ele>1647.0</ele>
        <time>2013-06-30T12:18:40Z</time>
      </trkpt>
      <trkpt lat="40.241400" lon="-4.889950">
        <ele>1649.0</ele>
        <time>2013-06-30T12:18:41Z</time>
      </trkpt>
      <trkpt lat="40.241300" lon="-4.889983">
        <ele>1650.0</ele>
        <time>2013-06-30T12:18:42Z</time>
      </trkpt>
      <trkpt lat="40.241200" lon="-4.890033">
        <ele>1651.0</ele>
        <time>2013-06-30T12:18:43Z</time>
      </trkpt>
      <trkpt lat="40.241117" lon="-4.890100">
        <ele>1653.0</ele>
        <time>2013-06-30T12:18:44Z</time>
      </trkpt>
      <trkpt lat="40.241017" lon="-4.890183">
        <ele>1654.0</ele>
        <time>2013-06-30T12:18:45Z</time>
      </trkpt>
      <trkpt lat="40.240933" lon="-4.890250">
        <ele>1656.0</ele>
        <time>2013-06-30T12:18:46Z</time>
      </trkpt>
      <trkpt lat="40.240867" lon="-4.890333">
        <ele>1658.0</ele>
        <time>2013-06-30T12:18:47Z</time>
      </trkpt>
      <trkpt lat="40.240817" lon="-4.890417">
        <ele>1659.0</ele>
        <time>2013-06-30T12:18:48Z</time>
      </trkpt>
      <trkpt lat="40.240767" lon="-4.890517">
        <ele>1658.0</ele>
        <time>2013-06-30T12:18:49Z</time>
      </trkpt>
      <trkpt lat="40.240717" lon="-4.890633">
        <ele>1656.0</ele>
        <time>2013-06-30T12:18:50Z</time>
      </trkpt>
      <trkpt lat="40.240650" lon="-4.890767">
        <ele>1654.0</ele>
        <time>2013-06-30T12:18:51Z</time>
      </trkpt>
      <trkpt lat="40.240583" lon="-4.890900">
        <ele>1653.0</ele>
        <time>2013-06-30T12:18:52Z</time>
      </trkpt>
      <trkpt lat="40.240533" lon="-4.891000">
        <ele>1654.0</ele>
        <time>2013-06-30T12:18:53Z</time>
      </trkpt>
      <trkpt lat="40.240467" lon="-4.891100">
        <ele>1655.0</ele>
        <time>2013-06-30T12:18:54Z</time>
      </trkpt>
      <trkpt lat="40.240433" lon="-4.891217">
        <ele>1655.0</ele>
        <time>2013-06-30T12:18:55Z</time>
      </trkpt>
      <trkpt lat="40.240383" lon="-4.891350">
        <ele>1654.0</ele>
        <time>2013-06-30T12:18:56Z</time>
      </trkpt>
      <trkpt lat="40.240367" lon="-4.891517">
        <ele>1652.0</ele>
        <time>2013-06-30T12:18:57Z</time>
      </trkpt>
      <trkpt lat="40.240367" lon="-4.891667">
        <ele>1652.0</ele>
        <time>2013-06-30T12:18:58Z</time>
      </trkpt>
      <trkpt lat="40.240383" lon="-4.891800">
        <ele>1654.0</ele>
        <time>2013-06-30T12:18:59Z</time>
      </trkpt>
      <trkpt lat="40.240400" lon="-4.891917">
        <ele>1655.0</ele>
        <time>2013-06-30T12:19:00Z</time>
      </trkpt>
      <trkpt lat="40.240433" lon="-4.892017">
        <ele>1657.0</ele>
        <time>2013-06-30T12:19:01Z</time>
      </trkpt>
      <trkpt lat="40.240467" lon="-4.892133">
        <ele>1657.0</ele>
        <time>2013-06-30T12:19:02Z</time>
      </trkpt>
      <trkpt lat="40.240517" lon="-4.892250">
        <ele>1658.0</ele>
        <time>2013-06-30T12:19:03Z</time>
      </trkpt>
      <trkpt lat="40.240583" lon="-4.892333">
        <ele>1659.0</ele>
        <time>2013-06-30T12:19:04Z</time>
      </trkpt>
      <trkpt lat="40.240650" lon="-4.892367">
        <ele>1661.0</ele>
        <time>2013-06-30T12:19:05Z</time>
      </trkpt>
      <trkpt lat="40.240717" lon="-4.892383">
        <ele>1663.0</ele>
        <time>2013-06-30T12:19:06Z</time>
      </trkpt>
      <trkpt lat="40.240800" lon="-4.892383">
        <ele>1664.0</ele>
        <time>2013-06-30T12:19:07Z</time>
      </trkpt>
      <trkpt lat="40.240867" lon="-4.892383">
        <ele>1666.0</ele>
        <time>2013-06-30T12:19:08Z</time>
      </trkpt>
      <trkpt lat="40.240933" lon="-4.892383">
        <ele>1668.0</ele>
        <time>2013-06-30T12:19:09Z</time>
      </trkpt>
      <trkpt lat="40.241000" lon="-4.892350">
        <ele>1670.0</ele>
        <time>2013-06-30T12:19:10Z</time>
      </trkpt>
      <trkpt lat="40.241050" lon="-4.892300">
        <ele>1671.0</ele>
        <time>2013-06-30T12:19:11Z</time>
      </trkpt>
      <trkpt lat="40.241117" lon="-4.892250">
        <ele>1672.0</ele>
        <time>2013-06-30T12:19:12Z</time>
      </trkpt>
      <trkpt lat="40.241183" lon="-4.892200">
        <ele>1673.0</ele>
        <time>2013-06-30T12:19:13Z</time>
      </trkpt>
      <trkpt lat="40.241233" lon="-4.892133">
        <ele>1674.0</ele>
        <time>2013-06-30T12:19:14Z</time>
      </trkpt>
      <trkpt lat="40.241283" lon="-4.892083">
        <ele>1676.0</ele>
        <time>2013-06-30T12:19:15Z</time>
      </trkpt>
      <trkpt lat="40.241317" lon="-4.892017">
        <ele>1676.0</ele>
        <time>2013-06-30T12:19:16Z</time>
      </trkpt>
      <trkpt lat="40.241350" lon="-4.891917">
        <ele>1676.0</ele>
        <time>2013-06-30T12:19:17Z</time>
      </trkpt>
      <trkpt lat="40.241367" lon="-4.891817">
        <ele>1676.0</ele>
        <time>2013-06-30T12:19:18Z</time>
      </trkpt>
      <trkpt lat="40.241367" lon="-4.891717">
        <ele>1677.0</ele>
        <time>2013-06-30T12:19:19Z</time>
      </trkpt>
      <trkpt lat="40.241350" lon="-4.891633">
        <ele>1678.0</ele>
        <time>2013-06-30T12:19:20Z</time>
      </trkpt>
      <trkpt lat="40.241300" lon="-4.891550">
        <ele>1679.0</ele>
        <time>2013-06-30T12:19:21Z</time>
      </trkpt>
      <trkpt lat="40.241250" lon="-4.891467">
        <ele>1678.0</ele>
        <time>2013-06-30T12:19:22Z</time>
      </trkpt>
      <trkpt lat="40.241183" lon="-4.891383">
        <ele>1678.0</ele>
        <time>2013-06-30T12:19:23Z</time>
      </trkpt>
      <trkpt lat="40.241100" lon="-4.891317">
        <ele>1678.0</ele>
        <time>2013-06-30T12:19:24Z</time>
      </trkpt>
      <trkpt lat="40.241000" lon="-4.891300">
        <ele>1678.0</ele>
        <time>2013-06-30T12:19:25Z</time>
      </trkpt>
      <trkpt lat="40.240917" lon="-4.891317">
        <ele>1679.0</ele>
        <time>2013-06-30T12:19:26Z</time>
      </trkpt>
      <trkpt lat="40.240817" lon="-4.891333">
        <ele>1679.0</ele>
        <time>2013-06-30T12:19:27Z</time>
      </trkpt>
      <trkpt lat="40.240733" lon="-4.891383">
        <ele>1679.0</ele>
        <time>2013-06-30T12:19:28Z</time>
      </trkpt>
      <trkpt lat="40.240633" lon="-4.891467">
        <ele>1679.0</ele>
        <time>2013-06-30T12:19:29Z</time>
      </trkpt>
      <trkpt lat="40.240550" lon="-4.891550">
        <ele>1678.0</ele>
        <time>2013-06-30T12:19:30Z</time>
      </trkpt>
      <trkpt lat="40.240467" lon="-4.891650">
        <ele>1678.0</ele>
        <time>2013-06-30T12:19:31Z</time>
      </trkpt>
      <trkpt lat="40.240400" lon="-4.891767">
        <ele>1678.0</ele>
        <time>2013-06-30T12:19:32Z</time>
      </trkpt>
      <trkpt lat="40.240333" lon="-4.891917">
        <ele>1677.0</ele>
        <time>2013-06-30T12:19:33Z</time>
      </trkpt>
      <trkpt lat="40.240283" lon="-4.892050">
        <ele>1677.0</ele>
        <time>2013-06-30T12:19:34Z</time>
      </trkpt>
      <trkpt lat="40.240233" lon="-4.892167">
        <ele>1678.0</ele>
        <time>2013-06-30T12:19:35Z</time>
      </trkpt>
      <trkpt lat="40.240183" lon="-4.892267">
        <ele>1680.0</ele>
        <time>2013-06-30T12:19:36Z</time>
      </trkpt>
      <trkpt lat="40.240150" lon="-4.892400">
        <ele>1681.0</ele>
        <time>2013-06-30T12:19:37Z</time>
      </trkpt>
      <trkpt lat="40.240133" lon="-4.892533">
        <ele>1681.0</ele>
        <time>2013-06-30T12:19:38Z</time>
      </trkpt>
      <trkpt lat="40.240117" lon="-4.892683">
        <ele>1680.0</ele>
        <time>2013-06-30T12:19:39Z</time>
      </trkpt>
      <trkpt lat="40.240100" lon="-4.892817">
        <ele>1680.0</ele>
        <time>2013-06-30T12:19:40Z</time>
      </trkpt>
      <trkpt lat="40.240100" lon="-4.892967">
        <ele>1681.0</ele>
        <time>2013-06-30T12:19:41Z</time>
      </trkpt>
      <trkpt lat="40.240117" lon="-4.893083">
        <ele>1682.0</ele>
        <time>2013-06-30T12:19:42Z</time>
      </trkpt>
      <trkpt lat="40.240117" lon="-4.893200">
        <ele>1683.0</ele>
        <time>2013-06-30T12:19:43Z</time>
      </trkpt>
      <trkpt lat="40.240133" lon="-4.893317">
        <ele>1683.0</ele>
        <time>2013-06-30T12:19:44Z</time>
      </trkpt>
      <trkpt lat="40.240167" lon="-4.893433">
        <ele>1683.0</ele>
        <time>2013-06-30T12:19:45Z</time>
      </trkpt>
      <trkpt lat="40.240200" lon="-4.893567">
        <ele>1682.0</ele>
        <time>2013-06-30T12:19:46Z</time>
      </trkpt>
      <trkpt lat="40.240233" lon="-4.893700">
        <ele>1683.0</ele>
        <time>2013-06-30T12:19:47Z</time>
      </trkpt>
      <trkpt lat="40.240250" lon="-4.893833">
        <ele>1683.0</ele>
        <time>2013-06-30T12:19:48Z</time>
      </trkpt>
      <trkpt lat="40.240267" lon="-4.893950">
        <ele>1683.0</ele>
        <time>2013-06-30T12:19:49Z</time>
      </trkpt>
      <trkpt lat="40.240300" lon="-4.894067">
        <ele>1683.0</ele>
        <time>2013-06-30T12:19:50Z</time>
      </trkpt>
      <trkpt lat="40.240317" lon="-4.894183">
        <ele>1683.0</ele>
        <time>2013-06-30T12:19:51Z</time>
      </trkpt>
      <trkpt lat="40.240350" lon="-4.894300">
        <ele>1684.0</ele>
        <time>2013-06-30T12:19:52Z</time>
      </trkpt>
      <trkpt lat="40.240367" lon="-4.894417">
        <ele>1686.0</ele>
        <time>2013-06-30T12:19:53Z</time>
      </trkpt>
      <trkpt lat="40.240400" lon="-4.894517">
        <ele>1687.0</ele>
        <time>2013-06-30T12:19:54Z</time>
      </trkpt>
      <trkpt lat="40.240417" lon="-4.894617">
        <ele>1688.0</ele>
        <time>2013-06-30T12:19:55Z</time>
      </trkpt>
      <trkpt lat="40.240433" lon="-4.894733">
        <ele>1687.0</ele>
        <time>2013-06-30T12:19:56Z</time>
      </trkpt>
      <trkpt lat="40.240467" lon="-4.894850">
        <ele>1687.0</ele>
        <time>2013-06-30T12:19:57Z</time>
      </trkpt>
      <trkpt lat="40.240500" lon="-4.894967">
        <ele>1687.0</ele>
        <time>2013-06-30T12:19:58Z</time>
      </trkpt>
      <trkpt lat="40.240550" lon="-4.895050">
        <ele>1688.0</ele>
        <time>2013-06-30T12:19:59Z</time>
      </trkpt>
      <trkpt lat="40.240600" lon="-4.895117">
        <ele>1689.0</ele>
        <time>2013-06-30T12:20:00Z</time>
      </trkpt>
      <trkpt lat="40.240633" lon="-4.895183">
        <ele>1691.0</ele>
        <time>2013-06-30T12:20:01Z</time>
      </trkpt>
      <trkpt lat="40.240683" lon="-4.895250">
        <ele>1692.0</ele>
        <time>2013-06-30T12:20:02Z</time>
      </trkpt>
      <trkpt lat="40.240733" lon="-4.895300">
        <ele>1692.0</ele>
        <time>2013-06-30T12:20:03Z</time>
      </trkpt>
      <trkpt lat="40.240800" lon="-4.895350">
        <ele>1692.0</ele>
        <time>2013-06-30T12:20:04Z</time>
      </trkpt>
      <trkpt lat="40.240867" lon="-4.895400">
        <ele>1692.0</ele>
        <time>2013-06-30T12:20:05Z</time>
      </trkpt>
      <trkpt lat="40.240917" lon="-4.895417">
        <ele>1692.0</ele>
        <time>2013-06-30T12:20:06Z</time>
      </trkpt>
      <trkpt lat="40.240967" lon="-4.895433">
        <ele>1693.0</ele>
        <time>2013-06-30T12:20:07Z</time>
      </trkpt>
      <trkpt lat="40.241017" lon="-4.895450">
        <ele>1693.0</ele>
        <time>2013-06-30T12:20:08Z</time>
      </trkpt>
      <trkpt lat="40.241083" lon="-4.895450">
        <ele>1693.0</ele>
        <time>2013-06-30T12:20:09Z</time>
      </trkpt>
      <trkpt lat="40.241150" lon="-4.895450">
        <ele>1693.0</ele>
        <time>2013-06-30T12:20:10Z</time>
      </trkpt>
      <trkpt lat="40.241217" lon="-4.895433">
        <ele>1693.0</ele>
        <time>2013-06-30T12:20:11Z</time>
      </trkpt>
      <trkpt lat="40.241267" lon="-4.895417">
        <ele>1694.0</ele>
        <time>2013-06-30T12:20:12Z</time>
      </trkpt>
      <trkpt lat="40.241300" lon="-4.895383">
        <ele>1695.0</ele>
        <time>2013-06-30T12:20:13Z</time>
      </trkpt>
      <trkpt lat="40.241333" lon="-4.895350">
        <ele>1696.0</ele>
        <time>2013-06-30T12:20:14Z</time>
      </trkpt>
      <trkpt lat="40.241383" lon="-4.895317">
        <ele>1697.0</ele>
        <time>2013-06-30T12:20:15Z</time>
      </trkpt>
      <trkpt lat="40.241417" lon="-4.895267">
        <ele>1697.0</ele>
        <time>2013-06-30T12:20:16Z</time>
      </trkpt>
      <trkpt lat="40.241467" lon="-4.895217">
        <ele>1698.0</ele>
        <time>2013-06-30T12:20:17Z</time>
      </trkpt>
      <trkpt lat="40.241517" lon="-4.895167">
        <ele>1700.0</ele>
        <time>2013-06-30T12:20:18Z</time>
      </trkpt>
      <trkpt lat="40.241567" lon="-4.895117">
        <ele>1701.0</ele>
        <time>2013-06-30T12:20:19Z</time>
      </trkpt>
      <trkpt lat="40.241600" lon="-4.895083">
        <ele>1703.0</ele>
        <time>2013-06-30T12:20:20Z</time>
      </trkpt>
      <trkpt lat="40.241650" lon="-4.895033">
        <ele>1705.0</ele>
        <time>2013-06-30T12:20:21Z</time>
      </trkpt>
      <trkpt lat="40.241683" lon="-4.895000">
        <ele>1707.0</ele>
        <time>2013-06-30T12:20:22Z</time>
      </trkpt>
      <trkpt lat="40.241717" lon="-4.894967">
        <ele>1707.0</ele>
        <time>2013-06-30T12:20:23Z</time>
      </trkpt>
      <trkpt lat="40.241750" lon="-4.894883">
        <ele>1708.0</ele>
        <time>2013-06-30T12:20:24Z</time>
      </trkpt>
      <trkpt lat="40.241767" lon="-4.894817">
        <ele>1708.0</ele>
        <time>2013-06-30T12:20:25Z</time>
      </trkpt>
      <trkpt lat="40.241750" lon="-4.894733">
        <ele>1709.0</ele>
        <time>2013-06-30T12:20:26Z</time>
      </trkpt>
      <trkpt lat="40.241733" lon="-4.894667">
        <ele>1711.0</ele>
        <time>2013-06-30T12:20:27Z</time>
      </trkpt>
      <trkpt lat="40.241683" lon="-4.894600">
        <ele>1712.0</ele>
        <time>2013-06-30T12:20:28Z</time>
      </trkpt>
      <trkpt lat="40.241633" lon="-4.894533">
        <ele>1713.0</ele>
        <time>2013-06-30T12:20:29Z</time>
      </trkpt>
      <trkpt lat="40.241567" lon="-4.894483">
        <ele>1713.0</ele>
        <time>2013-06-30T12:20:30Z</time>
      </trkpt>
      <trkpt lat="40.241483" lon="-4.894433">
        <ele>1713.0</ele>
        <time>2013-06-30T12:20:31Z</time>
      </trkpt>
      <trkpt lat="40.241417" lon="-4.894433">
        <ele>1714.0</ele>
        <time>2013-06-30T12:20:32Z</time>
      </trkpt>
      <trkpt lat="40.241333" lon="-4.894433">
        <ele>1715.0</ele>
        <time>2013-06-30T12:20:33Z</time>
      </trkpt>
      <trkpt lat="40.241267" lon="-4.894467">
        <ele>1717.0</ele>
        <time>2013-06-30T12:20:34Z</time>
      </trkpt>
      <trkpt lat="40.241183" lon="-4.894517">
        <ele>1717.0</ele>
        <time>2013-06-30T12:20:35Z</time>
      </trkpt>
      <trkpt lat="40.241100" lon="-4.894583">
        <ele>1717.0</ele>
        <time>2013-06-30T12:20:36Z</time>
      </trkpt>
      <trkpt lat="40.241000" lon="-4.894667">
        <ele>1717.0</ele>
        <time>2013-06-30T12:20:37Z</time>
      </trkpt>
      <trkpt lat="40.240933" lon="-4.894767">
        <ele>1718.0</ele>
        <time>2013-06-30T12:20:38Z</time>
      </trkpt>
      <trkpt lat="40.240867" lon="-4.894867">
        <ele>1718.0</ele>
        <time>2013-06-30T12:20:39Z</time>
      </trkpt>
      <trkpt lat="40.240817" lon="-4.894983">
        <ele>1719.0</ele>
        <time>2013-06-30T12:20:40Z</time>
      </trkpt>
      <trkpt lat="40.240767" lon="-4.895100">
        <ele>1721.0</ele>
        <time>2013-06-30T12:20:41Z</time>
      </trkpt>
      <trkpt lat="40.240733" lon="-4.895217">
        <ele>1723.0</ele>
        <time>2013-06-30T12:20:42Z</time>
      </trkpt>
      <trkpt lat="40.240700" lon="-4.895333">
        <ele>1724.0</ele>
        <time>2013-06-30T12:20:43Z</time>
      </trkpt>
      <trkpt lat="40.240683" lon="-4.895450">
        <ele>1725.0</ele>
        <time>2013-06-30T12:20:44Z</time>
      </trkpt>
      <trkpt lat="40.240667" lon="-4.895583">
        <ele>1725.0</ele>
        <time>2013-06-30T12:20:45Z</time>
      </trkpt>
      <trkpt lat="40.240667" lon="-4.895717">
        <ele>1725.0</ele>
        <time>2013-06-30T12:20:46Z</time>
      </trkpt>
      <trkpt lat="40.240683" lon="-4.895850">
        <ele>1725.0</ele>
        <time>2013-06-30T12:20:47Z</time>
      </trkpt>
      <trkpt lat="40.240700" lon="-4.895967">
        <ele>1726.0</ele>
        <time>2013-06-30T12:20:48Z</time>
      </trkpt>
      <trkpt lat="40.240750" lon="-4.896083">
        <ele>1726.0</ele>
        <time>2013-06-30T12:20:49Z</time>
      </trkpt>
      <trkpt lat="40.240783" lon="-4.896183">
        <ele>1727.0</ele>
        <time>2013-06-30T12:20:50Z</time>
      </trkpt>
      <trkpt lat="40.240817" lon="-4.896267">
        <ele>1728.0</ele>
        <time>2013-06-30T12:20:51Z</time>
      </trkpt>
      <trkpt lat="40.240867" lon="-4.896367">
        <ele>1729.0</ele>
        <time>2013-06-30T12:20:52Z</time>
      </trkpt>
      <trkpt lat="40.240917" lon="-4.896467">
        <ele>1730.0</ele>
        <time>2013-06-30T12:20:53Z</time>
      </trkpt>
      <trkpt lat="40.240967" lon="-4.896567">
        <ele>1731.0</ele>
        <time>2013-06-30T12:20:54Z</time>
      </trkpt>
      <trkpt lat="40.241000" lon="-4.896667">
        <ele>1732.0</ele>
        <time>2013-06-30T12:20:55Z</time>
      </trkpt>
      <trkpt lat="40.241050" lon="-4.896767">
        <ele>1732.0</ele>
        <time>2013-06-30T12:20:56Z</time>
      </trkpt>
      <trkpt lat="40.241100" lon="-4.896850">
        <ele>1734.0</ele>
        <time>2013-06-30T12:20:57Z</time>
      </trkpt>
      <trkpt lat="40.241167" lon="-4.896917">
        <ele>1734.0</ele>
        <time>2013-06-30T12:20:58Z</time>
      </trkpt>
      <trkpt lat="40.241217" lon="-4.896967">
        <ele>1735.0</ele>
        <time>2013-06-30T12:20:59Z</time>
      </trkpt>
      <trkpt lat="40.241283" lon="-4.897000">
        <ele>1735.0</ele>
        <time>2013-06-30T12:21:00Z</time>
      </trkpt>
      <trkpt lat="40.241333" lon="-4.897033">
        <ele>1735.0</ele>
        <time>2013-06-30T12:21:01Z</time>
      </trkpt>
      <trkpt lat="40.241400" lon="-4.897050">
        <ele>1734.0</ele>
        <time>2013-06-30T12:21:02Z</time>
      </trkpt>
      <trkpt lat="40.241450" lon="-4.897050">
        <ele>1734.0</ele>
        <time>2013-06-30T12:21:03Z</time>
      </trkpt>
      <trkpt lat="40.241533" lon="-4.897050">
        <ele>1733.0</ele>
        <time>2013-06-30T12:21:04Z</time>
      </trkpt>
      <trkpt lat="40.241600" lon="-4.897033">
        <ele>1733.0</ele>
        <time>2013-06-30T12:21:05Z</time>
      </trkpt>
      <trkpt lat="40.241667" lon="-4.897017">
        <ele>1732.0</ele>
        <time>2013-06-30T12:21:06Z</time>
      </trkpt>
      <trkpt lat="40.241733" lon="-4.896983">
        <ele>1733.0</ele>
        <time>2013-06-30T12:21:07Z</time>
      </trkpt>
      <trkpt lat="40.241800" lon="-4.896967">
        <ele>1734.0</ele>
        <time>2013-06-30T12:21:08Z</time>
      </trkpt>
      <trkpt lat="40.241850" lon="-4.896950">
        <ele>1735.0</ele>
        <time>2013-06-30T12:21:09Z</time>
      </trkpt>
      <trkpt lat="40.241900" lon="-4.896917">
        <ele>1735.0</ele>
        <time>2013-06-30T12:21:10Z</time>
      </trkpt>
      <trkpt lat="40.241950" lon="-4.896867">
        <ele>1735.0</ele>
        <time>2013-06-30T12:21:11Z</time>
      </trkpt>
      <trkpt lat="40.242000" lon="-4.896800">
        <ele>1735.0</ele>
        <time>2013-06-30T12:21:12Z</time>
      </trkpt>
      <trkpt lat="40.242033" lon="-4.896733">
        <ele>1736.0</ele>
        <time>2013-06-30T12:21:13Z</time>
      </trkpt>
      <trkpt lat="40.242033" lon="-4.896650">
        <ele>1736.0</ele>
        <time>2013-06-30T12:21:14Z</time>
      </trkpt>
      <trkpt lat="40.242033" lon="-4.896583">
        <ele>1738.0</ele>
        <time>2013-06-30T12:21:15Z</time>
      </trkpt>
      <trkpt lat="40.242017" lon="-4.896517">
        <ele>1740.0</ele>
        <time>2013-06-30T12:21:16Z</time>
      </trkpt>
      <trkpt lat="40.242000" lon="-4.896467">
        <ele>1742.0</ele>
        <time>2013-06-30T12:21:17Z</time>
      </trkpt>
      <trkpt lat="40.241983" lon="-4.896417">
        <ele>1743.0</ele>
        <time>2013-06-30T12:21:18Z</time>
      </trkpt>
      <trkpt lat="40.241950" lon="-4.896350">
        <ele>1743.0</ele>
        <time>2013-06-30T12:21:19Z</time>
      </trkpt>
      <trkpt lat="40.241900" lon="-4.896283">
        <ele>1742.0</ele>
        <time>2013-06-30T12:21:20Z</time>
      </trkpt>
      <trkpt lat="40.241850" lon="-4.896217">
        <ele>1741.0</ele>
        <time>2013-06-30T12:21:21Z</time>
      </trkpt>
      <trkpt lat="40.241767" lon="-4.896183">
        <ele>1741.0</ele>
        <time>2013-06-30T12:21:22Z</time>
      </trkpt>
      <trkpt lat="40.241700" lon="-4.896183">
        <ele>1742.0</ele>
        <time>2013-06-30T12:21:23Z</time>
      </trkpt>
      <trkpt lat="40.241633" lon="-4.896200">
        <ele>1742.0</ele>
        <time>2013-06-30T12:21:24Z</time>
      </trkpt>
      <trkpt lat="40.241550" lon="-4.896200">
        <ele>1742.0</ele>
        <time>2013-06-30T12:21:25Z</time>
      </trkpt>
      <trkpt lat="40.241467" lon="-4.896200">
        <ele>1742.0</ele>
        <time>2013-06-30T12:21:26Z</time>
      </trkpt>
      <trkpt lat="40.241367" lon="-4.896217">
        <ele>1741.0</ele>
        <time>2013-06-30T12:21:27Z</time>
      </trkpt>
      <trkpt lat="40.241267" lon="-4.896267">
        <ele>1740.0</ele>
        <time>2013-06-30T12:21:28Z</time>
      </trkpt>
      <trkpt lat="40.241183" lon="-4.896333">
        <ele>1740.0</ele>
        <time>2013-06-30T12:21:29Z</time>
      </trkpt>
      <trkpt lat="40.241117" lon="-4.896400">
        <ele>1740.0</ele>
        <time>2013-06-30T12:21:30Z</time>
      </trkpt>
      <trkpt lat="40.241050" lon="-4.896467">
        <ele>1742.0</ele>
        <time>2013-06-30T12:21:31Z</time>
      </trkpt>
      <trkpt lat="40.241000" lon="-4.896533">
        <ele>1742.0</ele>
        <time>2013-06-30T12:21:32Z</time>
      </trkpt>
      <trkpt lat="40.240917" lon="-4.896600">
        <ele>1741.0</ele>
        <time>2013-06-30T12:21:33Z</time>
      </trkpt>
      <trkpt lat="40.240833" lon="-4.896700">
        <ele>1740.0</ele>
        <time>2013-06-30T12:21:34Z</time>
      </trkpt>
      <trkpt lat="40.240750" lon="-4.896817">
        <ele>1738.0</ele>
        <time>2013-06-30T12:21:35Z</time>
      </trkpt>
      <trkpt lat="40.240683" lon="-4.896933">
        <ele>1740.0</ele>
        <time>2013-06-30T12:21:36Z</time>
      </trkpt>
      <trkpt lat="40.240617" lon="-4.897017">
        <ele>1741.0</ele>
        <time>2013-06-30T12:21:37Z</time>
      </trkpt>
      <trkpt lat="40.240550" lon="-4.897117">
        <ele>1743.0</ele>
        <time>2013-06-30T12:21:38Z</time>
      </trkpt>
      <trkpt lat="40.240483" lon="-4.897200">
        <ele>1744.0</ele>
        <time>2013-06-30T12:21:39Z</time>
      </trkpt>
      <trkpt lat="40.240417" lon="-4.897317">
        <ele>1744.0</ele>
        <time>2013-06-30T12:21:40Z</time>
      </trkpt>
      <trkpt lat="40.240350" lon="-4.897450">
        <ele>1743.0</ele>
        <time>2013-06-30T12:21:41Z</time>
      </trkpt>
      <trkpt lat="40.240300" lon="-4.897600">
        <ele>1743.0</ele>
        <time>2013-06-30T12:21:42Z</time>
      </trkpt>
      <trkpt lat="40.240250" lon="-4.897733">
        <ele>1744.0</ele>
        <time>2013-06-30T12:21:43Z</time>
      </trkpt>
      <trkpt lat="40.240200" lon="-4.897867">
        <ele>1746.0</ele>
        <time>2013-06-30T12:21:44Z</time>
      </trkpt>
      <trkpt lat="40.240133" lon="-4.897967">
        <ele>1748.0</ele>
        <time>2013-06-30T12:21:45Z</time>
      </trkpt>
      <trkpt lat="40.240083" lon="-4.898083">
        <ele>1749.0</ele>
        <time>2013-06-30T12:21:46Z</time>
      </trkpt>
      <trkpt lat="40.240050" lon="-4.898217">
        <ele>1750.0</ele>
        <time>2013-06-30T12:21:47Z</time>
      </trkpt>
      <trkpt lat="40.240017" lon="-4.898367">
        <ele>1750.0</ele>
        <time>2013-06-30T12:21:48Z</time>
      </trkpt>
      <trkpt lat="40.240000" lon="-4.898500">
        <ele>1750.0</ele>
        <time>2013-06-30T12:21:49Z</time>
      </trkpt>
      <trkpt lat="40.240000" lon="-4.898650">
        <ele>1750.0</ele>
        <time>2013-06-30T12:21:50Z</time>
      </trkpt>
      <trkpt lat="40.240000" lon="-4.898800">
        <ele>1750.0</ele>
        <time>2013-06-30T12:21:51Z</time>
      </trkpt>
      <trkpt lat="40.240000" lon="-4.898950">
        <ele>1750.0</ele>
        <time>2013-06-30T12:21:52Z</time>
      </trkpt>
      <trkpt lat="40.240017" lon="-4.899100">
        <ele>1749.0</ele>
        <time>2013-06-30T12:21:53Z</time>
      </trkpt>
      <trkpt lat="40.240033" lon="-4.899250">
        <ele>1749.0</ele>
        <time>2013-06-30T12:21:54Z</time>
      </trkpt>
      <trkpt lat="40.240067" lon="-4.899383">
        <ele>1749.0</ele>
        <time>2013-06-30T12:21:55Z</time>
      </trkpt>
      <trkpt lat="40.240100" lon="-4.899517">
        <ele>1749.0</ele>
        <time>2013-06-30T12:21:56Z</time>
      </trkpt>
      <trkpt lat="40.240150" lon="-4.899650">
        <ele>1749.0</ele>
        <time>2013-06-30T12:21:57Z</time>
      </trkpt>
      <trkpt lat="40.240183" lon="-4.899767">
        <ele>1749.0</ele>
        <time>2013-06-30T12:21:58Z</time>
      </trkpt>
      <trkpt lat="40.240233" lon="-4.899883">
        <ele>1749.0</ele>
        <time>2013-06-30T12:21:59Z</time>
      </trkpt>
      <trkpt lat="40.240300" lon="-4.900000">
        <ele>1748.0</ele>
        <time>2013-06-30T12:22:00Z</time>
      </trkpt>
      <trkpt lat="40.240350" lon="-4.900100">
        <ele>1748.0</ele>
        <time>2013-06-30T12:22:01Z</time>
      </trkpt>
      <trkpt lat="40.240417" lon="-4.900200">
        <ele>1747.0</ele>
        <time>2013-06-30T12:22:02Z</time>
      </trkpt>
      <trkpt lat="40.240483" lon="-4.900267">
        <ele>1746.0</ele>
        <time>2013-06-30T12:22:03Z</time>
      </trkpt>
      <trkpt lat="40.240550" lon="-4.900333">
        <ele>1744.0</ele>
        <time>2013-06-30T12:22:04Z</time>
      </trkpt>
      <trkpt lat="40.240633" lon="-4.900383">
        <ele>1743.0</ele>
        <time>2013-06-30T12:22:05Z</time>
      </trkpt>
      <trkpt lat="40.240700" lon="-4.900433">
        <ele>1742.0</ele>
        <time>2013-06-30T12:22:06Z</time>
      </trkpt>
      <trkpt lat="40.240783" lon="-4.900483">
        <ele>1741.0</ele>
        <time>2013-06-30T12:22:07Z</time>
      </trkpt>
      <trkpt lat="40.240850" lon="-4.900533">
        <ele>1739.0</ele>
        <time>2013-06-30T12:22:08Z</time>
      </trkpt>
      <trkpt lat="40.240933" lon="-4.900583">
        <ele>1737.0</ele>
        <time>2013-06-30T12:22:09Z</time>
      </trkpt>
      <trkpt lat="40.241017" lon="-4.900633">
        <ele>1736.0</ele>
        <time>2013-06-30T12:22:10Z</time>
      </trkpt>
      <trkpt lat="40.241100" lon="-4.900667">
        <ele>1735.0</ele>
        <time>2013-06-30T12:22:11Z</time>
      </trkpt>
      <trkpt lat="40.241167" lon="-4.900717">
        <ele>1734.0</ele>
        <time>2013-06-30T12:22:12Z</time>
      </trkpt>
      <trkpt lat="40.241250" lon="-4.900767">
        <ele>1733.0</ele>
        <time>2013-06-30T12:22:13Z</time>
      </trkpt>
      <trkpt lat="40.241317" lon="-4.900817">
        <ele>1732.0</ele>
        <time>2013-06-30T12:22:14Z</time>
      </trkpt>
      <trkpt lat="40.241400" lon="-4.900900">
        <ele>1730.0</ele>
        <time>2013-06-30T12:22:15Z</time>
      </trkpt>
      <trkpt lat="40.241483" lon="-4.900967">
        <ele>1728.0</ele>
        <time>2013-06-30T12:22:16Z</time>
      </trkpt>
      <trkpt lat="40.241567" lon="-4.901033">
        <ele>1727.0</ele>
        <time>2013-06-30T12:22:17Z</time>
      </trkpt>
      <trkpt lat="40.241633" lon="-4.901100">
        <ele>1726.0</ele>
        <time>2013-06-30T12:22:18Z</time>
      </trkpt>
      <trkpt lat="40.241717" lon="-4.901167">
        <ele>1725.0</ele>
        <time>2013-06-30T12:22:19Z</time>
      </trkpt>
      <trkpt lat="40.241783" lon="-4.901233">
        <ele>1724.0</ele>
        <time>2013-06-30T12:22:20Z</time>
      </trkpt>
      <trkpt lat="40.241867" lon="-4.901317">
        <ele>1723.0</ele>
        <time>2013-06-30T12:22:21Z</time>
      </trkpt>
      <trkpt lat="40.241950" lon="-4.901383">
        <ele>1723.0</ele>
        <time>2013-06-30T12:22:22Z</time>
      </trkpt>
      <trkpt lat="40.242033" lon="-4.901450">
        <ele>1723.0</ele>
        <time>2013-06-30T12:22:23Z</time>
      </trkpt>
      <trkpt lat="40.242117" lon="-4.901517">
        <ele>1724.0</ele>
        <time>2013-06-30T12:22:24Z</time>
      </trkpt>
      <trkpt lat="40.242200" lon="-4.901583">
        <ele>1726.0</ele>
        <time>2013-06-30T12:22:25Z</time>
      </trkpt>
      <trkpt lat="40.242283" lon="-4.901650">
        <ele>1728.0</ele>
        <time>2013-06-30T12:22:26Z</time>
      </trkpt>
      <trkpt lat="40.242350" lon="-4.901717">
        <ele>1729.0</ele>
        <time>2013-06-30T12:22:27Z</time>
      </trkpt>
      <trkpt lat="40.242433" lon="-4.901800">
        <ele>1731.0</ele>
        <time>2013-06-30T12:22:28Z</time>
      </trkpt>
      <trkpt lat="40.242517" lon="-4.901867">
        <ele>1733.0</ele>
        <time>2013-06-30T12:22:29Z</time>
      </trkpt>
      <trkpt lat="40.242600" lon="-4.901950">
        <ele>1734.0</ele>
        <time>2013-06-30T12:22:30Z</time>
      </trkpt>
      <trkpt lat="40.242683" lon="-4.902000">
        <ele>1737.0</ele>
        <time>2013-06-30T12:22:31Z</time>
      </trkpt>
      <trkpt lat="40.242750" lon="-4.902050">
        <ele>1742.0</ele>
        <time>2013-06-30T12:22:32Z</time>
      </trkpt>
      <trkpt lat="40.242817" lon="-4.902083">
        <ele>1747.0</ele>
        <time>2013-06-30T12:22:33Z</time>
      </trkpt>
      <trkpt lat="40.242900" lon="-4.902133">
        <ele>1752.0</ele>
        <time>2013-06-30T12:22:34Z</time>
      </trkpt>
      <trkpt lat="40.242967" lon="-4.902183">
        <ele>1755.0</ele>
        <time>2013-06-30T12:22:35Z</time>
      </trkpt>
      <trkpt lat="40.243033" lon="-4.902250">
        <ele>1758.0</ele>
        <time>2013-06-30T12:22:36Z</time>
      </trkpt>
      <trkpt lat="40.243117" lon="-4.902317">
        <ele>1761.0</ele>
        <time>2013-06-30T12:22:37Z</time>
      </trkpt>
      <trkpt lat="40.243183" lon="-4.902383">
        <ele>1765.0</ele>
        <time>2013-06-30T12:22:38Z</time>
      </trkpt>
      <trkpt lat="40.243250" lon="-4.902433">
        <ele>1770.0</ele>
        <time>2013-06-30T12:22:39Z</time>
      </trkpt>
      <trkpt lat="40.243300" lon="-4.902483">
        <ele>1775.0</ele>
        <time>2013-06-30T12:22:40Z</time>
      </trkpt>
      <trkpt lat="40.243367" lon="-4.902550">
        <ele>1779.0</ele>
        <time>2013-06-30T12:22:41Z</time>
      </trkpt>
      <trkpt lat="40.243433" lon="-4.902633">
        <ele>1782.0</ele>
        <time>2013-06-30T12:22:42Z</time>
      </trkpt>
      <trkpt lat="40.243517" lon="-4.902683">
        <ele>1785.0</ele>
        <time>2013-06-30T12:22:43Z</time>
      </trkpt>
      <trkpt lat="40.243600" lon="-4.902700">
        <ele>1788.0</ele>
        <time>2013-06-30T12:22:44Z</time>
      </trkpt>
      <trkpt lat="40.243667" lon="-4.902700">
        <ele>1792.0</ele>
        <time>2013-06-30T12:22:45Z</time>
      </trkpt>
      <trkpt lat="40.243717" lon="-4.902683">
        <ele>1796.0</ele>
        <time>2013-06-30T12:22:46Z</time>
      </trkpt>
      <trkpt lat="40.243750" lon="-4.902650">
        <ele>1800.0</ele>
        <time>2013-06-30T12:22:47Z</time>
      </trkpt>
      <trkpt lat="40.243783" lon="-4.902617">
        <ele>1802.0</ele>
        <time>2013-06-30T12:22:48Z</time>
      </trkpt>
      <trkpt lat="40.243817" lon="-4.902567">
        <ele>1804.0</ele>
        <time>2013-06-30T12:22:49Z</time>
      </trkpt>
      <trkpt lat="40.243850" lon="-4.902500">
        <ele>1806.0</ele>
        <time>2013-06-30T12:22:50Z</time>
      </trkpt>
      <trkpt lat="40.243867" lon="-4.902417">
        <ele>1808.0</ele>
        <time>2013-06-30T12:22:51Z</time>
      </trkpt>
      <trkpt lat="40.243850" lon="-4.902317">
        <ele>1811.0</ele>
        <time>2013-06-30T12:22:52Z</time>
      </trkpt>
      <trkpt lat="40.243833" lon="-4.902233">
        <ele>1816.0</ele>
        <time>2013-06-30T12:22:53Z</time>
      </trkpt>
      <trkpt lat="40.243833" lon="-4.902167">
        <ele>1822.0</ele>
        <time>2013-06-30T12:22:54Z</time>
      </trkpt>
      <trkpt lat="40.243800" lon="-4.902117">
        <ele>1828.0</ele>
        <time>2013-06-30T12:22:55Z</time>
      </trkpt>
      <trkpt lat="40.243767" lon="-4.902067">
        <ele>1832.0</ele>
        <time>2013-06-30T12:22:56Z</time>
      </trkpt>
      <trkpt lat="40.243717" lon="-4.902017">
        <ele>1836.0</ele>
        <time>2013-06-30T12:22:57Z</time>
      </trkpt>
      <trkpt lat="40.243633" lon="-4.901967">
        <ele>1839.0</ele>
        <time>2013-06-30T12:22:58Z</time>
      </trkpt>
      <trkpt lat="40.243550" lon="-4.901933">
        <ele>1842.0</ele>
        <time>2013-06-30T12:22:59Z</time>
      </trkpt>
      <trkpt lat="40.243467" lon="-4.901900">
        <ele>1845.0</ele>
        <time>2013-06-30T12:23:00Z</time>
      </trkpt>
      <trkpt lat="40.243400" lon="-4.901883">
        <ele>1849.0</ele>
        <time>2013-06-30T12:23:01Z</time>
      </trkpt>
      <trkpt lat="40.243350" lon="-4.901883">
        <ele>1853.0</ele>
        <time>2013-06-30T12:23:02Z</time>
      </trkpt>
      <trkpt lat="40.243283" lon="-4.901883">
        <ele>1856.0</ele>
        <time>2013-06-30T12:23:03Z</time>
      </trkpt>
      <trkpt lat="40.243217" lon="-4.901883">
        <ele>1859.0</ele>
        <time>2013-06-30T12:23:04Z</time>
      </trkpt>
      <trkpt lat="40.243133" lon="-4.901900">
        <ele>1861.0</ele>
        <time>2013-06-30T12:23:05Z</time>
      </trkpt>
      <trkpt lat="40.243050" lon="-4.901933">
        <ele>1863.0</ele>
        <time>2013-06-30T12:23:06Z</time>
      </trkpt>
      <trkpt lat="40.242983" lon="-4.901983">
        <ele>1866.0</ele>
        <time>2013-06-30T12:23:07Z</time>
      </trkpt>
      <trkpt lat="40.242900" lon="-4.902067">
        <ele>1868.0</ele>
        <time>2013-06-30T12:23:08Z</time>
      </trkpt>
      <trkpt lat="40.242833" lon="-4.902133">
        <ele>1870.0</ele>
        <time>2013-06-30T12:23:09Z</time>
      </trkpt>
      <trkpt lat="40.242783" lon="-4.902200">
        <ele>1871.0</ele>
        <time>2013-06-30T12:23:10Z</time>
      </trkpt>
      <trkpt lat="40.242750" lon="-4.902300">
        <ele>1871.0</ele>
        <time>2013-06-30T12:23:11Z</time>
      </trkpt>
      <trkpt lat="40.242683" lon="-4.902417">
        <ele>1870.0</ele>
        <time>2013-06-30T12:23:12Z</time>
      </trkpt>
      <trkpt lat="40.242617" lon="-4.902533">
        <ele>1870.0</ele>
        <time>2013-06-30T12:23:13Z</time>
      </trkpt>
      <trkpt lat="40.242567" lon="-4.902683">
        <ele>1869.0</ele>
        <time>2013-06-30T12:23:14Z</time>
      </trkpt>
      <trkpt lat="40.242517" lon="-4.902817">
        <ele>1872.0</ele>
        <time>2013-06-30T12:23:15Z</time>
      </trkpt>
      <trkpt lat="40.242483" lon="-4.902950">
        <ele>1875.0</ele>
        <time>2013-06-30T12:23:16Z</time>
      </trkpt>
      <trkpt lat="40.242450" lon="-4.903067">
        <ele>1878.0</ele>
        <time>2013-06-30T12:23:17Z</time>
      </trkpt>
      <trkpt lat="40.242417" lon="-4.903217">
        <ele>1880.0</ele>
        <time>2013-06-30T12:23:18Z</time>
      </trkpt>
      <trkpt lat="40.242400" lon="-4.903367">
        <ele>1881.0</ele>
        <time>2013-06-30T12:23:19Z</time>
      </trkpt>
      <trkpt lat="40.242383" lon="-4.903517">
        <ele>1883.0</ele>
        <time>2013-06-30T12:23:20Z</time>
      </trkpt>
      <trkpt lat="40.242383" lon="-4.903667">
        <ele>1886.0</ele>
        <time>2013-06-30T12:23:21Z</time>
      </trkpt>
      <trkpt lat="40.242383" lon="-4.903800">
        <ele>1890.0</ele>
        <time>2013-06-30T12:23:22Z</time>
      </trkpt>
      <trkpt lat="40.242367" lon="-4.903933">
        <ele>1894.0</ele>
        <time>2013-06-30T12:23:23Z</time>
      </trkpt>
      <trkpt lat="40.242350" lon="-4.904050">
        <ele>1899.0</ele>
        <time>2013-06-30T12:23:24Z</time>
      </trkpt>
      <trkpt lat="40.242333" lon="-4.904167">
        <ele>1903.0</ele>
        <time>2013-06-30T12:23:25Z</time>
      </trkpt>
      <trkpt lat="40.242317" lon="-4.904300">
        <ele>1907.0</ele>
        <time>2013-06-30T12:23:26Z</time>
      </trkpt>
      <trkpt lat="40.242317" lon="-4.904450">
        <ele>1909.0</ele>
        <time>2013-06-30T12:23:27Z</time>
      </trkpt>
      <trkpt lat="40.242333" lon="-4.904583">
        <ele>1912.0</ele>
        <time>2013-06-30T12:23:28Z</time>
      </trkpt>
      <trkpt lat="40.242350" lon="-4.904700">
        <ele>1916.0</ele>
        <time>2013-06-30T12:23:29Z</time>
      </trkpt>
      <trkpt lat="40.242367" lon="-4.904817">
        <ele>1920.0</ele>
        <time>2013-06-30T12:23:30Z</time>
      </trkpt>
      <trkpt lat="40.242400" lon="-4.904900">
        <ele>1923.0</ele>
        <time>2013-06-30T12:23:31Z</time>
      </trkpt>
      <trkpt lat="40.242467" lon="-4.905000">
        <ele>1926.0</ele>
        <time>2013-06-30T12:23:32Z</time>
      </trkpt>
      <trkpt lat="40.242517" lon="-4.905067">
        <ele>1928.0</ele>
        <time>2013-06-30T12:23:33Z</time>
      </trkpt>
      <trkpt lat="40.242600" lon="-4.905133">
        <ele>1930.0</ele>
        <time>2013-06-30T12:23:34Z</time>
      </trkpt>
      <trkpt lat="40.242650" lon="-4.905167">
        <ele>1933.0</ele>
        <time>2013-06-30T12:23:35Z</time>
      </trkpt>
      <trkpt lat="40.242700" lon="-4.905183">
        <ele>1935.0</ele>
        <time>2013-06-30T12:23:36Z</time>
      </trkpt>
      <trkpt lat="40.242767" lon="-4.905200">
        <ele>1938.0</ele>
        <time>2013-06-30T12:23:37Z</time>
      </trkpt>
      <trkpt lat="40.242833" lon="-4.905183">
        <ele>1940.0</ele>
        <time>2013-06-30T12:23:38Z</time>
      </trkpt>
      <trkpt lat="40.242883" lon="-4.905167">
        <ele>1943.0</ele>
        <time>2013-06-30T12:23:39Z</time>
      </trkpt>
      <trkpt lat="40.242933" lon="-4.905117">
        <ele>1947.0</ele>
        <time>2013-06-30T12:23:40Z</time>
      </trkpt>
      <trkpt lat="40.242967" lon="-4.905083">
        <ele>1952.0</ele>
        <time>2013-06-30T12:23:41Z</time>
      </trkpt>
      <trkpt lat="40.243000" lon="-4.905033">
        <ele>1956.0</ele>
        <time>2013-06-30T12:23:42Z</time>
      </trkpt>
      <trkpt lat="40.243017" lon="-4.904967">
        <ele>1960.0</ele>
        <time>2013-06-30T12:23:43Z</time>
      </trkpt>
      <trkpt lat="40.243017" lon="-4.904900">
        <ele>1964.0</ele>
        <time>2013-06-30T12:23:44Z</time>
      </trkpt>
      <trkpt lat="40.243017" lon="-4.904833">
        <ele>1968.0</ele>
        <time>2013-06-30T12:23:45Z</time>
      </trkpt>
      <trkpt lat="40.243017" lon="-4.904750">
        <ele>1972.0</ele>
        <time>2013-06-30T12:23:46Z</time>
      </trkpt>
      <trkpt lat="40.243017" lon="-4.904667">
        <ele>1975.0</ele>
        <time>2013-06-30T12:23:47Z</time>
      </trkpt>
      <trkpt lat="40.242983" lon="-4.904583">
        <ele>1978.0</ele>
        <time>2013-06-30T12:23:48Z</time>
      </trkpt>
      <trkpt lat="40.242950" lon="-4.904483">
        <ele>1982.0</ele>
        <time>2013-06-30T12:23:49Z</time>
      </trkpt>
      <trkpt lat="40.242917" lon="-4.904400">
        <ele>1987.0</ele>
        <time>2013-06-30T12:23:50Z</time>
      </trkpt>
      <trkpt lat="40.242883" lon="-4.904333">
        <ele>1991.0</ele>
        <time>2013-06-30T12:23:51Z</time>
      </trkpt>
      <trkpt lat="40.242867" lon="-4.904267">
        <ele>1997.0</ele>
        <time>2013-06-30T12:23:52Z</time>
      </trkpt>
      <trkpt lat="40.242833" lon="-4.904200">
        <ele>2002.0</ele>
        <time>2013-06-30T12:23:53Z</time>
      </trkpt>
      <trkpt lat="40.242800" lon="-4.904133">
        <ele>2006.0</ele>
        <time>2013-06-30T12:23:54Z</time>
      </trkpt>
      <trkpt lat="40.242783" lon="-4.904067">
        <ele>2010.0</ele>
        <time>2013-06-30T12:23:55Z</time>
      </trkpt>
      <trkpt lat="40.242750" lon="-4.903983">
        <ele>2012.0</ele>
        <time>2013-06-30T12:23:56Z</time>
      </trkpt>
      <trkpt lat="40.242717" lon="-4.903917">
        <ele>2014.0</ele>
        <time>2013-06-30T12:23:57Z</time>
      </trkpt>
      <trkpt lat="40.242667" lon="-4.903867">
        <ele>2015.0</ele>
        <time>2013-06-30T12:23:58Z</time>
      </trkpt>
      <trkpt lat="40.242617" lon="-4.903833">
        <ele>2018.0</ele>
        <time>2013-06-30T12:23:59Z</time>
      </trkpt>
      <trkpt lat="40.242567" lon="-4.903817">
        <ele>2020.0</ele>
        <time>2013-06-30T12:24:00Z</time>
      </trkpt>
      <trkpt lat="40.242483" lon="-4.903800">
        <ele>2022.0</ele>
        <time>2013-06-30T12:24:01Z</time>
      </trkpt>
      <trkpt lat="40.242400" lon="-4.903800">
        <ele>2024.0</ele>
        <time>2013-06-30T12:24:02Z</time>
      </trkpt>
      <trkpt lat="40.242317" lon="-4.903833">
        <ele>2025.0</ele>
        <time>2013-06-30T12:24:03Z</time>
      </trkpt>
      <trkpt lat="40.242233" lon="-4.903867">
        <ele>2027.0</ele>
        <time>2013-06-30T12:24:04Z</time>
      </trkpt>
      <trkpt lat="40.242133" lon="-4.903917">
        <ele>2029.0</ele>
        <time>2013-06-30T12:24:05Z</time>
      </trkpt>
      <trkpt lat="40.242050" lon="-4.903983">
        <ele>2031.0</ele>
        <time>2013-06-30T12:24:06Z</time>
      </trkpt>
      <trkpt lat="40.241983" lon="-4.904067">
        <ele>2032.0</ele>
        <time>2013-06-30T12:24:07Z</time>
      </trkpt>
      <trkpt lat="40.241900" lon="-4.904167">
        <ele>2033.0</ele>
        <time>2013-06-30T12:24:08Z</time>
      </trkpt>
      <trkpt lat="40.241850" lon="-4.904267">
        <ele>2034.0</ele>
        <time>2013-06-30T12:24:09Z</time>
      </trkpt>
      <trkpt lat="40.241783" lon="-4.904383">
        <ele>2035.0</ele>
        <time>2013-06-30T12:24:10Z</time>
      </trkpt>
      <trkpt lat="40.241733" lon="-4.904500">
        <ele>2036.0</ele>
        <time>2013-06-30T12:24:11Z</time>
      </trkpt>
      <trkpt lat="40.241700" lon="-4.904617">
        <ele>2038.0</ele>
        <time>2013-06-30T12:24:12Z</time>
      </trkpt>
      <trkpt lat="40.241667" lon="-4.904750">
        <ele>2039.0</ele>
        <time>2013-06-30T12:24:13Z</time>
      </trkpt>
      <trkpt lat="40.241650" lon="-4.904883">
        <ele>2040.0</ele>
        <time>2013-06-30T12:24:14Z</time>
      </trkpt>
      <trkpt lat="40.241650" lon="-4.905017">
        <ele>2041.0</ele>
        <time>2013-06-30T12:24:15Z</time>
      </trkpt>
      <trkpt lat="40.241633" lon="-4.905167">
        <ele>2041.0</ele>
        <time>2013-06-30T12:24:16Z</time>
      </trkpt>
      <trkpt lat="40.241633" lon="-4.905317">
        <ele>2042.0</ele>
        <time>2013-06-30T12:24:17Z</time>
      </trkpt>
      <trkpt lat="40.241633" lon="-4.905483">
        <ele>2044.0</ele>
        <time>2013-06-30T12:24:18Z</time>
      </trkpt>
      <trkpt lat="40.241617" lon="-4.905633">
        <ele>2046.0</ele>
        <time>2013-06-30T12:24:19Z</time>
      </trkpt>
      <trkpt lat="40.241617" lon="-4.905783">
        <ele>2049.0</ele>
        <time>2013-06-30T12:24:20Z</time>
      </trkpt>
      <trkpt lat="40.241633" lon="-4.905933">
        <ele>2053.0</ele>
        <time>2013-06-30T12:24:21Z</time>
      </trkpt>
      <trkpt lat="40.241650" lon="-4.906067">
        <ele>2056.0</ele>
        <time>2013-06-30T12:24:22Z</time>
      </trkpt>
      <trkpt lat="40.241667" lon="-4.906183">
        <ele>2060.0</ele>
        <time>2013-06-30T12:24:23Z</time>
      </trkpt>
      <trkpt lat="40.241700" lon="-4.906300">
        <ele>2063.0</ele>
        <time>2013-06-30T12:24:24Z</time>
      </trkpt>
      <trkpt lat="40.241750" lon="-4.906400">
        <ele>2067.0</ele>
        <time>2013-06-30T12:24:25Z</time>
      </trkpt>
      <trkpt lat="40.241800" lon="-4.906483">
        <ele>2070.0</ele>
        <time>2013-06-30T12:24:26Z</time>
      </trkpt>
      <trkpt lat="40.241850" lon="-4.906567">
        <ele>2073.0</ele>
        <time>2013-06-30T12:24:27Z</time>
      </trkpt>
      <trkpt lat="40.241933" lon="-4.906650">
        <ele>2077.0</ele>
        <time>2013-06-30T12:24:28Z</time>
      </trkpt>
      <trkpt lat="40.242000" lon="-4.906717">
        <ele>2081.0</ele>
        <time>2013-06-30T12:24:29Z</time>
      </trkpt>
      <trkpt lat="40.242050" lon="-4.906767">
        <ele>2085.0</ele>
        <time>2013-06-30T12:24:30Z</time>
      </trkpt>
      <trkpt lat="40.242117" lon="-4.906800">
        <ele>2089.0</ele>
        <time>2013-06-30T12:24:31Z</time>
      </trkpt>
      <trkpt lat="40.242183" lon="-4.906833">
        <ele>2093.0</ele>
        <time>2013-06-30T12:24:32Z</time>
      </trkpt>
      <trkpt lat="40.242250" lon="-4.906850">
        <ele>2097.0</ele>
        <time>2013-06-30T12:24:33Z</time>
      </trkpt>
      <trkpt lat="40.242317" lon="-4.906867">
        <ele>2101.0</ele>
        <time>2013-06-30T12:24:34Z</time>
      </trkpt>
      <trkpt lat="40.242383" lon="-4.906867">
        <ele>2106.0</ele>
        <time>2013-06-30T12:24:35Z</time>
      </trkpt>
      <trkpt lat="40.242433" lon="-4.906850">
        <ele>2110.0</ele>
        <time>2013-06-30T12:24:36Z</time>
      </trkpt>
      <trkpt lat="40.242483" lon="-4.906833">
        <ele>2115.0</ele>
        <time>2013-06-30T12:24:37Z</time>
      </trkpt>
      <trkpt lat="40.242517" lon="-4.906800">
        <ele>2120.0</ele>
        <time>2013-06-30T12:24:38Z</time>
      </trkpt>
      <trkpt lat="40.242550" lon="-4.906767">
        <ele>2125.0</ele>
        <time>2013-06-30T12:24:39Z</time>
      </trkpt>
      <trkpt lat="40.242550" lon="-4.906717">
        <ele>2130.0</ele>
        <time>2013-06-30T12:24:40Z</time>
      </trkpt>
      <trkpt lat="40.242533" lon="-4.906633">
        <ele>2133.0</ele>
        <time>2013-06-30T12:24:41Z</time>
      </trkpt>
      <trkpt lat="40.242500" lon="-4.906567">
        <ele>2135.0</ele>
        <time>2013-06-30T12:24:42Z</time>
      </trkpt>
      <trkpt lat="40.242450" lon="-4.906483">
        <ele>2137.0</ele>
        <time>2013-06-30T12:24:43Z</time>
      </trkpt>
      <trkpt lat="40.242400" lon="-4.906400">
        <ele>2139.0</ele>
        <time>2013-06-30T12:24:44Z</time>
      </trkpt>
      <trkpt lat="40.242367" lon="-4.906317">
        <ele>2142.0</ele>
        <time>2013-06-30T12:24:45Z</time>
      </trkpt>
      <trkpt lat="40.242317" lon="-4.906267">
        <ele>2146.0</ele>
        <time>2013-06-30T12:24:46Z</time>
      </trkpt>
      <trkpt lat="40.242283" lon="-4.906233">
        <ele>2149.0</ele>
        <time>2013-06-30T12:24:47Z</time>
      </trkpt>
      <trkpt lat="40.242267" lon="-4.906200">
        <ele>2152.0</ele>
        <time>2013-06-30T12:24:48Z</time>
      </trkpt>
      <trkpt lat="40.242233" lon="-4.906167">
        <ele>2153.0</ele>
        <time>2013-06-30T12:24:49Z</time>
      </trkpt>
      <trkpt lat="40.242200" lon="-4.906100">
        <ele>2152.0</ele>
        <time>2013-06-30T12:24:50Z</time>
      </trkpt>
      <trkpt lat="40.242150" lon="-4.906033">
        <ele>2152.0</ele>
        <time>2013-06-30T12:24:51Z</time>
      </trkpt>
      <trkpt lat="40.242100" lon="-4.905967">
        <ele>2153.0</ele>
        <time>2013-06-30T12:24:52Z</time>
      </trkpt>
      <trkpt lat="40.242050" lon="-4.905933">
        <ele>2156.0</ele>
        <time>2013-06-30T12:24:53Z</time>
      </trkpt>
      <trkpt lat="40.242000" lon="-4.905917">
        <ele>2159.0</ele>
        <time>2013-06-30T12:24:54Z</time>
      </trkpt>
      <trkpt lat="40.241933" lon="-4.905900">
        <ele>2161.0</ele>
        <time>2013-06-30T12:24:55Z</time>
      </trkpt>
      <trkpt lat="40.241850" lon="-4.905900">
        <ele>2163.0</ele>
        <time>2013-06-30T12:24:56Z</time>
      </trkpt>
      <trkpt lat="40.241750" lon="-4.905917">
        <ele>2165.0</ele>
        <time>2013-06-30T12:24:57Z</time>
      </trkpt>
      <trkpt lat="40.241650" lon="-4.905950">
        <ele>2166.0</ele>
        <time>2013-06-30T12:24:58Z</time>
      </trkpt>
      <trkpt lat="40.241550" lon="-4.906017">
        <ele>2168.0</ele>
        <time>2013-06-30T12:24:59Z</time>
      </trkpt>
      <trkpt lat="40.241467" lon="-4.906100">
        <ele>2169.0</ele>
        <time>2013-06-30T12:25:00Z</time>
      </trkpt>
      <trkpt lat="40.241383" lon="-4.906217">
        <ele>2171.0</ele>
        <time>2013-06-30T12:25:01Z</time>
      </trkpt>
      <trkpt lat="40.241300" lon="-4.906333">
        <ele>2173.0</ele>
        <time>2013-06-30T12:25:02Z</time>
      </trkpt>
      <trkpt lat="40.241233" lon="-4.906450">
        <ele>2175.0</ele>
        <time>2013-06-30T12:25:03Z</time>
      </trkpt>
      <trkpt lat="40.241183" lon="-4.906583">
        <ele>2176.0</ele>
        <time>2013-06-30T12:25:04Z</time>
      </trkpt>
      <trkpt lat="40.241133" lon="-4.906717">
        <ele>2177.0</ele>
        <time>2013-06-30T12:25:05Z</time>
      </trkpt>
      <trkpt lat="40.241100" lon="-4.906850">
        <ele>2178.0</ele>
        <time>2013-06-30T12:25:06Z</time>
      </trkpt>
      <trkpt lat="40.241050" lon="-4.906983">
        <ele>2179.0</ele>
        <time>2013-06-30T12:25:07Z</time>
      </trkpt>
      <trkpt lat="40.241000" lon="-4.907100">
        <ele>2179.0</ele>
        <time>2013-06-30T12:25:08Z</time>
      </trkpt>
      <trkpt lat="40.240933" lon="-4.907250">
        <ele>2179.0</ele>
        <time>2013-06-30T12:25:09Z</time>
      </trkpt>
      <trkpt lat="40.240867" lon="-4.907383">
        <ele>2179.0</ele>
        <time>2013-06-30T12:25:10Z</time>
      </trkpt>
      <trkpt lat="40.240817" lon="-4.907517">
        <ele>2181.0</ele>
        <time>2013-06-30T12:25:11Z</time>
      </trkpt>
      <trkpt lat="40.240800" lon="-4.907633">
        <ele>2183.0</ele>
        <time>2013-06-30T12:25:12Z</time>
      </trkpt>
      <trkpt lat="40.240783" lon="-4.907767">
        <ele>2184.0</ele>
        <time>2013-06-30T12:25:13Z</time>
      </trkpt>
      <trkpt lat="40.240767" lon="-4.907883">
        <ele>2185.0</ele>
        <time>2013-06-30T12:25:14Z</time>
      </trkpt>
      <trkpt lat="40.240767" lon="-4.908017">
        <ele>2185.0</ele>
        <time>2013-06-30T12:25:15Z</time>
      </trkpt>
      <trkpt lat="40.240750" lon="-4.908150">
        <ele>2186.0</ele>
        <time>2013-06-30T12:25:16Z</time>
      </trkpt>
      <trkpt lat="40.240767" lon="-4.908267">
        <ele>2188.0</ele>
        <time>2013-06-30T12:25:17Z</time>
      </trkpt>
      <trkpt lat="40.240800" lon="-4.908383">
        <ele>2189.0</ele>
        <time>2013-06-30T12:25:18Z</time>
      </trkpt>
      <trkpt lat="40.240833" lon="-4.908483">
        <ele>2190.0</ele>
        <time>2013-06-30T12:25:19Z</time>
      </trkpt>
      <trkpt lat="40.240883" lon="-4.908567">
        <ele>2191.0</ele>
        <time>2013-06-30T12:25:20Z</time>
      </trkpt>
      <trkpt lat="40.240933" lon="-4.908650">
        <ele>2191.0</ele>
        <time>2013-06-30T12:25:21Z</time>
      </trkpt>
      <trkpt lat="40.240983" lon="-4.908717">
        <ele>2192.0</ele>
        <time>2013-06-30T12:25:22Z</time>
      </trkpt>
      <trkpt lat="40.241050" lon="-4.908767">
        <ele>2193.0</ele>
        <time>2013-06-30T12:25:23Z</time>
      </trkpt>
      <trkpt lat="40.241117" lon="-4.908800">
        <ele>2194.0</ele>
        <time>2013-06-30T12:25:24Z</time>
      </trkpt>
      <trkpt lat="40.241167" lon="-4.908800">
        <ele>2195.0</ele>
        <time>2013-06-30T12:25:25Z</time>
      </trkpt>
      <trkpt lat="40.241217" lon="-4.908800">
        <ele>2198.0</ele>
        <time>2013-06-30T12:25:26Z</time>
      </trkpt>
      <trkpt lat="40.241267" lon="-4.908783">
        <ele>2200.0</ele>
        <time>2013-06-30T12:25:27Z</time>
      </trkpt>
      <trkpt lat="40.241317" lon="-4.908750">
        <ele>2203.0</ele>
        <time>2013-06-30T12:25:28Z</time>
      </trkpt>
      <trkpt lat="40.241333" lon="-4.908700">
        <ele>2206.0</ele>
        <time>2013-06-30T12:25:29Z</time>
      </trkpt>
      <trkpt lat="40.241350" lon="-4.908633">
        <ele>2210.0</ele>
        <time>2013-06-30T12:25:30Z</time>
      </trkpt>
      <trkpt lat="40.241367" lon="-4.908583">
        <ele>2212.0</ele>
        <time>2013-06-30T12:25:31Z</time>
      </trkpt>
      <trkpt lat="40.241367" lon="-4.908533">
        <ele>2214.0</ele>
        <time>2013-06-30T12:25:32Z</time>
      </trkpt>
      <trkpt lat="40.241367" lon="-4.908483">
        <ele>2216.0</ele>
        <time>2013-06-30T12:25:33Z</time>
      </trkpt>
      <trkpt lat="40.241383" lon="-4.908433">
        <ele>2217.0</ele>
        <time>2013-06-30T12:25:34Z</time>
      </trkpt>
      <trkpt lat="40.241400" lon="-4.908350">
        <ele>2218.0</ele>
        <time>2013-06-30T12:25:35Z</time>
      </trkpt>
      <trkpt lat="40.241400" lon="-4.908267">
        <ele>2218.0</ele>
        <time>2013-06-30T12:25:36Z</time>
      </trkpt>
      <trkpt lat="40.241367" lon="-4.908167">
        <ele>2220.0</ele>
        <time>2013-06-30T12:25:37Z</time>
      </trkpt>
      <trkpt lat="40.241350" lon="-4.908083">
        <ele>2221.0</ele>
        <time>2013-06-30T12:25:38Z</time>
      </trkpt>
      <trkpt lat="40.241300" lon="-4.908033">
        <ele>2224.0</ele>
        <time>2013-06-30T12:25:39Z</time>
      </trkpt>
      <trkpt lat="40.241250" lon="-4.908000">
        <ele>2226.0</ele>
        <time>2013-06-30T12:25:40Z</time>
      </trkpt>
      <trkpt lat="40.241167" lon="-4.907983">
        <ele>2228.0</ele>
        <time>2013-06-30T12:25:41Z</time>
      </trkpt>
      <trkpt lat="40.241083" lon="-4.907983">
        <ele>2228.0</ele>
        <time>2013-06-30T12:25:42Z</time>
      </trkpt>
      <trkpt lat="40.240983" lon="-4.907967">
        <ele>2229.0</ele>
        <time>2013-06-30T12:25:43Z</time>
      </trkpt>
      <trkpt lat="40.240900" lon="-4.907967">
        <ele>2230.0</ele>
        <time>2013-06-30T12:25:44Z</time>
      </trkpt>
      <trkpt lat="40.240817" lon="-4.907967">
        <ele>2232.0</ele>
        <time>2013-06-30T12:25:45Z</time>
      </trkpt>
      <trkpt lat="40.240750" lon="-4.907983">
        <ele>2234.0</ele>
        <time>2013-06-30T12:25:46Z</time>
      </trkpt>
      <trkpt lat="40.240667" lon="-4.908017">
        <ele>2235.0</ele>
        <time>2013-06-30T12:25:47Z</time>
      </trkpt>
      <trkpt lat="40.240567" lon="-4.908083">
        <ele>2236.0</ele>
        <time>2013-06-30T12:25:48Z</time>
      </trkpt>
      <trkpt lat="40.240483" lon="-4.908200">
        <ele>2236.0</ele>
        <time>2013-06-30T12:25:49Z</time>
      </trkpt>
      <trkpt lat="40.240417" lon="-4.908317">
        <ele>2236.0</ele>
        <time>2013-06-30T12:25:50Z</time>
      </trkpt>
      <trkpt lat="40.240350" lon="-4.908467">
        <ele>2237.0</ele>
        <time>2013-06-30T12:25:51Z</time>
      </trkpt>
      <trkpt lat="40.240317" lon="-4.908600">
        <ele>2238.0</ele>
        <time>2013-06-30T12:25:52Z</time>
      </trkpt>
      <trkpt lat="40.240300" lon="-4.908733">
        <ele>2239.0</ele>
        <time>2013-06-30T12:25:53Z</time>
      </trkpt>
      <trkpt lat="40.240300" lon="-4.908900">
        <ele>2239.0</ele>
        <time>2013-06-30T12:25:54Z</time>
      </trkpt>
      <trkpt lat="40.240300" lon="-4.909067">
        <ele>2238.0</ele>
        <time>2013-06-30T12:25:55Z</time>
      </trkpt>
      <trkpt lat="40.240300" lon="-4.909233">
        <ele>2237.0</ele>
        <time>2013-06-30T12:25:56Z</time>
      </trkpt>
      <trkpt lat="40.240300" lon="-4.909383">
        <ele>2239.0</ele>
        <time>2013-06-30T12:25:57Z</time>
      </trkpt>
      <trkpt lat="40.240283" lon="-4.909517">
        <ele>2241.0</ele>
        <time>2013-06-30T12:25:58Z</time>
      </trkpt>
      <trkpt lat="40.240267" lon="-4.909650">
        <ele>2243.0</ele>
        <time>2013-06-30T12:25:59Z</time>
      </trkpt>
      <trkpt lat="40.240250" lon="-4.909800">
        <ele>2243.0</ele>
        <time>2013-06-30T12:26:00Z</time>
      </trkpt>
      <trkpt lat="40.240250" lon="-4.909950">
        <ele>2242.0</ele>
        <time>2013-06-30T12:26:01Z</time>
      </trkpt>
      <trkpt lat="40.240267" lon="-4.910117">
        <ele>2240.0</ele>
        <time>2013-06-30T12:26:02Z</time>
      </trkpt>
      <trkpt lat="40.240283" lon="-4.910267">
        <ele>2241.0</ele>
        <time>2013-06-30T12:26:03Z</time>
      </trkpt>
      <trkpt lat="40.240300" lon="-4.910417">
        <ele>2242.0</ele>
        <time>2013-06-30T12:26:04Z</time>
      </trkpt>
      <trkpt lat="40.240283" lon="-4.910550">
        <ele>2243.0</ele>
        <time>2013-06-30T12:26:05Z</time>
      </trkpt>
      <trkpt lat="40.240267" lon="-4.910683">
        <ele>2244.0</ele>
        <time>2013-06-30T12:26:06Z</time>
      </trkpt>
      <trkpt lat="40.240233" lon="-4.910817">
        <ele>2245.0</ele>
        <time>2013-06-30T12:26:07Z</time>
      </trkpt>
      <trkpt lat="40.240200" lon="-4.910950">
        <ele>2248.0</ele>
        <time>2013-06-30T12:26:08Z</time>
      </trkpt>
      <trkpt lat="40.240150" lon="-4.911067">
        <ele>2250.0</ele>
        <time>2013-06-30T12:26:09Z</time>
      </trkpt>
      <trkpt lat="40.240083" lon="-4.911183">
        <ele>2252.0</ele>
        <time>2013-06-30T12:26:10Z</time>
      </trkpt>
      <trkpt lat="40.240017" lon="-4.911333">
        <ele>2253.0</ele>
        <time>2013-06-30T12:26:11Z</time>
      </trkpt>
      <trkpt lat="40.239967" lon="-4.911467">
        <ele>2254.0</ele>
        <time>2013-06-30T12:26:12Z</time>
      </trkpt>
      <trkpt lat="40.239933" lon="-4.911617">
        <ele>2255.0</ele>
        <time>2013-06-30T12:26:13Z</time>
      </trkpt>
      <trkpt lat="40.239867" lon="-4.911750">
        <ele>2256.0</ele>
        <time>2013-06-30T12:26:14Z</time>
      </trkpt>
      <trkpt lat="40.239800" lon="-4.911867">
        <ele>2257.0</ele>
        <time>2013-06-30T12:26:15Z</time>
      </trkpt>
      <trkpt lat="40.239717" lon="-4.911967">
        <ele>2257.0</ele>
        <time>2013-06-30T12:26:16Z</time>
      </trkpt>
      <trkpt lat="40.239633" lon="-4.912067">
        <ele>2256.0</ele>
        <time>2013-06-30T12:26:17Z</time>
      </trkpt>
      <trkpt lat="40.239550" lon="-4.912150">
        <ele>2256.0</ele>
        <time>2013-06-30T12:26:18Z</time>
      </trkpt>
      <trkpt lat="40.239467" lon="-4.912250">
        <ele>2256.0</ele>
        <time>2013-06-30T12:26:19Z</time>
      </trkpt>
      <trkpt lat="40.239400" lon="-4.912350">
        <ele>2257.0</ele>
        <time>2013-06-30T12:26:20Z</time>
      </trkpt>
      <trkpt lat="40.239317" lon="-4.912450">
        <ele>2257.0</ele>
        <time>2013-06-30T12:26:21Z</time>
      </trkpt>
      <trkpt lat="40.239250" lon="-4.912550">
        <ele>2257.0</ele>
        <time>2013-06-30T12:26:22Z</time>
      </trkpt>
      <trkpt lat="40.239150" lon="-4.912633">
        <ele>2256.0</ele>
        <time>2013-06-30T12:26:23Z</time>
      </trkpt>
      <trkpt lat="40.239067" lon="-4.912733">
        <ele>2256.0</ele>
        <time>2013-06-30T12:26:24Z</time>
      </trkpt>
      <trkpt lat="40.238967" lon="-4.912833">
        <ele>2256.0</ele>
        <time>2013-06-30T12:26:25Z</time>
      </trkpt>
      <trkpt lat="40.238883" lon="-4.912917">
        <ele>2257.0</ele>
        <time>2013-06-30T12:26:26Z</time>
      </trkpt>
      <trkpt lat="40.238783" lon="-4.912967">
        <ele>2257.0</ele>
        <time>2013-06-30T12:26:27Z</time>
      </trkpt>
      <trkpt lat="40.238700" lon="-4.913017">
        <ele>2257.0</ele>
        <time>2013-06-30T12:26:28Z</time>
      </trkpt>
      <trkpt lat="40.238600" lon="-4.913050">
        <ele>2256.0</ele>
        <time>2013-06-30T12:26:29Z</time>
      </trkpt>
      <trkpt lat="40.238500" lon="-4.913067">
        <ele>2256.0</ele>
        <time>2013-06-30T12:26:30Z</time>
      </trkpt>
      <trkpt lat="40.238433" lon="-4.913100">
        <ele>2258.0</ele>
        <time>2013-06-30T12:26:31Z</time>
      </trkpt>
      <trkpt lat="40.238367" lon="-4.913133">
        <ele>2258.0</ele>
        <time>2013-06-30T12:26:32Z</time>
      </trkpt>
      <trkpt lat="40.238283" lon="-4.913150">
        <ele>2257.0</ele>
        <time>2013-06-30T12:26:33Z</time>
      </trkpt>
      <trkpt lat="40.238200" lon="-4.913150">
        <ele>2255.0</ele>
        <time>2013-06-30T12:26:34Z</time>
      </trkpt>
      <trkpt lat="40.238100" lon="-4.913150">
        <ele>2252.0</ele>
        <time>2013-06-30T12:26:35Z</time>
      </trkpt>
      <trkpt lat="40.238017" lon="-4.913133">
        <ele>2250.0</ele>
        <time>2013-06-30T12:26:36Z</time>
      </trkpt>
      <trkpt lat="40.237933" lon="-4.913117">
        <ele>2249.0</ele>
        <time>2013-06-30T12:26:37Z</time>
      </trkpt>
      <trkpt lat="40.237850" lon="-4.913117">
        <ele>2248.0</ele>
        <time>2013-06-30T12:26:38Z</time>
      </trkpt>
      <trkpt lat="40.237767" lon="-4.913150">
        <ele>2246.0</ele>
        <time>2013-06-30T12:26:39Z</time>
      </trkpt>
      <trkpt lat="40.237667" lon="-4.913200">
        <ele>2245.0</ele>
        <time>2013-06-30T12:26:40Z</time>
      </trkpt>
      <trkpt lat="40.237583" lon="-4.913267">
        <ele>2243.0</ele>
        <time>2013-06-30T12:26:41Z</time>
      </trkpt>
      <trkpt lat="40.237483" lon="-4.913350">
        <ele>2241.0</ele>
        <time>2013-06-30T12:26:42Z</time>
      </trkpt>
      <trkpt lat="40.237400" lon="-4.913433">
        <ele>2239.0</ele>
        <time>2013-06-30T12:26:43Z</time>
      </trkpt>
      <trkpt lat="40.237300" lon="-4.913533">
        <ele>2237.0</ele>
        <time>2013-06-30T12:26:44Z</time>
      </trkpt>
      <trkpt lat="40.237217" lon="-4.913633">
        <ele>2235.0</ele>
        <time>2013-06-30T12:26:45Z</time>
      </trkpt>
      <trkpt lat="40.237133" lon="-4.913733">
        <ele>2233.0</ele>
        <time>2013-06-30T12:26:46Z</time>
      </trkpt>
      <trkpt lat="40.237050" lon="-4.913850">
        <ele>2230.0</ele>
        <time>2013-06-30T12:26:47Z</time>
      </trkpt>
      <trkpt lat="40.236950" lon="-4.913950">
        <ele>2228.0</ele>
        <time>2013-06-30T12:26:48Z</time>
      </trkpt>
      <trkpt lat="40.236883" lon="-4.914050">
        <ele>2226.0</ele>
        <time>2013-06-30T12:26:49Z</time>
      </trkpt>
      <trkpt lat="40.236817" lon="-4.914167">
        <ele>2224.0</ele>
        <time>2013-06-30T12:26:50Z</time>
      </trkpt>
      <trkpt lat="40.236767" lon="-4.914283">
        <ele>2221.0</ele>
        <time>2013-06-30T12:26:51Z</time>
      </trkpt>
      <trkpt lat="40.236700" lon="-4.914400">
        <ele>2218.0</ele>
        <time>2013-06-30T12:26:52Z</time>
      </trkpt>
      <trkpt lat="40.236633" lon="-4.914533">
        <ele>2214.0</ele>
        <time>2013-06-30T12:26:53Z</time>
      </trkpt>
      <trkpt lat="40.236567" lon="-4.914650">
        <ele>2211.0</ele>
        <time>2013-06-30T12:26:54Z</time>
      </trkpt>
      <trkpt lat="40.236500" lon="-4.914783">
        <ele>2210.0</ele>
        <time>2013-06-30T12:26:55Z</time>
      </trkpt>
      <trkpt lat="40.236450" lon="-4.914900">
        <ele>2208.0</ele>
        <time>2013-06-30T12:26:56Z</time>
      </trkpt>
      <trkpt lat="40.236383" lon="-4.915017">
        <ele>2207.0</ele>
        <time>2013-06-30T12:26:57Z</time>
      </trkpt>
      <trkpt lat="40.236317" lon="-4.915150">
        <ele>2206.0</ele>
        <time>2013-06-30T12:26:58Z</time>
      </trkpt>
      <trkpt lat="40.236250" lon="-4.915283">
        <ele>2205.0</ele>
        <time>2013-06-30T12:26:59Z</time>
      </trkpt>
      <trkpt lat="40.236183" lon="-4.915400">
        <ele>2204.0</ele>
        <time>2013-06-30T12:27:00Z</time>
      </trkpt>
      <trkpt lat="40.236133" lon="-4.915517">
        <ele>2204.0</ele>
        <time>2013-06-30T12:27:01Z</time>
      </trkpt>
      <trkpt lat="40.236083" lon="-4.915617">
        <ele>2204.0</ele>
        <time>2013-06-30T12:27:02Z</time>
      </trkpt>
      <trkpt lat="40.236017" lon="-4.915717">
        <ele>2203.0</ele>
        <time>2013-06-30T12:27:03Z</time>
      </trkpt>
      <trkpt lat="40.235967" lon="-4.915817">
        <ele>2202.0</ele>
        <time>2013-06-30T12:27:04Z</time>
      </trkpt>
      <trkpt lat="40.235900" lon="-4.915917">
        <ele>2201.0</ele>
        <time>2013-06-30T12:27:05Z</time>
      </trkpt>
      <trkpt lat="40.235817" lon="-4.916000">
        <ele>2199.0</ele>
        <time>2013-06-30T12:27:06Z</time>
      </trkpt>
      <trkpt lat="40.235733" lon="-4.916083">
        <ele>2197.0</ele>
        <time>2013-06-30T12:27:07Z</time>
      </trkpt>
      <trkpt lat="40.235667" lon="-4.916183">
        <ele>2196.0</ele>
        <time>2013-06-30T12:27:08Z</time>
      </trkpt>
      <trkpt lat="40.235617" lon="-4.916267">
        <ele>2195.0</ele>
        <time>2013-06-30T12:27:09Z</time>
      </trkpt>
      <trkpt lat="40.235550" lon="-4.916367">
        <ele>2193.0</ele>
        <time>2013-06-30T12:27:10Z</time>
      </trkpt>
      <trkpt lat="40.235483" lon="-4.916467">
        <ele>2191.0</ele>
        <time>2013-06-30T12:27:11Z</time>
      </trkpt>
      <trkpt lat="40.235417" lon="-4.916567">
        <ele>2188.0</ele>
        <time>2013-06-30T12:27:12Z</time>
      </trkpt>
      <trkpt lat="40.235333" lon="-4.916667">
        <ele>2186.0</ele>
        <time>2013-06-30T12:27:13Z</time>
      </trkpt>
      <trkpt lat="40.235267" lon="-4.916767">
        <ele>2184.0</ele>
        <time>2013-06-30T12:27:14Z</time>
      </trkpt>
      <trkpt lat="40.235217" lon="-4.916867">
        <ele>2185.0</ele>
        <time>2013-06-30T12:27:15Z</time>
      </trkpt>
      <trkpt lat="40.235150" lon="-4.916950">
        <ele>2185.0</ele>
        <time>2013-06-30T12:27:16Z</time>
      </trkpt>
      <trkpt lat="40.235083" lon="-4.917033">
        <ele>2184.0</ele>
        <time>2013-06-30T12:27:17Z</time>
      </trkpt>
      <trkpt lat="40.235017" lon="-4.917133">
        <ele>2182.0</ele>
        <time>2013-06-30T12:27:18Z</time>
      </trkpt>
      <trkpt lat="40.234950" lon="-4.917217">
        <ele>2181.0</ele>
        <time>2013-06-30T12:27:19Z</time>
      </trkpt>
      <trkpt lat="40.234883" lon="-4.917300">
        <ele>2180.0</ele>
        <time>2013-06-30T12:27:20Z</time>
      </trkpt>
      <trkpt lat="40.234817" lon="-4.917400">
        <ele>2179.0</ele>
        <time>2013-06-30T12:27:21Z</time>
      </trkpt>
      <trkpt lat="40.234767" lon="-4.917483">
        <ele>2178.0</ele>
        <time>2013-06-30T12:27:22Z</time>
      </trkpt>
      <trkpt lat="40.234717" lon="-4.917567">
        <ele>2176.0</ele>
        <time>2013-06-30T12:27:23Z</time>
      </trkpt>
      <trkpt lat="40.234650" lon="-4.917650">
        <ele>2174.0</ele>
        <time>2013-06-30T12:27:24Z</time>
      </trkpt>
      <trkpt lat="40.234600" lon="-4.917733">
        <ele>2172.0</ele>
        <time>2013-06-30T12:27:25Z</time>
      </trkpt>
      <trkpt lat="40.234533" lon="-4.917850">
        <ele>2170.0</ele>
        <time>2013-06-30T12:27:26Z</time>
      </trkpt>
      <trkpt lat="40.234450" lon="-4.917950">
        <ele>2167.0</ele>
        <time>2013-06-30T12:27:27Z</time>
      </trkpt>
      <trkpt lat="40.234400" lon="-4.918067">
        <ele>2165.0</ele>
        <time>2013-06-30T12:27:28Z</time>
      </trkpt>
      <trkpt lat="40.234333" lon="-4.918167">
        <ele>2163.0</ele>
        <time>2013-06-30T12:27:29Z</time>
      </trkpt>
      <trkpt lat="40.234267" lon="-4.918250">
        <ele>2161.0</ele>
        <time>2013-06-30T12:27:30Z</time>
      </trkpt>
      <trkpt lat="40.234217" lon="-4.918333">
        <ele>2159.0</ele>
        <time>2013-06-30T12:27:31Z</time>
      </trkpt>
      <trkpt lat="40.234150" lon="-4.918450">
        <ele>2156.0</ele>
        <time>2013-06-30T12:27:32Z</time>
      </trkpt>
      <trkpt lat="40.234083" lon="-4.918567">
        <ele>2153.0</ele>
        <time>2013-06-30T12:27:33Z</time>
      </trkpt>
      <trkpt lat="40.234033" lon="-4.918667">
        <ele>2152.0</ele>
        <time>2013-06-30T12:27:34Z</time>
      </trkpt>
      <trkpt lat="40.233983" lon="-4.918767">
        <ele>2152.0</ele>
        <time>2013-06-30T12:27:35Z</time>
      </trkpt>
      <trkpt lat="40.233950" lon="-4.918850">
        <ele>2152.0</ele>
        <time>2013-06-30T12:27:36Z</time>
      </trkpt>
      <trkpt lat="40.233900" lon="-4.918933">
        <ele>2150.0</ele>
        <time>2013-06-30T12:27:37Z</time>
      </trkpt>
      <trkpt lat="40.233850" lon="-4.919033">
        <ele>2149.0</ele>
        <time>2013-06-30T12:27:38Z</time>
      </trkpt>
      <trkpt lat="40.233800" lon="-4.919133">
        <ele>2146.0</ele>
        <time>2013-06-30T12:27:39Z</time>
      </trkpt>
      <trkpt lat="40.233750" lon="-4.919250">
        <ele>2144.0</ele>
        <time>2013-06-30T12:27:40Z</time>
      </trkpt>
      <trkpt lat="40.233717" lon="-4.919350">
        <ele>2142.0</ele>
        <time>2013-06-30T12:27:41Z</time>
      </trkpt>
      <trkpt lat="40.233667" lon="-4.919467">
        <ele>2141.0</ele>
        <time>2013-06-30T12:27:42Z</time>
      </trkpt>
      <trkpt lat="40.233633" lon="-4.919583">
        <ele>2139.0</ele>
        <time>2013-06-30T12:27:43Z</time>
      </trkpt>
      <trkpt lat="40.233600" lon="-4.919700">
        <ele>2138.0</ele>
        <time>2013-06-30T12:27:44Z</time>
      </trkpt>
      <trkpt lat="40.233567" lon="-4.919833">
        <ele>2136.0</ele>
        <time>2013-06-30T12:27:45Z</time>
      </trkpt>
      <trkpt lat="40.233517" lon="-4.919950">
        <ele>2134.0</ele>
        <time>2013-06-30T12:27:46Z</time>
      </trkpt>
      <trkpt lat="40.233483" lon="-4.920067">
        <ele>2133.0</ele>
        <time>2013-06-30T12:27:47Z</time>
      </trkpt>
      <trkpt lat="40.233433" lon="-4.920183">
        <ele>2131.0</ele>
        <time>2013-06-30T12:27:48Z</time>
      </trkpt>
      <trkpt lat="40.233400" lon="-4.920300">
        <ele>2130.0</ele>
        <time>2013-06-30T12:27:49Z</time>
      </trkpt>
      <trkpt lat="40.233350" lon="-4.920400">
        <ele>2129.0</ele>
        <time>2013-06-30T12:27:50Z</time>
      </trkpt>
      <trkpt lat="40.233317" lon="-4.920517">
        <ele>2128.0</ele>
        <time>2013-06-30T12:27:51Z</time>
      </trkpt>
      <trkpt lat="40.233283" lon="-4.920633">
        <ele>2127.0</ele>
        <time>2013-06-30T12:27:52Z</time>
      </trkpt>
      <trkpt lat="40.233233" lon="-4.920733">
        <ele>2126.0</ele>
        <time>2013-06-30T12:27:53Z</time>
      </trkpt>
      <trkpt lat="40.233200" lon="-4.920833">
        <ele>2125.0</ele>
        <time>2013-06-30T12:27:54Z</time>
      </trkpt>
      <trkpt lat="40.233150" lon="-4.920950">
        <ele>2125.0</ele>
        <time>2013-06-30T12:27:55Z</time>
      </trkpt>
      <trkpt lat="40.233100" lon="-4.921050">
        <ele>2124.0</ele>
        <time>2013-06-30T12:27:56Z</time>
      </trkpt>
      <trkpt lat="40.233067" lon="-4.921167">
        <ele>2123.0</ele>
        <time>2013-06-30T12:27:57Z</time>
      </trkpt>
      <trkpt lat="40.233017" lon="-4.921283">
        <ele>2122.0</ele>
        <time>2013-06-30T12:27:58Z</time>
      </trkpt>
      <trkpt lat="40.232967" lon="-4.921383">
        <ele>2122.0</ele>
        <time>2013-06-30T12:27:59Z</time>
      </trkpt>
      <trkpt lat="40.232933" lon="-4.921483">
        <ele>2122.0</ele>
        <time>2013-06-30T12:28:00Z</time>
      </trkpt>
      <trkpt lat="40.232883" lon="-4.921567">
        <ele>2122.0</ele>
        <time>2013-06-30T12:28:01Z</time>
      </trkpt>
      <trkpt lat="40.232833" lon="-4.921667">
        <ele>2121.0</ele>
        <time>2013-06-30T12:28:02Z</time>
      </trkpt>
      <trkpt lat="40.232783" lon="-4.921767">
        <ele>2120.0</ele>
        <time>2013-06-30T12:28:03Z</time>
      </trkpt>
      <trkpt lat="40.232733" lon="-4.921883">
        <ele>2119.0</ele>
        <time>2013-06-30T12:28:04Z</time>
      </trkpt>
      <trkpt lat="40.232683" lon="-4.922000">
        <ele>2118.0</ele>
        <time>2013-06-30T12:28:05Z</time>
      </trkpt>
      <trkpt lat="40.232633" lon="-4.922100">
        <ele>2118.0</ele>
        <time>2013-06-30T12:28:06Z</time>
      </trkpt>
      <trkpt lat="40.232583" lon="-4.922200">
        <ele>2117.0</ele>
        <time>2013-06-30T12:28:07Z</time>
      </trkpt>
      <trkpt lat="40.232533" lon="-4.922317">
        <ele>2115.0</ele>
        <time>2013-06-30T12:28:08Z</time>
      </trkpt>
      <trkpt lat="40.232500" lon="-4.922417">
        <ele>2114.0</ele>
        <time>2013-06-30T12:28:09Z</time>
      </trkpt>
      <trkpt lat="40.232450" lon="-4.922533">
        <ele>2113.0</ele>
        <time>2013-06-30T12:28:10Z</time>
      </trkpt>
      <trkpt lat="40.232417" lon="-4.922633">
        <ele>2113.0</ele>
        <time>2013-06-30T12:28:11Z</time>
      </trkpt>
      <trkpt lat="40.232367" lon="-4.922733">
        <ele>2113.0</ele>
        <time>2013-06-30T12:28:12Z</time>
      </trkpt>
      <trkpt lat="40.232317" lon="-4.922833">
        <ele>2113.0</ele>
        <time>2013-06-30T12:28:13Z</time>
      </trkpt>
      <trkpt lat="40.232267" lon="-4.922933">
        <ele>2113.0</ele>
        <time>2013-06-30T12:28:14Z</time>
      </trkpt>
      <trkpt lat="40.232200" lon="-4.923033">
        <ele>2113.0</ele>
        <time>2013-06-30T12:28:15Z</time>
      </trkpt>
      <trkpt lat="40.232150" lon="-4.923117">
        <ele>2113.0</ele>
        <time>2013-06-30T12:28:16Z</time>
      </trkpt>
      <trkpt lat="40.232067" lon="-4.923200">
        <ele>2113.0</ele>
        <time>2013-06-30T12:28:17Z</time>
      </trkpt>
      <trkpt lat="40.232000" lon="-4.923267">
        <ele>2113.0</ele>
        <time>2013-06-30T12:28:18Z</time>
      </trkpt>
      <trkpt lat="40.231933" lon="-4.923350">
        <ele>2113.0</ele>
        <time>2013-06-30T12:28:19Z</time>
      </trkpt>
      <trkpt lat="40.231850" lon="-4.923433">
        <ele>2112.0</ele>
        <time>2013-06-30T12:28:20Z</time>
      </trkpt>
      <trkpt lat="40.231767" lon="-4.923517">
        <ele>2111.0</ele>
        <time>2013-06-30T12:28:21Z</time>
      </trkpt>
      <trkpt lat="40.231683" lon="-4.923600">
        <ele>2110.0</ele>
        <time>2013-06-30T12:28:22Z</time>
      </trkpt>
      <trkpt lat="40.231600" lon="-4.923683">
        <ele>2109.0</ele>
        <time>2013-06-30T12:28:23Z</time>
      </trkpt>
      <trkpt lat="40.231533" lon="-4.923783">
        <ele>2108.0</ele>
        <time>2013-06-30T12:28:24Z</time>
      </trkpt>
      <trkpt lat="40.231450" lon="-4.923867">
        <ele>2107.0</ele>
        <time>2013-06-30T12:28:25Z</time>
      </trkpt>
      <trkpt lat="40.231383" lon="-4.923950">
        <ele>2106.0</ele>
        <time>2013-06-30T12:28:26Z</time>
      </trkpt>
      <trkpt lat="40.231300" lon="-4.924050">
        <ele>2106.0</ele>
        <time>2013-06-30T12:28:27Z</time>
      </trkpt>
      <trkpt lat="40.231233" lon="-4.924133">
        <ele>2106.0</ele>
        <time>2013-06-30T12:28:28Z</time>
      </trkpt>
      <trkpt lat="40.231167" lon="-4.924233">
        <ele>2105.0</ele>
        <time>2013-06-30T12:28:29Z</time>
      </trkpt>
      <trkpt lat="40.231100" lon="-4.924333">
        <ele>2105.0</ele>
        <time>2013-06-30T12:28:30Z</time>
      </trkpt>
      <trkpt lat="40.231050" lon="-4.924450">
        <ele>2104.0</ele>
        <time>2013-06-30T12:28:31Z</time>
      </trkpt>
      <trkpt lat="40.231000" lon="-4.924550">
        <ele>2103.0</ele>
        <time>2013-06-30T12:28:32Z</time>
      </trkpt>
      <trkpt lat="40.230950" lon="-4.924650">
        <ele>2102.0</ele>
        <time>2013-06-30T12:28:33Z</time>
      </trkpt>
      <trkpt lat="40.230917" lon="-4.924767">
        <ele>2100.0</ele>
        <time>2013-06-30T12:28:34Z</time>
      </trkpt>
      <trkpt lat="40.230867" lon="-4.924883">
        <ele>2099.0</ele>
        <time>2013-06-30T12:28:35Z</time>
      </trkpt>
      <trkpt lat="40.230833" lon="-4.924983">
        <ele>2097.0</ele>
        <time>2013-06-30T12:28:36Z</time>
      </trkpt>
      <trkpt lat="40.230800" lon="-4.925117">
        <ele>2095.0</ele>
        <time>2013-06-30T12:28:37Z</time>
      </trkpt>
      <trkpt lat="40.230750" lon="-4.925233">
        <ele>2093.0</ele>
        <time>2013-06-30T12:28:38Z</time>
      </trkpt>
      <trkpt lat="40.230717" lon="-4.925350">
        <ele>2091.0</ele>
        <time>2013-06-30T12:28:39Z</time>
      </trkpt>
      <trkpt lat="40.230700" lon="-4.925467">
        <ele>2090.0</ele>
        <time>2013-06-30T12:28:40Z</time>
      </trkpt>
      <trkpt lat="40.230667" lon="-4.925583">
        <ele>2088.0</ele>
        <time>2013-06-30T12:28:41Z</time>
      </trkpt>
      <trkpt lat="40.230633" lon="-4.925717">
        <ele>2085.0</ele>
        <time>2013-06-30T12:28:42Z</time>
      </trkpt>
      <trkpt lat="40.230600" lon="-4.925850">
        <ele>2082.0</ele>
        <time>2013-06-30T12:28:43Z</time>
      </trkpt>
      <trkpt lat="40.230550" lon="-4.925967">
        <ele>2081.0</ele>
        <time>2013-06-30T12:28:44Z</time>
      </trkpt>
      <trkpt lat="40.230517" lon="-4.926083">
        <ele>2079.0</ele>
        <time>2013-06-30T12:28:45Z</time>
      </trkpt>
      <trkpt lat="40.230467" lon="-4.926217">
        <ele>2078.0</ele>
        <time>2013-06-30T12:28:46Z</time>
      </trkpt>
      <trkpt lat="40.230433" lon="-4.926333">
        <ele>2076.0</ele>
        <time>2013-06-30T12:28:47Z</time>
      </trkpt>
      <trkpt lat="40.230383" lon="-4.926433">
        <ele>2075.0</ele>
        <time>2013-06-30T12:28:48Z</time>
      </trkpt>
      <trkpt lat="40.230350" lon="-4.926550">
        <ele>2073.0</ele>
        <time>2013-06-30T12:28:49Z</time>
      </trkpt>
      <trkpt lat="40.230300" lon="-4.926667">
        <ele>2072.0</ele>
        <time>2013-06-30T12:28:50Z</time>
      </trkpt>
      <trkpt lat="40.230250" lon="-4.926783">
        <ele>2070.0</ele>
        <time>2013-06-30T12:28:51Z</time>
      </trkpt>
      <trkpt lat="40.230217" lon="-4.926883">
        <ele>2069.0</ele>
        <time>2013-06-30T12:28:52Z</time>
      </trkpt>
      <trkpt lat="40.230167" lon="-4.926983">
        <ele>2068.0</ele>
        <time>2013-06-30T12:28:53Z</time>
      </trkpt>
      <trkpt lat="40.230117" lon="-4.927100">
        <ele>2067.0</ele>
        <time>2013-06-30T12:28:54Z</time>
      </trkpt>
      <trkpt lat="40.230067" lon="-4.927200">
        <ele>2065.0</ele>
        <time>2013-06-30T12:28:55Z</time>
      </trkpt>
      <trkpt lat="40.230017" lon="-4.927333">
        <ele>2064.0</ele>
        <time>2013-06-30T12:28:56Z</time>
      </trkpt>
      <trkpt lat="40.229983" lon="-4.927450">
        <ele>2062.0</ele>
        <time>2013-06-30T12:28:57Z</time>
      </trkpt>
      <trkpt lat="40.229950" lon="-4.927583">
        <ele>2061.0</ele>
        <time>2013-06-30T12:28:58Z</time>
      </trkpt>
      <trkpt lat="40.229900" lon="-4.927700">
        <ele>2060.0</ele>
        <time>2013-06-30T12:28:59Z</time>
      </trkpt>
      <trkpt lat="40.229867" lon="-4.927817">
        <ele>2059.0</ele>
        <time>2013-06-30T12:29:00Z</time>
      </trkpt>
      <trkpt lat="40.229817" lon="-4.927950">
        <ele>2057.0</ele>
        <time>2013-06-30T12:29:01Z</time>
      </trkpt>
      <trkpt lat="40.229767" lon="-4.928083">
        <ele>2055.0</ele>
        <time>2013-06-30T12:29:02Z</time>
      </trkpt>
      <trkpt lat="40.229733" lon="-4.928217">
        <ele>2054.0</ele>
        <time>2013-06-30T12:29:03Z</time>
      </trkpt>
      <trkpt lat="40.229683" lon="-4.928333">
        <ele>2053.0</ele>
        <time>2013-06-30T12:29:04Z</time>
      </trkpt>
      <trkpt lat="40.229650" lon="-4.928433">
        <ele>2052.0</ele>
        <time>2013-06-30T12:29:05Z</time>
      </trkpt>
      <trkpt lat="40.229600" lon="-4.928533">
        <ele>2050.0</ele>
        <time>2013-06-30T12:29:06Z</time>
      </trkpt>
      <trkpt lat="40.229550" lon="-4.928650">
        <ele>2048.0</ele>
        <time>2013-06-30T12:29:07Z</time>
      </trkpt>
      <trkpt lat="40.229500" lon="-4.928767">
        <ele>2046.0</ele>
        <time>2013-06-30T12:29:08Z</time>
      </trkpt>
      <trkpt lat="40.229467" lon="-4.928883">
        <ele>2044.0</ele>
        <time>2013-06-30T12:29:09Z</time>
      </trkpt>
      <trkpt lat="40.229417" lon="-4.928983">
        <ele>2043.0</ele>
        <time>2013-06-30T12:29:10Z</time>
      </trkpt>
      <trkpt lat="40.229367" lon="-4.929067">
        <ele>2041.0</ele>
        <time>2013-06-30T12:29:11Z</time>
      </trkpt>
      <trkpt lat="40.229317" lon="-4.929167">
        <ele>2040.0</ele>
        <time>2013-06-30T12:29:12Z</time>
      </trkpt>
      <trkpt lat="40.229250" lon="-4.929250">
        <ele>2038.0</ele>
        <time>2013-06-30T12:29:13Z</time>
      </trkpt>
      <trkpt lat="40.229183" lon="-4.929350">
        <ele>2035.0</ele>
        <time>2013-06-30T12:29:14Z</time>
      </trkpt>
      <trkpt lat="40.229133" lon="-4.929450">
        <ele>2032.0</ele>
        <time>2013-06-30T12:29:15Z</time>
      </trkpt>
      <trkpt lat="40.229067" lon="-4.929533">
        <ele>2031.0</ele>
        <time>2013-06-30T12:29:16Z</time>
      </trkpt>
      <trkpt lat="40.229017" lon="-4.929617">
        <ele>2029.0</ele>
        <time>2013-06-30T12:29:17Z</time>
      </trkpt>
      <trkpt lat="40.228950" lon="-4.929700">
        <ele>2028.0</ele>
        <time>2013-06-30T12:29:18Z</time>
      </trkpt>
      <trkpt lat="40.228900" lon="-4.929783">
        <ele>2026.0</ele>
        <time>2013-06-30T12:29:19Z</time>
      </trkpt>
      <trkpt lat="40.228833" lon="-4.929867">
        <ele>2025.0</ele>
        <time>2013-06-30T12:29:20Z</time>
      </trkpt>
      <trkpt lat="40.228783" lon="-4.929967">
        <ele>2022.0</ele>
        <time>2013-06-30T12:29:21Z</time>
      </trkpt>
      <trkpt lat="40.228717" lon="-4.930067">
        <ele>2021.0</ele>
        <time>2013-06-30T12:29:22Z</time>
      </trkpt>
      <trkpt lat="40.228650" lon="-4.930150">
        <ele>2019.0</ele>
        <time>2013-06-30T12:29:23Z</time>
      </trkpt>
      <trkpt lat="40.228600" lon="-4.930250">
        <ele>2018.0</ele>
        <time>2013-06-30T12:29:24Z</time>
      </trkpt>
      <trkpt lat="40.228533" lon="-4.930333">
        <ele>2016.0</ele>
        <time>2013-06-30T12:29:25Z</time>
      </trkpt>
      <trkpt lat="40.228483" lon="-4.930417">
        <ele>2015.0</ele>
        <time>2013-06-30T12:29:26Z</time>
      </trkpt>
      <trkpt lat="40.228417" lon="-4.930500">
        <ele>2013.0</ele>
        <time>2013-06-30T12:29:27Z</time>
      </trkpt>
      <trkpt lat="40.228350" lon="-4.930583">
        <ele>2012.0</ele>
        <time>2013-06-30T12:29:28Z</time>
      </trkpt>
      <trkpt lat="40.228300" lon="-4.930683">
        <ele>2010.0</ele>
        <time>2013-06-30T12:29:29Z</time>
      </trkpt>
      <trkpt lat="40.228233" lon="-4.930767">
        <ele>2008.0</ele>
        <time>2013-06-30T12:29:30Z</time>
      </trkpt>
      <trkpt lat="40.228183" lon="-4.930850">
        <ele>2007.0</ele>
        <time>2013-06-30T12:29:31Z</time>
      </trkpt>
      <trkpt lat="40.228133" lon="-4.930950">
        <ele>2006.0</ele>
        <time>2013-06-30T12:29:32Z</time>
      </trkpt>
      <trkpt lat="40.228067" lon="-4.931033">
        <ele>2004.0</ele>
        <time>2013-06-30T12:29:33Z</time>
      </trkpt>
      <trkpt lat="40.228017" lon="-4.931117">
        <ele>2004.0</ele>
        <time>2013-06-30T12:29:34Z</time>
      </trkpt>
      <trkpt lat="40.227967" lon="-4.931217">
        <ele>2003.0</ele>
        <time>2013-06-30T12:29:35Z</time>
      </trkpt>
      <trkpt lat="40.227900" lon="-4.931300">
        <ele>2002.0</ele>
        <time>2013-06-30T12:29:36Z</time>
      </trkpt>
      <trkpt lat="40.227833" lon="-4.931383">
        <ele>2001.0</ele>
        <time>2013-06-30T12:29:37Z</time>
      </trkpt>
      <trkpt lat="40.227783" lon="-4.931467">
        <ele>1999.0</ele>
        <time>2013-06-30T12:29:38Z</time>
      </trkpt>
      <trkpt lat="40.227733" lon="-4.931567">
        <ele>1998.0</ele>
        <time>2013-06-30T12:29:39Z</time>
      </trkpt>
      <trkpt lat="40.227667" lon="-4.931667">
        <ele>1996.0</ele>
        <time>2013-06-30T12:29:40Z</time>
      </trkpt>
      <trkpt lat="40.227600" lon="-4.931767">
        <ele>1994.0</ele>
        <time>2013-06-30T12:29:41Z</time>
      </trkpt>
      <trkpt lat="40.227550" lon="-4.931867">
        <ele>1992.0</ele>
        <time>2013-06-30T12:29:42Z</time>
      </trkpt>
      <trkpt lat="40.227483" lon="-4.931967">
        <ele>1990.0</ele>
        <time>2013-06-30T12:29:43Z</time>
      </trkpt>
      <trkpt lat="40.227433" lon="-4.932067">
        <ele>1988.0</ele>
        <time>2013-06-30T12:29:44Z</time>
      </trkpt>
      <trkpt lat="40.227383" lon="-4.932167">
        <ele>1986.0</ele>
        <time>2013-06-30T12:29:45Z</time>
      </trkpt>
      <trkpt lat="40.227333" lon="-4.932283">
        <ele>1984.0</ele>
        <time>2013-06-30T12:29:46Z</time>
      </trkpt>
      <trkpt lat="40.227267" lon="-4.932383">
        <ele>1983.0</ele>
        <time>2013-06-30T12:29:47Z</time>
      </trkpt>
      <trkpt lat="40.227217" lon="-4.932500">
        <ele>1981.0</ele>
        <time>2013-06-30T12:29:48Z</time>
      </trkpt>
      <trkpt lat="40.227167" lon="-4.932617">
        <ele>1980.0</ele>
        <time>2013-06-30T12:29:49Z</time>
      </trkpt>
      <trkpt lat="40.227100" lon="-4.932717">
        <ele>1979.0</ele>
        <time>2013-06-30T12:29:50Z</time>
      </trkpt>
      <trkpt lat="40.227067" lon="-4.932833">
        <ele>1978.0</ele>
        <time>2013-06-30T12:29:51Z</time>
      </trkpt>
      <trkpt lat="40.227017" lon="-4.932933">
        <ele>1978.0</ele>
        <time>2013-06-30T12:29:52Z</time>
      </trkpt>
      <trkpt lat="40.227000" lon="-4.933033">
        <ele>1978.0</ele>
        <time>2013-06-30T12:29:53Z</time>
      </trkpt>
      <trkpt lat="40.226983" lon="-4.933167">
        <ele>1977.0</ele>
        <time>2013-06-30T12:29:54Z</time>
      </trkpt>
      <trkpt lat="40.226967" lon="-4.933300">
        <ele>1976.0</ele>
        <time>2013-06-30T12:29:55Z</time>
      </trkpt>
      <trkpt lat="40.226950" lon="-4.933417">
        <ele>1974.0</ele>
        <time>2013-06-30T12:29:56Z</time>
      </trkpt>
      <trkpt lat="40.226933" lon="-4.933533">
        <ele>1973.0</ele>
        <time>2013-06-30T12:29:57Z</time>
      </trkpt>
      <trkpt lat="40.226900" lon="-4.933650">
        <ele>1971.0</ele>
        <time>2013-06-30T12:29:58Z</time>
      </trkpt>
      <trkpt lat="40.226867" lon="-4.933767">
        <ele>1970.0</ele>
        <time>2013-06-30T12:29:59Z</time>
      </trkpt>
      <trkpt lat="40.226817" lon="-4.933867">
        <ele>1968.0</ele>
        <time>2013-06-30T12:30:00Z</time>
      </trkpt>
      <trkpt lat="40.226783" lon="-4.933967">
        <ele>1967.0</ele>
        <time>2013-06-30T12:30:01Z</time>
      </trkpt>
      <trkpt lat="40.226733" lon="-4.934067">
        <ele>1965.0</ele>
        <time>2013-06-30T12:30:02Z</time>
      </trkpt>
      <trkpt lat="40.226667" lon="-4.934167">
        <ele>1963.0</ele>
        <time>2013-06-30T12:30:03Z</time>
      </trkpt>
      <trkpt lat="40.226617" lon="-4.934267">
        <ele>1961.0</ele>
        <time>2013-06-30T12:30:04Z</time>
      </trkpt>
      <trkpt lat="40.226550" lon="-4.934350">
        <ele>1960.0</ele>
        <time>2013-06-30T12:30:05Z</time>
      </trkpt>
      <trkpt lat="40.226483" lon="-4.934433">
        <ele>1958.0</ele>
        <time>2013-06-30T12:30:06Z</time>
      </trkpt>
      <trkpt lat="40.226417" lon="-4.934517">
        <ele>1956.0</ele>
        <time>2013-06-30T12:30:07Z</time>
      </trkpt>
      <trkpt lat="40.226350" lon="-4.934600">
        <ele>1955.0</ele>
        <time>2013-06-30T12:30:08Z</time>
      </trkpt>
      <trkpt lat="40.226267" lon="-4.934683">
        <ele>1954.0</ele>
        <time>2013-06-30T12:30:09Z</time>
      </trkpt>
      <trkpt lat="40.226167" lon="-4.934750">
        <ele>1953.0</ele>
        <time>2013-06-30T12:30:10Z</time>
      </trkpt>
      <trkpt lat="40.226083" lon="-4.934817">
        <ele>1953.0</ele>
        <time>2013-06-30T12:30:11Z</time>
      </trkpt>
      <trkpt lat="40.226000" lon="-4.934883">
        <ele>1954.0</ele>
        <time>2013-06-30T12:30:12Z</time>
      </trkpt>
      <trkpt lat="40.225917" lon="-4.934917">
        <ele>1956.0</ele>
        <time>2013-06-30T12:30:13Z</time>
      </trkpt>
      <trkpt lat="40.225850" lon="-4.934967">
        <ele>1956.0</ele>
        <time>2013-06-30T12:30:14Z</time>
      </trkpt>
      <trkpt lat="40.225750" lon="-4.935000">
        <ele>1956.0</ele>
        <time>2013-06-30T12:30:15Z</time>
      </trkpt>
      <trkpt lat="40.225650" lon="-4.935050">
        <ele>1956.0</ele>
        <time>2013-06-30T12:30:16Z</time>
      </trkpt>
      <trkpt lat="40.225550" lon="-4.935100">
        <ele>1955.0</ele>
        <time>2013-06-30T12:30:17Z</time>
      </trkpt>
      <trkpt lat="40.225467" lon="-4.935133">
        <ele>1955.0</ele>
        <time>2013-06-30T12:30:18Z</time>
      </trkpt>
      <trkpt lat="40.225367" lon="-4.935183">
        <ele>1955.0</ele>
        <time>2013-06-30T12:30:19Z</time>
      </trkpt>
      <trkpt lat="40.225283" lon="-4.935217">
        <ele>1955.0</ele>
        <time>2013-06-30T12:30:20Z</time>
      </trkpt>
      <trkpt lat="40.225200" lon="-4.935267">
        <ele>1955.0</ele>
        <time>2013-06-30T12:30:21Z</time>
      </trkpt>
      <trkpt lat="40.225117" lon="-4.935317">
        <ele>1955.0</ele>
        <time>2013-06-30T12:30:22Z</time>
      </trkpt>
      <trkpt lat="40.225017" lon="-4.935367">
        <ele>1954.0</ele>
        <time>2013-06-30T12:30:23Z</time>
      </trkpt>
      <trkpt lat="40.224917" lon="-4.935417">
        <ele>1953.0</ele>
        <time>2013-06-30T12:30:24Z</time>
      </trkpt>
      <trkpt lat="40.224817" lon="-4.935450">
        <ele>1951.0</ele>
        <time>2013-06-30T12:30:25Z</time>
      </trkpt>
      <trkpt lat="40.224717" lon="-4.935483">
        <ele>1950.0</ele>
        <time>2013-06-30T12:30:26Z</time>
      </trkpt>
      <trkpt lat="40.224633" lon="-4.935517">
        <ele>1949.0</ele>
        <time>2013-06-30T12:30:27Z</time>
      </trkpt>
      <trkpt lat="40.224550" lon="-4.935550">
        <ele>1948.0</ele>
        <time>2013-06-30T12:30:28Z</time>
      </trkpt>
      <trkpt lat="40.224450" lon="-4.935583">
        <ele>1947.0</ele>
        <time>2013-06-30T12:30:29Z</time>
      </trkpt>
      <trkpt lat="40.224367" lon="-4.935617">
        <ele>1946.0</ele>
        <time>2013-06-30T12:30:30Z</time>
      </trkpt>
      <trkpt lat="40.224267" lon="-4.935667">
        <ele>1944.0</ele>
        <time>2013-06-30T12:30:31Z</time>
      </trkpt>
      <trkpt lat="40.224183" lon="-4.935717">
        <ele>1943.0</ele>
        <time>2013-06-30T12:30:32Z</time>
      </trkpt>
      <trkpt lat="40.224083" lon="-4.935750">
        <ele>1942.0</ele>
        <time>2013-06-30T12:30:33Z</time>
      </trkpt>
      <trkpt lat="40.224000" lon="-4.935800">
        <ele>1942.0</ele>
        <time>2013-06-30T12:30:34Z</time>
      </trkpt>
      <trkpt lat="40.223917" lon="-4.935833">
        <ele>1942.0</ele>
        <time>2013-06-30T12:30:35Z</time>
      </trkpt>
      <trkpt lat="40.223833" lon="-4.935867">
        <ele>1943.0</ele>
        <time>2013-06-30T12:30:36Z</time>
      </trkpt>
      <trkpt lat="40.223750" lon="-4.935917">
        <ele>1942.0</ele>
        <time>2013-06-30T12:30:37Z</time>
      </trkpt>
      <trkpt lat="40.223667" lon="-4.935967">
        <ele>1942.0</ele>
        <time>2013-06-30T12:30:38Z</time>
      </trkpt>
      <trkpt lat="40.223583" lon="-4.936017">
        <ele>1940.0</ele>
        <time>2013-06-30T12:30:39Z</time>
      </trkpt>
      <trkpt lat="40.223500" lon="-4.936083">
        <ele>1939.0</ele>
        <time>2013-06-30T12:30:40Z</time>
      </trkpt>
      <trkpt lat="40.223433" lon="-4.936133">
        <ele>1938.0</ele>
        <time>2013-06-30T12:30:41Z</time>
      </trkpt>
      <trkpt lat="40.223350" lon="-4.936200">
        <ele>1938.0</ele>
        <time>2013-06-30T12:30:42Z</time>
      </trkpt>
      <trkpt lat="40.223283" lon="-4.936267">
        <ele>1937.0</ele>
        <time>2013-06-30T12:30:43Z</time>
      </trkpt>
      <trkpt lat="40.223217" lon="-4.936317">
        <ele>1935.0</ele>
        <time>2013-06-30T12:30:44Z</time>
      </trkpt>
      <trkpt lat="40.223133" lon="-4.936367">
        <ele>1933.0</ele>
        <time>2013-06-30T12:30:45Z</time>
      </trkpt>
      <trkpt lat="40.223050" lon="-4.936433">
        <ele>1931.0</ele>
        <time>2013-06-30T12:30:46Z</time>
      </trkpt>
      <trkpt lat="40.222967" lon="-4.936517">
        <ele>1929.0</ele>
        <time>2013-06-30T12:30:47Z</time>
      </trkpt>
      <trkpt lat="40.222900" lon="-4.936617">
        <ele>1927.0</ele>
        <time>2013-06-30T12:30:48Z</time>
      </trkpt>
      <trkpt lat="40.222833" lon="-4.936700">
        <ele>1926.0</ele>
        <time>2013-06-30T12:30:49Z</time>
      </trkpt>
      <trkpt lat="40.222783" lon="-4.936800">
        <ele>1925.0</ele>
        <time>2013-06-30T12:30:50Z</time>
      </trkpt>
      <trkpt lat="40.222700" lon="-4.936900">
        <ele>1924.0</ele>
        <time>2013-06-30T12:30:51Z</time>
      </trkpt>
      <trkpt lat="40.222633" lon="-4.937000">
        <ele>1922.0</ele>
        <time>2013-06-30T12:30:52Z</time>
      </trkpt>
      <trkpt lat="40.222567" lon="-4.937100">
        <ele>1921.0</ele>
        <time>2013-06-30T12:30:53Z</time>
      </trkpt>
      <trkpt lat="40.222483" lon="-4.937200">
        <ele>1921.0</ele>
        <time>2013-06-30T12:30:54Z</time>
      </trkpt>
      <trkpt lat="40.222417" lon="-4.937300">
        <ele>1920.0</ele>
        <time>2013-06-30T12:30:55Z</time>
      </trkpt>
      <trkpt lat="40.222350" lon="-4.937383">
        <ele>1919.0</ele>
        <time>2013-06-30T12:30:56Z</time>
      </trkpt>
      <trkpt lat="40.222300" lon="-4.937483">
        <ele>1919.0</ele>
        <time>2013-06-30T12:30:57Z</time>
      </trkpt>
      <trkpt lat="40.222250" lon="-4.937600">
        <ele>1918.0</ele>
        <time>2013-06-30T12:30:58Z</time>
      </trkpt>
      <trkpt lat="40.222200" lon="-4.937717">
        <ele>1917.0</ele>
        <time>2013-06-30T12:30:59Z</time>
      </trkpt>
      <trkpt lat="40.222150" lon="-4.937833">
        <ele>1916.0</ele>
        <time>2013-06-30T12:31:00Z</time>
      </trkpt>
      <trkpt lat="40.222083" lon="-4.937950">
        <ele>1915.0</ele>
        <time>2013-06-30T12:31:01Z</time>
      </trkpt>
      <trkpt lat="40.222033" lon="-4.938067">
        <ele>1915.0</ele>
        <time>2013-06-30T12:31:02Z</time>
      </trkpt>
      <trkpt lat="40.222000" lon="-4.938167">
        <ele>1915.0</ele>
        <time>2013-06-30T12:31:03Z</time>
      </trkpt>
      <trkpt lat="40.221950" lon="-4.938283">
        <ele>1913.0</ele>
        <time>2013-06-30T12:31:04Z</time>
      </trkpt>
      <trkpt lat="40.221900" lon="-4.938400">
        <ele>1912.0</ele>
        <time>2013-06-30T12:31:05Z</time>
      </trkpt>
      <trkpt lat="40.221867" lon="-4.938533">
        <ele>1910.0</ele>
        <time>2013-06-30T12:31:06Z</time>
      </trkpt>
      <trkpt lat="40.221817" lon="-4.938633">
        <ele>1908.0</ele>
        <time>2013-06-30T12:31:07Z</time>
      </trkpt>
      <trkpt lat="40.221783" lon="-4.938750">
        <ele>1906.0</ele>
        <time>2013-06-30T12:31:08Z</time>
      </trkpt>
      <trkpt lat="40.221750" lon="-4.938883">
        <ele>1903.0</ele>
        <time>2013-06-30T12:31:09Z</time>
      </trkpt>
      <trkpt lat="40.221717" lon="-4.939017">
        <ele>1900.0</ele>
        <time>2013-06-30T12:31:10Z</time>
      </trkpt>
      <trkpt lat="40.221667" lon="-4.939150">
        <ele>1896.0</ele>
        <time>2013-06-30T12:31:11Z</time>
      </trkpt>
      <trkpt lat="40.221617" lon="-4.939300">
        <ele>1894.0</ele>
        <time>2013-06-30T12:31:12Z</time>
      </trkpt>
      <trkpt lat="40.221583" lon="-4.939450">
        <ele>1893.0</ele>
        <time>2013-06-30T12:31:13Z</time>
      </trkpt>
      <trkpt lat="40.221550" lon="-4.939567">
        <ele>1895.0</ele>
        <time>2013-06-30T12:31:14Z</time>
      </trkpt>
      <trkpt lat="40.221517" lon="-4.939683">
        <ele>1896.0</ele>
        <time>2013-06-30T12:31:15Z</time>
      </trkpt>
      <trkpt lat="40.221483" lon="-4.939783">
        <ele>1895.0</ele>
        <time>2013-06-30T12:31:16Z</time>
      </trkpt>
      <trkpt lat="40.221433" lon="-4.939917">
        <ele>1894.0</ele>
        <time>2013-06-30T12:31:17Z</time>
      </trkpt>
      <trkpt lat="40.221400" lon="-4.940050">
        <ele>1892.0</ele>
        <time>2013-06-30T12:31:18Z</time>
      </trkpt>
      <trkpt lat="40.221350" lon="-4.940183">
        <ele>1890.0</ele>
        <time>2013-06-30T12:31:19Z</time>
      </trkpt>
      <trkpt lat="40.221317" lon="-4.940300">
        <ele>1890.0</ele>
        <time>2013-06-30T12:31:20Z</time>
      </trkpt>
      <trkpt lat="40.221267" lon="-4.940417">
        <ele>1889.0</ele>
        <time>2013-06-30T12:31:21Z</time>
      </trkpt>
      <trkpt lat="40.221233" lon="-4.940517">
        <ele>1888.0</ele>
        <time>2013-06-30T12:31:22Z</time>
      </trkpt>
      <trkpt lat="40.221183" lon="-4.940633">
        <ele>1886.0</ele>
        <time>2013-06-30T12:31:23Z</time>
      </trkpt>
      <trkpt lat="40.221133" lon="-4.940767">
        <ele>1883.0</ele>
        <time>2013-06-30T12:31:24Z</time>
      </trkpt>
      <trkpt lat="40.221083" lon="-4.940917">
        <ele>1881.0</ele>
        <time>2013-06-30T12:31:25Z</time>
      </trkpt>
      <trkpt lat="40.221033" lon="-4.941033">
        <ele>1879.0</ele>
        <time>2013-06-30T12:31:26Z</time>
      </trkpt>
      <trkpt lat="40.221000" lon="-4.941150">
        <ele>1879.0</ele>
        <time>2013-06-30T12:31:27Z</time>
      </trkpt>
      <trkpt lat="40.220967" lon="-4.941267">
        <ele>1877.0</ele>
        <time>2013-06-30T12:31:28Z</time>
      </trkpt>
      <trkpt lat="40.220933" lon="-4.941367">
        <ele>1876.0</ele>
        <time>2013-06-30T12:31:29Z</time>
      </trkpt>
      <trkpt lat="40.220900" lon="-4.941500">
        <ele>1873.0</ele>
        <time>2013-06-30T12:31:30Z</time>
      </trkpt>
      <trkpt lat="40.220867" lon="-4.941617">
        <ele>1870.0</ele>
        <time>2013-06-30T12:31:31Z</time>
      </trkpt>
      <trkpt lat="40.220833" lon="-4.941767">
        <ele>1865.0</ele>
        <time>2013-06-30T12:31:32Z</time>
      </trkpt>
      <trkpt lat="40.220800" lon="-4.941900">
        <ele>1862.0</ele>
        <time>2013-06-30T12:31:33Z</time>
      </trkpt>
      <trkpt lat="40.220783" lon="-4.942033">
        <ele>1859.0</ele>
        <time>2013-06-30T12:31:34Z</time>
      </trkpt>
      <trkpt lat="40.220750" lon="-4.942150">
        <ele>1857.0</ele>
        <time>2013-06-30T12:31:35Z</time>
      </trkpt>
      <trkpt lat="40.220733" lon="-4.942267">
        <ele>1855.0</ele>
        <time>2013-06-30T12:31:36Z</time>
      </trkpt>
      <trkpt lat="40.220700" lon="-4.942367">
        <ele>1853.0</ele>
        <time>2013-06-30T12:31:37Z</time>
      </trkpt>
      <trkpt lat="40.220667" lon="-4.942483">
        <ele>1850.0</ele>
        <time>2013-06-30T12:31:38Z</time>
      </trkpt>
      <trkpt lat="40.220633" lon="-4.942617">
        <ele>1846.0</ele>
        <time>2013-06-30T12:31:39Z</time>
      </trkpt>
      <trkpt lat="40.220617" lon="-4.942767">
        <ele>1843.0</ele>
        <time>2013-06-30T12:31:40Z</time>
      </trkpt>
      <trkpt lat="40.220583" lon="-4.942900">
        <ele>1840.0</ele>
        <time>2013-06-30T12:31:41Z</time>
      </trkpt>
      <trkpt lat="40.220567" lon="-4.943017">
        <ele>1837.0</ele>
        <time>2013-06-30T12:31:42Z</time>
      </trkpt>
      <trkpt lat="40.220567" lon="-4.943150">
        <ele>1835.0</ele>
        <time>2013-06-30T12:31:43Z</time>
      </trkpt>
      <trkpt lat="40.220550" lon="-4.943267">
        <ele>1833.0</ele>
        <time>2013-06-30T12:31:44Z</time>
      </trkpt>
      <trkpt lat="40.220517" lon="-4.943400">
        <ele>1830.0</ele>
        <time>2013-06-30T12:31:45Z</time>
      </trkpt>
      <trkpt lat="40.220500" lon="-4.943517">
        <ele>1828.0</ele>
        <time>2013-06-30T12:31:46Z</time>
      </trkpt>
      <trkpt lat="40.220483" lon="-4.943650">
        <ele>1826.0</ele>
        <time>2013-06-30T12:31:47Z</time>
      </trkpt>
      <trkpt lat="40.220467" lon="-4.943767">
        <ele>1824.0</ele>
        <time>2013-06-30T12:31:48Z</time>
      </trkpt>
      <trkpt lat="40.220433" lon="-4.943900">
        <ele>1821.0</ele>
        <time>2013-06-30T12:31:49Z</time>
      </trkpt>
      <trkpt lat="40.220433" lon="-4.944017">
        <ele>1818.0</ele>
        <time>2013-06-30T12:31:50Z</time>
      </trkpt>
      <trkpt lat="40.220400" lon="-4.944167">
        <ele>1814.0</ele>
        <time>2013-06-30T12:31:51Z</time>
      </trkpt>
      <trkpt lat="40.220383" lon="-4.944300">
        <ele>1811.0</ele>
        <time>2013-06-30T12:31:52Z</time>
      </trkpt>
      <trkpt lat="40.220367" lon="-4.944433">
        <ele>1808.0</ele>
        <time>2013-06-30T12:31:53Z</time>
      </trkpt>
      <trkpt lat="40.220367" lon="-4.944567">
        <ele>1806.0</ele>
        <time>2013-06-30T12:31:54Z</time>
      </trkpt>
      <trkpt lat="40.220350" lon="-4.944700">
        <ele>1803.0</ele>
        <time>2013-06-30T12:31:55Z</time>
      </trkpt>
      <trkpt lat="40.220333" lon="-4.944833">
        <ele>1801.0</ele>
        <time>2013-06-30T12:31:56Z</time>
      </trkpt>
      <trkpt lat="40.220317" lon="-4.944950">
        <ele>1798.0</ele>
        <time>2013-06-30T12:31:57Z</time>
      </trkpt>
      <trkpt lat="40.220300" lon="-4.945083">
        <ele>1796.0</ele>
        <time>2013-06-30T12:31:58Z</time>
      </trkpt>
      <trkpt lat="40.220267" lon="-4.945200">
        <ele>1794.0</ele>
        <time>2013-06-30T12:31:59Z</time>
      </trkpt>
      <trkpt lat="40.220250" lon="-4.945333">
        <ele>1793.0</ele>
        <time>2013-06-30T12:32:00Z</time>
      </trkpt>
      <trkpt lat="40.220217" lon="-4.945433">
        <ele>1792.0</ele>
        <time>2013-06-30T12:32:01Z</time>
      </trkpt>
      <trkpt lat="40.220183" lon="-4.945550">
        <ele>1790.0</ele>
        <time>2013-06-30T12:32:02Z</time>
      </trkpt>
      <trkpt lat="40.220150" lon="-4.945667">
        <ele>1788.0</ele>
        <time>2013-06-30T12:32:03Z</time>
      </trkpt>
      <trkpt lat="40.220133" lon="-4.945783">
        <ele>1785.0</ele>
        <time>2013-06-30T12:32:04Z</time>
      </trkpt>
      <trkpt lat="40.220117" lon="-4.945917">
        <ele>1783.0</ele>
        <time>2013-06-30T12:32:05Z</time>
      </trkpt>
      <trkpt lat="40.220100" lon="-4.946050">
        <ele>1780.0</ele>
        <time>2013-06-30T12:32:06Z</time>
      </trkpt>
      <trkpt lat="40.220083" lon="-4.946183">
        <ele>1777.0</ele>
        <time>2013-06-30T12:32:07Z</time>
      </trkpt>
      <trkpt lat="40.220067" lon="-4.946300">
        <ele>1775.0</ele>
        <time>2013-06-30T12:32:08Z</time>
      </trkpt>
      <trkpt lat="40.220050" lon="-4.946433">
        <ele>1772.0</ele>
        <time>2013-06-30T12:32:09Z</time>
      </trkpt>
      <trkpt lat="40.220050" lon="-4.946583">
        <ele>1770.0</ele>
        <time>2013-06-30T12:32:10Z</time>
      </trkpt>
      <trkpt lat="40.220033" lon="-4.946717">
        <ele>1767.0</ele>
        <time>2013-06-30T12:32:11Z</time>
      </trkpt>
      <trkpt lat="40.220017" lon="-4.946867">
        <ele>1765.0</ele>
        <time>2013-06-30T12:32:12Z</time>
      </trkpt>
      <trkpt lat="40.220000" lon="-4.947000">
        <ele>1763.0</ele>
        <time>2013-06-30T12:32:13Z</time>
      </trkpt>
      <trkpt lat="40.219983" lon="-4.947117">
        <ele>1762.0</ele>
        <time>2013-06-30T12:32:14Z</time>
      </trkpt>
      <trkpt lat="40.219950" lon="-4.947250">
        <ele>1760.0</ele>
        <time>2013-06-30T12:32:15Z</time>
      </trkpt>
      <trkpt lat="40.219933" lon="-4.947383">
        <ele>1758.0</ele>
        <time>2013-06-30T12:32:16Z</time>
      </trkpt>
      <trkpt lat="40.219900" lon="-4.947533">
        <ele>1756.0</ele>
        <time>2013-06-30T12:32:17Z</time>
      </trkpt>
      <trkpt lat="40.219867" lon="-4.947667">
        <ele>1753.0</ele>
        <time>2013-06-30T12:32:18Z</time>
      </trkpt>
      <trkpt lat="40.219850" lon="-4.947817">
        <ele>1751.0</ele>
        <time>2013-06-30T12:32:19Z</time>
      </trkpt>
      <trkpt lat="40.219817" lon="-4.947950">
        <ele>1750.0</ele>
        <time>2013-06-30T12:32:20Z</time>
      </trkpt>
      <trkpt lat="40.219783" lon="-4.948083">
        <ele>1748.0</ele>
        <time>2013-06-30T12:32:21Z</time>
      </trkpt>
      <trkpt lat="40.219750" lon="-4.948217">
        <ele>1746.0</ele>
        <time>2013-06-30T12:32:22Z</time>
      </trkpt>
      <trkpt lat="40.219717" lon="-4.948350">
        <ele>1744.0</ele>
        <time>2013-06-30T12:32:23Z</time>
      </trkpt>
      <trkpt lat="40.219683" lon="-4.948483">
        <ele>1742.0</ele>
        <time>2013-06-30T12:32:24Z</time>
      </trkpt>
      <trkpt lat="40.219650" lon="-4.948617">
        <ele>1741.0</ele>
        <time>2013-06-30T12:32:25Z</time>
      </trkpt>
      <trkpt lat="40.219617" lon="-4.948733">
        <ele>1740.0</ele>
        <time>2013-06-30T12:32:26Z</time>
      </trkpt>
      <trkpt lat="40.219567" lon="-4.948867">
        <ele>1738.0</ele>
        <time>2013-06-30T12:32:27Z</time>
      </trkpt>
      <trkpt lat="40.219533" lon="-4.949017">
        <ele>1736.0</ele>
        <time>2013-06-30T12:32:28Z</time>
      </trkpt>
      <trkpt lat="40.219500" lon="-4.949150">
        <ele>1734.0</ele>
        <time>2013-06-30T12:32:29Z</time>
      </trkpt>
      <trkpt lat="40.219450" lon="-4.949300">
        <ele>1733.0</ele>
        <time>2013-06-30T12:32:30Z</time>
      </trkpt>
      <trkpt lat="40.219400" lon="-4.949417">
        <ele>1732.0</ele>
        <time>2013-06-30T12:32:31Z</time>
      </trkpt>
      <trkpt lat="40.219367" lon="-4.949550">
        <ele>1731.0</ele>
        <time>2013-06-30T12:32:32Z</time>
      </trkpt>
      <trkpt lat="40.219317" lon="-4.949667">
        <ele>1729.0</ele>
        <time>2013-06-30T12:32:33Z</time>
      </trkpt>
      <trkpt lat="40.219283" lon="-4.949800">
        <ele>1726.0</ele>
        <time>2013-06-30T12:32:34Z</time>
      </trkpt>
      <trkpt lat="40.219233" lon="-4.949933">
        <ele>1724.0</ele>
        <time>2013-06-30T12:32:35Z</time>
      </trkpt>
      <trkpt lat="40.219217" lon="-4.950067">
        <ele>1722.0</ele>
        <time>2013-06-30T12:32:36Z</time>
      </trkpt>
      <trkpt lat="40.219183" lon="-4.950200">
        <ele>1720.0</ele>
        <time>2013-06-30T12:32:37Z</time>
      </trkpt>
      <trkpt lat="40.219150" lon="-4.950317">
        <ele>1719.0</ele>
        <time>2013-06-30T12:32:38Z</time>
      </trkpt>
      <trkpt lat="40.219117" lon="-4.950433">
        <ele>1718.0</ele>
        <time>2013-06-30T12:32:39Z</time>
      </trkpt>
      <trkpt lat="40.219083" lon="-4.950550">
        <ele>1716.0</ele>
        <time>2013-06-30T12:32:40Z</time>
      </trkpt>
      <trkpt lat="40.219050" lon="-4.950700">
        <ele>1714.0</ele>
        <time>2013-06-30T12:32:41Z</time>
      </trkpt>
      <trkpt lat="40.219033" lon="-4.950833">
        <ele>1711.0</ele>
        <time>2013-06-30T12:32:42Z</time>
      </trkpt>
      <trkpt lat="40.219017" lon="-4.950967">
        <ele>1708.0</ele>
        <time>2013-06-30T12:32:43Z</time>
      </trkpt>
      <trkpt lat="40.219000" lon="-4.951100">
        <ele>1706.0</ele>
        <time>2013-06-30T12:32:44Z</time>
      </trkpt>
      <trkpt lat="40.218983" lon="-4.951217">
        <ele>1704.0</ele>
        <time>2013-06-30T12:32:45Z</time>
      </trkpt>
      <trkpt lat="40.218967" lon="-4.951350">
        <ele>1702.0</ele>
        <time>2013-06-30T12:32:46Z</time>
      </trkpt>
      <trkpt lat="40.218950" lon="-4.951467">
        <ele>1699.0</ele>
        <time>2013-06-30T12:32:47Z</time>
      </trkpt>
      <trkpt lat="40.218933" lon="-4.951617">
        <ele>1695.0</ele>
        <time>2013-06-30T12:32:48Z</time>
      </trkpt>
      <trkpt lat="40.218917" lon="-4.951767">
        <ele>1691.0</ele>
        <time>2013-06-30T12:32:49Z</time>
      </trkpt>
      <trkpt lat="40.218917" lon="-4.951917">
        <ele>1688.0</ele>
        <time>2013-06-30T12:32:50Z</time>
      </trkpt>
      <trkpt lat="40.218900" lon="-4.952067">
        <ele>1686.0</ele>
        <time>2013-06-30T12:32:51Z</time>
      </trkpt>
      <trkpt lat="40.218900" lon="-4.952217">
        <ele>1684.0</ele>
        <time>2013-06-30T12:32:52Z</time>
      </trkpt>
      <trkpt lat="40.218883" lon="-4.952350">
        <ele>1683.0</ele>
        <time>2013-06-30T12:32:53Z</time>
      </trkpt>
      <trkpt lat="40.218883" lon="-4.952500">
        <ele>1682.0</ele>
        <time>2013-06-30T12:32:54Z</time>
      </trkpt>
      <trkpt lat="40.218867" lon="-4.952617">
        <ele>1681.0</ele>
        <time>2013-06-30T12:32:55Z</time>
      </trkpt>
      <trkpt lat="40.218833" lon="-4.952750">
        <ele>1681.0</ele>
        <time>2013-06-30T12:32:56Z</time>
      </trkpt>
      <trkpt lat="40.218817" lon="-4.952867">
        <ele>1682.0</ele>
        <time>2013-06-30T12:32:57Z</time>
      </trkpt>
      <trkpt lat="40.218783" lon="-4.952983">
        <ele>1682.0</ele>
        <time>2013-06-30T12:32:58Z</time>
      </trkpt>
      <trkpt lat="40.218767" lon="-4.953100">
        <ele>1681.0</ele>
        <time>2013-06-30T12:32:59Z</time>
      </trkpt>
      <trkpt lat="40.218750" lon="-4.953250">
        <ele>1680.0</ele>
        <time>2013-06-30T12:33:00Z</time>
      </trkpt>
      <trkpt lat="40.218750" lon="-4.953400">
        <ele>1678.0</ele>
        <time>2013-06-30T12:33:01Z</time>
      </trkpt>
      <trkpt lat="40.218783" lon="-4.953550">
        <ele>1677.0</ele>
        <time>2013-06-30T12:33:02Z</time>
      </trkpt>
      <trkpt lat="40.218817" lon="-4.953700">
        <ele>1675.0</ele>
        <time>2013-06-30T12:33:03Z</time>
      </trkpt>
      <trkpt lat="40.218850" lon="-4.953850">
        <ele>1674.0</ele>
        <time>2013-06-30T12:33:04Z</time>
      </trkpt>
      <trkpt lat="40.218900" lon="-4.954000">
        <ele>1673.0</ele>
        <time>2013-06-30T12:33:05Z</time>
      </trkpt>
      <trkpt lat="40.218967" lon="-4.954133">
        <ele>1672.0</ele>
        <time>2013-06-30T12:33:06Z</time>
      </trkpt>
      <trkpt lat="40.219033" lon="-4.954250">
        <ele>1671.0</ele>
        <time>2013-06-30T12:33:07Z</time>
      </trkpt>
      <trkpt lat="40.219117" lon="-4.954350">
        <ele>1670.0</ele>
        <time>2013-06-30T12:33:08Z</time>
      </trkpt>
      <trkpt lat="40.219217" lon="-4.954450">
        <ele>1669.0</ele>
        <time>2013-06-30T12:33:09Z</time>
      </trkpt>
      <trkpt lat="40.219317" lon="-4.954517">
        <ele>1668.0</ele>
        <time>2013-06-30T12:33:10Z</time>
      </trkpt>
      <trkpt lat="40.219500" lon="-4.954650">
        <ele>1668.0</ele>
        <time>2013-06-30T12:33:12Z</time>
      </trkpt>
      <trkpt lat="40.219583" lon="-4.954717">
        <ele>1669.0</ele>
        <time>2013-06-30T12:33:13Z</time>
      </trkpt>
      <trkpt lat="40.219667" lon="-4.954767">
        <ele>1668.0</ele>
        <time>2013-06-30T12:33:14Z</time>
      </trkpt>
      <trkpt lat="40.219750" lon="-4.954850">
        <ele>1667.0</ele>
        <time>2013-06-30T12:33:15Z</time>
      </trkpt>
      <trkpt lat="40.219833" lon="-4.954917">
        <ele>1666.0</ele>
        <time>2013-06-30T12:33:16Z</time>
      </trkpt>
      <trkpt lat="40.219917" lon="-4.955000">
        <ele>1666.0</ele>
        <time>2013-06-30T12:33:17Z</time>
      </trkpt>
      <trkpt lat="40.220000" lon="-4.955067">
        <ele>1666.0</ele>
        <time>2013-06-30T12:33:18Z</time>
      </trkpt>
      <trkpt lat="40.220083" lon="-4.955133">
        <ele>1665.0</ele>
        <time>2013-06-30T12:33:19Z</time>
      </trkpt>
      <trkpt lat="40.220183" lon="-4.955200">
        <ele>1665.0</ele>
        <time>2013-06-30T12:33:20Z</time>
      </trkpt>
      <trkpt lat="40.220383" lon="-4.955333">
        <ele>1669.0</ele>
        <time>2013-06-30T12:33:23Z</time>
      </trkpt>
      <trkpt lat="40.220450" lon="-4.955350">
        <ele>1669.0</ele>
        <time>2013-06-30T12:33:24Z</time>
      </trkpt>
      <trkpt lat="40.220517" lon="-4.955350">
        <ele>1669.0</ele>
        <time>2013-06-30T12:33:25Z</time>
      </trkpt>
      <trkpt lat="40.220600" lon="-4.955350">
        <ele>1668.0</ele>
        <time>2013-06-30T12:33:26Z</time>
      </trkpt>
      <trkpt lat="40.220683" lon="-4.955350">
        <ele>1668.0</ele>
        <time>2013-06-30T12:33:27Z</time>
      </trkpt>
      <trkpt lat="40.220783" lon="-4.955333">
        <ele>1668.0</ele>
        <time>2013-06-30T12:33:29Z</time>
      </trkpt>
      <trkpt lat="40.220900" lon="-4.955217">
        <ele>1669.0</ele>
        <time>2013-06-30T12:33:32Z</time>
      </trkpt>
      <trkpt lat="40.220933" lon="-4.955150">
        <ele>1669.0</ele>
        <time>2013-06-30T12:33:33Z</time>
      </trkpt>
      <trkpt lat="40.220967" lon="-4.955083">
        <ele>1669.0</ele>
        <time>2013-06-30T12:33:34Z</time>
      </trkpt>
      <trkpt lat="40.220950" lon="-4.955000">
        <ele>1671.0</ele>
        <time>2013-06-30T12:33:35Z</time>
      </trkpt>
      <trkpt lat="40.220933" lon="-4.954917">
        <ele>1671.0</ele>
        <time>2013-06-30T12:33:36Z</time>
      </trkpt>
      <trkpt lat="40.220883" lon="-4.954833">
        <ele>1672.0</ele>
        <time>2013-06-30T12:33:37Z</time>
      </trkpt>
      <trkpt lat="40.220833" lon="-4.954750">
        <ele>1672.0</ele>
        <time>2013-06-30T12:33:38Z</time>
      </trkpt>
      <trkpt lat="40.220767" lon="-4.954683">
        <ele>1672.0</ele>
        <time>2013-06-30T12:33:39Z</time>
      </trkpt>
      <trkpt lat="40.220667" lon="-4.954617">
        <ele>1673.0</ele>
        <time>2013-06-30T12:33:40Z</time>
      </trkpt>
      <trkpt lat="40.220567" lon="-4.954583">
        <ele>1673.0</ele>
        <time>2013-06-30T12:33:41Z</time>
      </trkpt>
      <trkpt lat="40.220467" lon="-4.954583">
        <ele>1673.0</ele>
        <time>2013-06-30T12:33:42Z</time>
      </trkpt>
      <trkpt lat="40.220367" lon="-4.954583">
        <ele>1673.0</ele>
        <time>2013-06-30T12:33:43Z</time>
      </trkpt>
      <trkpt lat="40.220250" lon="-4.954617">
        <ele>1672.0</ele>
        <time>2013-06-30T12:33:44Z</time>
      </trkpt>
      <trkpt lat="40.220150" lon="-4.954650">
        <ele>1670.0</ele>
        <time>2013-06-30T12:33:45Z</time>
      </trkpt>
      <trkpt lat="40.220067" lon="-4.954717">
        <ele>1668.0</ele>
        <time>2013-06-30T12:33:46Z</time>
      </trkpt>
      <trkpt lat="40.219967" lon="-4.954783">
        <ele>1666.0</ele>
        <time>2013-06-30T12:33:47Z</time>
      </trkpt>
      <trkpt lat="40.219867" lon="-4.954867">
        <ele>1664.0</ele>
        <time>2013-06-30T12:33:48Z</time>
      </trkpt>
      <trkpt lat="40.219800" lon="-4.954950">
        <ele>1662.0</ele>
        <time>2013-06-30T12:33:49Z</time>
      </trkpt>
      <trkpt lat="40.219733" lon="-4.955067">
        <ele>1660.0</ele>
        <time>2013-06-30T12:33:50Z</time>
      </trkpt>
      <trkpt lat="40.219700" lon="-4.955183">
        <ele>1658.0</ele>
        <time>2013-06-30T12:33:51Z</time>
      </trkpt>
      <trkpt lat="40.219650" lon="-4.955283">
        <ele>1657.0</ele>
        <time>2013-06-30T12:33:52Z</time>
      </trkpt>
      <trkpt lat="40.219617" lon="-4.955400">
        <ele>1655.0</ele>
        <time>2013-06-30T12:33:53Z</time>
      </trkpt>
      <trkpt lat="40.219583" lon="-4.955533">
        <ele>1654.0</ele>
        <time>2013-06-30T12:33:54Z</time>
      </trkpt>
      <trkpt lat="40.219550" lon="-4.955650">
        <ele>1652.0</ele>
        <time>2013-06-30T12:33:55Z</time>
      </trkpt>
      <trkpt lat="40.219517" lon="-4.955800">
        <ele>1650.0</ele>
        <time>2013-06-30T12:33:56Z</time>
      </trkpt>
      <trkpt lat="40.219483" lon="-4.955950">
        <ele>1650.0</ele>
        <time>2013-06-30T12:33:57Z</time>
      </trkpt>
      <trkpt lat="40.219467" lon="-4.956083">
        <ele>1650.0</ele>
        <time>2013-06-30T12:33:58Z</time>
      </trkpt>
      <trkpt lat="40.219467" lon="-4.956217">
        <ele>1651.0</ele>
        <time>2013-06-30T12:33:59Z</time>
      </trkpt>
      <trkpt lat="40.219467" lon="-4.956350">
        <ele>1651.0</ele>
        <time>2013-06-30T12:34:00Z</time>
      </trkpt>
      <trkpt lat="40.219467" lon="-4.956483">
        <ele>1651.0</ele>
        <time>2013-06-30T12:34:01Z</time>
      </trkpt>
      <trkpt lat="40.219483" lon="-4.956617">
        <ele>1651.0</ele>
        <time>2013-06-30T12:34:02Z</time>
      </trkpt>
      <trkpt lat="40.219483" lon="-4.956750">
        <ele>1651.0</ele>
        <time>2013-06-30T12:34:03Z</time>
      </trkpt>
      <trkpt lat="40.219483" lon="-4.956883">
        <ele>1650.0</ele>
        <time>2013-06-30T12:34:04Z</time>
      </trkpt>
      <trkpt lat="40.219483" lon="-4.957017">
        <ele>1650.0</ele>
        <time>2013-06-30T12:34:05Z</time>
      </trkpt>
      <trkpt lat="40.219500" lon="-4.957150">
        <ele>1649.0</ele>
        <time>2013-06-30T12:34:06Z</time>
      </trkpt>
      <trkpt lat="40.219500" lon="-4.957300">
        <ele>1649.0</ele>
        <time>2013-06-30T12:34:07Z</time>
      </trkpt>
      <trkpt lat="40.219517" lon="-4.957433">
        <ele>1648.0</ele>
        <time>2013-06-30T12:34:08Z</time>
      </trkpt>
      <trkpt lat="40.219517" lon="-4.957583">
        <ele>1647.0</ele>
        <time>2013-06-30T12:34:09Z</time>
      </trkpt>
      <trkpt lat="40.219533" lon="-4.957717">
        <ele>1646.0</ele>
        <time>2013-06-30T12:34:10Z</time>
      </trkpt>
      <trkpt lat="40.219533" lon="-4.957867">
        <ele>1645.0</ele>
        <time>2013-06-30T12:34:11Z</time>
      </trkpt>
      <trkpt lat="40.219550" lon="-4.958033">
        <ele>1644.0</ele>
        <time>2013-06-30T12:34:12Z</time>
      </trkpt>
      <trkpt lat="40.219567" lon="-4.958183">
        <ele>1643.0</ele>
        <time>2013-06-30T12:34:13Z</time>
      </trkpt>
      <trkpt lat="40.219567" lon="-4.958317">
        <ele>1643.0</ele>
        <time>2013-06-30T12:34:14Z</time>
      </trkpt>
      <trkpt lat="40.219567" lon="-4.958467">
        <ele>1643.0</ele>
        <time>2013-06-30T12:34:15Z</time>
      </trkpt>
      <trkpt lat="40.219567" lon="-4.958600">
        <ele>1643.0</ele>
        <time>2013-06-30T12:34:16Z</time>
      </trkpt>
      <trkpt lat="40.219567" lon="-4.958750">
        <ele>1642.0</ele>
        <time>2013-06-30T12:34:17Z</time>
      </trkpt>
      <trkpt lat="40.219550" lon="-4.958900">
        <ele>1642.0</ele>
        <time>2013-06-30T12:34:18Z</time>
      </trkpt>
      <trkpt lat="40.219550" lon="-4.959033">
        <ele>1641.0</ele>
        <time>2013-06-30T12:34:19Z</time>
      </trkpt>
      <trkpt lat="40.219533" lon="-4.959167">
        <ele>1641.0</ele>
        <time>2013-06-30T12:34:20Z</time>
      </trkpt>
      <trkpt lat="40.219533" lon="-4.959317">
        <ele>1641.0</ele>
        <time>2013-06-30T12:34:21Z</time>
      </trkpt>
      <trkpt lat="40.219533" lon="-4.959450">
        <ele>1641.0</ele>
        <time>2013-06-30T12:34:22Z</time>
      </trkpt>
      <trkpt lat="40.219533" lon="-4.959600">
        <ele>1641.0</ele>
        <time>2013-06-30T12:34:23Z</time>
      </trkpt>
      <trkpt lat="40.219533" lon="-4.959733">
        <ele>1640.0</ele>
        <time>2013-06-30T12:34:24Z</time>
      </trkpt>
      <trkpt lat="40.219533" lon="-4.959883">
        <ele>1640.0</ele>
        <time>2013-06-30T12:34:25Z</time>
      </trkpt>
      <trkpt lat="40.219533" lon="-4.960033">
        <ele>1640.0</ele>
        <time>2013-06-30T12:34:26Z</time>
      </trkpt>
      <trkpt lat="40.219533" lon="-4.960167">
        <ele>1640.0</ele>
        <time>2013-06-30T12:34:27Z</time>
      </trkpt>
      <trkpt lat="40.219533" lon="-4.960317">
        <ele>1640.0</ele>
        <time>2013-06-30T12:34:28Z</time>
      </trkpt>
      <trkpt lat="40.219533" lon="-4.960433">
        <ele>1640.0</ele>
        <time>2013-06-30T12:34:29Z</time>
      </trkpt>
      <trkpt lat="40.219550" lon="-4.960567">
        <ele>1640.0</ele>
        <time>2013-06-30T12:34:30Z</time>
      </trkpt>
      <trkpt lat="40.219533" lon="-4.960683">
        <ele>1640.0</ele>
        <time>2013-06-30T12:34:31Z</time>
      </trkpt>
      <trkpt lat="40.219517" lon="-4.960817">
        <ele>1640.0</ele>
        <time>2013-06-30T12:34:32Z</time>
      </trkpt>
      <trkpt lat="40.219483" lon="-4.960967">
        <ele>1639.0</ele>
        <time>2013-06-30T12:34:33Z</time>
      </trkpt>
      <trkpt lat="40.219467" lon="-4.961100">
        <ele>1639.0</ele>
        <time>2013-06-30T12:34:34Z</time>
      </trkpt>
      <trkpt lat="40.219433" lon="-4.961217">
        <ele>1640.0</ele>
        <time>2013-06-30T12:34:35Z</time>
      </trkpt>
      <trkpt lat="40.219400" lon="-4.961350">
        <ele>1640.0</ele>
        <time>2013-06-30T12:34:36Z</time>
      </trkpt>
      <trkpt lat="40.219383" lon="-4.961467">
        <ele>1641.0</ele>
        <time>2013-06-30T12:34:37Z</time>
      </trkpt>
      <trkpt lat="40.219350" lon="-4.961600">
        <ele>1642.0</ele>
        <time>2013-06-30T12:34:38Z</time>
      </trkpt>
      <trkpt lat="40.219317" lon="-4.961733">
        <ele>1643.0</ele>
        <time>2013-06-30T12:34:39Z</time>
      </trkpt>
      <trkpt lat="40.219283" lon="-4.961867">
        <ele>1645.0</ele>
        <time>2013-06-30T12:34:40Z</time>
      </trkpt>
      <trkpt lat="40.219250" lon="-4.962000">
        <ele>1646.0</ele>
        <time>2013-06-30T12:34:41Z</time>
      </trkpt>
      <trkpt lat="40.219217" lon="-4.962117">
        <ele>1648.0</ele>
        <time>2013-06-30T12:34:42Z</time>
      </trkpt>
      <trkpt lat="40.219183" lon="-4.962250">
        <ele>1650.0</ele>
        <time>2013-06-30T12:34:43Z</time>
      </trkpt>
      <trkpt lat="40.219167" lon="-4.962367">
        <ele>1652.0</ele>
        <time>2013-06-30T12:34:44Z</time>
      </trkpt>
      <trkpt lat="40.219150" lon="-4.962467">
        <ele>1654.0</ele>
        <time>2013-06-30T12:34:45Z</time>
      </trkpt>
      <trkpt lat="40.219117" lon="-4.962567">
        <ele>1655.0</ele>
        <time>2013-06-30T12:34:46Z</time>
      </trkpt>
      <trkpt lat="40.219083" lon="-4.962683">
        <ele>1656.0</ele>
        <time>2013-06-30T12:34:47Z</time>
      </trkpt>
      <trkpt lat="40.219050" lon="-4.962800">
        <ele>1656.0</ele>
        <time>2013-06-30T12:34:48Z</time>
      </trkpt>
      <trkpt lat="40.219017" lon="-4.962917">
        <ele>1657.0</ele>
        <time>2013-06-30T12:34:49Z</time>
      </trkpt>
      <trkpt lat="40.219000" lon="-4.963050">
        <ele>1658.0</ele>
        <time>2013-06-30T12:34:50Z</time>
      </trkpt>
      <trkpt lat="40.219033" lon="-4.963183">
        <ele>1658.0</ele>
        <time>2013-06-30T12:34:51Z</time>
      </trkpt>
      <trkpt lat="40.219067" lon="-4.963317">
        <ele>1658.0</ele>
        <time>2013-06-30T12:34:52Z</time>
      </trkpt>
      <trkpt lat="40.219133" lon="-4.963450">
        <ele>1659.0</ele>
        <time>2013-06-30T12:34:53Z</time>
      </trkpt>
      <trkpt lat="40.219217" lon="-4.963567">
        <ele>1659.0</ele>
        <time>2013-06-30T12:34:54Z</time>
      </trkpt>
      <trkpt lat="40.219300" lon="-4.963633">
        <ele>1661.0</ele>
        <time>2013-06-30T12:34:55Z</time>
      </trkpt>
      <trkpt lat="40.219383" lon="-4.963700">
        <ele>1661.0</ele>
        <time>2013-06-30T12:34:56Z</time>
      </trkpt>
      <trkpt lat="40.219467" lon="-4.963750">
        <ele>1661.0</ele>
        <time>2013-06-30T12:34:57Z</time>
      </trkpt>
      <trkpt lat="40.219567" lon="-4.963800">
        <ele>1660.0</ele>
        <time>2013-06-30T12:34:58Z</time>
      </trkpt>
      <trkpt lat="40.219683" lon="-4.963833">
        <ele>1658.0</ele>
        <time>2013-06-30T12:34:59Z</time>
      </trkpt>
      <trkpt lat="40.219817" lon="-4.963833">
        <ele>1657.0</ele>
        <time>2013-06-30T12:35:00Z</time>
      </trkpt>
      <trkpt lat="40.219933" lon="-4.963800">
        <ele>1658.0</ele>
        <time>2013-06-30T12:35:01Z</time>
      </trkpt>
      <trkpt lat="40.220017" lon="-4.963750">
        <ele>1660.0</ele>
        <time>2013-06-30T12:35:02Z</time>
      </trkpt>
      <trkpt lat="40.220100" lon="-4.963717">
        <ele>1663.0</ele>
        <time>2013-06-30T12:35:03Z</time>
      </trkpt>
      <trkpt lat="40.220167" lon="-4.963683">
        <ele>1666.0</ele>
        <time>2013-06-30T12:35:04Z</time>
      </trkpt>
      <trkpt lat="40.220233" lon="-4.963633">
        <ele>1667.0</ele>
        <time>2013-06-30T12:35:05Z</time>
      </trkpt>
      <trkpt lat="40.220383" lon="-4.963533">
        <ele>1666.0</ele>
        <time>2013-06-30T12:35:07Z</time>
      </trkpt>
      <trkpt lat="40.220450" lon="-4.963467">
        <ele>1666.0</ele>
        <time>2013-06-30T12:35:08Z</time>
      </trkpt>
      <trkpt lat="40.220533" lon="-4.963333">
        <ele>1665.0</ele>
        <time>2013-06-30T12:35:10Z</time>
      </trkpt>
      <trkpt lat="40.220567" lon="-4.963250">
        <ele>1664.0</ele>
        <time>2013-06-30T12:35:11Z</time>
      </trkpt>
      <trkpt lat="40.220600" lon="-4.963167">
        <ele>1662.0</ele>
        <time>2013-06-30T12:35:12Z</time>
      </trkpt>
      <trkpt lat="40.220617" lon="-4.963083">
        <ele>1661.0</ele>
        <time>2013-06-30T12:35:13Z</time>
      </trkpt>
      <trkpt lat="40.220617" lon="-4.963000">
        <ele>1660.0</ele>
        <time>2013-06-30T12:35:14Z</time>
      </trkpt>
      <trkpt lat="40.220617" lon="-4.962933">
        <ele>1660.0</ele>
        <time>2013-06-30T12:35:15Z</time>
      </trkpt>
      <trkpt lat="40.220600" lon="-4.962867">
        <ele>1661.0</ele>
        <time>2013-06-30T12:35:16Z</time>
      </trkpt>
      <trkpt lat="40.220583" lon="-4.962817">
        <ele>1662.0</ele>
        <time>2013-06-30T12:35:17Z</time>
      </trkpt>
      <trkpt lat="40.220583" lon="-4.962767">
        <ele>1663.0</ele>
        <time>2013-06-30T12:35:18Z</time>
      </trkpt>
      <trkpt lat="40.220567" lon="-4.962717">
        <ele>1664.0</ele>
        <time>2013-06-30T12:35:19Z</time>
      </trkpt>
      <trkpt lat="40.220550" lon="-4.962667">
        <ele>1665.0</ele>
        <time>2013-06-30T12:35:20Z</time>
      </trkpt>
      <trkpt lat="40.220533" lon="-4.962617">
        <ele>1666.0</ele>
        <time>2013-06-30T12:35:21Z</time>
      </trkpt>
      <trkpt lat="40.220517" lon="-4.962583">
        <ele>1667.0</ele>
        <time>2013-06-30T12:35:22Z</time>
      </trkpt>
      <trkpt lat="40.220483" lon="-4.962533">
        <ele>1667.0</ele>
        <time>2013-06-30T12:35:23Z</time>
      </trkpt>
      <trkpt lat="40.220467" lon="-4.962483">
        <ele>1668.0</ele>
        <time>2013-06-30T12:35:24Z</time>
      </trkpt>
      <trkpt lat="40.220450" lon="-4.962450">
        <ele>1668.0</ele>
        <time>2013-06-30T12:35:25Z</time>
      </trkpt>
      <trkpt lat="40.220417" lon="-4.962417">
        <ele>1668.0</ele>
        <time>2013-06-30T12:35:26Z</time>
      </trkpt>
      <trkpt lat="40.220383" lon="-4.962383">
        <ele>1668.0</ele>
        <time>2013-06-30T12:35:27Z</time>
      </trkpt>
      <trkpt lat="40.220333" lon="-4.962367">
        <ele>1667.0</ele>
        <time>2013-06-30T12:35:28Z</time>
      </trkpt>
      <trkpt lat="40.220300" lon="-4.962367">
        <ele>1666.0</ele>
        <time>2013-06-30T12:35:29Z</time>
      </trkpt>
      <trkpt lat="40.220250" lon="-4.962350">
        <ele>1665.0</ele>
        <time>2013-06-30T12:35:30Z</time>
      </trkpt>
      <trkpt lat="40.220200" lon="-4.962350">
        <ele>1665.0</ele>
        <time>2013-06-30T12:35:31Z</time>
      </trkpt>
      <trkpt lat="40.220150" lon="-4.962350">
        <ele>1664.0</ele>
        <time>2013-06-30T12:35:32Z</time>
      </trkpt>
      <trkpt lat="40.220100" lon="-4.962350">
        <ele>1663.0</ele>
        <time>2013-06-30T12:35:33Z</time>
      </trkpt>
      <trkpt lat="40.220050" lon="-4.962350">
        <ele>1663.0</ele>
        <time>2013-06-30T12:35:34Z</time>
      </trkpt>
      <trkpt lat="40.220017" lon="-4.962367">
        <ele>1663.0</ele>
        <time>2013-06-30T12:35:35Z</time>
      </trkpt>
      <trkpt lat="40.219967" lon="-4.962400">
        <ele>1662.0</ele>
        <time>2013-06-30T12:35:36Z</time>
      </trkpt>
      <trkpt lat="40.219900" lon="-4.962450">
        <ele>1660.0</ele>
        <time>2013-06-30T12:35:37Z</time>
      </trkpt>
      <trkpt lat="40.219850" lon="-4.962500">
        <ele>1659.0</ele>
        <time>2013-06-30T12:35:38Z</time>
      </trkpt>
      <trkpt lat="40.219800" lon="-4.962567">
        <ele>1658.0</ele>
        <time>2013-06-30T12:35:39Z</time>
      </trkpt>
      <trkpt lat="40.219750" lon="-4.962633">
        <ele>1658.0</ele>
        <time>2013-06-30T12:35:40Z</time>
      </trkpt>
      <trkpt lat="40.219700" lon="-4.962717">
        <ele>1657.0</ele>
        <time>2013-06-30T12:35:41Z</time>
      </trkpt>
      <trkpt lat="40.219667" lon="-4.962817">
        <ele>1656.0</ele>
        <time>2013-06-30T12:35:42Z</time>
      </trkpt>
      <trkpt lat="40.219633" lon="-4.962933">
        <ele>1655.0</ele>
        <time>2013-06-30T12:35:43Z</time>
      </trkpt>
      <trkpt lat="40.219600" lon="-4.963033">
        <ele>1654.0</ele>
        <time>2013-06-30T12:35:44Z</time>
      </trkpt>
      <trkpt lat="40.219567" lon="-4.963133">
        <ele>1654.0</ele>
        <time>2013-06-30T12:35:45Z</time>
      </trkpt>
      <trkpt lat="40.219533" lon="-4.963250">
        <ele>1654.0</ele>
        <time>2013-06-30T12:35:46Z</time>
      </trkpt>
      <trkpt lat="40.219500" lon="-4.963367">
        <ele>1654.0</ele>
        <time>2013-06-30T12:35:47Z</time>
      </trkpt>
      <trkpt lat="40.219467" lon="-4.963500">
        <ele>1654.0</ele>
        <time>2013-06-30T12:35:48Z</time>
      </trkpt>
      <trkpt lat="40.219433" lon="-4.963617">
        <ele>1654.0</ele>
        <time>2013-06-30T12:35:49Z</time>
      </trkpt>
      <trkpt lat="40.219400" lon="-4.963733">
        <ele>1656.0</ele>
        <time>2013-06-30T12:35:50Z</time>
      </trkpt>
      <trkpt lat="40.219367" lon="-4.963833">
        <ele>1656.0</ele>
        <time>2013-06-30T12:35:51Z</time>
      </trkpt>
      <trkpt lat="40.219350" lon="-4.963950">
        <ele>1657.0</ele>
        <time>2013-06-30T12:35:52Z</time>
      </trkpt>
      <trkpt lat="40.219317" lon="-4.964050">
        <ele>1658.0</ele>
        <time>2013-06-30T12:35:53Z</time>
      </trkpt>
      <trkpt lat="40.219300" lon="-4.964150">
        <ele>1659.0</ele>
        <time>2013-06-30T12:35:54Z</time>
      </trkpt>
      <trkpt lat="40.219267" lon="-4.964250">
        <ele>1659.0</ele>
        <time>2013-06-30T12:35:55Z</time>
      </trkpt>
      <trkpt lat="40.219233" lon="-4.964367">
        <ele>1659.0</ele>
        <time>2013-06-30T12:35:56Z</time>
      </trkpt>
      <trkpt lat="40.219200" lon="-4.964467">
        <ele>1660.0</ele>
        <time>2013-06-30T12:35:57Z</time>
      </trkpt>
      <trkpt lat="40.219167" lon="-4.964583">
        <ele>1660.0</ele>
        <time>2013-06-30T12:35:58Z</time>
      </trkpt>
      <trkpt lat="40.219133" lon="-4.964717">
        <ele>1660.0</ele>
        <time>2013-06-30T12:35:59Z</time>
      </trkpt>
      <trkpt lat="40.219100" lon="-4.964817">
        <ele>1660.0</ele>
        <time>2013-06-30T12:36:00Z</time>
      </trkpt>
      <trkpt lat="40.219067" lon="-4.964933">
        <ele>1663.0</ele>
        <time>2013-06-30T12:36:01Z</time>
      </trkpt>
      <trkpt lat="40.219033" lon="-4.965017">
        <ele>1664.0</ele>
        <time>2013-06-30T12:36:02Z</time>
      </trkpt>
      <trkpt lat="40.219000" lon="-4.965117">
        <ele>1666.0</ele>
        <time>2013-06-30T12:36:03Z</time>
      </trkpt>
      <trkpt lat="40.218967" lon="-4.965217">
        <ele>1667.0</ele>
        <time>2013-06-30T12:36:04Z</time>
      </trkpt>
      <trkpt lat="40.218917" lon="-4.965317">
        <ele>1668.0</ele>
        <time>2013-06-30T12:36:05Z</time>
      </trkpt>
      <trkpt lat="40.218883" lon="-4.965433">
        <ele>1670.0</ele>
        <time>2013-06-30T12:36:06Z</time>
      </trkpt>
      <trkpt lat="40.218833" lon="-4.965517">
        <ele>1672.0</ele>
        <time>2013-06-30T12:36:07Z</time>
      </trkpt>
      <trkpt lat="40.218783" lon="-4.965633">
        <ele>1674.0</ele>
        <time>2013-06-30T12:36:08Z</time>
      </trkpt>
      <trkpt lat="40.218750" lon="-4.965733">
        <ele>1676.0</ele>
        <time>2013-06-30T12:36:09Z</time>
      </trkpt>
      <trkpt lat="40.218700" lon="-4.965867">
        <ele>1678.0</ele>
        <time>2013-06-30T12:36:10Z</time>
      </trkpt>
      <trkpt lat="40.218667" lon="-4.966000">
        <ele>1679.0</ele>
        <time>2013-06-30T12:36:11Z</time>
      </trkpt>
      <trkpt lat="40.218633" lon="-4.966117">
        <ele>1681.0</ele>
        <time>2013-06-30T12:36:12Z</time>
      </trkpt>
      <trkpt lat="40.218600" lon="-4.966250">
        <ele>1682.0</ele>
        <time>2013-06-30T12:36:13Z</time>
      </trkpt>
      <trkpt lat="40.218550" lon="-4.966383">
        <ele>1683.0</ele>
        <time>2013-06-30T12:36:14Z</time>
      </trkpt>
      <trkpt lat="40.218517" lon="-4.966517">
        <ele>1685.0</ele>
        <time>2013-06-30T12:36:15Z</time>
      </trkpt>
      <trkpt lat="40.218483" lon="-4.966650">
        <ele>1686.0</ele>
        <time>2013-06-30T12:36:16Z</time>
      </trkpt>
      <trkpt lat="40.218433" lon="-4.966783">
        <ele>1687.0</ele>
        <time>2013-06-30T12:36:17Z</time>
      </trkpt>
      <trkpt lat="40.218383" lon="-4.966933">
        <ele>1688.0</ele>
        <time>2013-06-30T12:36:18Z</time>
      </trkpt>
      <trkpt lat="40.218350" lon="-4.967083">
        <ele>1690.0</ele>
        <time>2013-06-30T12:36:19Z</time>
      </trkpt>
      <trkpt lat="40.218317" lon="-4.967233">
        <ele>1692.0</ele>
        <time>2013-06-30T12:36:20Z</time>
      </trkpt>
      <trkpt lat="40.218317" lon="-4.967417">
        <ele>1694.0</ele>
        <time>2013-06-30T12:36:21Z</time>
      </trkpt>
      <trkpt lat="40.218350" lon="-4.967583">
        <ele>1696.0</ele>
        <time>2013-06-30T12:36:22Z</time>
      </trkpt>
      <trkpt lat="40.218383" lon="-4.967767">
        <ele>1697.0</ele>
        <time>2013-06-30T12:36:23Z</time>
      </trkpt>
      <trkpt lat="40.218450" lon="-4.967933">
        <ele>1699.0</ele>
        <time>2013-06-30T12:36:24Z</time>
      </trkpt>
      <trkpt lat="40.218533" lon="-4.968067">
        <ele>1701.0</ele>
        <time>2013-06-30T12:36:25Z</time>
      </trkpt>
      <trkpt lat="40.218600" lon="-4.968150">
        <ele>1704.0</ele>
        <time>2013-06-30T12:36:26Z</time>
      </trkpt>
      <trkpt lat="40.218683" lon="-4.968183">
        <ele>1706.0</ele>
        <time>2013-06-30T12:36:27Z</time>
      </trkpt>
      <trkpt lat="40.218750" lon="-4.968200">
        <ele>1707.0</ele>
        <time>2013-06-30T12:36:28Z</time>
      </trkpt>
      <trkpt lat="40.218817" lon="-4.968183">
        <ele>1707.0</ele>
        <time>2013-06-30T12:36:29Z</time>
      </trkpt>
      <trkpt lat="40.218900" lon="-4.968167">
        <ele>1707.0</ele>
        <time>2013-06-30T12:36:30Z</time>
      </trkpt>
      <trkpt lat="40.218950" lon="-4.968117">
        <ele>1707.0</ele>
        <time>2013-06-30T12:36:31Z</time>
      </trkpt>
      <trkpt lat="40.219000" lon="-4.968067">
        <ele>1708.0</ele>
        <time>2013-06-30T12:36:32Z</time>
      </trkpt>
      <trkpt lat="40.219033" lon="-4.968000">
        <ele>1708.0</ele>
        <time>2013-06-30T12:36:33Z</time>
      </trkpt>
      <trkpt lat="40.219050" lon="-4.967933">
        <ele>1708.0</ele>
        <time>2013-06-30T12:36:34Z</time>
      </trkpt>
      <trkpt lat="40.219050" lon="-4.967883">
        <ele>1709.0</ele>
        <time>2013-06-30T12:36:35Z</time>
      </trkpt>
      <trkpt lat="40.219050" lon="-4.967833">
        <ele>1711.0</ele>
        <time>2013-06-30T12:36:36Z</time>
      </trkpt>
      <trkpt lat="40.219033" lon="-4.967783">
        <ele>1713.0</ele>
        <time>2013-06-30T12:36:37Z</time>
      </trkpt>
      <trkpt lat="40.219017" lon="-4.967750">
        <ele>1716.0</ele>
        <time>2013-06-30T12:36:38Z</time>
      </trkpt>
      <trkpt lat="40.218967" lon="-4.967733">
        <ele>1719.0</ele>
        <time>2013-06-30T12:36:39Z</time>
      </trkpt>
      <trkpt lat="40.218933" lon="-4.967733">
        <ele>1720.0</ele>
        <time>2013-06-30T12:36:40Z</time>
      </trkpt>
      <trkpt lat="40.218883" lon="-4.967717">
        <ele>1721.0</ele>
        <time>2013-06-30T12:36:41Z</time>
      </trkpt>
      <trkpt lat="40.218833" lon="-4.967683">
        <ele>1722.0</ele>
        <time>2013-06-30T12:36:42Z</time>
      </trkpt>
      <trkpt lat="40.218783" lon="-4.967683">
        <ele>1723.0</ele>
        <time>2013-06-30T12:36:43Z</time>
      </trkpt>
      <trkpt lat="40.218700" lon="-4.967683">
        <ele>1725.0</ele>
        <time>2013-06-30T12:36:44Z</time>
      </trkpt>
      <trkpt lat="40.218650" lon="-4.967717">
        <ele>1726.0</ele>
        <time>2013-06-30T12:36:45Z</time>
      </trkpt>
      <trkpt lat="40.218583" lon="-4.967767">
        <ele>1728.0</ele>
        <time>2013-06-30T12:36:46Z</time>
      </trkpt>
      <trkpt lat="40.218533" lon="-4.967800">
        <ele>1729.0</ele>
        <time>2013-06-30T12:36:47Z</time>
      </trkpt>
      <trkpt lat="40.218467" lon="-4.967833">
        <ele>1730.0</ele>
        <time>2013-06-30T12:36:48Z</time>
      </trkpt>
      <trkpt lat="40.218400" lon="-4.967867">
        <ele>1730.0</ele>
        <time>2013-06-30T12:36:49Z</time>
      </trkpt>
      <trkpt lat="40.218317" lon="-4.967900">
        <ele>1730.0</ele>
        <time>2013-06-30T12:36:50Z</time>
      </trkpt>
      <trkpt lat="40.218250" lon="-4.967933">
        <ele>1731.0</ele>
        <time>2013-06-30T12:36:51Z</time>
      </trkpt>
      <trkpt lat="40.218183" lon="-4.967967">
        <ele>1733.0</ele>
        <time>2013-06-30T12:36:52Z</time>
      </trkpt>
      <trkpt lat="40.218133" lon="-4.968000">
        <ele>1734.0</ele>
        <time>2013-06-30T12:36:53Z</time>
      </trkpt>
      <trkpt lat="40.218100" lon="-4.968033">
        <ele>1736.0</ele>
        <time>2013-06-30T12:36:54Z</time>
      </trkpt>
      <trkpt lat="40.218050" lon="-4.968050">
        <ele>1738.0</ele>
        <time>2013-06-30T12:36:55Z</time>
      </trkpt>
      <trkpt lat="40.218000" lon="-4.968100">
        <ele>1739.0</ele>
        <time>2013-06-30T12:36:56Z</time>
      </trkpt>
      <trkpt lat="40.217933" lon="-4.968150">
        <ele>1741.0</ele>
        <time>2013-06-30T12:36:57Z</time>
      </trkpt>
      <trkpt lat="40.217867" lon="-4.968217">
        <ele>1742.0</ele>
        <time>2013-06-30T12:36:58Z</time>
      </trkpt>
      <trkpt lat="40.217817" lon="-4.968317">
        <ele>1742.0</ele>
        <time>2013-06-30T12:36:59Z</time>
      </trkpt>
      <trkpt lat="40.217750" lon="-4.968417">
        <ele>1743.0</ele>
        <time>2013-06-30T12:37:00Z</time>
      </trkpt>
      <trkpt lat="40.217717" lon="-4.968550">
        <ele>1744.0</ele>
        <time>2013-06-30T12:37:01Z</time>
      </trkpt>
      <trkpt lat="40.217683" lon="-4.968683">
        <ele>1745.0</ele>
        <time>2013-06-30T12:37:02Z</time>
      </trkpt>
      <trkpt lat="40.217683" lon="-4.968833">
        <ele>1745.0</ele>
        <time>2013-06-30T12:37:03Z</time>
      </trkpt>
      <trkpt lat="40.217700" lon="-4.969000">
        <ele>1744.0</ele>
        <time>2013-06-30T12:37:04Z</time>
      </trkpt>
      <trkpt lat="40.217733" lon="-4.969167">
        <ele>1743.0</ele>
        <time>2013-06-30T12:37:05Z</time>
      </trkpt>
      <trkpt lat="40.217817" lon="-4.969317">
        <ele>1743.0</ele>
        <time>2013-06-30T12:37:06Z</time>
      </trkpt>
      <trkpt lat="40.217900" lon="-4.969417">
        <ele>1743.0</ele>
        <time>2013-06-30T12:37:07Z</time>
      </trkpt>
      <trkpt lat="40.218000" lon="-4.969483">
        <ele>1744.0</ele>
        <time>2013-06-30T12:37:08Z</time>
      </trkpt>
      <trkpt lat="40.218083" lon="-4.969517">
        <ele>1745.0</ele>
        <time>2013-06-30T12:37:09Z</time>
      </trkpt>
      <trkpt lat="40.218167" lon="-4.969517">
        <ele>1746.0</ele>
        <time>2013-06-30T12:37:10Z</time>
      </trkpt>
      <trkpt lat="40.218233" lon="-4.969500">
        <ele>1747.0</ele>
        <time>2013-06-30T12:37:11Z</time>
      </trkpt>
      <trkpt lat="40.218317" lon="-4.969483">
        <ele>1747.0</ele>
        <time>2013-06-30T12:37:12Z</time>
      </trkpt>
      <trkpt lat="40.218383" lon="-4.969450">
        <ele>1748.0</ele>
        <time>2013-06-30T12:37:13Z</time>
      </trkpt>
      <trkpt lat="40.218433" lon="-4.969417">
        <ele>1749.0</ele>
        <time>2013-06-30T12:37:14Z</time>
      </trkpt>
      <trkpt lat="40.218517" lon="-4.969317">
        <ele>1749.0</ele>
        <time>2013-06-30T12:37:16Z</time>
      </trkpt>
      <trkpt lat="40.218550" lon="-4.969250">
        <ele>1748.0</ele>
        <time>2013-06-30T12:37:17Z</time>
      </trkpt>
      <trkpt lat="40.218583" lon="-4.969167">
        <ele>1748.0</ele>
        <time>2013-06-30T12:37:18Z</time>
      </trkpt>
      <trkpt lat="40.218600" lon="-4.969100">
        <ele>1748.0</ele>
        <time>2013-06-30T12:37:19Z</time>
      </trkpt>
      <trkpt lat="40.218600" lon="-4.969033">
        <ele>1749.0</ele>
        <time>2013-06-30T12:37:20Z</time>
      </trkpt>
      <trkpt lat="40.218617" lon="-4.968983">
        <ele>1750.0</ele>
        <time>2013-06-30T12:37:21Z</time>
      </trkpt>
      <trkpt lat="40.218617" lon="-4.968950">
        <ele>1751.0</ele>
        <time>2013-06-30T12:37:22Z</time>
      </trkpt>
      <trkpt lat="40.218617" lon="-4.968933">
        <ele>1752.0</ele>
        <time>2013-06-30T12:37:23Z</time>
      </trkpt>
      <trkpt lat="40.218617" lon="-4.968900">
        <ele>1751.0</ele>
        <time>2013-06-30T12:37:24Z</time>
      </trkpt>
      <trkpt lat="40.218600" lon="-4.968850">
        <ele>1749.0</ele>
        <time>2013-06-30T12:37:25Z</time>
      </trkpt>
      <trkpt lat="40.218600" lon="-4.968800">
        <ele>1746.0</ele>
        <time>2013-06-30T12:37:26Z</time>
      </trkpt>
      <trkpt lat="40.218583" lon="-4.968733">
        <ele>1745.0</ele>
        <time>2013-06-30T12:37:27Z</time>
      </trkpt>
      <trkpt lat="40.218567" lon="-4.968650">
        <ele>1744.0</ele>
        <time>2013-06-30T12:37:28Z</time>
      </trkpt>
      <trkpt lat="40.218550" lon="-4.968583">
        <ele>1745.0</ele>
        <time>2013-06-30T12:37:29Z</time>
      </trkpt>
      <trkpt lat="40.218533" lon="-4.968517">
        <ele>1747.0</ele>
        <time>2013-06-30T12:37:30Z</time>
      </trkpt>
      <trkpt lat="40.218517" lon="-4.968467">
        <ele>1749.0</ele>
        <time>2013-06-30T12:37:31Z</time>
      </trkpt>
      <trkpt lat="40.218500" lon="-4.968400">
        <ele>1750.0</ele>
        <time>2013-06-30T12:37:32Z</time>
      </trkpt>
      <trkpt lat="40.218483" lon="-4.968333">
        <ele>1752.0</ele>
        <time>2013-06-30T12:37:33Z</time>
      </trkpt>
      <trkpt lat="40.218450" lon="-4.968267">
        <ele>1754.0</ele>
        <time>2013-06-30T12:37:34Z</time>
      </trkpt>
      <trkpt lat="40.218433" lon="-4.968217">
        <ele>1756.0</ele>
        <time>2013-06-30T12:37:35Z</time>
      </trkpt>
      <trkpt lat="40.218400" lon="-4.968167">
        <ele>1758.0</ele>
        <time>2013-06-30T12:37:36Z</time>
      </trkpt>
      <trkpt lat="40.218367" lon="-4.968117">
        <ele>1762.0</ele>
        <time>2013-06-30T12:37:37Z</time>
      </trkpt>
      <trkpt lat="40.218317" lon="-4.968083">
        <ele>1765.0</ele>
        <time>2013-06-30T12:37:38Z</time>
      </trkpt>
      <trkpt lat="40.218283" lon="-4.968050">
        <ele>1768.0</ele>
        <time>2013-06-30T12:37:39Z</time>
      </trkpt>
      <trkpt lat="40.218250" lon="-4.968033">
        <ele>1771.0</ele>
        <time>2013-06-30T12:37:40Z</time>
      </trkpt>
      <trkpt lat="40.218217" lon="-4.967983">
        <ele>1774.0</ele>
        <time>2013-06-30T12:37:41Z</time>
      </trkpt>
      <trkpt lat="40.218183" lon="-4.967950">
        <ele>1776.0</ele>
        <time>2013-06-30T12:37:42Z</time>
      </trkpt>
      <trkpt lat="40.218150" lon="-4.967900">
        <ele>1778.0</ele>
        <time>2013-06-30T12:37:43Z</time>
      </trkpt>
      <trkpt lat="40.218117" lon="-4.967867">
        <ele>1780.0</ele>
        <time>2013-06-30T12:37:44Z</time>
      </trkpt>
      <trkpt lat="40.218083" lon="-4.967833">
        <ele>1783.0</ele>
        <time>2013-06-30T12:37:45Z</time>
      </trkpt>
      <trkpt lat="40.218067" lon="-4.967800">
        <ele>1785.0</ele>
        <time>2013-06-30T12:37:46Z</time>
      </trkpt>
      <trkpt lat="40.218033" lon="-4.967767">
        <ele>1786.0</ele>
        <time>2013-06-30T12:37:47Z</time>
      </trkpt>
      <trkpt lat="40.217983" lon="-4.967733">
        <ele>1787.0</ele>
        <time>2013-06-30T12:37:48Z</time>
      </trkpt>
      <trkpt lat="40.217933" lon="-4.967700">
        <ele>1786.0</ele>
        <time>2013-06-30T12:37:49Z</time>
      </trkpt>
      <trkpt lat="40.217867" lon="-4.967667">
        <ele>1786.0</ele>
        <time>2013-06-30T12:37:50Z</time>
      </trkpt>
      <trkpt lat="40.217783" lon="-4.967650">
        <ele>1787.0</ele>
        <time>2013-06-30T12:37:51Z</time>
      </trkpt>
      <trkpt lat="40.217717" lon="-4.967650">
        <ele>1789.0</ele>
        <time>2013-06-30T12:37:52Z</time>
      </trkpt>
      <trkpt lat="40.217633" lon="-4.967683">
        <ele>1790.0</ele>
        <time>2013-06-30T12:37:53Z</time>
      </trkpt>
      <trkpt lat="40.217567" lon="-4.967733">
        <ele>1792.0</ele>
        <time>2013-06-30T12:37:54Z</time>
      </trkpt>
      <trkpt lat="40.217500" lon="-4.967783">
        <ele>1794.0</ele>
        <time>2013-06-30T12:37:55Z</time>
      </trkpt>
      <trkpt lat="40.217450" lon="-4.967850">
        <ele>1796.0</ele>
        <time>2013-06-30T12:37:56Z</time>
      </trkpt>
      <trkpt lat="40.217383" lon="-4.967917">
        <ele>1798.0</ele>
        <time>2013-06-30T12:37:57Z</time>
      </trkpt>
      <trkpt lat="40.217317" lon="-4.968000">
        <ele>1800.0</ele>
        <time>2013-06-30T12:37:58Z</time>
      </trkpt>
      <trkpt lat="40.217267" lon="-4.968100">
        <ele>1801.0</ele>
        <time>2013-06-30T12:37:59Z</time>
      </trkpt>
      <trkpt lat="40.217217" lon="-4.968233">
        <ele>1802.0</ele>
        <time>2013-06-30T12:38:00Z</time>
      </trkpt>
      <trkpt lat="40.217183" lon="-4.968367">
        <ele>1803.0</ele>
        <time>2013-06-30T12:38:01Z</time>
      </trkpt>
      <trkpt lat="40.217167" lon="-4.968500">
        <ele>1805.0</ele>
        <time>2013-06-30T12:38:02Z</time>
      </trkpt>
      <trkpt lat="40.217167" lon="-4.968650">
        <ele>1805.0</ele>
        <time>2013-06-30T12:38:03Z</time>
      </trkpt>
      <trkpt lat="40.217183" lon="-4.968817">
        <ele>1804.0</ele>
        <time>2013-06-30T12:38:04Z</time>
      </trkpt>
      <trkpt lat="40.217200" lon="-4.968967">
        <ele>1803.0</ele>
        <time>2013-06-30T12:38:05Z</time>
      </trkpt>
      <trkpt lat="40.217183" lon="-4.969133">
        <ele>1802.0</ele>
        <time>2013-06-30T12:38:06Z</time>
      </trkpt>
      <trkpt lat="40.217167" lon="-4.969283">
        <ele>1802.0</ele>
        <time>2013-06-30T12:38:07Z</time>
      </trkpt>
      <trkpt lat="40.217117" lon="-4.969417">
        <ele>1801.0</ele>
        <time>2013-06-30T12:38:08Z</time>
      </trkpt>
      <trkpt lat="40.217067" lon="-4.969567">
        <ele>1801.0</ele>
        <time>2013-06-30T12:38:09Z</time>
      </trkpt>
      <trkpt lat="40.217000" lon="-4.969717">
        <ele>1800.0</ele>
        <time>2013-06-30T12:38:10Z</time>
      </trkpt>
      <trkpt lat="40.216950" lon="-4.969833">
        <ele>1800.0</ele>
        <time>2013-06-30T12:38:11Z</time>
      </trkpt>
      <trkpt lat="40.216767" lon="-4.970050">
        <ele>1801.0</ele>
        <time>2013-06-30T12:38:14Z</time>
      </trkpt>
      <trkpt lat="40.216717" lon="-4.970067">
        <ele>1801.0</ele>
        <time>2013-06-30T12:38:15Z</time>
      </trkpt>
      <trkpt lat="40.216667" lon="-4.970067">
        <ele>1801.0</ele>
        <time>2013-06-30T12:38:16Z</time>
      </trkpt>
      <trkpt lat="40.216633" lon="-4.970067">
        <ele>1800.0</ele>
        <time>2013-06-30T12:38:17Z</time>
      </trkpt>
      <trkpt lat="40.216617" lon="-4.970050">
        <ele>1800.0</ele>
        <time>2013-06-30T12:38:18Z</time>
      </trkpt>
      <trkpt lat="40.216583" lon="-4.970017">
        <ele>1801.0</ele>
        <time>2013-06-30T12:38:19Z</time>
      </trkpt>
      <trkpt lat="40.216567" lon="-4.969983">
        <ele>1801.0</ele>
        <time>2013-06-30T12:38:20Z</time>
      </trkpt>
      <trkpt lat="40.216550" lon="-4.969950">
        <ele>1803.0</ele>
        <time>2013-06-30T12:38:21Z</time>
      </trkpt>
      <trkpt lat="40.216517" lon="-4.969917">
        <ele>1804.0</ele>
        <time>2013-06-30T12:38:22Z</time>
      </trkpt>
      <trkpt lat="40.216500" lon="-4.969883">
        <ele>1805.0</ele>
        <time>2013-06-30T12:38:23Z</time>
      </trkpt>
      <trkpt lat="40.216483" lon="-4.969867">
        <ele>1806.0</ele>
        <time>2013-06-30T12:38:24Z</time>
      </trkpt>
      <trkpt lat="40.216467" lon="-4.969833">
        <ele>1808.0</ele>
        <time>2013-06-30T12:38:25Z</time>
      </trkpt>
      <trkpt lat="40.216450" lon="-4.969833">
        <ele>1809.0</ele>
        <time>2013-06-30T12:38:26Z</time>
      </trkpt>
      <trkpt lat="40.216450" lon="-4.969817">
        <ele>1811.0</ele>
        <time>2013-06-30T12:38:27Z</time>
      </trkpt>
      <trkpt lat="40.216433" lon="-4.969783">
        <ele>1812.0</ele>
        <time>2013-06-30T12:38:28Z</time>
      </trkpt>
      <trkpt lat="40.216450" lon="-4.969767">
        <ele>1813.0</ele>
        <time>2013-06-30T12:38:29Z</time>
      </trkpt>
      <trkpt lat="40.216467" lon="-4.969750">
        <ele>1814.0</ele>
        <time>2013-06-30T12:38:30Z</time>
      </trkpt>
      <trkpt lat="40.216483" lon="-4.969717">
        <ele>1815.0</ele>
        <time>2013-06-30T12:38:31Z</time>
      </trkpt>
      <trkpt lat="40.216500" lon="-4.969683">
        <ele>1816.0</ele>
        <time>2013-06-30T12:38:32Z</time>
      </trkpt>
      <trkpt lat="40.216517" lon="-4.969633">
        <ele>1817.0</ele>
        <time>2013-06-30T12:38:33Z</time>
      </trkpt>
      <trkpt lat="40.216533" lon="-4.969583">
        <ele>1819.0</ele>
        <time>2013-06-30T12:38:34Z</time>
      </trkpt>
      <trkpt lat="40.216550" lon="-4.969550">
        <ele>1820.0</ele>
        <time>2013-06-30T12:38:35Z</time>
      </trkpt>
      <trkpt lat="40.216583" lon="-4.969483">
        <ele>1824.0</ele>
        <time>2013-06-30T12:38:37Z</time>
      </trkpt>
      <trkpt lat="40.216600" lon="-4.969433">
        <ele>1825.0</ele>
        <time>2013-06-30T12:38:38Z</time>
      </trkpt>
      <trkpt lat="40.216617" lon="-4.969367">
        <ele>1825.0</ele>
        <time>2013-06-30T12:38:39Z</time>
      </trkpt>
      <trkpt lat="40.216633" lon="-4.969267">
        <ele>1827.0</ele>
        <time>2013-06-30T12:38:41Z</time>
      </trkpt>
      <trkpt lat="40.216650" lon="-4.969217">
        <ele>1828.0</ele>
        <time>2013-06-30T12:38:42Z</time>
      </trkpt>
      <trkpt lat="40.216650" lon="-4.969183">
        <ele>1829.0</ele>
        <time>2013-06-30T12:38:43Z</time>
      </trkpt>
      <trkpt lat="40.216683" lon="-4.969083">
        <ele>1828.0</ele>
        <time>2013-06-30T12:38:45Z</time>
      </trkpt>
      <trkpt lat="40.216700" lon="-4.969017">
        <ele>1828.0</ele>
        <time>2013-06-30T12:38:46Z</time>
      </trkpt>
      <trkpt lat="40.216733" lon="-4.968950">
        <ele>1828.0</ele>
        <time>2013-06-30T12:38:47Z</time>
      </trkpt>
      <trkpt lat="40.216750" lon="-4.968917">
        <ele>1829.0</ele>
        <time>2013-06-30T12:38:48Z</time>
      </trkpt>
      <trkpt lat="40.216783" lon="-4.968883">
        <ele>1831.0</ele>
        <time>2013-06-30T12:38:49Z</time>
      </trkpt>
      <trkpt lat="40.216817" lon="-4.968850">
        <ele>1832.0</ele>
        <time>2013-06-30T12:38:50Z</time>
      </trkpt>
      <trkpt lat="40.216850" lon="-4.968800">
        <ele>1832.0</ele>
        <time>2013-06-30T12:38:51Z</time>
      </trkpt>
      <trkpt lat="40.216867" lon="-4.968733">
        <ele>1832.0</ele>
        <time>2013-06-30T12:38:52Z</time>
      </trkpt>
      <trkpt lat="40.216883" lon="-4.968667">
        <ele>1832.0</ele>
        <time>2013-06-30T12:38:53Z</time>
      </trkpt>
      <trkpt lat="40.216867" lon="-4.968617">
        <ele>1833.0</ele>
        <time>2013-06-30T12:38:54Z</time>
      </trkpt>
      <trkpt lat="40.216850" lon="-4.968600">
        <ele>1834.0</ele>
        <time>2013-06-30T12:38:55Z</time>
      </trkpt>
      <trkpt lat="40.216817" lon="-4.968583">
        <ele>1836.0</ele>
        <time>2013-06-30T12:38:56Z</time>
      </trkpt>
      <trkpt lat="40.216767" lon="-4.968600">
        <ele>1838.0</ele>
        <time>2013-06-30T12:38:57Z</time>
      </trkpt>
      <trkpt lat="40.216733" lon="-4.968617">
        <ele>1839.0</ele>
        <time>2013-06-30T12:38:58Z</time>
      </trkpt>
      <trkpt lat="40.216683" lon="-4.968617">
        <ele>1839.0</ele>
        <time>2013-06-30T12:38:59Z</time>
      </trkpt>
      <trkpt lat="40.216617" lon="-4.968633">
        <ele>1839.0</ele>
        <time>2013-06-30T12:39:00Z</time>
      </trkpt>
      <trkpt lat="40.216550" lon="-4.968700">
        <ele>1839.0</ele>
        <time>2013-06-30T12:39:01Z</time>
      </trkpt>
      <trkpt lat="40.216483" lon="-4.968783">
        <ele>1840.0</ele>
        <time>2013-06-30T12:39:02Z</time>
      </trkpt>
      <trkpt lat="40.216433" lon="-4.968883">
        <ele>1841.0</ele>
        <time>2013-06-30T12:39:03Z</time>
      </trkpt>
      <trkpt lat="40.216383" lon="-4.968983">
        <ele>1842.0</ele>
        <time>2013-06-30T12:39:04Z</time>
      </trkpt>
      <trkpt lat="40.216350" lon="-4.969083">
        <ele>1843.0</ele>
        <time>2013-06-30T12:39:05Z</time>
      </trkpt>
      <trkpt lat="40.216317" lon="-4.969217">
        <ele>1843.0</ele>
        <time>2013-06-30T12:39:06Z</time>
      </trkpt>
      <trkpt lat="40.216283" lon="-4.969383">
        <ele>1842.0</ele>
        <time>2013-06-30T12:39:07Z</time>
      </trkpt>
      <trkpt lat="40.216267" lon="-4.969550">
        <ele>1841.0</ele>
        <time>2013-06-30T12:39:08Z</time>
      </trkpt>
      <trkpt lat="40.216250" lon="-4.969733">
        <ele>1841.0</ele>
        <time>2013-06-30T12:39:09Z</time>
      </trkpt>
      <trkpt lat="40.216250" lon="-4.969900">
        <ele>1842.0</ele>
        <time>2013-06-30T12:39:10Z</time>
      </trkpt>
      <trkpt lat="40.216283" lon="-4.970067">
        <ele>1843.0</ele>
        <time>2013-06-30T12:39:11Z</time>
      </trkpt>
      <trkpt lat="40.216317" lon="-4.970217">
        <ele>1845.0</ele>
        <time>2013-06-30T12:39:12Z</time>
      </trkpt>
      <trkpt lat="40.216383" lon="-4.970367">
        <ele>1846.0</ele>
        <time>2013-06-30T12:39:13Z</time>
      </trkpt>
      <trkpt lat="40.216467" lon="-4.970483">
        <ele>1846.0</ele>
        <time>2013-06-30T12:39:14Z</time>
      </trkpt>
      <trkpt lat="40.216567" lon="-4.970583">
        <ele>1846.0</ele>
        <time>2013-06-30T12:39:15Z</time>
      </trkpt>
      <trkpt lat="40.216767" lon="-4.970667">
        <ele>1849.0</ele>
        <time>2013-06-30T12:39:17Z</time>
      </trkpt>
      <trkpt lat="40.216850" lon="-4.970667">
        <ele>1850.0</ele>
        <time>2013-06-30T12:39:18Z</time>
      </trkpt>
      <trkpt lat="40.216933" lon="-4.970667">
        <ele>1851.0</ele>
        <time>2013-06-30T12:39:19Z</time>
      </trkpt>
      <trkpt lat="40.217000" lon="-4.970633">
        <ele>1851.0</ele>
        <time>2013-06-30T12:39:20Z</time>
      </trkpt>
      <trkpt lat="40.217067" lon="-4.970600">
        <ele>1852.0</ele>
        <time>2013-06-30T12:39:21Z</time>
      </trkpt>
      <trkpt lat="40.217117" lon="-4.970550">
        <ele>1853.0</ele>
        <time>2013-06-30T12:39:22Z</time>
      </trkpt>
      <trkpt lat="40.217150" lon="-4.970517">
        <ele>1854.0</ele>
        <time>2013-06-30T12:39:23Z</time>
      </trkpt>
      <trkpt lat="40.217167" lon="-4.970467">
        <ele>1854.0</ele>
        <time>2013-06-30T12:39:24Z</time>
      </trkpt>
      <trkpt lat="40.217200" lon="-4.970400">
        <ele>1855.0</ele>
        <time>2013-06-30T12:39:25Z</time>
      </trkpt>
      <trkpt lat="40.217233" lon="-4.970333">
        <ele>1855.0</ele>
        <time>2013-06-30T12:39:26Z</time>
      </trkpt>
      <trkpt lat="40.217250" lon="-4.970267">
        <ele>1855.0</ele>
        <time>2013-06-30T12:39:27Z</time>
      </trkpt>
      <trkpt lat="40.217283" lon="-4.970200">
        <ele>1855.0</ele>
        <time>2013-06-30T12:39:28Z</time>
      </trkpt>
      <trkpt lat="40.217283" lon="-4.970133">
        <ele>1855.0</ele>
        <time>2013-06-30T12:39:29Z</time>
      </trkpt>
      <trkpt lat="40.217283" lon="-4.970067">
        <ele>1855.0</ele>
        <time>2013-06-30T12:39:30Z</time>
      </trkpt>
      <trkpt lat="40.217300" lon="-4.970000">
        <ele>1856.0</ele>
        <time>2013-06-30T12:39:31Z</time>
      </trkpt>
      <trkpt lat="40.217300" lon="-4.969917">
        <ele>1857.0</ele>
        <time>2013-06-30T12:39:32Z</time>
      </trkpt>
      <trkpt lat="40.217333" lon="-4.969850">
        <ele>1859.0</ele>
        <time>2013-06-30T12:39:33Z</time>
      </trkpt>
      <trkpt lat="40.217333" lon="-4.969783">
        <ele>1861.0</ele>
        <time>2013-06-30T12:39:34Z</time>
      </trkpt>
      <trkpt lat="40.217350" lon="-4.969717">
        <ele>1863.0</ele>
        <time>2013-06-30T12:39:35Z</time>
      </trkpt>
      <trkpt lat="40.217350" lon="-4.969650">
        <ele>1866.0</ele>
        <time>2013-06-30T12:39:36Z</time>
      </trkpt>
      <trkpt lat="40.217367" lon="-4.969583">
        <ele>1869.0</ele>
        <time>2013-06-30T12:39:37Z</time>
      </trkpt>
      <trkpt lat="40.217383" lon="-4.969517">
        <ele>1872.0</ele>
        <time>2013-06-30T12:39:38Z</time>
      </trkpt>
      <trkpt lat="40.217400" lon="-4.969467">
        <ele>1876.0</ele>
        <time>2013-06-30T12:39:39Z</time>
      </trkpt>
      <trkpt lat="40.217417" lon="-4.969400">
        <ele>1880.0</ele>
        <time>2013-06-30T12:39:40Z</time>
      </trkpt>
      <trkpt lat="40.217433" lon="-4.969333">
        <ele>1883.0</ele>
        <time>2013-06-30T12:39:41Z</time>
      </trkpt>
      <trkpt lat="40.217450" lon="-4.969267">
        <ele>1886.0</ele>
        <time>2013-06-30T12:39:42Z</time>
      </trkpt>
      <trkpt lat="40.217450" lon="-4.969200">
        <ele>1889.0</ele>
        <time>2013-06-30T12:39:43Z</time>
      </trkpt>
      <trkpt lat="40.217467" lon="-4.969133">
        <ele>1891.0</ele>
        <time>2013-06-30T12:39:44Z</time>
      </trkpt>
      <trkpt lat="40.217467" lon="-4.969050">
        <ele>1893.0</ele>
        <time>2013-06-30T12:39:45Z</time>
      </trkpt>
      <trkpt lat="40.217483" lon="-4.968967">
        <ele>1895.0</ele>
        <time>2013-06-30T12:39:46Z</time>
      </trkpt>
      <trkpt lat="40.217500" lon="-4.968900">
        <ele>1897.0</ele>
        <time>2013-06-30T12:39:47Z</time>
      </trkpt>
      <trkpt lat="40.217517" lon="-4.968833">
        <ele>1900.0</ele>
        <time>2013-06-30T12:39:48Z</time>
      </trkpt>
      <trkpt lat="40.217517" lon="-4.968767">
        <ele>1903.0</ele>
        <time>2013-06-30T12:39:49Z</time>
      </trkpt>
      <trkpt lat="40.217517" lon="-4.968733">
        <ele>1907.0</ele>
        <time>2013-06-30T12:39:50Z</time>
      </trkpt>
      <trkpt lat="40.217517" lon="-4.968683">
        <ele>1911.0</ele>
        <time>2013-06-30T12:39:51Z</time>
      </trkpt>
      <trkpt lat="40.217517" lon="-4.968633">
        <ele>1915.0</ele>
        <time>2013-06-30T12:39:52Z</time>
      </trkpt>
      <trkpt lat="40.217533" lon="-4.968583">
        <ele>1918.0</ele>
        <time>2013-06-30T12:39:53Z</time>
      </trkpt>
      <trkpt lat="40.217550" lon="-4.968533">
        <ele>1922.0</ele>
        <time>2013-06-30T12:39:54Z</time>
      </trkpt>
      <trkpt lat="40.217567" lon="-4.968467">
        <ele>1924.0</ele>
        <time>2013-06-30T12:39:55Z</time>
      </trkpt>
      <trkpt lat="40.217583" lon="-4.968233">
        <ele>1926.0</ele>
        <time>2013-06-30T12:39:58Z</time>
      </trkpt>
      <trkpt lat="40.217617" lon="-4.968150">
        <ele>1926.0</ele>
        <time>2013-06-30T12:39:59Z</time>
      </trkpt>
      <trkpt lat="40.217667" lon="-4.968067">
        <ele>1927.0</ele>
        <time>2013-06-30T12:40:00Z</time>
      </trkpt>
      <trkpt lat="40.217700" lon="-4.967983">
        <ele>1927.0</ele>
        <time>2013-06-30T12:40:01Z</time>
      </trkpt>
      <trkpt lat="40.217750" lon="-4.967900">
        <ele>1928.0</ele>
        <time>2013-06-30T12:40:02Z</time>
      </trkpt>
      <trkpt lat="40.217800" lon="-4.967800">
        <ele>1928.0</ele>
        <time>2013-06-30T12:40:03Z</time>
      </trkpt>
      <trkpt lat="40.217850" lon="-4.967717">
        <ele>1928.0</ele>
        <time>2013-06-30T12:40:04Z</time>
      </trkpt>
      <trkpt lat="40.217900" lon="-4.967633">
        <ele>1928.0</ele>
        <time>2013-06-30T12:40:05Z</time>
      </trkpt>
      <trkpt lat="40.217967" lon="-4.967550">
        <ele>1927.0</ele>
        <time>2013-06-30T12:40:06Z</time>
      </trkpt>
      <trkpt lat="40.218000" lon="-4.967467">
        <ele>1928.0</ele>
        <time>2013-06-30T12:40:07Z</time>
      </trkpt>
      <trkpt lat="40.218033" lon="-4.967383">
        <ele>1928.0</ele>
        <time>2013-06-30T12:40:08Z</time>
      </trkpt>
      <trkpt lat="40.218033" lon="-4.967317">
        <ele>1929.0</ele>
        <time>2013-06-30T12:40:09Z</time>
      </trkpt>
      <trkpt lat="40.218033" lon="-4.967233">
        <ele>1929.0</ele>
        <time>2013-06-30T12:40:10Z</time>
      </trkpt>
      <trkpt lat="40.218017" lon="-4.967150">
        <ele>1930.0</ele>
        <time>2013-06-30T12:40:11Z</time>
      </trkpt>
      <trkpt lat="40.217967" lon="-4.967083">
        <ele>1931.0</ele>
        <time>2013-06-30T12:40:12Z</time>
      </trkpt>
      <trkpt lat="40.217917" lon="-4.967050">
        <ele>1932.0</ele>
        <time>2013-06-30T12:40:13Z</time>
      </trkpt>
      <trkpt lat="40.217867" lon="-4.967050">
        <ele>1933.0</ele>
        <time>2013-06-30T12:40:14Z</time>
      </trkpt>
      <trkpt lat="40.217817" lon="-4.967083">
        <ele>1935.0</ele>
        <time>2013-06-30T12:40:15Z</time>
      </trkpt>
      <trkpt lat="40.217783" lon="-4.967133">
        <ele>1936.0</ele>
        <time>2013-06-30T12:40:16Z</time>
      </trkpt>
      <trkpt lat="40.217750" lon="-4.967183">
        <ele>1937.0</ele>
        <time>2013-06-30T12:40:17Z</time>
      </trkpt>
      <trkpt lat="40.217700" lon="-4.967250">
        <ele>1938.0</ele>
        <time>2013-06-30T12:40:18Z</time>
      </trkpt>
      <trkpt lat="40.217633" lon="-4.967317">
        <ele>1938.0</ele>
        <time>2013-06-30T12:40:19Z</time>
      </trkpt>
      <trkpt lat="40.217583" lon="-4.967417">
        <ele>1938.0</ele>
        <time>2013-06-30T12:40:20Z</time>
      </trkpt>
      <trkpt lat="40.217550" lon="-4.967533">
        <ele>1938.0</ele>
        <time>2013-06-30T12:40:21Z</time>
      </trkpt>
      <trkpt lat="40.217533" lon="-4.967650">
        <ele>1938.0</ele>
        <time>2013-06-30T12:40:22Z</time>
      </trkpt>
      <trkpt lat="40.217517" lon="-4.967767">
        <ele>1938.0</ele>
        <time>2013-06-30T12:40:23Z</time>
      </trkpt>
      <trkpt lat="40.217517" lon="-4.967883">
        <ele>1939.0</ele>
        <time>2013-06-30T12:40:24Z</time>
      </trkpt>
      <trkpt lat="40.217517" lon="-4.968000">
        <ele>1939.0</ele>
        <time>2013-06-30T12:40:25Z</time>
      </trkpt>
      <trkpt lat="40.217517" lon="-4.968117">
        <ele>1939.0</ele>
        <time>2013-06-30T12:40:26Z</time>
      </trkpt>
      <trkpt lat="40.217500" lon="-4.968233">
        <ele>1939.0</ele>
        <time>2013-06-30T12:40:27Z</time>
      </trkpt>
      <trkpt lat="40.217500" lon="-4.968367">
        <ele>1939.0</ele>
        <time>2013-06-30T12:40:28Z</time>
      </trkpt>
      <trkpt lat="40.217500" lon="-4.968483">
        <ele>1940.0</ele>
        <time>2013-06-30T12:40:29Z</time>
      </trkpt>
      <trkpt lat="40.217483" lon="-4.968583">
        <ele>1940.0</ele>
        <time>2013-06-30T12:40:30Z</time>
      </trkpt>
      <trkpt lat="40.217483" lon="-4.968683">
        <ele>1939.0</ele>
        <time>2013-06-30T12:40:31Z</time>
      </trkpt>
      <trkpt lat="40.217483" lon="-4.968817">
        <ele>1938.0</ele>
        <time>2013-06-30T12:40:32Z</time>
      </trkpt>
      <trkpt lat="40.217483" lon="-4.968950">
        <ele>1935.0</ele>
        <time>2013-06-30T12:40:33Z</time>
      </trkpt>
      <trkpt lat="40.217467" lon="-4.969117">
        <ele>1934.0</ele>
        <time>2013-06-30T12:40:34Z</time>
      </trkpt>
      <trkpt lat="40.217450" lon="-4.969267">
        <ele>1934.0</ele>
        <time>2013-06-30T12:40:35Z</time>
      </trkpt>
      <trkpt lat="40.217433" lon="-4.969400">
        <ele>1935.0</ele>
        <time>2013-06-30T12:40:36Z</time>
      </trkpt>
      <trkpt lat="40.217417" lon="-4.969517">
        <ele>1936.0</ele>
        <time>2013-06-30T12:40:37Z</time>
      </trkpt>
      <trkpt lat="40.217400" lon="-4.969650">
        <ele>1937.0</ele>
        <time>2013-06-30T12:40:38Z</time>
      </trkpt>
      <trkpt lat="40.217383" lon="-4.969800">
        <ele>1937.0</ele>
        <time>2013-06-30T12:40:39Z</time>
      </trkpt>
      <trkpt lat="40.217367" lon="-4.969950">
        <ele>1938.0</ele>
        <time>2013-06-30T12:40:40Z</time>
      </trkpt>
      <trkpt lat="40.217333" lon="-4.970100">
        <ele>1938.0</ele>
        <time>2013-06-30T12:40:41Z</time>
      </trkpt>
      <trkpt lat="40.217317" lon="-4.970267">
        <ele>1939.0</ele>
        <time>2013-06-30T12:40:42Z</time>
      </trkpt>
      <trkpt lat="40.217317" lon="-4.970400">
        <ele>1941.0</ele>
        <time>2013-06-30T12:40:43Z</time>
      </trkpt>
      <trkpt lat="40.217317" lon="-4.970550">
        <ele>1942.0</ele>
        <time>2013-06-30T12:40:44Z</time>
      </trkpt>
      <trkpt lat="40.217317" lon="-4.970683">
        <ele>1942.0</ele>
        <time>2013-06-30T12:40:45Z</time>
      </trkpt>
      <trkpt lat="40.217317" lon="-4.970850">
        <ele>1942.0</ele>
        <time>2013-06-30T12:40:46Z</time>
      </trkpt>
      <trkpt lat="40.217317" lon="-4.971017">
        <ele>1942.0</ele>
        <time>2013-06-30T12:40:47Z</time>
      </trkpt>
      <trkpt lat="40.217300" lon="-4.971183">
        <ele>1942.0</ele>
        <time>2013-06-30T12:40:48Z</time>
      </trkpt>
      <trkpt lat="40.217283" lon="-4.971333">
        <ele>1943.0</ele>
        <time>2013-06-30T12:40:49Z</time>
      </trkpt>
      <trkpt lat="40.217267" lon="-4.971483">
        <ele>1943.0</ele>
        <time>2013-06-30T12:40:50Z</time>
      </trkpt>
      <trkpt lat="40.217250" lon="-4.971633">
        <ele>1944.0</ele>
        <time>2013-06-30T12:40:51Z</time>
      </trkpt>
      <trkpt lat="40.217233" lon="-4.971783">
        <ele>1944.0</ele>
        <time>2013-06-30T12:40:52Z</time>
      </trkpt>
      <trkpt lat="40.217200" lon="-4.971933">
        <ele>1945.0</ele>
        <time>2013-06-30T12:40:53Z</time>
      </trkpt>
      <trkpt lat="40.217183" lon="-4.972067">
        <ele>1946.0</ele>
        <time>2013-06-30T12:40:54Z</time>
      </trkpt>
      <trkpt lat="40.217150" lon="-4.972200">
        <ele>1948.0</ele>
        <time>2013-06-30T12:40:55Z</time>
      </trkpt>
      <trkpt lat="40.217133" lon="-4.972317">
        <ele>1949.0</ele>
        <time>2013-06-30T12:40:56Z</time>
      </trkpt>
      <trkpt lat="40.217100" lon="-4.972450">
        <ele>1950.0</ele>
        <time>2013-06-30T12:40:57Z</time>
      </trkpt>
      <trkpt lat="40.217067" lon="-4.972583">
        <ele>1950.0</ele>
        <time>2013-06-30T12:40:58Z</time>
      </trkpt>
      <trkpt lat="40.217033" lon="-4.972733">
        <ele>1951.0</ele>
        <time>2013-06-30T12:40:59Z</time>
      </trkpt>
      <trkpt lat="40.216983" lon="-4.972867">
        <ele>1952.0</ele>
        <time>2013-06-30T12:41:00Z</time>
      </trkpt>
      <trkpt lat="40.216950" lon="-4.973000">
        <ele>1953.0</ele>
        <time>2013-06-30T12:41:01Z</time>
      </trkpt>
      <trkpt lat="40.216900" lon="-4.973117">
        <ele>1955.0</ele>
        <time>2013-06-30T12:41:02Z</time>
      </trkpt>
      <trkpt lat="40.216867" lon="-4.973250">
        <ele>1957.0</ele>
        <time>2013-06-30T12:41:03Z</time>
      </trkpt>
      <trkpt lat="40.216850" lon="-4.973383">
        <ele>1958.0</ele>
        <time>2013-06-30T12:41:04Z</time>
      </trkpt>
      <trkpt lat="40.216850" lon="-4.973533">
        <ele>1959.0</ele>
        <time>2013-06-30T12:41:05Z</time>
      </trkpt>
      <trkpt lat="40.216867" lon="-4.973683">
        <ele>1959.0</ele>
        <time>2013-06-30T12:41:06Z</time>
      </trkpt>
      <trkpt lat="40.216933" lon="-4.973850">
        <ele>1959.0</ele>
        <time>2013-06-30T12:41:07Z</time>
      </trkpt>
      <trkpt lat="40.217100" lon="-4.974067">
        <ele>1961.0</ele>
        <time>2013-06-30T12:41:09Z</time>
      </trkpt>
      <trkpt lat="40.217200" lon="-4.974133">
        <ele>1962.0</ele>
        <time>2013-06-30T12:41:10Z</time>
      </trkpt>
      <trkpt lat="40.217267" lon="-4.974133">
        <ele>1965.0</ele>
        <time>2013-06-30T12:41:11Z</time>
      </trkpt>
      <trkpt lat="40.217333" lon="-4.974133">
        <ele>1967.0</ele>
        <time>2013-06-30T12:41:12Z</time>
      </trkpt>
      <trkpt lat="40.217400" lon="-4.974117">
        <ele>1970.0</ele>
        <time>2013-06-30T12:41:13Z</time>
      </trkpt>
      <trkpt lat="40.217450" lon="-4.974083">
        <ele>1973.0</ele>
        <time>2013-06-30T12:41:14Z</time>
      </trkpt>
      <trkpt lat="40.217467" lon="-4.974050">
        <ele>1976.0</ele>
        <time>2013-06-30T12:41:15Z</time>
      </trkpt>
      <trkpt lat="40.217483" lon="-4.974000">
        <ele>1978.0</ele>
        <time>2013-06-30T12:41:16Z</time>
      </trkpt>
      <trkpt lat="40.217483" lon="-4.973950">
        <ele>1981.0</ele>
        <time>2013-06-30T12:41:17Z</time>
      </trkpt>
      <trkpt lat="40.217467" lon="-4.973917">
        <ele>1983.0</ele>
        <time>2013-06-30T12:41:18Z</time>
      </trkpt>
      <trkpt lat="40.217450" lon="-4.973867">
        <ele>1986.0</ele>
        <time>2013-06-30T12:41:19Z</time>
      </trkpt>
      <trkpt lat="40.217417" lon="-4.973833">
        <ele>1988.0</ele>
        <time>2013-06-30T12:41:20Z</time>
      </trkpt>
      <trkpt lat="40.217367" lon="-4.973800">
        <ele>1989.0</ele>
        <time>2013-06-30T12:41:21Z</time>
      </trkpt>
      <trkpt lat="40.217300" lon="-4.973783">
        <ele>1990.0</ele>
        <time>2013-06-30T12:41:22Z</time>
      </trkpt>
      <trkpt lat="40.217233" lon="-4.973783">
        <ele>1992.0</ele>
        <time>2013-06-30T12:41:23Z</time>
      </trkpt>
      <trkpt lat="40.217183" lon="-4.973800">
        <ele>1994.0</ele>
        <time>2013-06-30T12:41:24Z</time>
      </trkpt>
      <trkpt lat="40.217117" lon="-4.973850">
        <ele>1995.0</ele>
        <time>2013-06-30T12:41:25Z</time>
      </trkpt>
      <trkpt lat="40.217017" lon="-4.973983">
        <ele>1997.0</ele>
        <time>2013-06-30T12:41:27Z</time>
      </trkpt>
      <trkpt lat="40.216950" lon="-4.974083">
        <ele>1997.0</ele>
        <time>2013-06-30T12:41:28Z</time>
      </trkpt>
      <trkpt lat="40.216900" lon="-4.974183">
        <ele>1998.0</ele>
        <time>2013-06-30T12:41:29Z</time>
      </trkpt>
      <trkpt lat="40.216833" lon="-4.974300">
        <ele>1998.0</ele>
        <time>2013-06-30T12:41:30Z</time>
      </trkpt>
      <trkpt lat="40.216783" lon="-4.974400">
        <ele>1998.0</ele>
        <time>2013-06-30T12:41:31Z</time>
      </trkpt>
      <trkpt lat="40.216733" lon="-4.974517">
        <ele>1999.0</ele>
        <time>2013-06-30T12:41:32Z</time>
      </trkpt>
      <trkpt lat="40.216683" lon="-4.974667">
        <ele>1999.0</ele>
        <time>2013-06-30T12:41:33Z</time>
      </trkpt>
      <trkpt lat="40.216650" lon="-4.974817">
        <ele>1999.0</ele>
        <time>2013-06-30T12:41:34Z</time>
      </trkpt>
      <trkpt lat="40.216633" lon="-4.974950">
        <ele>2001.0</ele>
        <time>2013-06-30T12:41:35Z</time>
      </trkpt>
      <trkpt lat="40.216600" lon="-4.975083">
        <ele>2003.0</ele>
        <time>2013-06-30T12:41:36Z</time>
      </trkpt>
      <trkpt lat="40.216567" lon="-4.975200">
        <ele>2004.0</ele>
        <time>2013-06-30T12:41:37Z</time>
      </trkpt>
      <trkpt lat="40.216483" lon="-4.975467">
        <ele>2004.0</ele>
        <time>2013-06-30T12:41:39Z</time>
      </trkpt>
      <trkpt lat="40.216433" lon="-4.975617">
        <ele>2004.0</ele>
        <time>2013-06-30T12:41:40Z</time>
      </trkpt>
      <trkpt lat="40.216400" lon="-4.975733">
        <ele>2005.0</ele>
        <time>2013-06-30T12:41:41Z</time>
      </trkpt>
      <trkpt lat="40.216333" lon="-4.975817">
        <ele>2006.0</ele>
        <time>2013-06-30T12:41:42Z</time>
      </trkpt>
      <trkpt lat="40.216283" lon="-4.975900">
        <ele>2008.0</ele>
        <time>2013-06-30T12:41:43Z</time>
      </trkpt>
      <trkpt lat="40.216233" lon="-4.975983">
        <ele>2009.0</ele>
        <time>2013-06-30T12:41:44Z</time>
      </trkpt>
      <trkpt lat="40.216167" lon="-4.976100">
        <ele>2008.0</ele>
        <time>2013-06-30T12:41:45Z</time>
      </trkpt>
      <trkpt lat="40.216133" lon="-4.976217">
        <ele>2008.0</ele>
        <time>2013-06-30T12:41:46Z</time>
      </trkpt>
      <trkpt lat="40.216083" lon="-4.976333">
        <ele>2009.0</ele>
        <time>2013-06-30T12:41:47Z</time>
      </trkpt>
      <trkpt lat="40.216033" lon="-4.976450">
        <ele>2011.0</ele>
        <time>2013-06-30T12:41:48Z</time>
      </trkpt>
      <trkpt lat="40.216000" lon="-4.976567">
        <ele>2012.0</ele>
        <time>2013-06-30T12:41:49Z</time>
      </trkpt>
      <trkpt lat="40.215950" lon="-4.976683">
        <ele>2013.0</ele>
        <time>2013-06-30T12:41:50Z</time>
      </trkpt>
      <trkpt lat="40.215917" lon="-4.976833">
        <ele>2014.0</ele>
        <time>2013-06-30T12:41:51Z</time>
      </trkpt>
      <trkpt lat="40.215883" lon="-4.976983">
        <ele>2014.0</ele>
        <time>2013-06-30T12:41:52Z</time>
      </trkpt>
      <trkpt lat="40.215867" lon="-4.977150">
        <ele>2014.0</ele>
        <time>2013-06-30T12:41:53Z</time>
      </trkpt>
      <trkpt lat="40.215867" lon="-4.977300">
        <ele>2016.0</ele>
        <time>2013-06-30T12:41:54Z</time>
      </trkpt>
      <trkpt lat="40.215900" lon="-4.977433">
        <ele>2017.0</ele>
        <time>2013-06-30T12:41:55Z</time>
      </trkpt>
      <trkpt lat="40.215933" lon="-4.977550">
        <ele>2018.0</ele>
        <time>2013-06-30T12:41:56Z</time>
      </trkpt>
      <trkpt lat="40.216000" lon="-4.977650">
        <ele>2018.0</ele>
        <time>2013-06-30T12:41:57Z</time>
      </trkpt>
      <trkpt lat="40.216067" lon="-4.977733">
        <ele>2019.0</ele>
        <time>2013-06-30T12:41:58Z</time>
      </trkpt>
      <trkpt lat="40.216133" lon="-4.977800">
        <ele>2019.0</ele>
        <time>2013-06-30T12:41:59Z</time>
      </trkpt>
      <trkpt lat="40.216217" lon="-4.977867">
        <ele>2019.0</ele>
        <time>2013-06-30T12:42:00Z</time>
      </trkpt>
      <trkpt lat="40.216300" lon="-4.977883">
        <ele>2019.0</ele>
        <time>2013-06-30T12:42:01Z</time>
      </trkpt>
      <trkpt lat="40.216483" lon="-4.977867">
        <ele>2017.0</ele>
        <time>2013-06-30T12:42:03Z</time>
      </trkpt>
      <trkpt lat="40.216567" lon="-4.977817">
        <ele>2018.0</ele>
        <time>2013-06-30T12:42:04Z</time>
      </trkpt>
      <trkpt lat="40.216633" lon="-4.977767">
        <ele>2019.0</ele>
        <time>2013-06-30T12:42:05Z</time>
      </trkpt>
      <trkpt lat="40.216733" lon="-4.977583">
        <ele>2025.0</ele>
        <time>2013-06-30T12:42:08Z</time>
      </trkpt>
      <trkpt lat="40.216750" lon="-4.977517">
        <ele>2027.0</ele>
        <time>2013-06-30T12:42:09Z</time>
      </trkpt>
      <trkpt lat="40.216750" lon="-4.977450">
        <ele>2029.0</ele>
        <time>2013-06-30T12:42:10Z</time>
      </trkpt>
      <trkpt lat="40.216767" lon="-4.977383">
        <ele>2032.0</ele>
        <time>2013-06-30T12:42:11Z</time>
      </trkpt>
      <trkpt lat="40.216767" lon="-4.977333">
        <ele>2034.0</ele>
        <time>2013-06-30T12:42:12Z</time>
      </trkpt>
      <trkpt lat="40.216750" lon="-4.977283">
        <ele>2036.0</ele>
        <time>2013-06-30T12:42:13Z</time>
      </trkpt>
      <trkpt lat="40.216750" lon="-4.977217">
        <ele>2038.0</ele>
        <time>2013-06-30T12:42:14Z</time>
      </trkpt>
      <trkpt lat="40.216750" lon="-4.977150">
        <ele>2038.0</ele>
        <time>2013-06-30T12:42:15Z</time>
      </trkpt>
      <trkpt lat="40.216750" lon="-4.977067">
        <ele>2038.0</ele>
        <time>2013-06-30T12:42:16Z</time>
      </trkpt>
      <trkpt lat="40.216750" lon="-4.976983">
        <ele>2038.0</ele>
        <time>2013-06-30T12:42:17Z</time>
      </trkpt>
      <trkpt lat="40.216733" lon="-4.976900">
        <ele>2038.0</ele>
        <time>2013-06-30T12:42:18Z</time>
      </trkpt>
      <trkpt lat="40.216717" lon="-4.976817">
        <ele>2039.0</ele>
        <time>2013-06-30T12:42:19Z</time>
      </trkpt>
      <trkpt lat="40.216700" lon="-4.976750">
        <ele>2041.0</ele>
        <time>2013-06-30T12:42:20Z</time>
      </trkpt>
      <trkpt lat="40.216717" lon="-4.976650">
        <ele>2042.0</ele>
        <time>2013-06-30T12:42:22Z</time>
      </trkpt>
      <trkpt lat="40.216733" lon="-4.976600">
        <ele>2041.0</ele>
        <time>2013-06-30T12:42:23Z</time>
      </trkpt>
      <trkpt lat="40.216750" lon="-4.976517">
        <ele>2040.0</ele>
        <time>2013-06-30T12:42:24Z</time>
      </trkpt>
      <trkpt lat="40.216750" lon="-4.976417">
        <ele>2038.0</ele>
        <time>2013-06-30T12:42:25Z</time>
      </trkpt>
      <trkpt lat="40.216733" lon="-4.976317">
        <ele>2037.0</ele>
        <time>2013-06-30T12:42:26Z</time>
      </trkpt>
      <trkpt lat="40.216733" lon="-4.976267">
        <ele>2036.0</ele>
        <time>2013-06-30T12:42:27Z</time>
      </trkpt>
      <trkpt lat="40.216717" lon="-4.976233">
        <ele>2038.0</ele>
        <time>2013-06-30T12:42:28Z</time>
      </trkpt>
      <trkpt lat="40.216683" lon="-4.976217">
        <ele>2040.0</ele>
        <time>2013-06-30T12:42:29Z</time>
      </trkpt>
      <trkpt lat="40.216667" lon="-4.976183">
        <ele>2041.0</ele>
        <time>2013-06-30T12:42:30Z</time>
      </trkpt>
      <trkpt lat="40.216617" lon="-4.976150">
        <ele>2042.0</ele>
        <time>2013-06-30T12:42:31Z</time>
      </trkpt>
      <trkpt lat="40.216550" lon="-4.976117">
        <ele>2043.0</ele>
        <time>2013-06-30T12:42:32Z</time>
      </trkpt>
      <trkpt lat="40.216483" lon="-4.976083">
        <ele>2044.0</ele>
        <time>2013-06-30T12:42:33Z</time>
      </trkpt>
      <trkpt lat="40.216417" lon="-4.976083">
        <ele>2046.0</ele>
        <time>2013-06-30T12:42:34Z</time>
      </trkpt>
      <trkpt lat="40.216367" lon="-4.976083">
        <ele>2048.0</ele>
        <time>2013-06-30T12:42:35Z</time>
      </trkpt>
      <trkpt lat="40.216317" lon="-4.976100">
        <ele>2051.0</ele>
        <time>2013-06-30T12:42:36Z</time>
      </trkpt>
      <trkpt lat="40.216283" lon="-4.976117">
        <ele>2053.0</ele>
        <time>2013-06-30T12:42:37Z</time>
      </trkpt>
      <trkpt lat="40.216217" lon="-4.976133">
        <ele>2055.0</ele>
        <time>2013-06-30T12:42:38Z</time>
      </trkpt>
      <trkpt lat="40.216117" lon="-4.976167">
        <ele>2056.0</ele>
        <time>2013-06-30T12:42:39Z</time>
      </trkpt>
      <trkpt lat="40.216033" lon="-4.976200">
        <ele>2058.0</ele>
        <time>2013-06-30T12:42:40Z</time>
      </trkpt>
      <trkpt lat="40.215950" lon="-4.976250">
        <ele>2061.0</ele>
        <time>2013-06-30T12:42:41Z</time>
      </trkpt>
      <trkpt lat="40.215883" lon="-4.976317">
        <ele>2065.0</ele>
        <time>2013-06-30T12:42:42Z</time>
      </trkpt>
      <trkpt lat="40.215817" lon="-4.976367">
        <ele>2069.0</ele>
        <time>2013-06-30T12:42:43Z</time>
      </trkpt>
      <trkpt lat="40.215750" lon="-4.976433">
        <ele>2072.0</ele>
        <time>2013-06-30T12:42:44Z</time>
      </trkpt>
      <trkpt lat="40.215667" lon="-4.976500">
        <ele>2075.0</ele>
        <time>2013-06-30T12:42:45Z</time>
      </trkpt>
      <trkpt lat="40.215567" lon="-4.976567">
        <ele>2078.0</ele>
        <time>2013-06-30T12:42:46Z</time>
      </trkpt>
      <trkpt lat="40.215467" lon="-4.976650">
        <ele>2081.0</ele>
        <time>2013-06-30T12:42:47Z</time>
      </trkpt>
      <trkpt lat="40.215383" lon="-4.976717">
        <ele>2085.0</ele>
        <time>2013-06-30T12:42:48Z</time>
      </trkpt>
      <trkpt lat="40.215317" lon="-4.976783">
        <ele>2090.0</ele>
        <time>2013-06-30T12:42:49Z</time>
      </trkpt>
      <trkpt lat="40.215250" lon="-4.976850">
        <ele>2094.0</ele>
        <time>2013-06-30T12:42:50Z</time>
      </trkpt>
      <trkpt lat="40.215183" lon="-4.976933">
        <ele>2097.0</ele>
        <time>2013-06-30T12:42:51Z</time>
      </trkpt>
      <trkpt lat="40.215117" lon="-4.977017">
        <ele>2100.0</ele>
        <time>2013-06-30T12:42:52Z</time>
      </trkpt>
      <trkpt lat="40.215033" lon="-4.977100">
        <ele>2102.0</ele>
        <time>2013-06-30T12:42:53Z</time>
      </trkpt>
      <trkpt lat="40.214933" lon="-4.977200">
        <ele>2103.0</ele>
        <time>2013-06-30T12:42:54Z</time>
      </trkpt>
      <trkpt lat="40.214850" lon="-4.977300">
        <ele>2104.0</ele>
        <time>2013-06-30T12:42:55Z</time>
      </trkpt>
      <trkpt lat="40.214767" lon="-4.977417">
        <ele>2106.0</ele>
        <time>2013-06-30T12:42:56Z</time>
      </trkpt>
      <trkpt lat="40.214717" lon="-4.977533">
        <ele>2107.0</ele>
        <time>2013-06-30T12:42:57Z</time>
      </trkpt>
      <trkpt lat="40.214650" lon="-4.977667">
        <ele>2108.0</ele>
        <time>2013-06-30T12:42:58Z</time>
      </trkpt>
      <trkpt lat="40.214600" lon="-4.977783">
        <ele>2108.0</ele>
        <time>2013-06-30T12:42:59Z</time>
      </trkpt>
      <trkpt lat="40.214517" lon="-4.977900">
        <ele>2106.0</ele>
        <time>2013-06-30T12:43:00Z</time>
      </trkpt>
      <trkpt lat="40.214433" lon="-4.978017">
        <ele>2105.0</ele>
        <time>2013-06-30T12:43:01Z</time>
      </trkpt>
      <trkpt lat="40.214350" lon="-4.978133">
        <ele>2104.0</ele>
        <time>2013-06-30T12:43:02Z</time>
      </trkpt>
      <trkpt lat="40.214283" lon="-4.978250">
        <ele>2104.0</ele>
        <time>2013-06-30T12:43:03Z</time>
      </trkpt>
      <trkpt lat="40.214200" lon="-4.978383">
        <ele>2103.0</ele>
        <time>2013-06-30T12:43:04Z</time>
      </trkpt>
      <trkpt lat="40.214133" lon="-4.978500">
        <ele>2102.0</ele>
        <time>2013-06-30T12:43:05Z</time>
      </trkpt>
      <trkpt lat="40.214050" lon="-4.978600">
        <ele>2100.0</ele>
        <time>2013-06-30T12:43:06Z</time>
      </trkpt>
      <trkpt lat="40.213967" lon="-4.978717">
        <ele>2098.0</ele>
        <time>2013-06-30T12:43:07Z</time>
      </trkpt>
      <trkpt lat="40.213883" lon="-4.978833">
        <ele>2095.0</ele>
        <time>2013-06-30T12:43:08Z</time>
      </trkpt>
      <trkpt lat="40.213800" lon="-4.978950">
        <ele>2093.0</ele>
        <time>2013-06-30T12:43:09Z</time>
      </trkpt>
      <trkpt lat="40.213717" lon="-4.979083">
        <ele>2091.0</ele>
        <time>2013-06-30T12:43:10Z</time>
      </trkpt>
      <trkpt lat="40.213650" lon="-4.979200">
        <ele>2089.0</ele>
        <time>2013-06-30T12:43:11Z</time>
      </trkpt>
      <trkpt lat="40.213567" lon="-4.979333">
        <ele>2087.0</ele>
        <time>2013-06-30T12:43:12Z</time>
      </trkpt>
      <trkpt lat="40.213500" lon="-4.979450">
        <ele>2085.0</ele>
        <time>2013-06-30T12:43:13Z</time>
      </trkpt>
      <trkpt lat="40.213417" lon="-4.979567">
        <ele>2083.0</ele>
        <time>2013-06-30T12:43:14Z</time>
      </trkpt>
      <trkpt lat="40.213333" lon="-4.979683">
        <ele>2082.0</ele>
        <time>2013-06-30T12:43:15Z</time>
      </trkpt>
      <trkpt lat="40.213267" lon="-4.979800">
        <ele>2082.0</ele>
        <time>2013-06-30T12:43:16Z</time>
      </trkpt>
      <trkpt lat="40.213200" lon="-4.979917">
        <ele>2080.0</ele>
        <time>2013-06-30T12:43:17Z</time>
      </trkpt>
      <trkpt lat="40.213117" lon="-4.980033">
        <ele>2079.0</ele>
        <time>2013-06-30T12:43:18Z</time>
      </trkpt>
      <trkpt lat="40.213050" lon="-4.980150">
        <ele>2077.0</ele>
        <time>2013-06-30T12:43:19Z</time>
      </trkpt>
      <trkpt lat="40.212983" lon="-4.980267">
        <ele>2074.0</ele>
        <time>2013-06-30T12:43:20Z</time>
      </trkpt>
      <trkpt lat="40.212917" lon="-4.980367">
        <ele>2071.0</ele>
        <time>2013-06-30T12:43:21Z</time>
      </trkpt>
      <trkpt lat="40.212833" lon="-4.980483">
        <ele>2068.0</ele>
        <time>2013-06-30T12:43:22Z</time>
      </trkpt>
      <trkpt lat="40.212750" lon="-4.980600">
        <ele>2064.0</ele>
        <time>2013-06-30T12:43:23Z</time>
      </trkpt>
      <trkpt lat="40.212683" lon="-4.980733">
        <ele>2061.0</ele>
        <time>2013-06-30T12:43:24Z</time>
      </trkpt>
      <trkpt lat="40.212600" lon="-4.980850">
        <ele>2058.0</ele>
        <time>2013-06-30T12:43:25Z</time>
      </trkpt>
      <trkpt lat="40.212533" lon="-4.980967">
        <ele>2055.0</ele>
        <time>2013-06-30T12:43:26Z</time>
      </trkpt>
      <trkpt lat="40.212483" lon="-4.981083">
        <ele>2053.0</ele>
        <time>2013-06-30T12:43:27Z</time>
      </trkpt>
      <trkpt lat="40.212417" lon="-4.981217">
        <ele>2050.0</ele>
        <time>2013-06-30T12:43:28Z</time>
      </trkpt>
      <trkpt lat="40.212367" lon="-4.981333">
        <ele>2047.0</ele>
        <time>2013-06-30T12:43:29Z</time>
      </trkpt>
      <trkpt lat="40.212300" lon="-4.981467">
        <ele>2043.0</ele>
        <time>2013-06-30T12:43:30Z</time>
      </trkpt>
      <trkpt lat="40.212250" lon="-4.981583">
        <ele>2039.0</ele>
        <time>2013-06-30T12:43:31Z</time>
      </trkpt>
      <trkpt lat="40.212183" lon="-4.981717">
        <ele>2036.0</ele>
        <time>2013-06-30T12:43:32Z</time>
      </trkpt>
      <trkpt lat="40.212117" lon="-4.981833">
        <ele>2034.0</ele>
        <time>2013-06-30T12:43:33Z</time>
      </trkpt>
      <trkpt lat="40.212050" lon="-4.981933">
        <ele>2031.0</ele>
        <time>2013-06-30T12:43:34Z</time>
      </trkpt>
      <trkpt lat="40.211983" lon="-4.982050">
        <ele>2028.0</ele>
        <time>2013-06-30T12:43:35Z</time>
      </trkpt>
      <trkpt lat="40.211917" lon="-4.982183">
        <ele>2025.0</ele>
        <time>2013-06-30T12:43:36Z</time>
      </trkpt>
      <trkpt lat="40.211867" lon="-4.982300">
        <ele>2021.0</ele>
        <time>2013-06-30T12:43:37Z</time>
      </trkpt>
      <trkpt lat="40.211800" lon="-4.982417">
        <ele>2018.0</ele>
        <time>2013-06-30T12:43:38Z</time>
      </trkpt>
      <trkpt lat="40.211733" lon="-4.982500">
        <ele>2015.0</ele>
        <time>2013-06-30T12:43:39Z</time>
      </trkpt>
      <trkpt lat="40.211667" lon="-4.982583">
        <ele>2013.0</ele>
        <time>2013-06-30T12:43:40Z</time>
      </trkpt>
      <trkpt lat="40.211617" lon="-4.982667">
        <ele>2011.0</ele>
        <time>2013-06-30T12:43:41Z</time>
      </trkpt>
      <trkpt lat="40.211550" lon="-4.982750">
        <ele>2008.0</ele>
        <time>2013-06-30T12:43:42Z</time>
      </trkpt>
      <trkpt lat="40.211500" lon="-4.982850">
        <ele>2006.0</ele>
        <time>2013-06-30T12:43:43Z</time>
      </trkpt>
      <trkpt lat="40.211433" lon="-4.982950">
        <ele>2004.0</ele>
        <time>2013-06-30T12:43:44Z</time>
      </trkpt>
      <trkpt lat="40.211383" lon="-4.983050">
        <ele>2003.0</ele>
        <time>2013-06-30T12:43:45Z</time>
      </trkpt>
      <trkpt lat="40.211333" lon="-4.983150">
        <ele>2002.0</ele>
        <time>2013-06-30T12:43:46Z</time>
      </trkpt>
      <trkpt lat="40.211283" lon="-4.983267">
        <ele>2002.0</ele>
        <time>2013-06-30T12:43:47Z</time>
      </trkpt>
      <trkpt lat="40.211233" lon="-4.983367">
        <ele>2002.0</ele>
        <time>2013-06-30T12:43:48Z</time>
      </trkpt>
      <trkpt lat="40.211183" lon="-4.983467">
        <ele>2001.0</ele>
        <time>2013-06-30T12:43:49Z</time>
      </trkpt>
      <trkpt lat="40.211133" lon="-4.983567">
        <ele>2000.0</ele>
        <time>2013-06-30T12:43:50Z</time>
      </trkpt>
      <trkpt lat="40.211100" lon="-4.983683">
        <ele>1999.0</ele>
        <time>2013-06-30T12:43:51Z</time>
      </trkpt>
      <trkpt lat="40.211050" lon="-4.983800">
        <ele>1997.0</ele>
        <time>2013-06-30T12:43:52Z</time>
      </trkpt>
      <trkpt lat="40.211000" lon="-4.983917">
        <ele>1995.0</ele>
        <time>2013-06-30T12:43:53Z</time>
      </trkpt>
      <trkpt lat="40.210950" lon="-4.984017">
        <ele>1994.0</ele>
        <time>2013-06-30T12:43:54Z</time>
      </trkpt>
      <trkpt lat="40.210900" lon="-4.984117">
        <ele>1994.0</ele>
        <time>2013-06-30T12:43:55Z</time>
      </trkpt>
      <trkpt lat="40.210850" lon="-4.984217">
        <ele>1992.0</ele>
        <time>2013-06-30T12:43:56Z</time>
      </trkpt>
      <trkpt lat="40.210800" lon="-4.984350">
        <ele>1990.0</ele>
        <time>2013-06-30T12:43:57Z</time>
      </trkpt>
      <trkpt lat="40.210733" lon="-4.984483">
        <ele>1990.0</ele>
        <time>2013-06-30T12:43:58Z</time>
      </trkpt>
      <trkpt lat="40.210683" lon="-4.984617">
        <ele>1989.0</ele>
        <time>2013-06-30T12:43:59Z</time>
      </trkpt>
      <trkpt lat="40.210633" lon="-4.984733">
        <ele>1990.0</ele>
        <time>2013-06-30T12:44:00Z</time>
      </trkpt>
      <trkpt lat="40.210600" lon="-4.984867">
        <ele>1991.0</ele>
        <time>2013-06-30T12:44:01Z</time>
      </trkpt>
      <trkpt lat="40.210567" lon="-4.984983">
        <ele>1992.0</ele>
        <time>2013-06-30T12:44:02Z</time>
      </trkpt>
      <trkpt lat="40.210517" lon="-4.985100">
        <ele>1991.0</ele>
        <time>2013-06-30T12:44:03Z</time>
      </trkpt>
      <trkpt lat="40.210483" lon="-4.985217">
        <ele>1991.0</ele>
        <time>2013-06-30T12:44:04Z</time>
      </trkpt>
      <trkpt lat="40.210433" lon="-4.985317">
        <ele>1990.0</ele>
        <time>2013-06-30T12:44:05Z</time>
      </trkpt>
      <trkpt lat="40.210383" lon="-4.985417">
        <ele>1988.0</ele>
        <time>2013-06-30T12:44:06Z</time>
      </trkpt>
      <trkpt lat="40.210333" lon="-4.985533">
        <ele>1986.0</ele>
        <time>2013-06-30T12:44:07Z</time>
      </trkpt>
      <trkpt lat="40.210283" lon="-4.985683">
        <ele>1980.0</ele>
        <time>2013-06-30T12:44:08Z</time>
      </trkpt>
      <trkpt lat="40.210250" lon="-4.985817">
        <ele>1976.0</ele>
        <time>2013-06-30T12:44:09Z</time>
      </trkpt>
      <trkpt lat="40.210150" lon="-4.986067">
        <ele>1971.0</ele>
        <time>2013-06-30T12:44:11Z</time>
      </trkpt>
      <trkpt lat="40.210083" lon="-4.986167">
        <ele>1968.0</ele>
        <time>2013-06-30T12:44:12Z</time>
      </trkpt>
      <trkpt lat="40.210033" lon="-4.986283">
        <ele>1966.0</ele>
        <time>2013-06-30T12:44:13Z</time>
      </trkpt>
      <trkpt lat="40.209967" lon="-4.986400">
        <ele>1963.0</ele>
        <time>2013-06-30T12:44:14Z</time>
      </trkpt>
      <trkpt lat="40.209917" lon="-4.986517">
        <ele>1960.0</ele>
        <time>2013-06-30T12:44:15Z</time>
      </trkpt>
      <trkpt lat="40.209867" lon="-4.986650">
        <ele>1958.0</ele>
        <time>2013-06-30T12:44:16Z</time>
      </trkpt>
      <trkpt lat="40.209817" lon="-4.986767">
        <ele>1956.0</ele>
        <time>2013-06-30T12:44:17Z</time>
      </trkpt>
      <trkpt lat="40.209750" lon="-4.986883">
        <ele>1953.0</ele>
        <time>2013-06-30T12:44:18Z</time>
      </trkpt>
      <trkpt lat="40.209700" lon="-4.987000">
        <ele>1950.0</ele>
        <time>2013-06-30T12:44:19Z</time>
      </trkpt>
      <trkpt lat="40.209633" lon="-4.987117">
        <ele>1947.0</ele>
        <time>2013-06-30T12:44:20Z</time>
      </trkpt>
      <trkpt lat="40.209583" lon="-4.987233">
        <ele>1943.0</ele>
        <time>2013-06-30T12:44:21Z</time>
      </trkpt>
      <trkpt lat="40.209533" lon="-4.987367">
        <ele>1940.0</ele>
        <time>2013-06-30T12:44:22Z</time>
      </trkpt>
      <trkpt lat="40.209467" lon="-4.987500">
        <ele>1936.0</ele>
        <time>2013-06-30T12:44:23Z</time>
      </trkpt>
      <trkpt lat="40.209400" lon="-4.987617">
        <ele>1932.0</ele>
        <time>2013-06-30T12:44:24Z</time>
      </trkpt>
      <trkpt lat="40.209333" lon="-4.987717">
        <ele>1928.0</ele>
        <time>2013-06-30T12:44:25Z</time>
      </trkpt>
      <trkpt lat="40.209267" lon="-4.987833">
        <ele>1924.0</ele>
        <time>2013-06-30T12:44:26Z</time>
      </trkpt>
      <trkpt lat="40.209183" lon="-4.987967">
        <ele>1920.0</ele>
        <time>2013-06-30T12:44:27Z</time>
      </trkpt>
      <trkpt lat="40.209117" lon="-4.988083">
        <ele>1915.0</ele>
        <time>2013-06-30T12:44:28Z</time>
      </trkpt>
      <trkpt lat="40.209050" lon="-4.988217">
        <ele>1911.0</ele>
        <time>2013-06-30T12:44:29Z</time>
      </trkpt>
      <trkpt lat="40.208983" lon="-4.988333">
        <ele>1907.0</ele>
        <time>2013-06-30T12:44:30Z</time>
      </trkpt>
      <trkpt lat="40.208917" lon="-4.988450">
        <ele>1903.0</ele>
        <time>2013-06-30T12:44:31Z</time>
      </trkpt>
      <trkpt lat="40.208850" lon="-4.988567">
        <ele>1898.0</ele>
        <time>2013-06-30T12:44:32Z</time>
      </trkpt>
      <trkpt lat="40.208783" lon="-4.988683">
        <ele>1894.0</ele>
        <time>2013-06-30T12:44:33Z</time>
      </trkpt>
      <trkpt lat="40.208717" lon="-4.988817">
        <ele>1888.0</ele>
        <time>2013-06-30T12:44:34Z</time>
      </trkpt>
      <trkpt lat="40.208650" lon="-4.988950">
        <ele>1883.0</ele>
        <time>2013-06-30T12:44:35Z</time>
      </trkpt>
      <trkpt lat="40.208583" lon="-4.989100">
        <ele>1877.0</ele>
        <time>2013-06-30T12:44:36Z</time>
      </trkpt>
      <trkpt lat="40.208500" lon="-4.989217">
        <ele>1873.0</ele>
        <time>2013-06-30T12:44:37Z</time>
      </trkpt>
      <trkpt lat="40.208433" lon="-4.989333">
        <ele>1869.0</ele>
        <time>2013-06-30T12:44:38Z</time>
      </trkpt>
      <trkpt lat="40.208350" lon="-4.989433">
        <ele>1864.0</ele>
        <time>2013-06-30T12:44:39Z</time>
      </trkpt>
      <trkpt lat="40.208267" lon="-4.989533">
        <ele>1860.0</ele>
        <time>2013-06-30T12:44:40Z</time>
      </trkpt>
      <trkpt lat="40.208183" lon="-4.989633">
        <ele>1855.0</ele>
        <time>2013-06-30T12:44:41Z</time>
      </trkpt>
      <trkpt lat="40.208117" lon="-4.989733">
        <ele>1852.0</ele>
        <time>2013-06-30T12:44:42Z</time>
      </trkpt>
      <trkpt lat="40.208050" lon="-4.989833">
        <ele>1848.0</ele>
        <time>2013-06-30T12:44:43Z</time>
      </trkpt>
      <trkpt lat="40.207983" lon="-4.989933">
        <ele>1844.0</ele>
        <time>2013-06-30T12:44:44Z</time>
      </trkpt>
      <trkpt lat="40.207917" lon="-4.990050">
        <ele>1840.0</ele>
        <time>2013-06-30T12:44:45Z</time>
      </trkpt>
      <trkpt lat="40.207833" lon="-4.990167">
        <ele>1836.0</ele>
        <time>2013-06-30T12:44:46Z</time>
      </trkpt>
      <trkpt lat="40.207767" lon="-4.990267">
        <ele>1833.0</ele>
        <time>2013-06-30T12:44:47Z</time>
      </trkpt>
      <trkpt lat="40.207717" lon="-4.990350">
        <ele>1831.0</ele>
        <time>2013-06-30T12:44:48Z</time>
      </trkpt>
      <trkpt lat="40.207650" lon="-4.990433">
        <ele>1829.0</ele>
        <time>2013-06-30T12:44:49Z</time>
      </trkpt>
      <trkpt lat="40.207583" lon="-4.990500">
        <ele>1827.0</ele>
        <time>2013-06-30T12:44:50Z</time>
      </trkpt>
      <trkpt lat="40.207517" lon="-4.990567">
        <ele>1824.0</ele>
        <time>2013-06-30T12:44:51Z</time>
      </trkpt>
      <trkpt lat="40.207450" lon="-4.990667">
        <ele>1821.0</ele>
        <time>2013-06-30T12:44:52Z</time>
      </trkpt>
      <trkpt lat="40.207367" lon="-4.990767">
        <ele>1817.0</ele>
        <time>2013-06-30T12:44:53Z</time>
      </trkpt>
      <trkpt lat="40.207300" lon="-4.990867">
        <ele>1814.0</ele>
        <time>2013-06-30T12:44:54Z</time>
      </trkpt>
      <trkpt lat="40.207217" lon="-4.990950">
        <ele>1812.0</ele>
        <time>2013-06-30T12:44:55Z</time>
      </trkpt>
      <trkpt lat="40.207150" lon="-4.991017">
        <ele>1809.0</ele>
        <time>2013-06-30T12:44:56Z</time>
      </trkpt>
      <trkpt lat="40.207067" lon="-4.991117">
        <ele>1807.0</ele>
        <time>2013-06-30T12:44:57Z</time>
      </trkpt>
      <trkpt lat="40.207000" lon="-4.991217">
        <ele>1805.0</ele>
        <time>2013-06-30T12:44:58Z</time>
      </trkpt>
      <trkpt lat="40.206917" lon="-4.991333">
        <ele>1803.0</ele>
        <time>2013-06-30T12:44:59Z</time>
      </trkpt>
      <trkpt lat="40.206817" lon="-4.991433">
        <ele>1801.0</ele>
        <time>2013-06-30T12:45:00Z</time>
      </trkpt>
      <trkpt lat="40.206750" lon="-4.991550">
        <ele>1801.0</ele>
        <time>2013-06-30T12:45:01Z</time>
      </trkpt>
      <trkpt lat="40.206683" lon="-4.991650">
        <ele>1801.0</ele>
        <time>2013-06-30T12:45:02Z</time>
      </trkpt>
      <trkpt lat="40.206617" lon="-4.991733">
        <ele>1801.0</ele>
        <time>2013-06-30T12:45:03Z</time>
      </trkpt>
      <trkpt lat="40.206550" lon="-4.991817">
        <ele>1801.0</ele>
        <time>2013-06-30T12:45:04Z</time>
      </trkpt>
      <trkpt lat="40.206500" lon="-4.991883">
        <ele>1799.0</ele>
        <time>2013-06-30T12:45:05Z</time>
      </trkpt>
      <trkpt lat="40.206433" lon="-4.991983">
        <ele>1798.0</ele>
        <time>2013-06-30T12:45:06Z</time>
      </trkpt>
      <trkpt lat="40.206350" lon="-4.992100">
        <ele>1796.0</ele>
        <time>2013-06-30T12:45:07Z</time>
      </trkpt>
      <trkpt lat="40.206300" lon="-4.992200">
        <ele>1794.0</ele>
        <time>2013-06-30T12:45:08Z</time>
      </trkpt>
      <trkpt lat="40.206233" lon="-4.992283">
        <ele>1793.0</ele>
        <time>2013-06-30T12:45:09Z</time>
      </trkpt>
      <trkpt lat="40.206200" lon="-4.992367">
        <ele>1793.0</ele>
        <time>2013-06-30T12:45:10Z</time>
      </trkpt>
      <trkpt lat="40.206167" lon="-4.992467">
        <ele>1792.0</ele>
        <time>2013-06-30T12:45:11Z</time>
      </trkpt>
      <trkpt lat="40.206117" lon="-4.992583">
        <ele>1790.0</ele>
        <time>2013-06-30T12:45:12Z</time>
      </trkpt>
      <trkpt lat="40.206083" lon="-4.992700">
        <ele>1789.0</ele>
        <time>2013-06-30T12:45:13Z</time>
      </trkpt>
      <trkpt lat="40.206033" lon="-4.992800">
        <ele>1788.0</ele>
        <time>2013-06-30T12:45:14Z</time>
      </trkpt>
      <trkpt lat="40.206000" lon="-4.992933">
        <ele>1788.0</ele>
        <time>2013-06-30T12:45:15Z</time>
      </trkpt>
      <trkpt lat="40.205950" lon="-4.993033">
        <ele>1788.0</ele>
        <time>2013-06-30T12:45:16Z</time>
      </trkpt>
      <trkpt lat="40.205917" lon="-4.993150">
        <ele>1788.0</ele>
        <time>2013-06-30T12:45:17Z</time>
      </trkpt>
      <trkpt lat="40.205883" lon="-4.993250">
        <ele>1787.0</ele>
        <time>2013-06-30T12:45:18Z</time>
      </trkpt>
      <trkpt lat="40.205833" lon="-4.993367">
        <ele>1786.0</ele>
        <time>2013-06-30T12:45:19Z</time>
      </trkpt>
      <trkpt lat="40.205783" lon="-4.993483">
        <ele>1785.0</ele>
        <time>2013-06-30T12:45:20Z</time>
      </trkpt>
      <trkpt lat="40.205717" lon="-4.993617">
        <ele>1784.0</ele>
        <time>2013-06-30T12:45:21Z</time>
      </trkpt>
      <trkpt lat="40.205667" lon="-4.993717">
        <ele>1784.0</ele>
        <time>2013-06-30T12:45:22Z</time>
      </trkpt>
      <trkpt lat="40.205600" lon="-4.993817">
        <ele>1784.0</ele>
        <time>2013-06-30T12:45:23Z</time>
      </trkpt>
      <trkpt lat="40.205567" lon="-4.993917">
        <ele>1785.0</ele>
        <time>2013-06-30T12:45:24Z</time>
      </trkpt>
      <trkpt lat="40.205517" lon="-4.994017">
        <ele>1786.0</ele>
        <time>2013-06-30T12:45:25Z</time>
      </trkpt>
      <trkpt lat="40.205483" lon="-4.994133">
        <ele>1786.0</ele>
        <time>2013-06-30T12:45:26Z</time>
      </trkpt>
      <trkpt lat="40.205433" lon="-4.994250">
        <ele>1785.0</ele>
        <time>2013-06-30T12:45:27Z</time>
      </trkpt>
      <trkpt lat="40.205383" lon="-4.994383">
        <ele>1785.0</ele>
        <time>2013-06-30T12:45:28Z</time>
      </trkpt>
      <trkpt lat="40.205350" lon="-4.994500">
        <ele>1785.0</ele>
        <time>2013-06-30T12:45:29Z</time>
      </trkpt>
      <trkpt lat="40.205300" lon="-4.994617">
        <ele>1786.0</ele>
        <time>2013-06-30T12:45:30Z</time>
      </trkpt>
      <trkpt lat="40.205267" lon="-4.994750">
        <ele>1785.0</ele>
        <time>2013-06-30T12:45:31Z</time>
      </trkpt>
      <trkpt lat="40.205217" lon="-4.994867">
        <ele>1785.0</ele>
        <time>2013-06-30T12:45:32Z</time>
      </trkpt>
      <trkpt lat="40.205167" lon="-4.994983">
        <ele>1784.0</ele>
        <time>2013-06-30T12:45:33Z</time>
      </trkpt>
      <trkpt lat="40.205117" lon="-4.995100">
        <ele>1784.0</ele>
        <time>2013-06-30T12:45:34Z</time>
      </trkpt>
      <trkpt lat="40.205067" lon="-4.995217">
        <ele>1783.0</ele>
        <time>2013-06-30T12:45:35Z</time>
      </trkpt>
      <trkpt lat="40.205017" lon="-4.995333">
        <ele>1782.0</ele>
        <time>2013-06-30T12:45:36Z</time>
      </trkpt>
      <trkpt lat="40.204950" lon="-4.995450">
        <ele>1781.0</ele>
        <time>2013-06-30T12:45:37Z</time>
      </trkpt>
      <trkpt lat="40.204900" lon="-4.995600">
        <ele>1780.0</ele>
        <time>2013-06-30T12:45:38Z</time>
      </trkpt>
      <trkpt lat="40.204850" lon="-4.995733">
        <ele>1779.0</ele>
        <time>2013-06-30T12:45:39Z</time>
      </trkpt>
      <trkpt lat="40.204833" lon="-4.995867">
        <ele>1779.0</ele>
        <time>2013-06-30T12:45:40Z</time>
      </trkpt>
      <trkpt lat="40.204800" lon="-4.996000">
        <ele>1779.0</ele>
        <time>2013-06-30T12:45:41Z</time>
      </trkpt>
      <trkpt lat="40.204767" lon="-4.996133">
        <ele>1779.0</ele>
        <time>2013-06-30T12:45:42Z</time>
      </trkpt>
      <trkpt lat="40.204733" lon="-4.996250">
        <ele>1779.0</ele>
        <time>2013-06-30T12:45:43Z</time>
      </trkpt>
      <trkpt lat="40.204700" lon="-4.996367">
        <ele>1778.0</ele>
        <time>2013-06-30T12:45:44Z</time>
      </trkpt>
      <trkpt lat="40.204633" lon="-4.996667">
        <ele>1774.0</ele>
        <time>2013-06-30T12:45:46Z</time>
      </trkpt>
      <trkpt lat="40.204600" lon="-4.996833">
        <ele>1772.0</ele>
        <time>2013-06-30T12:45:47Z</time>
      </trkpt>
      <trkpt lat="40.204567" lon="-4.996967">
        <ele>1770.0</ele>
        <time>2013-06-30T12:45:48Z</time>
      </trkpt>
      <trkpt lat="40.204533" lon="-4.997083">
        <ele>1770.0</ele>
        <time>2013-06-30T12:45:49Z</time>
      </trkpt>
      <trkpt lat="40.204500" lon="-4.997217">
        <ele>1769.0</ele>
        <time>2013-06-30T12:45:50Z</time>
      </trkpt>
      <trkpt lat="40.204450" lon="-4.997350">
        <ele>1768.0</ele>
        <time>2013-06-30T12:45:51Z</time>
      </trkpt>
      <trkpt lat="40.204400" lon="-4.997500">
        <ele>1767.0</ele>
        <time>2013-06-30T12:45:52Z</time>
      </trkpt>
      <trkpt lat="40.204367" lon="-4.997650">
        <ele>1766.0</ele>
        <time>2013-06-30T12:45:53Z</time>
      </trkpt>
      <trkpt lat="40.204317" lon="-4.997783">
        <ele>1766.0</ele>
        <time>2013-06-30T12:45:54Z</time>
      </trkpt>
      <trkpt lat="40.204267" lon="-4.997917">
        <ele>1766.0</ele>
        <time>2013-06-30T12:45:55Z</time>
      </trkpt>
      <trkpt lat="40.204233" lon="-4.998050">
        <ele>1767.0</ele>
        <time>2013-06-30T12:45:56Z</time>
      </trkpt>
      <trkpt lat="40.204183" lon="-4.998183">
        <ele>1767.0</ele>
        <time>2013-06-30T12:45:57Z</time>
      </trkpt>
      <trkpt lat="40.204133" lon="-4.998317">
        <ele>1767.0</ele>
        <time>2013-06-30T12:45:58Z</time>
      </trkpt>
      <trkpt lat="40.204083" lon="-4.998450">
        <ele>1767.0</ele>
        <time>2013-06-30T12:45:59Z</time>
      </trkpt>
      <trkpt lat="40.204033" lon="-4.998583">
        <ele>1767.0</ele>
        <time>2013-06-30T12:46:00Z</time>
      </trkpt>
      <trkpt lat="40.204000" lon="-4.998717">
        <ele>1768.0</ele>
        <time>2013-06-30T12:46:01Z</time>
      </trkpt>
      <trkpt lat="40.203950" lon="-4.998850">
        <ele>1768.0</ele>
        <time>2013-06-30T12:46:02Z</time>
      </trkpt>
      <trkpt lat="40.203900" lon="-4.998983">
        <ele>1768.0</ele>
        <time>2013-06-30T12:46:03Z</time>
      </trkpt>
      <trkpt lat="40.203833" lon="-4.999117">
        <ele>1767.0</ele>
        <time>2013-06-30T12:46:04Z</time>
      </trkpt>
      <trkpt lat="40.203783" lon="-4.999283">
        <ele>1767.0</ele>
        <time>2013-06-30T12:46:05Z</time>
      </trkpt>
      <trkpt lat="40.203733" lon="-4.999433">
        <ele>1767.0</ele>
        <time>2013-06-30T12:46:06Z</time>
      </trkpt>
      <trkpt lat="40.203700" lon="-4.999583">
        <ele>1767.0</ele>
        <time>2013-06-30T12:46:07Z</time>
      </trkpt>
      <trkpt lat="40.203667" lon="-4.999717">
        <ele>1767.0</ele>
        <time>2013-06-30T12:46:08Z</time>
      </trkpt>
      <trkpt lat="40.203583" lon="-5.000017">
        <ele>1767.0</ele>
        <time>2013-06-30T12:46:10Z</time>
      </trkpt>
      <trkpt lat="40.203500" lon="-5.000333">
        <ele>1767.0</ele>
        <time>2013-06-30T12:46:12Z</time>
      </trkpt>
      <trkpt lat="40.203417" lon="-5.000650">
        <ele>1767.0</ele>
        <time>2013-06-30T12:46:14Z</time>
      </trkpt>
      <trkpt lat="40.203383" lon="-5.000783">
        <ele>1767.0</ele>
        <time>2013-06-30T12:46:15Z</time>
      </trkpt>
      <trkpt lat="40.203333" lon="-5.000933">
        <ele>1767.0</ele>
        <time>2013-06-30T12:46:16Z</time>
      </trkpt>
      <trkpt lat="40.203300" lon="-5.001117">
        <ele>1767.0</ele>
        <time>2013-06-30T12:46:17Z</time>
      </trkpt>
      <trkpt lat="40.203267" lon="-5.001283">
        <ele>1766.0</ele>
        <time>2013-06-30T12:46:18Z</time>
      </trkpt>
      <trkpt lat="40.203217" lon="-5.001467">
        <ele>1766.0</ele>
        <time>2013-06-30T12:46:19Z</time>
      </trkpt>
      <trkpt lat="40.203183" lon="-5.001633">
        <ele>1766.0</ele>
        <time>2013-06-30T12:46:20Z</time>
      </trkpt>
      <trkpt lat="40.203150" lon="-5.001783">
        <ele>1767.0</ele>
        <time>2013-06-30T12:46:21Z</time>
      </trkpt>
      <trkpt lat="40.203117" lon="-5.001950">
        <ele>1767.0</ele>
        <time>2013-06-30T12:46:22Z</time>
      </trkpt>
      <trkpt lat="40.203083" lon="-5.002117">
        <ele>1767.0</ele>
        <time>2013-06-30T12:46:23Z</time>
      </trkpt>
      <trkpt lat="40.203067" lon="-5.002283">
        <ele>1767.0</ele>
        <time>2013-06-30T12:46:24Z</time>
      </trkpt>
      <trkpt lat="40.203033" lon="-5.002450">
        <ele>1767.0</ele>
        <time>2013-06-30T12:46:25Z</time>
      </trkpt>
      <trkpt lat="40.202983" lon="-5.002800">
        <ele>1767.0</ele>
        <time>2013-06-30T12:46:27Z</time>
      </trkpt>
      <trkpt lat="40.202950" lon="-5.002967">
        <ele>1767.0</ele>
        <time>2013-06-30T12:46:28Z</time>
      </trkpt>
      <trkpt lat="40.202917" lon="-5.003150">
        <ele>1767.0</ele>
        <time>2013-06-30T12:46:29Z</time>
      </trkpt>
      <trkpt lat="40.202850" lon="-5.003483">
        <ele>1768.0</ele>
        <time>2013-06-30T12:46:31Z</time>
      </trkpt>
      <trkpt lat="40.202833" lon="-5.003650">
        <ele>1769.0</ele>
        <time>2013-06-30T12:46:32Z</time>
      </trkpt>
      <trkpt lat="40.202800" lon="-5.003800">
        <ele>1770.0</ele>
        <time>2013-06-30T12:46:33Z</time>
      </trkpt>
      <trkpt lat="40.202783" lon="-5.003950">
        <ele>1772.0</ele>
        <time>2013-06-30T12:46:34Z</time>
      </trkpt>
      <trkpt lat="40.202750" lon="-5.004083">
        <ele>1772.0</ele>
        <time>2013-06-30T12:46:35Z</time>
      </trkpt>
      <trkpt lat="40.202700" lon="-5.004233">
        <ele>1773.0</ele>
        <time>2013-06-30T12:46:36Z</time>
      </trkpt>
      <trkpt lat="40.202667" lon="-5.004383">
        <ele>1773.0</ele>
        <time>2013-06-30T12:46:37Z</time>
      </trkpt>
      <trkpt lat="40.202633" lon="-5.004550">
        <ele>1774.0</ele>
        <time>2013-06-30T12:46:38Z</time>
      </trkpt>
      <trkpt lat="40.202600" lon="-5.004700">
        <ele>1774.0</ele>
        <time>2013-06-30T12:46:39Z</time>
      </trkpt>
      <trkpt lat="40.202567" lon="-5.004817">
        <ele>1775.0</ele>
        <time>2013-06-30T12:46:40Z</time>
      </trkpt>
      <trkpt lat="40.202550" lon="-5.004950">
        <ele>1775.0</ele>
        <time>2013-06-30T12:46:41Z</time>
      </trkpt>
      <trkpt lat="40.202517" lon="-5.005067">
        <ele>1774.0</ele>
        <time>2013-06-30T12:46:42Z</time>
      </trkpt>
      <trkpt lat="40.202483" lon="-5.005217">
        <ele>1773.0</ele>
        <time>2013-06-30T12:46:43Z</time>
      </trkpt>
      <trkpt lat="40.202450" lon="-5.005383">
        <ele>1772.0</ele>
        <time>2013-06-30T12:46:44Z</time>
      </trkpt>
      <trkpt lat="40.202433" lon="-5.005533">
        <ele>1771.0</ele>
        <time>2013-06-30T12:46:45Z</time>
      </trkpt>
      <trkpt lat="40.202417" lon="-5.005683">
        <ele>1770.0</ele>
        <time>2013-06-30T12:46:46Z</time>
      </trkpt>
      <trkpt lat="40.202400" lon="-5.005833">
        <ele>1770.0</ele>
        <time>2013-06-30T12:46:47Z</time>
      </trkpt>
      <trkpt lat="40.202383" lon="-5.005983">
        <ele>1769.0</ele>
        <time>2013-06-30T12:46:48Z</time>
      </trkpt>
      <trkpt lat="40.202367" lon="-5.006133">
        <ele>1769.0</ele>
        <time>2013-06-30T12:46:49Z</time>
      </trkpt>
      <trkpt lat="40.202350" lon="-5.006283">
        <ele>1766.0</ele>
        <time>2013-06-30T12:46:50Z</time>
      </trkpt>
      <trkpt lat="40.202333" lon="-5.006450">
        <ele>1763.0</ele>
        <time>2013-06-30T12:46:51Z</time>
      </trkpt>
      <trkpt lat="40.202317" lon="-5.006617">
        <ele>1761.0</ele>
        <time>2013-06-30T12:46:52Z</time>
      </trkpt>
      <trkpt lat="40.202283" lon="-5.006767">
        <ele>1760.0</ele>
        <time>2013-06-30T12:46:53Z</time>
      </trkpt>
      <trkpt lat="40.202267" lon="-5.006917">
        <ele>1758.0</ele>
        <time>2013-06-30T12:46:54Z</time>
      </trkpt>
      <trkpt lat="40.202233" lon="-5.007050">
        <ele>1756.0</ele>
        <time>2013-06-30T12:46:55Z</time>
      </trkpt>
      <trkpt lat="40.202217" lon="-5.007200">
        <ele>1754.0</ele>
        <time>2013-06-30T12:46:56Z</time>
      </trkpt>
      <trkpt lat="40.202183" lon="-5.007350">
        <ele>1752.0</ele>
        <time>2013-06-30T12:46:57Z</time>
      </trkpt>
      <trkpt lat="40.202167" lon="-5.007500">
        <ele>1750.0</ele>
        <time>2013-06-30T12:46:58Z</time>
      </trkpt>
      <trkpt lat="40.202133" lon="-5.007650">
        <ele>1749.0</ele>
        <time>2013-06-30T12:46:59Z</time>
      </trkpt>
      <trkpt lat="40.202100" lon="-5.007783">
        <ele>1749.0</ele>
        <time>2013-06-30T12:47:00Z</time>
      </trkpt>
      <trkpt lat="40.202067" lon="-5.007933">
        <ele>1749.0</ele>
        <time>2013-06-30T12:47:01Z</time>
      </trkpt>
      <trkpt lat="40.202017" lon="-5.008067">
        <ele>1749.0</ele>
        <time>2013-06-30T12:47:02Z</time>
      </trkpt>
      <trkpt lat="40.201967" lon="-5.008217">
        <ele>1748.0</ele>
        <time>2013-06-30T12:47:03Z</time>
      </trkpt>
      <trkpt lat="40.201933" lon="-5.008350">
        <ele>1747.0</ele>
        <time>2013-06-30T12:47:04Z</time>
      </trkpt>
      <trkpt lat="40.201883" lon="-5.008483">
        <ele>1747.0</ele>
        <time>2013-06-30T12:47:05Z</time>
      </trkpt>
      <trkpt lat="40.201850" lon="-5.008617">
        <ele>1748.0</ele>
        <time>2013-06-30T12:47:06Z</time>
      </trkpt>
      <trkpt lat="40.201800" lon="-5.008750">
        <ele>1749.0</ele>
        <time>2013-06-30T12:47:07Z</time>
      </trkpt>
      <trkpt lat="40.201750" lon="-5.008883">
        <ele>1749.0</ele>
        <time>2013-06-30T12:47:08Z</time>
      </trkpt>
      <trkpt lat="40.201700" lon="-5.009017">
        <ele>1749.0</ele>
        <time>2013-06-30T12:47:09Z</time>
      </trkpt>
      <trkpt lat="40.201650" lon="-5.009150">
        <ele>1748.0</ele>
        <time>2013-06-30T12:47:10Z</time>
      </trkpt>
      <trkpt lat="40.201600" lon="-5.009300">
        <ele>1748.0</ele>
        <time>2013-06-30T12:47:11Z</time>
      </trkpt>
      <trkpt lat="40.201550" lon="-5.009433">
        <ele>1748.0</ele>
        <time>2013-06-30T12:47:12Z</time>
      </trkpt>
      <trkpt lat="40.201500" lon="-5.009567">
        <ele>1748.0</ele>
        <time>2013-06-30T12:47:13Z</time>
      </trkpt>
      <trkpt lat="40.201450" lon="-5.009700">
        <ele>1748.0</ele>
        <time>2013-06-30T12:47:14Z</time>
      </trkpt>
      <trkpt lat="40.201400" lon="-5.009833">
        <ele>1748.0</ele>
        <time>2013-06-30T12:47:15Z</time>
      </trkpt>
      <trkpt lat="40.201350" lon="-5.009967">
        <ele>1749.0</ele>
        <time>2013-06-30T12:47:16Z</time>
      </trkpt>
      <trkpt lat="40.201317" lon="-5.010100">
        <ele>1749.0</ele>
        <time>2013-06-30T12:47:17Z</time>
      </trkpt>
      <trkpt lat="40.201267" lon="-5.010217">
        <ele>1749.0</ele>
        <time>2013-06-30T12:47:18Z</time>
      </trkpt>
      <trkpt lat="40.201217" lon="-5.010333">
        <ele>1749.0</ele>
        <time>2013-06-30T12:47:19Z</time>
      </trkpt>
      <trkpt lat="40.201183" lon="-5.010467">
        <ele>1749.0</ele>
        <time>2013-06-30T12:47:20Z</time>
      </trkpt>
      <trkpt lat="40.201133" lon="-5.010583">
        <ele>1748.0</ele>
        <time>2013-06-30T12:47:21Z</time>
      </trkpt>
      <trkpt lat="40.201100" lon="-5.010717">
        <ele>1748.0</ele>
        <time>2013-06-30T12:47:22Z</time>
      </trkpt>
      <trkpt lat="40.201050" lon="-5.010833">
        <ele>1747.0</ele>
        <time>2013-06-30T12:47:23Z</time>
      </trkpt>
      <trkpt lat="40.201017" lon="-5.010950">
        <ele>1746.0</ele>
        <time>2013-06-30T12:47:24Z</time>
      </trkpt>
      <trkpt lat="40.200983" lon="-5.011067">
        <ele>1745.0</ele>
        <time>2013-06-30T12:47:25Z</time>
      </trkpt>
      <trkpt lat="40.200933" lon="-5.011183">
        <ele>1743.0</ele>
        <time>2013-06-30T12:47:26Z</time>
      </trkpt>
      <trkpt lat="40.200900" lon="-5.011300">
        <ele>1741.0</ele>
        <time>2013-06-30T12:47:27Z</time>
      </trkpt>
      <trkpt lat="40.200867" lon="-5.011417">
        <ele>1739.0</ele>
        <time>2013-06-30T12:47:28Z</time>
      </trkpt>
      <trkpt lat="40.200833" lon="-5.011533">
        <ele>1738.0</ele>
        <time>2013-06-30T12:47:29Z</time>
      </trkpt>
      <trkpt lat="40.200783" lon="-5.011633">
        <ele>1738.0</ele>
        <time>2013-06-30T12:47:30Z</time>
      </trkpt>
      <trkpt lat="40.200767" lon="-5.011733">
        <ele>1738.0</ele>
        <time>2013-06-30T12:47:31Z</time>
      </trkpt>
      <trkpt lat="40.200733" lon="-5.011833">
        <ele>1737.0</ele>
        <time>2013-06-30T12:47:32Z</time>
      </trkpt>
      <trkpt lat="40.200700" lon="-5.011933">
        <ele>1736.0</ele>
        <time>2013-06-30T12:47:33Z</time>
      </trkpt>
      <trkpt lat="40.200667" lon="-5.012050">
        <ele>1735.0</ele>
        <time>2013-06-30T12:47:34Z</time>
      </trkpt>
      <trkpt lat="40.200633" lon="-5.012167">
        <ele>1735.0</ele>
        <time>2013-06-30T12:47:35Z</time>
      </trkpt>
      <trkpt lat="40.200583" lon="-5.012250">
        <ele>1735.0</ele>
        <time>2013-06-30T12:47:36Z</time>
      </trkpt>
      <trkpt lat="40.200550" lon="-5.012350">
        <ele>1736.0</ele>
        <time>2013-06-30T12:47:37Z</time>
      </trkpt>
      <trkpt lat="40.200517" lon="-5.012450">
        <ele>1736.0</ele>
        <time>2013-06-30T12:47:38Z</time>
      </trkpt>
      <trkpt lat="40.200467" lon="-5.012550">
        <ele>1735.0</ele>
        <time>2013-06-30T12:47:39Z</time>
      </trkpt>
      <trkpt lat="40.200417" lon="-5.012667">
        <ele>1735.0</ele>
        <time>2013-06-30T12:47:40Z</time>
      </trkpt>
      <trkpt lat="40.200383" lon="-5.012767">
        <ele>1735.0</ele>
        <time>2013-06-30T12:47:41Z</time>
      </trkpt>
      <trkpt lat="40.200333" lon="-5.012867">
        <ele>1735.0</ele>
        <time>2013-06-30T12:47:42Z</time>
      </trkpt>
      <trkpt lat="40.200300" lon="-5.012967">
        <ele>1735.0</ele>
        <time>2013-06-30T12:47:43Z</time>
      </trkpt>
      <trkpt lat="40.200267" lon="-5.013083">
        <ele>1734.0</ele>
        <time>2013-06-30T12:47:44Z</time>
      </trkpt>
      <trkpt lat="40.200233" lon="-5.013200">
        <ele>1733.0</ele>
        <time>2013-06-30T12:47:45Z</time>
      </trkpt>
      <trkpt lat="40.200200" lon="-5.013317">
        <ele>1732.0</ele>
        <time>2013-06-30T12:47:46Z</time>
      </trkpt>
      <trkpt lat="40.200167" lon="-5.013417">
        <ele>1732.0</ele>
        <time>2013-06-30T12:47:47Z</time>
      </trkpt>
      <trkpt lat="40.200133" lon="-5.013517">
        <ele>1732.0</ele>
        <time>2013-06-30T12:47:48Z</time>
      </trkpt>
      <trkpt lat="40.200117" lon="-5.013633">
        <ele>1731.0</ele>
        <time>2013-06-30T12:47:49Z</time>
      </trkpt>
      <trkpt lat="40.200067" lon="-5.013733">
        <ele>1730.0</ele>
        <time>2013-06-30T12:47:50Z</time>
      </trkpt>
      <trkpt lat="40.200033" lon="-5.013850">
        <ele>1729.0</ele>
        <time>2013-06-30T12:47:51Z</time>
      </trkpt>
      <trkpt lat="40.200000" lon="-5.013967">
        <ele>1728.0</ele>
        <time>2013-06-30T12:47:52Z</time>
      </trkpt>
      <trkpt lat="40.199967" lon="-5.014083">
        <ele>1727.0</ele>
        <time>2013-06-30T12:47:53Z</time>
      </trkpt>
      <trkpt lat="40.199933" lon="-5.014200">
        <ele>1727.0</ele>
        <time>2013-06-30T12:47:54Z</time>
      </trkpt>
      <trkpt lat="40.199900" lon="-5.014333">
        <ele>1726.0</ele>
        <time>2013-06-30T12:47:55Z</time>
      </trkpt>
      <trkpt lat="40.199883" lon="-5.014450">
        <ele>1724.0</ele>
        <time>2013-06-30T12:47:56Z</time>
      </trkpt>
      <trkpt lat="40.199867" lon="-5.014567">
        <ele>1723.0</ele>
        <time>2013-06-30T12:47:57Z</time>
      </trkpt>
      <trkpt lat="40.199833" lon="-5.014700">
        <ele>1722.0</ele>
        <time>2013-06-30T12:47:58Z</time>
      </trkpt>
      <trkpt lat="40.199817" lon="-5.014817">
        <ele>1721.0</ele>
        <time>2013-06-30T12:47:59Z</time>
      </trkpt>
      <trkpt lat="40.199800" lon="-5.014917">
        <ele>1720.0</ele>
        <time>2013-06-30T12:48:00Z</time>
      </trkpt>
      <trkpt lat="40.199783" lon="-5.015033">
        <ele>1719.0</ele>
        <time>2013-06-30T12:48:01Z</time>
      </trkpt>
      <trkpt lat="40.199767" lon="-5.015133">
        <ele>1719.0</ele>
        <time>2013-06-30T12:48:02Z</time>
      </trkpt>
      <trkpt lat="40.199733" lon="-5.015250">
        <ele>1718.0</ele>
        <time>2013-06-30T12:48:03Z</time>
      </trkpt>
      <trkpt lat="40.199717" lon="-5.015367">
        <ele>1717.0</ele>
        <time>2013-06-30T12:48:04Z</time>
      </trkpt>
      <trkpt lat="40.199683" lon="-5.015483">
        <ele>1715.0</ele>
        <time>2013-06-30T12:48:05Z</time>
      </trkpt>
      <trkpt lat="40.199650" lon="-5.015583">
        <ele>1713.0</ele>
        <time>2013-06-30T12:48:06Z</time>
      </trkpt>
      <trkpt lat="40.199633" lon="-5.015700">
        <ele>1711.0</ele>
        <time>2013-06-30T12:48:07Z</time>
      </trkpt>
      <trkpt lat="40.199600" lon="-5.015800">
        <ele>1709.0</ele>
        <time>2013-06-30T12:48:08Z</time>
      </trkpt>
      <trkpt lat="40.199583" lon="-5.015917">
        <ele>1707.0</ele>
        <time>2013-06-30T12:48:09Z</time>
      </trkpt>
      <trkpt lat="40.199567" lon="-5.016017">
        <ele>1705.0</ele>
        <time>2013-06-30T12:48:10Z</time>
      </trkpt>
      <trkpt lat="40.199550" lon="-5.016117">
        <ele>1702.0</ele>
        <time>2013-06-30T12:48:11Z</time>
      </trkpt>
      <trkpt lat="40.199533" lon="-5.016200">
        <ele>1700.0</ele>
        <time>2013-06-30T12:48:12Z</time>
      </trkpt>
      <trkpt lat="40.199517" lon="-5.016300">
        <ele>1698.0</ele>
        <time>2013-06-30T12:48:13Z</time>
      </trkpt>
      <trkpt lat="40.199500" lon="-5.016400">
        <ele>1694.0</ele>
        <time>2013-06-30T12:48:14Z</time>
      </trkpt>
      <trkpt lat="40.199467" lon="-5.016500">
        <ele>1689.0</ele>
        <time>2013-06-30T12:48:15Z</time>
      </trkpt>
      <trkpt lat="40.199433" lon="-5.016617">
        <ele>1686.0</ele>
        <time>2013-06-30T12:48:16Z</time>
      </trkpt>
      <trkpt lat="40.199400" lon="-5.016733">
        <ele>1683.0</ele>
        <time>2013-06-30T12:48:17Z</time>
      </trkpt>
      <trkpt lat="40.199383" lon="-5.016850">
        <ele>1680.0</ele>
        <time>2013-06-30T12:48:18Z</time>
      </trkpt>
      <trkpt lat="40.199350" lon="-5.016950">
        <ele>1678.0</ele>
        <time>2013-06-30T12:48:19Z</time>
      </trkpt>
      <trkpt lat="40.199333" lon="-5.017083">
        <ele>1674.0</ele>
        <time>2013-06-30T12:48:20Z</time>
      </trkpt>
      <trkpt lat="40.199317" lon="-5.017200">
        <ele>1672.0</ele>
        <time>2013-06-30T12:48:21Z</time>
      </trkpt>
      <trkpt lat="40.199300" lon="-5.017317">
        <ele>1669.0</ele>
        <time>2013-06-30T12:48:22Z</time>
      </trkpt>
      <trkpt lat="40.199267" lon="-5.017450">
        <ele>1666.0</ele>
        <time>2013-06-30T12:48:23Z</time>
      </trkpt>
      <trkpt lat="40.199250" lon="-5.017567">
        <ele>1664.0</ele>
        <time>2013-06-30T12:48:24Z</time>
      </trkpt>
      <trkpt lat="40.199233" lon="-5.017650">
        <ele>1661.0</ele>
        <time>2013-06-30T12:48:25Z</time>
      </trkpt>
      <trkpt lat="40.199217" lon="-5.017767">
        <ele>1658.0</ele>
        <time>2013-06-30T12:48:26Z</time>
      </trkpt>
      <trkpt lat="40.199200" lon="-5.017883">
        <ele>1655.0</ele>
        <time>2013-06-30T12:48:27Z</time>
      </trkpt>
      <trkpt lat="40.199183" lon="-5.018000">
        <ele>1652.0</ele>
        <time>2013-06-30T12:48:28Z</time>
      </trkpt>
      <trkpt lat="40.199150" lon="-5.018117">
        <ele>1648.0</ele>
        <time>2013-06-30T12:48:29Z</time>
      </trkpt>
      <trkpt lat="40.199133" lon="-5.018250">
        <ele>1645.0</ele>
        <time>2013-06-30T12:48:30Z</time>
      </trkpt>
      <trkpt lat="40.199117" lon="-5.018383">
        <ele>1641.0</ele>
        <time>2013-06-30T12:48:31Z</time>
      </trkpt>
      <trkpt lat="40.199100" lon="-5.018517">
        <ele>1638.0</ele>
        <time>2013-06-30T12:48:32Z</time>
      </trkpt>
      <trkpt lat="40.199083" lon="-5.018683">
        <ele>1634.0</ele>
        <time>2013-06-30T12:48:33Z</time>
      </trkpt>
      <trkpt lat="40.199067" lon="-5.018817">
        <ele>1632.0</ele>
        <time>2013-06-30T12:48:34Z</time>
      </trkpt>
      <trkpt lat="40.199067" lon="-5.018933">
        <ele>1631.0</ele>
        <time>2013-06-30T12:48:35Z</time>
      </trkpt>
      <trkpt lat="40.199050" lon="-5.019033">
        <ele>1631.0</ele>
        <time>2013-06-30T12:48:36Z</time>
      </trkpt>
      <trkpt lat="40.199033" lon="-5.019117">
        <ele>1631.0</ele>
        <time>2013-06-30T12:48:37Z</time>
      </trkpt>
      <trkpt lat="40.199033" lon="-5.019233">
        <ele>1630.0</ele>
        <time>2013-06-30T12:48:38Z</time>
      </trkpt>
      <trkpt lat="40.199000" lon="-5.019350">
        <ele>1631.0</ele>
        <time>2013-06-30T12:48:39Z</time>
      </trkpt>
      <trkpt lat="40.198983" lon="-5.019467">
        <ele>1630.0</ele>
        <time>2013-06-30T12:48:40Z</time>
      </trkpt>
      <trkpt lat="40.198967" lon="-5.019583">
        <ele>1628.0</ele>
        <time>2013-06-30T12:48:41Z</time>
      </trkpt>
      <trkpt lat="40.198967" lon="-5.019700">
        <ele>1627.0</ele>
        <time>2013-06-30T12:48:42Z</time>
      </trkpt>
      <trkpt lat="40.198950" lon="-5.019833">
        <ele>1625.0</ele>
        <time>2013-06-30T12:48:43Z</time>
      </trkpt>
      <trkpt lat="40.198950" lon="-5.019933">
        <ele>1624.0</ele>
        <time>2013-06-30T12:48:44Z</time>
      </trkpt>
      <trkpt lat="40.198950" lon="-5.020033">
        <ele>1623.0</ele>
        <time>2013-06-30T12:48:45Z</time>
      </trkpt>
      <trkpt lat="40.198933" lon="-5.020133">
        <ele>1623.0</ele>
        <time>2013-06-30T12:48:46Z</time>
      </trkpt>
      <trkpt lat="40.198883" lon="-5.020450">
        <ele>1616.0</ele>
        <time>2013-06-30T12:48:49Z</time>
      </trkpt>
      <trkpt lat="40.198867" lon="-5.020583">
        <ele>1614.0</ele>
        <time>2013-06-30T12:48:50Z</time>
      </trkpt>
      <trkpt lat="40.198867" lon="-5.020683">
        <ele>1613.0</ele>
        <time>2013-06-30T12:48:51Z</time>
      </trkpt>
      <trkpt lat="40.198833" lon="-5.020767">
        <ele>1613.0</ele>
        <time>2013-06-30T12:48:52Z</time>
      </trkpt>
      <trkpt lat="40.198800" lon="-5.020967">
        <ele>1609.0</ele>
        <time>2013-06-30T12:48:54Z</time>
      </trkpt>
      <trkpt lat="40.198767" lon="-5.021083">
        <ele>1607.0</ele>
        <time>2013-06-30T12:48:55Z</time>
      </trkpt>
      <trkpt lat="40.198750" lon="-5.021200">
        <ele>1604.0</ele>
        <time>2013-06-30T12:48:56Z</time>
      </trkpt>
      <trkpt lat="40.198733" lon="-5.021333">
        <ele>1603.0</ele>
        <time>2013-06-30T12:48:57Z</time>
      </trkpt>
      <trkpt lat="40.198717" lon="-5.021433">
        <ele>1602.0</ele>
        <time>2013-06-30T12:48:58Z</time>
      </trkpt>
      <trkpt lat="40.198700" lon="-5.021533">
        <ele>1600.0</ele>
        <time>2013-06-30T12:48:59Z</time>
      </trkpt>
      <trkpt lat="40.198683" lon="-5.021650">
        <ele>1598.0</ele>
        <time>2013-06-30T12:49:00Z</time>
      </trkpt>
      <trkpt lat="40.198667" lon="-5.021767">
        <ele>1596.0</ele>
        <time>2013-06-30T12:49:01Z</time>
      </trkpt>
      <trkpt lat="40.198650" lon="-5.021900">
        <ele>1594.0</ele>
        <time>2013-06-30T12:49:02Z</time>
      </trkpt>
      <trkpt lat="40.198633" lon="-5.022017">
        <ele>1593.0</ele>
        <time>2013-06-30T12:49:03Z</time>
      </trkpt>
      <trkpt lat="40.198617" lon="-5.022150">
        <ele>1592.0</ele>
        <time>2013-06-30T12:49:04Z</time>
      </trkpt>
      <trkpt lat="40.198617" lon="-5.022283">
        <ele>1590.0</ele>
        <time>2013-06-30T12:49:05Z</time>
      </trkpt>
      <trkpt lat="40.198600" lon="-5.022417">
        <ele>1589.0</ele>
        <time>2013-06-30T12:49:06Z</time>
      </trkpt>
      <trkpt lat="40.198600" lon="-5.022550">
        <ele>1587.0</ele>
        <time>2013-06-30T12:49:07Z</time>
      </trkpt>
      <trkpt lat="40.198600" lon="-5.022683">
        <ele>1585.0</ele>
        <time>2013-06-30T12:49:08Z</time>
      </trkpt>
      <trkpt lat="40.198600" lon="-5.022817">
        <ele>1583.0</ele>
        <time>2013-06-30T12:49:09Z</time>
      </trkpt>
      <trkpt lat="40.198600" lon="-5.022933">
        <ele>1581.0</ele>
        <time>2013-06-30T12:49:10Z</time>
      </trkpt>
      <trkpt lat="40.198600" lon="-5.023067">
        <ele>1578.0</ele>
        <time>2013-06-30T12:49:11Z</time>
      </trkpt>
      <trkpt lat="40.198600" lon="-5.023200">
        <ele>1575.0</ele>
        <time>2013-06-30T12:49:12Z</time>
      </trkpt>
      <trkpt lat="40.198600" lon="-5.023333">
        <ele>1572.0</ele>
        <time>2013-06-30T12:49:13Z</time>
      </trkpt>
      <trkpt lat="40.198583" lon="-5.023583">
        <ele>1566.0</ele>
        <time>2013-06-30T12:49:15Z</time>
      </trkpt>
      <trkpt lat="40.198567" lon="-5.023717">
        <ele>1564.0</ele>
        <time>2013-06-30T12:49:16Z</time>
      </trkpt>
      <trkpt lat="40.198567" lon="-5.023850">
        <ele>1562.0</ele>
        <time>2013-06-30T12:49:17Z</time>
      </trkpt>
      <trkpt lat="40.198567" lon="-5.023967">
        <ele>1561.0</ele>
        <time>2013-06-30T12:49:18Z</time>
      </trkpt>
      <trkpt lat="40.198583" lon="-5.024083">
        <ele>1560.0</ele>
        <time>2013-06-30T12:49:19Z</time>
      </trkpt>
      <trkpt lat="40.198583" lon="-5.024217">
        <ele>1558.0</ele>
        <time>2013-06-30T12:49:20Z</time>
      </trkpt>
      <trkpt lat="40.198583" lon="-5.024350">
        <ele>1555.0</ele>
        <time>2013-06-30T12:49:21Z</time>
      </trkpt>
      <trkpt lat="40.198567" lon="-5.024650">
        <ele>1550.0</ele>
        <time>2013-06-30T12:49:23Z</time>
      </trkpt>
      <trkpt lat="40.198567" lon="-5.024800">
        <ele>1549.0</ele>
        <time>2013-06-30T12:49:24Z</time>
      </trkpt>
      <trkpt lat="40.198567" lon="-5.024933">
        <ele>1547.0</ele>
        <time>2013-06-30T12:49:25Z</time>
      </trkpt>
      <trkpt lat="40.198567" lon="-5.025067">
        <ele>1545.0</ele>
        <time>2013-06-30T12:49:26Z</time>
      </trkpt>
      <trkpt lat="40.198550" lon="-5.025217">
        <ele>1543.0</ele>
        <time>2013-06-30T12:49:27Z</time>
      </trkpt>
      <trkpt lat="40.198550" lon="-5.025367">
        <ele>1541.0</ele>
        <time>2013-06-30T12:49:28Z</time>
      </trkpt>
      <trkpt lat="40.198533" lon="-5.025650">
        <ele>1539.0</ele>
        <time>2013-06-30T12:49:30Z</time>
      </trkpt>
      <trkpt lat="40.198517" lon="-5.025783">
        <ele>1538.0</ele>
        <time>2013-06-30T12:49:31Z</time>
      </trkpt>
      <trkpt lat="40.198517" lon="-5.025917">
        <ele>1537.0</ele>
        <time>2013-06-30T12:49:32Z</time>
      </trkpt>
      <trkpt lat="40.198500" lon="-5.026050">
        <ele>1536.0</ele>
        <time>2013-06-30T12:49:33Z</time>
      </trkpt>
      <trkpt lat="40.198483" lon="-5.026200">
        <ele>1533.0</ele>
        <time>2013-06-30T12:49:34Z</time>
      </trkpt>
      <trkpt lat="40.198450" lon="-5.026350">
        <ele>1531.0</ele>
        <time>2013-06-30T12:49:35Z</time>
      </trkpt>
      <trkpt lat="40.198433" lon="-5.026483">
        <ele>1530.0</ele>
        <time>2013-06-30T12:49:36Z</time>
      </trkpt>
      <trkpt lat="40.198417" lon="-5.026600">
        <ele>1528.0</ele>
        <time>2013-06-30T12:49:37Z</time>
      </trkpt>
      <trkpt lat="40.198400" lon="-5.026733">
        <ele>1527.0</ele>
        <time>2013-06-30T12:49:38Z</time>
      </trkpt>
      <trkpt lat="40.198367" lon="-5.026867">
        <ele>1526.0</ele>
        <time>2013-06-30T12:49:39Z</time>
      </trkpt>
      <trkpt lat="40.198350" lon="-5.027000">
        <ele>1524.0</ele>
        <time>2013-06-30T12:49:40Z</time>
      </trkpt>
      <trkpt lat="40.198333" lon="-5.027133">
        <ele>1522.0</ele>
        <time>2013-06-30T12:49:41Z</time>
      </trkpt>
      <trkpt lat="40.198317" lon="-5.027267">
        <ele>1521.0</ele>
        <time>2013-06-30T12:49:42Z</time>
      </trkpt>
      <trkpt lat="40.198300" lon="-5.027400">
        <ele>1519.0</ele>
        <time>2013-06-30T12:49:43Z</time>
      </trkpt>
      <trkpt lat="40.198283" lon="-5.027550">
        <ele>1517.0</ele>
        <time>2013-06-30T12:49:44Z</time>
      </trkpt>
      <trkpt lat="40.198283" lon="-5.027700">
        <ele>1515.0</ele>
        <time>2013-06-30T12:49:45Z</time>
      </trkpt>
      <trkpt lat="40.198267" lon="-5.027850">
        <ele>1513.0</ele>
        <time>2013-06-30T12:49:46Z</time>
      </trkpt>
      <trkpt lat="40.198267" lon="-5.027983">
        <ele>1511.0</ele>
        <time>2013-06-30T12:49:47Z</time>
      </trkpt>
      <trkpt lat="40.198250" lon="-5.028133">
        <ele>1510.0</ele>
        <time>2013-06-30T12:49:48Z</time>
      </trkpt>
      <trkpt lat="40.198233" lon="-5.028267">
        <ele>1508.0</ele>
        <time>2013-06-30T12:49:49Z</time>
      </trkpt>
      <trkpt lat="40.198217" lon="-5.028433">
        <ele>1506.0</ele>
        <time>2013-06-30T12:49:50Z</time>
      </trkpt>
      <trkpt lat="40.198217" lon="-5.028567">
        <ele>1504.0</ele>
        <time>2013-06-30T12:49:51Z</time>
      </trkpt>
      <trkpt lat="40.198200" lon="-5.028717">
        <ele>1502.0</ele>
        <time>2013-06-30T12:49:52Z</time>
      </trkpt>
      <trkpt lat="40.198183" lon="-5.028850">
        <ele>1501.0</ele>
        <time>2013-06-30T12:49:53Z</time>
      </trkpt>
      <trkpt lat="40.198183" lon="-5.028983">
        <ele>1500.0</ele>
        <time>2013-06-30T12:49:54Z</time>
      </trkpt>
      <trkpt lat="40.198167" lon="-5.029117">
        <ele>1498.0</ele>
        <time>2013-06-30T12:49:55Z</time>
      </trkpt>
      <trkpt lat="40.198150" lon="-5.029250">
        <ele>1496.0</ele>
        <time>2013-06-30T12:49:56Z</time>
      </trkpt>
      <trkpt lat="40.198133" lon="-5.029383">
        <ele>1495.0</ele>
        <time>2013-06-30T12:49:57Z</time>
      </trkpt>
      <trkpt lat="40.198133" lon="-5.029517">
        <ele>1493.0</ele>
        <time>2013-06-30T12:49:58Z</time>
      </trkpt>
      <trkpt lat="40.198117" lon="-5.029667">
        <ele>1491.0</ele>
        <time>2013-06-30T12:49:59Z</time>
      </trkpt>
      <trkpt lat="40.198100" lon="-5.029800">
        <ele>1490.0</ele>
        <time>2013-06-30T12:50:00Z</time>
      </trkpt>
      <trkpt lat="40.198083" lon="-5.029917">
        <ele>1489.0</ele>
        <time>2013-06-30T12:50:01Z</time>
      </trkpt>
      <trkpt lat="40.198067" lon="-5.030050">
        <ele>1488.0</ele>
        <time>2013-06-30T12:50:02Z</time>
      </trkpt>
      <trkpt lat="40.198067" lon="-5.030150">
        <ele>1488.0</ele>
        <time>2013-06-30T12:50:03Z</time>
      </trkpt>
      <trkpt lat="40.198050" lon="-5.030267">
        <ele>1488.0</ele>
        <time>2013-06-30T12:50:04Z</time>
      </trkpt>
      <trkpt lat="40.198033" lon="-5.030400">
        <ele>1488.0</ele>
        <time>2013-06-30T12:50:05Z</time>
      </trkpt>
      <trkpt lat="40.198017" lon="-5.030517">
        <ele>1487.0</ele>
        <time>2013-06-30T12:50:06Z</time>
      </trkpt>
      <trkpt lat="40.198000" lon="-5.030650">
        <ele>1485.0</ele>
        <time>2013-06-30T12:50:07Z</time>
      </trkpt>
      <trkpt lat="40.198000" lon="-5.030767">
        <ele>1484.0</ele>
        <time>2013-06-30T12:50:08Z</time>
      </trkpt>
      <trkpt lat="40.197983" lon="-5.030900">
        <ele>1483.0</ele>
        <time>2013-06-30T12:50:09Z</time>
      </trkpt>
      <trkpt lat="40.197983" lon="-5.031033">
        <ele>1481.0</ele>
        <time>2013-06-30T12:50:10Z</time>
      </trkpt>
      <trkpt lat="40.197983" lon="-5.031183">
        <ele>1479.0</ele>
        <time>2013-06-30T12:50:11Z</time>
      </trkpt>
      <trkpt lat="40.197983" lon="-5.031317">
        <ele>1477.0</ele>
        <time>2013-06-30T12:50:12Z</time>
      </trkpt>
      <trkpt lat="40.197983" lon="-5.031450">
        <ele>1475.0</ele>
        <time>2013-06-30T12:50:13Z</time>
      </trkpt>
      <trkpt lat="40.197983" lon="-5.031567">
        <ele>1475.0</ele>
        <time>2013-06-30T12:50:14Z</time>
      </trkpt>
      <trkpt lat="40.197967" lon="-5.031683">
        <ele>1473.0</ele>
        <time>2013-06-30T12:50:15Z</time>
      </trkpt>
      <trkpt lat="40.197967" lon="-5.031800">
        <ele>1472.0</ele>
        <time>2013-06-30T12:50:16Z</time>
      </trkpt>
      <trkpt lat="40.197950" lon="-5.031917">
        <ele>1471.0</ele>
        <time>2013-06-30T12:50:17Z</time>
      </trkpt>
      <trkpt lat="40.197933" lon="-5.032033">
        <ele>1470.0</ele>
        <time>2013-06-30T12:50:18Z</time>
      </trkpt>
      <trkpt lat="40.197900" lon="-5.032150">
        <ele>1468.0</ele>
        <time>2013-06-30T12:50:19Z</time>
      </trkpt>
      <trkpt lat="40.197883" lon="-5.032267">
        <ele>1466.0</ele>
        <time>2013-06-30T12:50:20Z</time>
      </trkpt>
      <trkpt lat="40.197850" lon="-5.032400">
        <ele>1463.0</ele>
        <time>2013-06-30T12:50:21Z</time>
      </trkpt>
      <trkpt lat="40.197800" lon="-5.032550">
        <ele>1461.0</ele>
        <time>2013-06-30T12:50:22Z</time>
      </trkpt>
      <trkpt lat="40.197767" lon="-5.032683">
        <ele>1459.0</ele>
        <time>2013-06-30T12:50:23Z</time>
      </trkpt>
      <trkpt lat="40.197750" lon="-5.032817">
        <ele>1458.0</ele>
        <time>2013-06-30T12:50:24Z</time>
      </trkpt>
      <trkpt lat="40.197733" lon="-5.032933">
        <ele>1456.0</ele>
        <time>2013-06-30T12:50:25Z</time>
      </trkpt>
      <trkpt lat="40.197733" lon="-5.033083">
        <ele>1454.0</ele>
        <time>2013-06-30T12:50:26Z</time>
      </trkpt>
      <trkpt lat="40.197717" lon="-5.033217">
        <ele>1451.0</ele>
        <time>2013-06-30T12:50:27Z</time>
      </trkpt>
      <trkpt lat="40.197700" lon="-5.033367">
        <ele>1449.0</ele>
        <time>2013-06-30T12:50:28Z</time>
      </trkpt>
      <trkpt lat="40.197683" lon="-5.033500">
        <ele>1448.0</ele>
        <time>2013-06-30T12:50:29Z</time>
      </trkpt>
      <trkpt lat="40.197650" lon="-5.033617">
        <ele>1447.0</ele>
        <time>2013-06-30T12:50:30Z</time>
      </trkpt>
      <trkpt lat="40.197617" lon="-5.033750">
        <ele>1445.0</ele>
        <time>2013-06-30T12:50:31Z</time>
      </trkpt>
      <trkpt lat="40.197583" lon="-5.033900">
        <ele>1443.0</ele>
        <time>2013-06-30T12:50:32Z</time>
      </trkpt>
      <trkpt lat="40.197567" lon="-5.034033">
        <ele>1442.0</ele>
        <time>2013-06-30T12:50:33Z</time>
      </trkpt>
      <trkpt lat="40.197533" lon="-5.034167">
        <ele>1441.0</ele>
        <time>2013-06-30T12:50:34Z</time>
      </trkpt>
      <trkpt lat="40.197517" lon="-5.034317">
        <ele>1440.0</ele>
        <time>2013-06-30T12:50:35Z</time>
      </trkpt>
      <trkpt lat="40.197483" lon="-5.034433">
        <ele>1440.0</ele>
        <time>2013-06-30T12:50:36Z</time>
      </trkpt>
      <trkpt lat="40.197450" lon="-5.034567">
        <ele>1439.0</ele>
        <time>2013-06-30T12:50:37Z</time>
      </trkpt>
      <trkpt lat="40.197417" lon="-5.034700">
        <ele>1438.0</ele>
        <time>2013-06-30T12:50:38Z</time>
      </trkpt>
      <trkpt lat="40.197367" lon="-5.034833">
        <ele>1437.0</ele>
        <time>2013-06-30T12:50:39Z</time>
      </trkpt>
      <trkpt lat="40.197333" lon="-5.034967">
        <ele>1435.0</ele>
        <time>2013-06-30T12:50:40Z</time>
      </trkpt>
      <trkpt lat="40.197300" lon="-5.035100">
        <ele>1434.0</ele>
        <time>2013-06-30T12:50:41Z</time>
      </trkpt>
      <trkpt lat="40.197250" lon="-5.035233">
        <ele>1433.0</ele>
        <time>2013-06-30T12:50:42Z</time>
      </trkpt>
      <trkpt lat="40.197217" lon="-5.035350">
        <ele>1432.0</ele>
        <time>2013-06-30T12:50:43Z</time>
      </trkpt>
      <trkpt lat="40.197183" lon="-5.035467">
        <ele>1430.0</ele>
        <time>2013-06-30T12:50:44Z</time>
      </trkpt>
      <trkpt lat="40.197133" lon="-5.035583">
        <ele>1429.0</ele>
        <time>2013-06-30T12:50:45Z</time>
      </trkpt>
      <trkpt lat="40.197100" lon="-5.035700">
        <ele>1428.0</ele>
        <time>2013-06-30T12:50:46Z</time>
      </trkpt>
      <trkpt lat="40.197050" lon="-5.035817">
        <ele>1426.0</ele>
        <time>2013-06-30T12:50:47Z</time>
      </trkpt>
      <trkpt lat="40.197017" lon="-5.035917">
        <ele>1425.0</ele>
        <time>2013-06-30T12:50:48Z</time>
      </trkpt>
      <trkpt lat="40.196983" lon="-5.036033">
        <ele>1424.0</ele>
        <time>2013-06-30T12:50:49Z</time>
      </trkpt>
      <trkpt lat="40.196933" lon="-5.036150">
        <ele>1422.0</ele>
        <time>2013-06-30T12:50:50Z</time>
      </trkpt>
      <trkpt lat="40.196883" lon="-5.036250">
        <ele>1420.0</ele>
        <time>2013-06-30T12:50:51Z</time>
      </trkpt>
      <trkpt lat="40.196833" lon="-5.036367">
        <ele>1418.0</ele>
        <time>2013-06-30T12:50:52Z</time>
      </trkpt>
      <trkpt lat="40.196800" lon="-5.036483">
        <ele>1417.0</ele>
        <time>2013-06-30T12:50:53Z</time>
      </trkpt>
      <trkpt lat="40.196767" lon="-5.036600">
        <ele>1415.0</ele>
        <time>2013-06-30T12:50:54Z</time>
      </trkpt>
      <trkpt lat="40.196717" lon="-5.036717">
        <ele>1413.0</ele>
        <time>2013-06-30T12:50:55Z</time>
      </trkpt>
      <trkpt lat="40.196683" lon="-5.036833">
        <ele>1412.0</ele>
        <time>2013-06-30T12:50:56Z</time>
      </trkpt>
      <trkpt lat="40.196650" lon="-5.036950">
        <ele>1411.0</ele>
        <time>2013-06-30T12:50:57Z</time>
      </trkpt>
      <trkpt lat="40.196600" lon="-5.037067">
        <ele>1409.0</ele>
        <time>2013-06-30T12:50:58Z</time>
      </trkpt>
      <trkpt lat="40.196567" lon="-5.037183">
        <ele>1408.0</ele>
        <time>2013-06-30T12:50:59Z</time>
      </trkpt>
      <trkpt lat="40.196517" lon="-5.037300">
        <ele>1406.0</ele>
        <time>2013-06-30T12:51:00Z</time>
      </trkpt>
      <trkpt lat="40.196483" lon="-5.037417">
        <ele>1405.0</ele>
        <time>2013-06-30T12:51:01Z</time>
      </trkpt>
      <trkpt lat="40.196450" lon="-5.037550">
        <ele>1404.0</ele>
        <time>2013-06-30T12:51:02Z</time>
      </trkpt>
      <trkpt lat="40.196417" lon="-5.037667">
        <ele>1403.0</ele>
        <time>2013-06-30T12:51:03Z</time>
      </trkpt>
      <trkpt lat="40.196383" lon="-5.037783">
        <ele>1403.0</ele>
        <time>2013-06-30T12:51:04Z</time>
      </trkpt>
      <trkpt lat="40.196350" lon="-5.037900">
        <ele>1403.0</ele>
        <time>2013-06-30T12:51:05Z</time>
      </trkpt>
      <trkpt lat="40.196317" lon="-5.038033">
        <ele>1402.0</ele>
        <time>2013-06-30T12:51:06Z</time>
      </trkpt>
      <trkpt lat="40.196283" lon="-5.038150">
        <ele>1401.0</ele>
        <time>2013-06-30T12:51:07Z</time>
      </trkpt>
      <trkpt lat="40.196233" lon="-5.038283">
        <ele>1399.0</ele>
        <time>2013-06-30T12:51:08Z</time>
      </trkpt>
      <trkpt lat="40.196183" lon="-5.038517">
        <ele>1398.0</ele>
        <time>2013-06-30T12:51:10Z</time>
      </trkpt>
      <trkpt lat="40.196150" lon="-5.038633">
        <ele>1397.0</ele>
        <time>2013-06-30T12:51:11Z</time>
      </trkpt>
      <trkpt lat="40.196117" lon="-5.038750">
        <ele>1395.0</ele>
        <time>2013-06-30T12:51:12Z</time>
      </trkpt>
      <trkpt lat="40.196100" lon="-5.038850">
        <ele>1394.0</ele>
        <time>2013-06-30T12:51:13Z</time>
      </trkpt>
      <trkpt lat="40.196067" lon="-5.038950">
        <ele>1391.0</ele>
        <time>2013-06-30T12:51:14Z</time>
      </trkpt>
      <trkpt lat="40.196033" lon="-5.039067">
        <ele>1390.0</ele>
        <time>2013-06-30T12:51:15Z</time>
      </trkpt>
      <trkpt lat="40.196000" lon="-5.039200">
        <ele>1388.0</ele>
        <time>2013-06-30T12:51:16Z</time>
      </trkpt>
      <trkpt lat="40.195967" lon="-5.039317">
        <ele>1386.0</ele>
        <time>2013-06-30T12:51:17Z</time>
      </trkpt>
      <trkpt lat="40.195950" lon="-5.039433">
        <ele>1385.0</ele>
        <time>2013-06-30T12:51:18Z</time>
      </trkpt>
      <trkpt lat="40.195917" lon="-5.039550">
        <ele>1384.0</ele>
        <time>2013-06-30T12:51:19Z</time>
      </trkpt>
      <trkpt lat="40.195900" lon="-5.039667">
        <ele>1381.0</ele>
        <time>2013-06-30T12:51:20Z</time>
      </trkpt>
      <trkpt lat="40.195883" lon="-5.039783">
        <ele>1377.0</ele>
        <time>2013-06-30T12:51:21Z</time>
      </trkpt>
      <trkpt lat="40.195850" lon="-5.039917">
        <ele>1375.0</ele>
        <time>2013-06-30T12:51:22Z</time>
      </trkpt>
      <trkpt lat="40.195817" lon="-5.040050">
        <ele>1372.0</ele>
        <time>2013-06-30T12:51:23Z</time>
      </trkpt>
      <trkpt lat="40.195783" lon="-5.040183">
        <ele>1370.0</ele>
        <time>2013-06-30T12:51:24Z</time>
      </trkpt>
      <trkpt lat="40.195750" lon="-5.040300">
        <ele>1368.0</ele>
        <time>2013-06-30T12:51:25Z</time>
      </trkpt>
      <trkpt lat="40.195717" lon="-5.040417">
        <ele>1366.0</ele>
        <time>2013-06-30T12:51:26Z</time>
      </trkpt>
      <trkpt lat="40.195683" lon="-5.040533">
        <ele>1364.0</ele>
        <time>2013-06-30T12:51:27Z</time>
      </trkpt>
      <trkpt lat="40.195650" lon="-5.040633">
        <ele>1362.0</ele>
        <time>2013-06-30T12:51:28Z</time>
      </trkpt>
      <trkpt lat="40.195617" lon="-5.040750">
        <ele>1360.0</ele>
        <time>2013-06-30T12:51:29Z</time>
      </trkpt>
      <trkpt lat="40.195567" lon="-5.040867">
        <ele>1358.0</ele>
        <time>2013-06-30T12:51:30Z</time>
      </trkpt>
      <trkpt lat="40.195517" lon="-5.040983">
        <ele>1357.0</ele>
        <time>2013-06-30T12:51:31Z</time>
      </trkpt>
      <trkpt lat="40.195483" lon="-5.041083">
        <ele>1355.0</ele>
        <time>2013-06-30T12:51:32Z</time>
      </trkpt>
      <trkpt lat="40.195433" lon="-5.041183">
        <ele>1352.0</ele>
        <time>2013-06-30T12:51:33Z</time>
      </trkpt>
      <trkpt lat="40.195400" lon="-5.041283">
        <ele>1350.0</ele>
        <time>2013-06-30T12:51:34Z</time>
      </trkpt>
      <trkpt lat="40.195350" lon="-5.041400">
        <ele>1348.0</ele>
        <time>2013-06-30T12:51:35Z</time>
      </trkpt>
      <trkpt lat="40.195317" lon="-5.041500">
        <ele>1346.0</ele>
        <time>2013-06-30T12:51:36Z</time>
      </trkpt>
      <trkpt lat="40.195267" lon="-5.041617">
        <ele>1343.0</ele>
        <time>2013-06-30T12:51:37Z</time>
      </trkpt>
      <trkpt lat="40.195233" lon="-5.041733">
        <ele>1341.0</ele>
        <time>2013-06-30T12:51:38Z</time>
      </trkpt>
      <trkpt lat="40.195183" lon="-5.041833">
        <ele>1340.0</ele>
        <time>2013-06-30T12:51:39Z</time>
      </trkpt>
      <trkpt lat="40.195150" lon="-5.041950">
        <ele>1338.0</ele>
        <time>2013-06-30T12:51:40Z</time>
      </trkpt>
      <trkpt lat="40.195133" lon="-5.042067">
        <ele>1336.0</ele>
        <time>2013-06-30T12:51:41Z</time>
      </trkpt>
      <trkpt lat="40.195100" lon="-5.042167">
        <ele>1335.0</ele>
        <time>2013-06-30T12:51:42Z</time>
      </trkpt>
      <trkpt lat="40.195033" lon="-5.042400">
        <ele>1331.0</ele>
        <time>2013-06-30T12:51:44Z</time>
      </trkpt>
      <trkpt lat="40.195017" lon="-5.042517">
        <ele>1330.0</ele>
        <time>2013-06-30T12:51:45Z</time>
      </trkpt>
      <trkpt lat="40.195000" lon="-5.042633">
        <ele>1328.0</ele>
        <time>2013-06-30T12:51:46Z</time>
      </trkpt>
      <trkpt lat="40.194983" lon="-5.042750">
        <ele>1326.0</ele>
        <time>2013-06-30T12:51:47Z</time>
      </trkpt>
      <trkpt lat="40.194950" lon="-5.042867">
        <ele>1324.0</ele>
        <time>2013-06-30T12:51:48Z</time>
      </trkpt>
      <trkpt lat="40.194933" lon="-5.042983">
        <ele>1322.0</ele>
        <time>2013-06-30T12:51:49Z</time>
      </trkpt>
      <trkpt lat="40.194917" lon="-5.043100">
        <ele>1320.0</ele>
        <time>2013-06-30T12:51:50Z</time>
      </trkpt>
      <trkpt lat="40.194900" lon="-5.043217">
        <ele>1318.0</ele>
        <time>2013-06-30T12:51:51Z</time>
      </trkpt>
      <trkpt lat="40.194883" lon="-5.043333">
        <ele>1317.0</ele>
        <time>2013-06-30T12:51:52Z</time>
      </trkpt>
      <trkpt lat="40.194867" lon="-5.043450">
        <ele>1315.0</ele>
        <time>2013-06-30T12:51:53Z</time>
      </trkpt>
      <trkpt lat="40.194850" lon="-5.043550">
        <ele>1314.0</ele>
        <time>2013-06-30T12:51:54Z</time>
      </trkpt>
      <trkpt lat="40.194833" lon="-5.043683">
        <ele>1312.0</ele>
        <time>2013-06-30T12:51:55Z</time>
      </trkpt>
      <trkpt lat="40.194817" lon="-5.043800">
        <ele>1310.0</ele>
        <time>2013-06-30T12:51:56Z</time>
      </trkpt>
      <trkpt lat="40.194800" lon="-5.043917">
        <ele>1307.0</ele>
        <time>2013-06-30T12:51:57Z</time>
      </trkpt>
      <trkpt lat="40.194783" lon="-5.044050">
        <ele>1305.0</ele>
        <time>2013-06-30T12:51:58Z</time>
      </trkpt>
      <trkpt lat="40.194767" lon="-5.044167">
        <ele>1303.0</ele>
        <time>2013-06-30T12:51:59Z</time>
      </trkpt>
      <trkpt lat="40.194750" lon="-5.044267">
        <ele>1301.0</ele>
        <time>2013-06-30T12:52:00Z</time>
      </trkpt>
      <trkpt lat="40.194733" lon="-5.044500">
        <ele>1298.0</ele>
        <time>2013-06-30T12:52:02Z</time>
      </trkpt>
      <trkpt lat="40.194717" lon="-5.044617">
        <ele>1295.0</ele>
        <time>2013-06-30T12:52:03Z</time>
      </trkpt>
      <trkpt lat="40.194700" lon="-5.044767">
        <ele>1293.0</ele>
        <time>2013-06-30T12:52:04Z</time>
      </trkpt>
      <trkpt lat="40.194683" lon="-5.044900">
        <ele>1291.0</ele>
        <time>2013-06-30T12:52:05Z</time>
      </trkpt>
      <trkpt lat="40.194683" lon="-5.045017">
        <ele>1289.0</ele>
        <time>2013-06-30T12:52:06Z</time>
      </trkpt>
      <trkpt lat="40.194683" lon="-5.045133">
        <ele>1288.0</ele>
        <time>2013-06-30T12:52:07Z</time>
      </trkpt>
      <trkpt lat="40.194667" lon="-5.045250">
        <ele>1286.0</ele>
        <time>2013-06-30T12:52:08Z</time>
      </trkpt>
      <trkpt lat="40.194650" lon="-5.045367">
        <ele>1284.0</ele>
        <time>2013-06-30T12:52:09Z</time>
      </trkpt>
      <trkpt lat="40.194633" lon="-5.045517">
        <ele>1282.0</ele>
        <time>2013-06-30T12:52:10Z</time>
      </trkpt>
      <trkpt lat="40.194617" lon="-5.045650">
        <ele>1279.0</ele>
        <time>2013-06-30T12:52:11Z</time>
      </trkpt>
      <trkpt lat="40.194617" lon="-5.045800">
        <ele>1277.0</ele>
        <time>2013-06-30T12:52:12Z</time>
      </trkpt>
      <trkpt lat="40.194600" lon="-5.045917">
        <ele>1275.0</ele>
        <time>2013-06-30T12:52:13Z</time>
      </trkpt>
      <trkpt lat="40.194600" lon="-5.046033">
        <ele>1274.0</ele>
        <time>2013-06-30T12:52:14Z</time>
      </trkpt>
      <trkpt lat="40.194600" lon="-5.046167">
        <ele>1272.0</ele>
        <time>2013-06-30T12:52:15Z</time>
      </trkpt>
      <trkpt lat="40.194600" lon="-5.046283">
        <ele>1269.0</ele>
        <time>2013-06-30T12:52:16Z</time>
      </trkpt>
      <trkpt lat="40.194583" lon="-5.046417">
        <ele>1265.0</ele>
        <time>2013-06-30T12:52:17Z</time>
      </trkpt>
      <trkpt lat="40.194567" lon="-5.046567">
        <ele>1261.0</ele>
        <time>2013-06-30T12:52:18Z</time>
      </trkpt>
      <trkpt lat="40.194550" lon="-5.046700">
        <ele>1258.0</ele>
        <time>2013-06-30T12:52:19Z</time>
      </trkpt>
      <trkpt lat="40.194533" lon="-5.046817">
        <ele>1256.0</ele>
        <time>2013-06-30T12:52:20Z</time>
      </trkpt>
      <trkpt lat="40.194517" lon="-5.046950">
        <ele>1254.0</ele>
        <time>2013-06-30T12:52:21Z</time>
      </trkpt>
      <trkpt lat="40.194483" lon="-5.047083">
        <ele>1251.0</ele>
        <time>2013-06-30T12:52:22Z</time>
      </trkpt>
      <trkpt lat="40.194467" lon="-5.047217">
        <ele>1249.0</ele>
        <time>2013-06-30T12:52:23Z</time>
      </trkpt>
      <trkpt lat="40.194433" lon="-5.047333">
        <ele>1246.0</ele>
        <time>2013-06-30T12:52:24Z</time>
      </trkpt>
      <trkpt lat="40.194417" lon="-5.047483">
        <ele>1243.0</ele>
        <time>2013-06-30T12:52:25Z</time>
      </trkpt>
      <trkpt lat="40.194400" lon="-5.047617">
        <ele>1241.0</ele>
        <time>2013-06-30T12:52:26Z</time>
      </trkpt>
      <trkpt lat="40.194383" lon="-5.047750">
        <ele>1239.0</ele>
        <time>2013-06-30T12:52:27Z</time>
      </trkpt>
      <trkpt lat="40.194383" lon="-5.047883">
        <ele>1236.0</ele>
        <time>2013-06-30T12:52:28Z</time>
      </trkpt>
      <trkpt lat="40.194383" lon="-5.048033">
        <ele>1233.0</ele>
        <time>2013-06-30T12:52:29Z</time>
      </trkpt>
      <trkpt lat="40.194383" lon="-5.048183">
        <ele>1230.0</ele>
        <time>2013-06-30T12:52:30Z</time>
      </trkpt>
      <trkpt lat="40.194383" lon="-5.048317">
        <ele>1228.0</ele>
        <time>2013-06-30T12:52:31Z</time>
      </trkpt>
      <trkpt lat="40.194383" lon="-5.048467">
        <ele>1226.0</ele>
        <time>2013-06-30T12:52:32Z</time>
      </trkpt>
      <trkpt lat="40.194367" lon="-5.048583">
        <ele>1224.0</ele>
        <time>2013-06-30T12:52:33Z</time>
      </trkpt>
      <trkpt lat="40.194350" lon="-5.048717">
        <ele>1222.0</ele>
        <time>2013-06-30T12:52:34Z</time>
      </trkpt>
      <trkpt lat="40.194350" lon="-5.048867">
        <ele>1219.0</ele>
        <time>2013-06-30T12:52:35Z</time>
      </trkpt>
      <trkpt lat="40.194333" lon="-5.049000">
        <ele>1216.0</ele>
        <time>2013-06-30T12:52:36Z</time>
      </trkpt>
      <trkpt lat="40.194317" lon="-5.049150">
        <ele>1214.0</ele>
        <time>2013-06-30T12:52:37Z</time>
      </trkpt>
      <trkpt lat="40.194317" lon="-5.049283">
        <ele>1213.0</ele>
        <time>2013-06-30T12:52:38Z</time>
      </trkpt>
      <trkpt lat="40.194300" lon="-5.049400">
        <ele>1211.0</ele>
        <time>2013-06-30T12:52:39Z</time>
      </trkpt>
      <trkpt lat="40.194283" lon="-5.049533">
        <ele>1210.0</ele>
        <time>2013-06-30T12:52:40Z</time>
      </trkpt>
      <trkpt lat="40.194283" lon="-5.049667">
        <ele>1208.0</ele>
        <time>2013-06-30T12:52:41Z</time>
      </trkpt>
      <trkpt lat="40.194267" lon="-5.049800">
        <ele>1205.0</ele>
        <time>2013-06-30T12:52:42Z</time>
      </trkpt>
      <trkpt lat="40.194267" lon="-5.049933">
        <ele>1203.0</ele>
        <time>2013-06-30T12:52:43Z</time>
      </trkpt>
      <trkpt lat="40.194250" lon="-5.050333">
        <ele>1199.0</ele>
        <time>2013-06-30T12:52:46Z</time>
      </trkpt>
      <trkpt lat="40.194250" lon="-5.050467">
        <ele>1197.0</ele>
        <time>2013-06-30T12:52:47Z</time>
      </trkpt>
      <trkpt lat="40.194233" lon="-5.050617">
        <ele>1196.0</ele>
        <time>2013-06-30T12:52:48Z</time>
      </trkpt>
      <trkpt lat="40.194233" lon="-5.050767">
        <ele>1194.0</ele>
        <time>2013-06-30T12:52:49Z</time>
      </trkpt>
      <trkpt lat="40.194233" lon="-5.050917">
        <ele>1193.0</ele>
        <time>2013-06-30T12:52:50Z</time>
      </trkpt>
      <trkpt lat="40.194233" lon="-5.051033">
        <ele>1191.0</ele>
        <time>2013-06-30T12:52:51Z</time>
      </trkpt>
      <trkpt lat="40.194233" lon="-5.051167">
        <ele>1190.0</ele>
        <time>2013-06-30T12:52:52Z</time>
      </trkpt>
      <trkpt lat="40.194233" lon="-5.051300">
        <ele>1189.0</ele>
        <time>2013-06-30T12:52:53Z</time>
      </trkpt>
      <trkpt lat="40.194233" lon="-5.051450">
        <ele>1186.0</ele>
        <time>2013-06-30T12:52:54Z</time>
      </trkpt>
      <trkpt lat="40.194233" lon="-5.051600">
        <ele>1185.0</ele>
        <time>2013-06-30T12:52:55Z</time>
      </trkpt>
      <trkpt lat="40.194233" lon="-5.051733">
        <ele>1183.0</ele>
        <time>2013-06-30T12:52:56Z</time>
      </trkpt>
      <trkpt lat="40.194217" lon="-5.051867">
        <ele>1182.0</ele>
        <time>2013-06-30T12:52:57Z</time>
      </trkpt>
      <trkpt lat="40.194200" lon="-5.052250">
        <ele>1179.0</ele>
        <time>2013-06-30T12:53:00Z</time>
      </trkpt>
      <trkpt lat="40.194200" lon="-5.052367">
        <ele>1178.0</ele>
        <time>2013-06-30T12:53:01Z</time>
      </trkpt>
      <trkpt lat="40.194183" lon="-5.052500">
        <ele>1176.0</ele>
        <time>2013-06-30T12:53:02Z</time>
      </trkpt>
      <trkpt lat="40.194183" lon="-5.052650">
        <ele>1175.0</ele>
        <time>2013-06-30T12:53:03Z</time>
      </trkpt>
      <trkpt lat="40.194167" lon="-5.052783">
        <ele>1173.0</ele>
        <time>2013-06-30T12:53:04Z</time>
      </trkpt>
      <trkpt lat="40.194150" lon="-5.052917">
        <ele>1172.0</ele>
        <time>2013-06-30T12:53:05Z</time>
      </trkpt>
      <trkpt lat="40.194150" lon="-5.053050">
        <ele>1171.0</ele>
        <time>2013-06-30T12:53:06Z</time>
      </trkpt>
      <trkpt lat="40.194150" lon="-5.053200">
        <ele>1170.0</ele>
        <time>2013-06-30T12:53:07Z</time>
      </trkpt>
      <trkpt lat="40.194150" lon="-5.053317">
        <ele>1170.0</ele>
        <time>2013-06-30T12:53:08Z</time>
      </trkpt>
      <trkpt lat="40.194150" lon="-5.053450">
        <ele>1169.0</ele>
        <time>2013-06-30T12:53:09Z</time>
      </trkpt>
      <trkpt lat="40.194133" lon="-5.053567">
        <ele>1169.0</ele>
        <time>2013-06-30T12:53:10Z</time>
      </trkpt>
      <trkpt lat="40.194133" lon="-5.053683">
        <ele>1168.0</ele>
        <time>2013-06-30T12:53:11Z</time>
      </trkpt>
      <trkpt lat="40.194117" lon="-5.053817">
        <ele>1167.0</ele>
        <time>2013-06-30T12:53:12Z</time>
      </trkpt>
      <trkpt lat="40.194117" lon="-5.053950">
        <ele>1166.0</ele>
        <time>2013-06-30T12:53:13Z</time>
      </trkpt>
      <trkpt lat="40.194100" lon="-5.054083">
        <ele>1165.0</ele>
        <time>2013-06-30T12:53:14Z</time>
      </trkpt>
      <trkpt lat="40.194100" lon="-5.054217">
        <ele>1164.0</ele>
        <time>2013-06-30T12:53:15Z</time>
      </trkpt>
      <trkpt lat="40.194083" lon="-5.054350">
        <ele>1163.0</ele>
        <time>2013-06-30T12:53:16Z</time>
      </trkpt>
      <trkpt lat="40.194067" lon="-5.054483">
        <ele>1163.0</ele>
        <time>2013-06-30T12:53:17Z</time>
      </trkpt>
      <trkpt lat="40.194050" lon="-5.054617">
        <ele>1162.0</ele>
        <time>2013-06-30T12:53:18Z</time>
      </trkpt>
      <trkpt lat="40.194033" lon="-5.054767">
        <ele>1161.0</ele>
        <time>2013-06-30T12:53:19Z</time>
      </trkpt>
      <trkpt lat="40.194033" lon="-5.054917">
        <ele>1160.0</ele>
        <time>2013-06-30T12:53:20Z</time>
      </trkpt>
      <trkpt lat="40.194017" lon="-5.055050">
        <ele>1159.0</ele>
        <time>2013-06-30T12:53:21Z</time>
      </trkpt>
      <trkpt lat="40.194000" lon="-5.055183">
        <ele>1158.0</ele>
        <time>2013-06-30T12:53:22Z</time>
      </trkpt>
      <trkpt lat="40.194000" lon="-5.055317">
        <ele>1157.0</ele>
        <time>2013-06-30T12:53:23Z</time>
      </trkpt>
      <trkpt lat="40.193983" lon="-5.055467">
        <ele>1156.0</ele>
        <time>2013-06-30T12:53:24Z</time>
      </trkpt>
      <trkpt lat="40.193967" lon="-5.055600">
        <ele>1155.0</ele>
        <time>2013-06-30T12:53:25Z</time>
      </trkpt>
      <trkpt lat="40.193933" lon="-5.055750">
        <ele>1154.0</ele>
        <time>2013-06-30T12:53:26Z</time>
      </trkpt>
      <trkpt lat="40.193917" lon="-5.055900">
        <ele>1152.0</ele>
        <time>2013-06-30T12:53:27Z</time>
      </trkpt>
      <trkpt lat="40.193900" lon="-5.056050">
        <ele>1151.0</ele>
        <time>2013-06-30T12:53:28Z</time>
      </trkpt>
      <trkpt lat="40.193900" lon="-5.056183">
        <ele>1151.0</ele>
        <time>2013-06-30T12:53:29Z</time>
      </trkpt>
      <trkpt lat="40.193900" lon="-5.056317">
        <ele>1151.0</ele>
        <time>2013-06-30T12:53:30Z</time>
      </trkpt>
      <trkpt lat="40.193883" lon="-5.056450">
        <ele>1150.0</ele>
        <time>2013-06-30T12:53:31Z</time>
      </trkpt>
      <trkpt lat="40.193867" lon="-5.056600">
        <ele>1149.0</ele>
        <time>2013-06-30T12:53:32Z</time>
      </trkpt>
      <trkpt lat="40.193850" lon="-5.056733">
        <ele>1148.0</ele>
        <time>2013-06-30T12:53:33Z</time>
      </trkpt>
      <trkpt lat="40.193817" lon="-5.056883">
        <ele>1147.0</ele>
        <time>2013-06-30T12:53:34Z</time>
      </trkpt>
      <trkpt lat="40.193767" lon="-5.057167">
        <ele>1146.0</ele>
        <time>2013-06-30T12:53:36Z</time>
      </trkpt>
      <trkpt lat="40.193750" lon="-5.057300">
        <ele>1146.0</ele>
        <time>2013-06-30T12:53:37Z</time>
      </trkpt>
      <trkpt lat="40.193717" lon="-5.057450">
        <ele>1145.0</ele>
        <time>2013-06-30T12:53:38Z</time>
      </trkpt>
      <trkpt lat="40.193700" lon="-5.057600">
        <ele>1145.0</ele>
        <time>2013-06-30T12:53:39Z</time>
      </trkpt>
      <trkpt lat="40.193683" lon="-5.057733">
        <ele>1144.0</ele>
        <time>2013-06-30T12:53:40Z</time>
      </trkpt>
      <trkpt lat="40.193650" lon="-5.057867">
        <ele>1143.0</ele>
        <time>2013-06-30T12:53:41Z</time>
      </trkpt>
      <trkpt lat="40.193633" lon="-5.058017">
        <ele>1142.0</ele>
        <time>2013-06-30T12:53:42Z</time>
      </trkpt>
      <trkpt lat="40.193617" lon="-5.058167">
        <ele>1142.0</ele>
        <time>2013-06-30T12:53:43Z</time>
      </trkpt>
      <trkpt lat="40.193600" lon="-5.058300">
        <ele>1140.0</ele>
        <time>2013-06-30T12:53:44Z</time>
      </trkpt>
      <trkpt lat="40.193583" lon="-5.058450">
        <ele>1139.0</ele>
        <time>2013-06-30T12:53:45Z</time>
      </trkpt>
      <trkpt lat="40.193567" lon="-5.058583">
        <ele>1138.0</ele>
        <time>2013-06-30T12:53:46Z</time>
      </trkpt>
      <trkpt lat="40.193533" lon="-5.058733">
        <ele>1137.0</ele>
        <time>2013-06-30T12:53:47Z</time>
      </trkpt>
      <trkpt lat="40.193500" lon="-5.058867">
        <ele>1136.0</ele>
        <time>2013-06-30T12:53:48Z</time>
      </trkpt>
      <trkpt lat="40.193483" lon="-5.059000">
        <ele>1135.0</ele>
        <time>2013-06-30T12:53:49Z</time>
      </trkpt>
      <trkpt lat="40.193467" lon="-5.059133">
        <ele>1133.0</ele>
        <time>2013-06-30T12:53:50Z</time>
      </trkpt>
      <trkpt lat="40.193450" lon="-5.059267">
        <ele>1132.0</ele>
        <time>2013-06-30T12:53:51Z</time>
      </trkpt>
      <trkpt lat="40.193417" lon="-5.059550">
        <ele>1128.0</ele>
        <time>2013-06-30T12:53:53Z</time>
      </trkpt>
      <trkpt lat="40.193400" lon="-5.059700">
        <ele>1126.0</ele>
        <time>2013-06-30T12:53:54Z</time>
      </trkpt>
      <trkpt lat="40.193383" lon="-5.059850">
        <ele>1124.0</ele>
        <time>2013-06-30T12:53:55Z</time>
      </trkpt>
      <trkpt lat="40.193383" lon="-5.060000">
        <ele>1122.0</ele>
        <time>2013-06-30T12:53:56Z</time>
      </trkpt>
      <trkpt lat="40.193367" lon="-5.060133">
        <ele>1121.0</ele>
        <time>2013-06-30T12:53:57Z</time>
      </trkpt>
      <trkpt lat="40.193350" lon="-5.060267">
        <ele>1119.0</ele>
        <time>2013-06-30T12:53:58Z</time>
      </trkpt>
      <trkpt lat="40.193333" lon="-5.060400">
        <ele>1118.0</ele>
        <time>2013-06-30T12:53:59Z</time>
      </trkpt>
      <trkpt lat="40.193333" lon="-5.060533">
        <ele>1116.0</ele>
        <time>2013-06-30T12:54:00Z</time>
      </trkpt>
      <trkpt lat="40.193333" lon="-5.060667">
        <ele>1114.0</ele>
        <time>2013-06-30T12:54:01Z</time>
      </trkpt>
      <trkpt lat="40.193333" lon="-5.060800">
        <ele>1112.0</ele>
        <time>2013-06-30T12:54:02Z</time>
      </trkpt>
      <trkpt lat="40.193317" lon="-5.060933">
        <ele>1110.0</ele>
        <time>2013-06-30T12:54:03Z</time>
      </trkpt>
      <trkpt lat="40.193317" lon="-5.061067">
        <ele>1110.0</ele>
        <time>2013-06-30T12:54:04Z</time>
      </trkpt>
      <trkpt lat="40.193317" lon="-5.061167">
        <ele>1109.0</ele>
        <time>2013-06-30T12:54:05Z</time>
      </trkpt>
      <trkpt lat="40.193300" lon="-5.061283">
        <ele>1109.0</ele>
        <time>2013-06-30T12:54:06Z</time>
      </trkpt>
      <trkpt lat="40.193300" lon="-5.061383">
        <ele>1109.0</ele>
        <time>2013-06-30T12:54:07Z</time>
      </trkpt>
      <trkpt lat="40.193300" lon="-5.061517">
        <ele>1109.0</ele>
        <time>2013-06-30T12:54:08Z</time>
      </trkpt>
      <trkpt lat="40.193300" lon="-5.061633">
        <ele>1108.0</ele>
        <time>2013-06-30T12:54:09Z</time>
      </trkpt>
      <trkpt lat="40.193283" lon="-5.061767">
        <ele>1108.0</ele>
        <time>2013-06-30T12:54:10Z</time>
      </trkpt>
      <trkpt lat="40.193250" lon="-5.061983">
        <ele>1108.0</ele>
        <time>2013-06-30T12:54:12Z</time>
      </trkpt>
      <trkpt lat="40.193250" lon="-5.062083">
        <ele>1109.0</ele>
        <time>2013-06-30T12:54:13Z</time>
      </trkpt>
      <trkpt lat="40.193233" lon="-5.062183">
        <ele>1110.0</ele>
        <time>2013-06-30T12:54:14Z</time>
      </trkpt>
      <trkpt lat="40.193217" lon="-5.062283">
        <ele>1111.0</ele>
        <time>2013-06-30T12:54:15Z</time>
      </trkpt>
      <trkpt lat="40.193183" lon="-5.062350">
        <ele>1112.0</ele>
        <time>2013-06-30T12:54:16Z</time>
      </trkpt>
      <trkpt lat="40.193150" lon="-5.062417">
        <ele>1113.0</ele>
        <time>2013-06-30T12:54:17Z</time>
      </trkpt>
      <trkpt lat="40.193117" lon="-5.062467">
        <ele>1113.0</ele>
        <time>2013-06-30T12:54:18Z</time>
      </trkpt>
      <trkpt lat="40.193067" lon="-5.062517">
        <ele>1113.0</ele>
        <time>2013-06-30T12:54:19Z</time>
      </trkpt>
      <trkpt lat="40.193017" lon="-5.062567">
        <ele>1113.0</ele>
        <time>2013-06-30T12:54:20Z</time>
      </trkpt>
      <trkpt lat="40.192983" lon="-5.062617">
        <ele>1112.0</ele>
        <time>2013-06-30T12:54:21Z</time>
      </trkpt>
      <trkpt lat="40.192933" lon="-5.062650">
        <ele>1112.0</ele>
        <time>2013-06-30T12:54:22Z</time>
      </trkpt>
      <trkpt lat="40.192883" lon="-5.062700">
        <ele>1112.0</ele>
        <time>2013-06-30T12:54:23Z</time>
      </trkpt>
      <trkpt lat="40.192850" lon="-5.062750">
        <ele>1111.0</ele>
        <time>2013-06-30T12:54:24Z</time>
      </trkpt>
      <trkpt lat="40.192783" lon="-5.062817">
        <ele>1110.0</ele>
        <time>2013-06-30T12:54:25Z</time>
      </trkpt>
      <trkpt lat="40.192733" lon="-5.062867">
        <ele>1109.0</ele>
        <time>2013-06-30T12:54:26Z</time>
      </trkpt>
      <trkpt lat="40.192683" lon="-5.062933">
        <ele>1109.0</ele>
        <time>2013-06-30T12:54:27Z</time>
      </trkpt>
      <trkpt lat="40.192650" lon="-5.062983">
        <ele>1108.0</ele>
        <time>2013-06-30T12:54:28Z</time>
      </trkpt>
      <trkpt lat="40.192600" lon="-5.063067">
        <ele>1107.0</ele>
        <time>2013-06-30T12:54:29Z</time>
      </trkpt>
      <trkpt lat="40.192567" lon="-5.063133">
        <ele>1107.0</ele>
        <time>2013-06-30T12:54:30Z</time>
      </trkpt>
      <trkpt lat="40.192517" lon="-5.063200">
        <ele>1106.0</ele>
        <time>2013-06-30T12:54:31Z</time>
      </trkpt>
      <trkpt lat="40.192467" lon="-5.063283">
        <ele>1104.0</ele>
        <time>2013-06-30T12:54:32Z</time>
      </trkpt>
      <trkpt lat="40.192433" lon="-5.063350">
        <ele>1104.0</ele>
        <time>2013-06-30T12:54:33Z</time>
      </trkpt>
      <trkpt lat="40.192383" lon="-5.063433">
        <ele>1103.0</ele>
        <time>2013-06-30T12:54:34Z</time>
      </trkpt>
      <trkpt lat="40.192350" lon="-5.063533">
        <ele>1103.0</ele>
        <time>2013-06-30T12:54:35Z</time>
      </trkpt>
      <trkpt lat="40.192317" lon="-5.063617">
        <ele>1102.0</ele>
        <time>2013-06-30T12:54:36Z</time>
      </trkpt>
      <trkpt lat="40.192267" lon="-5.063717">
        <ele>1102.0</ele>
        <time>2013-06-30T12:54:37Z</time>
      </trkpt>
      <trkpt lat="40.192233" lon="-5.063800">
        <ele>1101.0</ele>
        <time>2013-06-30T12:54:38Z</time>
      </trkpt>
      <trkpt lat="40.192200" lon="-5.063900">
        <ele>1100.0</ele>
        <time>2013-06-30T12:54:39Z</time>
      </trkpt>
      <trkpt lat="40.192167" lon="-5.064000">
        <ele>1098.0</ele>
        <time>2013-06-30T12:54:40Z</time>
      </trkpt>
      <trkpt lat="40.192117" lon="-5.064100">
        <ele>1095.0</ele>
        <time>2013-06-30T12:54:41Z</time>
      </trkpt>
      <trkpt lat="40.192083" lon="-5.064200">
        <ele>1092.0</ele>
        <time>2013-06-30T12:54:42Z</time>
      </trkpt>
      <trkpt lat="40.192050" lon="-5.064300">
        <ele>1090.0</ele>
        <time>2013-06-30T12:54:43Z</time>
      </trkpt>
      <trkpt lat="40.192017" lon="-5.064400">
        <ele>1088.0</ele>
        <time>2013-06-30T12:54:44Z</time>
      </trkpt>
      <trkpt lat="40.191983" lon="-5.064517">
        <ele>1086.0</ele>
        <time>2013-06-30T12:54:45Z</time>
      </trkpt>
      <trkpt lat="40.191950" lon="-5.064617">
        <ele>1083.0</ele>
        <time>2013-06-30T12:54:46Z</time>
      </trkpt>
      <trkpt lat="40.191917" lon="-5.064717">
        <ele>1081.0</ele>
        <time>2013-06-30T12:54:47Z</time>
      </trkpt>
      <trkpt lat="40.191900" lon="-5.064800">
        <ele>1079.0</ele>
        <time>2013-06-30T12:54:48Z</time>
      </trkpt>
      <trkpt lat="40.191867" lon="-5.064900">
        <ele>1077.0</ele>
        <time>2013-06-30T12:54:49Z</time>
      </trkpt>
      <trkpt lat="40.191833" lon="-5.065000">
        <ele>1074.0</ele>
        <time>2013-06-30T12:54:50Z</time>
      </trkpt>
      <trkpt lat="40.191800" lon="-5.065100">
        <ele>1072.0</ele>
        <time>2013-06-30T12:54:51Z</time>
      </trkpt>
      <trkpt lat="40.191767" lon="-5.065200">
        <ele>1069.0</ele>
        <time>2013-06-30T12:54:52Z</time>
      </trkpt>
      <trkpt lat="40.191733" lon="-5.065283">
        <ele>1067.0</ele>
        <time>2013-06-30T12:54:53Z</time>
      </trkpt>
      <trkpt lat="40.191683" lon="-5.065383">
        <ele>1065.0</ele>
        <time>2013-06-30T12:54:54Z</time>
      </trkpt>
      <trkpt lat="40.191650" lon="-5.065467">
        <ele>1063.0</ele>
        <time>2013-06-30T12:54:55Z</time>
      </trkpt>
      <trkpt lat="40.191617" lon="-5.065567">
        <ele>1061.0</ele>
        <time>2013-06-30T12:54:56Z</time>
      </trkpt>
      <trkpt lat="40.191583" lon="-5.065650">
        <ele>1058.0</ele>
        <time>2013-06-30T12:54:57Z</time>
      </trkpt>
      <trkpt lat="40.191550" lon="-5.065750">
        <ele>1056.0</ele>
        <time>2013-06-30T12:54:58Z</time>
      </trkpt>
      <trkpt lat="40.191517" lon="-5.065833">
        <ele>1054.0</ele>
        <time>2013-06-30T12:54:59Z</time>
      </trkpt>
      <trkpt lat="40.191483" lon="-5.065917">
        <ele>1051.0</ele>
        <time>2013-06-30T12:55:00Z</time>
      </trkpt>
      <trkpt lat="40.191450" lon="-5.066017">
        <ele>1049.0</ele>
        <time>2013-06-30T12:55:01Z</time>
      </trkpt>
      <trkpt lat="40.191417" lon="-5.066100">
        <ele>1046.0</ele>
        <time>2013-06-30T12:55:02Z</time>
      </trkpt>
      <trkpt lat="40.191367" lon="-5.066200">
        <ele>1043.0</ele>
        <time>2013-06-30T12:55:03Z</time>
      </trkpt>
      <trkpt lat="40.191333" lon="-5.066283">
        <ele>1039.0</ele>
        <time>2013-06-30T12:55:04Z</time>
      </trkpt>
      <trkpt lat="40.191300" lon="-5.066383">
        <ele>1036.0</ele>
        <time>2013-06-30T12:55:05Z</time>
      </trkpt>
      <trkpt lat="40.191250" lon="-5.066467">
        <ele>1033.0</ele>
        <time>2013-06-30T12:55:06Z</time>
      </trkpt>
      <trkpt lat="40.191217" lon="-5.066550">
        <ele>1030.0</ele>
        <time>2013-06-30T12:55:07Z</time>
      </trkpt>
      <trkpt lat="40.191183" lon="-5.066650">
        <ele>1027.0</ele>
        <time>2013-06-30T12:55:08Z</time>
      </trkpt>
      <trkpt lat="40.191133" lon="-5.066750">
        <ele>1024.0</ele>
        <time>2013-06-30T12:55:09Z</time>
      </trkpt>
      <trkpt lat="40.191100" lon="-5.066833">
        <ele>1021.0</ele>
        <time>2013-06-30T12:55:10Z</time>
      </trkpt>
      <trkpt lat="40.191067" lon="-5.066917">
        <ele>1018.0</ele>
        <time>2013-06-30T12:55:11Z</time>
      </trkpt>
      <trkpt lat="40.191033" lon="-5.067000">
        <ele>1016.0</ele>
        <time>2013-06-30T12:55:12Z</time>
      </trkpt>
      <trkpt lat="40.191000" lon="-5.067083">
        <ele>1013.0</ele>
        <time>2013-06-30T12:55:13Z</time>
      </trkpt>
      <trkpt lat="40.190967" lon="-5.067150">
        <ele>1010.0</ele>
        <time>2013-06-30T12:55:14Z</time>
      </trkpt>
      <trkpt lat="40.190933" lon="-5.067233">
        <ele>1007.0</ele>
        <time>2013-06-30T12:55:15Z</time>
      </trkpt>
      <trkpt lat="40.190900" lon="-5.067333">
        <ele>1004.0</ele>
        <time>2013-06-30T12:55:16Z</time>
      </trkpt>
      <trkpt lat="40.190867" lon="-5.067433">
        <ele>1000.0</ele>
        <time>2013-06-30T12:55:17Z</time>
      </trkpt>
      <trkpt lat="40.190800" lon="-5.067633">
        <ele>994.0</ele>
        <time>2013-06-30T12:55:19Z</time>
      </trkpt>
      <trkpt lat="40.190767" lon="-5.067717">
        <ele>992.0</ele>
        <time>2013-06-30T12:55:20Z</time>
      </trkpt>
      <trkpt lat="40.190733" lon="-5.067817">
        <ele>989.0</ele>
        <time>2013-06-30T12:55:21Z</time>
      </trkpt>
      <trkpt lat="40.190700" lon="-5.067900">
        <ele>985.0</ele>
        <time>2013-06-30T12:55:22Z</time>
      </trkpt>
      <trkpt lat="40.190650" lon="-5.067967">
        <ele>981.0</ele>
        <time>2013-06-30T12:55:23Z</time>
      </trkpt>
      <trkpt lat="40.190600" lon="-5.068050">
        <ele>977.0</ele>
        <time>2013-06-30T12:55:24Z</time>
      </trkpt>
      <trkpt lat="40.190550" lon="-5.068117">
        <ele>973.0</ele>
        <time>2013-06-30T12:55:25Z</time>
      </trkpt>
      <trkpt lat="40.190500" lon="-5.068183">
        <ele>969.0</ele>
        <time>2013-06-30T12:55:26Z</time>
      </trkpt>
      <trkpt lat="40.190450" lon="-5.068267">
        <ele>965.0</ele>
        <time>2013-06-30T12:55:27Z</time>
      </trkpt>
      <trkpt lat="40.190400" lon="-5.068350">
        <ele>961.0</ele>
        <time>2013-06-30T12:55:28Z</time>
      </trkpt>
      <trkpt lat="40.190367" lon="-5.068433">
        <ele>957.0</ele>
        <time>2013-06-30T12:55:29Z</time>
      </trkpt>
      <trkpt lat="40.190317" lon="-5.068517">
        <ele>953.0</ele>
        <time>2013-06-30T12:55:30Z</time>
      </trkpt>
      <trkpt lat="40.190283" lon="-5.068617">
        <ele>949.0</ele>
        <time>2013-06-30T12:55:31Z</time>
      </trkpt>
      <trkpt lat="40.190250" lon="-5.068717">
        <ele>946.0</ele>
        <time>2013-06-30T12:55:32Z</time>
      </trkpt>
      <trkpt lat="40.190217" lon="-5.068817">
        <ele>942.0</ele>
        <time>2013-06-30T12:55:33Z</time>
      </trkpt>
      <trkpt lat="40.190183" lon="-5.068917">
        <ele>939.0</ele>
        <time>2013-06-30T12:55:34Z</time>
      </trkpt>
      <trkpt lat="40.190167" lon="-5.069000">
        <ele>936.0</ele>
        <time>2013-06-30T12:55:35Z</time>
      </trkpt>
      <trkpt lat="40.190133" lon="-5.069100">
        <ele>933.0</ele>
        <time>2013-06-30T12:55:36Z</time>
      </trkpt>
      <trkpt lat="40.190100" lon="-5.069200">
        <ele>929.0</ele>
        <time>2013-06-30T12:55:37Z</time>
      </trkpt>
      <trkpt lat="40.190067" lon="-5.069317">
        <ele>925.0</ele>
        <time>2013-06-30T12:55:38Z</time>
      </trkpt>
      <trkpt lat="40.190017" lon="-5.069417">
        <ele>922.0</ele>
        <time>2013-06-30T12:55:39Z</time>
      </trkpt>
      <trkpt lat="40.189983" lon="-5.069533">
        <ele>919.0</ele>
        <time>2013-06-30T12:55:40Z</time>
      </trkpt>
      <trkpt lat="40.189950" lon="-5.069650">
        <ele>916.0</ele>
        <time>2013-06-30T12:55:41Z</time>
      </trkpt>
      <trkpt lat="40.189883" lon="-5.069883">
        <ele>909.0</ele>
        <time>2013-06-30T12:55:43Z</time>
      </trkpt>
      <trkpt lat="40.189850" lon="-5.070000">
        <ele>906.0</ele>
        <time>2013-06-30T12:55:44Z</time>
      </trkpt>
      <trkpt lat="40.189817" lon="-5.070100">
        <ele>904.0</ele>
        <time>2013-06-30T12:55:45Z</time>
      </trkpt>
      <trkpt lat="40.189783" lon="-5.070200">
        <ele>902.0</ele>
        <time>2013-06-30T12:55:46Z</time>
      </trkpt>
      <trkpt lat="40.189767" lon="-5.070283">
        <ele>899.0</ele>
        <time>2013-06-30T12:55:47Z</time>
      </trkpt>
      <trkpt lat="40.189683" lon="-5.070483">
        <ele>893.0</ele>
        <time>2013-06-30T12:55:49Z</time>
      </trkpt>
      <trkpt lat="40.189633" lon="-5.070600">
        <ele>891.0</ele>
        <time>2013-06-30T12:55:50Z</time>
      </trkpt>
      <trkpt lat="40.189567" lon="-5.070800">
        <ele>885.0</ele>
        <time>2013-06-30T12:55:52Z</time>
      </trkpt>
      <trkpt lat="40.189517" lon="-5.070900">
        <ele>883.0</ele>
        <time>2013-06-30T12:55:53Z</time>
      </trkpt>
      <trkpt lat="40.189483" lon="-5.071000">
        <ele>880.0</ele>
        <time>2013-06-30T12:55:54Z</time>
      </trkpt>
      <trkpt lat="40.189433" lon="-5.071100">
        <ele>877.0</ele>
        <time>2013-06-30T12:55:55Z</time>
      </trkpt>
      <trkpt lat="40.189400" lon="-5.071217">
        <ele>874.0</ele>
        <time>2013-06-30T12:55:56Z</time>
      </trkpt>
      <trkpt lat="40.189350" lon="-5.071333">
        <ele>871.0</ele>
        <time>2013-06-30T12:55:57Z</time>
      </trkpt>
      <trkpt lat="40.189300" lon="-5.071433">
        <ele>869.0</ele>
        <time>2013-06-30T12:55:58Z</time>
      </trkpt>
      <trkpt lat="40.189250" lon="-5.071533">
        <ele>866.0</ele>
        <time>2013-06-30T12:55:59Z</time>
      </trkpt>
      <trkpt lat="40.189217" lon="-5.071617">
        <ele>864.0</ele>
        <time>2013-06-30T12:56:00Z</time>
      </trkpt>
      <trkpt lat="40.189167" lon="-5.071717">
        <ele>861.0</ele>
        <time>2013-06-30T12:56:01Z</time>
      </trkpt>
      <trkpt lat="40.189100" lon="-5.071817">
        <ele>857.0</ele>
        <time>2013-06-30T12:56:02Z</time>
      </trkpt>
      <trkpt lat="40.189050" lon="-5.071933">
        <ele>854.0</ele>
        <time>2013-06-30T12:56:03Z</time>
      </trkpt>
      <trkpt lat="40.189017" lon="-5.072033">
        <ele>851.0</ele>
        <time>2013-06-30T12:56:04Z</time>
      </trkpt>
      <trkpt lat="40.188967" lon="-5.072133">
        <ele>848.0</ele>
        <time>2013-06-30T12:56:05Z</time>
      </trkpt>
      <trkpt lat="40.188917" lon="-5.072217">
        <ele>846.0</ele>
        <time>2013-06-30T12:56:06Z</time>
      </trkpt>
      <trkpt lat="40.188883" lon="-5.072317">
        <ele>843.0</ele>
        <time>2013-06-30T12:56:07Z</time>
      </trkpt>
      <trkpt lat="40.188833" lon="-5.072417">
        <ele>840.0</ele>
        <time>2013-06-30T12:56:08Z</time>
      </trkpt>
      <trkpt lat="40.188783" lon="-5.072517">
        <ele>836.0</ele>
        <time>2013-06-30T12:56:09Z</time>
      </trkpt>
      <trkpt lat="40.188733" lon="-5.072633">
        <ele>833.0</ele>
        <time>2013-06-30T12:56:10Z</time>
      </trkpt>
      <trkpt lat="40.188683" lon="-5.072733">
        <ele>829.0</ele>
        <time>2013-06-30T12:56:11Z</time>
      </trkpt>
      <trkpt lat="40.188633" lon="-5.072833">
        <ele>825.0</ele>
        <time>2013-06-30T12:56:12Z</time>
      </trkpt>
      <trkpt lat="40.188583" lon="-5.072933">
        <ele>822.0</ele>
        <time>2013-06-30T12:56:13Z</time>
      </trkpt>
      <trkpt lat="40.188533" lon="-5.073033">
        <ele>818.0</ele>
        <time>2013-06-30T12:56:14Z</time>
      </trkpt>
      <trkpt lat="40.188483" lon="-5.073150">
        <ele>815.0</ele>
        <time>2013-06-30T12:56:15Z</time>
      </trkpt>
      <trkpt lat="40.188433" lon="-5.073250">
        <ele>812.0</ele>
        <time>2013-06-30T12:56:16Z</time>
      </trkpt>
      <trkpt lat="40.188383" lon="-5.073350">
        <ele>809.0</ele>
        <time>2013-06-30T12:56:17Z</time>
      </trkpt>
      <trkpt lat="40.188333" lon="-5.073450">
        <ele>807.0</ele>
        <time>2013-06-30T12:56:18Z</time>
      </trkpt>
      <trkpt lat="40.188283" lon="-5.073567">
        <ele>804.0</ele>
        <time>2013-06-30T12:56:19Z</time>
      </trkpt>
      <trkpt lat="40.188233" lon="-5.073700">
        <ele>802.0</ele>
        <time>2013-06-30T12:56:20Z</time>
      </trkpt>
      <trkpt lat="40.188200" lon="-5.073833">
        <ele>799.0</ele>
        <time>2013-06-30T12:56:21Z</time>
      </trkpt>
      <trkpt lat="40.188150" lon="-5.073933">
        <ele>799.0</ele>
        <time>2013-06-30T12:56:22Z</time>
      </trkpt>
      <trkpt lat="40.188117" lon="-5.074033">
        <ele>798.0</ele>
        <time>2013-06-30T12:56:23Z</time>
      </trkpt>
      <trkpt lat="40.188083" lon="-5.074117">
        <ele>797.0</ele>
        <time>2013-06-30T12:56:24Z</time>
      </trkpt>
      <trkpt lat="40.188050" lon="-5.074233">
        <ele>796.0</ele>
        <time>2013-06-30T12:56:25Z</time>
      </trkpt>
      <trkpt lat="40.188000" lon="-5.074350">
        <ele>794.0</ele>
        <time>2013-06-30T12:56:26Z</time>
      </trkpt>
      <trkpt lat="40.187967" lon="-5.074483">
        <ele>794.0</ele>
        <time>2013-06-30T12:56:27Z</time>
      </trkpt>
      <trkpt lat="40.187933" lon="-5.074600">
        <ele>793.0</ele>
        <time>2013-06-30T12:56:28Z</time>
      </trkpt>
      <trkpt lat="40.187900" lon="-5.074717">
        <ele>794.0</ele>
        <time>2013-06-30T12:56:29Z</time>
      </trkpt>
      <trkpt lat="40.187867" lon="-5.074833">
        <ele>796.0</ele>
        <time>2013-06-30T12:56:30Z</time>
      </trkpt>
      <trkpt lat="40.187833" lon="-5.074950">
        <ele>797.0</ele>
        <time>2013-06-30T12:56:31Z</time>
      </trkpt>
      <trkpt lat="40.187817" lon="-5.075067">
        <ele>797.0</ele>
        <time>2013-06-30T12:56:32Z</time>
      </trkpt>
      <trkpt lat="40.187800" lon="-5.075200">
        <ele>798.0</ele>
        <time>2013-06-30T12:56:33Z</time>
      </trkpt>
      <trkpt lat="40.187800" lon="-5.075317">
        <ele>799.0</ele>
        <time>2013-06-30T12:56:34Z</time>
      </trkpt>
      <trkpt lat="40.187783" lon="-5.075433">
        <ele>800.0</ele>
        <time>2013-06-30T12:56:35Z</time>
      </trkpt>
      <trkpt lat="40.187767" lon="-5.075550">
        <ele>801.0</ele>
        <time>2013-06-30T12:56:36Z</time>
      </trkpt>
      <trkpt lat="40.187717" lon="-5.075667">
        <ele>802.0</ele>
        <time>2013-06-30T12:56:37Z</time>
      </trkpt>
      <trkpt lat="40.187683" lon="-5.075783">
        <ele>804.0</ele>
        <time>2013-06-30T12:56:38Z</time>
      </trkpt>
      <trkpt lat="40.187633" lon="-5.075883">
        <ele>805.0</ele>
        <time>2013-06-30T12:56:39Z</time>
      </trkpt>
      <trkpt lat="40.187600" lon="-5.075983">
        <ele>808.0</ele>
        <time>2013-06-30T12:56:40Z</time>
      </trkpt>
      <trkpt lat="40.187583" lon="-5.076083">
        <ele>809.0</ele>
        <time>2013-06-30T12:56:41Z</time>
      </trkpt>
      <trkpt lat="40.187583" lon="-5.076183">
        <ele>811.0</ele>
        <time>2013-06-30T12:56:42Z</time>
      </trkpt>
      <trkpt lat="40.187583" lon="-5.076300">
        <ele>813.0</ele>
        <time>2013-06-30T12:56:43Z</time>
      </trkpt>
      <trkpt lat="40.187600" lon="-5.076400">
        <ele>815.0</ele>
        <time>2013-06-30T12:56:44Z</time>
      </trkpt>
      <trkpt lat="40.187633" lon="-5.076517">
        <ele>817.0</ele>
        <time>2013-06-30T12:56:45Z</time>
      </trkpt>
      <trkpt lat="40.187683" lon="-5.076617">
        <ele>819.0</ele>
        <time>2013-06-30T12:56:46Z</time>
      </trkpt>
      <trkpt lat="40.187733" lon="-5.076683">
        <ele>822.0</ele>
        <time>2013-06-30T12:56:47Z</time>
      </trkpt>
      <trkpt lat="40.187800" lon="-5.076733">
        <ele>825.0</ele>
        <time>2013-06-30T12:56:48Z</time>
      </trkpt>
      <trkpt lat="40.187883" lon="-5.076750">
        <ele>827.0</ele>
        <time>2013-06-30T12:56:49Z</time>
      </trkpt>
      <trkpt lat="40.187983" lon="-5.076767">
        <ele>828.0</ele>
        <time>2013-06-30T12:56:50Z</time>
      </trkpt>
      <trkpt lat="40.188083" lon="-5.076800">
        <ele>830.0</ele>
        <time>2013-06-30T12:56:51Z</time>
      </trkpt>
      <trkpt lat="40.188167" lon="-5.076833">
        <ele>832.0</ele>
        <time>2013-06-30T12:56:52Z</time>
      </trkpt>
      <trkpt lat="40.188250" lon="-5.076833">
        <ele>835.0</ele>
        <time>2013-06-30T12:56:53Z</time>
      </trkpt>
      <trkpt lat="40.188317" lon="-5.076817">
        <ele>838.0</ele>
        <time>2013-06-30T12:56:54Z</time>
      </trkpt>
      <trkpt lat="40.188383" lon="-5.076767">
        <ele>840.0</ele>
        <time>2013-06-30T12:56:55Z</time>
      </trkpt>
      <trkpt lat="40.188450" lon="-5.076700">
        <ele>842.0</ele>
        <time>2013-06-30T12:56:56Z</time>
      </trkpt>
      <trkpt lat="40.188517" lon="-5.076650">
        <ele>844.0</ele>
        <time>2013-06-30T12:56:57Z</time>
      </trkpt>
      <trkpt lat="40.188567" lon="-5.076617">
        <ele>847.0</ele>
        <time>2013-06-30T12:56:58Z</time>
      </trkpt>
      <trkpt lat="40.188617" lon="-5.076583">
        <ele>851.0</ele>
        <time>2013-06-30T12:56:59Z</time>
      </trkpt>
      <trkpt lat="40.188650" lon="-5.076517">
        <ele>854.0</ele>
        <time>2013-06-30T12:57:00Z</time>
      </trkpt>
      <trkpt lat="40.188667" lon="-5.076450">
        <ele>856.0</ele>
        <time>2013-06-30T12:57:01Z</time>
      </trkpt>
      <trkpt lat="40.188683" lon="-5.076367">
        <ele>858.0</ele>
        <time>2013-06-30T12:57:02Z</time>
      </trkpt>
      <trkpt lat="40.188683" lon="-5.076300">
        <ele>860.0</ele>
        <time>2013-06-30T12:57:03Z</time>
      </trkpt>
      <trkpt lat="40.188683" lon="-5.076150">
        <ele>863.0</ele>
        <time>2013-06-30T12:57:05Z</time>
      </trkpt>
      <trkpt lat="40.188650" lon="-5.075900">
        <ele>866.0</ele>
        <time>2013-06-30T12:57:08Z</time>
      </trkpt>
      <trkpt lat="40.188600" lon="-5.075750">
        <ele>868.0</ele>
        <time>2013-06-30T12:57:10Z</time>
      </trkpt>
      <trkpt lat="40.188567" lon="-5.075700">
        <ele>869.0</ele>
        <time>2013-06-30T12:57:11Z</time>
      </trkpt>
      <trkpt lat="40.188533" lon="-5.075667">
        <ele>869.0</ele>
        <time>2013-06-30T12:57:12Z</time>
      </trkpt>
      <trkpt lat="40.188467" lon="-5.075633">
        <ele>869.0</ele>
        <time>2013-06-30T12:57:13Z</time>
      </trkpt>
      <trkpt lat="40.188400" lon="-5.075617">
        <ele>869.0</ele>
        <time>2013-06-30T12:57:14Z</time>
      </trkpt>
      <trkpt lat="40.188317" lon="-5.075617">
        <ele>868.0</ele>
        <time>2013-06-30T12:57:15Z</time>
      </trkpt>
      <trkpt lat="40.188250" lon="-5.075650">
        <ele>867.0</ele>
        <time>2013-06-30T12:57:16Z</time>
      </trkpt>
      <trkpt lat="40.188183" lon="-5.075700">
        <ele>867.0</ele>
        <time>2013-06-30T12:57:17Z</time>
      </trkpt>
      <trkpt lat="40.188117" lon="-5.075767">
        <ele>866.0</ele>
        <time>2013-06-30T12:57:18Z</time>
      </trkpt>
      <trkpt lat="40.188050" lon="-5.075867">
        <ele>864.0</ele>
        <time>2013-06-30T12:57:19Z</time>
      </trkpt>
      <trkpt lat="40.188000" lon="-5.075967">
        <ele>864.0</ele>
        <time>2013-06-30T12:57:20Z</time>
      </trkpt>
      <trkpt lat="40.187983" lon="-5.076050">
        <ele>864.0</ele>
        <time>2013-06-30T12:57:21Z</time>
      </trkpt>
      <trkpt lat="40.187967" lon="-5.076150">
        <ele>864.0</ele>
        <time>2013-06-30T12:57:22Z</time>
      </trkpt>
      <trkpt lat="40.187933" lon="-5.076267">
        <ele>864.0</ele>
        <time>2013-06-30T12:57:23Z</time>
      </trkpt>
      <trkpt lat="40.187917" lon="-5.076400">
        <ele>863.0</ele>
        <time>2013-06-30T12:57:24Z</time>
      </trkpt>
      <trkpt lat="40.187883" lon="-5.076533">
        <ele>862.0</ele>
        <time>2013-06-30T12:57:25Z</time>
      </trkpt>
      <trkpt lat="40.187867" lon="-5.076650">
        <ele>861.0</ele>
        <time>2013-06-30T12:57:26Z</time>
      </trkpt>
      <trkpt lat="40.187850" lon="-5.076750">
        <ele>864.0</ele>
        <time>2013-06-30T12:57:27Z</time>
      </trkpt>
      <trkpt lat="40.187833" lon="-5.076850">
        <ele>867.0</ele>
        <time>2013-06-30T12:57:28Z</time>
      </trkpt>
      <trkpt lat="40.187800" lon="-5.076967">
        <ele>869.0</ele>
        <time>2013-06-30T12:57:29Z</time>
      </trkpt>
      <trkpt lat="40.187767" lon="-5.077083">
        <ele>869.0</ele>
        <time>2013-06-30T12:57:30Z</time>
      </trkpt>
      <trkpt lat="40.187750" lon="-5.077217">
        <ele>869.0</ele>
        <time>2013-06-30T12:57:31Z</time>
      </trkpt>
      <trkpt lat="40.187767" lon="-5.077350">
        <ele>871.0</ele>
        <time>2013-06-30T12:57:32Z</time>
      </trkpt>
      <trkpt lat="40.187800" lon="-5.077467">
        <ele>873.0</ele>
        <time>2013-06-30T12:57:33Z</time>
      </trkpt>
      <trkpt lat="40.187833" lon="-5.077567">
        <ele>875.0</ele>
        <time>2013-06-30T12:57:34Z</time>
      </trkpt>
      <trkpt lat="40.187883" lon="-5.077667">
        <ele>876.0</ele>
        <time>2013-06-30T12:57:35Z</time>
      </trkpt>
      <trkpt lat="40.187933" lon="-5.077767">
        <ele>878.0</ele>
        <time>2013-06-30T12:57:36Z</time>
      </trkpt>
      <trkpt lat="40.188000" lon="-5.077867">
        <ele>879.0</ele>
        <time>2013-06-30T12:57:37Z</time>
      </trkpt>
      <trkpt lat="40.188083" lon="-5.077933">
        <ele>880.0</ele>
        <time>2013-06-30T12:57:38Z</time>
      </trkpt>
      <trkpt lat="40.188183" lon="-5.077967">
        <ele>881.0</ele>
        <time>2013-06-30T12:57:39Z</time>
      </trkpt>
      <trkpt lat="40.188283" lon="-5.077967">
        <ele>883.0</ele>
        <time>2013-06-30T12:57:40Z</time>
      </trkpt>
      <trkpt lat="40.188350" lon="-5.077950">
        <ele>886.0</ele>
        <time>2013-06-30T12:57:41Z</time>
      </trkpt>
      <trkpt lat="40.188417" lon="-5.077917">
        <ele>891.0</ele>
        <time>2013-06-30T12:57:42Z</time>
      </trkpt>
      <trkpt lat="40.188467" lon="-5.077883">
        <ele>894.0</ele>
        <time>2013-06-30T12:57:43Z</time>
      </trkpt>
      <trkpt lat="40.188517" lon="-5.077833">
        <ele>896.0</ele>
        <time>2013-06-30T12:57:44Z</time>
      </trkpt>
      <trkpt lat="40.188567" lon="-5.077767">
        <ele>897.0</ele>
        <time>2013-06-30T12:57:45Z</time>
      </trkpt>
      <trkpt lat="40.188617" lon="-5.077683">
        <ele>898.0</ele>
        <time>2013-06-30T12:57:46Z</time>
      </trkpt>
      <trkpt lat="40.188667" lon="-5.077617">
        <ele>900.0</ele>
        <time>2013-06-30T12:57:47Z</time>
      </trkpt>
      <trkpt lat="40.188717" lon="-5.077533">
        <ele>902.0</ele>
        <time>2013-06-30T12:57:48Z</time>
      </trkpt>
      <trkpt lat="40.188750" lon="-5.077467">
        <ele>905.0</ele>
        <time>2013-06-30T12:57:49Z</time>
      </trkpt>
      <trkpt lat="40.188783" lon="-5.077400">
        <ele>907.0</ele>
        <time>2013-06-30T12:57:50Z</time>
      </trkpt>
      <trkpt lat="40.188800" lon="-5.077317">
        <ele>909.0</ele>
        <time>2013-06-30T12:57:51Z</time>
      </trkpt>
      <trkpt lat="40.188817" lon="-5.077233">
        <ele>910.0</ele>
        <time>2013-06-30T12:57:52Z</time>
      </trkpt>
      <trkpt lat="40.188817" lon="-5.077150">
        <ele>911.0</ele>
        <time>2013-06-30T12:57:53Z</time>
      </trkpt>
      <trkpt lat="40.188817" lon="-5.077067">
        <ele>911.0</ele>
        <time>2013-06-30T12:57:54Z</time>
      </trkpt>
      <trkpt lat="40.188800" lon="-5.077017">
        <ele>913.0</ele>
        <time>2013-06-30T12:57:55Z</time>
      </trkpt>
      <trkpt lat="40.188783" lon="-5.076950">
        <ele>914.0</ele>
        <time>2013-06-30T12:57:56Z</time>
      </trkpt>
      <trkpt lat="40.188750" lon="-5.076917">
        <ele>915.0</ele>
        <time>2013-06-30T12:57:57Z</time>
      </trkpt>
      <trkpt lat="40.188717" lon="-5.076867">
        <ele>915.0</ele>
        <time>2013-06-30T12:57:58Z</time>
      </trkpt>
      <trkpt lat="40.188683" lon="-5.076833">
        <ele>914.0</ele>
        <time>2013-06-30T12:57:59Z</time>
      </trkpt>
      <trkpt lat="40.188633" lon="-5.076800">
        <ele>913.0</ele>
        <time>2013-06-30T12:58:00Z</time>
      </trkpt>
      <trkpt lat="40.188567" lon="-5.076750">
        <ele>910.0</ele>
        <time>2013-06-30T12:58:01Z</time>
      </trkpt>
      <trkpt lat="40.188483" lon="-5.076717">
        <ele>907.0</ele>
        <time>2013-06-30T12:58:02Z</time>
      </trkpt>
      <trkpt lat="40.188417" lon="-5.076700">
        <ele>906.0</ele>
        <time>2013-06-30T12:58:03Z</time>
      </trkpt>
      <trkpt lat="40.188350" lon="-5.076700">
        <ele>904.0</ele>
        <time>2013-06-30T12:58:04Z</time>
      </trkpt>
      <trkpt lat="40.188283" lon="-5.076700">
        <ele>903.0</ele>
        <time>2013-06-30T12:58:05Z</time>
      </trkpt>
      <trkpt lat="40.188200" lon="-5.076700">
        <ele>902.0</ele>
        <time>2013-06-30T12:58:06Z</time>
      </trkpt>
      <trkpt lat="40.188117" lon="-5.076717">
        <ele>901.0</ele>
        <time>2013-06-30T12:58:07Z</time>
      </trkpt>
      <trkpt lat="40.188017" lon="-5.076750">
        <ele>901.0</ele>
        <time>2013-06-30T12:58:08Z</time>
      </trkpt>
      <trkpt lat="40.187933" lon="-5.076817">
        <ele>901.0</ele>
        <time>2013-06-30T12:58:09Z</time>
      </trkpt>
      <trkpt lat="40.187867" lon="-5.076883">
        <ele>900.0</ele>
        <time>2013-06-30T12:58:10Z</time>
      </trkpt>
      <trkpt lat="40.187783" lon="-5.076967">
        <ele>900.0</ele>
        <time>2013-06-30T12:58:11Z</time>
      </trkpt>
      <trkpt lat="40.187717" lon="-5.077033">
        <ele>900.0</ele>
        <time>2013-06-30T12:58:12Z</time>
      </trkpt>
      <trkpt lat="40.187650" lon="-5.077133">
        <ele>899.0</ele>
        <time>2013-06-30T12:58:13Z</time>
      </trkpt>
      <trkpt lat="40.187567" lon="-5.077217">
        <ele>899.0</ele>
        <time>2013-06-30T12:58:14Z</time>
      </trkpt>
      <trkpt lat="40.187500" lon="-5.077317">
        <ele>899.0</ele>
        <time>2013-06-30T12:58:15Z</time>
      </trkpt>
      <trkpt lat="40.187433" lon="-5.077417">
        <ele>900.0</ele>
        <time>2013-06-30T12:58:16Z</time>
      </trkpt>
      <trkpt lat="40.187400" lon="-5.077517">
        <ele>900.0</ele>
        <time>2013-06-30T12:58:17Z</time>
      </trkpt>
      <trkpt lat="40.187350" lon="-5.077600">
        <ele>901.0</ele>
        <time>2013-06-30T12:58:18Z</time>
      </trkpt>
      <trkpt lat="40.187317" lon="-5.077700">
        <ele>902.0</ele>
        <time>2013-06-30T12:58:19Z</time>
      </trkpt>
      <trkpt lat="40.187250" lon="-5.077817">
        <ele>902.0</ele>
        <time>2013-06-30T12:58:20Z</time>
      </trkpt>
      <trkpt lat="40.187200" lon="-5.077933">
        <ele>903.0</ele>
        <time>2013-06-30T12:58:21Z</time>
      </trkpt>
      <trkpt lat="40.187167" lon="-5.078067">
        <ele>903.0</ele>
        <time>2013-06-30T12:58:22Z</time>
      </trkpt>
      <trkpt lat="40.187117" lon="-5.078167">
        <ele>905.0</ele>
        <time>2013-06-30T12:58:23Z</time>
      </trkpt>
      <trkpt lat="40.187083" lon="-5.078283">
        <ele>907.0</ele>
        <time>2013-06-30T12:58:24Z</time>
      </trkpt>
      <trkpt lat="40.187050" lon="-5.078400">
        <ele>908.0</ele>
        <time>2013-06-30T12:58:25Z</time>
      </trkpt>
      <trkpt lat="40.187017" lon="-5.078517">
        <ele>908.0</ele>
        <time>2013-06-30T12:58:26Z</time>
      </trkpt>
      <trkpt lat="40.187017" lon="-5.078667">
        <ele>908.0</ele>
        <time>2013-06-30T12:58:27Z</time>
      </trkpt>
      <trkpt lat="40.187017" lon="-5.078800">
        <ele>909.0</ele>
        <time>2013-06-30T12:58:28Z</time>
      </trkpt>
      <trkpt lat="40.187033" lon="-5.078950">
        <ele>910.0</ele>
        <time>2013-06-30T12:58:29Z</time>
      </trkpt>
      <trkpt lat="40.187050" lon="-5.079083">
        <ele>912.0</ele>
        <time>2013-06-30T12:58:30Z</time>
      </trkpt>
      <trkpt lat="40.187100" lon="-5.079200">
        <ele>913.0</ele>
        <time>2013-06-30T12:58:31Z</time>
      </trkpt>
      <trkpt lat="40.187150" lon="-5.079317">
        <ele>914.0</ele>
        <time>2013-06-30T12:58:32Z</time>
      </trkpt>
      <trkpt lat="40.187233" lon="-5.079417">
        <ele>914.0</ele>
        <time>2013-06-30T12:58:33Z</time>
      </trkpt>
      <trkpt lat="40.187400" lon="-5.079600">
        <ele>913.0</ele>
        <time>2013-06-30T12:58:35Z</time>
      </trkpt>
      <trkpt lat="40.187483" lon="-5.079667">
        <ele>913.0</ele>
        <time>2013-06-30T12:58:36Z</time>
      </trkpt>
      <trkpt lat="40.187567" lon="-5.079717">
        <ele>914.0</ele>
        <time>2013-06-30T12:58:37Z</time>
      </trkpt>
      <trkpt lat="40.187633" lon="-5.079733">
        <ele>916.0</ele>
        <time>2013-06-30T12:58:38Z</time>
      </trkpt>
      <trkpt lat="40.187700" lon="-5.079750">
        <ele>917.0</ele>
        <time>2013-06-30T12:58:39Z</time>
      </trkpt>
      <trkpt lat="40.187800" lon="-5.079733">
        <ele>918.0</ele>
        <time>2013-06-30T12:58:41Z</time>
      </trkpt>
      <trkpt lat="40.187850" lon="-5.079717">
        <ele>917.0</ele>
        <time>2013-06-30T12:58:42Z</time>
      </trkpt>
      <trkpt lat="40.187917" lon="-5.079683">
        <ele>916.0</ele>
        <time>2013-06-30T12:58:43Z</time>
      </trkpt>
      <trkpt lat="40.188000" lon="-5.079633">
        <ele>916.0</ele>
        <time>2013-06-30T12:58:44Z</time>
      </trkpt>
      <trkpt lat="40.188050" lon="-5.079583">
        <ele>917.0</ele>
        <time>2013-06-30T12:58:45Z</time>
      </trkpt>
      <trkpt lat="40.188100" lon="-5.079517">
        <ele>918.0</ele>
        <time>2013-06-30T12:58:46Z</time>
      </trkpt>
      <trkpt lat="40.188133" lon="-5.079467">
        <ele>919.0</ele>
        <time>2013-06-30T12:58:47Z</time>
      </trkpt>
      <trkpt lat="40.188167" lon="-5.079433">
        <ele>921.0</ele>
        <time>2013-06-30T12:58:48Z</time>
      </trkpt>
      <trkpt lat="40.188200" lon="-5.079383">
        <ele>923.0</ele>
        <time>2013-06-30T12:58:49Z</time>
      </trkpt>
      <trkpt lat="40.188233" lon="-5.079333">
        <ele>923.0</ele>
        <time>2013-06-30T12:58:50Z</time>
      </trkpt>
      <trkpt lat="40.188283" lon="-5.079267">
        <ele>924.0</ele>
        <time>2013-06-30T12:58:51Z</time>
      </trkpt>
      <trkpt lat="40.188317" lon="-5.079183">
        <ele>924.0</ele>
        <time>2013-06-30T12:58:52Z</time>
      </trkpt>
      <trkpt lat="40.188400" lon="-5.079067">
        <ele>926.0</ele>
        <time>2013-06-30T12:58:54Z</time>
      </trkpt>
      <trkpt lat="40.188450" lon="-5.079033">
        <ele>928.0</ele>
        <time>2013-06-30T12:58:55Z</time>
      </trkpt>
      <trkpt lat="40.188483" lon="-5.079000">
        <ele>929.0</ele>
        <time>2013-06-30T12:58:56Z</time>
      </trkpt>
      <trkpt lat="40.188533" lon="-5.078967">
        <ele>929.0</ele>
        <time>2013-06-30T12:58:57Z</time>
      </trkpt>
      <trkpt lat="40.188567" lon="-5.078917">
        <ele>929.0</ele>
        <time>2013-06-30T12:58:58Z</time>
      </trkpt>
      <trkpt lat="40.188633" lon="-5.078867">
        <ele>929.0</ele>
        <time>2013-06-30T12:58:59Z</time>
      </trkpt>
      <trkpt lat="40.188683" lon="-5.078817">
        <ele>930.0</ele>
        <time>2013-06-30T12:59:00Z</time>
      </trkpt>
      <trkpt lat="40.188717" lon="-5.078783">
        <ele>932.0</ele>
        <time>2013-06-30T12:59:01Z</time>
      </trkpt>
      <trkpt lat="40.188750" lon="-5.078750">
        <ele>933.0</ele>
        <time>2013-06-30T12:59:02Z</time>
      </trkpt>
      <trkpt lat="40.188783" lon="-5.078700">
        <ele>934.0</ele>
        <time>2013-06-30T12:59:03Z</time>
      </trkpt>
      <trkpt lat="40.188833" lon="-5.078517">
        <ele>933.0</ele>
        <time>2013-06-30T12:59:06Z</time>
      </trkpt>
      <trkpt lat="40.188800" lon="-5.078467">
        <ele>932.0</ele>
        <time>2013-06-30T12:59:07Z</time>
      </trkpt>
      <trkpt lat="40.188733" lon="-5.078433">
        <ele>933.0</ele>
        <time>2013-06-30T12:59:08Z</time>
      </trkpt>
      <trkpt lat="40.188600" lon="-5.078450">
        <ele>934.0</ele>
        <time>2013-06-30T12:59:10Z</time>
      </trkpt>
      <trkpt lat="40.188533" lon="-5.078483">
        <ele>935.0</ele>
        <time>2013-06-30T12:59:11Z</time>
      </trkpt>
      <trkpt lat="40.188467" lon="-5.078517">
        <ele>936.0</ele>
        <time>2013-06-30T12:59:12Z</time>
      </trkpt>
      <trkpt lat="40.188383" lon="-5.078567">
        <ele>936.0</ele>
        <time>2013-06-30T12:59:13Z</time>
      </trkpt>
      <trkpt lat="40.188300" lon="-5.078633">
        <ele>937.0</ele>
        <time>2013-06-30T12:59:14Z</time>
      </trkpt>
      <trkpt lat="40.188233" lon="-5.078700">
        <ele>938.0</ele>
        <time>2013-06-30T12:59:15Z</time>
      </trkpt>
      <trkpt lat="40.188167" lon="-5.078783">
        <ele>940.0</ele>
        <time>2013-06-30T12:59:16Z</time>
      </trkpt>
      <trkpt lat="40.188117" lon="-5.078900">
        <ele>941.0</ele>
        <time>2013-06-30T12:59:17Z</time>
      </trkpt>
      <trkpt lat="40.188067" lon="-5.079017">
        <ele>942.0</ele>
        <time>2013-06-30T12:59:18Z</time>
      </trkpt>
      <trkpt lat="40.188017" lon="-5.079133">
        <ele>943.0</ele>
        <time>2013-06-30T12:59:19Z</time>
      </trkpt>
      <trkpt lat="40.187983" lon="-5.079250">
        <ele>945.0</ele>
        <time>2013-06-30T12:59:20Z</time>
      </trkpt>
      <trkpt lat="40.187950" lon="-5.079383">
        <ele>949.0</ele>
        <time>2013-06-30T12:59:21Z</time>
      </trkpt>
      <trkpt lat="40.187950" lon="-5.079500">
        <ele>951.0</ele>
        <time>2013-06-30T12:59:22Z</time>
      </trkpt>
      <trkpt lat="40.187967" lon="-5.079617">
        <ele>953.0</ele>
        <time>2013-06-30T12:59:23Z</time>
      </trkpt>
      <trkpt lat="40.187983" lon="-5.079750">
        <ele>954.0</ele>
        <time>2013-06-30T12:59:24Z</time>
      </trkpt>
      <trkpt lat="40.188050" lon="-5.079867">
        <ele>956.0</ele>
        <time>2013-06-30T12:59:25Z</time>
      </trkpt>
      <trkpt lat="40.188117" lon="-5.079983">
        <ele>956.0</ele>
        <time>2013-06-30T12:59:26Z</time>
      </trkpt>
      <trkpt lat="40.188200" lon="-5.080083">
        <ele>956.0</ele>
        <time>2013-06-30T12:59:27Z</time>
      </trkpt>
      <trkpt lat="40.188267" lon="-5.080167">
        <ele>957.0</ele>
        <time>2013-06-30T12:59:28Z</time>
      </trkpt>
      <trkpt lat="40.188350" lon="-5.080233">
        <ele>959.0</ele>
        <time>2013-06-30T12:59:29Z</time>
      </trkpt>
      <trkpt lat="40.188417" lon="-5.080300">
        <ele>960.0</ele>
        <time>2013-06-30T12:59:30Z</time>
      </trkpt>
      <trkpt lat="40.188517" lon="-5.080333">
        <ele>961.0</ele>
        <time>2013-06-30T12:59:31Z</time>
      </trkpt>
      <trkpt lat="40.188617" lon="-5.080383">
        <ele>962.0</ele>
        <time>2013-06-30T12:59:32Z</time>
      </trkpt>
      <trkpt lat="40.188717" lon="-5.080400">
        <ele>963.0</ele>
        <time>2013-06-30T12:59:33Z</time>
      </trkpt>
      <trkpt lat="40.188800" lon="-5.080417">
        <ele>965.0</ele>
        <time>2013-06-30T12:59:34Z</time>
      </trkpt>
      <trkpt lat="40.188867" lon="-5.080400">
        <ele>967.0</ele>
        <time>2013-06-30T12:59:35Z</time>
      </trkpt>
      <trkpt lat="40.188933" lon="-5.080367">
        <ele>969.0</ele>
        <time>2013-06-30T12:59:36Z</time>
      </trkpt>
      <trkpt lat="40.189000" lon="-5.080333">
        <ele>969.0</ele>
        <time>2013-06-30T12:59:37Z</time>
      </trkpt>
      <trkpt lat="40.189083" lon="-5.080300">
        <ele>970.0</ele>
        <time>2013-06-30T12:59:38Z</time>
      </trkpt>
      <trkpt lat="40.189150" lon="-5.080250">
        <ele>971.0</ele>
        <time>2013-06-30T12:59:39Z</time>
      </trkpt>
      <trkpt lat="40.189217" lon="-5.080200">
        <ele>972.0</ele>
        <time>2013-06-30T12:59:40Z</time>
      </trkpt>
      <trkpt lat="40.189267" lon="-5.080150">
        <ele>973.0</ele>
        <time>2013-06-30T12:59:41Z</time>
      </trkpt>
      <trkpt lat="40.189317" lon="-5.080100">
        <ele>975.0</ele>
        <time>2013-06-30T12:59:42Z</time>
      </trkpt>
      <trkpt lat="40.189367" lon="-5.080050">
        <ele>976.0</ele>
        <time>2013-06-30T12:59:43Z</time>
      </trkpt>
      <trkpt lat="40.189400" lon="-5.080000">
        <ele>977.0</ele>
        <time>2013-06-30T12:59:44Z</time>
      </trkpt>
      <trkpt lat="40.189450" lon="-5.079917">
        <ele>977.0</ele>
        <time>2013-06-30T12:59:45Z</time>
      </trkpt>
      <trkpt lat="40.189500" lon="-5.079783">
        <ele>978.0</ele>
        <time>2013-06-30T12:59:47Z</time>
      </trkpt>
      <trkpt lat="40.189500" lon="-5.079717">
        <ele>980.0</ele>
        <time>2013-06-30T12:59:48Z</time>
      </trkpt>
      <trkpt lat="40.189467" lon="-5.079600">
        <ele>982.0</ele>
        <time>2013-06-30T12:59:50Z</time>
      </trkpt>
      <trkpt lat="40.189450" lon="-5.079533">
        <ele>983.0</ele>
        <time>2013-06-30T12:59:51Z</time>
      </trkpt>
      <trkpt lat="40.189400" lon="-5.079467">
        <ele>983.0</ele>
        <time>2013-06-30T12:59:52Z</time>
      </trkpt>
      <trkpt lat="40.189350" lon="-5.079400">
        <ele>983.0</ele>
        <time>2013-06-30T12:59:53Z</time>
      </trkpt>
      <trkpt lat="40.189300" lon="-5.079350">
        <ele>985.0</ele>
        <time>2013-06-30T12:59:54Z</time>
      </trkpt>
      <trkpt lat="40.189250" lon="-5.079300">
        <ele>986.0</ele>
        <time>2013-06-30T12:59:55Z</time>
      </trkpt>
      <trkpt lat="40.189200" lon="-5.079283">
        <ele>989.0</ele>
        <time>2013-06-30T12:59:56Z</time>
      </trkpt>
      <trkpt lat="40.189150" lon="-5.079267">
        <ele>990.0</ele>
        <time>2013-06-30T12:59:57Z</time>
      </trkpt>
      <trkpt lat="40.189083" lon="-5.079267">
        <ele>992.0</ele>
        <time>2013-06-30T12:59:58Z</time>
      </trkpt>
      <trkpt lat="40.189000" lon="-5.079267">
        <ele>993.0</ele>
        <time>2013-06-30T12:59:59Z</time>
      </trkpt>
      <trkpt lat="40.188917" lon="-5.079267">
        <ele>994.0</ele>
        <time>2013-06-30T13:00:00Z</time>
      </trkpt>
      <trkpt lat="40.188833" lon="-5.079283">
        <ele>995.0</ele>
        <time>2013-06-30T13:00:01Z</time>
      </trkpt>
      <trkpt lat="40.188783" lon="-5.079317">
        <ele>997.0</ele>
        <time>2013-06-30T13:00:02Z</time>
      </trkpt>
      <trkpt lat="40.188717" lon="-5.079367">
        <ele>999.0</ele>
        <time>2013-06-30T13:00:03Z</time>
      </trkpt>
      <trkpt lat="40.188650" lon="-5.079417">
        <ele>1000.0</ele>
        <time>2013-06-30T13:00:04Z</time>
      </trkpt>
      <trkpt lat="40.188567" lon="-5.079500">
        <ele>1000.0</ele>
        <time>2013-06-30T13:00:05Z</time>
      </trkpt>
      <trkpt lat="40.188483" lon="-5.079583">
        <ele>1001.0</ele>
        <time>2013-06-30T13:00:06Z</time>
      </trkpt>
      <trkpt lat="40.188433" lon="-5.079667">
        <ele>1003.0</ele>
        <time>2013-06-30T13:00:07Z</time>
      </trkpt>
      <trkpt lat="40.188383" lon="-5.079750">
        <ele>1005.0</ele>
        <time>2013-06-30T13:00:08Z</time>
      </trkpt>
      <trkpt lat="40.188333" lon="-5.079850">
        <ele>1007.0</ele>
        <time>2013-06-30T13:00:09Z</time>
      </trkpt>
      <trkpt lat="40.188300" lon="-5.079950">
        <ele>1009.0</ele>
        <time>2013-06-30T13:00:10Z</time>
      </trkpt>
      <trkpt lat="40.188250" lon="-5.080083">
        <ele>1010.0</ele>
        <time>2013-06-30T13:00:11Z</time>
      </trkpt>
      <trkpt lat="40.188200" lon="-5.080200">
        <ele>1009.0</ele>
        <time>2013-06-30T13:00:12Z</time>
      </trkpt>
      <trkpt lat="40.188183" lon="-5.080317">
        <ele>1009.0</ele>
        <time>2013-06-30T13:00:13Z</time>
      </trkpt>
      <trkpt lat="40.188167" lon="-5.080450">
        <ele>1011.0</ele>
        <time>2013-06-30T13:00:14Z</time>
      </trkpt>
      <trkpt lat="40.188167" lon="-5.080583">
        <ele>1012.0</ele>
        <time>2013-06-30T13:00:15Z</time>
      </trkpt>
      <trkpt lat="40.188167" lon="-5.080733">
        <ele>1013.0</ele>
        <time>2013-06-30T13:00:16Z</time>
      </trkpt>
      <trkpt lat="40.188183" lon="-5.080883">
        <ele>1013.0</ele>
        <time>2013-06-30T13:00:17Z</time>
      </trkpt>
      <trkpt lat="40.188217" lon="-5.081017">
        <ele>1015.0</ele>
        <time>2013-06-30T13:00:18Z</time>
      </trkpt>
      <trkpt lat="40.188250" lon="-5.081133">
        <ele>1017.0</ele>
        <time>2013-06-30T13:00:19Z</time>
      </trkpt>
      <trkpt lat="40.188300" lon="-5.081233">
        <ele>1019.0</ele>
        <time>2013-06-30T13:00:20Z</time>
      </trkpt>
      <trkpt lat="40.188367" lon="-5.081333">
        <ele>1020.0</ele>
        <time>2013-06-30T13:00:21Z</time>
      </trkpt>
      <trkpt lat="40.188433" lon="-5.081433">
        <ele>1020.0</ele>
        <time>2013-06-30T13:00:22Z</time>
      </trkpt>
      <trkpt lat="40.188517" lon="-5.081517">
        <ele>1020.0</ele>
        <time>2013-06-30T13:00:23Z</time>
      </trkpt>
      <trkpt lat="40.188617" lon="-5.081583">
        <ele>1021.0</ele>
        <time>2013-06-30T13:00:24Z</time>
      </trkpt>
      <trkpt lat="40.188700" lon="-5.081600">
        <ele>1023.0</ele>
        <time>2013-06-30T13:00:25Z</time>
      </trkpt>
      <trkpt lat="40.188783" lon="-5.081600">
        <ele>1024.0</ele>
        <time>2013-06-30T13:00:26Z</time>
      </trkpt>
      <trkpt lat="40.188867" lon="-5.081583">
        <ele>1024.0</ele>
        <time>2013-06-30T13:00:27Z</time>
      </trkpt>
      <trkpt lat="40.188933" lon="-5.081533">
        <ele>1026.0</ele>
        <time>2013-06-30T13:00:28Z</time>
      </trkpt>
      <trkpt lat="40.188983" lon="-5.081500">
        <ele>1028.0</ele>
        <time>2013-06-30T13:00:29Z</time>
      </trkpt>
      <trkpt lat="40.189033" lon="-5.081433">
        <ele>1030.0</ele>
        <time>2013-06-30T13:00:30Z</time>
      </trkpt>
      <trkpt lat="40.189083" lon="-5.081383">
        <ele>1031.0</ele>
        <time>2013-06-30T13:00:31Z</time>
      </trkpt>
      <trkpt lat="40.189133" lon="-5.081317">
        <ele>1033.0</ele>
        <time>2013-06-30T13:00:32Z</time>
      </trkpt>
      <trkpt lat="40.189183" lon="-5.081250">
        <ele>1035.0</ele>
        <time>2013-06-30T13:00:33Z</time>
      </trkpt>
      <trkpt lat="40.189217" lon="-5.081167">
        <ele>1036.0</ele>
        <time>2013-06-30T13:00:34Z</time>
      </trkpt>
      <trkpt lat="40.189233" lon="-5.081083">
        <ele>1037.0</ele>
        <time>2013-06-30T13:00:35Z</time>
      </trkpt>
      <trkpt lat="40.189267" lon="-5.080900">
        <ele>1039.0</ele>
        <time>2013-06-30T13:00:37Z</time>
      </trkpt>
      <trkpt lat="40.189250" lon="-5.080833">
        <ele>1040.0</ele>
        <time>2013-06-30T13:00:38Z</time>
      </trkpt>
      <trkpt lat="40.189217" lon="-5.080767">
        <ele>1042.0</ele>
        <time>2013-06-30T13:00:39Z</time>
      </trkpt>
      <trkpt lat="40.189200" lon="-5.080700">
        <ele>1044.0</ele>
        <time>2013-06-30T13:00:40Z</time>
      </trkpt>
      <trkpt lat="40.189150" lon="-5.080667">
        <ele>1045.0</ele>
        <time>2013-06-30T13:00:41Z</time>
      </trkpt>
      <trkpt lat="40.189100" lon="-5.080617">
        <ele>1045.0</ele>
        <time>2013-06-30T13:00:42Z</time>
      </trkpt>
      <trkpt lat="40.189033" lon="-5.080567">
        <ele>1045.0</ele>
        <time>2013-06-30T13:00:43Z</time>
      </trkpt>
      <trkpt lat="40.188967" lon="-5.080533">
        <ele>1045.0</ele>
        <time>2013-06-30T13:00:44Z</time>
      </trkpt>
      <trkpt lat="40.188883" lon="-5.080517">
        <ele>1046.0</ele>
        <time>2013-06-30T13:00:45Z</time>
      </trkpt>
      <trkpt lat="40.188800" lon="-5.080500">
        <ele>1048.0</ele>
        <time>2013-06-30T13:00:46Z</time>
      </trkpt>
      <trkpt lat="40.188717" lon="-5.080517">
        <ele>1049.0</ele>
        <time>2013-06-30T13:00:47Z</time>
      </trkpt>
      <trkpt lat="40.188650" lon="-5.080550">
        <ele>1050.0</ele>
        <time>2013-06-30T13:00:48Z</time>
      </trkpt>
      <trkpt lat="40.188567" lon="-5.080583">
        <ele>1051.0</ele>
        <time>2013-06-30T13:00:49Z</time>
      </trkpt>
      <trkpt lat="40.188483" lon="-5.080633">
        <ele>1051.0</ele>
        <time>2013-06-30T13:00:50Z</time>
      </trkpt>
      <trkpt lat="40.188400" lon="-5.080700">
        <ele>1053.0</ele>
        <time>2013-06-30T13:00:51Z</time>
      </trkpt>
      <trkpt lat="40.188317" lon="-5.080750">
        <ele>1054.0</ele>
        <time>2013-06-30T13:00:52Z</time>
      </trkpt>
      <trkpt lat="40.188250" lon="-5.080800">
        <ele>1055.0</ele>
        <time>2013-06-30T13:00:53Z</time>
      </trkpt>
      <trkpt lat="40.188167" lon="-5.080850">
        <ele>1056.0</ele>
        <time>2013-06-30T13:00:54Z</time>
      </trkpt>
      <trkpt lat="40.188100" lon="-5.080917">
        <ele>1057.0</ele>
        <time>2013-06-30T13:00:55Z</time>
      </trkpt>
      <trkpt lat="40.188017" lon="-5.081000">
        <ele>1056.0</ele>
        <time>2013-06-30T13:00:56Z</time>
      </trkpt>
      <trkpt lat="40.187983" lon="-5.081100">
        <ele>1055.0</ele>
        <time>2013-06-30T13:00:57Z</time>
      </trkpt>
      <trkpt lat="40.187950" lon="-5.081233">
        <ele>1053.0</ele>
        <time>2013-06-30T13:00:58Z</time>
      </trkpt>
      <trkpt lat="40.187933" lon="-5.081350">
        <ele>1053.0</ele>
        <time>2013-06-30T13:00:59Z</time>
      </trkpt>
      <trkpt lat="40.187933" lon="-5.081467">
        <ele>1054.0</ele>
        <time>2013-06-30T13:01:00Z</time>
      </trkpt>
      <trkpt lat="40.187933" lon="-5.081583">
        <ele>1054.0</ele>
        <time>2013-06-30T13:01:01Z</time>
      </trkpt>
      <trkpt lat="40.187950" lon="-5.081683">
        <ele>1055.0</ele>
        <time>2013-06-30T13:01:02Z</time>
      </trkpt>
      <trkpt lat="40.187967" lon="-5.081783">
        <ele>1055.0</ele>
        <time>2013-06-30T13:01:03Z</time>
      </trkpt>
      <trkpt lat="40.188000" lon="-5.081883">
        <ele>1055.0</ele>
        <time>2013-06-30T13:01:04Z</time>
      </trkpt>
      <trkpt lat="40.188033" lon="-5.081983">
        <ele>1055.0</ele>
        <time>2013-06-30T13:01:05Z</time>
      </trkpt>
      <trkpt lat="40.188100" lon="-5.082083">
        <ele>1055.0</ele>
        <time>2013-06-30T13:01:06Z</time>
      </trkpt>
      <trkpt lat="40.188150" lon="-5.082183">
        <ele>1055.0</ele>
        <time>2013-06-30T13:01:07Z</time>
      </trkpt>
      <trkpt lat="40.188200" lon="-5.082267">
        <ele>1056.0</ele>
        <time>2013-06-30T13:01:08Z</time>
      </trkpt>
      <trkpt lat="40.188267" lon="-5.082333">
        <ele>1057.0</ele>
        <time>2013-06-30T13:01:09Z</time>
      </trkpt>
      <trkpt lat="40.188317" lon="-5.082400">
        <ele>1057.0</ele>
        <time>2013-06-30T13:01:10Z</time>
      </trkpt>
      <trkpt lat="40.188383" lon="-5.082450">
        <ele>1059.0</ele>
        <time>2013-06-30T13:01:11Z</time>
      </trkpt>
      <trkpt lat="40.188467" lon="-5.082517">
        <ele>1060.0</ele>
        <time>2013-06-30T13:01:12Z</time>
      </trkpt>
      <trkpt lat="40.188533" lon="-5.082567">
        <ele>1063.0</ele>
        <time>2013-06-30T13:01:13Z</time>
      </trkpt>
      <trkpt lat="40.188600" lon="-5.082600">
        <ele>1065.0</ele>
        <time>2013-06-30T13:01:14Z</time>
      </trkpt>
      <trkpt lat="40.188683" lon="-5.082633">
        <ele>1068.0</ele>
        <time>2013-06-30T13:01:15Z</time>
      </trkpt>
      <trkpt lat="40.188750" lon="-5.082633">
        <ele>1070.0</ele>
        <time>2013-06-30T13:01:16Z</time>
      </trkpt>
      <trkpt lat="40.188833" lon="-5.082633">
        <ele>1072.0</ele>
        <time>2013-06-30T13:01:17Z</time>
      </trkpt>
      <trkpt lat="40.188900" lon="-5.082617">
        <ele>1074.0</ele>
        <time>2013-06-30T13:01:18Z</time>
      </trkpt>
      <trkpt lat="40.188950" lon="-5.082583">
        <ele>1076.0</ele>
        <time>2013-06-30T13:01:19Z</time>
      </trkpt>
      <trkpt lat="40.189000" lon="-5.082533">
        <ele>1077.0</ele>
        <time>2013-06-30T13:01:20Z</time>
      </trkpt>
      <trkpt lat="40.189050" lon="-5.082467">
        <ele>1078.0</ele>
        <time>2013-06-30T13:01:21Z</time>
      </trkpt>
      <trkpt lat="40.189083" lon="-5.082400">
        <ele>1080.0</ele>
        <time>2013-06-30T13:01:22Z</time>
      </trkpt>
      <trkpt lat="40.189133" lon="-5.082333">
        <ele>1081.0</ele>
        <time>2013-06-30T13:01:23Z</time>
      </trkpt>
      <trkpt lat="40.189167" lon="-5.082250">
        <ele>1082.0</ele>
        <time>2013-06-30T13:01:24Z</time>
      </trkpt>
      <trkpt lat="40.189200" lon="-5.082167">
        <ele>1083.0</ele>
        <time>2013-06-30T13:01:25Z</time>
      </trkpt>
      <trkpt lat="40.189200" lon="-5.082067">
        <ele>1084.0</ele>
        <time>2013-06-30T13:01:26Z</time>
      </trkpt>
      <trkpt lat="40.189200" lon="-5.081983">
        <ele>1085.0</ele>
        <time>2013-06-30T13:01:27Z</time>
      </trkpt>
      <trkpt lat="40.189183" lon="-5.081883">
        <ele>1087.0</ele>
        <time>2013-06-30T13:01:28Z</time>
      </trkpt>
      <trkpt lat="40.189167" lon="-5.081800">
        <ele>1089.0</ele>
        <time>2013-06-30T13:01:29Z</time>
      </trkpt>
      <trkpt lat="40.189150" lon="-5.081700">
        <ele>1090.0</ele>
        <time>2013-06-30T13:01:30Z</time>
      </trkpt>
      <trkpt lat="40.189100" lon="-5.081617">
        <ele>1092.0</ele>
        <time>2013-06-30T13:01:31Z</time>
      </trkpt>
      <trkpt lat="40.189050" lon="-5.081533">
        <ele>1094.0</ele>
        <time>2013-06-30T13:01:32Z</time>
      </trkpt>
      <trkpt lat="40.188967" lon="-5.081467">
        <ele>1095.0</ele>
        <time>2013-06-30T13:01:33Z</time>
      </trkpt>
      <trkpt lat="40.188900" lon="-5.081433">
        <ele>1096.0</ele>
        <time>2013-06-30T13:01:34Z</time>
      </trkpt>
      <trkpt lat="40.188817" lon="-5.081417">
        <ele>1097.0</ele>
        <time>2013-06-30T13:01:35Z</time>
      </trkpt>
      <trkpt lat="40.188633" lon="-5.081433">
        <ele>1099.0</ele>
        <time>2013-06-30T13:01:37Z</time>
      </trkpt>
      <trkpt lat="40.188567" lon="-5.081483">
        <ele>1099.0</ele>
        <time>2013-06-30T13:01:38Z</time>
      </trkpt>
      <trkpt lat="40.188483" lon="-5.081550">
        <ele>1098.0</ele>
        <time>2013-06-30T13:01:39Z</time>
      </trkpt>
      <trkpt lat="40.188283" lon="-5.081800">
        <ele>1097.0</ele>
        <time>2013-06-30T13:01:42Z</time>
      </trkpt>
      <trkpt lat="40.188233" lon="-5.081900">
        <ele>1096.0</ele>
        <time>2013-06-30T13:01:43Z</time>
      </trkpt>
      <trkpt lat="40.188200" lon="-5.081983">
        <ele>1096.0</ele>
        <time>2013-06-30T13:01:44Z</time>
      </trkpt>
      <trkpt lat="40.188150" lon="-5.082083">
        <ele>1095.0</ele>
        <time>2013-06-30T13:01:45Z</time>
      </trkpt>
      <trkpt lat="40.188100" lon="-5.082167">
        <ele>1094.0</ele>
        <time>2013-06-30T13:01:46Z</time>
      </trkpt>
      <trkpt lat="40.188067" lon="-5.082250">
        <ele>1093.0</ele>
        <time>2013-06-30T13:01:47Z</time>
      </trkpt>
      <trkpt lat="40.188033" lon="-5.082350">
        <ele>1092.0</ele>
        <time>2013-06-30T13:01:48Z</time>
      </trkpt>
      <trkpt lat="40.188017" lon="-5.082450">
        <ele>1089.0</ele>
        <time>2013-06-30T13:01:49Z</time>
      </trkpt>
      <trkpt lat="40.188000" lon="-5.082567">
        <ele>1088.0</ele>
        <time>2013-06-30T13:01:50Z</time>
      </trkpt>
      <trkpt lat="40.187967" lon="-5.082683">
        <ele>1087.0</ele>
        <time>2013-06-30T13:01:51Z</time>
      </trkpt>
      <trkpt lat="40.187950" lon="-5.082900">
        <ele>1085.0</ele>
        <time>2013-06-30T13:01:53Z</time>
      </trkpt>
      <trkpt lat="40.187967" lon="-5.083017">
        <ele>1083.0</ele>
        <time>2013-06-30T13:01:54Z</time>
      </trkpt>
      <trkpt lat="40.187983" lon="-5.083167">
        <ele>1081.0</ele>
        <time>2013-06-30T13:01:55Z</time>
      </trkpt>
      <trkpt lat="40.188017" lon="-5.083300">
        <ele>1079.0</ele>
        <time>2013-06-30T13:01:56Z</time>
      </trkpt>
      <trkpt lat="40.188067" lon="-5.083417">
        <ele>1079.0</ele>
        <time>2013-06-30T13:01:57Z</time>
      </trkpt>
      <trkpt lat="40.188100" lon="-5.083533">
        <ele>1080.0</ele>
        <time>2013-06-30T13:01:58Z</time>
      </trkpt>
      <trkpt lat="40.188150" lon="-5.083650">
        <ele>1080.0</ele>
        <time>2013-06-30T13:01:59Z</time>
      </trkpt>
      <trkpt lat="40.188217" lon="-5.083767">
        <ele>1080.0</ele>
        <time>2013-06-30T13:02:00Z</time>
      </trkpt>
      <trkpt lat="40.188283" lon="-5.083867">
        <ele>1080.0</ele>
        <time>2013-06-30T13:02:01Z</time>
      </trkpt>
      <trkpt lat="40.188350" lon="-5.083933">
        <ele>1082.0</ele>
        <time>2013-06-30T13:02:02Z</time>
      </trkpt>
      <trkpt lat="40.188417" lon="-5.084000">
        <ele>1083.0</ele>
        <time>2013-06-30T13:02:03Z</time>
      </trkpt>
      <trkpt lat="40.188500" lon="-5.084050">
        <ele>1085.0</ele>
        <time>2013-06-30T13:02:04Z</time>
      </trkpt>
      <trkpt lat="40.188583" lon="-5.084083">
        <ele>1086.0</ele>
        <time>2013-06-30T13:02:05Z</time>
      </trkpt>
      <trkpt lat="40.188733" lon="-5.084067">
        <ele>1089.0</ele>
        <time>2013-06-30T13:02:07Z</time>
      </trkpt>
      <trkpt lat="40.188800" lon="-5.084050">
        <ele>1090.0</ele>
        <time>2013-06-30T13:02:08Z</time>
      </trkpt>
      <trkpt lat="40.188883" lon="-5.084033">
        <ele>1091.0</ele>
        <time>2013-06-30T13:02:09Z</time>
      </trkpt>
      <trkpt lat="40.188967" lon="-5.084033">
        <ele>1093.0</ele>
        <time>2013-06-30T13:02:10Z</time>
      </trkpt>
      <trkpt lat="40.189033" lon="-5.084050">
        <ele>1096.0</ele>
        <time>2013-06-30T13:02:11Z</time>
      </trkpt>
      <trkpt lat="40.189100" lon="-5.084033">
        <ele>1098.0</ele>
        <time>2013-06-30T13:02:12Z</time>
      </trkpt>
      <trkpt lat="40.189150" lon="-5.084017">
        <ele>1100.0</ele>
        <time>2013-06-30T13:02:13Z</time>
      </trkpt>
      <trkpt lat="40.189200" lon="-5.083967">
        <ele>1101.0</ele>
        <time>2013-06-30T13:02:14Z</time>
      </trkpt>
      <trkpt lat="40.189267" lon="-5.083917">
        <ele>1100.0</ele>
        <time>2013-06-30T13:02:15Z</time>
      </trkpt>
      <trkpt lat="40.189317" lon="-5.083867">
        <ele>1100.0</ele>
        <time>2013-06-30T13:02:16Z</time>
      </trkpt>
      <trkpt lat="40.189367" lon="-5.083783">
        <ele>1100.0</ele>
        <time>2013-06-30T13:02:17Z</time>
      </trkpt>
      <trkpt lat="40.189400" lon="-5.083717">
        <ele>1101.0</ele>
        <time>2013-06-30T13:02:18Z</time>
      </trkpt>
      <trkpt lat="40.189417" lon="-5.083650">
        <ele>1101.0</ele>
        <time>2013-06-30T13:02:19Z</time>
      </trkpt>
      <trkpt lat="40.189433" lon="-5.083567">
        <ele>1101.0</ele>
        <time>2013-06-30T13:02:20Z</time>
      </trkpt>
      <trkpt lat="40.189450" lon="-5.083367">
        <ele>1099.0</ele>
        <time>2013-06-30T13:02:22Z</time>
      </trkpt>
      <trkpt lat="40.189467" lon="-5.083250">
        <ele>1098.0</ele>
        <time>2013-06-30T13:02:23Z</time>
      </trkpt>
      <trkpt lat="40.189467" lon="-5.083167">
        <ele>1099.0</ele>
        <time>2013-06-30T13:02:24Z</time>
      </trkpt>
      <trkpt lat="40.189450" lon="-5.083100">
        <ele>1100.0</ele>
        <time>2013-06-30T13:02:25Z</time>
      </trkpt>
      <trkpt lat="40.189417" lon="-5.083050">
        <ele>1100.0</ele>
        <time>2013-06-30T13:02:26Z</time>
      </trkpt>
      <trkpt lat="40.189383" lon="-5.082983">
        <ele>1102.0</ele>
        <time>2013-06-30T13:02:27Z</time>
      </trkpt>
      <trkpt lat="40.189333" lon="-5.082917">
        <ele>1103.0</ele>
        <time>2013-06-30T13:02:28Z</time>
      </trkpt>
      <trkpt lat="40.189300" lon="-5.082833">
        <ele>1104.0</ele>
        <time>2013-06-30T13:02:29Z</time>
      </trkpt>
      <trkpt lat="40.189250" lon="-5.082767">
        <ele>1105.0</ele>
        <time>2013-06-30T13:02:30Z</time>
      </trkpt>
      <trkpt lat="40.189217" lon="-5.082717">
        <ele>1107.0</ele>
        <time>2013-06-30T13:02:31Z</time>
      </trkpt>
      <trkpt lat="40.189167" lon="-5.082683">
        <ele>1109.0</ele>
        <time>2013-06-30T13:02:32Z</time>
      </trkpt>
      <trkpt lat="40.189100" lon="-5.082650">
        <ele>1110.0</ele>
        <time>2013-06-30T13:02:33Z</time>
      </trkpt>
      <trkpt lat="40.189033" lon="-5.082617">
        <ele>1111.0</ele>
        <time>2013-06-30T13:02:34Z</time>
      </trkpt>
      <trkpt lat="40.188950" lon="-5.082583">
        <ele>1111.0</ele>
        <time>2013-06-30T13:02:35Z</time>
      </trkpt>
      <trkpt lat="40.188883" lon="-5.082567">
        <ele>1111.0</ele>
        <time>2013-06-30T13:02:36Z</time>
      </trkpt>
      <trkpt lat="40.188817" lon="-5.082567">
        <ele>1112.0</ele>
        <time>2013-06-30T13:02:37Z</time>
      </trkpt>
      <trkpt lat="40.188767" lon="-5.082567">
        <ele>1113.0</ele>
        <time>2013-06-30T13:02:38Z</time>
      </trkpt>
      <trkpt lat="40.188700" lon="-5.082583">
        <ele>1113.0</ele>
        <time>2013-06-30T13:02:39Z</time>
      </trkpt>
      <trkpt lat="40.188617" lon="-5.082617">
        <ele>1113.0</ele>
        <time>2013-06-30T13:02:40Z</time>
      </trkpt>
      <trkpt lat="40.188533" lon="-5.082650">
        <ele>1112.0</ele>
        <time>2013-06-30T13:02:41Z</time>
      </trkpt>
      <trkpt lat="40.188467" lon="-5.082700">
        <ele>1112.0</ele>
        <time>2013-06-30T13:02:42Z</time>
      </trkpt>
      <trkpt lat="40.188400" lon="-5.082767">
        <ele>1112.0</ele>
        <time>2013-06-30T13:02:43Z</time>
      </trkpt>
      <trkpt lat="40.188350" lon="-5.082867">
        <ele>1111.0</ele>
        <time>2013-06-30T13:02:44Z</time>
      </trkpt>
      <trkpt lat="40.188300" lon="-5.082967">
        <ele>1111.0</ele>
        <time>2013-06-30T13:02:45Z</time>
      </trkpt>
      <trkpt lat="40.188267" lon="-5.083067">
        <ele>1110.0</ele>
        <time>2013-06-30T13:02:46Z</time>
      </trkpt>
      <trkpt lat="40.188217" lon="-5.083183">
        <ele>1109.0</ele>
        <time>2013-06-30T13:02:47Z</time>
      </trkpt>
      <trkpt lat="40.188200" lon="-5.083283">
        <ele>1107.0</ele>
        <time>2013-06-30T13:02:48Z</time>
      </trkpt>
      <trkpt lat="40.188167" lon="-5.083400">
        <ele>1104.0</ele>
        <time>2013-06-30T13:02:49Z</time>
      </trkpt>
      <trkpt lat="40.188167" lon="-5.083533">
        <ele>1103.0</ele>
        <time>2013-06-30T13:02:50Z</time>
      </trkpt>
      <trkpt lat="40.188150" lon="-5.083650">
        <ele>1101.0</ele>
        <time>2013-06-30T13:02:51Z</time>
      </trkpt>
      <trkpt lat="40.188133" lon="-5.083767">
        <ele>1099.0</ele>
        <time>2013-06-30T13:02:52Z</time>
      </trkpt>
      <trkpt lat="40.188133" lon="-5.083900">
        <ele>1098.0</ele>
        <time>2013-06-30T13:02:53Z</time>
      </trkpt>
      <trkpt lat="40.188133" lon="-5.084017">
        <ele>1097.0</ele>
        <time>2013-06-30T13:02:54Z</time>
      </trkpt>
      <trkpt lat="40.188150" lon="-5.084167">
        <ele>1095.0</ele>
        <time>2013-06-30T13:02:55Z</time>
      </trkpt>
      <trkpt lat="40.188183" lon="-5.084317">
        <ele>1094.0</ele>
        <time>2013-06-30T13:02:56Z</time>
      </trkpt>
      <trkpt lat="40.188217" lon="-5.084467">
        <ele>1093.0</ele>
        <time>2013-06-30T13:02:57Z</time>
      </trkpt>
      <trkpt lat="40.188267" lon="-5.084600">
        <ele>1093.0</ele>
        <time>2013-06-30T13:02:58Z</time>
      </trkpt>
      <trkpt lat="40.188317" lon="-5.084717">
        <ele>1093.0</ele>
        <time>2013-06-30T13:02:59Z</time>
      </trkpt>
      <trkpt lat="40.188383" lon="-5.084833">
        <ele>1094.0</ele>
        <time>2013-06-30T13:03:00Z</time>
      </trkpt>
      <trkpt lat="40.188433" lon="-5.084933">
        <ele>1096.0</ele>
        <time>2013-06-30T13:03:01Z</time>
      </trkpt>
      <trkpt lat="40.188500" lon="-5.085017">
        <ele>1097.0</ele>
        <time>2013-06-30T13:03:02Z</time>
      </trkpt>
      <trkpt lat="40.188583" lon="-5.085067">
        <ele>1098.0</ele>
        <time>2013-06-30T13:03:03Z</time>
      </trkpt>
      <trkpt lat="40.188667" lon="-5.085133">
        <ele>1100.0</ele>
        <time>2013-06-30T13:03:04Z</time>
      </trkpt>
      <trkpt lat="40.188767" lon="-5.085167">
        <ele>1102.0</ele>
        <time>2013-06-30T13:03:05Z</time>
      </trkpt>
      <trkpt lat="40.188850" lon="-5.085200">
        <ele>1105.0</ele>
        <time>2013-06-30T13:03:06Z</time>
      </trkpt>
      <trkpt lat="40.188917" lon="-5.085200">
        <ele>1107.0</ele>
        <time>2013-06-30T13:03:07Z</time>
      </trkpt>
      <trkpt lat="40.188983" lon="-5.085200">
        <ele>1109.0</ele>
        <time>2013-06-30T13:03:08Z</time>
      </trkpt>
      <trkpt lat="40.189067" lon="-5.085183">
        <ele>1110.0</ele>
        <time>2013-06-30T13:03:09Z</time>
      </trkpt>
      <trkpt lat="40.189150" lon="-5.085167">
        <ele>1111.0</ele>
        <time>2013-06-30T13:03:10Z</time>
      </trkpt>
      <trkpt lat="40.189217" lon="-5.085117">
        <ele>1112.0</ele>
        <time>2013-06-30T13:03:11Z</time>
      </trkpt>
      <trkpt lat="40.189283" lon="-5.085050">
        <ele>1113.0</ele>
        <time>2013-06-30T13:03:12Z</time>
      </trkpt>
      <trkpt lat="40.189317" lon="-5.084983">
        <ele>1115.0</ele>
        <time>2013-06-30T13:03:13Z</time>
      </trkpt>
      <trkpt lat="40.189350" lon="-5.084933">
        <ele>1117.0</ele>
        <time>2013-06-30T13:03:14Z</time>
      </trkpt>
      <trkpt lat="40.189400" lon="-5.084817">
        <ele>1121.0</ele>
        <time>2013-06-30T13:03:16Z</time>
      </trkpt>
      <trkpt lat="40.189417" lon="-5.084750">
        <ele>1122.0</ele>
        <time>2013-06-30T13:03:17Z</time>
      </trkpt>
      <trkpt lat="40.189433" lon="-5.084667">
        <ele>1123.0</ele>
        <time>2013-06-30T13:03:18Z</time>
      </trkpt>
      <trkpt lat="40.189450" lon="-5.084583">
        <ele>1124.0</ele>
        <time>2013-06-30T13:03:19Z</time>
      </trkpt>
      <trkpt lat="40.189450" lon="-5.084500">
        <ele>1125.0</ele>
        <time>2013-06-30T13:03:20Z</time>
      </trkpt>
      <trkpt lat="40.189450" lon="-5.084433">
        <ele>1126.0</ele>
        <time>2013-06-30T13:03:21Z</time>
      </trkpt>
      <trkpt lat="40.189450" lon="-5.084367">
        <ele>1128.0</ele>
        <time>2013-06-30T13:03:22Z</time>
      </trkpt>
      <trkpt lat="40.189450" lon="-5.084283">
        <ele>1129.0</ele>
        <time>2013-06-30T13:03:23Z</time>
      </trkpt>
      <trkpt lat="40.189433" lon="-5.084217">
        <ele>1130.0</ele>
        <time>2013-06-30T13:03:24Z</time>
      </trkpt>
      <trkpt lat="40.189400" lon="-5.084150">
        <ele>1131.0</ele>
        <time>2013-06-30T13:03:25Z</time>
      </trkpt>
      <trkpt lat="40.189367" lon="-5.084083">
        <ele>1131.0</ele>
        <time>2013-06-30T13:03:26Z</time>
      </trkpt>
      <trkpt lat="40.189317" lon="-5.084033">
        <ele>1131.0</ele>
        <time>2013-06-30T13:03:27Z</time>
      </trkpt>
      <trkpt lat="40.189267" lon="-5.084000">
        <ele>1131.0</ele>
        <time>2013-06-30T13:03:28Z</time>
      </trkpt>
      <trkpt lat="40.189200" lon="-5.083967">
        <ele>1131.0</ele>
        <time>2013-06-30T13:03:29Z</time>
      </trkpt>
      <trkpt lat="40.189133" lon="-5.083967">
        <ele>1131.0</ele>
        <time>2013-06-30T13:03:30Z</time>
      </trkpt>
      <trkpt lat="40.189050" lon="-5.084000">
        <ele>1131.0</ele>
        <time>2013-06-30T13:03:31Z</time>
      </trkpt>
      <trkpt lat="40.188967" lon="-5.084067">
        <ele>1130.0</ele>
        <time>2013-06-30T13:03:32Z</time>
      </trkpt>
      <trkpt lat="40.188900" lon="-5.084150">
        <ele>1129.0</ele>
        <time>2013-06-30T13:03:33Z</time>
      </trkpt>
      <trkpt lat="40.188850" lon="-5.084250">
        <ele>1129.0</ele>
        <time>2013-06-30T13:03:34Z</time>
      </trkpt>
      <trkpt lat="40.188817" lon="-5.084333">
        <ele>1129.0</ele>
        <time>2013-06-30T13:03:35Z</time>
      </trkpt>
      <trkpt lat="40.188783" lon="-5.084450">
        <ele>1128.0</ele>
        <time>2013-06-30T13:03:36Z</time>
      </trkpt>
      <trkpt lat="40.188767" lon="-5.084567">
        <ele>1127.0</ele>
        <time>2013-06-30T13:03:37Z</time>
      </trkpt>
      <trkpt lat="40.188750" lon="-5.084683">
        <ele>1125.0</ele>
        <time>2013-06-30T13:03:38Z</time>
      </trkpt>
      <trkpt lat="40.188767" lon="-5.084817">
        <ele>1124.0</ele>
        <time>2013-06-30T13:03:39Z</time>
      </trkpt>
      <trkpt lat="40.188783" lon="-5.084950">
        <ele>1123.0</ele>
        <time>2013-06-30T13:03:40Z</time>
      </trkpt>
      <trkpt lat="40.188883" lon="-5.085200">
        <ele>1121.0</ele>
        <time>2013-06-30T13:03:42Z</time>
      </trkpt>
      <trkpt lat="40.188950" lon="-5.085300">
        <ele>1121.0</ele>
        <time>2013-06-30T13:03:43Z</time>
      </trkpt>
      <trkpt lat="40.189017" lon="-5.085383">
        <ele>1121.0</ele>
        <time>2013-06-30T13:03:44Z</time>
      </trkpt>
      <trkpt lat="40.189083" lon="-5.085433">
        <ele>1122.0</ele>
        <time>2013-06-30T13:03:45Z</time>
      </trkpt>
      <trkpt lat="40.189167" lon="-5.085517">
        <ele>1123.0</ele>
        <time>2013-06-30T13:03:46Z</time>
      </trkpt>
      <trkpt lat="40.189250" lon="-5.085600">
        <ele>1124.0</ele>
        <time>2013-06-30T13:03:47Z</time>
      </trkpt>
      <trkpt lat="40.189317" lon="-5.085700">
        <ele>1124.0</ele>
        <time>2013-06-30T13:03:48Z</time>
      </trkpt>
      <trkpt lat="40.189417" lon="-5.085767">
        <ele>1125.0</ele>
        <time>2013-06-30T13:03:49Z</time>
      </trkpt>
      <trkpt lat="40.189517" lon="-5.085800">
        <ele>1126.0</ele>
        <time>2013-06-30T13:03:50Z</time>
      </trkpt>
      <trkpt lat="40.189617" lon="-5.085800">
        <ele>1127.0</ele>
        <time>2013-06-30T13:03:51Z</time>
      </trkpt>
      <trkpt lat="40.189700" lon="-5.085750">
        <ele>1130.0</ele>
        <time>2013-06-30T13:03:52Z</time>
      </trkpt>
      <trkpt lat="40.189767" lon="-5.085700">
        <ele>1132.0</ele>
        <time>2013-06-30T13:03:53Z</time>
      </trkpt>
      <trkpt lat="40.189817" lon="-5.085650">
        <ele>1135.0</ele>
        <time>2013-06-30T13:03:54Z</time>
      </trkpt>
      <trkpt lat="40.189867" lon="-5.085567">
        <ele>1137.0</ele>
        <time>2013-06-30T13:03:55Z</time>
      </trkpt>
      <trkpt lat="40.189883" lon="-5.085483">
        <ele>1139.0</ele>
        <time>2013-06-30T13:03:56Z</time>
      </trkpt>
      <trkpt lat="40.189883" lon="-5.085400">
        <ele>1140.0</ele>
        <time>2013-06-30T13:03:57Z</time>
      </trkpt>
      <trkpt lat="40.189867" lon="-5.085300">
        <ele>1141.0</ele>
        <time>2013-06-30T13:03:58Z</time>
      </trkpt>
      <trkpt lat="40.189817" lon="-5.085217">
        <ele>1142.0</ele>
        <time>2013-06-30T13:03:59Z</time>
      </trkpt>
      <trkpt lat="40.189750" lon="-5.085167">
        <ele>1143.0</ele>
        <time>2013-06-30T13:04:00Z</time>
      </trkpt>
      <trkpt lat="40.189683" lon="-5.085133">
        <ele>1144.0</ele>
        <time>2013-06-30T13:04:01Z</time>
      </trkpt>
      <trkpt lat="40.189617" lon="-5.085133">
        <ele>1146.0</ele>
        <time>2013-06-30T13:04:02Z</time>
      </trkpt>
      <trkpt lat="40.189550" lon="-5.085133">
        <ele>1148.0</ele>
        <time>2013-06-30T13:04:03Z</time>
      </trkpt>
      <trkpt lat="40.189483" lon="-5.085133">
        <ele>1149.0</ele>
        <time>2013-06-30T13:04:04Z</time>
      </trkpt>
      <trkpt lat="40.189417" lon="-5.085167">
        <ele>1150.0</ele>
        <time>2013-06-30T13:04:05Z</time>
      </trkpt>
      <trkpt lat="40.189333" lon="-5.085200">
        <ele>1150.0</ele>
        <time>2013-06-30T13:04:06Z</time>
      </trkpt>
      <trkpt lat="40.189267" lon="-5.085267">
        <ele>1150.0</ele>
        <time>2013-06-30T13:04:07Z</time>
      </trkpt>
      <trkpt lat="40.189200" lon="-5.085367">
        <ele>1149.0</ele>
        <time>2013-06-30T13:04:08Z</time>
      </trkpt>
      <trkpt lat="40.189167" lon="-5.085500">
        <ele>1148.0</ele>
        <time>2013-06-30T13:04:09Z</time>
      </trkpt>
      <trkpt lat="40.189133" lon="-5.085617">
        <ele>1146.0</ele>
        <time>2013-06-30T13:04:10Z</time>
      </trkpt>
      <trkpt lat="40.189133" lon="-5.085750">
        <ele>1145.0</ele>
        <time>2013-06-30T13:04:11Z</time>
      </trkpt>
      <trkpt lat="40.189150" lon="-5.085900">
        <ele>1145.0</ele>
        <time>2013-06-30T13:04:12Z</time>
      </trkpt>
      <trkpt lat="40.189167" lon="-5.086033">
        <ele>1145.0</ele>
        <time>2013-06-30T13:04:13Z</time>
      </trkpt>
      <trkpt lat="40.189217" lon="-5.086150">
        <ele>1145.0</ele>
        <time>2013-06-30T13:04:14Z</time>
      </trkpt>
      <trkpt lat="40.189267" lon="-5.086267">
        <ele>1145.0</ele>
        <time>2013-06-30T13:04:15Z</time>
      </trkpt>
      <trkpt lat="40.189333" lon="-5.086350">
        <ele>1146.0</ele>
        <time>2013-06-30T13:04:16Z</time>
      </trkpt>
      <trkpt lat="40.189400" lon="-5.086433">
        <ele>1149.0</ele>
        <time>2013-06-30T13:04:17Z</time>
      </trkpt>
      <trkpt lat="40.189450" lon="-5.086500">
        <ele>1151.0</ele>
        <time>2013-06-30T13:04:18Z</time>
      </trkpt>
      <trkpt lat="40.189517" lon="-5.086567">
        <ele>1153.0</ele>
        <time>2013-06-30T13:04:19Z</time>
      </trkpt>
      <trkpt lat="40.189583" lon="-5.086633">
        <ele>1153.0</ele>
        <time>2013-06-30T13:04:20Z</time>
      </trkpt>
      <trkpt lat="40.189667" lon="-5.086700">
        <ele>1153.0</ele>
        <time>2013-06-30T13:04:21Z</time>
      </trkpt>
      <trkpt lat="40.189750" lon="-5.086750">
        <ele>1152.0</ele>
        <time>2013-06-30T13:04:22Z</time>
      </trkpt>
      <trkpt lat="40.189833" lon="-5.086800">
        <ele>1152.0</ele>
        <time>2013-06-30T13:04:23Z</time>
      </trkpt>
      <trkpt lat="40.189917" lon="-5.086850">
        <ele>1153.0</ele>
        <time>2013-06-30T13:04:24Z</time>
      </trkpt>
      <trkpt lat="40.189983" lon="-5.086867">
        <ele>1154.0</ele>
        <time>2013-06-30T13:04:25Z</time>
      </trkpt>
      <trkpt lat="40.190133" lon="-5.086867">
        <ele>1156.0</ele>
        <time>2013-06-30T13:04:27Z</time>
      </trkpt>
      <trkpt lat="40.190200" lon="-5.086850">
        <ele>1156.0</ele>
        <time>2013-06-30T13:04:28Z</time>
      </trkpt>
      <trkpt lat="40.190267" lon="-5.086817">
        <ele>1157.0</ele>
        <time>2013-06-30T13:04:29Z</time>
      </trkpt>
      <trkpt lat="40.190333" lon="-5.086783">
        <ele>1158.0</ele>
        <time>2013-06-30T13:04:30Z</time>
      </trkpt>
      <trkpt lat="40.190400" lon="-5.086767">
        <ele>1158.0</ele>
        <time>2013-06-30T13:04:31Z</time>
      </trkpt>
      <trkpt lat="40.190467" lon="-5.086733">
        <ele>1158.0</ele>
        <time>2013-06-30T13:04:32Z</time>
      </trkpt>
      <trkpt lat="40.190533" lon="-5.086717">
        <ele>1158.0</ele>
        <time>2013-06-30T13:04:33Z</time>
      </trkpt>
      <trkpt lat="40.190583" lon="-5.086667">
        <ele>1159.0</ele>
        <time>2013-06-30T13:04:34Z</time>
      </trkpt>
      <trkpt lat="40.190633" lon="-5.086600">
        <ele>1158.0</ele>
        <time>2013-06-30T13:04:35Z</time>
      </trkpt>
      <trkpt lat="40.190683" lon="-5.086533">
        <ele>1158.0</ele>
        <time>2013-06-30T13:04:36Z</time>
      </trkpt>
      <trkpt lat="40.190717" lon="-5.086450">
        <ele>1158.0</ele>
        <time>2013-06-30T13:04:37Z</time>
      </trkpt>
      <trkpt lat="40.190750" lon="-5.086367">
        <ele>1157.0</ele>
        <time>2013-06-30T13:04:38Z</time>
      </trkpt>
      <trkpt lat="40.190767" lon="-5.086300">
        <ele>1157.0</ele>
        <time>2013-06-30T13:04:39Z</time>
      </trkpt>
      <trkpt lat="40.190800" lon="-5.086217">
        <ele>1157.0</ele>
        <time>2013-06-30T13:04:40Z</time>
      </trkpt>
      <trkpt lat="40.190833" lon="-5.086133">
        <ele>1156.0</ele>
        <time>2013-06-30T13:04:41Z</time>
      </trkpt>
      <trkpt lat="40.190850" lon="-5.086050">
        <ele>1156.0</ele>
        <time>2013-06-30T13:04:42Z</time>
      </trkpt>
      <trkpt lat="40.190867" lon="-5.085983">
        <ele>1156.0</ele>
        <time>2013-06-30T13:04:43Z</time>
      </trkpt>
      <trkpt lat="40.190900" lon="-5.085817">
        <ele>1156.0</ele>
        <time>2013-06-30T13:04:45Z</time>
      </trkpt>
      <trkpt lat="40.190917" lon="-5.085717">
        <ele>1156.0</ele>
        <time>2013-06-30T13:04:46Z</time>
      </trkpt>
      <trkpt lat="40.190917" lon="-5.085633">
        <ele>1156.0</ele>
        <time>2013-06-30T13:04:47Z</time>
      </trkpt>
      <trkpt lat="40.190917" lon="-5.085550">
        <ele>1157.0</ele>
        <time>2013-06-30T13:04:48Z</time>
      </trkpt>
      <trkpt lat="40.190900" lon="-5.085500">
        <ele>1158.0</ele>
        <time>2013-06-30T13:04:49Z</time>
      </trkpt>
      <trkpt lat="40.190883" lon="-5.085433">
        <ele>1159.0</ele>
        <time>2013-06-30T13:04:50Z</time>
      </trkpt>
      <trkpt lat="40.190867" lon="-5.085350">
        <ele>1160.0</ele>
        <time>2013-06-30T13:04:51Z</time>
      </trkpt>
      <trkpt lat="40.190833" lon="-5.085283">
        <ele>1160.0</ele>
        <time>2013-06-30T13:04:52Z</time>
      </trkpt>
      <trkpt lat="40.190783" lon="-5.085217">
        <ele>1161.0</ele>
        <time>2013-06-30T13:04:53Z</time>
      </trkpt>
      <trkpt lat="40.190717" lon="-5.085167">
        <ele>1162.0</ele>
        <time>2013-06-30T13:04:54Z</time>
      </trkpt>
      <trkpt lat="40.190667" lon="-5.085133">
        <ele>1162.0</ele>
        <time>2013-06-30T13:04:55Z</time>
      </trkpt>
      <trkpt lat="40.190600" lon="-5.085100">
        <ele>1163.0</ele>
        <time>2013-06-30T13:04:56Z</time>
      </trkpt>
      <trkpt lat="40.190550" lon="-5.085067">
        <ele>1163.0</ele>
        <time>2013-06-30T13:04:57Z</time>
      </trkpt>
      <trkpt lat="40.190483" lon="-5.085033">
        <ele>1163.0</ele>
        <time>2013-06-30T13:04:58Z</time>
      </trkpt>
      <trkpt lat="40.190400" lon="-5.085017">
        <ele>1164.0</ele>
        <time>2013-06-30T13:04:59Z</time>
      </trkpt>
      <trkpt lat="40.190317" lon="-5.085017">
        <ele>1164.0</ele>
        <time>2013-06-30T13:05:00Z</time>
      </trkpt>
      <trkpt lat="40.190233" lon="-5.085050">
        <ele>1163.0</ele>
        <time>2013-06-30T13:05:01Z</time>
      </trkpt>
      <trkpt lat="40.190167" lon="-5.085083">
        <ele>1163.0</ele>
        <time>2013-06-30T13:05:02Z</time>
      </trkpt>
      <trkpt lat="40.190083" lon="-5.085133">
        <ele>1163.0</ele>
        <time>2013-06-30T13:05:03Z</time>
      </trkpt>
      <trkpt lat="40.190000" lon="-5.085183">
        <ele>1163.0</ele>
        <time>2013-06-30T13:05:04Z</time>
      </trkpt>
      <trkpt lat="40.189933" lon="-5.085250">
        <ele>1163.0</ele>
        <time>2013-06-30T13:05:05Z</time>
      </trkpt>
      <trkpt lat="40.189850" lon="-5.085333">
        <ele>1164.0</ele>
        <time>2013-06-30T13:05:06Z</time>
      </trkpt>
      <trkpt lat="40.189783" lon="-5.085417">
        <ele>1165.0</ele>
        <time>2013-06-30T13:05:07Z</time>
      </trkpt>
      <trkpt lat="40.189733" lon="-5.085517">
        <ele>1166.0</ele>
        <time>2013-06-30T13:05:08Z</time>
      </trkpt>
      <trkpt lat="40.189700" lon="-5.085617">
        <ele>1168.0</ele>
        <time>2013-06-30T13:05:09Z</time>
      </trkpt>
      <trkpt lat="40.189683" lon="-5.085733">
        <ele>1168.0</ele>
        <time>2013-06-30T13:05:10Z</time>
      </trkpt>
      <trkpt lat="40.189667" lon="-5.085833">
        <ele>1167.0</ele>
        <time>2013-06-30T13:05:11Z</time>
      </trkpt>
      <trkpt lat="40.189667" lon="-5.085950">
        <ele>1167.0</ele>
        <time>2013-06-30T13:05:12Z</time>
      </trkpt>
      <trkpt lat="40.189700" lon="-5.086083">
        <ele>1167.0</ele>
        <time>2013-06-30T13:05:13Z</time>
      </trkpt>
      <trkpt lat="40.189733" lon="-5.086183">
        <ele>1166.0</ele>
        <time>2013-06-30T13:05:14Z</time>
      </trkpt>
      <trkpt lat="40.189800" lon="-5.086283">
        <ele>1166.0</ele>
        <time>2013-06-30T13:05:15Z</time>
      </trkpt>
      <trkpt lat="40.189867" lon="-5.086367">
        <ele>1166.0</ele>
        <time>2013-06-30T13:05:16Z</time>
      </trkpt>
      <trkpt lat="40.189950" lon="-5.086417">
        <ele>1166.0</ele>
        <time>2013-06-30T13:05:17Z</time>
      </trkpt>
      <trkpt lat="40.190033" lon="-5.086483">
        <ele>1165.0</ele>
        <time>2013-06-30T13:05:18Z</time>
      </trkpt>
      <trkpt lat="40.190117" lon="-5.086517">
        <ele>1166.0</ele>
        <time>2013-06-30T13:05:19Z</time>
      </trkpt>
      <trkpt lat="40.190217" lon="-5.086550">
        <ele>1166.0</ele>
        <time>2013-06-30T13:05:20Z</time>
      </trkpt>
      <trkpt lat="40.190300" lon="-5.086550">
        <ele>1166.0</ele>
        <time>2013-06-30T13:05:21Z</time>
      </trkpt>
      <trkpt lat="40.190383" lon="-5.086533">
        <ele>1167.0</ele>
        <time>2013-06-30T13:05:22Z</time>
      </trkpt>
      <trkpt lat="40.190450" lon="-5.086483">
        <ele>1167.0</ele>
        <time>2013-06-30T13:05:23Z</time>
      </trkpt>
      <trkpt lat="40.190533" lon="-5.086417">
        <ele>1167.0</ele>
        <time>2013-06-30T13:05:24Z</time>
      </trkpt>
      <trkpt lat="40.190600" lon="-5.086367">
        <ele>1167.0</ele>
        <time>2013-06-30T13:05:25Z</time>
      </trkpt>
      <trkpt lat="40.190683" lon="-5.086300">
        <ele>1167.0</ele>
        <time>2013-06-30T13:05:26Z</time>
      </trkpt>
      <trkpt lat="40.190750" lon="-5.086233">
        <ele>1168.0</ele>
        <time>2013-06-30T13:05:27Z</time>
      </trkpt>
      <trkpt lat="40.190817" lon="-5.086167">
        <ele>1169.0</ele>
        <time>2013-06-30T13:05:28Z</time>
      </trkpt>
      <trkpt lat="40.190867" lon="-5.086100">
        <ele>1171.0</ele>
        <time>2013-06-30T13:05:29Z</time>
      </trkpt>
      <trkpt lat="40.190900" lon="-5.086033">
        <ele>1172.0</ele>
        <time>2013-06-30T13:05:30Z</time>
      </trkpt>
      <trkpt lat="40.190917" lon="-5.085967">
        <ele>1173.0</ele>
        <time>2013-06-30T13:05:31Z</time>
      </trkpt>
      <trkpt lat="40.190933" lon="-5.085883">
        <ele>1174.0</ele>
        <time>2013-06-30T13:05:32Z</time>
      </trkpt>
      <trkpt lat="40.190933" lon="-5.085700">
        <ele>1173.0</ele>
        <time>2013-06-30T13:05:34Z</time>
      </trkpt>
      <trkpt lat="40.190917" lon="-5.085617">
        <ele>1173.0</ele>
        <time>2013-06-30T13:05:35Z</time>
      </trkpt>
      <trkpt lat="40.190900" lon="-5.085550">
        <ele>1173.0</ele>
        <time>2013-06-30T13:05:36Z</time>
      </trkpt>
      <trkpt lat="40.190850" lon="-5.085483">
        <ele>1173.0</ele>
        <time>2013-06-30T13:05:37Z</time>
      </trkpt>
      <trkpt lat="40.190817" lon="-5.085417">
        <ele>1174.0</ele>
        <time>2013-06-30T13:05:38Z</time>
      </trkpt>
      <trkpt lat="40.190750" lon="-5.085367">
        <ele>1174.0</ele>
        <time>2013-06-30T13:05:39Z</time>
      </trkpt>
      <trkpt lat="40.190683" lon="-5.085333">
        <ele>1174.0</ele>
        <time>2013-06-30T13:05:40Z</time>
      </trkpt>
      <trkpt lat="40.190633" lon="-5.085317">
        <ele>1174.0</ele>
        <time>2013-06-30T13:05:41Z</time>
      </trkpt>
      <trkpt lat="40.190567" lon="-5.085283">
        <ele>1173.0</ele>
        <time>2013-06-30T13:05:42Z</time>
      </trkpt>
      <trkpt lat="40.190483" lon="-5.085267">
        <ele>1173.0</ele>
        <time>2013-06-30T13:05:43Z</time>
      </trkpt>
      <trkpt lat="40.190417" lon="-5.085233">
        <ele>1173.0</ele>
        <time>2013-06-30T13:05:44Z</time>
      </trkpt>
      <trkpt lat="40.190333" lon="-5.085217">
        <ele>1172.0</ele>
        <time>2013-06-30T13:05:45Z</time>
      </trkpt>
      <trkpt lat="40.190250" lon="-5.085233">
        <ele>1172.0</ele>
        <time>2013-06-30T13:05:46Z</time>
      </trkpt>
      <trkpt lat="40.190167" lon="-5.085250">
        <ele>1171.0</ele>
        <time>2013-06-30T13:05:47Z</time>
      </trkpt>
      <trkpt lat="40.190067" lon="-5.085300">
        <ele>1170.0</ele>
        <time>2013-06-30T13:05:48Z</time>
      </trkpt>
      <trkpt lat="40.190000" lon="-5.085350">
        <ele>1169.0</ele>
        <time>2013-06-30T13:05:49Z</time>
      </trkpt>
      <trkpt lat="40.189917" lon="-5.085417">
        <ele>1169.0</ele>
        <time>2013-06-30T13:05:50Z</time>
      </trkpt>
      <trkpt lat="40.189850" lon="-5.085483">
        <ele>1169.0</ele>
        <time>2013-06-30T13:05:51Z</time>
      </trkpt>
      <trkpt lat="40.189783" lon="-5.085550">
        <ele>1168.0</ele>
        <time>2013-06-30T13:05:52Z</time>
      </trkpt>
      <trkpt lat="40.189733" lon="-5.085633">
        <ele>1168.0</ele>
        <time>2013-06-30T13:05:53Z</time>
      </trkpt>
      <trkpt lat="40.189667" lon="-5.085733">
        <ele>1168.0</ele>
        <time>2013-06-30T13:05:54Z</time>
      </trkpt>
      <trkpt lat="40.189617" lon="-5.085817">
        <ele>1167.0</ele>
        <time>2013-06-30T13:05:55Z</time>
      </trkpt>
      <trkpt lat="40.189550" lon="-5.085917">
        <ele>1167.0</ele>
        <time>2013-06-30T13:05:56Z</time>
      </trkpt>
      <trkpt lat="40.189517" lon="-5.086017">
        <ele>1167.0</ele>
        <time>2013-06-30T13:05:57Z</time>
      </trkpt>
      <trkpt lat="40.189467" lon="-5.086133">
        <ele>1168.0</ele>
        <time>2013-06-30T13:05:58Z</time>
      </trkpt>
      <trkpt lat="40.189450" lon="-5.086250">
        <ele>1169.0</ele>
        <time>2013-06-30T13:05:59Z</time>
      </trkpt>
      <trkpt lat="40.189433" lon="-5.086367">
        <ele>1168.0</ele>
        <time>2013-06-30T13:06:00Z</time>
      </trkpt>
      <trkpt lat="40.189450" lon="-5.086500">
        <ele>1167.0</ele>
        <time>2013-06-30T13:06:01Z</time>
      </trkpt>
      <trkpt lat="40.189483" lon="-5.086633">
        <ele>1167.0</ele>
        <time>2013-06-30T13:06:02Z</time>
      </trkpt>
      <trkpt lat="40.189517" lon="-5.086733">
        <ele>1167.0</ele>
        <time>2013-06-30T13:06:03Z</time>
      </trkpt>
      <trkpt lat="40.189550" lon="-5.086817">
        <ele>1168.0</ele>
        <time>2013-06-30T13:06:04Z</time>
      </trkpt>
      <trkpt lat="40.189583" lon="-5.086883">
        <ele>1169.0</ele>
        <time>2013-06-30T13:06:05Z</time>
      </trkpt>
      <trkpt lat="40.189633" lon="-5.086983">
        <ele>1168.0</ele>
        <time>2013-06-30T13:06:06Z</time>
      </trkpt>
      <trkpt lat="40.189700" lon="-5.087067">
        <ele>1167.0</ele>
        <time>2013-06-30T13:06:07Z</time>
      </trkpt>
      <trkpt lat="40.189783" lon="-5.087133">
        <ele>1166.0</ele>
        <time>2013-06-30T13:06:08Z</time>
      </trkpt>
      <trkpt lat="40.189867" lon="-5.087183">
        <ele>1166.0</ele>
        <time>2013-06-30T13:06:09Z</time>
      </trkpt>
      <trkpt lat="40.189950" lon="-5.087200">
        <ele>1166.0</ele>
        <time>2013-06-30T13:06:10Z</time>
      </trkpt>
      <trkpt lat="40.190033" lon="-5.087200">
        <ele>1167.0</ele>
        <time>2013-06-30T13:06:11Z</time>
      </trkpt>
      <trkpt lat="40.190100" lon="-5.087217">
        <ele>1167.0</ele>
        <time>2013-06-30T13:06:12Z</time>
      </trkpt>
      <trkpt lat="40.190183" lon="-5.087233">
        <ele>1167.0</ele>
        <time>2013-06-30T13:06:13Z</time>
      </trkpt>
      <trkpt lat="40.190267" lon="-5.087217">
        <ele>1168.0</ele>
        <time>2013-06-30T13:06:14Z</time>
      </trkpt>
      <trkpt lat="40.190350" lon="-5.087200">
        <ele>1168.0</ele>
        <time>2013-06-30T13:06:15Z</time>
      </trkpt>
      <trkpt lat="40.190433" lon="-5.087150">
        <ele>1167.0</ele>
        <time>2013-06-30T13:06:16Z</time>
      </trkpt>
      <trkpt lat="40.190500" lon="-5.087100">
        <ele>1167.0</ele>
        <time>2013-06-30T13:06:17Z</time>
      </trkpt>
      <trkpt lat="40.190567" lon="-5.087050">
        <ele>1167.0</ele>
        <time>2013-06-30T13:06:18Z</time>
      </trkpt>
      <trkpt lat="40.190617" lon="-5.087000">
        <ele>1167.0</ele>
        <time>2013-06-30T13:06:19Z</time>
      </trkpt>
      <trkpt lat="40.190733" lon="-5.086767">
        <ele>1166.0</ele>
        <time>2013-06-30T13:06:22Z</time>
      </trkpt>
      <trkpt lat="40.190767" lon="-5.086683">
        <ele>1166.0</ele>
        <time>2013-06-30T13:06:23Z</time>
      </trkpt>
      <trkpt lat="40.190817" lon="-5.086600">
        <ele>1166.0</ele>
        <time>2013-06-30T13:06:24Z</time>
      </trkpt>
      <trkpt lat="40.190867" lon="-5.086533">
        <ele>1166.0</ele>
        <time>2013-06-30T13:06:25Z</time>
      </trkpt>
      <trkpt lat="40.190900" lon="-5.086450">
        <ele>1166.0</ele>
        <time>2013-06-30T13:06:26Z</time>
      </trkpt>
      <trkpt lat="40.190917" lon="-5.086367">
        <ele>1166.0</ele>
        <time>2013-06-30T13:06:27Z</time>
      </trkpt>
      <trkpt lat="40.190933" lon="-5.086283">
        <ele>1164.0</ele>
        <time>2013-06-30T13:06:28Z</time>
      </trkpt>
      <trkpt lat="40.190933" lon="-5.086183">
        <ele>1163.0</ele>
        <time>2013-06-30T13:06:29Z</time>
      </trkpt>
      <trkpt lat="40.190933" lon="-5.086117">
        <ele>1163.0</ele>
        <time>2013-06-30T13:06:30Z</time>
      </trkpt>
      <trkpt lat="40.190933" lon="-5.086050">
        <ele>1162.0</ele>
        <time>2013-06-30T13:06:31Z</time>
      </trkpt>
      <trkpt lat="40.190917" lon="-5.086000">
        <ele>1162.0</ele>
        <time>2013-06-30T13:06:32Z</time>
      </trkpt>
      <trkpt lat="40.190883" lon="-5.085933">
        <ele>1161.0</ele>
        <time>2013-06-30T13:06:33Z</time>
      </trkpt>
      <trkpt lat="40.190850" lon="-5.085850">
        <ele>1160.0</ele>
        <time>2013-06-30T13:06:34Z</time>
      </trkpt>
      <trkpt lat="40.190800" lon="-5.085800">
        <ele>1158.0</ele>
        <time>2013-06-30T13:06:35Z</time>
      </trkpt>
      <trkpt lat="40.190750" lon="-5.085750">
        <ele>1157.0</ele>
        <time>2013-06-30T13:06:36Z</time>
      </trkpt>
      <trkpt lat="40.190683" lon="-5.085717">
        <ele>1155.0</ele>
        <time>2013-06-30T13:06:37Z</time>
      </trkpt>
      <trkpt lat="40.190617" lon="-5.085717">
        <ele>1153.0</ele>
        <time>2013-06-30T13:06:38Z</time>
      </trkpt>
      <trkpt lat="40.190533" lon="-5.085700">
        <ele>1150.0</ele>
        <time>2013-06-30T13:06:39Z</time>
      </trkpt>
      <trkpt lat="40.190450" lon="-5.085700">
        <ele>1148.0</ele>
        <time>2013-06-30T13:06:40Z</time>
      </trkpt>
      <trkpt lat="40.190367" lon="-5.085733">
        <ele>1145.0</ele>
        <time>2013-06-30T13:06:41Z</time>
      </trkpt>
      <trkpt lat="40.190283" lon="-5.085800">
        <ele>1142.0</ele>
        <time>2013-06-30T13:06:42Z</time>
      </trkpt>
      <trkpt lat="40.190217" lon="-5.085917">
        <ele>1139.0</ele>
        <time>2013-06-30T13:06:43Z</time>
      </trkpt>
      <trkpt lat="40.190167" lon="-5.086017">
        <ele>1135.0</ele>
        <time>2013-06-30T13:06:44Z</time>
      </trkpt>
      <trkpt lat="40.190117" lon="-5.086133">
        <ele>1132.0</ele>
        <time>2013-06-30T13:06:45Z</time>
      </trkpt>
      <trkpt lat="40.190050" lon="-5.086250">
        <ele>1129.0</ele>
        <time>2013-06-30T13:06:46Z</time>
      </trkpt>
      <trkpt lat="40.190017" lon="-5.086367">
        <ele>1126.0</ele>
        <time>2013-06-30T13:06:47Z</time>
      </trkpt>
      <trkpt lat="40.189967" lon="-5.086483">
        <ele>1124.0</ele>
        <time>2013-06-30T13:06:48Z</time>
      </trkpt>
      <trkpt lat="40.189933" lon="-5.086600">
        <ele>1121.0</ele>
        <time>2013-06-30T13:06:49Z</time>
      </trkpt>
      <trkpt lat="40.189883" lon="-5.086700">
        <ele>1119.0</ele>
        <time>2013-06-30T13:06:50Z</time>
      </trkpt>
      <trkpt lat="40.189833" lon="-5.086817">
        <ele>1116.0</ele>
        <time>2013-06-30T13:06:51Z</time>
      </trkpt>
      <trkpt lat="40.189767" lon="-5.086933">
        <ele>1114.0</ele>
        <time>2013-06-30T13:06:52Z</time>
      </trkpt>
      <trkpt lat="40.189700" lon="-5.087033">
        <ele>1111.0</ele>
        <time>2013-06-30T13:06:53Z</time>
      </trkpt>
      <trkpt lat="40.189633" lon="-5.087133">
        <ele>1109.0</ele>
        <time>2013-06-30T13:06:54Z</time>
      </trkpt>
      <trkpt lat="40.189583" lon="-5.087250">
        <ele>1108.0</ele>
        <time>2013-06-30T13:06:55Z</time>
      </trkpt>
      <trkpt lat="40.189533" lon="-5.087350">
        <ele>1106.0</ele>
        <time>2013-06-30T13:06:56Z</time>
      </trkpt>
      <trkpt lat="40.189483" lon="-5.087450">
        <ele>1105.0</ele>
        <time>2013-06-30T13:06:57Z</time>
      </trkpt>
      <trkpt lat="40.189433" lon="-5.087550">
        <ele>1104.0</ele>
        <time>2013-06-30T13:06:58Z</time>
      </trkpt>
      <trkpt lat="40.189383" lon="-5.087667">
        <ele>1102.0</ele>
        <time>2013-06-30T13:06:59Z</time>
      </trkpt>
      <trkpt lat="40.189317" lon="-5.087783">
        <ele>1100.0</ele>
        <time>2013-06-30T13:07:00Z</time>
      </trkpt>
      <trkpt lat="40.189267" lon="-5.087900">
        <ele>1099.0</ele>
        <time>2013-06-30T13:07:01Z</time>
      </trkpt>
      <trkpt lat="40.189217" lon="-5.088000">
        <ele>1098.0</ele>
        <time>2013-06-30T13:07:02Z</time>
      </trkpt>
      <trkpt lat="40.189167" lon="-5.088100">
        <ele>1097.0</ele>
        <time>2013-06-30T13:07:03Z</time>
      </trkpt>
      <trkpt lat="40.189100" lon="-5.088183">
        <ele>1097.0</ele>
        <time>2013-06-30T13:07:04Z</time>
      </trkpt>
      <trkpt lat="40.189050" lon="-5.088283">
        <ele>1096.0</ele>
        <time>2013-06-30T13:07:05Z</time>
      </trkpt>
      <trkpt lat="40.188983" lon="-5.088400">
        <ele>1094.0</ele>
        <time>2013-06-30T13:07:06Z</time>
      </trkpt>
      <trkpt lat="40.188933" lon="-5.088500">
        <ele>1093.0</ele>
        <time>2013-06-30T13:07:07Z</time>
      </trkpt>
      <trkpt lat="40.188900" lon="-5.088617">
        <ele>1094.0</ele>
        <time>2013-06-30T13:07:08Z</time>
      </trkpt>
      <trkpt lat="40.188867" lon="-5.088717">
        <ele>1094.0</ele>
        <time>2013-06-30T13:07:09Z</time>
      </trkpt>
      <trkpt lat="40.188833" lon="-5.088817">
        <ele>1092.0</ele>
        <time>2013-06-30T13:07:10Z</time>
      </trkpt>
      <trkpt lat="40.188800" lon="-5.088917">
        <ele>1091.0</ele>
        <time>2013-06-30T13:07:11Z</time>
      </trkpt>
      <trkpt lat="40.188767" lon="-5.089050">
        <ele>1089.0</ele>
        <time>2013-06-30T13:07:12Z</time>
      </trkpt>
      <trkpt lat="40.188750" lon="-5.089167">
        <ele>1088.0</ele>
        <time>2013-06-30T13:07:13Z</time>
      </trkpt>
      <trkpt lat="40.188733" lon="-5.089283">
        <ele>1087.0</ele>
        <time>2013-06-30T13:07:14Z</time>
      </trkpt>
      <trkpt lat="40.188717" lon="-5.089400">
        <ele>1086.0</ele>
        <time>2013-06-30T13:07:15Z</time>
      </trkpt>
      <trkpt lat="40.188717" lon="-5.089517">
        <ele>1084.0</ele>
        <time>2013-06-30T13:07:16Z</time>
      </trkpt>
      <trkpt lat="40.188717" lon="-5.089650">
        <ele>1082.0</ele>
        <time>2013-06-30T13:07:17Z</time>
      </trkpt>
      <trkpt lat="40.188700" lon="-5.089783">
        <ele>1080.0</ele>
        <time>2013-06-30T13:07:18Z</time>
      </trkpt>
      <trkpt lat="40.188700" lon="-5.089900">
        <ele>1078.0</ele>
        <time>2013-06-30T13:07:19Z</time>
      </trkpt>
      <trkpt lat="40.188683" lon="-5.090033">
        <ele>1076.0</ele>
        <time>2013-06-30T13:07:20Z</time>
      </trkpt>
      <trkpt lat="40.188683" lon="-5.090150">
        <ele>1073.0</ele>
        <time>2013-06-30T13:07:21Z</time>
      </trkpt>
      <trkpt lat="40.188667" lon="-5.090300">
        <ele>1071.0</ele>
        <time>2013-06-30T13:07:22Z</time>
      </trkpt>
      <trkpt lat="40.188683" lon="-5.090433">
        <ele>1069.0</ele>
        <time>2013-06-30T13:07:23Z</time>
      </trkpt>
      <trkpt lat="40.188683" lon="-5.090583">
        <ele>1069.0</ele>
        <time>2013-06-30T13:07:24Z</time>
      </trkpt>
      <trkpt lat="40.188700" lon="-5.090700">
        <ele>1070.0</ele>
        <time>2013-06-30T13:07:25Z</time>
      </trkpt>
      <trkpt lat="40.188700" lon="-5.090817">
        <ele>1069.0</ele>
        <time>2013-06-30T13:07:26Z</time>
      </trkpt>
      <trkpt lat="40.188717" lon="-5.090950">
        <ele>1069.0</ele>
        <time>2013-06-30T13:07:27Z</time>
      </trkpt>
      <trkpt lat="40.188717" lon="-5.091100">
        <ele>1068.0</ele>
        <time>2013-06-30T13:07:28Z</time>
      </trkpt>
      <trkpt lat="40.188733" lon="-5.091250">
        <ele>1068.0</ele>
        <time>2013-06-30T13:07:29Z</time>
      </trkpt>
      <trkpt lat="40.188750" lon="-5.091383">
        <ele>1068.0</ele>
        <time>2013-06-30T13:07:30Z</time>
      </trkpt>
      <trkpt lat="40.188783" lon="-5.091517">
        <ele>1068.0</ele>
        <time>2013-06-30T13:07:31Z</time>
      </trkpt>
      <trkpt lat="40.188800" lon="-5.091650">
        <ele>1069.0</ele>
        <time>2013-06-30T13:07:32Z</time>
      </trkpt>
      <trkpt lat="40.188850" lon="-5.091783">
        <ele>1070.0</ele>
        <time>2013-06-30T13:07:33Z</time>
      </trkpt>
      <trkpt lat="40.188883" lon="-5.091917">
        <ele>1070.0</ele>
        <time>2013-06-30T13:07:34Z</time>
      </trkpt>
      <trkpt lat="40.188933" lon="-5.092033">
        <ele>1070.0</ele>
        <time>2013-06-30T13:07:35Z</time>
      </trkpt>
      <trkpt lat="40.189000" lon="-5.092150">
        <ele>1071.0</ele>
        <time>2013-06-30T13:07:36Z</time>
      </trkpt>
      <trkpt lat="40.189050" lon="-5.092267">
        <ele>1073.0</ele>
        <time>2013-06-30T13:07:37Z</time>
      </trkpt>
      <trkpt lat="40.189117" lon="-5.092383">
        <ele>1075.0</ele>
        <time>2013-06-30T13:07:38Z</time>
      </trkpt>
      <trkpt lat="40.189183" lon="-5.092500">
        <ele>1076.0</ele>
        <time>2013-06-30T13:07:39Z</time>
      </trkpt>
      <trkpt lat="40.189267" lon="-5.092617">
        <ele>1078.0</ele>
        <time>2013-06-30T13:07:40Z</time>
      </trkpt>
      <trkpt lat="40.189350" lon="-5.092717">
        <ele>1080.0</ele>
        <time>2013-06-30T13:07:41Z</time>
      </trkpt>
      <trkpt lat="40.189433" lon="-5.092817">
        <ele>1082.0</ele>
        <time>2013-06-30T13:07:42Z</time>
      </trkpt>
      <trkpt lat="40.189500" lon="-5.092917">
        <ele>1084.0</ele>
        <time>2013-06-30T13:07:43Z</time>
      </trkpt>
      <trkpt lat="40.189583" lon="-5.093033">
        <ele>1085.0</ele>
        <time>2013-06-30T13:07:44Z</time>
      </trkpt>
      <trkpt lat="40.189667" lon="-5.093133">
        <ele>1086.0</ele>
        <time>2013-06-30T13:07:45Z</time>
      </trkpt>
      <trkpt lat="40.189750" lon="-5.093233">
        <ele>1086.0</ele>
        <time>2013-06-30T13:07:46Z</time>
      </trkpt>
      <trkpt lat="40.189833" lon="-5.093333">
        <ele>1088.0</ele>
        <time>2013-06-30T13:07:47Z</time>
      </trkpt>
      <trkpt lat="40.189917" lon="-5.093417">
        <ele>1089.0</ele>
        <time>2013-06-30T13:07:48Z</time>
      </trkpt>
      <trkpt lat="40.189983" lon="-5.093517">
        <ele>1090.0</ele>
        <time>2013-06-30T13:07:49Z</time>
      </trkpt>
      <trkpt lat="40.190050" lon="-5.093617">
        <ele>1091.0</ele>
        <time>2013-06-30T13:07:50Z</time>
      </trkpt>
      <trkpt lat="40.190100" lon="-5.093733">
        <ele>1092.0</ele>
        <time>2013-06-30T13:07:51Z</time>
      </trkpt>
      <trkpt lat="40.190133" lon="-5.093850">
        <ele>1094.0</ele>
        <time>2013-06-30T13:07:52Z</time>
      </trkpt>
      <trkpt lat="40.190167" lon="-5.093950">
        <ele>1095.0</ele>
        <time>2013-06-30T13:07:53Z</time>
      </trkpt>
      <trkpt lat="40.190200" lon="-5.094050">
        <ele>1096.0</ele>
        <time>2013-06-30T13:07:54Z</time>
      </trkpt>
      <trkpt lat="40.190233" lon="-5.094183">
        <ele>1096.0</ele>
        <time>2013-06-30T13:07:55Z</time>
      </trkpt>
      <trkpt lat="40.190233" lon="-5.094333">
        <ele>1097.0</ele>
        <time>2013-06-30T13:07:56Z</time>
      </trkpt>
      <trkpt lat="40.190200" lon="-5.094467">
        <ele>1095.0</ele>
        <time>2013-06-30T13:07:57Z</time>
      </trkpt>
      <trkpt lat="40.190150" lon="-5.094583">
        <ele>1095.0</ele>
        <time>2013-06-30T13:07:58Z</time>
      </trkpt>
      <trkpt lat="40.190100" lon="-5.094667">
        <ele>1094.0</ele>
        <time>2013-06-30T13:07:59Z</time>
      </trkpt>
      <trkpt lat="40.190050" lon="-5.094750">
        <ele>1094.0</ele>
        <time>2013-06-30T13:08:00Z</time>
      </trkpt>
      <trkpt lat="40.190000" lon="-5.094817">
        <ele>1093.0</ele>
        <time>2013-06-30T13:08:01Z</time>
      </trkpt>
      <trkpt lat="40.189933" lon="-5.094883">
        <ele>1092.0</ele>
        <time>2013-06-30T13:08:02Z</time>
      </trkpt>
      <trkpt lat="40.189850" lon="-5.094933">
        <ele>1090.0</ele>
        <time>2013-06-30T13:08:03Z</time>
      </trkpt>
      <trkpt lat="40.189783" lon="-5.094967">
        <ele>1089.0</ele>
        <time>2013-06-30T13:08:04Z</time>
      </trkpt>
      <trkpt lat="40.189717" lon="-5.094967">
        <ele>1088.0</ele>
        <time>2013-06-30T13:08:05Z</time>
      </trkpt>
      <trkpt lat="40.189650" lon="-5.094950">
        <ele>1088.0</ele>
        <time>2013-06-30T13:08:06Z</time>
      </trkpt>
      <trkpt lat="40.189583" lon="-5.094917">
        <ele>1089.0</ele>
        <time>2013-06-30T13:08:08Z</time>
      </trkpt>
      <trkpt lat="40.189533" lon="-5.094900">
        <ele>1089.0</ele>
        <time>2013-06-30T13:08:09Z</time>
      </trkpt>
      <trkpt lat="40.189467" lon="-5.094867">
        <ele>1089.0</ele>
        <time>2013-06-30T13:08:10Z</time>
      </trkpt>
      <trkpt lat="40.189400" lon="-5.094850">
        <ele>1089.0</ele>
        <time>2013-06-30T13:08:11Z</time>
      </trkpt>
      <trkpt lat="40.189350" lon="-5.094817">
        <ele>1090.0</ele>
        <time>2013-06-30T13:08:12Z</time>
      </trkpt>
      <trkpt lat="40.189300" lon="-5.094783">
        <ele>1092.0</ele>
        <time>2013-06-30T13:08:13Z</time>
      </trkpt>
      <trkpt lat="40.189250" lon="-5.094750">
        <ele>1094.0</ele>
        <time>2013-06-30T13:08:14Z</time>
      </trkpt>
      <trkpt lat="40.189217" lon="-5.094717">
        <ele>1095.0</ele>
        <time>2013-06-30T13:08:15Z</time>
      </trkpt>
      <trkpt lat="40.189167" lon="-5.094683">
        <ele>1096.0</ele>
        <time>2013-06-30T13:08:16Z</time>
      </trkpt>
      <trkpt lat="40.189117" lon="-5.094633">
        <ele>1096.0</ele>
        <time>2013-06-30T13:08:17Z</time>
      </trkpt>
      <trkpt lat="40.189083" lon="-5.094567">
        <ele>1096.0</ele>
        <time>2013-06-30T13:08:18Z</time>
      </trkpt>
      <trkpt lat="40.189067" lon="-5.094417">
        <ele>1099.0</ele>
        <time>2013-06-30T13:08:20Z</time>
      </trkpt>
      <trkpt lat="40.189067" lon="-5.094350">
        <ele>1101.0</ele>
        <time>2013-06-30T13:08:21Z</time>
      </trkpt>
      <trkpt lat="40.189050" lon="-5.094267">
        <ele>1102.0</ele>
        <time>2013-06-30T13:08:22Z</time>
      </trkpt>
      <trkpt lat="40.189050" lon="-5.094167">
        <ele>1103.0</ele>
        <time>2013-06-30T13:08:23Z</time>
      </trkpt>
      <trkpt lat="40.189050" lon="-5.094067">
        <ele>1105.0</ele>
        <time>2013-06-30T13:08:24Z</time>
      </trkpt>
      <trkpt lat="40.189067" lon="-5.093967">
        <ele>1108.0</ele>
        <time>2013-06-30T13:08:25Z</time>
      </trkpt>
      <trkpt lat="40.189100" lon="-5.093900">
        <ele>1112.0</ele>
        <time>2013-06-30T13:08:26Z</time>
      </trkpt>
      <trkpt lat="40.189133" lon="-5.093833">
        <ele>1115.0</ele>
        <time>2013-06-30T13:08:27Z</time>
      </trkpt>
      <trkpt lat="40.189150" lon="-5.093750">
        <ele>1118.0</ele>
        <time>2013-06-30T13:08:28Z</time>
      </trkpt>
      <trkpt lat="40.189183" lon="-5.093667">
        <ele>1119.0</ele>
        <time>2013-06-30T13:08:29Z</time>
      </trkpt>
      <trkpt lat="40.189217" lon="-5.093600">
        <ele>1122.0</ele>
        <time>2013-06-30T13:08:30Z</time>
      </trkpt>
      <trkpt lat="40.189267" lon="-5.093533">
        <ele>1124.0</ele>
        <time>2013-06-30T13:08:31Z</time>
      </trkpt>
      <trkpt lat="40.189333" lon="-5.093500">
        <ele>1125.0</ele>
        <time>2013-06-30T13:08:32Z</time>
      </trkpt>
      <trkpt lat="40.189383" lon="-5.093467">
        <ele>1126.0</ele>
        <time>2013-06-30T13:08:33Z</time>
      </trkpt>
      <trkpt lat="40.189450" lon="-5.093417">
        <ele>1126.0</ele>
        <time>2013-06-30T13:08:34Z</time>
      </trkpt>
      <trkpt lat="40.189517" lon="-5.093383">
        <ele>1126.0</ele>
        <time>2013-06-30T13:08:35Z</time>
      </trkpt>
      <trkpt lat="40.189600" lon="-5.093350">
        <ele>1127.0</ele>
        <time>2013-06-30T13:08:36Z</time>
      </trkpt>
      <trkpt lat="40.189683" lon="-5.093367">
        <ele>1127.0</ele>
        <time>2013-06-30T13:08:37Z</time>
      </trkpt>
      <trkpt lat="40.189767" lon="-5.093400">
        <ele>1126.0</ele>
        <time>2013-06-30T13:08:38Z</time>
      </trkpt>
      <trkpt lat="40.189867" lon="-5.093450">
        <ele>1125.0</ele>
        <time>2013-06-30T13:08:39Z</time>
      </trkpt>
      <trkpt lat="40.189950" lon="-5.093533">
        <ele>1124.0</ele>
        <time>2013-06-30T13:08:40Z</time>
      </trkpt>
      <trkpt lat="40.190033" lon="-5.093633">
        <ele>1124.0</ele>
        <time>2013-06-30T13:08:41Z</time>
      </trkpt>
      <trkpt lat="40.190100" lon="-5.093733">
        <ele>1125.0</ele>
        <time>2013-06-30T13:08:42Z</time>
      </trkpt>
      <trkpt lat="40.190133" lon="-5.093867">
        <ele>1125.0</ele>
        <time>2013-06-30T13:08:43Z</time>
      </trkpt>
      <trkpt lat="40.190167" lon="-5.094000">
        <ele>1126.0</ele>
        <time>2013-06-30T13:08:44Z</time>
      </trkpt>
      <trkpt lat="40.190183" lon="-5.094150">
        <ele>1126.0</ele>
        <time>2013-06-30T13:08:45Z</time>
      </trkpt>
      <trkpt lat="40.190200" lon="-5.094283">
        <ele>1127.0</ele>
        <time>2013-06-30T13:08:46Z</time>
      </trkpt>
      <trkpt lat="40.190217" lon="-5.094417">
        <ele>1129.0</ele>
        <time>2013-06-30T13:08:47Z</time>
      </trkpt>
      <trkpt lat="40.190217" lon="-5.094533">
        <ele>1133.0</ele>
        <time>2013-06-30T13:08:48Z</time>
      </trkpt>
      <trkpt lat="40.190233" lon="-5.094633">
        <ele>1135.0</ele>
        <time>2013-06-30T13:08:49Z</time>
      </trkpt>
      <trkpt lat="40.190217" lon="-5.094733">
        <ele>1136.0</ele>
        <time>2013-06-30T13:08:50Z</time>
      </trkpt>
      <trkpt lat="40.190200" lon="-5.094833">
        <ele>1137.0</ele>
        <time>2013-06-30T13:08:51Z</time>
      </trkpt>
      <trkpt lat="40.190167" lon="-5.094933">
        <ele>1138.0</ele>
        <time>2013-06-30T13:08:52Z</time>
      </trkpt>
      <trkpt lat="40.190117" lon="-5.095017">
        <ele>1138.0</ele>
        <time>2013-06-30T13:08:53Z</time>
      </trkpt>
      <trkpt lat="40.190067" lon="-5.095100">
        <ele>1139.0</ele>
        <time>2013-06-30T13:08:54Z</time>
      </trkpt>
      <trkpt lat="40.190017" lon="-5.095183">
        <ele>1140.0</ele>
        <time>2013-06-30T13:08:55Z</time>
      </trkpt>
      <trkpt lat="40.189983" lon="-5.095233">
        <ele>1140.0</ele>
        <time>2013-06-30T13:08:56Z</time>
      </trkpt>
      <trkpt lat="40.189917" lon="-5.095300">
        <ele>1140.0</ele>
        <time>2013-06-30T13:08:57Z</time>
      </trkpt>
      <trkpt lat="40.189867" lon="-5.095350">
        <ele>1140.0</ele>
        <time>2013-06-30T13:08:58Z</time>
      </trkpt>
      <trkpt lat="40.189800" lon="-5.095433">
        <ele>1140.0</ele>
        <time>2013-06-30T13:08:59Z</time>
      </trkpt>
      <trkpt lat="40.189733" lon="-5.095500">
        <ele>1141.0</ele>
        <time>2013-06-30T13:09:00Z</time>
      </trkpt>
      <trkpt lat="40.189667" lon="-5.095583">
        <ele>1142.0</ele>
        <time>2013-06-30T13:09:01Z</time>
      </trkpt>
      <trkpt lat="40.189600" lon="-5.095633">
        <ele>1145.0</ele>
        <time>2013-06-30T13:09:02Z</time>
      </trkpt>
      <trkpt lat="40.189533" lon="-5.095667">
        <ele>1148.0</ele>
        <time>2013-06-30T13:09:03Z</time>
      </trkpt>
      <trkpt lat="40.189467" lon="-5.095683">
        <ele>1150.0</ele>
        <time>2013-06-30T13:09:04Z</time>
      </trkpt>
      <trkpt lat="40.189417" lon="-5.095717">
        <ele>1153.0</ele>
        <time>2013-06-30T13:09:05Z</time>
      </trkpt>
      <trkpt lat="40.189350" lon="-5.095733">
        <ele>1156.0</ele>
        <time>2013-06-30T13:09:06Z</time>
      </trkpt>
      <trkpt lat="40.189283" lon="-5.095767">
        <ele>1158.0</ele>
        <time>2013-06-30T13:09:07Z</time>
      </trkpt>
      <trkpt lat="40.189233" lon="-5.095767">
        <ele>1160.0</ele>
        <time>2013-06-30T13:09:08Z</time>
      </trkpt>
      <trkpt lat="40.189117" lon="-5.095667">
        <ele>1163.0</ele>
        <time>2013-06-30T13:09:10Z</time>
      </trkpt>
      <trkpt lat="40.189083" lon="-5.095583">
        <ele>1164.0</ele>
        <time>2013-06-30T13:09:11Z</time>
      </trkpt>
      <trkpt lat="40.189050" lon="-5.095517">
        <ele>1166.0</ele>
        <time>2013-06-30T13:09:12Z</time>
      </trkpt>
      <trkpt lat="40.189017" lon="-5.095467">
        <ele>1169.0</ele>
        <time>2013-06-30T13:09:13Z</time>
      </trkpt>
      <trkpt lat="40.188983" lon="-5.095417">
        <ele>1172.0</ele>
        <time>2013-06-30T13:09:14Z</time>
      </trkpt>
      <trkpt lat="40.188967" lon="-5.095367">
        <ele>1175.0</ele>
        <time>2013-06-30T13:09:15Z</time>
      </trkpt>
      <trkpt lat="40.188950" lon="-5.095283">
        <ele>1176.0</ele>
        <time>2013-06-30T13:09:16Z</time>
      </trkpt>
      <trkpt lat="40.188933" lon="-5.095167">
        <ele>1177.0</ele>
        <time>2013-06-30T13:09:17Z</time>
      </trkpt>
      <trkpt lat="40.188950" lon="-5.095067">
        <ele>1179.0</ele>
        <time>2013-06-30T13:09:18Z</time>
      </trkpt>
      <trkpt lat="40.188967" lon="-5.094967">
        <ele>1183.0</ele>
        <time>2013-06-30T13:09:19Z</time>
      </trkpt>
      <trkpt lat="40.188967" lon="-5.094883">
        <ele>1187.0</ele>
        <time>2013-06-30T13:09:20Z</time>
      </trkpt>
      <trkpt lat="40.188967" lon="-5.094800">
        <ele>1192.0</ele>
        <time>2013-06-30T13:09:21Z</time>
      </trkpt>
      <trkpt lat="40.188950" lon="-5.094717">
        <ele>1195.0</ele>
        <time>2013-06-30T13:09:22Z</time>
      </trkpt>
      <trkpt lat="40.188983" lon="-5.094517">
        <ele>1201.0</ele>
        <time>2013-06-30T13:09:24Z</time>
      </trkpt>
      <trkpt lat="40.189033" lon="-5.094417">
        <ele>1203.0</ele>
        <time>2013-06-30T13:09:25Z</time>
      </trkpt>
      <trkpt lat="40.189117" lon="-5.094350">
        <ele>1206.0</ele>
        <time>2013-06-30T13:09:26Z</time>
      </trkpt>
      <trkpt lat="40.189200" lon="-5.094317">
        <ele>1208.0</ele>
        <time>2013-06-30T13:09:27Z</time>
      </trkpt>
      <trkpt lat="40.189267" lon="-5.094283">
        <ele>1210.0</ele>
        <time>2013-06-30T13:09:28Z</time>
      </trkpt>
      <trkpt lat="40.189433" lon="-5.094283">
        <ele>1214.0</ele>
        <time>2013-06-30T13:09:30Z</time>
      </trkpt>
      <trkpt lat="40.189500" lon="-5.094283">
        <ele>1214.0</ele>
        <time>2013-06-30T13:09:31Z</time>
      </trkpt>
      <trkpt lat="40.189600" lon="-5.094283">
        <ele>1215.0</ele>
        <time>2013-06-30T13:09:32Z</time>
      </trkpt>
      <trkpt lat="40.189700" lon="-5.094317">
        <ele>1216.0</ele>
        <time>2013-06-30T13:09:33Z</time>
      </trkpt>
      <trkpt lat="40.189800" lon="-5.094383">
        <ele>1217.0</ele>
        <time>2013-06-30T13:09:34Z</time>
      </trkpt>
      <trkpt lat="40.189867" lon="-5.094467">
        <ele>1217.0</ele>
        <time>2013-06-30T13:09:35Z</time>
      </trkpt>
      <trkpt lat="40.189950" lon="-5.094550">
        <ele>1217.0</ele>
        <time>2013-06-30T13:09:36Z</time>
      </trkpt>
      <trkpt lat="40.190017" lon="-5.094650">
        <ele>1216.0</ele>
        <time>2013-06-30T13:09:37Z</time>
      </trkpt>
      <trkpt lat="40.190083" lon="-5.094733">
        <ele>1215.0</ele>
        <time>2013-06-30T13:09:38Z</time>
      </trkpt>
      <trkpt lat="40.190150" lon="-5.094833">
        <ele>1215.0</ele>
        <time>2013-06-30T13:09:39Z</time>
      </trkpt>
      <trkpt lat="40.190183" lon="-5.094933">
        <ele>1214.0</ele>
        <time>2013-06-30T13:09:40Z</time>
      </trkpt>
      <trkpt lat="40.190200" lon="-5.095067">
        <ele>1214.0</ele>
        <time>2013-06-30T13:09:41Z</time>
      </trkpt>
      <trkpt lat="40.190200" lon="-5.095217">
        <ele>1213.0</ele>
        <time>2013-06-30T13:09:42Z</time>
      </trkpt>
      <trkpt lat="40.190183" lon="-5.095350">
        <ele>1212.0</ele>
        <time>2013-06-30T13:09:43Z</time>
      </trkpt>
      <trkpt lat="40.190150" lon="-5.095450">
        <ele>1212.0</ele>
        <time>2013-06-30T13:09:44Z</time>
      </trkpt>
      <trkpt lat="40.190117" lon="-5.095550">
        <ele>1213.0</ele>
        <time>2013-06-30T13:09:45Z</time>
      </trkpt>
      <trkpt lat="40.190083" lon="-5.095650">
        <ele>1213.0</ele>
        <time>2013-06-30T13:09:46Z</time>
      </trkpt>
      <trkpt lat="40.190033" lon="-5.095750">
        <ele>1213.0</ele>
        <time>2013-06-30T13:09:47Z</time>
      </trkpt>
      <trkpt lat="40.190000" lon="-5.095867">
        <ele>1214.0</ele>
        <time>2013-06-30T13:09:48Z</time>
      </trkpt>
      <trkpt lat="40.189983" lon="-5.095967">
        <ele>1217.0</ele>
        <time>2013-06-30T13:09:49Z</time>
      </trkpt>
      <trkpt lat="40.189950" lon="-5.096050">
        <ele>1219.0</ele>
        <time>2013-06-30T13:09:50Z</time>
      </trkpt>
      <trkpt lat="40.189900" lon="-5.096200">
        <ele>1222.0</ele>
        <time>2013-06-30T13:09:52Z</time>
      </trkpt>
      <trkpt lat="40.189850" lon="-5.096283">
        <ele>1224.0</ele>
        <time>2013-06-30T13:09:53Z</time>
      </trkpt>
      <trkpt lat="40.189800" lon="-5.096367">
        <ele>1225.0</ele>
        <time>2013-06-30T13:09:54Z</time>
      </trkpt>
      <trkpt lat="40.189750" lon="-5.096450">
        <ele>1226.0</ele>
        <time>2013-06-30T13:09:55Z</time>
      </trkpt>
      <trkpt lat="40.189717" lon="-5.096533">
        <ele>1228.0</ele>
        <time>2013-06-30T13:09:56Z</time>
      </trkpt>
      <trkpt lat="40.189683" lon="-5.096600">
        <ele>1230.0</ele>
        <time>2013-06-30T13:09:57Z</time>
      </trkpt>
      <trkpt lat="40.189633" lon="-5.096667">
        <ele>1233.0</ele>
        <time>2013-06-30T13:09:58Z</time>
      </trkpt>
      <trkpt lat="40.189600" lon="-5.096733">
        <ele>1235.0</ele>
        <time>2013-06-30T13:09:59Z</time>
      </trkpt>
      <trkpt lat="40.189533" lon="-5.096783">
        <ele>1237.0</ele>
        <time>2013-06-30T13:10:00Z</time>
      </trkpt>
      <trkpt lat="40.189467" lon="-5.096833">
        <ele>1238.0</ele>
        <time>2013-06-30T13:10:01Z</time>
      </trkpt>
      <trkpt lat="40.189400" lon="-5.096900">
        <ele>1240.0</ele>
        <time>2013-06-30T13:10:02Z</time>
      </trkpt>
      <trkpt lat="40.189350" lon="-5.096950">
        <ele>1242.0</ele>
        <time>2013-06-30T13:10:03Z</time>
      </trkpt>
      <trkpt lat="40.189300" lon="-5.097017">
        <ele>1244.0</ele>
        <time>2013-06-30T13:10:04Z</time>
      </trkpt>
      <trkpt lat="40.189250" lon="-5.097067">
        <ele>1247.0</ele>
        <time>2013-06-30T13:10:05Z</time>
      </trkpt>
      <trkpt lat="40.189200" lon="-5.097117">
        <ele>1249.0</ele>
        <time>2013-06-30T13:10:06Z</time>
      </trkpt>
      <trkpt lat="40.189133" lon="-5.097183">
        <ele>1251.0</ele>
        <time>2013-06-30T13:10:07Z</time>
      </trkpt>
      <trkpt lat="40.189067" lon="-5.097233">
        <ele>1252.0</ele>
        <time>2013-06-30T13:10:08Z</time>
      </trkpt>
      <trkpt lat="40.189000" lon="-5.097283">
        <ele>1253.0</ele>
        <time>2013-06-30T13:10:09Z</time>
      </trkpt>
      <trkpt lat="40.188933" lon="-5.097317">
        <ele>1256.0</ele>
        <time>2013-06-30T13:10:10Z</time>
      </trkpt>
      <trkpt lat="40.188867" lon="-5.097333">
        <ele>1259.0</ele>
        <time>2013-06-30T13:10:11Z</time>
      </trkpt>
      <trkpt lat="40.188800" lon="-5.097333">
        <ele>1260.0</ele>
        <time>2013-06-30T13:10:12Z</time>
      </trkpt>
      <trkpt lat="40.188750" lon="-5.097300">
        <ele>1261.0</ele>
        <time>2013-06-30T13:10:13Z</time>
      </trkpt>
      <trkpt lat="40.188667" lon="-5.097250">
        <ele>1261.0</ele>
        <time>2013-06-30T13:10:14Z</time>
      </trkpt>
      <trkpt lat="40.188583" lon="-5.097200">
        <ele>1262.0</ele>
        <time>2013-06-30T13:10:15Z</time>
      </trkpt>
      <trkpt lat="40.188500" lon="-5.097167">
        <ele>1263.0</ele>
        <time>2013-06-30T13:10:16Z</time>
      </trkpt>
      <trkpt lat="40.188433" lon="-5.097117">
        <ele>1264.0</ele>
        <time>2013-06-30T13:10:17Z</time>
      </trkpt>
      <trkpt lat="40.188367" lon="-5.097083">
        <ele>1267.0</ele>
        <time>2013-06-30T13:10:18Z</time>
      </trkpt>
      <trkpt lat="40.188317" lon="-5.097033">
        <ele>1270.0</ele>
        <time>2013-06-30T13:10:19Z</time>
      </trkpt>
      <trkpt lat="40.188267" lon="-5.096967">
        <ele>1271.0</ele>
        <time>2013-06-30T13:10:20Z</time>
      </trkpt>
      <trkpt lat="40.188200" lon="-5.096900">
        <ele>1271.0</ele>
        <time>2013-06-30T13:10:21Z</time>
      </trkpt>
      <trkpt lat="40.188133" lon="-5.096833">
        <ele>1271.0</ele>
        <time>2013-06-30T13:10:22Z</time>
      </trkpt>
      <trkpt lat="40.188083" lon="-5.096767">
        <ele>1272.0</ele>
        <time>2013-06-30T13:10:23Z</time>
      </trkpt>
      <trkpt lat="40.188067" lon="-5.096683">
        <ele>1274.0</ele>
        <time>2013-06-30T13:10:24Z</time>
      </trkpt>
      <trkpt lat="40.188050" lon="-5.096600">
        <ele>1274.0</ele>
        <time>2013-06-30T13:10:25Z</time>
      </trkpt>
      <trkpt lat="40.188067" lon="-5.096500">
        <ele>1274.0</ele>
        <time>2013-06-30T13:10:26Z</time>
      </trkpt>
      <trkpt lat="40.188083" lon="-5.096417">
        <ele>1274.0</ele>
        <time>2013-06-30T13:10:27Z</time>
      </trkpt>
      <trkpt lat="40.188117" lon="-5.096333">
        <ele>1275.0</ele>
        <time>2013-06-30T13:10:28Z</time>
      </trkpt>
      <trkpt lat="40.188150" lon="-5.096283">
        <ele>1276.0</ele>
        <time>2013-06-30T13:10:29Z</time>
      </trkpt>
      <trkpt lat="40.188217" lon="-5.096250">
        <ele>1277.0</ele>
        <time>2013-06-30T13:10:30Z</time>
      </trkpt>
      <trkpt lat="40.188300" lon="-5.096200">
        <ele>1277.0</ele>
        <time>2013-06-30T13:10:31Z</time>
      </trkpt>
      <trkpt lat="40.188383" lon="-5.096167">
        <ele>1276.0</ele>
        <time>2013-06-30T13:10:32Z</time>
      </trkpt>
      <trkpt lat="40.188450" lon="-5.096117">
        <ele>1276.0</ele>
        <time>2013-06-30T13:10:33Z</time>
      </trkpt>
      <trkpt lat="40.188517" lon="-5.096067">
        <ele>1277.0</ele>
        <time>2013-06-30T13:10:34Z</time>
      </trkpt>
      <trkpt lat="40.188583" lon="-5.096017">
        <ele>1278.0</ele>
        <time>2013-06-30T13:10:35Z</time>
      </trkpt>
      <trkpt lat="40.188650" lon="-5.096000">
        <ele>1279.0</ele>
        <time>2013-06-30T13:10:36Z</time>
      </trkpt>
      <trkpt lat="40.188733" lon="-5.095983">
        <ele>1279.0</ele>
        <time>2013-06-30T13:10:37Z</time>
      </trkpt>
      <trkpt lat="40.188817" lon="-5.095983">
        <ele>1280.0</ele>
        <time>2013-06-30T13:10:38Z</time>
      </trkpt>
      <trkpt lat="40.189000" lon="-5.095983">
        <ele>1281.0</ele>
        <time>2013-06-30T13:10:40Z</time>
      </trkpt>
      <trkpt lat="40.189067" lon="-5.096000">
        <ele>1283.0</ele>
        <time>2013-06-30T13:10:41Z</time>
      </trkpt>
      <trkpt lat="40.189150" lon="-5.096033">
        <ele>1284.0</ele>
        <time>2013-06-30T13:10:42Z</time>
      </trkpt>
      <trkpt lat="40.189217" lon="-5.096100">
        <ele>1284.0</ele>
        <time>2013-06-30T13:10:43Z</time>
      </trkpt>
      <trkpt lat="40.189300" lon="-5.096183">
        <ele>1284.0</ele>
        <time>2013-06-30T13:10:44Z</time>
      </trkpt>
      <trkpt lat="40.189383" lon="-5.096267">
        <ele>1284.0</ele>
        <time>2013-06-30T13:10:45Z</time>
      </trkpt>
      <trkpt lat="40.189450" lon="-5.096350">
        <ele>1285.0</ele>
        <time>2013-06-30T13:10:46Z</time>
      </trkpt>
      <trkpt lat="40.189500" lon="-5.096433">
        <ele>1286.0</ele>
        <time>2013-06-30T13:10:47Z</time>
      </trkpt>
      <trkpt lat="40.189550" lon="-5.096533">
        <ele>1287.0</ele>
        <time>2013-06-30T13:10:48Z</time>
      </trkpt>
      <trkpt lat="40.189600" lon="-5.096650">
        <ele>1288.0</ele>
        <time>2013-06-30T13:10:49Z</time>
      </trkpt>
      <trkpt lat="40.189650" lon="-5.096767">
        <ele>1288.0</ele>
        <time>2013-06-30T13:10:50Z</time>
      </trkpt>
      <trkpt lat="40.189683" lon="-5.096883">
        <ele>1288.0</ele>
        <time>2013-06-30T13:10:51Z</time>
      </trkpt>
      <trkpt lat="40.189717" lon="-5.097000">
        <ele>1289.0</ele>
        <time>2013-06-30T13:10:52Z</time>
      </trkpt>
      <trkpt lat="40.189733" lon="-5.097117">
        <ele>1289.0</ele>
        <time>2013-06-30T13:10:53Z</time>
      </trkpt>
      <trkpt lat="40.189733" lon="-5.097267">
        <ele>1290.0</ele>
        <time>2013-06-30T13:10:54Z</time>
      </trkpt>
      <trkpt lat="40.189733" lon="-5.097383">
        <ele>1290.0</ele>
        <time>2013-06-30T13:10:55Z</time>
      </trkpt>
      <trkpt lat="40.189733" lon="-5.097517">
        <ele>1291.0</ele>
        <time>2013-06-30T13:10:56Z</time>
      </trkpt>
      <trkpt lat="40.189717" lon="-5.097617">
        <ele>1292.0</ele>
        <time>2013-06-30T13:10:57Z</time>
      </trkpt>
      <trkpt lat="40.189700" lon="-5.097733">
        <ele>1293.0</ele>
        <time>2013-06-30T13:10:58Z</time>
      </trkpt>
      <trkpt lat="40.189683" lon="-5.097850">
        <ele>1294.0</ele>
        <time>2013-06-30T13:10:59Z</time>
      </trkpt>
      <trkpt lat="40.189667" lon="-5.097967">
        <ele>1293.0</ele>
        <time>2013-06-30T13:11:00Z</time>
      </trkpt>
      <trkpt lat="40.189633" lon="-5.098100">
        <ele>1293.0</ele>
        <time>2013-06-30T13:11:01Z</time>
      </trkpt>
      <trkpt lat="40.189583" lon="-5.098233">
        <ele>1293.0</ele>
        <time>2013-06-30T13:11:02Z</time>
      </trkpt>
      <trkpt lat="40.189550" lon="-5.098333">
        <ele>1293.0</ele>
        <time>2013-06-30T13:11:03Z</time>
      </trkpt>
      <trkpt lat="40.189500" lon="-5.098417">
        <ele>1294.0</ele>
        <time>2013-06-30T13:11:04Z</time>
      </trkpt>
      <trkpt lat="40.189450" lon="-5.098500">
        <ele>1294.0</ele>
        <time>2013-06-30T13:11:05Z</time>
      </trkpt>
      <trkpt lat="40.189400" lon="-5.098583">
        <ele>1295.0</ele>
        <time>2013-06-30T13:11:06Z</time>
      </trkpt>
      <trkpt lat="40.189333" lon="-5.098667">
        <ele>1296.0</ele>
        <time>2013-06-30T13:11:07Z</time>
      </trkpt>
      <trkpt lat="40.189267" lon="-5.098717">
        <ele>1296.0</ele>
        <time>2013-06-30T13:11:08Z</time>
      </trkpt>
      <trkpt lat="40.189217" lon="-5.098767">
        <ele>1297.0</ele>
        <time>2013-06-30T13:11:09Z</time>
      </trkpt>
      <trkpt lat="40.189150" lon="-5.098800">
        <ele>1298.0</ele>
        <time>2013-06-30T13:11:10Z</time>
      </trkpt>
      <trkpt lat="40.189100" lon="-5.098833">
        <ele>1299.0</ele>
        <time>2013-06-30T13:11:11Z</time>
      </trkpt>
      <trkpt lat="40.189033" lon="-5.098833">
        <ele>1299.0</ele>
        <time>2013-06-30T13:11:12Z</time>
      </trkpt>
      <trkpt lat="40.188967" lon="-5.098850">
        <ele>1299.0</ele>
        <time>2013-06-30T13:11:13Z</time>
      </trkpt>
      <trkpt lat="40.188883" lon="-5.098867">
        <ele>1298.0</ele>
        <time>2013-06-30T13:11:14Z</time>
      </trkpt>
      <trkpt lat="40.188800" lon="-5.098867">
        <ele>1296.0</ele>
        <time>2013-06-30T13:11:15Z</time>
      </trkpt>
      <trkpt lat="40.188717" lon="-5.098867">
        <ele>1296.0</ele>
        <time>2013-06-30T13:11:16Z</time>
      </trkpt>
      <trkpt lat="40.188667" lon="-5.098833">
        <ele>1296.0</ele>
        <time>2013-06-30T13:11:17Z</time>
      </trkpt>
      <trkpt lat="40.188600" lon="-5.098783">
        <ele>1295.0</ele>
        <time>2013-06-30T13:11:18Z</time>
      </trkpt>
      <trkpt lat="40.188533" lon="-5.098750">
        <ele>1295.0</ele>
        <time>2013-06-30T13:11:19Z</time>
      </trkpt>
      <trkpt lat="40.188483" lon="-5.098700">
        <ele>1294.0</ele>
        <time>2013-06-30T13:11:20Z</time>
      </trkpt>
      <trkpt lat="40.188417" lon="-5.098650">
        <ele>1293.0</ele>
        <time>2013-06-30T13:11:21Z</time>
      </trkpt>
      <trkpt lat="40.188383" lon="-5.098600">
        <ele>1293.0</ele>
        <time>2013-06-30T13:11:22Z</time>
      </trkpt>
      <trkpt lat="40.188367" lon="-5.098533">
        <ele>1293.0</ele>
        <time>2013-06-30T13:11:23Z</time>
      </trkpt>
      <trkpt lat="40.188350" lon="-5.098450">
        <ele>1292.0</ele>
        <time>2013-06-30T13:11:24Z</time>
      </trkpt>
      <trkpt lat="40.188333" lon="-5.098350">
        <ele>1291.0</ele>
        <time>2013-06-30T13:11:25Z</time>
      </trkpt>
      <trkpt lat="40.188317" lon="-5.098250">
        <ele>1291.0</ele>
        <time>2013-06-30T13:11:26Z</time>
      </trkpt>
      <trkpt lat="40.188300" lon="-5.098167">
        <ele>1291.0</ele>
        <time>2013-06-30T13:11:27Z</time>
      </trkpt>
      <trkpt lat="40.188300" lon="-5.098083">
        <ele>1292.0</ele>
        <time>2013-06-30T13:11:28Z</time>
      </trkpt>
      <trkpt lat="40.188300" lon="-5.098000">
        <ele>1293.0</ele>
        <time>2013-06-30T13:11:29Z</time>
      </trkpt>
      <trkpt lat="40.188300" lon="-5.097900">
        <ele>1293.0</ele>
        <time>2013-06-30T13:11:30Z</time>
      </trkpt>
      <trkpt lat="40.188300" lon="-5.097817">
        <ele>1293.0</ele>
        <time>2013-06-30T13:11:31Z</time>
      </trkpt>
      <trkpt lat="40.188300" lon="-5.097717">
        <ele>1293.0</ele>
        <time>2013-06-30T13:11:32Z</time>
      </trkpt>
      <trkpt lat="40.188300" lon="-5.097633">
        <ele>1293.0</ele>
        <time>2013-06-30T13:11:33Z</time>
      </trkpt>
      <trkpt lat="40.188300" lon="-5.097550">
        <ele>1293.0</ele>
        <time>2013-06-30T13:11:34Z</time>
      </trkpt>
      <trkpt lat="40.188383" lon="-5.097400">
        <ele>1291.0</ele>
        <time>2013-06-30T13:11:36Z</time>
      </trkpt>
      <trkpt lat="40.188433" lon="-5.097333">
        <ele>1289.0</ele>
        <time>2013-06-30T13:11:37Z</time>
      </trkpt>
      <trkpt lat="40.188500" lon="-5.097267">
        <ele>1287.0</ele>
        <time>2013-06-30T13:11:38Z</time>
      </trkpt>
      <trkpt lat="40.188583" lon="-5.097217">
        <ele>1284.0</ele>
        <time>2013-06-30T13:11:39Z</time>
      </trkpt>
      <trkpt lat="40.188667" lon="-5.097200">
        <ele>1282.0</ele>
        <time>2013-06-30T13:11:40Z</time>
      </trkpt>
      <trkpt lat="40.188833" lon="-5.097200">
        <ele>1277.0</ele>
        <time>2013-06-30T13:11:42Z</time>
      </trkpt>
      <trkpt lat="40.188917" lon="-5.097217">
        <ele>1276.0</ele>
        <time>2013-06-30T13:11:43Z</time>
      </trkpt>
      <trkpt lat="40.189017" lon="-5.097233">
        <ele>1274.0</ele>
        <time>2013-06-30T13:11:44Z</time>
      </trkpt>
      <trkpt lat="40.189100" lon="-5.097283">
        <ele>1273.0</ele>
        <time>2013-06-30T13:11:45Z</time>
      </trkpt>
      <trkpt lat="40.189200" lon="-5.097333">
        <ele>1271.0</ele>
        <time>2013-06-30T13:11:46Z</time>
      </trkpt>
      <trkpt lat="40.189283" lon="-5.097417">
        <ele>1270.0</ele>
        <time>2013-06-30T13:11:47Z</time>
      </trkpt>
      <trkpt lat="40.189367" lon="-5.097500">
        <ele>1269.0</ele>
        <time>2013-06-30T13:11:48Z</time>
      </trkpt>
      <trkpt lat="40.189467" lon="-5.097583">
        <ele>1268.0</ele>
        <time>2013-06-30T13:11:49Z</time>
      </trkpt>
      <trkpt lat="40.189550" lon="-5.097683">
        <ele>1268.0</ele>
        <time>2013-06-30T13:11:50Z</time>
      </trkpt>
      <trkpt lat="40.189617" lon="-5.097783">
        <ele>1268.0</ele>
        <time>2013-06-30T13:11:51Z</time>
      </trkpt>
      <trkpt lat="40.189683" lon="-5.097917">
        <ele>1267.0</ele>
        <time>2013-06-30T13:11:52Z</time>
      </trkpt>
      <trkpt lat="40.189750" lon="-5.098033">
        <ele>1267.0</ele>
        <time>2013-06-30T13:11:53Z</time>
      </trkpt>
      <trkpt lat="40.189783" lon="-5.098167">
        <ele>1267.0</ele>
        <time>2013-06-30T13:11:54Z</time>
      </trkpt>
      <trkpt lat="40.189833" lon="-5.098283">
        <ele>1267.0</ele>
        <time>2013-06-30T13:11:55Z</time>
      </trkpt>
      <trkpt lat="40.189867" lon="-5.098433">
        <ele>1266.0</ele>
        <time>2013-06-30T13:11:56Z</time>
      </trkpt>
      <trkpt lat="40.189883" lon="-5.098600">
        <ele>1264.0</ele>
        <time>2013-06-30T13:11:57Z</time>
      </trkpt>
      <trkpt lat="40.189900" lon="-5.098767">
        <ele>1264.0</ele>
        <time>2013-06-30T13:11:58Z</time>
      </trkpt>
      <trkpt lat="40.189900" lon="-5.098900">
        <ele>1264.0</ele>
        <time>2013-06-30T13:11:59Z</time>
      </trkpt>
      <trkpt lat="40.189900" lon="-5.099033">
        <ele>1265.0</ele>
        <time>2013-06-30T13:12:00Z</time>
      </trkpt>
      <trkpt lat="40.189883" lon="-5.099183">
        <ele>1265.0</ele>
        <time>2013-06-30T13:12:01Z</time>
      </trkpt>
      <trkpt lat="40.189867" lon="-5.099333">
        <ele>1264.0</ele>
        <time>2013-06-30T13:12:02Z</time>
      </trkpt>
      <trkpt lat="40.189850" lon="-5.099483">
        <ele>1263.0</ele>
        <time>2013-06-30T13:12:03Z</time>
      </trkpt>
      <trkpt lat="40.189817" lon="-5.099633">
        <ele>1263.0</ele>
        <time>2013-06-30T13:12:04Z</time>
      </trkpt>
      <trkpt lat="40.189767" lon="-5.099750">
        <ele>1263.0</ele>
        <time>2013-06-30T13:12:05Z</time>
      </trkpt>
      <trkpt lat="40.189733" lon="-5.099867">
        <ele>1263.0</ele>
        <time>2013-06-30T13:12:06Z</time>
      </trkpt>
      <trkpt lat="40.189683" lon="-5.099967">
        <ele>1263.0</ele>
        <time>2013-06-30T13:12:07Z</time>
      </trkpt>
      <trkpt lat="40.189617" lon="-5.100067">
        <ele>1262.0</ele>
        <time>2013-06-30T13:12:08Z</time>
      </trkpt>
      <trkpt lat="40.189567" lon="-5.100183">
        <ele>1261.0</ele>
        <time>2013-06-30T13:12:09Z</time>
      </trkpt>
      <trkpt lat="40.189500" lon="-5.100283">
        <ele>1261.0</ele>
        <time>2013-06-30T13:12:10Z</time>
      </trkpt>
      <trkpt lat="40.189417" lon="-5.100350">
        <ele>1261.0</ele>
        <time>2013-06-30T13:12:11Z</time>
      </trkpt>
      <trkpt lat="40.189350" lon="-5.100417">
        <ele>1262.0</ele>
        <time>2013-06-30T13:12:12Z</time>
      </trkpt>
      <trkpt lat="40.189267" lon="-5.100450">
        <ele>1262.0</ele>
        <time>2013-06-30T13:12:13Z</time>
      </trkpt>
      <trkpt lat="40.189200" lon="-5.100467">
        <ele>1262.0</ele>
        <time>2013-06-30T13:12:14Z</time>
      </trkpt>
      <trkpt lat="40.189117" lon="-5.100500">
        <ele>1261.0</ele>
        <time>2013-06-30T13:12:15Z</time>
      </trkpt>
      <trkpt lat="40.189033" lon="-5.100517">
        <ele>1261.0</ele>
        <time>2013-06-30T13:12:16Z</time>
      </trkpt>
      <trkpt lat="40.188950" lon="-5.100517">
        <ele>1261.0</ele>
        <time>2013-06-30T13:12:17Z</time>
      </trkpt>
      <trkpt lat="40.188867" lon="-5.100517">
        <ele>1260.0</ele>
        <time>2013-06-30T13:12:18Z</time>
      </trkpt>
      <trkpt lat="40.188800" lon="-5.100500">
        <ele>1260.0</ele>
        <time>2013-06-30T13:12:19Z</time>
      </trkpt>
      <trkpt lat="40.188733" lon="-5.100483">
        <ele>1261.0</ele>
        <time>2013-06-30T13:12:20Z</time>
      </trkpt>
      <trkpt lat="40.188683" lon="-5.100467">
        <ele>1260.0</ele>
        <time>2013-06-30T13:12:21Z</time>
      </trkpt>
      <trkpt lat="40.188617" lon="-5.100450">
        <ele>1259.0</ele>
        <time>2013-06-30T13:12:22Z</time>
      </trkpt>
      <trkpt lat="40.188550" lon="-5.100417">
        <ele>1259.0</ele>
        <time>2013-06-30T13:12:23Z</time>
      </trkpt>
      <trkpt lat="40.188500" lon="-5.100383">
        <ele>1258.0</ele>
        <time>2013-06-30T13:12:24Z</time>
      </trkpt>
      <trkpt lat="40.188433" lon="-5.100333">
        <ele>1258.0</ele>
        <time>2013-06-30T13:12:25Z</time>
      </trkpt>
      <trkpt lat="40.188383" lon="-5.100283">
        <ele>1260.0</ele>
        <time>2013-06-30T13:12:26Z</time>
      </trkpt>
      <trkpt lat="40.188350" lon="-5.100233">
        <ele>1261.0</ele>
        <time>2013-06-30T13:12:27Z</time>
      </trkpt>
      <trkpt lat="40.188317" lon="-5.100183">
        <ele>1262.0</ele>
        <time>2013-06-30T13:12:28Z</time>
      </trkpt>
      <trkpt lat="40.188283" lon="-5.100117">
        <ele>1263.0</ele>
        <time>2013-06-30T13:12:29Z</time>
      </trkpt>
      <trkpt lat="40.188267" lon="-5.100067">
        <ele>1264.0</ele>
        <time>2013-06-30T13:12:30Z</time>
      </trkpt>
      <trkpt lat="40.188267" lon="-5.100000">
        <ele>1265.0</ele>
        <time>2013-06-30T13:12:31Z</time>
      </trkpt>
      <trkpt lat="40.188283" lon="-5.099917">
        <ele>1265.0</ele>
        <time>2013-06-30T13:12:32Z</time>
      </trkpt>
      <trkpt lat="40.188367" lon="-5.099783">
        <ele>1264.0</ele>
        <time>2013-06-30T13:12:34Z</time>
      </trkpt>
      <trkpt lat="40.188450" lon="-5.099733">
        <ele>1263.0</ele>
        <time>2013-06-30T13:12:35Z</time>
      </trkpt>
      <trkpt lat="40.188550" lon="-5.099733">
        <ele>1262.0</ele>
        <time>2013-06-30T13:12:36Z</time>
      </trkpt>
      <trkpt lat="40.188633" lon="-5.099750">
        <ele>1261.0</ele>
        <time>2013-06-30T13:12:37Z</time>
      </trkpt>
      <trkpt lat="40.188717" lon="-5.099783">
        <ele>1261.0</ele>
        <time>2013-06-30T13:12:38Z</time>
      </trkpt>
      <trkpt lat="40.188800" lon="-5.099800">
        <ele>1261.0</ele>
        <time>2013-06-30T13:12:39Z</time>
      </trkpt>
      <trkpt lat="40.188867" lon="-5.099833">
        <ele>1261.0</ele>
        <time>2013-06-30T13:12:40Z</time>
      </trkpt>
      <trkpt lat="40.188950" lon="-5.099883">
        <ele>1260.0</ele>
        <time>2013-06-30T13:12:41Z</time>
      </trkpt>
      <trkpt lat="40.189033" lon="-5.099950">
        <ele>1259.0</ele>
        <time>2013-06-30T13:12:42Z</time>
      </trkpt>
      <trkpt lat="40.189117" lon="-5.100033">
        <ele>1258.0</ele>
        <time>2013-06-30T13:12:43Z</time>
      </trkpt>
      <trkpt lat="40.189183" lon="-5.100150">
        <ele>1258.0</ele>
        <time>2013-06-30T13:12:44Z</time>
      </trkpt>
      <trkpt lat="40.189250" lon="-5.100267">
        <ele>1258.0</ele>
        <time>2013-06-30T13:12:45Z</time>
      </trkpt>
      <trkpt lat="40.189283" lon="-5.100367">
        <ele>1259.0</ele>
        <time>2013-06-30T13:12:46Z</time>
      </trkpt>
      <trkpt lat="40.189317" lon="-5.100483">
        <ele>1259.0</ele>
        <time>2013-06-30T13:12:47Z</time>
      </trkpt>
      <trkpt lat="40.189333" lon="-5.100617">
        <ele>1258.0</ele>
        <time>2013-06-30T13:12:48Z</time>
      </trkpt>
      <trkpt lat="40.189367" lon="-5.100917">
        <ele>1256.0</ele>
        <time>2013-06-30T13:12:50Z</time>
      </trkpt>
      <trkpt lat="40.189350" lon="-5.101067">
        <ele>1256.0</ele>
        <time>2013-06-30T13:12:51Z</time>
      </trkpt>
      <trkpt lat="40.189333" lon="-5.101200">
        <ele>1256.0</ele>
        <time>2013-06-30T13:12:52Z</time>
      </trkpt>
      <trkpt lat="40.189250" lon="-5.101450">
        <ele>1254.0</ele>
        <time>2013-06-30T13:12:54Z</time>
      </trkpt>
      <trkpt lat="40.189117" lon="-5.101667">
        <ele>1252.0</ele>
        <time>2013-06-30T13:12:56Z</time>
      </trkpt>
      <trkpt lat="40.189050" lon="-5.101767">
        <ele>1252.0</ele>
        <time>2013-06-30T13:12:57Z</time>
      </trkpt>
      <trkpt lat="40.188983" lon="-5.101867">
        <ele>1251.0</ele>
        <time>2013-06-30T13:12:58Z</time>
      </trkpt>
      <trkpt lat="40.188917" lon="-5.101967">
        <ele>1251.0</ele>
        <time>2013-06-30T13:12:59Z</time>
      </trkpt>
      <trkpt lat="40.188850" lon="-5.102067">
        <ele>1250.0</ele>
        <time>2013-06-30T13:13:00Z</time>
      </trkpt>
      <trkpt lat="40.188783" lon="-5.102167">
        <ele>1250.0</ele>
        <time>2013-06-30T13:13:01Z</time>
      </trkpt>
      <trkpt lat="40.188700" lon="-5.102250">
        <ele>1250.0</ele>
        <time>2013-06-30T13:13:02Z</time>
      </trkpt>
      <trkpt lat="40.188633" lon="-5.102350">
        <ele>1250.0</ele>
        <time>2013-06-30T13:13:03Z</time>
      </trkpt>
      <trkpt lat="40.188583" lon="-5.102450">
        <ele>1250.0</ele>
        <time>2013-06-30T13:13:04Z</time>
      </trkpt>
      <trkpt lat="40.188517" lon="-5.102550">
        <ele>1250.0</ele>
        <time>2013-06-30T13:13:05Z</time>
      </trkpt>
      <trkpt lat="40.188450" lon="-5.102650">
        <ele>1249.0</ele>
        <time>2013-06-30T13:13:06Z</time>
      </trkpt>
      <trkpt lat="40.188383" lon="-5.102750">
        <ele>1250.0</ele>
        <time>2013-06-30T13:13:07Z</time>
      </trkpt>
      <trkpt lat="40.188317" lon="-5.102833">
        <ele>1251.0</ele>
        <time>2013-06-30T13:13:08Z</time>
      </trkpt>
      <trkpt lat="40.188250" lon="-5.102900">
        <ele>1253.0</ele>
        <time>2013-06-30T13:13:09Z</time>
      </trkpt>
      <trkpt lat="40.188183" lon="-5.102983">
        <ele>1253.0</ele>
        <time>2013-06-30T13:13:10Z</time>
      </trkpt>
      <trkpt lat="40.188117" lon="-5.103067">
        <ele>1254.0</ele>
        <time>2013-06-30T13:13:11Z</time>
      </trkpt>
      <trkpt lat="40.188050" lon="-5.103133">
        <ele>1254.0</ele>
        <time>2013-06-30T13:13:12Z</time>
      </trkpt>
      <trkpt lat="40.187967" lon="-5.103217">
        <ele>1254.0</ele>
        <time>2013-06-30T13:13:13Z</time>
      </trkpt>
      <trkpt lat="40.187900" lon="-5.103267">
        <ele>1254.0</ele>
        <time>2013-06-30T13:13:14Z</time>
      </trkpt>
      <trkpt lat="40.187817" lon="-5.103317">
        <ele>1254.0</ele>
        <time>2013-06-30T13:13:15Z</time>
      </trkpt>
      <trkpt lat="40.187750" lon="-5.103367">
        <ele>1255.0</ele>
        <time>2013-06-30T13:13:16Z</time>
      </trkpt>
      <trkpt lat="40.187667" lon="-5.103400">
        <ele>1255.0</ele>
        <time>2013-06-30T13:13:17Z</time>
      </trkpt>
      <trkpt lat="40.187583" lon="-5.103417">
        <ele>1254.0</ele>
        <time>2013-06-30T13:13:18Z</time>
      </trkpt>
      <trkpt lat="40.187500" lon="-5.103433">
        <ele>1254.0</ele>
        <time>2013-06-30T13:13:19Z</time>
      </trkpt>
      <trkpt lat="40.187417" lon="-5.103433">
        <ele>1252.0</ele>
        <time>2013-06-30T13:13:20Z</time>
      </trkpt>
      <trkpt lat="40.187333" lon="-5.103433">
        <ele>1250.0</ele>
        <time>2013-06-30T13:13:21Z</time>
      </trkpt>
      <trkpt lat="40.187267" lon="-5.103400">
        <ele>1249.0</ele>
        <time>2013-06-30T13:13:22Z</time>
      </trkpt>
      <trkpt lat="40.187200" lon="-5.103350">
        <ele>1248.0</ele>
        <time>2013-06-30T13:13:23Z</time>
      </trkpt>
      <trkpt lat="40.187150" lon="-5.103283">
        <ele>1246.0</ele>
        <time>2013-06-30T13:13:24Z</time>
      </trkpt>
      <trkpt lat="40.187133" lon="-5.103200">
        <ele>1245.0</ele>
        <time>2013-06-30T13:13:25Z</time>
      </trkpt>
      <trkpt lat="40.187117" lon="-5.103117">
        <ele>1244.0</ele>
        <time>2013-06-30T13:13:26Z</time>
      </trkpt>
      <trkpt lat="40.187117" lon="-5.103033">
        <ele>1243.0</ele>
        <time>2013-06-30T13:13:27Z</time>
      </trkpt>
      <trkpt lat="40.187117" lon="-5.102950">
        <ele>1241.0</ele>
        <time>2013-06-30T13:13:28Z</time>
      </trkpt>
      <trkpt lat="40.187133" lon="-5.102867">
        <ele>1240.0</ele>
        <time>2013-06-30T13:13:29Z</time>
      </trkpt>
      <trkpt lat="40.187183" lon="-5.102783">
        <ele>1239.0</ele>
        <time>2013-06-30T13:13:30Z</time>
      </trkpt>
      <trkpt lat="40.187250" lon="-5.102733">
        <ele>1237.0</ele>
        <time>2013-06-30T13:13:31Z</time>
      </trkpt>
      <trkpt lat="40.187317" lon="-5.102700">
        <ele>1234.0</ele>
        <time>2013-06-30T13:13:32Z</time>
      </trkpt>
      <trkpt lat="40.187483" lon="-5.102667">
        <ele>1232.0</ele>
        <time>2013-06-30T13:13:34Z</time>
      </trkpt>
      <trkpt lat="40.187650" lon="-5.102667">
        <ele>1231.0</ele>
        <time>2013-06-30T13:13:36Z</time>
      </trkpt>
      <trkpt lat="40.187733" lon="-5.102683">
        <ele>1230.0</ele>
        <time>2013-06-30T13:13:37Z</time>
      </trkpt>
      <trkpt lat="40.187800" lon="-5.102733">
        <ele>1230.0</ele>
        <time>2013-06-30T13:13:38Z</time>
      </trkpt>
      <trkpt lat="40.187867" lon="-5.102800">
        <ele>1229.0</ele>
        <time>2013-06-30T13:13:39Z</time>
      </trkpt>
      <trkpt lat="40.187950" lon="-5.102917">
        <ele>1228.0</ele>
        <time>2013-06-30T13:13:40Z</time>
      </trkpt>
      <trkpt lat="40.188033" lon="-5.103050">
        <ele>1227.0</ele>
        <time>2013-06-30T13:13:41Z</time>
      </trkpt>
      <trkpt lat="40.188100" lon="-5.103167">
        <ele>1228.0</ele>
        <time>2013-06-30T13:13:42Z</time>
      </trkpt>
      <trkpt lat="40.188133" lon="-5.103283">
        <ele>1230.0</ele>
        <time>2013-06-30T13:13:43Z</time>
      </trkpt>
      <trkpt lat="40.188167" lon="-5.103400">
        <ele>1233.0</ele>
        <time>2013-06-30T13:13:44Z</time>
      </trkpt>
      <trkpt lat="40.188183" lon="-5.103500">
        <ele>1234.0</ele>
        <time>2013-06-30T13:13:45Z</time>
      </trkpt>
      <trkpt lat="40.188217" lon="-5.103633">
        <ele>1234.0</ele>
        <time>2013-06-30T13:13:46Z</time>
      </trkpt>
      <trkpt lat="40.188233" lon="-5.103783">
        <ele>1233.0</ele>
        <time>2013-06-30T13:13:47Z</time>
      </trkpt>
      <trkpt lat="40.188267" lon="-5.103950">
        <ele>1232.0</ele>
        <time>2013-06-30T13:13:48Z</time>
      </trkpt>
      <trkpt lat="40.188283" lon="-5.104100">
        <ele>1232.0</ele>
        <time>2013-06-30T13:13:49Z</time>
      </trkpt>
      <trkpt lat="40.188300" lon="-5.104250">
        <ele>1232.0</ele>
        <time>2013-06-30T13:13:50Z</time>
      </trkpt>
      <trkpt lat="40.188317" lon="-5.104400">
        <ele>1232.0</ele>
        <time>2013-06-30T13:13:51Z</time>
      </trkpt>
      <trkpt lat="40.188317" lon="-5.104567">
        <ele>1232.0</ele>
        <time>2013-06-30T13:13:52Z</time>
      </trkpt>
      <trkpt lat="40.188283" lon="-5.104717">
        <ele>1231.0</ele>
        <time>2013-06-30T13:13:53Z</time>
      </trkpt>
      <trkpt lat="40.188267" lon="-5.104867">
        <ele>1232.0</ele>
        <time>2013-06-30T13:13:54Z</time>
      </trkpt>
      <trkpt lat="40.188200" lon="-5.105100">
        <ele>1233.0</ele>
        <time>2013-06-30T13:13:56Z</time>
      </trkpt>
      <trkpt lat="40.188133" lon="-5.105333">
        <ele>1233.0</ele>
        <time>2013-06-30T13:13:58Z</time>
      </trkpt>
      <trkpt lat="40.188083" lon="-5.105467">
        <ele>1233.0</ele>
        <time>2013-06-30T13:13:59Z</time>
      </trkpt>
      <trkpt lat="40.188033" lon="-5.105583">
        <ele>1232.0</ele>
        <time>2013-06-30T13:14:00Z</time>
      </trkpt>
      <trkpt lat="40.187983" lon="-5.105700">
        <ele>1232.0</ele>
        <time>2013-06-30T13:14:01Z</time>
      </trkpt>
      <trkpt lat="40.187933" lon="-5.105817">
        <ele>1232.0</ele>
        <time>2013-06-30T13:14:02Z</time>
      </trkpt>
      <trkpt lat="40.187883" lon="-5.105933">
        <ele>1232.0</ele>
        <time>2013-06-30T13:14:03Z</time>
      </trkpt>
      <trkpt lat="40.187817" lon="-5.106050">
        <ele>1231.0</ele>
        <time>2013-06-30T13:14:04Z</time>
      </trkpt>
      <trkpt lat="40.187767" lon="-5.106167">
        <ele>1231.0</ele>
        <time>2013-06-30T13:14:05Z</time>
      </trkpt>
      <trkpt lat="40.187700" lon="-5.106283">
        <ele>1230.0</ele>
        <time>2013-06-30T13:14:06Z</time>
      </trkpt>
      <trkpt lat="40.187633" lon="-5.106400">
        <ele>1230.0</ele>
        <time>2013-06-30T13:14:07Z</time>
      </trkpt>
      <trkpt lat="40.187583" lon="-5.106500">
        <ele>1230.0</ele>
        <time>2013-06-30T13:14:08Z</time>
      </trkpt>
      <trkpt lat="40.187517" lon="-5.106600">
        <ele>1230.0</ele>
        <time>2013-06-30T13:14:09Z</time>
      </trkpt>
      <trkpt lat="40.187450" lon="-5.106700">
        <ele>1231.0</ele>
        <time>2013-06-30T13:14:10Z</time>
      </trkpt>
      <trkpt lat="40.187383" lon="-5.106800">
        <ele>1230.0</ele>
        <time>2013-06-30T13:14:11Z</time>
      </trkpt>
      <trkpt lat="40.187317" lon="-5.106917">
        <ele>1229.0</ele>
        <time>2013-06-30T13:14:12Z</time>
      </trkpt>
      <trkpt lat="40.187250" lon="-5.107033">
        <ele>1228.0</ele>
        <time>2013-06-30T13:14:13Z</time>
      </trkpt>
      <trkpt lat="40.187167" lon="-5.107133">
        <ele>1228.0</ele>
        <time>2013-06-30T13:14:14Z</time>
      </trkpt>
      <trkpt lat="40.187100" lon="-5.107217">
        <ele>1228.0</ele>
        <time>2013-06-30T13:14:15Z</time>
      </trkpt>
      <trkpt lat="40.187017" lon="-5.107300">
        <ele>1227.0</ele>
        <time>2013-06-30T13:14:16Z</time>
      </trkpt>
      <trkpt lat="40.186950" lon="-5.107383">
        <ele>1227.0</ele>
        <time>2013-06-30T13:14:17Z</time>
      </trkpt>
      <trkpt lat="40.186883" lon="-5.107483">
        <ele>1226.0</ele>
        <time>2013-06-30T13:14:18Z</time>
      </trkpt>
      <trkpt lat="40.186800" lon="-5.107583">
        <ele>1226.0</ele>
        <time>2013-06-30T13:14:19Z</time>
      </trkpt>
      <trkpt lat="40.186717" lon="-5.107667">
        <ele>1226.0</ele>
        <time>2013-06-30T13:14:20Z</time>
      </trkpt>
      <trkpt lat="40.186633" lon="-5.107750">
        <ele>1225.0</ele>
        <time>2013-06-30T13:14:21Z</time>
      </trkpt>
      <trkpt lat="40.186567" lon="-5.107833">
        <ele>1225.0</ele>
        <time>2013-06-30T13:14:22Z</time>
      </trkpt>
      <trkpt lat="40.186483" lon="-5.107933">
        <ele>1224.0</ele>
        <time>2013-06-30T13:14:23Z</time>
      </trkpt>
      <trkpt lat="40.186400" lon="-5.108017">
        <ele>1222.0</ele>
        <time>2013-06-30T13:14:24Z</time>
      </trkpt>
      <trkpt lat="40.186317" lon="-5.108100">
        <ele>1221.0</ele>
        <time>2013-06-30T13:14:25Z</time>
      </trkpt>
      <trkpt lat="40.186233" lon="-5.108183">
        <ele>1219.0</ele>
        <time>2013-06-30T13:14:26Z</time>
      </trkpt>
      <trkpt lat="40.186167" lon="-5.108267">
        <ele>1217.0</ele>
        <time>2013-06-30T13:14:27Z</time>
      </trkpt>
      <trkpt lat="40.186083" lon="-5.108367">
        <ele>1215.0</ele>
        <time>2013-06-30T13:14:28Z</time>
      </trkpt>
      <trkpt lat="40.186000" lon="-5.108450">
        <ele>1213.0</ele>
        <time>2013-06-30T13:14:29Z</time>
      </trkpt>
      <trkpt lat="40.185917" lon="-5.108567">
        <ele>1211.0</ele>
        <time>2013-06-30T13:14:30Z</time>
      </trkpt>
      <trkpt lat="40.185833" lon="-5.108650">
        <ele>1209.0</ele>
        <time>2013-06-30T13:14:31Z</time>
      </trkpt>
      <trkpt lat="40.185767" lon="-5.108750">
        <ele>1207.0</ele>
        <time>2013-06-30T13:14:32Z</time>
      </trkpt>
      <trkpt lat="40.185683" lon="-5.108833">
        <ele>1205.0</ele>
        <time>2013-06-30T13:14:33Z</time>
      </trkpt>
      <trkpt lat="40.185617" lon="-5.108950">
        <ele>1203.0</ele>
        <time>2013-06-30T13:14:34Z</time>
      </trkpt>
      <trkpt lat="40.185517" lon="-5.109050">
        <ele>1201.0</ele>
        <time>2013-06-30T13:14:35Z</time>
      </trkpt>
      <trkpt lat="40.185433" lon="-5.109167">
        <ele>1199.0</ele>
        <time>2013-06-30T13:14:36Z</time>
      </trkpt>
      <trkpt lat="40.185367" lon="-5.109267">
        <ele>1198.0</ele>
        <time>2013-06-30T13:14:37Z</time>
      </trkpt>
      <trkpt lat="40.185300" lon="-5.109367">
        <ele>1197.0</ele>
        <time>2013-06-30T13:14:38Z</time>
      </trkpt>
      <trkpt lat="40.185217" lon="-5.109450">
        <ele>1196.0</ele>
        <time>2013-06-30T13:14:39Z</time>
      </trkpt>
      <trkpt lat="40.185150" lon="-5.109550">
        <ele>1195.0</ele>
        <time>2013-06-30T13:14:40Z</time>
      </trkpt>
      <trkpt lat="40.185067" lon="-5.109633">
        <ele>1193.0</ele>
        <time>2013-06-30T13:14:41Z</time>
      </trkpt>
      <trkpt lat="40.184983" lon="-5.109733">
        <ele>1192.0</ele>
        <time>2013-06-30T13:14:42Z</time>
      </trkpt>
      <trkpt lat="40.184917" lon="-5.109833">
        <ele>1191.0</ele>
        <time>2013-06-30T13:14:43Z</time>
      </trkpt>
      <trkpt lat="40.184833" lon="-5.109933">
        <ele>1189.0</ele>
        <time>2013-06-30T13:14:44Z</time>
      </trkpt>
      <trkpt lat="40.184783" lon="-5.110017">
        <ele>1188.0</ele>
        <time>2013-06-30T13:14:45Z</time>
      </trkpt>
      <trkpt lat="40.184717" lon="-5.110117">
        <ele>1187.0</ele>
        <time>2013-06-30T13:14:46Z</time>
      </trkpt>
      <trkpt lat="40.184667" lon="-5.110217">
        <ele>1186.0</ele>
        <time>2013-06-30T13:14:47Z</time>
      </trkpt>
      <trkpt lat="40.184600" lon="-5.110317">
        <ele>1185.0</ele>
        <time>2013-06-30T13:14:48Z</time>
      </trkpt>
      <trkpt lat="40.184517" lon="-5.110433">
        <ele>1183.0</ele>
        <time>2013-06-30T13:14:49Z</time>
      </trkpt>
      <trkpt lat="40.184450" lon="-5.110550">
        <ele>1182.0</ele>
        <time>2013-06-30T13:14:50Z</time>
      </trkpt>
      <trkpt lat="40.184383" lon="-5.110683">
        <ele>1180.0</ele>
        <time>2013-06-30T13:14:51Z</time>
      </trkpt>
      <trkpt lat="40.184317" lon="-5.110800">
        <ele>1178.0</ele>
        <time>2013-06-30T13:14:52Z</time>
      </trkpt>
      <trkpt lat="40.184267" lon="-5.110917">
        <ele>1176.0</ele>
        <time>2013-06-30T13:14:53Z</time>
      </trkpt>
      <trkpt lat="40.184200" lon="-5.111050">
        <ele>1174.0</ele>
        <time>2013-06-30T13:14:54Z</time>
      </trkpt>
      <trkpt lat="40.184117" lon="-5.111167">
        <ele>1172.0</ele>
        <time>2013-06-30T13:14:55Z</time>
      </trkpt>
      <trkpt lat="40.184050" lon="-5.111317">
        <ele>1171.0</ele>
        <time>2013-06-30T13:14:56Z</time>
      </trkpt>
      <trkpt lat="40.184000" lon="-5.111450">
        <ele>1170.0</ele>
        <time>2013-06-30T13:14:57Z</time>
      </trkpt>
      <trkpt lat="40.183950" lon="-5.111567">
        <ele>1172.0</ele>
        <time>2013-06-30T13:14:58Z</time>
      </trkpt>
      <trkpt lat="40.183917" lon="-5.111683">
        <ele>1173.0</ele>
        <time>2013-06-30T13:14:59Z</time>
      </trkpt>
      <trkpt lat="40.183883" lon="-5.111800">
        <ele>1173.0</ele>
        <time>2013-06-30T13:15:00Z</time>
      </trkpt>
      <trkpt lat="40.183850" lon="-5.111917">
        <ele>1172.0</ele>
        <time>2013-06-30T13:15:01Z</time>
      </trkpt>
      <trkpt lat="40.183800" lon="-5.112033">
        <ele>1172.0</ele>
        <time>2013-06-30T13:15:02Z</time>
      </trkpt>
      <trkpt lat="40.183750" lon="-5.112167">
        <ele>1171.0</ele>
        <time>2013-06-30T13:15:03Z</time>
      </trkpt>
      <trkpt lat="40.183733" lon="-5.112267">
        <ele>1172.0</ele>
        <time>2013-06-30T13:15:04Z</time>
      </trkpt>
      <trkpt lat="40.183683" lon="-5.112383">
        <ele>1173.0</ele>
        <time>2013-06-30T13:15:05Z</time>
      </trkpt>
      <trkpt lat="40.183650" lon="-5.112500">
        <ele>1174.0</ele>
        <time>2013-06-30T13:15:06Z</time>
      </trkpt>
      <trkpt lat="40.183617" lon="-5.112600">
        <ele>1174.0</ele>
        <time>2013-06-30T13:15:07Z</time>
      </trkpt>
      <trkpt lat="40.183583" lon="-5.112717">
        <ele>1175.0</ele>
        <time>2013-06-30T13:15:08Z</time>
      </trkpt>
      <trkpt lat="40.183550" lon="-5.112850">
        <ele>1175.0</ele>
        <time>2013-06-30T13:15:09Z</time>
      </trkpt>
      <trkpt lat="40.183500" lon="-5.112983">
        <ele>1175.0</ele>
        <time>2013-06-30T13:15:10Z</time>
      </trkpt>
      <trkpt lat="40.183450" lon="-5.113100">
        <ele>1176.0</ele>
        <time>2013-06-30T13:15:11Z</time>
      </trkpt>
      <trkpt lat="40.183400" lon="-5.113217">
        <ele>1177.0</ele>
        <time>2013-06-30T13:15:12Z</time>
      </trkpt>
      <trkpt lat="40.183350" lon="-5.113333">
        <ele>1178.0</ele>
        <time>2013-06-30T13:15:13Z</time>
      </trkpt>
      <trkpt lat="40.183317" lon="-5.113467">
        <ele>1178.0</ele>
        <time>2013-06-30T13:15:14Z</time>
      </trkpt>
      <trkpt lat="40.183283" lon="-5.113600">
        <ele>1177.0</ele>
        <time>2013-06-30T13:15:15Z</time>
      </trkpt>
      <trkpt lat="40.183233" lon="-5.113750">
        <ele>1176.0</ele>
        <time>2013-06-30T13:15:16Z</time>
      </trkpt>
      <trkpt lat="40.183200" lon="-5.113883">
        <ele>1176.0</ele>
        <time>2013-06-30T13:15:17Z</time>
      </trkpt>
      <trkpt lat="40.183167" lon="-5.114000">
        <ele>1177.0</ele>
        <time>2013-06-30T13:15:18Z</time>
      </trkpt>
      <trkpt lat="40.183150" lon="-5.114100">
        <ele>1178.0</ele>
        <time>2013-06-30T13:15:19Z</time>
      </trkpt>
      <trkpt lat="40.183117" lon="-5.114217">
        <ele>1177.0</ele>
        <time>2013-06-30T13:15:20Z</time>
      </trkpt>
      <trkpt lat="40.183117" lon="-5.114350">
        <ele>1175.0</ele>
        <time>2013-06-30T13:15:21Z</time>
      </trkpt>
      <trkpt lat="40.183117" lon="-5.114517">
        <ele>1173.0</ele>
        <time>2013-06-30T13:15:22Z</time>
      </trkpt>
      <trkpt lat="40.183167" lon="-5.114650">
        <ele>1172.0</ele>
        <time>2013-06-30T13:15:23Z</time>
      </trkpt>
      <trkpt lat="40.183250" lon="-5.114733">
        <ele>1172.0</ele>
        <time>2013-06-30T13:15:24Z</time>
      </trkpt>
      <trkpt lat="40.183350" lon="-5.114767">
        <ele>1171.0</ele>
        <time>2013-06-30T13:15:25Z</time>
      </trkpt>
      <trkpt lat="40.183433" lon="-5.114767">
        <ele>1170.0</ele>
        <time>2013-06-30T13:15:26Z</time>
      </trkpt>
      <trkpt lat="40.183517" lon="-5.114750">
        <ele>1170.0</ele>
        <time>2013-06-30T13:15:27Z</time>
      </trkpt>
      <trkpt lat="40.183583" lon="-5.114717">
        <ele>1171.0</ele>
        <time>2013-06-30T13:15:28Z</time>
      </trkpt>
      <trkpt lat="40.183633" lon="-5.114667">
        <ele>1170.0</ele>
        <time>2013-06-30T13:15:29Z</time>
      </trkpt>
      <trkpt lat="40.183667" lon="-5.114583">
        <ele>1170.0</ele>
        <time>2013-06-30T13:15:30Z</time>
      </trkpt>
      <trkpt lat="40.183683" lon="-5.114500">
        <ele>1169.0</ele>
        <time>2013-06-30T13:15:31Z</time>
      </trkpt>
      <trkpt lat="40.183667" lon="-5.114417">
        <ele>1167.0</ele>
        <time>2013-06-30T13:15:32Z</time>
      </trkpt>
      <trkpt lat="40.183617" lon="-5.114350">
        <ele>1167.0</ele>
        <time>2013-06-30T13:15:33Z</time>
      </trkpt>
      <trkpt lat="40.183550" lon="-5.114317">
        <ele>1166.0</ele>
        <time>2013-06-30T13:15:34Z</time>
      </trkpt>
      <trkpt lat="40.183483" lon="-5.114317">
        <ele>1166.0</ele>
        <time>2013-06-30T13:15:35Z</time>
      </trkpt>
      <trkpt lat="40.183417" lon="-5.114350">
        <ele>1165.0</ele>
        <time>2013-06-30T13:15:36Z</time>
      </trkpt>
      <trkpt lat="40.183333" lon="-5.114383">
        <ele>1164.0</ele>
        <time>2013-06-30T13:15:37Z</time>
      </trkpt>
      <trkpt lat="40.183267" lon="-5.114400">
        <ele>1164.0</ele>
        <time>2013-06-30T13:15:38Z</time>
      </trkpt>
      <trkpt lat="40.183200" lon="-5.114417">
        <ele>1163.0</ele>
        <time>2013-06-30T13:15:39Z</time>
      </trkpt>
      <trkpt lat="40.183117" lon="-5.114450">
        <ele>1162.0</ele>
        <time>2013-06-30T13:15:40Z</time>
      </trkpt>
      <trkpt lat="40.183050" lon="-5.114483">
        <ele>1161.0</ele>
        <time>2013-06-30T13:15:41Z</time>
      </trkpt>
      <trkpt lat="40.182967" lon="-5.114550">
        <ele>1160.0</ele>
        <time>2013-06-30T13:15:42Z</time>
      </trkpt>
      <trkpt lat="40.182883" lon="-5.114617">
        <ele>1159.0</ele>
        <time>2013-06-30T13:15:43Z</time>
      </trkpt>
      <trkpt lat="40.182767" lon="-5.114783">
        <ele>1157.0</ele>
        <time>2013-06-30T13:15:45Z</time>
      </trkpt>
      <trkpt lat="40.182700" lon="-5.114867">
        <ele>1156.0</ele>
        <time>2013-06-30T13:15:46Z</time>
      </trkpt>
      <trkpt lat="40.182650" lon="-5.114933">
        <ele>1155.0</ele>
        <time>2013-06-30T13:15:47Z</time>
      </trkpt>
      <trkpt lat="40.182583" lon="-5.115017">
        <ele>1154.0</ele>
        <time>2013-06-30T13:15:48Z</time>
      </trkpt>
      <trkpt lat="40.182517" lon="-5.115117">
        <ele>1153.0</ele>
        <time>2013-06-30T13:15:49Z</time>
      </trkpt>
      <trkpt lat="40.182450" lon="-5.115200">
        <ele>1152.0</ele>
        <time>2013-06-30T13:15:50Z</time>
      </trkpt>
      <trkpt lat="40.182400" lon="-5.115283">
        <ele>1152.0</ele>
        <time>2013-06-30T13:15:51Z</time>
      </trkpt>
      <trkpt lat="40.182333" lon="-5.115367">
        <ele>1150.0</ele>
        <time>2013-06-30T13:15:52Z</time>
      </trkpt>
      <trkpt lat="40.182283" lon="-5.115450">
        <ele>1149.0</ele>
        <time>2013-06-30T13:15:53Z</time>
      </trkpt>
      <trkpt lat="40.182217" lon="-5.115533">
        <ele>1147.0</ele>
        <time>2013-06-30T13:15:54Z</time>
      </trkpt>
      <trkpt lat="40.182150" lon="-5.115617">
        <ele>1144.0</ele>
        <time>2013-06-30T13:15:55Z</time>
      </trkpt>
      <trkpt lat="40.182083" lon="-5.115717">
        <ele>1142.0</ele>
        <time>2013-06-30T13:15:56Z</time>
      </trkpt>
      <trkpt lat="40.182033" lon="-5.115817">
        <ele>1140.0</ele>
        <time>2013-06-30T13:15:57Z</time>
      </trkpt>
      <trkpt lat="40.181967" lon="-5.115917">
        <ele>1139.0</ele>
        <time>2013-06-30T13:15:58Z</time>
      </trkpt>
      <trkpt lat="40.181917" lon="-5.116017">
        <ele>1137.0</ele>
        <time>2013-06-30T13:15:59Z</time>
      </trkpt>
      <trkpt lat="40.181850" lon="-5.116117">
        <ele>1135.0</ele>
        <time>2013-06-30T13:16:00Z</time>
      </trkpt>
      <trkpt lat="40.181783" lon="-5.116200">
        <ele>1132.0</ele>
        <time>2013-06-30T13:16:01Z</time>
      </trkpt>
      <trkpt lat="40.181717" lon="-5.116283">
        <ele>1130.0</ele>
        <time>2013-06-30T13:16:02Z</time>
      </trkpt>
      <trkpt lat="40.181650" lon="-5.116383">
        <ele>1128.0</ele>
        <time>2013-06-30T13:16:03Z</time>
      </trkpt>
      <trkpt lat="40.181583" lon="-5.116467">
        <ele>1126.0</ele>
        <time>2013-06-30T13:16:04Z</time>
      </trkpt>
      <trkpt lat="40.181517" lon="-5.116567">
        <ele>1123.0</ele>
        <time>2013-06-30T13:16:05Z</time>
      </trkpt>
      <trkpt lat="40.181467" lon="-5.116650">
        <ele>1120.0</ele>
        <time>2013-06-30T13:16:06Z</time>
      </trkpt>
      <trkpt lat="40.181400" lon="-5.116750">
        <ele>1118.0</ele>
        <time>2013-06-30T13:16:07Z</time>
      </trkpt>
      <trkpt lat="40.181333" lon="-5.116850">
        <ele>1116.0</ele>
        <time>2013-06-30T13:16:08Z</time>
      </trkpt>
      <trkpt lat="40.181283" lon="-5.116950">
        <ele>1114.0</ele>
        <time>2013-06-30T13:16:09Z</time>
      </trkpt>
      <trkpt lat="40.181217" lon="-5.117033">
        <ele>1111.0</ele>
        <time>2013-06-30T13:16:10Z</time>
      </trkpt>
      <trkpt lat="40.181167" lon="-5.117133">
        <ele>1108.0</ele>
        <time>2013-06-30T13:16:11Z</time>
      </trkpt>
      <trkpt lat="40.181100" lon="-5.117217">
        <ele>1106.0</ele>
        <time>2013-06-30T13:16:12Z</time>
      </trkpt>
      <trkpt lat="40.181050" lon="-5.117300">
        <ele>1103.0</ele>
        <time>2013-06-30T13:16:13Z</time>
      </trkpt>
      <trkpt lat="40.180983" lon="-5.117383">
        <ele>1101.0</ele>
        <time>2013-06-30T13:16:14Z</time>
      </trkpt>
      <trkpt lat="40.180917" lon="-5.117467">
        <ele>1100.0</ele>
        <time>2013-06-30T13:16:15Z</time>
      </trkpt>
      <trkpt lat="40.180850" lon="-5.117533">
        <ele>1098.0</ele>
        <time>2013-06-30T13:16:16Z</time>
      </trkpt>
      <trkpt lat="40.180800" lon="-5.117600">
        <ele>1095.0</ele>
        <time>2013-06-30T13:16:17Z</time>
      </trkpt>
      <trkpt lat="40.180733" lon="-5.117667">
        <ele>1093.0</ele>
        <time>2013-06-30T13:16:18Z</time>
      </trkpt>
      <trkpt lat="40.180683" lon="-5.117717">
        <ele>1092.0</ele>
        <time>2013-06-30T13:16:19Z</time>
      </trkpt>
      <trkpt lat="40.180617" lon="-5.117783">
        <ele>1090.0</ele>
        <time>2013-06-30T13:16:20Z</time>
      </trkpt>
      <trkpt lat="40.180550" lon="-5.117833">
        <ele>1088.0</ele>
        <time>2013-06-30T13:16:21Z</time>
      </trkpt>
      <trkpt lat="40.180483" lon="-5.117900">
        <ele>1086.0</ele>
        <time>2013-06-30T13:16:22Z</time>
      </trkpt>
      <trkpt lat="40.180417" lon="-5.117950">
        <ele>1084.0</ele>
        <time>2013-06-30T13:16:23Z</time>
      </trkpt>
      <trkpt lat="40.180350" lon="-5.118017">
        <ele>1082.0</ele>
        <time>2013-06-30T13:16:24Z</time>
      </trkpt>
      <trkpt lat="40.180283" lon="-5.118067">
        <ele>1080.0</ele>
        <time>2013-06-30T13:16:25Z</time>
      </trkpt>
      <trkpt lat="40.180217" lon="-5.118117">
        <ele>1078.0</ele>
        <time>2013-06-30T13:16:26Z</time>
      </trkpt>
      <trkpt lat="40.180150" lon="-5.118167">
        <ele>1076.0</ele>
        <time>2013-06-30T13:16:27Z</time>
      </trkpt>
      <trkpt lat="40.180083" lon="-5.118217">
        <ele>1074.0</ele>
        <time>2013-06-30T13:16:28Z</time>
      </trkpt>
      <trkpt lat="40.180000" lon="-5.118283">
        <ele>1071.0</ele>
        <time>2013-06-30T13:16:29Z</time>
      </trkpt>
      <trkpt lat="40.179917" lon="-5.118333">
        <ele>1065.0</ele>
        <time>2013-06-30T13:16:30Z</time>
      </trkpt>
      <trkpt lat="40.179850" lon="-5.118383">
        <ele>1062.0</ele>
        <time>2013-06-30T13:16:31Z</time>
      </trkpt>
      <trkpt lat="40.179783" lon="-5.118450">
        <ele>1059.0</ele>
        <time>2013-06-30T13:16:32Z</time>
      </trkpt>
      <trkpt lat="40.179717" lon="-5.118500">
        <ele>1057.0</ele>
        <time>2013-06-30T13:16:33Z</time>
      </trkpt>
      <trkpt lat="40.179633" lon="-5.118567">
        <ele>1055.0</ele>
        <time>2013-06-30T13:16:34Z</time>
      </trkpt>
      <trkpt lat="40.179567" lon="-5.118617">
        <ele>1053.0</ele>
        <time>2013-06-30T13:16:35Z</time>
      </trkpt>
      <trkpt lat="40.179500" lon="-5.118667">
        <ele>1051.0</ele>
        <time>2013-06-30T13:16:36Z</time>
      </trkpt>
      <trkpt lat="40.179433" lon="-5.118717">
        <ele>1048.0</ele>
        <time>2013-06-30T13:16:37Z</time>
      </trkpt>
      <trkpt lat="40.179367" lon="-5.118767">
        <ele>1046.0</ele>
        <time>2013-06-30T13:16:38Z</time>
      </trkpt>
      <trkpt lat="40.179300" lon="-5.118817">
        <ele>1044.0</ele>
        <time>2013-06-30T13:16:39Z</time>
      </trkpt>
      <trkpt lat="40.179217" lon="-5.118867">
        <ele>1042.0</ele>
        <time>2013-06-30T13:16:40Z</time>
      </trkpt>
      <trkpt lat="40.179167" lon="-5.118900">
        <ele>1040.0</ele>
        <time>2013-06-30T13:16:41Z</time>
      </trkpt>
      <trkpt lat="40.179100" lon="-5.118967">
        <ele>1038.0</ele>
        <time>2013-06-30T13:16:42Z</time>
      </trkpt>
      <trkpt lat="40.179050" lon="-5.119017">
        <ele>1035.0</ele>
        <time>2013-06-30T13:16:43Z</time>
      </trkpt>
      <trkpt lat="40.178983" lon="-5.119083">
        <ele>1033.0</ele>
        <time>2013-06-30T13:16:44Z</time>
      </trkpt>
      <trkpt lat="40.178900" lon="-5.119150">
        <ele>1030.0</ele>
        <time>2013-06-30T13:16:45Z</time>
      </trkpt>
      <trkpt lat="40.178817" lon="-5.119200">
        <ele>1028.0</ele>
        <time>2013-06-30T13:16:46Z</time>
      </trkpt>
      <trkpt lat="40.178750" lon="-5.119267">
        <ele>1026.0</ele>
        <time>2013-06-30T13:16:47Z</time>
      </trkpt>
      <trkpt lat="40.178700" lon="-5.119317">
        <ele>1025.0</ele>
        <time>2013-06-30T13:16:48Z</time>
      </trkpt>
      <trkpt lat="40.178650" lon="-5.119367">
        <ele>1024.0</ele>
        <time>2013-06-30T13:16:49Z</time>
      </trkpt>
      <trkpt lat="40.178583" lon="-5.119417">
        <ele>1022.0</ele>
        <time>2013-06-30T13:16:50Z</time>
      </trkpt>
      <trkpt lat="40.178517" lon="-5.119467">
        <ele>1021.0</ele>
        <time>2013-06-30T13:16:51Z</time>
      </trkpt>
      <trkpt lat="40.178433" lon="-5.119517">
        <ele>1019.0</ele>
        <time>2013-06-30T13:16:52Z</time>
      </trkpt>
      <trkpt lat="40.178350" lon="-5.119583">
        <ele>1018.0</ele>
        <time>2013-06-30T13:16:53Z</time>
      </trkpt>
      <trkpt lat="40.178283" lon="-5.119650">
        <ele>1016.0</ele>
        <time>2013-06-30T13:16:54Z</time>
      </trkpt>
      <trkpt lat="40.178200" lon="-5.119700">
        <ele>1017.0</ele>
        <time>2013-06-30T13:16:55Z</time>
      </trkpt>
      <trkpt lat="40.178133" lon="-5.119767">
        <ele>1017.0</ele>
        <time>2013-06-30T13:16:56Z</time>
      </trkpt>
      <trkpt lat="40.178083" lon="-5.119817">
        <ele>1017.0</ele>
        <time>2013-06-30T13:16:57Z</time>
      </trkpt>
      <trkpt lat="40.178000" lon="-5.119867">
        <ele>1019.0</ele>
        <time>2013-06-30T13:16:58Z</time>
      </trkpt>
      <trkpt lat="40.177933" lon="-5.119917">
        <ele>1019.0</ele>
        <time>2013-06-30T13:16:59Z</time>
      </trkpt>
      <trkpt lat="40.177850" lon="-5.119967">
        <ele>1020.0</ele>
        <time>2013-06-30T13:17:00Z</time>
      </trkpt>
      <trkpt lat="40.177783" lon="-5.120017">
        <ele>1022.0</ele>
        <time>2013-06-30T13:17:01Z</time>
      </trkpt>
      <trkpt lat="40.177700" lon="-5.120083">
        <ele>1023.0</ele>
        <time>2013-06-30T13:17:02Z</time>
      </trkpt>
      <trkpt lat="40.177633" lon="-5.120150">
        <ele>1024.0</ele>
        <time>2013-06-30T13:17:03Z</time>
      </trkpt>
      <trkpt lat="40.177583" lon="-5.120233">
        <ele>1026.0</ele>
        <time>2013-06-30T13:17:04Z</time>
      </trkpt>
      <trkpt lat="40.177533" lon="-5.120367">
        <ele>1027.0</ele>
        <time>2013-06-30T13:17:05Z</time>
      </trkpt>
      <trkpt lat="40.177517" lon="-5.120550">
        <ele>1027.0</ele>
        <time>2013-06-30T13:17:06Z</time>
      </trkpt>
      <trkpt lat="40.177550" lon="-5.120717">
        <ele>1026.0</ele>
        <time>2013-06-30T13:17:07Z</time>
      </trkpt>
      <trkpt lat="40.177583" lon="-5.120883">
        <ele>1027.0</ele>
        <time>2013-06-30T13:17:08Z</time>
      </trkpt>
      <trkpt lat="40.177650" lon="-5.121000">
        <ele>1029.0</ele>
        <time>2013-06-30T13:17:09Z</time>
      </trkpt>
      <trkpt lat="40.177733" lon="-5.121100">
        <ele>1030.0</ele>
        <time>2013-06-30T13:17:10Z</time>
      </trkpt>
      <trkpt lat="40.177817" lon="-5.121183">
        <ele>1031.0</ele>
        <time>2013-06-30T13:17:11Z</time>
      </trkpt>
      <trkpt lat="40.177900" lon="-5.121233">
        <ele>1031.0</ele>
        <time>2013-06-30T13:17:12Z</time>
      </trkpt>
      <trkpt lat="40.177983" lon="-5.121267">
        <ele>1032.0</ele>
        <time>2013-06-30T13:17:13Z</time>
      </trkpt>
      <trkpt lat="40.178050" lon="-5.121250">
        <ele>1031.0</ele>
        <time>2013-06-30T13:17:14Z</time>
      </trkpt>
      <trkpt lat="40.178133" lon="-5.121233">
        <ele>1031.0</ele>
        <time>2013-06-30T13:17:15Z</time>
      </trkpt>
      <trkpt lat="40.178183" lon="-5.121200">
        <ele>1031.0</ele>
        <time>2013-06-30T13:17:16Z</time>
      </trkpt>
      <trkpt lat="40.178233" lon="-5.121150">
        <ele>1031.0</ele>
        <time>2013-06-30T13:17:17Z</time>
      </trkpt>
      <trkpt lat="40.178300" lon="-5.121033">
        <ele>1030.0</ele>
        <time>2013-06-30T13:17:19Z</time>
      </trkpt>
      <trkpt lat="40.178317" lon="-5.120967">
        <ele>1030.0</ele>
        <time>2013-06-30T13:17:20Z</time>
      </trkpt>
      <trkpt lat="40.178300" lon="-5.120900">
        <ele>1030.0</ele>
        <time>2013-06-30T13:17:21Z</time>
      </trkpt>
      <trkpt lat="40.178283" lon="-5.120833">
        <ele>1030.0</ele>
        <time>2013-06-30T13:17:22Z</time>
      </trkpt>
      <trkpt lat="40.178250" lon="-5.120783">
        <ele>1030.0</ele>
        <time>2013-06-30T13:17:23Z</time>
      </trkpt>
      <trkpt lat="40.178217" lon="-5.120717">
        <ele>1031.0</ele>
        <time>2013-06-30T13:17:24Z</time>
      </trkpt>
      <trkpt lat="40.178167" lon="-5.120667">
        <ele>1031.0</ele>
        <time>2013-06-30T13:17:25Z</time>
      </trkpt>
      <trkpt lat="40.178117" lon="-5.120617">
        <ele>1033.0</ele>
        <time>2013-06-30T13:17:26Z</time>
      </trkpt>
      <trkpt lat="40.178050" lon="-5.120600">
        <ele>1035.0</ele>
        <time>2013-06-30T13:17:27Z</time>
      </trkpt>
      <trkpt lat="40.178000" lon="-5.120600">
        <ele>1036.0</ele>
        <time>2013-06-30T13:17:28Z</time>
      </trkpt>
      <trkpt lat="40.177950" lon="-5.120600">
        <ele>1038.0</ele>
        <time>2013-06-30T13:17:29Z</time>
      </trkpt>
      <trkpt lat="40.177900" lon="-5.120600">
        <ele>1040.0</ele>
        <time>2013-06-30T13:17:30Z</time>
      </trkpt>
      <trkpt lat="40.177833" lon="-5.120600">
        <ele>1041.0</ele>
        <time>2013-06-30T13:17:31Z</time>
      </trkpt>
      <trkpt lat="40.177750" lon="-5.120633">
        <ele>1041.0</ele>
        <time>2013-06-30T13:17:32Z</time>
      </trkpt>
      <trkpt lat="40.177617" lon="-5.120767">
        <ele>1039.0</ele>
        <time>2013-06-30T13:17:34Z</time>
      </trkpt>
      <trkpt lat="40.177567" lon="-5.120867">
        <ele>1038.0</ele>
        <time>2013-06-30T13:17:35Z</time>
      </trkpt>
      <trkpt lat="40.177517" lon="-5.121000">
        <ele>1036.0</ele>
        <time>2013-06-30T13:17:36Z</time>
      </trkpt>
      <trkpt lat="40.177483" lon="-5.121133">
        <ele>1034.0</ele>
        <time>2013-06-30T13:17:37Z</time>
      </trkpt>
      <trkpt lat="40.177450" lon="-5.121267">
        <ele>1033.0</ele>
        <time>2013-06-30T13:17:38Z</time>
      </trkpt>
      <trkpt lat="40.177467" lon="-5.121417">
        <ele>1032.0</ele>
        <time>2013-06-30T13:17:39Z</time>
      </trkpt>
      <trkpt lat="40.177500" lon="-5.121550">
        <ele>1032.0</ele>
        <time>2013-06-30T13:17:40Z</time>
      </trkpt>
      <trkpt lat="40.177567" lon="-5.121667">
        <ele>1031.0</ele>
        <time>2013-06-30T13:17:41Z</time>
      </trkpt>
      <trkpt lat="40.177650" lon="-5.121767">
        <ele>1031.0</ele>
        <time>2013-06-30T13:17:42Z</time>
      </trkpt>
      <trkpt lat="40.177733" lon="-5.121833">
        <ele>1032.0</ele>
        <time>2013-06-30T13:17:43Z</time>
      </trkpt>
      <trkpt lat="40.177817" lon="-5.121883">
        <ele>1033.0</ele>
        <time>2013-06-30T13:17:44Z</time>
      </trkpt>
      <trkpt lat="40.177883" lon="-5.121917">
        <ele>1034.0</ele>
        <time>2013-06-30T13:17:45Z</time>
      </trkpt>
      <trkpt lat="40.177950" lon="-5.121933">
        <ele>1036.0</ele>
        <time>2013-06-30T13:17:46Z</time>
      </trkpt>
      <trkpt lat="40.178033" lon="-5.121950">
        <ele>1037.0</ele>
        <time>2013-06-30T13:17:47Z</time>
      </trkpt>
      <trkpt lat="40.178133" lon="-5.121933">
        <ele>1038.0</ele>
        <time>2013-06-30T13:17:48Z</time>
      </trkpt>
      <trkpt lat="40.178283" lon="-5.121850">
        <ele>1042.0</ele>
        <time>2013-06-30T13:17:50Z</time>
      </trkpt>
      <trkpt lat="40.178317" lon="-5.121783">
        <ele>1045.0</ele>
        <time>2013-06-30T13:17:51Z</time>
      </trkpt>
      <trkpt lat="40.178333" lon="-5.121717">
        <ele>1047.0</ele>
        <time>2013-06-30T13:17:52Z</time>
      </trkpt>
      <trkpt lat="40.178317" lon="-5.121583">
        <ele>1053.0</ele>
        <time>2013-06-30T13:17:54Z</time>
      </trkpt>
      <trkpt lat="40.178283" lon="-5.121533">
        <ele>1055.0</ele>
        <time>2013-06-30T13:17:55Z</time>
      </trkpt>
      <trkpt lat="40.178233" lon="-5.121500">
        <ele>1057.0</ele>
        <time>2013-06-30T13:17:56Z</time>
      </trkpt>
      <trkpt lat="40.178167" lon="-5.121467">
        <ele>1058.0</ele>
        <time>2013-06-30T13:17:57Z</time>
      </trkpt>
      <trkpt lat="40.178100" lon="-5.121467">
        <ele>1060.0</ele>
        <time>2013-06-30T13:17:58Z</time>
      </trkpt>
      <trkpt lat="40.178033" lon="-5.121500">
        <ele>1061.0</ele>
        <time>2013-06-30T13:17:59Z</time>
      </trkpt>
      <trkpt lat="40.177983" lon="-5.121567">
        <ele>1062.0</ele>
        <time>2013-06-30T13:18:00Z</time>
      </trkpt>
      <trkpt lat="40.177933" lon="-5.121650">
        <ele>1063.0</ele>
        <time>2013-06-30T13:18:01Z</time>
      </trkpt>
      <trkpt lat="40.177883" lon="-5.121750">
        <ele>1063.0</ele>
        <time>2013-06-30T13:18:02Z</time>
      </trkpt>
      <trkpt lat="40.177817" lon="-5.121867">
        <ele>1063.0</ele>
        <time>2013-06-30T13:18:03Z</time>
      </trkpt>
      <trkpt lat="40.177783" lon="-5.122000">
        <ele>1061.0</ele>
        <time>2013-06-30T13:18:04Z</time>
      </trkpt>
      <trkpt lat="40.177733" lon="-5.122133">
        <ele>1059.0</ele>
        <time>2013-06-30T13:18:05Z</time>
      </trkpt>
      <trkpt lat="40.177717" lon="-5.122267">
        <ele>1057.0</ele>
        <time>2013-06-30T13:18:06Z</time>
      </trkpt>
      <trkpt lat="40.177733" lon="-5.122383">
        <ele>1057.0</ele>
        <time>2013-06-30T13:18:07Z</time>
      </trkpt>
      <trkpt lat="40.177750" lon="-5.122517">
        <ele>1056.0</ele>
        <time>2013-06-30T13:18:08Z</time>
      </trkpt>
      <trkpt lat="40.177783" lon="-5.122633">
        <ele>1056.0</ele>
        <time>2013-06-30T13:18:09Z</time>
      </trkpt>
      <trkpt lat="40.177817" lon="-5.122767">
        <ele>1057.0</ele>
        <time>2013-06-30T13:18:10Z</time>
      </trkpt>
      <trkpt lat="40.177867" lon="-5.122867">
        <ele>1059.0</ele>
        <time>2013-06-30T13:18:11Z</time>
      </trkpt>
      <trkpt lat="40.177933" lon="-5.122933">
        <ele>1060.0</ele>
        <time>2013-06-30T13:18:12Z</time>
      </trkpt>
      <trkpt lat="40.178017" lon="-5.122983">
        <ele>1062.0</ele>
        <time>2013-06-30T13:18:13Z</time>
      </trkpt>
      <trkpt lat="40.178117" lon="-5.123017">
        <ele>1063.0</ele>
        <time>2013-06-30T13:18:14Z</time>
      </trkpt>
      <trkpt lat="40.178200" lon="-5.123033">
        <ele>1064.0</ele>
        <time>2013-06-30T13:18:15Z</time>
      </trkpt>
      <trkpt lat="40.178283" lon="-5.123033">
        <ele>1067.0</ele>
        <time>2013-06-30T13:18:16Z</time>
      </trkpt>
      <trkpt lat="40.178350" lon="-5.123000">
        <ele>1070.0</ele>
        <time>2013-06-30T13:18:17Z</time>
      </trkpt>
      <trkpt lat="40.178400" lon="-5.122950">
        <ele>1073.0</ele>
        <time>2013-06-30T13:18:18Z</time>
      </trkpt>
      <trkpt lat="40.178450" lon="-5.122900">
        <ele>1074.0</ele>
        <time>2013-06-30T13:18:19Z</time>
      </trkpt>
      <trkpt lat="40.178500" lon="-5.122850">
        <ele>1077.0</ele>
        <time>2013-06-30T13:18:20Z</time>
      </trkpt>
      <trkpt lat="40.178533" lon="-5.122800">
        <ele>1079.0</ele>
        <time>2013-06-30T13:18:21Z</time>
      </trkpt>
      <trkpt lat="40.178583" lon="-5.122600">
        <ele>1086.0</ele>
        <time>2013-06-30T13:18:24Z</time>
      </trkpt>
      <trkpt lat="40.178567" lon="-5.122533">
        <ele>1087.0</ele>
        <time>2013-06-30T13:18:25Z</time>
      </trkpt>
      <trkpt lat="40.178533" lon="-5.122467">
        <ele>1089.0</ele>
        <time>2013-06-30T13:18:26Z</time>
      </trkpt>
      <trkpt lat="40.178500" lon="-5.122417">
        <ele>1090.0</ele>
        <time>2013-06-30T13:18:27Z</time>
      </trkpt>
      <trkpt lat="40.178450" lon="-5.122367">
        <ele>1091.0</ele>
        <time>2013-06-30T13:18:28Z</time>
      </trkpt>
      <trkpt lat="40.178383" lon="-5.122333">
        <ele>1091.0</ele>
        <time>2013-06-30T13:18:29Z</time>
      </trkpt>
      <trkpt lat="40.178300" lon="-5.122317">
        <ele>1092.0</ele>
        <time>2013-06-30T13:18:30Z</time>
      </trkpt>
      <trkpt lat="40.178217" lon="-5.122333">
        <ele>1092.0</ele>
        <time>2013-06-30T13:18:31Z</time>
      </trkpt>
      <trkpt lat="40.178150" lon="-5.122367">
        <ele>1092.0</ele>
        <time>2013-06-30T13:18:32Z</time>
      </trkpt>
      <trkpt lat="40.178083" lon="-5.122450">
        <ele>1091.0</ele>
        <time>2013-06-30T13:18:33Z</time>
      </trkpt>
      <trkpt lat="40.178017" lon="-5.122533">
        <ele>1088.0</ele>
        <time>2013-06-30T13:18:34Z</time>
      </trkpt>
      <trkpt lat="40.177950" lon="-5.122600">
        <ele>1087.0</ele>
        <time>2013-06-30T13:18:35Z</time>
      </trkpt>
      <trkpt lat="40.177883" lon="-5.122667">
        <ele>1085.0</ele>
        <time>2013-06-30T13:18:36Z</time>
      </trkpt>
      <trkpt lat="40.177833" lon="-5.122750">
        <ele>1084.0</ele>
        <time>2013-06-30T13:18:37Z</time>
      </trkpt>
      <trkpt lat="40.177783" lon="-5.122850">
        <ele>1082.0</ele>
        <time>2013-06-30T13:18:38Z</time>
      </trkpt>
      <trkpt lat="40.177717" lon="-5.122950">
        <ele>1079.0</ele>
        <time>2013-06-30T13:18:39Z</time>
      </trkpt>
      <trkpt lat="40.177667" lon="-5.123067">
        <ele>1075.0</ele>
        <time>2013-06-30T13:18:40Z</time>
      </trkpt>
      <trkpt lat="40.177633" lon="-5.123183">
        <ele>1071.0</ele>
        <time>2013-06-30T13:18:41Z</time>
      </trkpt>
      <trkpt lat="40.177633" lon="-5.123317">
        <ele>1068.0</ele>
        <time>2013-06-30T13:18:42Z</time>
      </trkpt>
      <trkpt lat="40.177667" lon="-5.123433">
        <ele>1064.0</ele>
        <time>2013-06-30T13:18:43Z</time>
      </trkpt>
      <trkpt lat="40.177700" lon="-5.123567">
        <ele>1061.0</ele>
        <time>2013-06-30T13:18:44Z</time>
      </trkpt>
      <trkpt lat="40.177750" lon="-5.123700">
        <ele>1059.0</ele>
        <time>2013-06-30T13:18:45Z</time>
      </trkpt>
      <trkpt lat="40.177783" lon="-5.123817">
        <ele>1058.0</ele>
        <time>2013-06-30T13:18:46Z</time>
      </trkpt>
      <trkpt lat="40.177850" lon="-5.123917">
        <ele>1058.0</ele>
        <time>2013-06-30T13:18:47Z</time>
      </trkpt>
      <trkpt lat="40.177917" lon="-5.124000">
        <ele>1057.0</ele>
        <time>2013-06-30T13:18:48Z</time>
      </trkpt>
      <trkpt lat="40.178000" lon="-5.124067">
        <ele>1056.0</ele>
        <time>2013-06-30T13:18:49Z</time>
      </trkpt>
      <trkpt lat="40.178100" lon="-5.124133">
        <ele>1056.0</ele>
        <time>2013-06-30T13:18:50Z</time>
      </trkpt>
      <trkpt lat="40.178183" lon="-5.124167">
        <ele>1056.0</ele>
        <time>2013-06-30T13:18:51Z</time>
      </trkpt>
      <trkpt lat="40.178267" lon="-5.124183">
        <ele>1057.0</ele>
        <time>2013-06-30T13:18:52Z</time>
      </trkpt>
      <trkpt lat="40.178367" lon="-5.124183">
        <ele>1059.0</ele>
        <time>2013-06-30T13:18:53Z</time>
      </trkpt>
      <trkpt lat="40.178433" lon="-5.124183">
        <ele>1061.0</ele>
        <time>2013-06-30T13:18:54Z</time>
      </trkpt>
      <trkpt lat="40.178500" lon="-5.124167">
        <ele>1063.0</ele>
        <time>2013-06-30T13:18:55Z</time>
      </trkpt>
      <trkpt lat="40.178550" lon="-5.124133">
        <ele>1065.0</ele>
        <time>2013-06-30T13:18:56Z</time>
      </trkpt>
      <trkpt lat="40.178600" lon="-5.124100">
        <ele>1067.0</ele>
        <time>2013-06-30T13:18:57Z</time>
      </trkpt>
      <trkpt lat="40.178667" lon="-5.124067">
        <ele>1068.0</ele>
        <time>2013-06-30T13:18:58Z</time>
      </trkpt>
      <trkpt lat="40.178733" lon="-5.124017">
        <ele>1069.0</ele>
        <time>2013-06-30T13:18:59Z</time>
      </trkpt>
      <trkpt lat="40.178783" lon="-5.123967">
        <ele>1072.0</ele>
        <time>2013-06-30T13:19:00Z</time>
      </trkpt>
      <trkpt lat="40.178817" lon="-5.123933">
        <ele>1074.0</ele>
        <time>2013-06-30T13:19:01Z</time>
      </trkpt>
      <trkpt lat="40.178867" lon="-5.123900">
        <ele>1077.0</ele>
        <time>2013-06-30T13:19:02Z</time>
      </trkpt>
      <trkpt lat="40.178900" lon="-5.123867">
        <ele>1079.0</ele>
        <time>2013-06-30T13:19:03Z</time>
      </trkpt>
      <trkpt lat="40.178950" lon="-5.123833">
        <ele>1080.0</ele>
        <time>2013-06-30T13:19:04Z</time>
      </trkpt>
      <trkpt lat="40.178983" lon="-5.123783">
        <ele>1082.0</ele>
        <time>2013-06-30T13:19:05Z</time>
      </trkpt>
      <trkpt lat="40.179033" lon="-5.123733">
        <ele>1083.0</ele>
        <time>2013-06-30T13:19:06Z</time>
      </trkpt>
      <trkpt lat="40.179067" lon="-5.123683">
        <ele>1085.0</ele>
        <time>2013-06-30T13:19:07Z</time>
      </trkpt>
      <trkpt lat="40.179083" lon="-5.123633">
        <ele>1087.0</ele>
        <time>2013-06-30T13:19:08Z</time>
      </trkpt>
      <trkpt lat="40.179117" lon="-5.123567">
        <ele>1088.0</ele>
        <time>2013-06-30T13:19:09Z</time>
      </trkpt>
      <trkpt lat="40.179133" lon="-5.123500">
        <ele>1090.0</ele>
        <time>2013-06-30T13:19:10Z</time>
      </trkpt>
      <trkpt lat="40.179133" lon="-5.123317">
        <ele>1091.0</ele>
        <time>2013-06-30T13:19:12Z</time>
      </trkpt>
      <trkpt lat="40.179100" lon="-5.123233">
        <ele>1093.0</ele>
        <time>2013-06-30T13:19:13Z</time>
      </trkpt>
      <trkpt lat="40.179033" lon="-5.123167">
        <ele>1094.0</ele>
        <time>2013-06-30T13:19:14Z</time>
      </trkpt>
      <trkpt lat="40.178950" lon="-5.123133">
        <ele>1094.0</ele>
        <time>2013-06-30T13:19:15Z</time>
      </trkpt>
      <trkpt lat="40.178883" lon="-5.123117">
        <ele>1095.0</ele>
        <time>2013-06-30T13:19:16Z</time>
      </trkpt>
      <trkpt lat="40.178817" lon="-5.123117">
        <ele>1095.0</ele>
        <time>2013-06-30T13:19:17Z</time>
      </trkpt>
      <trkpt lat="40.178750" lon="-5.123150">
        <ele>1094.0</ele>
        <time>2013-06-30T13:19:18Z</time>
      </trkpt>
      <trkpt lat="40.178683" lon="-5.123167">
        <ele>1093.0</ele>
        <time>2013-06-30T13:19:19Z</time>
      </trkpt>
      <trkpt lat="40.178600" lon="-5.123233">
        <ele>1092.0</ele>
        <time>2013-06-30T13:19:20Z</time>
      </trkpt>
      <trkpt lat="40.178533" lon="-5.123317">
        <ele>1089.0</ele>
        <time>2013-06-30T13:19:21Z</time>
      </trkpt>
      <trkpt lat="40.178483" lon="-5.123400">
        <ele>1087.0</ele>
        <time>2013-06-30T13:19:22Z</time>
      </trkpt>
      <trkpt lat="40.178450" lon="-5.123517">
        <ele>1085.0</ele>
        <time>2013-06-30T13:19:23Z</time>
      </trkpt>
      <trkpt lat="40.178433" lon="-5.123633">
        <ele>1081.0</ele>
        <time>2013-06-30T13:19:24Z</time>
      </trkpt>
      <trkpt lat="40.178417" lon="-5.123750">
        <ele>1078.0</ele>
        <time>2013-06-30T13:19:25Z</time>
      </trkpt>
      <trkpt lat="40.178400" lon="-5.123883">
        <ele>1076.0</ele>
        <time>2013-06-30T13:19:26Z</time>
      </trkpt>
      <trkpt lat="40.178367" lon="-5.124033">
        <ele>1073.0</ele>
        <time>2013-06-30T13:19:27Z</time>
      </trkpt>
      <trkpt lat="40.178367" lon="-5.124183">
        <ele>1070.0</ele>
        <time>2013-06-30T13:19:28Z</time>
      </trkpt>
      <trkpt lat="40.178367" lon="-5.124333">
        <ele>1068.0</ele>
        <time>2013-06-30T13:19:29Z</time>
      </trkpt>
      <trkpt lat="40.178367" lon="-5.124483">
        <ele>1065.0</ele>
        <time>2013-06-30T13:19:30Z</time>
      </trkpt>
      <trkpt lat="40.178350" lon="-5.124617">
        <ele>1064.0</ele>
        <time>2013-06-30T13:19:31Z</time>
      </trkpt>
      <trkpt lat="40.178333" lon="-5.124750">
        <ele>1062.0</ele>
        <time>2013-06-30T13:19:32Z</time>
      </trkpt>
      <trkpt lat="40.178317" lon="-5.124883">
        <ele>1060.0</ele>
        <time>2013-06-30T13:19:33Z</time>
      </trkpt>
      <trkpt lat="40.178317" lon="-5.125033">
        <ele>1057.0</ele>
        <time>2013-06-30T13:19:34Z</time>
      </trkpt>
      <trkpt lat="40.178333" lon="-5.125200">
        <ele>1054.0</ele>
        <time>2013-06-30T13:19:35Z</time>
      </trkpt>
      <trkpt lat="40.178350" lon="-5.125367">
        <ele>1052.0</ele>
        <time>2013-06-30T13:19:36Z</time>
      </trkpt>
      <trkpt lat="40.178350" lon="-5.125550">
        <ele>1051.0</ele>
        <time>2013-06-30T13:19:37Z</time>
      </trkpt>
      <trkpt lat="40.178367" lon="-5.125700">
        <ele>1051.0</ele>
        <time>2013-06-30T13:19:38Z</time>
      </trkpt>
      <trkpt lat="40.178400" lon="-5.125833">
        <ele>1050.0</ele>
        <time>2013-06-30T13:19:39Z</time>
      </trkpt>
      <trkpt lat="40.178433" lon="-5.125983">
        <ele>1050.0</ele>
        <time>2013-06-30T13:19:40Z</time>
      </trkpt>
      <trkpt lat="40.178500" lon="-5.126133">
        <ele>1048.0</ele>
        <time>2013-06-30T13:19:41Z</time>
      </trkpt>
      <trkpt lat="40.178567" lon="-5.126283">
        <ele>1047.0</ele>
        <time>2013-06-30T13:19:42Z</time>
      </trkpt>
      <trkpt lat="40.178633" lon="-5.126417">
        <ele>1050.0</ele>
        <time>2013-06-30T13:19:43Z</time>
      </trkpt>
      <trkpt lat="40.178683" lon="-5.126550">
        <ele>1053.0</ele>
        <time>2013-06-30T13:19:44Z</time>
      </trkpt>
      <trkpt lat="40.178733" lon="-5.126650">
        <ele>1055.0</ele>
        <time>2013-06-30T13:19:45Z</time>
      </trkpt>
      <trkpt lat="40.178783" lon="-5.126767">
        <ele>1056.0</ele>
        <time>2013-06-30T13:19:46Z</time>
      </trkpt>
      <trkpt lat="40.178850" lon="-5.126883">
        <ele>1057.0</ele>
        <time>2013-06-30T13:19:47Z</time>
      </trkpt>
      <trkpt lat="40.178933" lon="-5.127000">
        <ele>1056.0</ele>
        <time>2013-06-30T13:19:48Z</time>
      </trkpt>
      <trkpt lat="40.179000" lon="-5.127083">
        <ele>1057.0</ele>
        <time>2013-06-30T13:19:49Z</time>
      </trkpt>
      <trkpt lat="40.179067" lon="-5.127150">
        <ele>1057.0</ele>
        <time>2013-06-30T13:19:50Z</time>
      </trkpt>
      <trkpt lat="40.179133" lon="-5.127233">
        <ele>1057.0</ele>
        <time>2013-06-30T13:19:51Z</time>
      </trkpt>
      <trkpt lat="40.179233" lon="-5.127283">
        <ele>1056.0</ele>
        <time>2013-06-30T13:19:52Z</time>
      </trkpt>
      <trkpt lat="40.179333" lon="-5.127317">
        <ele>1053.0</ele>
        <time>2013-06-30T13:19:53Z</time>
      </trkpt>
      <trkpt lat="40.179433" lon="-5.127333">
        <ele>1051.0</ele>
        <time>2013-06-30T13:19:54Z</time>
      </trkpt>
      <trkpt lat="40.179533" lon="-5.127350">
        <ele>1048.0</ele>
        <time>2013-06-30T13:19:55Z</time>
      </trkpt>
      <trkpt lat="40.179633" lon="-5.127333">
        <ele>1047.0</ele>
        <time>2013-06-30T13:19:56Z</time>
      </trkpt>
      <trkpt lat="40.179717" lon="-5.127317">
        <ele>1046.0</ele>
        <time>2013-06-30T13:19:57Z</time>
      </trkpt>
      <trkpt lat="40.179800" lon="-5.127283">
        <ele>1045.0</ele>
        <time>2013-06-30T13:19:58Z</time>
      </trkpt>
      <trkpt lat="40.179883" lon="-5.127250">
        <ele>1044.0</ele>
        <time>2013-06-30T13:19:59Z</time>
      </trkpt>
      <trkpt lat="40.179967" lon="-5.127200">
        <ele>1043.0</ele>
        <time>2013-06-30T13:20:00Z</time>
      </trkpt>
      <trkpt lat="40.180033" lon="-5.127150">
        <ele>1043.0</ele>
        <time>2013-06-30T13:20:01Z</time>
      </trkpt>
      <trkpt lat="40.180117" lon="-5.127083">
        <ele>1041.0</ele>
        <time>2013-06-30T13:20:02Z</time>
      </trkpt>
      <trkpt lat="40.180183" lon="-5.127000">
        <ele>1040.0</ele>
        <time>2013-06-30T13:20:03Z</time>
      </trkpt>
      <trkpt lat="40.180250" lon="-5.126917">
        <ele>1039.0</ele>
        <time>2013-06-30T13:20:04Z</time>
      </trkpt>
      <trkpt lat="40.180300" lon="-5.126833">
        <ele>1039.0</ele>
        <time>2013-06-30T13:20:05Z</time>
      </trkpt>
      <trkpt lat="40.180333" lon="-5.126767">
        <ele>1040.0</ele>
        <time>2013-06-30T13:20:06Z</time>
      </trkpt>
      <trkpt lat="40.180367" lon="-5.126650">
        <ele>1041.0</ele>
        <time>2013-06-30T13:20:08Z</time>
      </trkpt>
      <trkpt lat="40.180367" lon="-5.126567">
        <ele>1041.0</ele>
        <time>2013-06-30T13:20:09Z</time>
      </trkpt>
      <trkpt lat="40.180367" lon="-5.126383">
        <ele>1041.0</ele>
        <time>2013-06-30T13:20:11Z</time>
      </trkpt>
      <trkpt lat="40.180350" lon="-5.126317">
        <ele>1042.0</ele>
        <time>2013-06-30T13:20:12Z</time>
      </trkpt>
      <trkpt lat="40.180333" lon="-5.126250">
        <ele>1043.0</ele>
        <time>2013-06-30T13:20:13Z</time>
      </trkpt>
      <trkpt lat="40.180333" lon="-5.126183">
        <ele>1045.0</ele>
        <time>2013-06-30T13:20:14Z</time>
      </trkpt>
      <trkpt lat="40.180317" lon="-5.126117">
        <ele>1046.0</ele>
        <time>2013-06-30T13:20:15Z</time>
      </trkpt>
      <trkpt lat="40.180300" lon="-5.126067">
        <ele>1048.0</ele>
        <time>2013-06-30T13:20:16Z</time>
      </trkpt>
      <trkpt lat="40.180267" lon="-5.126033">
        <ele>1050.0</ele>
        <time>2013-06-30T13:20:17Z</time>
      </trkpt>
      <trkpt lat="40.180217" lon="-5.126017">
        <ele>1052.0</ele>
        <time>2013-06-30T13:20:18Z</time>
      </trkpt>
      <trkpt lat="40.180167" lon="-5.126017">
        <ele>1054.0</ele>
        <time>2013-06-30T13:20:19Z</time>
      </trkpt>
      <trkpt lat="40.180117" lon="-5.126033">
        <ele>1057.0</ele>
        <time>2013-06-30T13:20:20Z</time>
      </trkpt>
      <trkpt lat="40.180067" lon="-5.126067">
        <ele>1060.0</ele>
        <time>2013-06-30T13:20:21Z</time>
      </trkpt>
      <trkpt lat="40.180017" lon="-5.126117">
        <ele>1063.0</ele>
        <time>2013-06-30T13:20:22Z</time>
      </trkpt>
      <trkpt lat="40.179983" lon="-5.126200">
        <ele>1067.0</ele>
        <time>2013-06-30T13:20:23Z</time>
      </trkpt>
      <trkpt lat="40.179950" lon="-5.126300">
        <ele>1069.0</ele>
        <time>2013-06-30T13:20:24Z</time>
      </trkpt>
      <trkpt lat="40.179950" lon="-5.126417">
        <ele>1072.0</ele>
        <time>2013-06-30T13:20:25Z</time>
      </trkpt>
      <trkpt lat="40.179967" lon="-5.126533">
        <ele>1075.0</ele>
        <time>2013-06-30T13:20:26Z</time>
      </trkpt>
      <trkpt lat="40.179983" lon="-5.126650">
        <ele>1079.0</ele>
        <time>2013-06-30T13:20:27Z</time>
      </trkpt>
      <trkpt lat="40.180017" lon="-5.126783">
        <ele>1081.0</ele>
        <time>2013-06-30T13:20:28Z</time>
      </trkpt>
      <trkpt lat="40.180050" lon="-5.126917">
        <ele>1083.0</ele>
        <time>2013-06-30T13:20:29Z</time>
      </trkpt>
      <trkpt lat="40.180100" lon="-5.127033">
        <ele>1085.0</ele>
        <time>2013-06-30T13:20:30Z</time>
      </trkpt>
      <trkpt lat="40.180167" lon="-5.127133">
        <ele>1087.0</ele>
        <time>2013-06-30T13:20:31Z</time>
      </trkpt>
      <trkpt lat="40.180250" lon="-5.127217">
        <ele>1088.0</ele>
        <time>2013-06-30T13:20:32Z</time>
      </trkpt>
      <trkpt lat="40.180350" lon="-5.127317">
        <ele>1090.0</ele>
        <time>2013-06-30T13:20:33Z</time>
      </trkpt>
      <trkpt lat="40.180450" lon="-5.127383">
        <ele>1091.0</ele>
        <time>2013-06-30T13:20:34Z</time>
      </trkpt>
      <trkpt lat="40.180550" lon="-5.127450">
        <ele>1093.0</ele>
        <time>2013-06-30T13:20:35Z</time>
      </trkpt>
      <trkpt lat="40.180650" lon="-5.127483">
        <ele>1095.0</ele>
        <time>2013-06-30T13:20:36Z</time>
      </trkpt>
      <trkpt lat="40.180750" lon="-5.127467">
        <ele>1097.0</ele>
        <time>2013-06-30T13:20:37Z</time>
      </trkpt>
      <trkpt lat="40.180833" lon="-5.127450">
        <ele>1098.0</ele>
        <time>2013-06-30T13:20:38Z</time>
      </trkpt>
      <trkpt lat="40.180933" lon="-5.127433">
        <ele>1098.0</ele>
        <time>2013-06-30T13:20:39Z</time>
      </trkpt>
      <trkpt lat="40.181033" lon="-5.127417">
        <ele>1099.0</ele>
        <time>2013-06-30T13:20:40Z</time>
      </trkpt>
      <trkpt lat="40.181117" lon="-5.127383">
        <ele>1099.0</ele>
        <time>2013-06-30T13:20:41Z</time>
      </trkpt>
      <trkpt lat="40.181200" lon="-5.127350">
        <ele>1100.0</ele>
        <time>2013-06-30T13:20:42Z</time>
      </trkpt>
      <trkpt lat="40.181267" lon="-5.127300">
        <ele>1101.0</ele>
        <time>2013-06-30T13:20:43Z</time>
      </trkpt>
      <trkpt lat="40.181333" lon="-5.127250">
        <ele>1102.0</ele>
        <time>2013-06-30T13:20:44Z</time>
      </trkpt>
      <trkpt lat="40.181383" lon="-5.127183">
        <ele>1104.0</ele>
        <time>2013-06-30T13:20:45Z</time>
      </trkpt>
      <trkpt lat="40.181433" lon="-5.127117">
        <ele>1105.0</ele>
        <time>2013-06-30T13:20:46Z</time>
      </trkpt>
      <trkpt lat="40.181433" lon="-5.127050">
        <ele>1107.0</ele>
        <time>2013-06-30T13:20:47Z</time>
      </trkpt>
      <trkpt lat="40.181433" lon="-5.126967">
        <ele>1108.0</ele>
        <time>2013-06-30T13:20:48Z</time>
      </trkpt>
      <trkpt lat="40.181400" lon="-5.126900">
        <ele>1109.0</ele>
        <time>2013-06-30T13:20:49Z</time>
      </trkpt>
      <trkpt lat="40.181350" lon="-5.126833">
        <ele>1111.0</ele>
        <time>2013-06-30T13:20:50Z</time>
      </trkpt>
      <trkpt lat="40.181300" lon="-5.126800">
        <ele>1114.0</ele>
        <time>2013-06-30T13:20:51Z</time>
      </trkpt>
      <trkpt lat="40.181267" lon="-5.126783">
        <ele>1117.0</ele>
        <time>2013-06-30T13:20:52Z</time>
      </trkpt>
      <trkpt lat="40.181233" lon="-5.126783">
        <ele>1120.0</ele>
        <time>2013-06-30T13:20:53Z</time>
      </trkpt>
      <trkpt lat="40.181183" lon="-5.126783">
        <ele>1122.0</ele>
        <time>2013-06-30T13:20:54Z</time>
      </trkpt>
      <trkpt lat="40.181133" lon="-5.126817">
        <ele>1125.0</ele>
        <time>2013-06-30T13:20:55Z</time>
      </trkpt>
      <trkpt lat="40.181100" lon="-5.126850">
        <ele>1127.0</ele>
        <time>2013-06-30T13:20:56Z</time>
      </trkpt>
      <trkpt lat="40.181067" lon="-5.126917">
        <ele>1130.0</ele>
        <time>2013-06-30T13:20:57Z</time>
      </trkpt>
      <trkpt lat="40.181017" lon="-5.127000">
        <ele>1132.0</ele>
        <time>2013-06-30T13:20:58Z</time>
      </trkpt>
      <trkpt lat="40.180983" lon="-5.127083">
        <ele>1134.0</ele>
        <time>2013-06-30T13:20:59Z</time>
      </trkpt>
      <trkpt lat="40.180917" lon="-5.127167">
        <ele>1135.0</ele>
        <time>2013-06-30T13:21:00Z</time>
      </trkpt>
      <trkpt lat="40.180867" lon="-5.127217">
        <ele>1137.0</ele>
        <time>2013-06-30T13:21:01Z</time>
      </trkpt>
      <trkpt lat="40.180817" lon="-5.127283">
        <ele>1140.0</ele>
        <time>2013-06-30T13:21:02Z</time>
      </trkpt>
      <trkpt lat="40.180767" lon="-5.127367">
        <ele>1142.0</ele>
        <time>2013-06-30T13:21:03Z</time>
      </trkpt>
      <trkpt lat="40.180717" lon="-5.127450">
        <ele>1145.0</ele>
        <time>2013-06-30T13:21:04Z</time>
      </trkpt>
      <trkpt lat="40.180683" lon="-5.127533">
        <ele>1147.0</ele>
        <time>2013-06-30T13:21:05Z</time>
      </trkpt>
      <trkpt lat="40.180667" lon="-5.127650">
        <ele>1150.0</ele>
        <time>2013-06-30T13:21:06Z</time>
      </trkpt>
      <trkpt lat="40.180650" lon="-5.127783">
        <ele>1153.0</ele>
        <time>2013-06-30T13:21:07Z</time>
      </trkpt>
      <trkpt lat="40.180667" lon="-5.127917">
        <ele>1155.0</ele>
        <time>2013-06-30T13:21:08Z</time>
      </trkpt>
      <trkpt lat="40.180717" lon="-5.128067">
        <ele>1155.0</ele>
        <time>2013-06-30T13:21:09Z</time>
      </trkpt>
      <trkpt lat="40.180783" lon="-5.128167">
        <ele>1157.0</ele>
        <time>2013-06-30T13:21:10Z</time>
      </trkpt>
      <trkpt lat="40.180867" lon="-5.128233">
        <ele>1157.0</ele>
        <time>2013-06-30T13:21:11Z</time>
      </trkpt>
      <trkpt lat="40.180950" lon="-5.128267">
        <ele>1158.0</ele>
        <time>2013-06-30T13:21:12Z</time>
      </trkpt>
      <trkpt lat="40.181050" lon="-5.128300">
        <ele>1159.0</ele>
        <time>2013-06-30T13:21:13Z</time>
      </trkpt>
      <trkpt lat="40.181133" lon="-5.128317">
        <ele>1160.0</ele>
        <time>2013-06-30T13:21:14Z</time>
      </trkpt>
      <trkpt lat="40.181233" lon="-5.128317">
        <ele>1160.0</ele>
        <time>2013-06-30T13:21:15Z</time>
      </trkpt>
      <trkpt lat="40.181317" lon="-5.128283">
        <ele>1161.0</ele>
        <time>2013-06-30T13:21:16Z</time>
      </trkpt>
      <trkpt lat="40.181400" lon="-5.128217">
        <ele>1161.0</ele>
        <time>2013-06-30T13:21:17Z</time>
      </trkpt>
      <trkpt lat="40.181483" lon="-5.128150">
        <ele>1161.0</ele>
        <time>2013-06-30T13:21:18Z</time>
      </trkpt>
      <trkpt lat="40.181550" lon="-5.128067">
        <ele>1162.0</ele>
        <time>2013-06-30T13:21:19Z</time>
      </trkpt>
      <trkpt lat="40.181600" lon="-5.127983">
        <ele>1164.0</ele>
        <time>2013-06-30T13:21:20Z</time>
      </trkpt>
      <trkpt lat="40.181633" lon="-5.127917">
        <ele>1165.0</ele>
        <time>2013-06-30T13:21:21Z</time>
      </trkpt>
      <trkpt lat="40.181667" lon="-5.127767">
        <ele>1169.0</ele>
        <time>2013-06-30T13:21:23Z</time>
      </trkpt>
      <trkpt lat="40.181667" lon="-5.127683">
        <ele>1171.0</ele>
        <time>2013-06-30T13:21:24Z</time>
      </trkpt>
      <trkpt lat="40.181650" lon="-5.127617">
        <ele>1173.0</ele>
        <time>2013-06-30T13:21:25Z</time>
      </trkpt>
      <trkpt lat="40.181633" lon="-5.127567">
        <ele>1175.0</ele>
        <time>2013-06-30T13:21:26Z</time>
      </trkpt>
      <trkpt lat="40.181617" lon="-5.127550">
        <ele>1176.0</ele>
        <time>2013-06-30T13:21:27Z</time>
      </trkpt>
      <trkpt lat="40.181600" lon="-5.127517">
        <ele>1176.0</ele>
        <time>2013-06-30T13:21:28Z</time>
      </trkpt>
      <trkpt lat="40.181583" lon="-5.127467">
        <ele>1176.0</ele>
        <time>2013-06-30T13:21:29Z</time>
      </trkpt>
      <trkpt lat="40.181533" lon="-5.127433">
        <ele>1175.0</ele>
        <time>2013-06-30T13:21:30Z</time>
      </trkpt>
      <trkpt lat="40.181500" lon="-5.127400">
        <ele>1173.0</ele>
        <time>2013-06-30T13:21:31Z</time>
      </trkpt>
      <trkpt lat="40.181433" lon="-5.127417">
        <ele>1171.0</ele>
        <time>2013-06-30T13:21:32Z</time>
      </trkpt>
      <trkpt lat="40.181367" lon="-5.127467">
        <ele>1170.0</ele>
        <time>2013-06-30T13:21:33Z</time>
      </trkpt>
      <trkpt lat="40.181317" lon="-5.127533">
        <ele>1167.0</ele>
        <time>2013-06-30T13:21:34Z</time>
      </trkpt>
      <trkpt lat="40.181267" lon="-5.127617">
        <ele>1164.0</ele>
        <time>2013-06-30T13:21:35Z</time>
      </trkpt>
      <trkpt lat="40.181217" lon="-5.127700">
        <ele>1164.0</ele>
        <time>2013-06-30T13:21:36Z</time>
      </trkpt>
      <trkpt lat="40.181183" lon="-5.127783">
        <ele>1163.0</ele>
        <time>2013-06-30T13:21:37Z</time>
      </trkpt>
      <trkpt lat="40.181150" lon="-5.127883">
        <ele>1162.0</ele>
        <time>2013-06-30T13:21:38Z</time>
      </trkpt>
      <trkpt lat="40.181083" lon="-5.128150">
        <ele>1160.0</ele>
        <time>2013-06-30T13:21:40Z</time>
      </trkpt>
      <trkpt lat="40.181050" lon="-5.128267">
        <ele>1160.0</ele>
        <time>2013-06-30T13:21:41Z</time>
      </trkpt>
      <trkpt lat="40.181033" lon="-5.128367">
        <ele>1163.0</ele>
        <time>2013-06-30T13:21:42Z</time>
      </trkpt>
      <trkpt lat="40.181017" lon="-5.128467">
        <ele>1166.0</ele>
        <time>2013-06-30T13:21:43Z</time>
      </trkpt>
      <trkpt lat="40.181017" lon="-5.128567">
        <ele>1168.0</ele>
        <time>2013-06-30T13:21:44Z</time>
      </trkpt>
      <trkpt lat="40.181000" lon="-5.128683">
        <ele>1168.0</ele>
        <time>2013-06-30T13:21:45Z</time>
      </trkpt>
      <trkpt lat="40.180983" lon="-5.128817">
        <ele>1169.0</ele>
        <time>2013-06-30T13:21:46Z</time>
      </trkpt>
      <trkpt lat="40.180950" lon="-5.128950">
        <ele>1169.0</ele>
        <time>2013-06-30T13:21:47Z</time>
      </trkpt>
      <trkpt lat="40.180900" lon="-5.129083">
        <ele>1170.0</ele>
        <time>2013-06-30T13:21:48Z</time>
      </trkpt>
      <trkpt lat="40.180850" lon="-5.129217">
        <ele>1170.0</ele>
        <time>2013-06-30T13:21:49Z</time>
      </trkpt>
      <trkpt lat="40.180800" lon="-5.129333">
        <ele>1171.0</ele>
        <time>2013-06-30T13:21:50Z</time>
      </trkpt>
      <trkpt lat="40.180783" lon="-5.129467">
        <ele>1172.0</ele>
        <time>2013-06-30T13:21:51Z</time>
      </trkpt>
      <trkpt lat="40.180767" lon="-5.129600">
        <ele>1171.0</ele>
        <time>2013-06-30T13:21:52Z</time>
      </trkpt>
      <trkpt lat="40.180750" lon="-5.129733">
        <ele>1170.0</ele>
        <time>2013-06-30T13:21:53Z</time>
      </trkpt>
      <trkpt lat="40.180733" lon="-5.129883">
        <ele>1169.0</ele>
        <time>2013-06-30T13:21:54Z</time>
      </trkpt>
      <trkpt lat="40.180717" lon="-5.130033">
        <ele>1168.0</ele>
        <time>2013-06-30T13:21:55Z</time>
      </trkpt>
      <trkpt lat="40.180700" lon="-5.130167">
        <ele>1167.0</ele>
        <time>2013-06-30T13:21:56Z</time>
      </trkpt>
      <trkpt lat="40.180667" lon="-5.130317">
        <ele>1168.0</ele>
        <time>2013-06-30T13:21:57Z</time>
      </trkpt>
      <trkpt lat="40.180650" lon="-5.130417">
        <ele>1169.0</ele>
        <time>2013-06-30T13:21:58Z</time>
      </trkpt>
      <trkpt lat="40.180633" lon="-5.130517">
        <ele>1171.0</ele>
        <time>2013-06-30T13:21:59Z</time>
      </trkpt>
      <trkpt lat="40.180617" lon="-5.130600">
        <ele>1173.0</ele>
        <time>2013-06-30T13:22:00Z</time>
      </trkpt>
      <trkpt lat="40.180617" lon="-5.130700">
        <ele>1174.0</ele>
        <time>2013-06-30T13:22:01Z</time>
      </trkpt>
      <trkpt lat="40.180583" lon="-5.130817">
        <ele>1175.0</ele>
        <time>2013-06-30T13:22:02Z</time>
      </trkpt>
      <trkpt lat="40.180567" lon="-5.130950">
        <ele>1176.0</ele>
        <time>2013-06-30T13:22:03Z</time>
      </trkpt>
      <trkpt lat="40.180567" lon="-5.131083">
        <ele>1177.0</ele>
        <time>2013-06-30T13:22:04Z</time>
      </trkpt>
      <trkpt lat="40.180617" lon="-5.131217">
        <ele>1178.0</ele>
        <time>2013-06-30T13:22:05Z</time>
      </trkpt>
      <trkpt lat="40.180667" lon="-5.131350">
        <ele>1179.0</ele>
        <time>2013-06-30T13:22:06Z</time>
      </trkpt>
      <trkpt lat="40.180750" lon="-5.131433">
        <ele>1179.0</ele>
        <time>2013-06-30T13:22:07Z</time>
      </trkpt>
      <trkpt lat="40.180833" lon="-5.131517">
        <ele>1180.0</ele>
        <time>2013-06-30T13:22:08Z</time>
      </trkpt>
      <trkpt lat="40.180900" lon="-5.131567">
        <ele>1181.0</ele>
        <time>2013-06-30T13:22:09Z</time>
      </trkpt>
      <trkpt lat="40.181000" lon="-5.131583">
        <ele>1181.0</ele>
        <time>2013-06-30T13:22:10Z</time>
      </trkpt>
      <trkpt lat="40.181083" lon="-5.131600">
        <ele>1181.0</ele>
        <time>2013-06-30T13:22:11Z</time>
      </trkpt>
      <trkpt lat="40.181183" lon="-5.131583">
        <ele>1181.0</ele>
        <time>2013-06-30T13:22:12Z</time>
      </trkpt>
      <trkpt lat="40.181283" lon="-5.131533">
        <ele>1181.0</ele>
        <time>2013-06-30T13:22:13Z</time>
      </trkpt>
      <trkpt lat="40.181350" lon="-5.131483">
        <ele>1181.0</ele>
        <time>2013-06-30T13:22:14Z</time>
      </trkpt>
      <trkpt lat="40.181417" lon="-5.131417">
        <ele>1181.0</ele>
        <time>2013-06-30T13:22:15Z</time>
      </trkpt>
      <trkpt lat="40.181450" lon="-5.131350">
        <ele>1182.0</ele>
        <time>2013-06-30T13:22:16Z</time>
      </trkpt>
      <trkpt lat="40.181500" lon="-5.131300">
        <ele>1183.0</ele>
        <time>2013-06-30T13:22:17Z</time>
      </trkpt>
      <trkpt lat="40.181533" lon="-5.131217">
        <ele>1183.0</ele>
        <time>2013-06-30T13:22:18Z</time>
      </trkpt>
      <trkpt lat="40.181583" lon="-5.131133">
        <ele>1183.0</ele>
        <time>2013-06-30T13:22:19Z</time>
      </trkpt>
      <trkpt lat="40.181633" lon="-5.131033">
        <ele>1183.0</ele>
        <time>2013-06-30T13:22:20Z</time>
      </trkpt>
      <trkpt lat="40.181667" lon="-5.130950">
        <ele>1184.0</ele>
        <time>2013-06-30T13:22:21Z</time>
      </trkpt>
      <trkpt lat="40.181683" lon="-5.130883">
        <ele>1186.0</ele>
        <time>2013-06-30T13:22:22Z</time>
      </trkpt>
      <trkpt lat="40.181700" lon="-5.130817">
        <ele>1188.0</ele>
        <time>2013-06-30T13:22:23Z</time>
      </trkpt>
      <trkpt lat="40.181717" lon="-5.130750">
        <ele>1189.0</ele>
        <time>2013-06-30T13:22:24Z</time>
      </trkpt>
      <trkpt lat="40.181733" lon="-5.130700">
        <ele>1190.0</ele>
        <time>2013-06-30T13:22:25Z</time>
      </trkpt>
      <trkpt lat="40.181783" lon="-5.130550">
        <ele>1189.0</ele>
        <time>2013-06-30T13:22:27Z</time>
      </trkpt>
      <trkpt lat="40.181767" lon="-5.130450">
        <ele>1188.0</ele>
        <time>2013-06-30T13:22:28Z</time>
      </trkpt>
      <trkpt lat="40.181767" lon="-5.130350">
        <ele>1186.0</ele>
        <time>2013-06-30T13:22:29Z</time>
      </trkpt>
      <trkpt lat="40.181733" lon="-5.130283">
        <ele>1186.0</ele>
        <time>2013-06-30T13:22:30Z</time>
      </trkpt>
      <trkpt lat="40.181717" lon="-5.130250">
        <ele>1186.0</ele>
        <time>2013-06-30T13:22:31Z</time>
      </trkpt>
      <trkpt lat="40.181717" lon="-5.130233">
        <ele>1187.0</ele>
        <time>2013-06-30T13:22:32Z</time>
      </trkpt>
      <trkpt lat="40.181733" lon="-5.130200">
        <ele>1188.0</ele>
        <time>2013-06-30T13:22:33Z</time>
      </trkpt>
      <trkpt lat="40.181717" lon="-5.130150">
        <ele>1188.0</ele>
        <time>2013-06-30T13:22:34Z</time>
      </trkpt>
      <trkpt lat="40.181683" lon="-5.130100">
        <ele>1187.0</ele>
        <time>2013-06-30T13:22:35Z</time>
      </trkpt>
      <trkpt lat="40.181633" lon="-5.130050">
        <ele>1187.0</ele>
        <time>2013-06-30T13:22:36Z</time>
      </trkpt>
      <trkpt lat="40.181500" lon="-5.130033">
        <ele>1188.0</ele>
        <time>2013-06-30T13:22:38Z</time>
      </trkpt>
      <trkpt lat="40.181450" lon="-5.130050">
        <ele>1190.0</ele>
        <time>2013-06-30T13:22:39Z</time>
      </trkpt>
      <trkpt lat="40.181433" lon="-5.130067">
        <ele>1192.0</ele>
        <time>2013-06-30T13:22:40Z</time>
      </trkpt>
      <trkpt lat="40.181400" lon="-5.130083">
        <ele>1194.0</ele>
        <time>2013-06-30T13:22:41Z</time>
      </trkpt>
      <trkpt lat="40.181333" lon="-5.130083">
        <ele>1195.0</ele>
        <time>2013-06-30T13:22:42Z</time>
      </trkpt>
      <trkpt lat="40.181250" lon="-5.130083">
        <ele>1196.0</ele>
        <time>2013-06-30T13:22:43Z</time>
      </trkpt>
      <trkpt lat="40.181183" lon="-5.130100">
        <ele>1198.0</ele>
        <time>2013-06-30T13:22:44Z</time>
      </trkpt>
      <trkpt lat="40.181133" lon="-5.130133">
        <ele>1200.0</ele>
        <time>2013-06-30T13:22:45Z</time>
      </trkpt>
      <trkpt lat="40.181100" lon="-5.130167">
        <ele>1204.0</ele>
        <time>2013-06-30T13:22:46Z</time>
      </trkpt>
      <trkpt lat="40.181050" lon="-5.130200">
        <ele>1206.0</ele>
        <time>2013-06-30T13:22:47Z</time>
      </trkpt>
      <trkpt lat="40.181000" lon="-5.130233">
        <ele>1209.0</ele>
        <time>2013-06-30T13:22:48Z</time>
      </trkpt>
      <trkpt lat="40.180950" lon="-5.130283">
        <ele>1211.0</ele>
        <time>2013-06-30T13:22:49Z</time>
      </trkpt>
      <trkpt lat="40.180900" lon="-5.130350">
        <ele>1212.0</ele>
        <time>2013-06-30T13:22:50Z</time>
      </trkpt>
      <trkpt lat="40.180850" lon="-5.130450">
        <ele>1213.0</ele>
        <time>2013-06-30T13:22:51Z</time>
      </trkpt>
      <trkpt lat="40.180833" lon="-5.130567">
        <ele>1215.0</ele>
        <time>2013-06-30T13:22:52Z</time>
      </trkpt>
      <trkpt lat="40.180817" lon="-5.130683">
        <ele>1216.0</ele>
        <time>2013-06-30T13:22:53Z</time>
      </trkpt>
      <trkpt lat="40.180817" lon="-5.130800">
        <ele>1219.0</ele>
        <time>2013-06-30T13:22:54Z</time>
      </trkpt>
      <trkpt lat="40.180867" lon="-5.131050">
        <ele>1225.0</ele>
        <time>2013-06-30T13:22:56Z</time>
      </trkpt>
      <trkpt lat="40.180900" lon="-5.131183">
        <ele>1227.0</ele>
        <time>2013-06-30T13:22:57Z</time>
      </trkpt>
      <trkpt lat="40.180950" lon="-5.131317">
        <ele>1228.0</ele>
        <time>2013-06-30T13:22:58Z</time>
      </trkpt>
      <trkpt lat="40.181017" lon="-5.131417">
        <ele>1229.0</ele>
        <time>2013-06-30T13:22:59Z</time>
      </trkpt>
      <trkpt lat="40.181100" lon="-5.131483">
        <ele>1230.0</ele>
        <time>2013-06-30T13:23:00Z</time>
      </trkpt>
      <trkpt lat="40.181183" lon="-5.131550">
        <ele>1232.0</ele>
        <time>2013-06-30T13:23:01Z</time>
      </trkpt>
      <trkpt lat="40.181283" lon="-5.131583">
        <ele>1233.0</ele>
        <time>2013-06-30T13:23:02Z</time>
      </trkpt>
      <trkpt lat="40.181367" lon="-5.131617">
        <ele>1235.0</ele>
        <time>2013-06-30T13:23:03Z</time>
      </trkpt>
      <trkpt lat="40.181450" lon="-5.131633">
        <ele>1235.0</ele>
        <time>2013-06-30T13:23:04Z</time>
      </trkpt>
      <trkpt lat="40.181517" lon="-5.131650">
        <ele>1236.0</ele>
        <time>2013-06-30T13:23:05Z</time>
      </trkpt>
      <trkpt lat="40.181600" lon="-5.131650">
        <ele>1235.0</ele>
        <time>2013-06-30T13:23:06Z</time>
      </trkpt>
      <trkpt lat="40.181683" lon="-5.131633">
        <ele>1234.0</ele>
        <time>2013-06-30T13:23:07Z</time>
      </trkpt>
      <trkpt lat="40.181767" lon="-5.131600">
        <ele>1233.0</ele>
        <time>2013-06-30T13:23:08Z</time>
      </trkpt>
      <trkpt lat="40.181833" lon="-5.131550">
        <ele>1233.0</ele>
        <time>2013-06-30T13:23:09Z</time>
      </trkpt>
      <trkpt lat="40.181900" lon="-5.131517">
        <ele>1232.0</ele>
        <time>2013-06-30T13:23:10Z</time>
      </trkpt>
      <trkpt lat="40.181967" lon="-5.131483">
        <ele>1233.0</ele>
        <time>2013-06-30T13:23:11Z</time>
      </trkpt>
      <trkpt lat="40.182017" lon="-5.131450">
        <ele>1233.0</ele>
        <time>2013-06-30T13:23:12Z</time>
      </trkpt>
      <trkpt lat="40.182083" lon="-5.131400">
        <ele>1233.0</ele>
        <time>2013-06-30T13:23:13Z</time>
      </trkpt>
      <trkpt lat="40.182150" lon="-5.131333">
        <ele>1232.0</ele>
        <time>2013-06-30T13:23:14Z</time>
      </trkpt>
      <trkpt lat="40.182200" lon="-5.131250">
        <ele>1231.0</ele>
        <time>2013-06-30T13:23:15Z</time>
      </trkpt>
      <trkpt lat="40.182233" lon="-5.131167">
        <ele>1231.0</ele>
        <time>2013-06-30T13:23:16Z</time>
      </trkpt>
      <trkpt lat="40.182283" lon="-5.131083">
        <ele>1231.0</ele>
        <time>2013-06-30T13:23:17Z</time>
      </trkpt>
      <trkpt lat="40.182300" lon="-5.131000">
        <ele>1232.0</ele>
        <time>2013-06-30T13:23:18Z</time>
      </trkpt>
      <trkpt lat="40.182333" lon="-5.130917">
        <ele>1234.0</ele>
        <time>2013-06-30T13:23:19Z</time>
      </trkpt>
      <trkpt lat="40.182350" lon="-5.130817">
        <ele>1235.0</ele>
        <time>2013-06-30T13:23:20Z</time>
      </trkpt>
      <trkpt lat="40.182367" lon="-5.130717">
        <ele>1236.0</ele>
        <time>2013-06-30T13:23:21Z</time>
      </trkpt>
      <trkpt lat="40.182383" lon="-5.130550">
        <ele>1239.0</ele>
        <time>2013-06-30T13:23:23Z</time>
      </trkpt>
      <trkpt lat="40.182383" lon="-5.130467">
        <ele>1242.0</ele>
        <time>2013-06-30T13:23:24Z</time>
      </trkpt>
      <trkpt lat="40.182350" lon="-5.130400">
        <ele>1244.0</ele>
        <time>2013-06-30T13:23:25Z</time>
      </trkpt>
      <trkpt lat="40.182317" lon="-5.130333">
        <ele>1246.0</ele>
        <time>2013-06-30T13:23:26Z</time>
      </trkpt>
      <trkpt lat="40.182283" lon="-5.130267">
        <ele>1248.0</ele>
        <time>2013-06-30T13:23:27Z</time>
      </trkpt>
      <trkpt lat="40.182233" lon="-5.130200">
        <ele>1250.0</ele>
        <time>2013-06-30T13:23:28Z</time>
      </trkpt>
      <trkpt lat="40.182200" lon="-5.130133">
        <ele>1252.0</ele>
        <time>2013-06-30T13:23:29Z</time>
      </trkpt>
      <trkpt lat="40.182183" lon="-5.130100">
        <ele>1256.0</ele>
        <time>2013-06-30T13:23:30Z</time>
      </trkpt>
      <trkpt lat="40.182150" lon="-5.130067">
        <ele>1258.0</ele>
        <time>2013-06-30T13:23:31Z</time>
      </trkpt>
      <trkpt lat="40.182100" lon="-5.130050">
        <ele>1261.0</ele>
        <time>2013-06-30T13:23:32Z</time>
      </trkpt>
      <trkpt lat="40.182050" lon="-5.130017">
        <ele>1262.0</ele>
        <time>2013-06-30T13:23:33Z</time>
      </trkpt>
      <trkpt lat="40.181983" lon="-5.130000">
        <ele>1263.0</ele>
        <time>2013-06-30T13:23:34Z</time>
      </trkpt>
      <trkpt lat="40.181933" lon="-5.130000">
        <ele>1265.0</ele>
        <time>2013-06-30T13:23:35Z</time>
      </trkpt>
      <trkpt lat="40.181883" lon="-5.130000">
        <ele>1266.0</ele>
        <time>2013-06-30T13:23:36Z</time>
      </trkpt>
      <trkpt lat="40.181817" lon="-5.130033">
        <ele>1267.0</ele>
        <time>2013-06-30T13:23:37Z</time>
      </trkpt>
      <trkpt lat="40.181750" lon="-5.130117">
        <ele>1267.0</ele>
        <time>2013-06-30T13:23:38Z</time>
      </trkpt>
      <trkpt lat="40.181700" lon="-5.130200">
        <ele>1266.0</ele>
        <time>2013-06-30T13:23:39Z</time>
      </trkpt>
      <trkpt lat="40.181650" lon="-5.130283">
        <ele>1267.0</ele>
        <time>2013-06-30T13:23:40Z</time>
      </trkpt>
      <trkpt lat="40.181617" lon="-5.130350">
        <ele>1268.0</ele>
        <time>2013-06-30T13:23:41Z</time>
      </trkpt>
      <trkpt lat="40.181583" lon="-5.130433">
        <ele>1269.0</ele>
        <time>2013-06-30T13:23:42Z</time>
      </trkpt>
      <trkpt lat="40.181533" lon="-5.130533">
        <ele>1270.0</ele>
        <time>2013-06-30T13:23:43Z</time>
      </trkpt>
      <trkpt lat="40.181483" lon="-5.130667">
        <ele>1270.0</ele>
        <time>2013-06-30T13:23:44Z</time>
      </trkpt>
      <trkpt lat="40.181433" lon="-5.130783">
        <ele>1270.0</ele>
        <time>2013-06-30T13:23:45Z</time>
      </trkpt>
      <trkpt lat="40.181383" lon="-5.130917">
        <ele>1271.0</ele>
        <time>2013-06-30T13:23:46Z</time>
      </trkpt>
      <trkpt lat="40.181350" lon="-5.131033">
        <ele>1273.0</ele>
        <time>2013-06-30T13:23:47Z</time>
      </trkpt>
      <trkpt lat="40.181317" lon="-5.131133">
        <ele>1274.0</ele>
        <time>2013-06-30T13:23:48Z</time>
      </trkpt>
      <trkpt lat="40.181300" lon="-5.131233">
        <ele>1276.0</ele>
        <time>2013-06-30T13:23:49Z</time>
      </trkpt>
      <trkpt lat="40.181283" lon="-5.131367">
        <ele>1276.0</ele>
        <time>2013-06-30T13:23:50Z</time>
      </trkpt>
      <trkpt lat="40.181300" lon="-5.131533">
        <ele>1275.0</ele>
        <time>2013-06-30T13:23:51Z</time>
      </trkpt>
      <trkpt lat="40.181333" lon="-5.131700">
        <ele>1274.0</ele>
        <time>2013-06-30T13:23:52Z</time>
      </trkpt>
      <trkpt lat="40.181383" lon="-5.131833">
        <ele>1275.0</ele>
        <time>2013-06-30T13:23:53Z</time>
      </trkpt>
      <trkpt lat="40.181467" lon="-5.131933">
        <ele>1278.0</ele>
        <time>2013-06-30T13:23:54Z</time>
      </trkpt>
      <trkpt lat="40.181550" lon="-5.132000">
        <ele>1282.0</ele>
        <time>2013-06-30T13:23:55Z</time>
      </trkpt>
      <trkpt lat="40.181633" lon="-5.132033">
        <ele>1286.0</ele>
        <time>2013-06-30T13:23:56Z</time>
      </trkpt>
      <trkpt lat="40.181717" lon="-5.132050">
        <ele>1289.0</ele>
        <time>2013-06-30T13:23:57Z</time>
      </trkpt>
      <trkpt lat="40.181817" lon="-5.132083">
        <ele>1291.0</ele>
        <time>2013-06-30T13:23:58Z</time>
      </trkpt>
      <trkpt lat="40.181933" lon="-5.132117">
        <ele>1293.0</ele>
        <time>2013-06-30T13:23:59Z</time>
      </trkpt>
      <trkpt lat="40.182033" lon="-5.132150">
        <ele>1296.0</ele>
        <time>2013-06-30T13:24:00Z</time>
      </trkpt>
      <trkpt lat="40.182133" lon="-5.132167">
        <ele>1299.0</ele>
        <time>2013-06-30T13:24:01Z</time>
      </trkpt>
      <trkpt lat="40.182233" lon="-5.132150">
        <ele>1302.0</ele>
        <time>2013-06-30T13:24:02Z</time>
      </trkpt>
      <trkpt lat="40.182400" lon="-5.132050">
        <ele>1306.0</ele>
        <time>2013-06-30T13:24:04Z</time>
      </trkpt>
      <trkpt lat="40.182450" lon="-5.132000">
        <ele>1309.0</ele>
        <time>2013-06-30T13:24:05Z</time>
      </trkpt>
      <trkpt lat="40.182500" lon="-5.131933">
        <ele>1312.0</ele>
        <time>2013-06-30T13:24:06Z</time>
      </trkpt>
      <trkpt lat="40.182533" lon="-5.131867">
        <ele>1315.0</ele>
        <time>2013-06-30T13:24:07Z</time>
      </trkpt>
      <trkpt lat="40.182567" lon="-5.131783">
        <ele>1317.0</ele>
        <time>2013-06-30T13:24:08Z</time>
      </trkpt>
      <trkpt lat="40.182583" lon="-5.131700">
        <ele>1320.0</ele>
        <time>2013-06-30T13:24:09Z</time>
      </trkpt>
      <trkpt lat="40.182633" lon="-5.131533">
        <ele>1325.0</ele>
        <time>2013-06-30T13:24:11Z</time>
      </trkpt>
      <trkpt lat="40.182633" lon="-5.131433">
        <ele>1326.0</ele>
        <time>2013-06-30T13:24:12Z</time>
      </trkpt>
      <trkpt lat="40.182633" lon="-5.131317">
        <ele>1328.0</ele>
        <time>2013-06-30T13:24:13Z</time>
      </trkpt>
      <trkpt lat="40.182633" lon="-5.131200">
        <ele>1330.0</ele>
        <time>2013-06-30T13:24:14Z</time>
      </trkpt>
      <trkpt lat="40.182633" lon="-5.131100">
        <ele>1333.0</ele>
        <time>2013-06-30T13:24:15Z</time>
      </trkpt>
      <trkpt lat="40.182600" lon="-5.131033">
        <ele>1336.0</ele>
        <time>2013-06-30T13:24:16Z</time>
      </trkpt>
      <trkpt lat="40.182583" lon="-5.130983">
        <ele>1340.0</ele>
        <time>2013-06-30T13:24:17Z</time>
      </trkpt>
      <trkpt lat="40.182550" lon="-5.130933">
        <ele>1343.0</ele>
        <time>2013-06-30T13:24:18Z</time>
      </trkpt>
      <trkpt lat="40.182533" lon="-5.130883">
        <ele>1345.0</ele>
        <time>2013-06-30T13:24:19Z</time>
      </trkpt>
      <trkpt lat="40.182500" lon="-5.130833">
        <ele>1347.0</ele>
        <time>2013-06-30T13:24:20Z</time>
      </trkpt>
      <trkpt lat="40.182450" lon="-5.130767">
        <ele>1347.0</ele>
        <time>2013-06-30T13:24:21Z</time>
      </trkpt>
      <trkpt lat="40.182400" lon="-5.130700">
        <ele>1346.0</ele>
        <time>2013-06-30T13:24:22Z</time>
      </trkpt>
      <trkpt lat="40.182333" lon="-5.130683">
        <ele>1346.0</ele>
        <time>2013-06-30T13:24:23Z</time>
      </trkpt>
      <trkpt lat="40.182267" lon="-5.130717">
        <ele>1344.0</ele>
        <time>2013-06-30T13:24:24Z</time>
      </trkpt>
      <trkpt lat="40.182217" lon="-5.130750">
        <ele>1341.0</ele>
        <time>2013-06-30T13:24:25Z</time>
      </trkpt>
      <trkpt lat="40.182183" lon="-5.130800">
        <ele>1339.0</ele>
        <time>2013-06-30T13:24:26Z</time>
      </trkpt>
      <trkpt lat="40.182150" lon="-5.130850">
        <ele>1338.0</ele>
        <time>2013-06-30T13:24:27Z</time>
      </trkpt>
      <trkpt lat="40.182100" lon="-5.130900">
        <ele>1337.0</ele>
        <time>2013-06-30T13:24:28Z</time>
      </trkpt>
      <trkpt lat="40.182067" lon="-5.130950">
        <ele>1336.0</ele>
        <time>2013-06-30T13:24:29Z</time>
      </trkpt>
      <trkpt lat="40.182000" lon="-5.131017">
        <ele>1334.0</ele>
        <time>2013-06-30T13:24:30Z</time>
      </trkpt>
      <trkpt lat="40.181950" lon="-5.131100">
        <ele>1331.0</ele>
        <time>2013-06-30T13:24:31Z</time>
      </trkpt>
      <trkpt lat="40.181900" lon="-5.131183">
        <ele>1330.0</ele>
        <time>2013-06-30T13:24:32Z</time>
      </trkpt>
      <trkpt lat="40.181850" lon="-5.131267">
        <ele>1328.0</ele>
        <time>2013-06-30T13:24:33Z</time>
      </trkpt>
      <trkpt lat="40.181817" lon="-5.131350">
        <ele>1327.0</ele>
        <time>2013-06-30T13:24:34Z</time>
      </trkpt>
      <trkpt lat="40.181767" lon="-5.131433">
        <ele>1326.0</ele>
        <time>2013-06-30T13:24:35Z</time>
      </trkpt>
      <trkpt lat="40.181733" lon="-5.131533">
        <ele>1325.0</ele>
        <time>2013-06-30T13:24:36Z</time>
      </trkpt>
      <trkpt lat="40.181683" lon="-5.131633">
        <ele>1324.0</ele>
        <time>2013-06-30T13:24:37Z</time>
      </trkpt>
      <trkpt lat="40.181633" lon="-5.131750">
        <ele>1322.0</ele>
        <time>2013-06-30T13:24:38Z</time>
      </trkpt>
      <trkpt lat="40.181600" lon="-5.131867">
        <ele>1322.0</ele>
        <time>2013-06-30T13:24:39Z</time>
      </trkpt>
      <trkpt lat="40.181567" lon="-5.131983">
        <ele>1323.0</ele>
        <time>2013-06-30T13:24:40Z</time>
      </trkpt>
      <trkpt lat="40.181533" lon="-5.132100">
        <ele>1324.0</ele>
        <time>2013-06-30T13:24:41Z</time>
      </trkpt>
      <trkpt lat="40.181500" lon="-5.132200">
        <ele>1326.0</ele>
        <time>2013-06-30T13:24:42Z</time>
      </trkpt>
      <trkpt lat="40.181467" lon="-5.132300">
        <ele>1327.0</ele>
        <time>2013-06-30T13:24:43Z</time>
      </trkpt>
      <trkpt lat="40.181433" lon="-5.132383">
        <ele>1328.0</ele>
        <time>2013-06-30T13:24:44Z</time>
      </trkpt>
      <trkpt lat="40.181400" lon="-5.132483">
        <ele>1328.0</ele>
        <time>2013-06-30T13:24:45Z</time>
      </trkpt>
      <trkpt lat="40.181350" lon="-5.132600">
        <ele>1329.0</ele>
        <time>2013-06-30T13:24:46Z</time>
      </trkpt>
      <trkpt lat="40.181317" lon="-5.132717">
        <ele>1330.0</ele>
        <time>2013-06-30T13:24:47Z</time>
      </trkpt>
      <trkpt lat="40.181283" lon="-5.132817">
        <ele>1332.0</ele>
        <time>2013-06-30T13:24:48Z</time>
      </trkpt>
      <trkpt lat="40.181233" lon="-5.132933">
        <ele>1333.0</ele>
        <time>2013-06-30T13:24:49Z</time>
      </trkpt>
      <trkpt lat="40.181200" lon="-5.133033">
        <ele>1335.0</ele>
        <time>2013-06-30T13:24:50Z</time>
      </trkpt>
      <trkpt lat="40.181183" lon="-5.133150">
        <ele>1338.0</ele>
        <time>2013-06-30T13:24:51Z</time>
      </trkpt>
      <trkpt lat="40.181200" lon="-5.133300">
        <ele>1340.0</ele>
        <time>2013-06-30T13:24:52Z</time>
      </trkpt>
      <trkpt lat="40.181233" lon="-5.133433">
        <ele>1341.0</ele>
        <time>2013-06-30T13:24:53Z</time>
      </trkpt>
      <trkpt lat="40.181300" lon="-5.133550">
        <ele>1342.0</ele>
        <time>2013-06-30T13:24:54Z</time>
      </trkpt>
      <trkpt lat="40.181383" lon="-5.133617">
        <ele>1343.0</ele>
        <time>2013-06-30T13:24:55Z</time>
      </trkpt>
      <trkpt lat="40.181483" lon="-5.133650">
        <ele>1343.0</ele>
        <time>2013-06-30T13:24:56Z</time>
      </trkpt>
      <trkpt lat="40.181567" lon="-5.133633">
        <ele>1344.0</ele>
        <time>2013-06-30T13:24:57Z</time>
      </trkpt>
      <trkpt lat="40.181650" lon="-5.133600">
        <ele>1344.0</ele>
        <time>2013-06-30T13:24:58Z</time>
      </trkpt>
      <trkpt lat="40.181733" lon="-5.133567">
        <ele>1346.0</ele>
        <time>2013-06-30T13:24:59Z</time>
      </trkpt>
      <trkpt lat="40.181800" lon="-5.133517">
        <ele>1347.0</ele>
        <time>2013-06-30T13:25:00Z</time>
      </trkpt>
      <trkpt lat="40.181850" lon="-5.133450">
        <ele>1348.0</ele>
        <time>2013-06-30T13:25:01Z</time>
      </trkpt>
      <trkpt lat="40.181900" lon="-5.133383">
        <ele>1350.0</ele>
        <time>2013-06-30T13:25:02Z</time>
      </trkpt>
      <trkpt lat="40.181933" lon="-5.133333">
        <ele>1352.0</ele>
        <time>2013-06-30T13:25:03Z</time>
      </trkpt>
      <trkpt lat="40.181950" lon="-5.133267">
        <ele>1354.0</ele>
        <time>2013-06-30T13:25:04Z</time>
      </trkpt>
      <trkpt lat="40.181967" lon="-5.133200">
        <ele>1355.0</ele>
        <time>2013-06-30T13:25:05Z</time>
      </trkpt>
      <trkpt lat="40.181983" lon="-5.133117">
        <ele>1356.0</ele>
        <time>2013-06-30T13:25:06Z</time>
      </trkpt>
      <trkpt lat="40.181983" lon="-5.133017">
        <ele>1358.0</ele>
        <time>2013-06-30T13:25:07Z</time>
      </trkpt>
      <trkpt lat="40.181983" lon="-5.132933">
        <ele>1361.0</ele>
        <time>2013-06-30T13:25:08Z</time>
      </trkpt>
      <trkpt lat="40.182000" lon="-5.132867">
        <ele>1365.0</ele>
        <time>2013-06-30T13:25:09Z</time>
      </trkpt>
      <trkpt lat="40.182000" lon="-5.132817">
        <ele>1368.0</ele>
        <time>2013-06-30T13:25:10Z</time>
      </trkpt>
      <trkpt lat="40.181983" lon="-5.132767">
        <ele>1370.0</ele>
        <time>2013-06-30T13:25:11Z</time>
      </trkpt>
      <trkpt lat="40.181983" lon="-5.132700">
        <ele>1372.0</ele>
        <time>2013-06-30T13:25:12Z</time>
      </trkpt>
      <trkpt lat="40.181950" lon="-5.132650">
        <ele>1372.0</ele>
        <time>2013-06-30T13:25:13Z</time>
      </trkpt>
      <trkpt lat="40.181900" lon="-5.132583">
        <ele>1372.0</ele>
        <time>2013-06-30T13:25:14Z</time>
      </trkpt>
      <trkpt lat="40.181850" lon="-5.132550">
        <ele>1373.0</ele>
        <time>2013-06-30T13:25:15Z</time>
      </trkpt>
      <trkpt lat="40.181783" lon="-5.132517">
        <ele>1373.0</ele>
        <time>2013-06-30T13:25:16Z</time>
      </trkpt>
      <trkpt lat="40.181717" lon="-5.132517">
        <ele>1374.0</ele>
        <time>2013-06-30T13:25:17Z</time>
      </trkpt>
      <trkpt lat="40.181650" lon="-5.132517">
        <ele>1375.0</ele>
        <time>2013-06-30T13:25:18Z</time>
      </trkpt>
      <trkpt lat="40.181600" lon="-5.132550">
        <ele>1376.0</ele>
        <time>2013-06-30T13:25:19Z</time>
      </trkpt>
      <trkpt lat="40.181550" lon="-5.132583">
        <ele>1377.0</ele>
        <time>2013-06-30T13:25:20Z</time>
      </trkpt>
      <trkpt lat="40.181483" lon="-5.132633">
        <ele>1379.0</ele>
        <time>2013-06-30T13:25:21Z</time>
      </trkpt>
      <trkpt lat="40.181433" lon="-5.132700">
        <ele>1379.0</ele>
        <time>2013-06-30T13:25:22Z</time>
      </trkpt>
      <trkpt lat="40.181383" lon="-5.132767">
        <ele>1379.0</ele>
        <time>2013-06-30T13:25:23Z</time>
      </trkpt>
      <trkpt lat="40.181317" lon="-5.132850">
        <ele>1380.0</ele>
        <time>2013-06-30T13:25:24Z</time>
      </trkpt>
      <trkpt lat="40.181267" lon="-5.132933">
        <ele>1380.0</ele>
        <time>2013-06-30T13:25:25Z</time>
      </trkpt>
      <trkpt lat="40.181217" lon="-5.133050">
        <ele>1382.0</ele>
        <time>2013-06-30T13:25:26Z</time>
      </trkpt>
      <trkpt lat="40.181183" lon="-5.133150">
        <ele>1384.0</ele>
        <time>2013-06-30T13:25:27Z</time>
      </trkpt>
      <trkpt lat="40.181150" lon="-5.133267">
        <ele>1386.0</ele>
        <time>2013-06-30T13:25:28Z</time>
      </trkpt>
      <trkpt lat="40.181117" lon="-5.133367">
        <ele>1388.0</ele>
        <time>2013-06-30T13:25:29Z</time>
      </trkpt>
      <trkpt lat="40.181083" lon="-5.133483">
        <ele>1389.0</ele>
        <time>2013-06-30T13:25:30Z</time>
      </trkpt>
      <trkpt lat="40.181067" lon="-5.133600">
        <ele>1391.0</ele>
        <time>2013-06-30T13:25:31Z</time>
      </trkpt>
      <trkpt lat="40.181050" lon="-5.133733">
        <ele>1393.0</ele>
        <time>2013-06-30T13:25:32Z</time>
      </trkpt>
      <trkpt lat="40.181050" lon="-5.133883">
        <ele>1394.0</ele>
        <time>2013-06-30T13:25:33Z</time>
      </trkpt>
      <trkpt lat="40.181050" lon="-5.134017">
        <ele>1396.0</ele>
        <time>2013-06-30T13:25:34Z</time>
      </trkpt>
      <trkpt lat="40.181050" lon="-5.134133">
        <ele>1399.0</ele>
        <time>2013-06-30T13:25:35Z</time>
      </trkpt>
      <trkpt lat="40.181067" lon="-5.134267">
        <ele>1402.0</ele>
        <time>2013-06-30T13:25:36Z</time>
      </trkpt>
      <trkpt lat="40.181100" lon="-5.134383">
        <ele>1404.0</ele>
        <time>2013-06-30T13:25:37Z</time>
      </trkpt>
      <trkpt lat="40.181150" lon="-5.134500">
        <ele>1404.0</ele>
        <time>2013-06-30T13:25:38Z</time>
      </trkpt>
      <trkpt lat="40.181200" lon="-5.134633">
        <ele>1405.0</ele>
        <time>2013-06-30T13:25:39Z</time>
      </trkpt>
      <trkpt lat="40.181267" lon="-5.134750">
        <ele>1404.0</ele>
        <time>2013-06-30T13:25:40Z</time>
      </trkpt>
      <trkpt lat="40.181333" lon="-5.134850">
        <ele>1404.0</ele>
        <time>2013-06-30T13:25:41Z</time>
      </trkpt>
      <trkpt lat="40.181400" lon="-5.134917">
        <ele>1404.0</ele>
        <time>2013-06-30T13:25:42Z</time>
      </trkpt>
      <trkpt lat="40.181483" lon="-5.134983">
        <ele>1405.0</ele>
        <time>2013-06-30T13:25:43Z</time>
      </trkpt>
      <trkpt lat="40.181567" lon="-5.135033">
        <ele>1405.0</ele>
        <time>2013-06-30T13:25:44Z</time>
      </trkpt>
      <trkpt lat="40.181650" lon="-5.135083">
        <ele>1404.0</ele>
        <time>2013-06-30T13:25:45Z</time>
      </trkpt>
      <trkpt lat="40.181750" lon="-5.135133">
        <ele>1403.0</ele>
        <time>2013-06-30T13:25:46Z</time>
      </trkpt>
      <trkpt lat="40.181850" lon="-5.135150">
        <ele>1402.0</ele>
        <time>2013-06-30T13:25:47Z</time>
      </trkpt>
      <trkpt lat="40.181950" lon="-5.135167">
        <ele>1403.0</ele>
        <time>2013-06-30T13:25:48Z</time>
      </trkpt>
      <trkpt lat="40.182117" lon="-5.135150">
        <ele>1405.0</ele>
        <time>2013-06-30T13:25:50Z</time>
      </trkpt>
      <trkpt lat="40.182217" lon="-5.135150">
        <ele>1407.0</ele>
        <time>2013-06-30T13:25:51Z</time>
      </trkpt>
      <trkpt lat="40.182317" lon="-5.135133">
        <ele>1408.0</ele>
        <time>2013-06-30T13:25:52Z</time>
      </trkpt>
      <trkpt lat="40.182417" lon="-5.135133">
        <ele>1409.0</ele>
        <time>2013-06-30T13:25:53Z</time>
      </trkpt>
      <trkpt lat="40.182617" lon="-5.135100">
        <ele>1411.0</ele>
        <time>2013-06-30T13:25:55Z</time>
      </trkpt>
      <trkpt lat="40.182700" lon="-5.135067">
        <ele>1412.0</ele>
        <time>2013-06-30T13:25:56Z</time>
      </trkpt>
      <trkpt lat="40.182800" lon="-5.135050">
        <ele>1412.0</ele>
        <time>2013-06-30T13:25:57Z</time>
      </trkpt>
      <trkpt lat="40.182900" lon="-5.135017">
        <ele>1412.0</ele>
        <time>2013-06-30T13:25:58Z</time>
      </trkpt>
      <trkpt lat="40.182983" lon="-5.134983">
        <ele>1413.0</ele>
        <time>2013-06-30T13:25:59Z</time>
      </trkpt>
      <trkpt lat="40.183083" lon="-5.134950">
        <ele>1413.0</ele>
        <time>2013-06-30T13:26:00Z</time>
      </trkpt>
      <trkpt lat="40.183167" lon="-5.134917">
        <ele>1416.0</ele>
        <time>2013-06-30T13:26:01Z</time>
      </trkpt>
      <trkpt lat="40.183233" lon="-5.134867">
        <ele>1418.0</ele>
        <time>2013-06-30T13:26:02Z</time>
      </trkpt>
      <trkpt lat="40.183300" lon="-5.134817">
        <ele>1420.0</ele>
        <time>2013-06-30T13:26:03Z</time>
      </trkpt>
      <trkpt lat="40.183350" lon="-5.134733">
        <ele>1422.0</ele>
        <time>2013-06-30T13:26:04Z</time>
      </trkpt>
      <trkpt lat="40.183383" lon="-5.134633">
        <ele>1423.0</ele>
        <time>2013-06-30T13:26:05Z</time>
      </trkpt>
      <trkpt lat="40.183400" lon="-5.134533">
        <ele>1424.0</ele>
        <time>2013-06-30T13:26:06Z</time>
      </trkpt>
      <trkpt lat="40.183383" lon="-5.134450">
        <ele>1427.0</ele>
        <time>2013-06-30T13:26:07Z</time>
      </trkpt>
      <trkpt lat="40.183350" lon="-5.134400">
        <ele>1429.0</ele>
        <time>2013-06-30T13:26:08Z</time>
      </trkpt>
      <trkpt lat="40.183317" lon="-5.134367">
        <ele>1431.0</ele>
        <time>2013-06-30T13:26:09Z</time>
      </trkpt>
      <trkpt lat="40.183267" lon="-5.134333">
        <ele>1433.0</ele>
        <time>2013-06-30T13:26:10Z</time>
      </trkpt>
      <trkpt lat="40.183217" lon="-5.134283">
        <ele>1434.0</ele>
        <time>2013-06-30T13:26:11Z</time>
      </trkpt>
      <trkpt lat="40.183133" lon="-5.134267">
        <ele>1435.0</ele>
        <time>2013-06-30T13:26:12Z</time>
      </trkpt>
      <trkpt lat="40.183050" lon="-5.134267">
        <ele>1436.0</ele>
        <time>2013-06-30T13:26:13Z</time>
      </trkpt>
      <trkpt lat="40.182983" lon="-5.134300">
        <ele>1438.0</ele>
        <time>2013-06-30T13:26:14Z</time>
      </trkpt>
      <trkpt lat="40.182917" lon="-5.134350">
        <ele>1440.0</ele>
        <time>2013-06-30T13:26:15Z</time>
      </trkpt>
      <trkpt lat="40.182867" lon="-5.134417">
        <ele>1442.0</ele>
        <time>2013-06-30T13:26:16Z</time>
      </trkpt>
      <trkpt lat="40.182817" lon="-5.134483">
        <ele>1443.0</ele>
        <time>2013-06-30T13:26:17Z</time>
      </trkpt>
      <trkpt lat="40.182750" lon="-5.134567">
        <ele>1445.0</ele>
        <time>2013-06-30T13:26:18Z</time>
      </trkpt>
      <trkpt lat="40.182700" lon="-5.134667">
        <ele>1445.0</ele>
        <time>2013-06-30T13:26:19Z</time>
      </trkpt>
      <trkpt lat="40.182667" lon="-5.134767">
        <ele>1445.0</ele>
        <time>2013-06-30T13:26:20Z</time>
      </trkpt>
      <trkpt lat="40.182650" lon="-5.134867">
        <ele>1445.0</ele>
        <time>2013-06-30T13:26:21Z</time>
      </trkpt>
      <trkpt lat="40.182633" lon="-5.134983">
        <ele>1446.0</ele>
        <time>2013-06-30T13:26:22Z</time>
      </trkpt>
      <trkpt lat="40.182633" lon="-5.135100">
        <ele>1446.0</ele>
        <time>2013-06-30T13:26:23Z</time>
      </trkpt>
      <trkpt lat="40.182667" lon="-5.135233">
        <ele>1446.0</ele>
        <time>2013-06-30T13:26:24Z</time>
      </trkpt>
      <trkpt lat="40.182700" lon="-5.135350">
        <ele>1447.0</ele>
        <time>2013-06-30T13:26:25Z</time>
      </trkpt>
      <trkpt lat="40.182750" lon="-5.135467">
        <ele>1448.0</ele>
        <time>2013-06-30T13:26:26Z</time>
      </trkpt>
      <trkpt lat="40.182800" lon="-5.135550">
        <ele>1450.0</ele>
        <time>2013-06-30T13:26:27Z</time>
      </trkpt>
      <trkpt lat="40.182850" lon="-5.135650">
        <ele>1452.0</ele>
        <time>2013-06-30T13:26:28Z</time>
      </trkpt>
      <trkpt lat="40.182917" lon="-5.135717">
        <ele>1453.0</ele>
        <time>2013-06-30T13:26:29Z</time>
      </trkpt>
      <trkpt lat="40.183000" lon="-5.135800">
        <ele>1453.0</ele>
        <time>2013-06-30T13:26:30Z</time>
      </trkpt>
      <trkpt lat="40.183100" lon="-5.135850">
        <ele>1452.0</ele>
        <time>2013-06-30T13:26:31Z</time>
      </trkpt>
      <trkpt lat="40.183183" lon="-5.135917">
        <ele>1452.0</ele>
        <time>2013-06-30T13:26:32Z</time>
      </trkpt>
      <trkpt lat="40.183267" lon="-5.135967">
        <ele>1453.0</ele>
        <time>2013-06-30T13:26:33Z</time>
      </trkpt>
      <trkpt lat="40.183350" lon="-5.136017">
        <ele>1456.0</ele>
        <time>2013-06-30T13:26:34Z</time>
      </trkpt>
      <trkpt lat="40.183417" lon="-5.136067">
        <ele>1458.0</ele>
        <time>2013-06-30T13:26:35Z</time>
      </trkpt>
      <trkpt lat="40.183500" lon="-5.136083">
        <ele>1460.0</ele>
        <time>2013-06-30T13:26:36Z</time>
      </trkpt>
      <trkpt lat="40.183583" lon="-5.136117">
        <ele>1461.0</ele>
        <time>2013-06-30T13:26:37Z</time>
      </trkpt>
      <trkpt lat="40.183683" lon="-5.136133">
        <ele>1462.0</ele>
        <time>2013-06-30T13:26:38Z</time>
      </trkpt>
      <trkpt lat="40.183800" lon="-5.136150">
        <ele>1463.0</ele>
        <time>2013-06-30T13:26:39Z</time>
      </trkpt>
      <trkpt lat="40.183900" lon="-5.136150">
        <ele>1466.0</ele>
        <time>2013-06-30T13:26:40Z</time>
      </trkpt>
      <trkpt lat="40.183983" lon="-5.136167">
        <ele>1470.0</ele>
        <time>2013-06-30T13:26:41Z</time>
      </trkpt>
      <trkpt lat="40.184067" lon="-5.136167">
        <ele>1474.0</ele>
        <time>2013-06-30T13:26:42Z</time>
      </trkpt>
      <trkpt lat="40.184167" lon="-5.136167">
        <ele>1477.0</ele>
        <time>2013-06-30T13:26:43Z</time>
      </trkpt>
      <trkpt lat="40.184433" lon="-5.136133">
        <ele>1486.0</ele>
        <time>2013-06-30T13:26:46Z</time>
      </trkpt>
      <trkpt lat="40.184500" lon="-5.136100">
        <ele>1490.0</ele>
        <time>2013-06-30T13:26:47Z</time>
      </trkpt>
      <trkpt lat="40.184550" lon="-5.136033">
        <ele>1494.0</ele>
        <time>2013-06-30T13:26:48Z</time>
      </trkpt>
      <trkpt lat="40.184600" lon="-5.135967">
        <ele>1497.0</ele>
        <time>2013-06-30T13:26:49Z</time>
      </trkpt>
      <trkpt lat="40.184633" lon="-5.135883">
        <ele>1501.0</ele>
        <time>2013-06-30T13:26:50Z</time>
      </trkpt>
      <trkpt lat="40.184650" lon="-5.135800">
        <ele>1504.0</ele>
        <time>2013-06-30T13:26:51Z</time>
      </trkpt>
      <trkpt lat="40.184650" lon="-5.135733">
        <ele>1508.0</ele>
        <time>2013-06-30T13:26:52Z</time>
      </trkpt>
      <trkpt lat="40.184633" lon="-5.135667">
        <ele>1511.0</ele>
        <time>2013-06-30T13:26:53Z</time>
      </trkpt>
      <trkpt lat="40.184617" lon="-5.135600">
        <ele>1514.0</ele>
        <time>2013-06-30T13:26:54Z</time>
      </trkpt>
      <trkpt lat="40.184567" lon="-5.135550">
        <ele>1517.0</ele>
        <time>2013-06-30T13:26:55Z</time>
      </trkpt>
      <trkpt lat="40.184517" lon="-5.135517">
        <ele>1519.0</ele>
        <time>2013-06-30T13:26:56Z</time>
      </trkpt>
      <trkpt lat="40.184467" lon="-5.135517">
        <ele>1523.0</ele>
        <time>2013-06-30T13:26:57Z</time>
      </trkpt>
      <trkpt lat="40.184417" lon="-5.135533">
        <ele>1526.0</ele>
        <time>2013-06-30T13:26:58Z</time>
      </trkpt>
      <trkpt lat="40.184350" lon="-5.135567">
        <ele>1528.0</ele>
        <time>2013-06-30T13:26:59Z</time>
      </trkpt>
      <trkpt lat="40.184283" lon="-5.135617">
        <ele>1530.0</ele>
        <time>2013-06-30T13:27:00Z</time>
      </trkpt>
      <trkpt lat="40.184200" lon="-5.135667">
        <ele>1531.0</ele>
        <time>2013-06-30T13:27:01Z</time>
      </trkpt>
      <trkpt lat="40.184133" lon="-5.135750">
        <ele>1532.0</ele>
        <time>2013-06-30T13:27:02Z</time>
      </trkpt>
      <trkpt lat="40.184083" lon="-5.135867">
        <ele>1533.0</ele>
        <time>2013-06-30T13:27:03Z</time>
      </trkpt>
      <trkpt lat="40.184050" lon="-5.136000">
        <ele>1532.0</ele>
        <time>2013-06-30T13:27:04Z</time>
      </trkpt>
      <trkpt lat="40.184017" lon="-5.136133">
        <ele>1532.0</ele>
        <time>2013-06-30T13:27:05Z</time>
      </trkpt>
      <trkpt lat="40.184000" lon="-5.136283">
        <ele>1533.0</ele>
        <time>2013-06-30T13:27:06Z</time>
      </trkpt>
      <trkpt lat="40.183983" lon="-5.136433">
        <ele>1534.0</ele>
        <time>2013-06-30T13:27:07Z</time>
      </trkpt>
      <trkpt lat="40.184000" lon="-5.136567">
        <ele>1535.0</ele>
        <time>2013-06-30T13:27:08Z</time>
      </trkpt>
      <trkpt lat="40.184033" lon="-5.136717">
        <ele>1536.0</ele>
        <time>2013-06-30T13:27:09Z</time>
      </trkpt>
      <trkpt lat="40.184083" lon="-5.136833">
        <ele>1539.0</ele>
        <time>2013-06-30T13:27:10Z</time>
      </trkpt>
      <trkpt lat="40.184150" lon="-5.136950">
        <ele>1542.0</ele>
        <time>2013-06-30T13:27:11Z</time>
      </trkpt>
      <trkpt lat="40.184217" lon="-5.137067">
        <ele>1544.0</ele>
        <time>2013-06-30T13:27:12Z</time>
      </trkpt>
      <trkpt lat="40.184283" lon="-5.137183">
        <ele>1546.0</ele>
        <time>2013-06-30T13:27:13Z</time>
      </trkpt>
      <trkpt lat="40.184383" lon="-5.137267">
        <ele>1549.0</ele>
        <time>2013-06-30T13:27:14Z</time>
      </trkpt>
      <trkpt lat="40.184467" lon="-5.137350">
        <ele>1551.0</ele>
        <time>2013-06-30T13:27:15Z</time>
      </trkpt>
      <trkpt lat="40.184567" lon="-5.137433">
        <ele>1555.0</ele>
        <time>2013-06-30T13:27:16Z</time>
      </trkpt>
      <trkpt lat="40.184650" lon="-5.137500">
        <ele>1559.0</ele>
        <time>2013-06-30T13:27:17Z</time>
      </trkpt>
      <trkpt lat="40.184750" lon="-5.137567">
        <ele>1563.0</ele>
        <time>2013-06-30T13:27:18Z</time>
      </trkpt>
      <trkpt lat="40.184850" lon="-5.137617">
        <ele>1567.0</ele>
        <time>2013-06-30T13:27:19Z</time>
      </trkpt>
      <trkpt lat="40.184933" lon="-5.137650">
        <ele>1570.0</ele>
        <time>2013-06-30T13:27:20Z</time>
      </trkpt>
      <trkpt lat="40.185017" lon="-5.137683">
        <ele>1574.0</ele>
        <time>2013-06-30T13:27:21Z</time>
      </trkpt>
      <trkpt lat="40.185117" lon="-5.137683">
        <ele>1577.0</ele>
        <time>2013-06-30T13:27:22Z</time>
      </trkpt>
      <trkpt lat="40.185183" lon="-5.137683">
        <ele>1581.0</ele>
        <time>2013-06-30T13:27:23Z</time>
      </trkpt>
      <trkpt lat="40.185283" lon="-5.137683">
        <ele>1583.0</ele>
        <time>2013-06-30T13:27:24Z</time>
      </trkpt>
      <trkpt lat="40.185367" lon="-5.137683">
        <ele>1586.0</ele>
        <time>2013-06-30T13:27:25Z</time>
      </trkpt>
      <trkpt lat="40.185467" lon="-5.137667">
        <ele>1590.0</ele>
        <time>2013-06-30T13:27:26Z</time>
      </trkpt>
      <trkpt lat="40.185550" lon="-5.137650">
        <ele>1594.0</ele>
        <time>2013-06-30T13:27:27Z</time>
      </trkpt>
      <trkpt lat="40.185617" lon="-5.137600">
        <ele>1598.0</ele>
        <time>2013-06-30T13:27:28Z</time>
      </trkpt>
      <trkpt lat="40.185667" lon="-5.137567">
        <ele>1603.0</ele>
        <time>2013-06-30T13:27:29Z</time>
      </trkpt>
      <trkpt lat="40.185733" lon="-5.137517">
        <ele>1607.0</ele>
        <time>2013-06-30T13:27:30Z</time>
      </trkpt>
      <trkpt lat="40.185800" lon="-5.137450">
        <ele>1611.0</ele>
        <time>2013-06-30T13:27:31Z</time>
      </trkpt>
      <trkpt lat="40.185867" lon="-5.137367">
        <ele>1613.0</ele>
        <time>2013-06-30T13:27:32Z</time>
      </trkpt>
      <trkpt lat="40.185900" lon="-5.137283">
        <ele>1617.0</ele>
        <time>2013-06-30T13:27:33Z</time>
      </trkpt>
      <trkpt lat="40.185917" lon="-5.137117">
        <ele>1624.0</ele>
        <time>2013-06-30T13:27:35Z</time>
      </trkpt>
      <trkpt lat="40.185900" lon="-5.137067">
        <ele>1627.0</ele>
        <time>2013-06-30T13:27:36Z</time>
      </trkpt>
      <trkpt lat="40.185883" lon="-5.137000">
        <ele>1631.0</ele>
        <time>2013-06-30T13:27:37Z</time>
      </trkpt>
      <trkpt lat="40.185850" lon="-5.136950">
        <ele>1634.0</ele>
        <time>2013-06-30T13:27:38Z</time>
      </trkpt>
      <trkpt lat="40.185817" lon="-5.136900">
        <ele>1637.0</ele>
        <time>2013-06-30T13:27:39Z</time>
      </trkpt>
      <trkpt lat="40.185767" lon="-5.136867">
        <ele>1640.0</ele>
        <time>2013-06-30T13:27:40Z</time>
      </trkpt>
      <trkpt lat="40.185717" lon="-5.136883">
        <ele>1644.0</ele>
        <time>2013-06-30T13:27:41Z</time>
      </trkpt>
      <trkpt lat="40.185667" lon="-5.136900">
        <ele>1648.0</ele>
        <time>2013-06-30T13:27:42Z</time>
      </trkpt>
      <trkpt lat="40.185633" lon="-5.136900">
        <ele>1652.0</ele>
        <time>2013-06-30T13:27:43Z</time>
      </trkpt>
      <trkpt lat="40.185600" lon="-5.136900">
        <ele>1656.0</ele>
        <time>2013-06-30T13:27:44Z</time>
      </trkpt>
      <trkpt lat="40.185550" lon="-5.136900">
        <ele>1660.0</ele>
        <time>2013-06-30T13:27:45Z</time>
      </trkpt>
      <trkpt lat="40.185500" lon="-5.136900">
        <ele>1664.0</ele>
        <time>2013-06-30T13:27:46Z</time>
      </trkpt>
      <trkpt lat="40.185467" lon="-5.136917">
        <ele>1668.0</ele>
        <time>2013-06-30T13:27:47Z</time>
      </trkpt>
      <trkpt lat="40.185433" lon="-5.136967">
        <ele>1671.0</ele>
        <time>2013-06-30T13:27:48Z</time>
      </trkpt>
      <trkpt lat="40.185383" lon="-5.137033">
        <ele>1673.0</ele>
        <time>2013-06-30T13:27:49Z</time>
      </trkpt>
      <trkpt lat="40.185333" lon="-5.137100">
        <ele>1675.0</ele>
        <time>2013-06-30T13:27:50Z</time>
      </trkpt>
      <trkpt lat="40.185283" lon="-5.137200">
        <ele>1679.0</ele>
        <time>2013-06-30T13:27:51Z</time>
      </trkpt>
      <trkpt lat="40.185217" lon="-5.137283">
        <ele>1683.0</ele>
        <time>2013-06-30T13:27:52Z</time>
      </trkpt>
      <trkpt lat="40.185183" lon="-5.137367">
        <ele>1687.0</ele>
        <time>2013-06-30T13:27:53Z</time>
      </trkpt>
      <trkpt lat="40.185167" lon="-5.137433">
        <ele>1691.0</ele>
        <time>2013-06-30T13:27:54Z</time>
      </trkpt>
      <trkpt lat="40.185133" lon="-5.137533">
        <ele>1694.0</ele>
        <time>2013-06-30T13:27:55Z</time>
      </trkpt>
      <trkpt lat="40.185117" lon="-5.137633">
        <ele>1696.0</ele>
        <time>2013-06-30T13:27:56Z</time>
      </trkpt>
      <trkpt lat="40.185067" lon="-5.137767">
        <ele>1698.0</ele>
        <time>2013-06-30T13:27:57Z</time>
      </trkpt>
      <trkpt lat="40.185033" lon="-5.137917">
        <ele>1698.0</ele>
        <time>2013-06-30T13:27:58Z</time>
      </trkpt>
      <trkpt lat="40.185017" lon="-5.138067">
        <ele>1700.0</ele>
        <time>2013-06-30T13:27:59Z</time>
      </trkpt>
      <trkpt lat="40.185050" lon="-5.138233">
        <ele>1701.0</ele>
        <time>2013-06-30T13:28:00Z</time>
      </trkpt>
      <trkpt lat="40.185083" lon="-5.138367">
        <ele>1703.0</ele>
        <time>2013-06-30T13:28:01Z</time>
      </trkpt>
      <trkpt lat="40.185133" lon="-5.138517">
        <ele>1707.0</ele>
        <time>2013-06-30T13:28:02Z</time>
      </trkpt>
      <trkpt lat="40.185183" lon="-5.138650">
        <ele>1711.0</ele>
        <time>2013-06-30T13:28:03Z</time>
      </trkpt>
      <trkpt lat="40.185217" lon="-5.138783">
        <ele>1714.0</ele>
        <time>2013-06-30T13:28:04Z</time>
      </trkpt>
      <trkpt lat="40.185283" lon="-5.138900">
        <ele>1717.0</ele>
        <time>2013-06-30T13:28:05Z</time>
      </trkpt>
      <trkpt lat="40.185367" lon="-5.139000">
        <ele>1720.0</ele>
        <time>2013-06-30T13:28:06Z</time>
      </trkpt>
      <trkpt lat="40.185467" lon="-5.139100">
        <ele>1722.0</ele>
        <time>2013-06-30T13:28:07Z</time>
      </trkpt>
      <trkpt lat="40.185567" lon="-5.139167">
        <ele>1724.0</ele>
        <time>2013-06-30T13:28:08Z</time>
      </trkpt>
      <trkpt lat="40.185650" lon="-5.139250">
        <ele>1728.0</ele>
        <time>2013-06-30T13:28:09Z</time>
      </trkpt>
      <trkpt lat="40.185733" lon="-5.139300">
        <ele>1731.0</ele>
        <time>2013-06-30T13:28:10Z</time>
      </trkpt>
      <trkpt lat="40.185833" lon="-5.139350">
        <ele>1734.0</ele>
        <time>2013-06-30T13:28:11Z</time>
      </trkpt>
      <trkpt lat="40.185933" lon="-5.139383">
        <ele>1737.0</ele>
        <time>2013-06-30T13:28:12Z</time>
      </trkpt>
      <trkpt lat="40.186017" lon="-5.139400">
        <ele>1740.0</ele>
        <time>2013-06-30T13:28:13Z</time>
      </trkpt>
      <trkpt lat="40.186117" lon="-5.139400">
        <ele>1743.0</ele>
        <time>2013-06-30T13:28:14Z</time>
      </trkpt>
      <trkpt lat="40.186183" lon="-5.139383">
        <ele>1746.0</ele>
        <time>2013-06-30T13:28:15Z</time>
      </trkpt>
      <trkpt lat="40.186267" lon="-5.139367">
        <ele>1749.0</ele>
        <time>2013-06-30T13:28:16Z</time>
      </trkpt>
      <trkpt lat="40.186333" lon="-5.139350">
        <ele>1752.0</ele>
        <time>2013-06-30T13:28:17Z</time>
      </trkpt>
      <trkpt lat="40.186400" lon="-5.139333">
        <ele>1755.0</ele>
        <time>2013-06-30T13:28:18Z</time>
      </trkpt>
      <trkpt lat="40.186467" lon="-5.139317">
        <ele>1758.0</ele>
        <time>2013-06-30T13:28:19Z</time>
      </trkpt>
      <trkpt lat="40.186533" lon="-5.139283">
        <ele>1760.0</ele>
        <time>2013-06-30T13:28:20Z</time>
      </trkpt>
      <trkpt lat="40.186600" lon="-5.139233">
        <ele>1761.0</ele>
        <time>2013-06-30T13:28:21Z</time>
      </trkpt>
      <trkpt lat="40.186650" lon="-5.139167">
        <ele>1763.0</ele>
        <time>2013-06-30T13:28:22Z</time>
      </trkpt>
      <trkpt lat="40.186700" lon="-5.139100">
        <ele>1765.0</ele>
        <time>2013-06-30T13:28:23Z</time>
      </trkpt>
      <trkpt lat="40.186750" lon="-5.138983">
        <ele>1770.0</ele>
        <time>2013-06-30T13:28:25Z</time>
      </trkpt>
      <trkpt lat="40.186733" lon="-5.138833">
        <ele>1775.0</ele>
        <time>2013-06-30T13:28:27Z</time>
      </trkpt>
      <trkpt lat="40.186717" lon="-5.138767">
        <ele>1777.0</ele>
        <time>2013-06-30T13:28:28Z</time>
      </trkpt>
      <trkpt lat="40.186683" lon="-5.138700">
        <ele>1779.0</ele>
        <time>2013-06-30T13:28:29Z</time>
      </trkpt>
      <trkpt lat="40.186650" lon="-5.138650">
        <ele>1782.0</ele>
        <time>2013-06-30T13:28:30Z</time>
      </trkpt>
      <trkpt lat="40.186600" lon="-5.138600">
        <ele>1785.0</ele>
        <time>2013-06-30T13:28:31Z</time>
      </trkpt>
      <trkpt lat="40.186567" lon="-5.138550">
        <ele>1787.0</ele>
        <time>2013-06-30T13:28:32Z</time>
      </trkpt>
      <trkpt lat="40.186517" lon="-5.138500">
        <ele>1790.0</ele>
        <time>2013-06-30T13:28:33Z</time>
      </trkpt>
      <trkpt lat="40.186467" lon="-5.138500">
        <ele>1793.0</ele>
        <time>2013-06-30T13:28:34Z</time>
      </trkpt>
      <trkpt lat="40.186433" lon="-5.138517">
        <ele>1798.0</ele>
        <time>2013-06-30T13:28:35Z</time>
      </trkpt>
      <trkpt lat="40.186383" lon="-5.138550">
        <ele>1803.0</ele>
        <time>2013-06-30T13:28:36Z</time>
      </trkpt>
      <trkpt lat="40.186350" lon="-5.138583">
        <ele>1807.0</ele>
        <time>2013-06-30T13:28:37Z</time>
      </trkpt>
      <trkpt lat="40.186317" lon="-5.138617">
        <ele>1811.0</ele>
        <time>2013-06-30T13:28:38Z</time>
      </trkpt>
      <trkpt lat="40.186267" lon="-5.138650">
        <ele>1814.0</ele>
        <time>2013-06-30T13:28:39Z</time>
      </trkpt>
      <trkpt lat="40.186200" lon="-5.138700">
        <ele>1816.0</ele>
        <time>2013-06-30T13:28:40Z</time>
      </trkpt>
      <trkpt lat="40.186150" lon="-5.138800">
        <ele>1819.0</ele>
        <time>2013-06-30T13:28:41Z</time>
      </trkpt>
      <trkpt lat="40.186100" lon="-5.138900">
        <ele>1822.0</ele>
        <time>2013-06-30T13:28:42Z</time>
      </trkpt>
      <trkpt lat="40.186067" lon="-5.139017">
        <ele>1825.0</ele>
        <time>2013-06-30T13:28:43Z</time>
      </trkpt>
      <trkpt lat="40.186017" lon="-5.139150">
        <ele>1829.0</ele>
        <time>2013-06-30T13:28:44Z</time>
      </trkpt>
      <trkpt lat="40.185983" lon="-5.139283">
        <ele>1832.0</ele>
        <time>2013-06-30T13:28:45Z</time>
      </trkpt>
      <trkpt lat="40.185950" lon="-5.139417">
        <ele>1835.0</ele>
        <time>2013-06-30T13:28:46Z</time>
      </trkpt>
      <trkpt lat="40.185933" lon="-5.139567">
        <ele>1839.0</ele>
        <time>2013-06-30T13:28:47Z</time>
      </trkpt>
      <trkpt lat="40.185917" lon="-5.139700">
        <ele>1842.0</ele>
        <time>2013-06-30T13:28:48Z</time>
      </trkpt>
      <trkpt lat="40.185900" lon="-5.139850">
        <ele>1846.0</ele>
        <time>2013-06-30T13:28:49Z</time>
      </trkpt>
      <trkpt lat="40.185883" lon="-5.139983">
        <ele>1850.0</ele>
        <time>2013-06-30T13:28:50Z</time>
      </trkpt>
      <trkpt lat="40.185867" lon="-5.140133">
        <ele>1853.0</ele>
        <time>2013-06-30T13:28:51Z</time>
      </trkpt>
      <trkpt lat="40.185867" lon="-5.140283">
        <ele>1856.0</ele>
        <time>2013-06-30T13:28:52Z</time>
      </trkpt>
      <trkpt lat="40.185900" lon="-5.140433">
        <ele>1860.0</ele>
        <time>2013-06-30T13:28:53Z</time>
      </trkpt>
      <trkpt lat="40.185950" lon="-5.140567">
        <ele>1864.0</ele>
        <time>2013-06-30T13:28:54Z</time>
      </trkpt>
      <trkpt lat="40.186000" lon="-5.140683">
        <ele>1867.0</ele>
        <time>2013-06-30T13:28:55Z</time>
      </trkpt>
      <trkpt lat="40.186067" lon="-5.140800">
        <ele>1870.0</ele>
        <time>2013-06-30T13:28:56Z</time>
      </trkpt>
      <trkpt lat="40.186133" lon="-5.140900">
        <ele>1873.0</ele>
        <time>2013-06-30T13:28:57Z</time>
      </trkpt>
      <trkpt lat="40.186217" lon="-5.140983">
        <ele>1875.0</ele>
        <time>2013-06-30T13:28:58Z</time>
      </trkpt>
      <trkpt lat="40.186300" lon="-5.141033">
        <ele>1877.0</ele>
        <time>2013-06-30T13:28:59Z</time>
      </trkpt>
      <trkpt lat="40.186400" lon="-5.141100">
        <ele>1878.0</ele>
        <time>2013-06-30T13:29:00Z</time>
      </trkpt>
      <trkpt lat="40.186483" lon="-5.141133">
        <ele>1880.0</ele>
        <time>2013-06-30T13:29:01Z</time>
      </trkpt>
      <trkpt lat="40.186567" lon="-5.141167">
        <ele>1884.0</ele>
        <time>2013-06-30T13:29:02Z</time>
      </trkpt>
      <trkpt lat="40.186633" lon="-5.141167">
        <ele>1887.0</ele>
        <time>2013-06-30T13:29:03Z</time>
      </trkpt>
      <trkpt lat="40.186717" lon="-5.141150">
        <ele>1889.0</ele>
        <time>2013-06-30T13:29:04Z</time>
      </trkpt>
      <trkpt lat="40.186800" lon="-5.141133">
        <ele>1891.0</ele>
        <time>2013-06-30T13:29:05Z</time>
      </trkpt>
      <trkpt lat="40.186867" lon="-5.141100">
        <ele>1893.0</ele>
        <time>2013-06-30T13:29:06Z</time>
      </trkpt>
      <trkpt lat="40.186933" lon="-5.141083">
        <ele>1896.0</ele>
        <time>2013-06-30T13:29:07Z</time>
      </trkpt>
      <trkpt lat="40.187000" lon="-5.141050">
        <ele>1899.0</ele>
        <time>2013-06-30T13:29:08Z</time>
      </trkpt>
      <trkpt lat="40.187033" lon="-5.141017">
        <ele>1902.0</ele>
        <time>2013-06-30T13:29:09Z</time>
      </trkpt>
      <trkpt lat="40.187067" lon="-5.140967">
        <ele>1904.0</ele>
        <time>2013-06-30T13:29:10Z</time>
      </trkpt>
      <trkpt lat="40.187117" lon="-5.140900">
        <ele>1905.0</ele>
        <time>2013-06-30T13:29:11Z</time>
      </trkpt>
      <trkpt lat="40.187167" lon="-5.140833">
        <ele>1906.0</ele>
        <time>2013-06-30T13:29:12Z</time>
      </trkpt>
      <trkpt lat="40.187200" lon="-5.140767">
        <ele>1908.0</ele>
        <time>2013-06-30T13:29:13Z</time>
      </trkpt>
      <trkpt lat="40.187233" lon="-5.140700">
        <ele>1910.0</ele>
        <time>2013-06-30T13:29:14Z</time>
      </trkpt>
      <trkpt lat="40.187267" lon="-5.140650">
        <ele>1912.0</ele>
        <time>2013-06-30T13:29:15Z</time>
      </trkpt>
      <trkpt lat="40.187267" lon="-5.140517">
        <ele>1917.0</ele>
        <time>2013-06-30T13:29:17Z</time>
      </trkpt>
      <trkpt lat="40.187217" lon="-5.140367">
        <ele>1920.0</ele>
        <time>2013-06-30T13:29:19Z</time>
      </trkpt>
      <trkpt lat="40.187200" lon="-5.140300">
        <ele>1921.0</ele>
        <time>2013-06-30T13:29:20Z</time>
      </trkpt>
      <trkpt lat="40.187183" lon="-5.140233">
        <ele>1923.0</ele>
        <time>2013-06-30T13:29:21Z</time>
      </trkpt>
      <trkpt lat="40.187150" lon="-5.140183">
        <ele>1926.0</ele>
        <time>2013-06-30T13:29:22Z</time>
      </trkpt>
      <trkpt lat="40.187133" lon="-5.140133">
        <ele>1930.0</ele>
        <time>2013-06-30T13:29:23Z</time>
      </trkpt>
      <trkpt lat="40.187117" lon="-5.140117">
        <ele>1935.0</ele>
        <time>2013-06-30T13:29:24Z</time>
      </trkpt>
      <trkpt lat="40.187083" lon="-5.140100">
        <ele>1939.0</ele>
        <time>2013-06-30T13:29:25Z</time>
      </trkpt>
      <trkpt lat="40.187050" lon="-5.140083">
        <ele>1942.0</ele>
        <time>2013-06-30T13:29:26Z</time>
      </trkpt>
      <trkpt lat="40.187017" lon="-5.140067">
        <ele>1946.0</ele>
        <time>2013-06-30T13:29:27Z</time>
      </trkpt>
      <trkpt lat="40.186950" lon="-5.140067">
        <ele>1948.0</ele>
        <time>2013-06-30T13:29:28Z</time>
      </trkpt>
      <trkpt lat="40.186883" lon="-5.140067">
        <ele>1950.0</ele>
        <time>2013-06-30T13:29:29Z</time>
      </trkpt>
      <trkpt lat="40.186817" lon="-5.140100">
        <ele>1952.0</ele>
        <time>2013-06-30T13:29:30Z</time>
      </trkpt>
      <trkpt lat="40.186767" lon="-5.140167">
        <ele>1953.0</ele>
        <time>2013-06-30T13:29:31Z</time>
      </trkpt>
      <trkpt lat="40.186700" lon="-5.140233">
        <ele>1955.0</ele>
        <time>2013-06-30T13:29:32Z</time>
      </trkpt>
      <trkpt lat="40.186650" lon="-5.140317">
        <ele>1955.0</ele>
        <time>2013-06-30T13:29:33Z</time>
      </trkpt>
      <trkpt lat="40.186600" lon="-5.140433">
        <ele>1956.0</ele>
        <time>2013-06-30T13:29:34Z</time>
      </trkpt>
      <trkpt lat="40.186550" lon="-5.140550">
        <ele>1957.0</ele>
        <time>2013-06-30T13:29:35Z</time>
      </trkpt>
      <trkpt lat="40.186500" lon="-5.140683">
        <ele>1957.0</ele>
        <time>2013-06-30T13:29:36Z</time>
      </trkpt>
      <trkpt lat="40.186467" lon="-5.140833">
        <ele>1957.0</ele>
        <time>2013-06-30T13:29:37Z</time>
      </trkpt>
      <trkpt lat="40.186433" lon="-5.140983">
        <ele>1958.0</ele>
        <time>2013-06-30T13:29:38Z</time>
      </trkpt>
      <trkpt lat="40.186433" lon="-5.141117">
        <ele>1960.0</ele>
        <time>2013-06-30T13:29:39Z</time>
      </trkpt>
      <trkpt lat="40.186433" lon="-5.141250">
        <ele>1962.0</ele>
        <time>2013-06-30T13:29:40Z</time>
      </trkpt>
      <trkpt lat="40.186467" lon="-5.141367">
        <ele>1964.0</ele>
        <time>2013-06-30T13:29:41Z</time>
      </trkpt>
      <trkpt lat="40.186500" lon="-5.141500">
        <ele>1965.0</ele>
        <time>2013-06-30T13:29:42Z</time>
      </trkpt>
      <trkpt lat="40.186550" lon="-5.141667">
        <ele>1966.0</ele>
        <time>2013-06-30T13:29:43Z</time>
      </trkpt>
      <trkpt lat="40.186600" lon="-5.141850">
        <ele>1966.0</ele>
        <time>2013-06-30T13:29:44Z</time>
      </trkpt>
      <trkpt lat="40.186650" lon="-5.142000">
        <ele>1968.0</ele>
        <time>2013-06-30T13:29:45Z</time>
      </trkpt>
      <trkpt lat="40.186700" lon="-5.142133">
        <ele>1971.0</ele>
        <time>2013-06-30T13:29:46Z</time>
      </trkpt>
      <trkpt lat="40.186767" lon="-5.142217">
        <ele>1975.0</ele>
        <time>2013-06-30T13:29:47Z</time>
      </trkpt>
      <trkpt lat="40.186833" lon="-5.142300">
        <ele>1977.0</ele>
        <time>2013-06-30T13:29:48Z</time>
      </trkpt>
      <trkpt lat="40.186900" lon="-5.142400">
        <ele>1978.0</ele>
        <time>2013-06-30T13:29:49Z</time>
      </trkpt>
      <trkpt lat="40.186983" lon="-5.142483">
        <ele>1978.0</ele>
        <time>2013-06-30T13:29:50Z</time>
      </trkpt>
      <trkpt lat="40.187067" lon="-5.142583">
        <ele>1978.0</ele>
        <time>2013-06-30T13:29:51Z</time>
      </trkpt>
      <trkpt lat="40.187167" lon="-5.142650">
        <ele>1980.0</ele>
        <time>2013-06-30T13:29:52Z</time>
      </trkpt>
      <trkpt lat="40.187250" lon="-5.142700">
        <ele>1984.0</ele>
        <time>2013-06-30T13:29:53Z</time>
      </trkpt>
      <trkpt lat="40.187317" lon="-5.142733">
        <ele>1986.0</ele>
        <time>2013-06-30T13:29:54Z</time>
      </trkpt>
      <trkpt lat="40.187400" lon="-5.142767">
        <ele>1989.0</ele>
        <time>2013-06-30T13:29:55Z</time>
      </trkpt>
      <trkpt lat="40.187483" lon="-5.142800">
        <ele>1990.0</ele>
        <time>2013-06-30T13:29:56Z</time>
      </trkpt>
      <trkpt lat="40.187583" lon="-5.142833">
        <ele>1991.0</ele>
        <time>2013-06-30T13:29:57Z</time>
      </trkpt>
      <trkpt lat="40.187667" lon="-5.142867">
        <ele>1993.0</ele>
        <time>2013-06-30T13:29:58Z</time>
      </trkpt>
      <trkpt lat="40.187767" lon="-5.142867">
        <ele>1996.0</ele>
        <time>2013-06-30T13:29:59Z</time>
      </trkpt>
      <trkpt lat="40.187833" lon="-5.142850">
        <ele>1998.0</ele>
        <time>2013-06-30T13:30:00Z</time>
      </trkpt>
      <trkpt lat="40.187900" lon="-5.142833">
        <ele>2001.0</ele>
        <time>2013-06-30T13:30:01Z</time>
      </trkpt>
      <trkpt lat="40.187950" lon="-5.142817">
        <ele>2003.0</ele>
        <time>2013-06-30T13:30:02Z</time>
      </trkpt>
      <trkpt lat="40.188100" lon="-5.142733">
        <ele>2006.0</ele>
        <time>2013-06-30T13:30:04Z</time>
      </trkpt>
      <trkpt lat="40.188183" lon="-5.142700">
        <ele>2008.0</ele>
        <time>2013-06-30T13:30:05Z</time>
      </trkpt>
      <trkpt lat="40.188283" lon="-5.142650">
        <ele>2014.0</ele>
        <time>2013-06-30T13:30:07Z</time>
      </trkpt>
      <trkpt lat="40.188333" lon="-5.142633">
        <ele>2017.0</ele>
        <time>2013-06-30T13:30:08Z</time>
      </trkpt>
      <trkpt lat="40.188367" lon="-5.142583">
        <ele>2019.0</ele>
        <time>2013-06-30T13:30:09Z</time>
      </trkpt>
      <trkpt lat="40.188400" lon="-5.142533">
        <ele>2021.0</ele>
        <time>2013-06-30T13:30:10Z</time>
      </trkpt>
      <trkpt lat="40.188450" lon="-5.142483">
        <ele>2022.0</ele>
        <time>2013-06-30T13:30:11Z</time>
      </trkpt>
      <trkpt lat="40.188483" lon="-5.142417">
        <ele>2024.0</ele>
        <time>2013-06-30T13:30:12Z</time>
      </trkpt>
      <trkpt lat="40.188517" lon="-5.142367">
        <ele>2026.0</ele>
        <time>2013-06-30T13:30:13Z</time>
      </trkpt>
      <trkpt lat="40.188533" lon="-5.142317">
        <ele>2028.0</ele>
        <time>2013-06-30T13:30:14Z</time>
      </trkpt>
      <trkpt lat="40.188550" lon="-5.142250">
        <ele>2030.0</ele>
        <time>2013-06-30T13:30:15Z</time>
      </trkpt>
      <trkpt lat="40.188567" lon="-5.142183">
        <ele>2032.0</ele>
        <time>2013-06-30T13:30:16Z</time>
      </trkpt>
      <trkpt lat="40.188583" lon="-5.142100">
        <ele>2034.0</ele>
        <time>2013-06-30T13:30:17Z</time>
      </trkpt>
      <trkpt lat="40.188600" lon="-5.142033">
        <ele>2036.0</ele>
        <time>2013-06-30T13:30:18Z</time>
      </trkpt>
      <trkpt lat="40.188600" lon="-5.141983">
        <ele>2038.0</ele>
        <time>2013-06-30T13:30:19Z</time>
      </trkpt>
      <trkpt lat="40.188583" lon="-5.141917">
        <ele>2040.0</ele>
        <time>2013-06-30T13:30:20Z</time>
      </trkpt>
      <trkpt lat="40.188550" lon="-5.141850">
        <ele>2042.0</ele>
        <time>2013-06-30T13:30:21Z</time>
      </trkpt>
      <trkpt lat="40.188517" lon="-5.141800">
        <ele>2044.0</ele>
        <time>2013-06-30T13:30:22Z</time>
      </trkpt>
      <trkpt lat="40.188467" lon="-5.141783">
        <ele>2047.0</ele>
        <time>2013-06-30T13:30:23Z</time>
      </trkpt>
      <trkpt lat="40.188433" lon="-5.141750">
        <ele>2050.0</ele>
        <time>2013-06-30T13:30:24Z</time>
      </trkpt>
      <trkpt lat="40.188383" lon="-5.141750">
        <ele>2053.0</ele>
        <time>2013-06-30T13:30:25Z</time>
      </trkpt>
      <trkpt lat="40.188333" lon="-5.141733">
        <ele>2056.0</ele>
        <time>2013-06-30T13:30:26Z</time>
      </trkpt>
      <trkpt lat="40.188283" lon="-5.141717">
        <ele>2059.0</ele>
        <time>2013-06-30T13:30:27Z</time>
      </trkpt>
      <trkpt lat="40.188217" lon="-5.141717">
        <ele>2061.0</ele>
        <time>2013-06-30T13:30:28Z</time>
      </trkpt>
      <trkpt lat="40.188150" lon="-5.141717">
        <ele>2064.0</ele>
        <time>2013-06-30T13:30:29Z</time>
      </trkpt>
      <trkpt lat="40.188100" lon="-5.141733">
        <ele>2067.0</ele>
        <time>2013-06-30T13:30:30Z</time>
      </trkpt>
      <trkpt lat="40.188050" lon="-5.141750">
        <ele>2068.0</ele>
        <time>2013-06-30T13:30:31Z</time>
      </trkpt>
      <trkpt lat="40.188000" lon="-5.141783">
        <ele>2070.0</ele>
        <time>2013-06-30T13:30:32Z</time>
      </trkpt>
      <trkpt lat="40.187933" lon="-5.141817">
        <ele>2072.0</ele>
        <time>2013-06-30T13:30:33Z</time>
      </trkpt>
      <trkpt lat="40.187850" lon="-5.141867">
        <ele>2072.0</ele>
        <time>2013-06-30T13:30:34Z</time>
      </trkpt>
      <trkpt lat="40.187767" lon="-5.141950">
        <ele>2073.0</ele>
        <time>2013-06-30T13:30:35Z</time>
      </trkpt>
      <trkpt lat="40.187700" lon="-5.142033">
        <ele>2074.0</ele>
        <time>2013-06-30T13:30:36Z</time>
      </trkpt>
      <trkpt lat="40.187650" lon="-5.142117">
        <ele>2077.0</ele>
        <time>2013-06-30T13:30:37Z</time>
      </trkpt>
      <trkpt lat="40.187617" lon="-5.142233">
        <ele>2080.0</ele>
        <time>2013-06-30T13:30:38Z</time>
      </trkpt>
      <trkpt lat="40.187583" lon="-5.142333">
        <ele>2081.0</ele>
        <time>2013-06-30T13:30:39Z</time>
      </trkpt>
      <trkpt lat="40.187567" lon="-5.142467">
        <ele>2083.0</ele>
        <time>2013-06-30T13:30:40Z</time>
      </trkpt>
      <trkpt lat="40.187533" lon="-5.142600">
        <ele>2085.0</ele>
        <time>2013-06-30T13:30:41Z</time>
      </trkpt>
      <trkpt lat="40.187483" lon="-5.142750">
        <ele>2086.0</ele>
        <time>2013-06-30T13:30:42Z</time>
      </trkpt>
      <trkpt lat="40.187450" lon="-5.142883">
        <ele>2088.0</ele>
        <time>2013-06-30T13:30:43Z</time>
      </trkpt>
      <trkpt lat="40.187417" lon="-5.143000">
        <ele>2090.0</ele>
        <time>2013-06-30T13:30:44Z</time>
      </trkpt>
      <trkpt lat="40.187400" lon="-5.143100">
        <ele>2092.0</ele>
        <time>2013-06-30T13:30:45Z</time>
      </trkpt>
      <trkpt lat="40.187383" lon="-5.143217">
        <ele>2093.0</ele>
        <time>2013-06-30T13:30:46Z</time>
      </trkpt>
      <trkpt lat="40.187383" lon="-5.143350">
        <ele>2093.0</ele>
        <time>2013-06-30T13:30:47Z</time>
      </trkpt>
      <trkpt lat="40.187367" lon="-5.143517">
        <ele>2094.0</ele>
        <time>2013-06-30T13:30:48Z</time>
      </trkpt>
      <trkpt lat="40.187367" lon="-5.143700">
        <ele>2094.0</ele>
        <time>2013-06-30T13:30:49Z</time>
      </trkpt>
      <trkpt lat="40.187367" lon="-5.143867">
        <ele>2096.0</ele>
        <time>2013-06-30T13:30:50Z</time>
      </trkpt>
      <trkpt lat="40.187367" lon="-5.144000">
        <ele>2100.0</ele>
        <time>2013-06-30T13:30:51Z</time>
      </trkpt>
      <trkpt lat="40.187383" lon="-5.144100">
        <ele>2103.0</ele>
        <time>2013-06-30T13:30:52Z</time>
      </trkpt>
      <trkpt lat="40.187400" lon="-5.144217">
        <ele>2104.0</ele>
        <time>2013-06-30T13:30:53Z</time>
      </trkpt>
      <trkpt lat="40.187450" lon="-5.144350">
        <ele>2104.0</ele>
        <time>2013-06-30T13:30:54Z</time>
      </trkpt>
      <trkpt lat="40.187500" lon="-5.144517">
        <ele>2104.0</ele>
        <time>2013-06-30T13:30:55Z</time>
      </trkpt>
      <trkpt lat="40.187567" lon="-5.144667">
        <ele>2104.0</ele>
        <time>2013-06-30T13:30:56Z</time>
      </trkpt>
      <trkpt lat="40.187633" lon="-5.144783">
        <ele>2104.0</ele>
        <time>2013-06-30T13:30:57Z</time>
      </trkpt>
      <trkpt lat="40.187733" lon="-5.144883">
        <ele>2104.0</ele>
        <time>2013-06-30T13:30:58Z</time>
      </trkpt>
      <trkpt lat="40.187817" lon="-5.144950">
        <ele>2105.0</ele>
        <time>2013-06-30T13:30:59Z</time>
      </trkpt>
      <trkpt lat="40.187917" lon="-5.145017">
        <ele>2106.0</ele>
        <time>2013-06-30T13:31:00Z</time>
      </trkpt>
      <trkpt lat="40.188017" lon="-5.145067">
        <ele>2106.0</ele>
        <time>2013-06-30T13:31:01Z</time>
      </trkpt>
      <trkpt lat="40.188117" lon="-5.145100">
        <ele>2107.0</ele>
        <time>2013-06-30T13:31:02Z</time>
      </trkpt>
      <trkpt lat="40.188200" lon="-5.145133">
        <ele>2108.0</ele>
        <time>2013-06-30T13:31:03Z</time>
      </trkpt>
      <trkpt lat="40.188300" lon="-5.145133">
        <ele>2110.0</ele>
        <time>2013-06-30T13:31:04Z</time>
      </trkpt>
      <trkpt lat="40.188383" lon="-5.145133">
        <ele>2111.0</ele>
        <time>2013-06-30T13:31:05Z</time>
      </trkpt>
      <trkpt lat="40.188533" lon="-5.145117">
        <ele>2114.0</ele>
        <time>2013-06-30T13:31:07Z</time>
      </trkpt>
      <trkpt lat="40.188617" lon="-5.145100">
        <ele>2115.0</ele>
        <time>2013-06-30T13:31:08Z</time>
      </trkpt>
      <trkpt lat="40.188683" lon="-5.145050">
        <ele>2115.0</ele>
        <time>2013-06-30T13:31:09Z</time>
      </trkpt>
      <trkpt lat="40.188750" lon="-5.145000">
        <ele>2116.0</ele>
        <time>2013-06-30T13:31:10Z</time>
      </trkpt>
      <trkpt lat="40.188800" lon="-5.144950">
        <ele>2117.0</ele>
        <time>2013-06-30T13:31:11Z</time>
      </trkpt>
      <trkpt lat="40.188867" lon="-5.144900">
        <ele>2117.0</ele>
        <time>2013-06-30T13:31:12Z</time>
      </trkpt>
      <trkpt lat="40.188933" lon="-5.144850">
        <ele>2118.0</ele>
        <time>2013-06-30T13:31:13Z</time>
      </trkpt>
      <trkpt lat="40.189017" lon="-5.144817">
        <ele>2118.0</ele>
        <time>2013-06-30T13:31:14Z</time>
      </trkpt>
      <trkpt lat="40.189067" lon="-5.144750">
        <ele>2118.0</ele>
        <time>2013-06-30T13:31:15Z</time>
      </trkpt>
      <trkpt lat="40.189150" lon="-5.144650">
        <ele>2120.0</ele>
        <time>2013-06-30T13:31:17Z</time>
      </trkpt>
      <trkpt lat="40.189183" lon="-5.144600">
        <ele>2121.0</ele>
        <time>2013-06-30T13:31:18Z</time>
      </trkpt>
      <trkpt lat="40.189200" lon="-5.144550">
        <ele>2122.0</ele>
        <time>2013-06-30T13:31:19Z</time>
      </trkpt>
      <trkpt lat="40.189233" lon="-5.144483">
        <ele>2123.0</ele>
        <time>2013-06-30T13:31:20Z</time>
      </trkpt>
      <trkpt lat="40.189233" lon="-5.144417">
        <ele>2124.0</ele>
        <time>2013-06-30T13:31:21Z</time>
      </trkpt>
      <trkpt lat="40.189233" lon="-5.144350">
        <ele>2125.0</ele>
        <time>2013-06-30T13:31:22Z</time>
      </trkpt>
      <trkpt lat="40.189183" lon="-5.144133">
        <ele>2133.0</ele>
        <time>2013-06-30T13:31:26Z</time>
      </trkpt>
      <trkpt lat="40.189167" lon="-5.144083">
        <ele>2135.0</ele>
        <time>2013-06-30T13:31:27Z</time>
      </trkpt>
      <trkpt lat="40.189133" lon="-5.144033">
        <ele>2136.0</ele>
        <time>2013-06-30T13:31:28Z</time>
      </trkpt>
      <trkpt lat="40.189100" lon="-5.143983">
        <ele>2137.0</ele>
        <time>2013-06-30T13:31:29Z</time>
      </trkpt>
      <trkpt lat="40.189050" lon="-5.143933">
        <ele>2139.0</ele>
        <time>2013-06-30T13:31:30Z</time>
      </trkpt>
      <trkpt lat="40.189017" lon="-5.143867">
        <ele>2140.0</ele>
        <time>2013-06-30T13:31:31Z</time>
      </trkpt>
      <trkpt lat="40.188967" lon="-5.143817">
        <ele>2141.0</ele>
        <time>2013-06-30T13:31:32Z</time>
      </trkpt>
      <trkpt lat="40.188917" lon="-5.143750">
        <ele>2143.0</ele>
        <time>2013-06-30T13:31:33Z</time>
      </trkpt>
      <trkpt lat="40.188883" lon="-5.143700">
        <ele>2145.0</ele>
        <time>2013-06-30T13:31:34Z</time>
      </trkpt>
      <trkpt lat="40.188833" lon="-5.143667">
        <ele>2148.0</ele>
        <time>2013-06-30T13:31:35Z</time>
      </trkpt>
      <trkpt lat="40.188783" lon="-5.143650">
        <ele>2150.0</ele>
        <time>2013-06-30T13:31:36Z</time>
      </trkpt>
      <trkpt lat="40.188750" lon="-5.143650">
        <ele>2153.0</ele>
        <time>2013-06-30T13:31:37Z</time>
      </trkpt>
      <trkpt lat="40.188700" lon="-5.143650">
        <ele>2155.0</ele>
        <time>2013-06-30T13:31:38Z</time>
      </trkpt>
      <trkpt lat="40.188650" lon="-5.143617">
        <ele>2156.0</ele>
        <time>2013-06-30T13:31:39Z</time>
      </trkpt>
      <trkpt lat="40.188583" lon="-5.143600">
        <ele>2156.0</ele>
        <time>2013-06-30T13:31:40Z</time>
      </trkpt>
      <trkpt lat="40.188517" lon="-5.143583">
        <ele>2157.0</ele>
        <time>2013-06-30T13:31:41Z</time>
      </trkpt>
      <trkpt lat="40.188450" lon="-5.143583">
        <ele>2158.0</ele>
        <time>2013-06-30T13:31:42Z</time>
      </trkpt>
      <trkpt lat="40.188400" lon="-5.143600">
        <ele>2158.0</ele>
        <time>2013-06-30T13:31:43Z</time>
      </trkpt>
      <trkpt lat="40.188333" lon="-5.143633">
        <ele>2159.0</ele>
        <time>2013-06-30T13:31:44Z</time>
      </trkpt>
      <trkpt lat="40.188267" lon="-5.143667">
        <ele>2158.0</ele>
        <time>2013-06-30T13:31:45Z</time>
      </trkpt>
      <trkpt lat="40.188200" lon="-5.143717">
        <ele>2158.0</ele>
        <time>2013-06-30T13:31:46Z</time>
      </trkpt>
      <trkpt lat="40.188117" lon="-5.143767">
        <ele>2158.0</ele>
        <time>2013-06-30T13:31:47Z</time>
      </trkpt>
      <trkpt lat="40.188050" lon="-5.143850">
        <ele>2158.0</ele>
        <time>2013-06-30T13:31:48Z</time>
      </trkpt>
      <trkpt lat="40.187983" lon="-5.143933">
        <ele>2159.0</ele>
        <time>2013-06-30T13:31:49Z</time>
      </trkpt>
      <trkpt lat="40.187933" lon="-5.144050">
        <ele>2160.0</ele>
        <time>2013-06-30T13:31:50Z</time>
      </trkpt>
      <trkpt lat="40.187883" lon="-5.144167">
        <ele>2160.0</ele>
        <time>2013-06-30T13:31:51Z</time>
      </trkpt>
      <trkpt lat="40.187833" lon="-5.144317">
        <ele>2160.0</ele>
        <time>2013-06-30T13:31:52Z</time>
      </trkpt>
      <trkpt lat="40.187800" lon="-5.144467">
        <ele>2159.0</ele>
        <time>2013-06-30T13:31:53Z</time>
      </trkpt>
      <trkpt lat="40.187783" lon="-5.144633">
        <ele>2160.0</ele>
        <time>2013-06-30T13:31:54Z</time>
      </trkpt>
      <trkpt lat="40.187783" lon="-5.144800">
        <ele>2159.0</ele>
        <time>2013-06-30T13:31:55Z</time>
      </trkpt>
      <trkpt lat="40.187800" lon="-5.144967">
        <ele>2160.0</ele>
        <time>2013-06-30T13:31:56Z</time>
      </trkpt>
      <trkpt lat="40.187833" lon="-5.145133">
        <ele>2160.0</ele>
        <time>2013-06-30T13:31:57Z</time>
      </trkpt>
      <trkpt lat="40.187900" lon="-5.145283">
        <ele>2162.0</ele>
        <time>2013-06-30T13:31:58Z</time>
      </trkpt>
      <trkpt lat="40.187967" lon="-5.145400">
        <ele>2165.0</ele>
        <time>2013-06-30T13:31:59Z</time>
      </trkpt>
      <trkpt lat="40.188033" lon="-5.145517">
        <ele>2167.0</ele>
        <time>2013-06-30T13:32:00Z</time>
      </trkpt>
      <trkpt lat="40.188117" lon="-5.145617">
        <ele>2170.0</ele>
        <time>2013-06-30T13:32:01Z</time>
      </trkpt>
      <trkpt lat="40.188200" lon="-5.145717">
        <ele>2172.0</ele>
        <time>2013-06-30T13:32:02Z</time>
      </trkpt>
      <trkpt lat="40.188283" lon="-5.145783">
        <ele>2174.0</ele>
        <time>2013-06-30T13:32:03Z</time>
      </trkpt>
      <trkpt lat="40.188367" lon="-5.145850">
        <ele>2175.0</ele>
        <time>2013-06-30T13:32:04Z</time>
      </trkpt>
      <trkpt lat="40.188467" lon="-5.145883">
        <ele>2177.0</ele>
        <time>2013-06-30T13:32:05Z</time>
      </trkpt>
      <trkpt lat="40.188550" lon="-5.145900">
        <ele>2177.0</ele>
        <time>2013-06-30T13:32:06Z</time>
      </trkpt>
      <trkpt lat="40.188650" lon="-5.145900">
        <ele>2178.0</ele>
        <time>2013-06-30T13:32:07Z</time>
      </trkpt>
      <trkpt lat="40.188750" lon="-5.145917">
        <ele>2180.0</ele>
        <time>2013-06-30T13:32:08Z</time>
      </trkpt>
      <trkpt lat="40.188817" lon="-5.145933">
        <ele>2181.0</ele>
        <time>2013-06-30T13:32:09Z</time>
      </trkpt>
      <trkpt lat="40.188900" lon="-5.145950">
        <ele>2182.0</ele>
        <time>2013-06-30T13:32:10Z</time>
      </trkpt>
      <trkpt lat="40.188967" lon="-5.145967">
        <ele>2182.0</ele>
        <time>2013-06-30T13:32:11Z</time>
      </trkpt>
      <trkpt lat="40.189067" lon="-5.145950">
        <ele>2182.0</ele>
        <time>2013-06-30T13:32:12Z</time>
      </trkpt>
      <trkpt lat="40.189150" lon="-5.145917">
        <ele>2182.0</ele>
        <time>2013-06-30T13:32:13Z</time>
      </trkpt>
      <trkpt lat="40.189233" lon="-5.145850">
        <ele>2181.0</ele>
        <time>2013-06-30T13:32:14Z</time>
      </trkpt>
      <trkpt lat="40.189317" lon="-5.145800">
        <ele>2181.0</ele>
        <time>2013-06-30T13:32:15Z</time>
      </trkpt>
      <trkpt lat="40.189367" lon="-5.145733">
        <ele>2182.0</ele>
        <time>2013-06-30T13:32:16Z</time>
      </trkpt>
      <trkpt lat="40.189433" lon="-5.145683">
        <ele>2183.0</ele>
        <time>2013-06-30T13:32:17Z</time>
      </trkpt>
      <trkpt lat="40.189467" lon="-5.145617">
        <ele>2184.0</ele>
        <time>2013-06-30T13:32:18Z</time>
      </trkpt>
      <trkpt lat="40.189517" lon="-5.145550">
        <ele>2185.0</ele>
        <time>2013-06-30T13:32:19Z</time>
      </trkpt>
      <trkpt lat="40.189567" lon="-5.145483">
        <ele>2186.0</ele>
        <time>2013-06-30T13:32:20Z</time>
      </trkpt>
      <trkpt lat="40.189617" lon="-5.145400">
        <ele>2186.0</ele>
        <time>2013-06-30T13:32:21Z</time>
      </trkpt>
      <trkpt lat="40.189683" lon="-5.145233">
        <ele>2188.0</ele>
        <time>2013-06-30T13:32:23Z</time>
      </trkpt>
      <trkpt lat="40.189700" lon="-5.145150">
        <ele>2189.0</ele>
        <time>2013-06-30T13:32:24Z</time>
      </trkpt>
      <trkpt lat="40.189717" lon="-5.145083">
        <ele>2192.0</ele>
        <time>2013-06-30T13:32:25Z</time>
      </trkpt>
      <trkpt lat="40.189733" lon="-5.145017">
        <ele>2193.0</ele>
        <time>2013-06-30T13:32:26Z</time>
      </trkpt>
      <trkpt lat="40.189750" lon="-5.144950">
        <ele>2195.0</ele>
        <time>2013-06-30T13:32:27Z</time>
      </trkpt>
      <trkpt lat="40.189750" lon="-5.144867">
        <ele>2196.0</ele>
        <time>2013-06-30T13:32:28Z</time>
      </trkpt>
      <trkpt lat="40.189750" lon="-5.144783">
        <ele>2197.0</ele>
        <time>2013-06-30T13:32:29Z</time>
      </trkpt>
      <trkpt lat="40.189733" lon="-5.144700">
        <ele>2197.0</ele>
        <time>2013-06-30T13:32:30Z</time>
      </trkpt>
      <trkpt lat="40.189700" lon="-5.144650">
        <ele>2198.0</ele>
        <time>2013-06-30T13:32:31Z</time>
      </trkpt>
      <trkpt lat="40.189650" lon="-5.144617">
        <ele>2199.0</ele>
        <time>2013-06-30T13:32:32Z</time>
      </trkpt>
      <trkpt lat="40.189617" lon="-5.144583">
        <ele>2200.0</ele>
        <time>2013-06-30T13:32:33Z</time>
      </trkpt>
      <trkpt lat="40.189583" lon="-5.144567">
        <ele>2201.0</ele>
        <time>2013-06-30T13:32:34Z</time>
      </trkpt>
      <trkpt lat="40.189533" lon="-5.144533">
        <ele>2201.0</ele>
        <time>2013-06-30T13:32:35Z</time>
      </trkpt>
      <trkpt lat="40.189467" lon="-5.144500">
        <ele>2201.0</ele>
        <time>2013-06-30T13:32:36Z</time>
      </trkpt>
      <trkpt lat="40.189383" lon="-5.144467">
        <ele>2202.0</ele>
        <time>2013-06-30T13:32:37Z</time>
      </trkpt>
      <trkpt lat="40.189317" lon="-5.144467">
        <ele>2203.0</ele>
        <time>2013-06-30T13:32:38Z</time>
      </trkpt>
      <trkpt lat="40.189233" lon="-5.144483">
        <ele>2204.0</ele>
        <time>2013-06-30T13:32:39Z</time>
      </trkpt>
      <trkpt lat="40.189150" lon="-5.144517">
        <ele>2205.0</ele>
        <time>2013-06-30T13:32:40Z</time>
      </trkpt>
      <trkpt lat="40.189067" lon="-5.144550">
        <ele>2206.0</ele>
        <time>2013-06-30T13:32:41Z</time>
      </trkpt>
      <trkpt lat="40.189000" lon="-5.144617">
        <ele>2208.0</ele>
        <time>2013-06-30T13:32:42Z</time>
      </trkpt>
      <trkpt lat="40.188933" lon="-5.144700">
        <ele>2210.0</ele>
        <time>2013-06-30T13:32:43Z</time>
      </trkpt>
      <trkpt lat="40.188883" lon="-5.144783">
        <ele>2212.0</ele>
        <time>2013-06-30T13:32:44Z</time>
      </trkpt>
      <trkpt lat="40.188833" lon="-5.144850">
        <ele>2214.0</ele>
        <time>2013-06-30T13:32:45Z</time>
      </trkpt>
      <trkpt lat="40.188783" lon="-5.144917">
        <ele>2215.0</ele>
        <time>2013-06-30T13:32:46Z</time>
      </trkpt>
      <trkpt lat="40.188717" lon="-5.145000">
        <ele>2215.0</ele>
        <time>2013-06-30T13:32:47Z</time>
      </trkpt>
      <trkpt lat="40.188667" lon="-5.145117">
        <ele>2215.0</ele>
        <time>2013-06-30T13:32:48Z</time>
      </trkpt>
      <trkpt lat="40.188617" lon="-5.145250">
        <ele>2213.0</ele>
        <time>2013-06-30T13:32:49Z</time>
      </trkpt>
      <trkpt lat="40.188600" lon="-5.145383">
        <ele>2213.0</ele>
        <time>2013-06-30T13:32:50Z</time>
      </trkpt>
      <trkpt lat="40.188583" lon="-5.145500">
        <ele>2214.0</ele>
        <time>2013-06-30T13:32:51Z</time>
      </trkpt>
      <trkpt lat="40.188567" lon="-5.145617">
        <ele>2214.0</ele>
        <time>2013-06-30T13:32:52Z</time>
      </trkpt>
      <trkpt lat="40.188550" lon="-5.145750">
        <ele>2214.0</ele>
        <time>2013-06-30T13:32:53Z</time>
      </trkpt>
      <trkpt lat="40.188533" lon="-5.145883">
        <ele>2214.0</ele>
        <time>2013-06-30T13:32:54Z</time>
      </trkpt>
      <trkpt lat="40.188517" lon="-5.146033">
        <ele>2214.0</ele>
        <time>2013-06-30T13:32:55Z</time>
      </trkpt>
      <trkpt lat="40.188483" lon="-5.146183">
        <ele>2214.0</ele>
        <time>2013-06-30T13:32:56Z</time>
      </trkpt>
      <trkpt lat="40.188450" lon="-5.146300">
        <ele>2216.0</ele>
        <time>2013-06-30T13:32:57Z</time>
      </trkpt>
      <trkpt lat="40.188433" lon="-5.146417">
        <ele>2217.0</ele>
        <time>2013-06-30T13:32:58Z</time>
      </trkpt>
      <trkpt lat="40.188417" lon="-5.146517">
        <ele>2217.0</ele>
        <time>2013-06-30T13:32:59Z</time>
      </trkpt>
      <trkpt lat="40.188400" lon="-5.146650">
        <ele>2218.0</ele>
        <time>2013-06-30T13:33:00Z</time>
      </trkpt>
      <trkpt lat="40.188383" lon="-5.146783">
        <ele>2217.0</ele>
        <time>2013-06-30T13:33:01Z</time>
      </trkpt>
      <trkpt lat="40.188350" lon="-5.146917">
        <ele>2217.0</ele>
        <time>2013-06-30T13:33:02Z</time>
      </trkpt>
      <trkpt lat="40.188300" lon="-5.147083">
        <ele>2217.0</ele>
        <time>2013-06-30T13:33:03Z</time>
      </trkpt>
      <trkpt lat="40.188283" lon="-5.147250">
        <ele>2219.0</ele>
        <time>2013-06-30T13:33:04Z</time>
      </trkpt>
      <trkpt lat="40.188283" lon="-5.147383">
        <ele>2221.0</ele>
        <time>2013-06-30T13:33:05Z</time>
      </trkpt>
      <trkpt lat="40.188283" lon="-5.147517">
        <ele>2224.0</ele>
        <time>2013-06-30T13:33:06Z</time>
      </trkpt>
      <trkpt lat="40.188300" lon="-5.147667">
        <ele>2226.0</ele>
        <time>2013-06-30T13:33:07Z</time>
      </trkpt>
      <trkpt lat="40.188300" lon="-5.147817">
        <ele>2227.0</ele>
        <time>2013-06-30T13:33:08Z</time>
      </trkpt>
      <trkpt lat="40.188317" lon="-5.147983">
        <ele>2228.0</ele>
        <time>2013-06-30T13:33:09Z</time>
      </trkpt>
      <trkpt lat="40.188333" lon="-5.148167">
        <ele>2228.0</ele>
        <time>2013-06-30T13:33:10Z</time>
      </trkpt>
      <trkpt lat="40.188350" lon="-5.148333">
        <ele>2231.0</ele>
        <time>2013-06-30T13:33:11Z</time>
      </trkpt>
      <trkpt lat="40.188400" lon="-5.148467">
        <ele>2234.0</ele>
        <time>2013-06-30T13:33:12Z</time>
      </trkpt>
      <trkpt lat="40.188467" lon="-5.148583">
        <ele>2235.0</ele>
        <time>2013-06-30T13:33:13Z</time>
      </trkpt>
      <trkpt lat="40.188533" lon="-5.148700">
        <ele>2236.0</ele>
        <time>2013-06-30T13:33:14Z</time>
      </trkpt>
      <trkpt lat="40.188617" lon="-5.148800">
        <ele>2237.0</ele>
        <time>2013-06-30T13:33:15Z</time>
      </trkpt>
      <trkpt lat="40.188700" lon="-5.148883">
        <ele>2238.0</ele>
        <time>2013-06-30T13:33:16Z</time>
      </trkpt>
      <trkpt lat="40.188783" lon="-5.148933">
        <ele>2239.0</ele>
        <time>2013-06-30T13:33:17Z</time>
      </trkpt>
      <trkpt lat="40.188883" lon="-5.148983">
        <ele>2239.0</ele>
        <time>2013-06-30T13:33:18Z</time>
      </trkpt>
      <trkpt lat="40.188967" lon="-5.148983">
        <ele>2239.0</ele>
        <time>2013-06-30T13:33:19Z</time>
      </trkpt>
      <trkpt lat="40.189050" lon="-5.148983">
        <ele>2239.0</ele>
        <time>2013-06-30T13:33:20Z</time>
      </trkpt>
      <trkpt lat="40.189133" lon="-5.148967">
        <ele>2239.0</ele>
        <time>2013-06-30T13:33:21Z</time>
      </trkpt>
      <trkpt lat="40.189200" lon="-5.148967">
        <ele>2239.0</ele>
        <time>2013-06-30T13:33:22Z</time>
      </trkpt>
      <trkpt lat="40.189317" lon="-5.148933">
        <ele>2238.0</ele>
        <time>2013-06-30T13:33:24Z</time>
      </trkpt>
      <trkpt lat="40.189383" lon="-5.148883">
        <ele>2236.0</ele>
        <time>2013-06-30T13:33:25Z</time>
      </trkpt>
      <trkpt lat="40.189483" lon="-5.148750">
        <ele>2232.0</ele>
        <time>2013-06-30T13:33:27Z</time>
      </trkpt>
      <trkpt lat="40.189517" lon="-5.148633">
        <ele>2231.0</ele>
        <time>2013-06-30T13:33:29Z</time>
      </trkpt>
      <trkpt lat="40.189517" lon="-5.148567">
        <ele>2230.0</ele>
        <time>2013-06-30T13:33:30Z</time>
      </trkpt>
      <trkpt lat="40.189517" lon="-5.148500">
        <ele>2228.0</ele>
        <time>2013-06-30T13:33:31Z</time>
      </trkpt>
      <trkpt lat="40.189500" lon="-5.148417">
        <ele>2226.0</ele>
        <time>2013-06-30T13:33:32Z</time>
      </trkpt>
      <trkpt lat="40.189467" lon="-5.148350">
        <ele>2224.0</ele>
        <time>2013-06-30T13:33:33Z</time>
      </trkpt>
      <trkpt lat="40.189417" lon="-5.148317">
        <ele>2222.0</ele>
        <time>2013-06-30T13:33:34Z</time>
      </trkpt>
      <trkpt lat="40.189350" lon="-5.148300">
        <ele>2220.0</ele>
        <time>2013-06-30T13:33:35Z</time>
      </trkpt>
      <trkpt lat="40.189267" lon="-5.148300">
        <ele>2218.0</ele>
        <time>2013-06-30T13:33:36Z</time>
      </trkpt>
      <trkpt lat="40.189200" lon="-5.148300">
        <ele>2216.0</ele>
        <time>2013-06-30T13:33:37Z</time>
      </trkpt>
      <trkpt lat="40.189133" lon="-5.148300">
        <ele>2215.0</ele>
        <time>2013-06-30T13:33:38Z</time>
      </trkpt>
      <trkpt lat="40.189083" lon="-5.148317">
        <ele>2214.0</ele>
        <time>2013-06-30T13:33:39Z</time>
      </trkpt>
      <trkpt lat="40.189033" lon="-5.148367">
        <ele>2213.0</ele>
        <time>2013-06-30T13:33:40Z</time>
      </trkpt>
      <trkpt lat="40.188967" lon="-5.148400">
        <ele>2213.0</ele>
        <time>2013-06-30T13:33:41Z</time>
      </trkpt>
      <trkpt lat="40.188900" lon="-5.148433">
        <ele>2213.0</ele>
        <time>2013-06-30T13:33:42Z</time>
      </trkpt>
      <trkpt lat="40.188833" lon="-5.148483">
        <ele>2213.0</ele>
        <time>2013-06-30T13:33:43Z</time>
      </trkpt>
      <trkpt lat="40.188767" lon="-5.148533">
        <ele>2213.0</ele>
        <time>2013-06-30T13:33:44Z</time>
      </trkpt>
      <trkpt lat="40.188700" lon="-5.148600">
        <ele>2213.0</ele>
        <time>2013-06-30T13:33:45Z</time>
      </trkpt>
      <trkpt lat="40.188633" lon="-5.148667">
        <ele>2214.0</ele>
        <time>2013-06-30T13:33:46Z</time>
      </trkpt>
      <trkpt lat="40.188567" lon="-5.148767">
        <ele>2215.0</ele>
        <time>2013-06-30T13:33:47Z</time>
      </trkpt>
      <trkpt lat="40.188500" lon="-5.148867">
        <ele>2215.0</ele>
        <time>2013-06-30T13:33:48Z</time>
      </trkpt>
      <trkpt lat="40.188433" lon="-5.148967">
        <ele>2215.0</ele>
        <time>2013-06-30T13:33:49Z</time>
      </trkpt>
      <trkpt lat="40.188350" lon="-5.149050">
        <ele>2216.0</ele>
        <time>2013-06-30T13:33:50Z</time>
      </trkpt>
      <trkpt lat="40.188300" lon="-5.149150">
        <ele>2218.0</ele>
        <time>2013-06-30T13:33:51Z</time>
      </trkpt>
      <trkpt lat="40.188250" lon="-5.149250">
        <ele>2221.0</ele>
        <time>2013-06-30T13:33:52Z</time>
      </trkpt>
      <trkpt lat="40.188217" lon="-5.149367">
        <ele>2223.0</ele>
        <time>2013-06-30T13:33:53Z</time>
      </trkpt>
      <trkpt lat="40.188200" lon="-5.149517">
        <ele>2224.0</ele>
        <time>2013-06-30T13:33:54Z</time>
      </trkpt>
      <trkpt lat="40.188200" lon="-5.149683">
        <ele>2226.0</ele>
        <time>2013-06-30T13:33:55Z</time>
      </trkpt>
      <trkpt lat="40.188250" lon="-5.149817">
        <ele>2227.0</ele>
        <time>2013-06-30T13:33:56Z</time>
      </trkpt>
      <trkpt lat="40.188317" lon="-5.149917">
        <ele>2229.0</ele>
        <time>2013-06-30T13:33:57Z</time>
      </trkpt>
      <trkpt lat="40.188400" lon="-5.149983">
        <ele>2230.0</ele>
        <time>2013-06-30T13:33:58Z</time>
      </trkpt>
      <trkpt lat="40.188467" lon="-5.150017">
        <ele>2233.0</ele>
        <time>2013-06-30T13:33:59Z</time>
      </trkpt>
      <trkpt lat="40.188550" lon="-5.150050">
        <ele>2235.0</ele>
        <time>2013-06-30T13:34:00Z</time>
      </trkpt>
      <trkpt lat="40.188633" lon="-5.150067">
        <ele>2236.0</ele>
        <time>2013-06-30T13:34:01Z</time>
      </trkpt>
      <trkpt lat="40.188783" lon="-5.150050">
        <ele>2237.0</ele>
        <time>2013-06-30T13:34:03Z</time>
      </trkpt>
      <trkpt lat="40.188850" lon="-5.149983">
        <ele>2236.0</ele>
        <time>2013-06-30T13:34:04Z</time>
      </trkpt>
      <trkpt lat="40.188900" lon="-5.149917">
        <ele>2235.0</ele>
        <time>2013-06-30T13:34:05Z</time>
      </trkpt>
      <trkpt lat="40.188950" lon="-5.149833">
        <ele>2234.0</ele>
        <time>2013-06-30T13:34:06Z</time>
      </trkpt>
      <trkpt lat="40.188967" lon="-5.149767">
        <ele>2234.0</ele>
        <time>2013-06-30T13:34:07Z</time>
      </trkpt>
      <trkpt lat="40.188983" lon="-5.149700">
        <ele>2234.0</ele>
        <time>2013-06-30T13:34:08Z</time>
      </trkpt>
      <trkpt lat="40.188983" lon="-5.149633">
        <ele>2234.0</ele>
        <time>2013-06-30T13:34:09Z</time>
      </trkpt>
      <trkpt lat="40.188950" lon="-5.149550">
        <ele>2234.0</ele>
        <time>2013-06-30T13:34:10Z</time>
      </trkpt>
      <trkpt lat="40.188917" lon="-5.149483">
        <ele>2233.0</ele>
        <time>2013-06-30T13:34:11Z</time>
      </trkpt>
      <trkpt lat="40.188867" lon="-5.149417">
        <ele>2233.0</ele>
        <time>2013-06-30T13:34:12Z</time>
      </trkpt>
      <trkpt lat="40.188800" lon="-5.149383">
        <ele>2233.0</ele>
        <time>2013-06-30T13:34:13Z</time>
      </trkpt>
      <trkpt lat="40.188717" lon="-5.149367">
        <ele>2234.0</ele>
        <time>2013-06-30T13:34:14Z</time>
      </trkpt>
      <trkpt lat="40.188633" lon="-5.149383">
        <ele>2235.0</ele>
        <time>2013-06-30T13:34:15Z</time>
      </trkpt>
      <trkpt lat="40.188533" lon="-5.149417">
        <ele>2236.0</ele>
        <time>2013-06-30T13:34:16Z</time>
      </trkpt>
      <trkpt lat="40.188450" lon="-5.149450">
        <ele>2237.0</ele>
        <time>2013-06-30T13:34:17Z</time>
      </trkpt>
      <trkpt lat="40.188367" lon="-5.149500">
        <ele>2238.0</ele>
        <time>2013-06-30T13:34:18Z</time>
      </trkpt>
      <trkpt lat="40.188283" lon="-5.149533">
        <ele>2239.0</ele>
        <time>2013-06-30T13:34:19Z</time>
      </trkpt>
      <trkpt lat="40.188200" lon="-5.149583">
        <ele>2239.0</ele>
        <time>2013-06-30T13:34:20Z</time>
      </trkpt>
      <trkpt lat="40.188100" lon="-5.149633">
        <ele>2239.0</ele>
        <time>2013-06-30T13:34:21Z</time>
      </trkpt>
      <trkpt lat="40.188017" lon="-5.149717">
        <ele>2239.0</ele>
        <time>2013-06-30T13:34:22Z</time>
      </trkpt>
      <trkpt lat="40.187933" lon="-5.149800">
        <ele>2240.0</ele>
        <time>2013-06-30T13:34:23Z</time>
      </trkpt>
      <trkpt lat="40.187850" lon="-5.149883">
        <ele>2241.0</ele>
        <time>2013-06-30T13:34:24Z</time>
      </trkpt>
      <trkpt lat="40.187767" lon="-5.149983">
        <ele>2242.0</ele>
        <time>2013-06-30T13:34:25Z</time>
      </trkpt>
      <trkpt lat="40.187700" lon="-5.150067">
        <ele>2244.0</ele>
        <time>2013-06-30T13:34:26Z</time>
      </trkpt>
      <trkpt lat="40.187633" lon="-5.150167">
        <ele>2245.0</ele>
        <time>2013-06-30T13:34:27Z</time>
      </trkpt>
      <trkpt lat="40.187567" lon="-5.150283">
        <ele>2247.0</ele>
        <time>2013-06-30T13:34:28Z</time>
      </trkpt>
      <trkpt lat="40.187517" lon="-5.150417">
        <ele>2248.0</ele>
        <time>2013-06-30T13:34:29Z</time>
      </trkpt>
      <trkpt lat="40.187483" lon="-5.150567">
        <ele>2250.0</ele>
        <time>2013-06-30T13:34:30Z</time>
      </trkpt>
      <trkpt lat="40.187433" lon="-5.150700">
        <ele>2253.0</ele>
        <time>2013-06-30T13:34:31Z</time>
      </trkpt>
      <trkpt lat="40.187400" lon="-5.150833">
        <ele>2254.0</ele>
        <time>2013-06-30T13:34:32Z</time>
      </trkpt>
      <trkpt lat="40.187367" lon="-5.150983">
        <ele>2256.0</ele>
        <time>2013-06-30T13:34:33Z</time>
      </trkpt>
      <trkpt lat="40.187317" lon="-5.151133">
        <ele>2258.0</ele>
        <time>2013-06-30T13:34:34Z</time>
      </trkpt>
      <trkpt lat="40.187267" lon="-5.151283">
        <ele>2259.0</ele>
        <time>2013-06-30T13:34:35Z</time>
      </trkpt>
      <trkpt lat="40.187217" lon="-5.151433">
        <ele>2261.0</ele>
        <time>2013-06-30T13:34:36Z</time>
      </trkpt>
      <trkpt lat="40.187167" lon="-5.151583">
        <ele>2262.0</ele>
        <time>2013-06-30T13:34:37Z</time>
      </trkpt>
      <trkpt lat="40.187133" lon="-5.151733">
        <ele>2264.0</ele>
        <time>2013-06-30T13:34:38Z</time>
      </trkpt>
      <trkpt lat="40.187100" lon="-5.151883">
        <ele>2265.0</ele>
        <time>2013-06-30T13:34:39Z</time>
      </trkpt>
      <trkpt lat="40.187067" lon="-5.152167">
        <ele>2268.0</ele>
        <time>2013-06-30T13:34:41Z</time>
      </trkpt>
      <trkpt lat="40.187050" lon="-5.152333">
        <ele>2268.0</ele>
        <time>2013-06-30T13:34:42Z</time>
      </trkpt>
      <trkpt lat="40.187067" lon="-5.152517">
        <ele>2267.0</ele>
        <time>2013-06-30T13:34:43Z</time>
      </trkpt>
      <trkpt lat="40.187083" lon="-5.152683">
        <ele>2268.0</ele>
        <time>2013-06-30T13:34:44Z</time>
      </trkpt>
      <trkpt lat="40.187117" lon="-5.152817">
        <ele>2270.0</ele>
        <time>2013-06-30T13:34:45Z</time>
      </trkpt>
      <trkpt lat="40.187167" lon="-5.152950">
        <ele>2271.0</ele>
        <time>2013-06-30T13:34:46Z</time>
      </trkpt>
      <trkpt lat="40.187217" lon="-5.153050">
        <ele>2271.0</ele>
        <time>2013-06-30T13:34:47Z</time>
      </trkpt>
      <trkpt lat="40.187283" lon="-5.153150">
        <ele>2271.0</ele>
        <time>2013-06-30T13:34:48Z</time>
      </trkpt>
      <trkpt lat="40.187367" lon="-5.153233">
        <ele>2270.0</ele>
        <time>2013-06-30T13:34:49Z</time>
      </trkpt>
      <trkpt lat="40.187450" lon="-5.153317">
        <ele>2269.0</ele>
        <time>2013-06-30T13:34:50Z</time>
      </trkpt>
      <trkpt lat="40.187533" lon="-5.153367">
        <ele>2270.0</ele>
        <time>2013-06-30T13:34:51Z</time>
      </trkpt>
      <trkpt lat="40.187617" lon="-5.153400">
        <ele>2271.0</ele>
        <time>2013-06-30T13:34:52Z</time>
      </trkpt>
      <trkpt lat="40.187683" lon="-5.153400">
        <ele>2272.0</ele>
        <time>2013-06-30T13:34:53Z</time>
      </trkpt>
      <trkpt lat="40.187750" lon="-5.153400">
        <ele>2273.0</ele>
        <time>2013-06-30T13:34:54Z</time>
      </trkpt>
      <trkpt lat="40.187883" lon="-5.153350">
        <ele>2272.0</ele>
        <time>2013-06-30T13:34:56Z</time>
      </trkpt>
      <trkpt lat="40.187950" lon="-5.153300">
        <ele>2272.0</ele>
        <time>2013-06-30T13:34:57Z</time>
      </trkpt>
      <trkpt lat="40.188000" lon="-5.153250">
        <ele>2272.0</ele>
        <time>2013-06-30T13:34:58Z</time>
      </trkpt>
      <trkpt lat="40.188033" lon="-5.153200">
        <ele>2273.0</ele>
        <time>2013-06-30T13:34:59Z</time>
      </trkpt>
      <trkpt lat="40.188067" lon="-5.153133">
        <ele>2273.0</ele>
        <time>2013-06-30T13:35:00Z</time>
      </trkpt>
      <trkpt lat="40.188100" lon="-5.152983">
        <ele>2273.0</ele>
        <time>2013-06-30T13:35:02Z</time>
      </trkpt>
      <trkpt lat="40.188100" lon="-5.152883">
        <ele>2273.0</ele>
        <time>2013-06-30T13:35:03Z</time>
      </trkpt>
      <trkpt lat="40.188083" lon="-5.152800">
        <ele>2273.0</ele>
        <time>2013-06-30T13:35:04Z</time>
      </trkpt>
      <trkpt lat="40.188067" lon="-5.152717">
        <ele>2275.0</ele>
        <time>2013-06-30T13:35:05Z</time>
      </trkpt>
      <trkpt lat="40.188033" lon="-5.152650">
        <ele>2276.0</ele>
        <time>2013-06-30T13:35:06Z</time>
      </trkpt>
      <trkpt lat="40.188000" lon="-5.152600">
        <ele>2278.0</ele>
        <time>2013-06-30T13:35:07Z</time>
      </trkpt>
      <trkpt lat="40.187950" lon="-5.152533">
        <ele>2279.0</ele>
        <time>2013-06-30T13:35:08Z</time>
      </trkpt>
      <trkpt lat="40.187900" lon="-5.152467">
        <ele>2280.0</ele>
        <time>2013-06-30T13:35:09Z</time>
      </trkpt>
      <trkpt lat="40.187833" lon="-5.152417">
        <ele>2280.0</ele>
        <time>2013-06-30T13:35:10Z</time>
      </trkpt>
      <trkpt lat="40.187767" lon="-5.152400">
        <ele>2282.0</ele>
        <time>2013-06-30T13:35:11Z</time>
      </trkpt>
      <trkpt lat="40.187700" lon="-5.152383">
        <ele>2283.0</ele>
        <time>2013-06-30T13:35:12Z</time>
      </trkpt>
      <trkpt lat="40.187633" lon="-5.152367">
        <ele>2284.0</ele>
        <time>2013-06-30T13:35:13Z</time>
      </trkpt>
      <trkpt lat="40.187550" lon="-5.152367">
        <ele>2284.0</ele>
        <time>2013-06-30T13:35:14Z</time>
      </trkpt>
      <trkpt lat="40.187467" lon="-5.152383">
        <ele>2285.0</ele>
        <time>2013-06-30T13:35:15Z</time>
      </trkpt>
      <trkpt lat="40.187367" lon="-5.152400">
        <ele>2285.0</ele>
        <time>2013-06-30T13:35:16Z</time>
      </trkpt>
      <trkpt lat="40.187283" lon="-5.152433">
        <ele>2287.0</ele>
        <time>2013-06-30T13:35:17Z</time>
      </trkpt>
      <trkpt lat="40.187217" lon="-5.152500">
        <ele>2289.0</ele>
        <time>2013-06-30T13:35:18Z</time>
      </trkpt>
      <trkpt lat="40.187133" lon="-5.152567">
        <ele>2290.0</ele>
        <time>2013-06-30T13:35:19Z</time>
      </trkpt>
      <trkpt lat="40.187050" lon="-5.152650">
        <ele>2291.0</ele>
        <time>2013-06-30T13:35:20Z</time>
      </trkpt>
      <trkpt lat="40.186900" lon="-5.152850">
        <ele>2294.0</ele>
        <time>2013-06-30T13:35:22Z</time>
      </trkpt>
      <trkpt lat="40.186817" lon="-5.152983">
        <ele>2295.0</ele>
        <time>2013-06-30T13:35:23Z</time>
      </trkpt>
      <trkpt lat="40.186750" lon="-5.153117">
        <ele>2298.0</ele>
        <time>2013-06-30T13:35:24Z</time>
      </trkpt>
      <trkpt lat="40.186683" lon="-5.153250">
        <ele>2300.0</ele>
        <time>2013-06-30T13:35:25Z</time>
      </trkpt>
      <trkpt lat="40.186650" lon="-5.153400">
        <ele>2302.0</ele>
        <time>2013-06-30T13:35:26Z</time>
      </trkpt>
      <trkpt lat="40.186617" lon="-5.153550">
        <ele>2304.0</ele>
        <time>2013-06-30T13:35:27Z</time>
      </trkpt>
      <trkpt lat="40.186600" lon="-5.153700">
        <ele>2305.0</ele>
        <time>2013-06-30T13:35:28Z</time>
      </trkpt>
      <trkpt lat="40.186583" lon="-5.153850">
        <ele>2305.0</ele>
        <time>2013-06-30T13:35:29Z</time>
      </trkpt>
      <trkpt lat="40.186600" lon="-5.154017">
        <ele>2306.0</ele>
        <time>2013-06-30T13:35:30Z</time>
      </trkpt>
      <trkpt lat="40.186617" lon="-5.154167">
        <ele>2306.0</ele>
        <time>2013-06-30T13:35:31Z</time>
      </trkpt>
      <trkpt lat="40.186650" lon="-5.154300">
        <ele>2308.0</ele>
        <time>2013-06-30T13:35:32Z</time>
      </trkpt>
      <trkpt lat="40.186700" lon="-5.154417">
        <ele>2309.0</ele>
        <time>2013-06-30T13:35:33Z</time>
      </trkpt>
      <trkpt lat="40.186750" lon="-5.154517">
        <ele>2310.0</ele>
        <time>2013-06-30T13:35:34Z</time>
      </trkpt>
      <trkpt lat="40.186817" lon="-5.154600">
        <ele>2311.0</ele>
        <time>2013-06-30T13:35:35Z</time>
      </trkpt>
      <trkpt lat="40.186883" lon="-5.154667">
        <ele>2312.0</ele>
        <time>2013-06-30T13:35:36Z</time>
      </trkpt>
      <trkpt lat="40.186967" lon="-5.154717">
        <ele>2313.0</ele>
        <time>2013-06-30T13:35:37Z</time>
      </trkpt>
      <trkpt lat="40.187033" lon="-5.154750">
        <ele>2314.0</ele>
        <time>2013-06-30T13:35:38Z</time>
      </trkpt>
      <trkpt lat="40.187100" lon="-5.154767">
        <ele>2315.0</ele>
        <time>2013-06-30T13:35:39Z</time>
      </trkpt>
      <trkpt lat="40.187150" lon="-5.154750">
        <ele>2315.0</ele>
        <time>2013-06-30T13:35:40Z</time>
      </trkpt>
      <trkpt lat="40.187267" lon="-5.154683">
        <ele>2315.0</ele>
        <time>2013-06-30T13:35:42Z</time>
      </trkpt>
      <trkpt lat="40.187300" lon="-5.154633">
        <ele>2315.0</ele>
        <time>2013-06-30T13:35:43Z</time>
      </trkpt>
      <trkpt lat="40.187317" lon="-5.154600">
        <ele>2316.0</ele>
        <time>2013-06-30T13:35:44Z</time>
      </trkpt>
      <trkpt lat="40.187317" lon="-5.154483">
        <ele>2317.0</ele>
        <time>2013-06-30T13:35:46Z</time>
      </trkpt>
      <trkpt lat="40.187300" lon="-5.154417">
        <ele>2317.0</ele>
        <time>2013-06-30T13:35:47Z</time>
      </trkpt>
      <trkpt lat="40.187267" lon="-5.154333">
        <ele>2317.0</ele>
        <time>2013-06-30T13:35:48Z</time>
      </trkpt>
      <trkpt lat="40.187217" lon="-5.154267">
        <ele>2317.0</ele>
        <time>2013-06-30T13:35:49Z</time>
      </trkpt>
      <trkpt lat="40.187150" lon="-5.154233">
        <ele>2318.0</ele>
        <time>2013-06-30T13:35:50Z</time>
      </trkpt>
      <trkpt lat="40.187083" lon="-5.154200">
        <ele>2319.0</ele>
        <time>2013-06-30T13:35:51Z</time>
      </trkpt>
      <trkpt lat="40.187000" lon="-5.154183">
        <ele>2319.0</ele>
        <time>2013-06-30T13:35:52Z</time>
      </trkpt>
      <trkpt lat="40.186917" lon="-5.154183">
        <ele>2320.0</ele>
        <time>2013-06-30T13:35:53Z</time>
      </trkpt>
      <trkpt lat="40.186817" lon="-5.154200">
        <ele>2322.0</ele>
        <time>2013-06-30T13:35:54Z</time>
      </trkpt>
      <trkpt lat="40.186717" lon="-5.154217">
        <ele>2322.0</ele>
        <time>2013-06-30T13:35:55Z</time>
      </trkpt>
      <trkpt lat="40.186617" lon="-5.154250">
        <ele>2323.0</ele>
        <time>2013-06-30T13:35:56Z</time>
      </trkpt>
      <trkpt lat="40.186533" lon="-5.154267">
        <ele>2323.0</ele>
        <time>2013-06-30T13:35:57Z</time>
      </trkpt>
      <trkpt lat="40.186450" lon="-5.154250">
        <ele>2324.0</ele>
        <time>2013-06-30T13:35:58Z</time>
      </trkpt>
      <trkpt lat="40.186367" lon="-5.154267">
        <ele>2325.0</ele>
        <time>2013-06-30T13:35:59Z</time>
      </trkpt>
      <trkpt lat="40.186283" lon="-5.154283">
        <ele>2326.0</ele>
        <time>2013-06-30T13:36:00Z</time>
      </trkpt>
      <trkpt lat="40.186200" lon="-5.154333">
        <ele>2327.0</ele>
        <time>2013-06-30T13:36:01Z</time>
      </trkpt>
      <trkpt lat="40.186083" lon="-5.154400">
        <ele>2328.0</ele>
        <time>2013-06-30T13:36:02Z</time>
      </trkpt>
      <trkpt lat="40.185967" lon="-5.154467">
        <ele>2328.0</ele>
        <time>2013-06-30T13:36:03Z</time>
      </trkpt>
      <trkpt lat="40.185867" lon="-5.154533">
        <ele>2329.0</ele>
        <time>2013-06-30T13:36:04Z</time>
      </trkpt>
      <trkpt lat="40.185783" lon="-5.154600">
        <ele>2332.0</ele>
        <time>2013-06-30T13:36:05Z</time>
      </trkpt>
      <trkpt lat="40.185700" lon="-5.154683">
        <ele>2335.0</ele>
        <time>2013-06-30T13:36:06Z</time>
      </trkpt>
      <trkpt lat="40.185633" lon="-5.154767">
        <ele>2336.0</ele>
        <time>2013-06-30T13:36:07Z</time>
      </trkpt>
      <trkpt lat="40.185550" lon="-5.154867">
        <ele>2337.0</ele>
        <time>2013-06-30T13:36:08Z</time>
      </trkpt>
      <trkpt lat="40.185467" lon="-5.154967">
        <ele>2337.0</ele>
        <time>2013-06-30T13:36:09Z</time>
      </trkpt>
      <trkpt lat="40.185383" lon="-5.155100">
        <ele>2337.0</ele>
        <time>2013-06-30T13:36:10Z</time>
      </trkpt>
      <trkpt lat="40.185317" lon="-5.155217">
        <ele>2337.0</ele>
        <time>2013-06-30T13:36:11Z</time>
      </trkpt>
      <trkpt lat="40.185250" lon="-5.155350">
        <ele>2337.0</ele>
        <time>2013-06-30T13:36:12Z</time>
      </trkpt>
      <trkpt lat="40.185183" lon="-5.155467">
        <ele>2336.0</ele>
        <time>2013-06-30T13:36:13Z</time>
      </trkpt>
      <trkpt lat="40.185117" lon="-5.155600">
        <ele>2336.0</ele>
        <time>2013-06-30T13:36:14Z</time>
      </trkpt>
      <trkpt lat="40.185083" lon="-5.155750">
        <ele>2334.0</ele>
        <time>2013-06-30T13:36:15Z</time>
      </trkpt>
      <trkpt lat="40.185067" lon="-5.155917">
        <ele>2333.0</ele>
        <time>2013-06-30T13:36:16Z</time>
      </trkpt>
      <trkpt lat="40.185083" lon="-5.156083">
        <ele>2331.0</ele>
        <time>2013-06-30T13:36:17Z</time>
      </trkpt>
      <trkpt lat="40.185100" lon="-5.156233">
        <ele>2331.0</ele>
        <time>2013-06-30T13:36:18Z</time>
      </trkpt>
      <trkpt lat="40.185133" lon="-5.156367">
        <ele>2332.0</ele>
        <time>2013-06-30T13:36:19Z</time>
      </trkpt>
      <trkpt lat="40.185183" lon="-5.156467">
        <ele>2332.0</ele>
        <time>2013-06-30T13:36:20Z</time>
      </trkpt>
      <trkpt lat="40.185233" lon="-5.156550">
        <ele>2331.0</ele>
        <time>2013-06-30T13:36:21Z</time>
      </trkpt>
      <trkpt lat="40.185317" lon="-5.156633">
        <ele>2330.0</ele>
        <time>2013-06-30T13:36:22Z</time>
      </trkpt>
      <trkpt lat="40.185383" lon="-5.156717">
        <ele>2328.0</ele>
        <time>2013-06-30T13:36:23Z</time>
      </trkpt>
      <trkpt lat="40.185467" lon="-5.156750">
        <ele>2328.0</ele>
        <time>2013-06-30T13:36:24Z</time>
      </trkpt>
      <trkpt lat="40.185533" lon="-5.156783">
        <ele>2328.0</ele>
        <time>2013-06-30T13:36:25Z</time>
      </trkpt>
      <trkpt lat="40.185600" lon="-5.156783">
        <ele>2329.0</ele>
        <time>2013-06-30T13:36:26Z</time>
      </trkpt>
      <trkpt lat="40.185650" lon="-5.156783">
        <ele>2330.0</ele>
        <time>2013-06-30T13:36:27Z</time>
      </trkpt>
      <trkpt lat="40.185717" lon="-5.156783">
        <ele>2330.0</ele>
        <time>2013-06-30T13:36:28Z</time>
      </trkpt>
      <trkpt lat="40.185767" lon="-5.156750">
        <ele>2330.0</ele>
        <time>2013-06-30T13:36:29Z</time>
      </trkpt>
      <trkpt lat="40.185833" lon="-5.156717">
        <ele>2329.0</ele>
        <time>2013-06-30T13:36:30Z</time>
      </trkpt>
      <trkpt lat="40.185883" lon="-5.156667">
        <ele>2329.0</ele>
        <time>2013-06-30T13:36:31Z</time>
      </trkpt>
      <trkpt lat="40.185917" lon="-5.156617">
        <ele>2329.0</ele>
        <time>2013-06-30T13:36:32Z</time>
      </trkpt>
      <trkpt lat="40.185967" lon="-5.156583">
        <ele>2330.0</ele>
        <time>2013-06-30T13:36:33Z</time>
      </trkpt>
      <trkpt lat="40.186000" lon="-5.156567">
        <ele>2331.0</ele>
        <time>2013-06-30T13:36:34Z</time>
      </trkpt>
      <trkpt lat="40.186067" lon="-5.156500">
        <ele>2332.0</ele>
        <time>2013-06-30T13:36:36Z</time>
      </trkpt>
      <trkpt lat="40.186117" lon="-5.156450">
        <ele>2331.0</ele>
        <time>2013-06-30T13:36:37Z</time>
      </trkpt>
      <trkpt lat="40.186133" lon="-5.156383">
        <ele>2330.0</ele>
        <time>2013-06-30T13:36:38Z</time>
      </trkpt>
      <trkpt lat="40.186150" lon="-5.156300">
        <ele>2330.0</ele>
        <time>2013-06-30T13:36:39Z</time>
      </trkpt>
      <trkpt lat="40.186150" lon="-5.156233">
        <ele>2330.0</ele>
        <time>2013-06-30T13:36:40Z</time>
      </trkpt>
      <trkpt lat="40.186133" lon="-5.156150">
        <ele>2329.0</ele>
        <time>2013-06-30T13:36:41Z</time>
      </trkpt>
      <trkpt lat="40.186117" lon="-5.156067">
        <ele>2329.0</ele>
        <time>2013-06-30T13:36:42Z</time>
      </trkpt>
      <trkpt lat="40.186067" lon="-5.155983">
        <ele>2329.0</ele>
        <time>2013-06-30T13:36:43Z</time>
      </trkpt>
      <trkpt lat="40.186033" lon="-5.155900">
        <ele>2329.0</ele>
        <time>2013-06-30T13:36:44Z</time>
      </trkpt>
      <trkpt lat="40.185967" lon="-5.155833">
        <ele>2329.0</ele>
        <time>2013-06-30T13:36:45Z</time>
      </trkpt>
      <trkpt lat="40.185900" lon="-5.155767">
        <ele>2329.0</ele>
        <time>2013-06-30T13:36:46Z</time>
      </trkpt>
      <trkpt lat="40.185817" lon="-5.155733">
        <ele>2330.0</ele>
        <time>2013-06-30T13:36:47Z</time>
      </trkpt>
      <trkpt lat="40.185733" lon="-5.155717">
        <ele>2330.0</ele>
        <time>2013-06-30T13:36:48Z</time>
      </trkpt>
      <trkpt lat="40.185633" lon="-5.155700">
        <ele>2331.0</ele>
        <time>2013-06-30T13:36:49Z</time>
      </trkpt>
      <trkpt lat="40.185533" lon="-5.155717">
        <ele>2332.0</ele>
        <time>2013-06-30T13:36:50Z</time>
      </trkpt>
      <trkpt lat="40.185433" lon="-5.155750">
        <ele>2333.0</ele>
        <time>2013-06-30T13:36:51Z</time>
      </trkpt>
      <trkpt lat="40.185333" lon="-5.155800">
        <ele>2334.0</ele>
        <time>2013-06-30T13:36:52Z</time>
      </trkpt>
      <trkpt lat="40.185250" lon="-5.155850">
        <ele>2334.0</ele>
        <time>2013-06-30T13:36:53Z</time>
      </trkpt>
      <trkpt lat="40.185150" lon="-5.155883">
        <ele>2335.0</ele>
        <time>2013-06-30T13:36:54Z</time>
      </trkpt>
      <trkpt lat="40.185050" lon="-5.155933">
        <ele>2335.0</ele>
        <time>2013-06-30T13:36:55Z</time>
      </trkpt>
      <trkpt lat="40.184950" lon="-5.156000">
        <ele>2336.0</ele>
        <time>2013-06-30T13:36:56Z</time>
      </trkpt>
      <trkpt lat="40.184883" lon="-5.156083">
        <ele>2338.0</ele>
        <time>2013-06-30T13:36:57Z</time>
      </trkpt>
      <trkpt lat="40.184817" lon="-5.156183">
        <ele>2339.0</ele>
        <time>2013-06-30T13:36:58Z</time>
      </trkpt>
      <trkpt lat="40.184733" lon="-5.156300">
        <ele>2339.0</ele>
        <time>2013-06-30T13:36:59Z</time>
      </trkpt>
      <trkpt lat="40.184683" lon="-5.156417">
        <ele>2340.0</ele>
        <time>2013-06-30T13:37:00Z</time>
      </trkpt>
      <trkpt lat="40.184617" lon="-5.156550">
        <ele>2340.0</ele>
        <time>2013-06-30T13:37:01Z</time>
      </trkpt>
      <trkpt lat="40.184583" lon="-5.156683">
        <ele>2340.0</ele>
        <time>2013-06-30T13:37:02Z</time>
      </trkpt>
      <trkpt lat="40.184583" lon="-5.156817">
        <ele>2340.0</ele>
        <time>2013-06-30T13:37:03Z</time>
      </trkpt>
      <trkpt lat="40.184583" lon="-5.156967">
        <ele>2339.0</ele>
        <time>2013-06-30T13:37:04Z</time>
      </trkpt>
      <trkpt lat="40.184617" lon="-5.157117">
        <ele>2338.0</ele>
        <time>2013-06-30T13:37:05Z</time>
      </trkpt>
      <trkpt lat="40.184650" lon="-5.157233">
        <ele>2338.0</ele>
        <time>2013-06-30T13:37:06Z</time>
      </trkpt>
      <trkpt lat="40.184700" lon="-5.157350">
        <ele>2338.0</ele>
        <time>2013-06-30T13:37:07Z</time>
      </trkpt>
      <trkpt lat="40.184767" lon="-5.157433">
        <ele>2339.0</ele>
        <time>2013-06-30T13:37:08Z</time>
      </trkpt>
      <trkpt lat="40.184817" lon="-5.157500">
        <ele>2340.0</ele>
        <time>2013-06-30T13:37:09Z</time>
      </trkpt>
      <trkpt lat="40.184883" lon="-5.157533">
        <ele>2340.0</ele>
        <time>2013-06-30T13:37:10Z</time>
      </trkpt>
      <trkpt lat="40.184950" lon="-5.157583">
        <ele>2340.0</ele>
        <time>2013-06-30T13:37:11Z</time>
      </trkpt>
      <trkpt lat="40.185033" lon="-5.157600">
        <ele>2339.0</ele>
        <time>2013-06-30T13:37:12Z</time>
      </trkpt>
      <trkpt lat="40.185117" lon="-5.157600">
        <ele>2339.0</ele>
        <time>2013-06-30T13:37:13Z</time>
      </trkpt>
      <trkpt lat="40.185183" lon="-5.157583">
        <ele>2339.0</ele>
        <time>2013-06-30T13:37:14Z</time>
      </trkpt>
      <trkpt lat="40.185250" lon="-5.157533">
        <ele>2341.0</ele>
        <time>2013-06-30T13:37:16Z</time>
      </trkpt>
      <trkpt lat="40.185283" lon="-5.157483">
        <ele>2342.0</ele>
        <time>2013-06-30T13:37:17Z</time>
      </trkpt>
      <trkpt lat="40.185333" lon="-5.157450">
        <ele>2341.0</ele>
        <time>2013-06-30T13:37:18Z</time>
      </trkpt>
      <trkpt lat="40.185367" lon="-5.157400">
        <ele>2341.0</ele>
        <time>2013-06-30T13:37:19Z</time>
      </trkpt>
      <trkpt lat="40.185400" lon="-5.157333">
        <ele>2340.0</ele>
        <time>2013-06-30T13:37:20Z</time>
      </trkpt>
      <trkpt lat="40.185417" lon="-5.157267">
        <ele>2339.0</ele>
        <time>2013-06-30T13:37:21Z</time>
      </trkpt>
      <trkpt lat="40.185433" lon="-5.157200">
        <ele>2339.0</ele>
        <time>2013-06-30T13:37:22Z</time>
      </trkpt>
      <trkpt lat="40.185450" lon="-5.157150">
        <ele>2340.0</ele>
        <time>2013-06-30T13:37:23Z</time>
      </trkpt>
      <trkpt lat="40.185467" lon="-5.157100">
        <ele>2341.0</ele>
        <time>2013-06-30T13:37:24Z</time>
      </trkpt>
      <trkpt lat="40.185467" lon="-5.157033">
        <ele>2342.0</ele>
        <time>2013-06-30T13:37:25Z</time>
      </trkpt>
      <trkpt lat="40.185450" lon="-5.156983">
        <ele>2342.0</ele>
        <time>2013-06-30T13:37:26Z</time>
      </trkpt>
      <trkpt lat="40.185417" lon="-5.156900">
        <ele>2342.0</ele>
        <time>2013-06-30T13:37:27Z</time>
      </trkpt>
      <trkpt lat="40.185367" lon="-5.156833">
        <ele>2343.0</ele>
        <time>2013-06-30T13:37:28Z</time>
      </trkpt>
      <trkpt lat="40.185317" lon="-5.156783">
        <ele>2345.0</ele>
        <time>2013-06-30T13:37:29Z</time>
      </trkpt>
      <trkpt lat="40.185267" lon="-5.156767">
        <ele>2347.0</ele>
        <time>2013-06-30T13:37:30Z</time>
      </trkpt>
      <trkpt lat="40.185217" lon="-5.156750">
        <ele>2349.0</ele>
        <time>2013-06-30T13:37:31Z</time>
      </trkpt>
      <trkpt lat="40.185150" lon="-5.156750">
        <ele>2351.0</ele>
        <time>2013-06-30T13:37:32Z</time>
      </trkpt>
      <trkpt lat="40.185067" lon="-5.156733">
        <ele>2351.0</ele>
        <time>2013-06-30T13:37:33Z</time>
      </trkpt>
      <trkpt lat="40.184967" lon="-5.156733">
        <ele>2352.0</ele>
        <time>2013-06-30T13:37:34Z</time>
      </trkpt>
      <trkpt lat="40.184867" lon="-5.156783">
        <ele>2353.0</ele>
        <time>2013-06-30T13:37:35Z</time>
      </trkpt>
      <trkpt lat="40.184767" lon="-5.156850">
        <ele>2354.0</ele>
        <time>2013-06-30T13:37:36Z</time>
      </trkpt>
      <trkpt lat="40.184683" lon="-5.156933">
        <ele>2356.0</ele>
        <time>2013-06-30T13:37:37Z</time>
      </trkpt>
      <trkpt lat="40.184600" lon="-5.157033">
        <ele>2358.0</ele>
        <time>2013-06-30T13:37:38Z</time>
      </trkpt>
      <trkpt lat="40.184533" lon="-5.157117">
        <ele>2359.0</ele>
        <time>2013-06-30T13:37:39Z</time>
      </trkpt>
      <trkpt lat="40.184450" lon="-5.157200">
        <ele>2360.0</ele>
        <time>2013-06-30T13:37:40Z</time>
      </trkpt>
      <trkpt lat="40.184367" lon="-5.157300">
        <ele>2360.0</ele>
        <time>2013-06-30T13:37:41Z</time>
      </trkpt>
      <trkpt lat="40.184300" lon="-5.157433">
        <ele>2359.0</ele>
        <time>2013-06-30T13:37:42Z</time>
      </trkpt>
      <trkpt lat="40.184233" lon="-5.157550">
        <ele>2358.0</ele>
        <time>2013-06-30T13:37:43Z</time>
      </trkpt>
      <trkpt lat="40.184183" lon="-5.157683">
        <ele>2357.0</ele>
        <time>2013-06-30T13:37:44Z</time>
      </trkpt>
      <trkpt lat="40.184117" lon="-5.157800">
        <ele>2357.0</ele>
        <time>2013-06-30T13:37:45Z</time>
      </trkpt>
      <trkpt lat="40.184050" lon="-5.157933">
        <ele>2357.0</ele>
        <time>2013-06-30T13:37:46Z</time>
      </trkpt>
      <trkpt lat="40.184000" lon="-5.158067">
        <ele>2356.0</ele>
        <time>2013-06-30T13:37:47Z</time>
      </trkpt>
      <trkpt lat="40.183950" lon="-5.158200">
        <ele>2355.0</ele>
        <time>2013-06-30T13:37:48Z</time>
      </trkpt>
      <trkpt lat="40.183933" lon="-5.158350">
        <ele>2354.0</ele>
        <time>2013-06-30T13:37:49Z</time>
      </trkpt>
      <trkpt lat="40.183933" lon="-5.158483">
        <ele>2353.0</ele>
        <time>2013-06-30T13:37:50Z</time>
      </trkpt>
      <trkpt lat="40.183950" lon="-5.158600">
        <ele>2352.0</ele>
        <time>2013-06-30T13:37:51Z</time>
      </trkpt>
      <trkpt lat="40.183967" lon="-5.158717">
        <ele>2351.0</ele>
        <time>2013-06-30T13:37:52Z</time>
      </trkpt>
      <trkpt lat="40.183983" lon="-5.158850">
        <ele>2350.0</ele>
        <time>2013-06-30T13:37:53Z</time>
      </trkpt>
      <trkpt lat="40.184033" lon="-5.158967">
        <ele>2349.0</ele>
        <time>2013-06-30T13:37:54Z</time>
      </trkpt>
      <trkpt lat="40.184083" lon="-5.159033">
        <ele>2347.0</ele>
        <time>2013-06-30T13:37:55Z</time>
      </trkpt>
      <trkpt lat="40.184167" lon="-5.159083">
        <ele>2347.0</ele>
        <time>2013-06-30T13:37:56Z</time>
      </trkpt>
      <trkpt lat="40.184233" lon="-5.159083">
        <ele>2346.0</ele>
        <time>2013-06-30T13:37:57Z</time>
      </trkpt>
      <trkpt lat="40.184283" lon="-5.159067">
        <ele>2345.0</ele>
        <time>2013-06-30T13:37:58Z</time>
      </trkpt>
      <trkpt lat="40.184333" lon="-5.159050">
        <ele>2345.0</ele>
        <time>2013-06-30T13:37:59Z</time>
      </trkpt>
      <trkpt lat="40.184367" lon="-5.159017">
        <ele>2344.0</ele>
        <time>2013-06-30T13:38:00Z</time>
      </trkpt>
      <trkpt lat="40.184417" lon="-5.158983">
        <ele>2343.0</ele>
        <time>2013-06-30T13:38:01Z</time>
      </trkpt>
      <trkpt lat="40.184450" lon="-5.158950">
        <ele>2343.0</ele>
        <time>2013-06-30T13:38:02Z</time>
      </trkpt>
      <trkpt lat="40.184467" lon="-5.158900">
        <ele>2342.0</ele>
        <time>2013-06-30T13:38:03Z</time>
      </trkpt>
      <trkpt lat="40.184500" lon="-5.158750">
        <ele>2341.0</ele>
        <time>2013-06-30T13:38:06Z</time>
      </trkpt>
      <trkpt lat="40.184450" lon="-5.158600">
        <ele>2339.0</ele>
        <time>2013-06-30T13:38:08Z</time>
      </trkpt>
      <trkpt lat="40.184417" lon="-5.158517">
        <ele>2338.0</ele>
        <time>2013-06-30T13:38:09Z</time>
      </trkpt>
      <trkpt lat="40.184383" lon="-5.158450">
        <ele>2338.0</ele>
        <time>2013-06-30T13:38:10Z</time>
      </trkpt>
      <trkpt lat="40.184333" lon="-5.158400">
        <ele>2338.0</ele>
        <time>2013-06-30T13:38:11Z</time>
      </trkpt>
      <trkpt lat="40.184283" lon="-5.158350">
        <ele>2338.0</ele>
        <time>2013-06-30T13:38:12Z</time>
      </trkpt>
      <trkpt lat="40.184217" lon="-5.158300">
        <ele>2338.0</ele>
        <time>2013-06-30T13:38:13Z</time>
      </trkpt>
      <trkpt lat="40.184167" lon="-5.158283">
        <ele>2338.0</ele>
        <time>2013-06-30T13:38:14Z</time>
      </trkpt>
      <trkpt lat="40.184100" lon="-5.158250">
        <ele>2338.0</ele>
        <time>2013-06-30T13:38:15Z</time>
      </trkpt>
      <trkpt lat="40.184017" lon="-5.158217">
        <ele>2338.0</ele>
        <time>2013-06-30T13:38:16Z</time>
      </trkpt>
      <trkpt lat="40.183917" lon="-5.158200">
        <ele>2337.0</ele>
        <time>2013-06-30T13:38:17Z</time>
      </trkpt>
      <trkpt lat="40.183833" lon="-5.158200">
        <ele>2337.0</ele>
        <time>2013-06-30T13:38:18Z</time>
      </trkpt>
      <trkpt lat="40.183733" lon="-5.158233">
        <ele>2336.0</ele>
        <time>2013-06-30T13:38:19Z</time>
      </trkpt>
      <trkpt lat="40.183633" lon="-5.158267">
        <ele>2335.0</ele>
        <time>2013-06-30T13:38:20Z</time>
      </trkpt>
      <trkpt lat="40.183550" lon="-5.158333">
        <ele>2334.0</ele>
        <time>2013-06-30T13:38:21Z</time>
      </trkpt>
      <trkpt lat="40.183450" lon="-5.158433">
        <ele>2332.0</ele>
        <time>2013-06-30T13:38:22Z</time>
      </trkpt>
      <trkpt lat="40.183350" lon="-5.158517">
        <ele>2329.0</ele>
        <time>2013-06-30T13:38:23Z</time>
      </trkpt>
      <trkpt lat="40.183233" lon="-5.158617">
        <ele>2327.0</ele>
        <time>2013-06-30T13:38:24Z</time>
      </trkpt>
      <trkpt lat="40.183133" lon="-5.158717">
        <ele>2327.0</ele>
        <time>2013-06-30T13:38:25Z</time>
      </trkpt>
      <trkpt lat="40.183050" lon="-5.158833">
        <ele>2327.0</ele>
        <time>2013-06-30T13:38:26Z</time>
      </trkpt>
      <trkpt lat="40.182950" lon="-5.158933">
        <ele>2327.0</ele>
        <time>2013-06-30T13:38:27Z</time>
      </trkpt>
      <trkpt lat="40.182883" lon="-5.159033">
        <ele>2327.0</ele>
        <time>2013-06-30T13:38:28Z</time>
      </trkpt>
      <trkpt lat="40.182817" lon="-5.159167">
        <ele>2327.0</ele>
        <time>2013-06-30T13:38:29Z</time>
      </trkpt>
      <trkpt lat="40.182750" lon="-5.159317">
        <ele>2326.0</ele>
        <time>2013-06-30T13:38:30Z</time>
      </trkpt>
      <trkpt lat="40.182683" lon="-5.159467">
        <ele>2325.0</ele>
        <time>2013-06-30T13:38:31Z</time>
      </trkpt>
      <trkpt lat="40.182633" lon="-5.159617">
        <ele>2324.0</ele>
        <time>2013-06-30T13:38:32Z</time>
      </trkpt>
      <trkpt lat="40.182583" lon="-5.159750">
        <ele>2323.0</ele>
        <time>2013-06-30T13:38:33Z</time>
      </trkpt>
      <trkpt lat="40.182533" lon="-5.159867">
        <ele>2322.0</ele>
        <time>2013-06-30T13:38:34Z</time>
      </trkpt>
      <trkpt lat="40.182500" lon="-5.160000">
        <ele>2322.0</ele>
        <time>2013-06-30T13:38:35Z</time>
      </trkpt>
      <trkpt lat="40.182483" lon="-5.160150">
        <ele>2321.0</ele>
        <time>2013-06-30T13:38:36Z</time>
      </trkpt>
      <trkpt lat="40.182467" lon="-5.160300">
        <ele>2319.0</ele>
        <time>2013-06-30T13:38:37Z</time>
      </trkpt>
      <trkpt lat="40.182483" lon="-5.160450">
        <ele>2318.0</ele>
        <time>2013-06-30T13:38:38Z</time>
      </trkpt>
      <trkpt lat="40.182500" lon="-5.160567">
        <ele>2319.0</ele>
        <time>2013-06-30T13:38:39Z</time>
      </trkpt>
      <trkpt lat="40.182517" lon="-5.160683">
        <ele>2319.0</ele>
        <time>2013-06-30T13:38:40Z</time>
      </trkpt>
      <trkpt lat="40.182533" lon="-5.160783">
        <ele>2318.0</ele>
        <time>2013-06-30T13:38:41Z</time>
      </trkpt>
      <trkpt lat="40.182583" lon="-5.160883">
        <ele>2316.0</ele>
        <time>2013-06-30T13:38:42Z</time>
      </trkpt>
      <trkpt lat="40.182633" lon="-5.160967">
        <ele>2314.0</ele>
        <time>2013-06-30T13:38:43Z</time>
      </trkpt>
      <trkpt lat="40.182700" lon="-5.161050">
        <ele>2311.0</ele>
        <time>2013-06-30T13:38:44Z</time>
      </trkpt>
      <trkpt lat="40.182767" lon="-5.161100">
        <ele>2310.0</ele>
        <time>2013-06-30T13:38:45Z</time>
      </trkpt>
      <trkpt lat="40.182833" lon="-5.161117">
        <ele>2308.0</ele>
        <time>2013-06-30T13:38:46Z</time>
      </trkpt>
      <trkpt lat="40.182900" lon="-5.161117">
        <ele>2307.0</ele>
        <time>2013-06-30T13:38:47Z</time>
      </trkpt>
      <trkpt lat="40.182950" lon="-5.161117">
        <ele>2305.0</ele>
        <time>2013-06-30T13:38:48Z</time>
      </trkpt>
      <trkpt lat="40.183000" lon="-5.161100">
        <ele>2304.0</ele>
        <time>2013-06-30T13:38:49Z</time>
      </trkpt>
      <trkpt lat="40.183050" lon="-5.161067">
        <ele>2302.0</ele>
        <time>2013-06-30T13:38:50Z</time>
      </trkpt>
      <trkpt lat="40.183067" lon="-5.161000">
        <ele>2299.0</ele>
        <time>2013-06-30T13:38:51Z</time>
      </trkpt>
      <trkpt lat="40.183083" lon="-5.160917">
        <ele>2297.0</ele>
        <time>2013-06-30T13:38:52Z</time>
      </trkpt>
      <trkpt lat="40.183100" lon="-5.160850">
        <ele>2294.0</ele>
        <time>2013-06-30T13:38:53Z</time>
      </trkpt>
      <trkpt lat="40.183083" lon="-5.160767">
        <ele>2293.0</ele>
        <time>2013-06-30T13:38:54Z</time>
      </trkpt>
      <trkpt lat="40.183067" lon="-5.160700">
        <ele>2292.0</ele>
        <time>2013-06-30T13:38:55Z</time>
      </trkpt>
      <trkpt lat="40.183033" lon="-5.160650">
        <ele>2292.0</ele>
        <time>2013-06-30T13:38:56Z</time>
      </trkpt>
      <trkpt lat="40.182983" lon="-5.160600">
        <ele>2290.0</ele>
        <time>2013-06-30T13:38:57Z</time>
      </trkpt>
      <trkpt lat="40.182917" lon="-5.160550">
        <ele>2288.0</ele>
        <time>2013-06-30T13:38:58Z</time>
      </trkpt>
      <trkpt lat="40.182833" lon="-5.160517">
        <ele>2287.0</ele>
        <time>2013-06-30T13:38:59Z</time>
      </trkpt>
      <trkpt lat="40.182733" lon="-5.160500">
        <ele>2285.0</ele>
        <time>2013-06-30T13:39:00Z</time>
      </trkpt>
      <trkpt lat="40.182633" lon="-5.160517">
        <ele>2283.0</ele>
        <time>2013-06-30T13:39:01Z</time>
      </trkpt>
      <trkpt lat="40.182533" lon="-5.160533">
        <ele>2282.0</ele>
        <time>2013-06-30T13:39:02Z</time>
      </trkpt>
      <trkpt lat="40.182333" lon="-5.160633">
        <ele>2278.0</ele>
        <time>2013-06-30T13:39:04Z</time>
      </trkpt>
      <trkpt lat="40.182233" lon="-5.160700">
        <ele>2277.0</ele>
        <time>2013-06-30T13:39:05Z</time>
      </trkpt>
      <trkpt lat="40.182133" lon="-5.160767">
        <ele>2275.0</ele>
        <time>2013-06-30T13:39:06Z</time>
      </trkpt>
      <trkpt lat="40.182033" lon="-5.160833">
        <ele>2274.0</ele>
        <time>2013-06-30T13:39:07Z</time>
      </trkpt>
      <trkpt lat="40.181933" lon="-5.160900">
        <ele>2273.0</ele>
        <time>2013-06-30T13:39:08Z</time>
      </trkpt>
      <trkpt lat="40.181833" lon="-5.160967">
        <ele>2273.0</ele>
        <time>2013-06-30T13:39:09Z</time>
      </trkpt>
      <trkpt lat="40.181733" lon="-5.161033">
        <ele>2272.0</ele>
        <time>2013-06-30T13:39:10Z</time>
      </trkpt>
      <trkpt lat="40.181617" lon="-5.161133">
        <ele>2270.0</ele>
        <time>2013-06-30T13:39:11Z</time>
      </trkpt>
      <trkpt lat="40.181533" lon="-5.161233">
        <ele>2269.0</ele>
        <time>2013-06-30T13:39:12Z</time>
      </trkpt>
      <trkpt lat="40.181433" lon="-5.161333">
        <ele>2268.0</ele>
        <time>2013-06-30T13:39:13Z</time>
      </trkpt>
      <trkpt lat="40.181367" lon="-5.161467">
        <ele>2267.0</ele>
        <time>2013-06-30T13:39:14Z</time>
      </trkpt>
      <trkpt lat="40.181283" lon="-5.161600">
        <ele>2264.0</ele>
        <time>2013-06-30T13:39:15Z</time>
      </trkpt>
      <trkpt lat="40.181200" lon="-5.161733">
        <ele>2262.0</ele>
        <time>2013-06-30T13:39:16Z</time>
      </trkpt>
      <trkpt lat="40.181100" lon="-5.161883">
        <ele>2260.0</ele>
        <time>2013-06-30T13:39:17Z</time>
      </trkpt>
      <trkpt lat="40.181017" lon="-5.162017">
        <ele>2259.0</ele>
        <time>2013-06-30T13:39:18Z</time>
      </trkpt>
      <trkpt lat="40.180933" lon="-5.162167">
        <ele>2257.0</ele>
        <time>2013-06-30T13:39:19Z</time>
      </trkpt>
      <trkpt lat="40.180867" lon="-5.162300">
        <ele>2256.0</ele>
        <time>2013-06-30T13:39:20Z</time>
      </trkpt>
      <trkpt lat="40.180800" lon="-5.162450">
        <ele>2254.0</ele>
        <time>2013-06-30T13:39:21Z</time>
      </trkpt>
      <trkpt lat="40.180767" lon="-5.162600">
        <ele>2253.0</ele>
        <time>2013-06-30T13:39:22Z</time>
      </trkpt>
      <trkpt lat="40.180733" lon="-5.162733">
        <ele>2251.0</ele>
        <time>2013-06-30T13:39:23Z</time>
      </trkpt>
      <trkpt lat="40.180700" lon="-5.162900">
        <ele>2249.0</ele>
        <time>2013-06-30T13:39:24Z</time>
      </trkpt>
      <trkpt lat="40.180667" lon="-5.163050">
        <ele>2247.0</ele>
        <time>2013-06-30T13:39:25Z</time>
      </trkpt>
      <trkpt lat="40.180617" lon="-5.163217">
        <ele>2244.0</ele>
        <time>2013-06-30T13:39:26Z</time>
      </trkpt>
      <trkpt lat="40.180583" lon="-5.163367">
        <ele>2241.0</ele>
        <time>2013-06-30T13:39:27Z</time>
      </trkpt>
      <trkpt lat="40.180533" lon="-5.163517">
        <ele>2239.0</ele>
        <time>2013-06-30T13:39:28Z</time>
      </trkpt>
      <trkpt lat="40.180467" lon="-5.163667">
        <ele>2237.0</ele>
        <time>2013-06-30T13:39:29Z</time>
      </trkpt>
      <trkpt lat="40.180400" lon="-5.163800">
        <ele>2235.0</ele>
        <time>2013-06-30T13:39:30Z</time>
      </trkpt>
      <trkpt lat="40.180333" lon="-5.163933">
        <ele>2232.0</ele>
        <time>2013-06-30T13:39:31Z</time>
      </trkpt>
      <trkpt lat="40.180283" lon="-5.164067">
        <ele>2230.0</ele>
        <time>2013-06-30T13:39:32Z</time>
      </trkpt>
      <trkpt lat="40.180233" lon="-5.164217">
        <ele>2227.0</ele>
        <time>2013-06-30T13:39:33Z</time>
      </trkpt>
      <trkpt lat="40.180183" lon="-5.164367">
        <ele>2224.0</ele>
        <time>2013-06-30T13:39:34Z</time>
      </trkpt>
      <trkpt lat="40.180133" lon="-5.164517">
        <ele>2221.0</ele>
        <time>2013-06-30T13:39:35Z</time>
      </trkpt>
      <trkpt lat="40.180083" lon="-5.164683">
        <ele>2218.0</ele>
        <time>2013-06-30T13:39:36Z</time>
      </trkpt>
      <trkpt lat="40.180033" lon="-5.164833">
        <ele>2216.0</ele>
        <time>2013-06-30T13:39:37Z</time>
      </trkpt>
      <trkpt lat="40.180000" lon="-5.164967">
        <ele>2214.0</ele>
        <time>2013-06-30T13:39:38Z</time>
      </trkpt>
      <trkpt lat="40.179950" lon="-5.165117">
        <ele>2211.0</ele>
        <time>2013-06-30T13:39:39Z</time>
      </trkpt>
      <trkpt lat="40.179917" lon="-5.165283">
        <ele>2209.0</ele>
        <time>2013-06-30T13:39:40Z</time>
      </trkpt>
      <trkpt lat="40.179883" lon="-5.165450">
        <ele>2205.0</ele>
        <time>2013-06-30T13:39:41Z</time>
      </trkpt>
      <trkpt lat="40.179850" lon="-5.165617">
        <ele>2202.0</ele>
        <time>2013-06-30T13:39:42Z</time>
      </trkpt>
      <trkpt lat="40.179817" lon="-5.165767">
        <ele>2199.0</ele>
        <time>2013-06-30T13:39:43Z</time>
      </trkpt>
      <trkpt lat="40.179800" lon="-5.165917">
        <ele>2197.0</ele>
        <time>2013-06-30T13:39:44Z</time>
      </trkpt>
      <trkpt lat="40.179767" lon="-5.166067">
        <ele>2194.0</ele>
        <time>2013-06-30T13:39:45Z</time>
      </trkpt>
      <trkpt lat="40.179733" lon="-5.166217">
        <ele>2191.0</ele>
        <time>2013-06-30T13:39:46Z</time>
      </trkpt>
      <trkpt lat="40.179717" lon="-5.166383">
        <ele>2188.0</ele>
        <time>2013-06-30T13:39:47Z</time>
      </trkpt>
      <trkpt lat="40.179683" lon="-5.166550">
        <ele>2183.0</ele>
        <time>2013-06-30T13:39:48Z</time>
      </trkpt>
      <trkpt lat="40.179650" lon="-5.166733">
        <ele>2180.0</ele>
        <time>2013-06-30T13:39:49Z</time>
      </trkpt>
      <trkpt lat="40.179617" lon="-5.166900">
        <ele>2177.0</ele>
        <time>2013-06-30T13:39:50Z</time>
      </trkpt>
      <trkpt lat="40.179550" lon="-5.167067">
        <ele>2175.0</ele>
        <time>2013-06-30T13:39:51Z</time>
      </trkpt>
      <trkpt lat="40.179500" lon="-5.167217">
        <ele>2173.0</ele>
        <time>2013-06-30T13:39:52Z</time>
      </trkpt>
      <trkpt lat="40.179433" lon="-5.167367">
        <ele>2171.0</ele>
        <time>2013-06-30T13:39:53Z</time>
      </trkpt>
      <trkpt lat="40.179383" lon="-5.167500">
        <ele>2169.0</ele>
        <time>2013-06-30T13:39:54Z</time>
      </trkpt>
      <trkpt lat="40.179333" lon="-5.167633">
        <ele>2167.0</ele>
        <time>2013-06-30T13:39:55Z</time>
      </trkpt>
      <trkpt lat="40.179267" lon="-5.167750">
        <ele>2164.0</ele>
        <time>2013-06-30T13:39:56Z</time>
      </trkpt>
      <trkpt lat="40.179150" lon="-5.168017">
        <ele>2159.0</ele>
        <time>2013-06-30T13:39:58Z</time>
      </trkpt>
      <trkpt lat="40.179100" lon="-5.168150">
        <ele>2156.0</ele>
        <time>2013-06-30T13:39:59Z</time>
      </trkpt>
      <trkpt lat="40.179050" lon="-5.168267">
        <ele>2154.0</ele>
        <time>2013-06-30T13:40:00Z</time>
      </trkpt>
      <trkpt lat="40.178933" lon="-5.168483">
        <ele>2151.0</ele>
        <time>2013-06-30T13:40:02Z</time>
      </trkpt>
      <trkpt lat="40.178867" lon="-5.168600">
        <ele>2148.0</ele>
        <time>2013-06-30T13:40:03Z</time>
      </trkpt>
      <trkpt lat="40.178817" lon="-5.168733">
        <ele>2146.0</ele>
        <time>2013-06-30T13:40:04Z</time>
      </trkpt>
      <trkpt lat="40.178717" lon="-5.168967">
        <ele>2142.0</ele>
        <time>2013-06-30T13:40:06Z</time>
      </trkpt>
      <trkpt lat="40.178667" lon="-5.169083">
        <ele>2141.0</ele>
        <time>2013-06-30T13:40:07Z</time>
      </trkpt>
      <trkpt lat="40.178617" lon="-5.169200">
        <ele>2140.0</ele>
        <time>2013-06-30T13:40:08Z</time>
      </trkpt>
      <trkpt lat="40.178567" lon="-5.169317">
        <ele>2138.0</ele>
        <time>2013-06-30T13:40:09Z</time>
      </trkpt>
      <trkpt lat="40.178533" lon="-5.169433">
        <ele>2137.0</ele>
        <time>2013-06-30T13:40:10Z</time>
      </trkpt>
      <trkpt lat="40.178483" lon="-5.169567">
        <ele>2137.0</ele>
        <time>2013-06-30T13:40:11Z</time>
      </trkpt>
      <trkpt lat="40.178450" lon="-5.169683">
        <ele>2137.0</ele>
        <time>2013-06-30T13:40:12Z</time>
      </trkpt>
      <trkpt lat="40.178417" lon="-5.169800">
        <ele>2137.0</ele>
        <time>2013-06-30T13:40:13Z</time>
      </trkpt>
      <trkpt lat="40.178367" lon="-5.169917">
        <ele>2137.0</ele>
        <time>2013-06-30T13:40:14Z</time>
      </trkpt>
      <trkpt lat="40.178333" lon="-5.170033">
        <ele>2136.0</ele>
        <time>2013-06-30T13:40:15Z</time>
      </trkpt>
      <trkpt lat="40.178300" lon="-5.170150">
        <ele>2136.0</ele>
        <time>2013-06-30T13:40:16Z</time>
      </trkpt>
      <trkpt lat="40.178267" lon="-5.170267">
        <ele>2136.0</ele>
        <time>2013-06-30T13:40:17Z</time>
      </trkpt>
      <trkpt lat="40.178217" lon="-5.170383">
        <ele>2136.0</ele>
        <time>2013-06-30T13:40:18Z</time>
      </trkpt>
      <trkpt lat="40.178183" lon="-5.170500">
        <ele>2135.0</ele>
        <time>2013-06-30T13:40:19Z</time>
      </trkpt>
      <trkpt lat="40.178133" lon="-5.170617">
        <ele>2135.0</ele>
        <time>2013-06-30T13:40:20Z</time>
      </trkpt>
      <trkpt lat="40.178100" lon="-5.170733">
        <ele>2134.0</ele>
        <time>2013-06-30T13:40:21Z</time>
      </trkpt>
      <trkpt lat="40.178050" lon="-5.170850">
        <ele>2133.0</ele>
        <time>2013-06-30T13:40:22Z</time>
      </trkpt>
      <trkpt lat="40.178017" lon="-5.170967">
        <ele>2132.0</ele>
        <time>2013-06-30T13:40:23Z</time>
      </trkpt>
      <trkpt lat="40.177967" lon="-5.171083">
        <ele>2132.0</ele>
        <time>2013-06-30T13:40:24Z</time>
      </trkpt>
      <trkpt lat="40.177933" lon="-5.171183">
        <ele>2131.0</ele>
        <time>2013-06-30T13:40:25Z</time>
      </trkpt>
      <trkpt lat="40.177900" lon="-5.171300">
        <ele>2129.0</ele>
        <time>2013-06-30T13:40:26Z</time>
      </trkpt>
      <trkpt lat="40.177867" lon="-5.171417">
        <ele>2128.0</ele>
        <time>2013-06-30T13:40:27Z</time>
      </trkpt>
      <trkpt lat="40.177833" lon="-5.171517">
        <ele>2127.0</ele>
        <time>2013-06-30T13:40:28Z</time>
      </trkpt>
      <trkpt lat="40.177800" lon="-5.171650">
        <ele>2125.0</ele>
        <time>2013-06-30T13:40:29Z</time>
      </trkpt>
      <trkpt lat="40.177783" lon="-5.171767">
        <ele>2124.0</ele>
        <time>2013-06-30T13:40:30Z</time>
      </trkpt>
      <trkpt lat="40.177750" lon="-5.171900">
        <ele>2123.0</ele>
        <time>2013-06-30T13:40:31Z</time>
      </trkpt>
      <trkpt lat="40.177717" lon="-5.172033">
        <ele>2123.0</ele>
        <time>2013-06-30T13:40:32Z</time>
      </trkpt>
      <trkpt lat="40.177700" lon="-5.172167">
        <ele>2123.0</ele>
        <time>2013-06-30T13:40:33Z</time>
      </trkpt>
      <trkpt lat="40.177683" lon="-5.172283">
        <ele>2124.0</ele>
        <time>2013-06-30T13:40:34Z</time>
      </trkpt>
      <trkpt lat="40.177667" lon="-5.172400">
        <ele>2125.0</ele>
        <time>2013-06-30T13:40:35Z</time>
      </trkpt>
      <trkpt lat="40.177650" lon="-5.172533">
        <ele>2125.0</ele>
        <time>2013-06-30T13:40:36Z</time>
      </trkpt>
      <trkpt lat="40.177617" lon="-5.172650">
        <ele>2126.0</ele>
        <time>2013-06-30T13:40:37Z</time>
      </trkpt>
      <trkpt lat="40.177583" lon="-5.172750">
        <ele>2126.0</ele>
        <time>2013-06-30T13:40:38Z</time>
      </trkpt>
      <trkpt lat="40.177500" lon="-5.172950">
        <ele>2125.0</ele>
        <time>2013-06-30T13:40:40Z</time>
      </trkpt>
      <trkpt lat="40.177467" lon="-5.173083">
        <ele>2124.0</ele>
        <time>2013-06-30T13:40:41Z</time>
      </trkpt>
      <trkpt lat="40.177417" lon="-5.173200">
        <ele>2123.0</ele>
        <time>2013-06-30T13:40:42Z</time>
      </trkpt>
      <trkpt lat="40.177383" lon="-5.173333">
        <ele>2121.0</ele>
        <time>2013-06-30T13:40:43Z</time>
      </trkpt>
      <trkpt lat="40.177350" lon="-5.173467">
        <ele>2119.0</ele>
        <time>2013-06-30T13:40:44Z</time>
      </trkpt>
      <trkpt lat="40.177317" lon="-5.173583">
        <ele>2117.0</ele>
        <time>2013-06-30T13:40:45Z</time>
      </trkpt>
      <trkpt lat="40.177300" lon="-5.173700">
        <ele>2115.0</ele>
        <time>2013-06-30T13:40:46Z</time>
      </trkpt>
      <trkpt lat="40.177283" lon="-5.173817">
        <ele>2113.0</ele>
        <time>2013-06-30T13:40:47Z</time>
      </trkpt>
      <trkpt lat="40.177267" lon="-5.173933">
        <ele>2111.0</ele>
        <time>2013-06-30T13:40:48Z</time>
      </trkpt>
      <trkpt lat="40.177250" lon="-5.174067">
        <ele>2109.0</ele>
        <time>2013-06-30T13:40:49Z</time>
      </trkpt>
      <trkpt lat="40.177217" lon="-5.174200">
        <ele>2107.0</ele>
        <time>2013-06-30T13:40:50Z</time>
      </trkpt>
      <trkpt lat="40.177200" lon="-5.174283">
        <ele>2106.0</ele>
        <time>2013-06-30T13:40:51Z</time>
      </trkpt>
      <trkpt lat="40.177183" lon="-5.174383">
        <ele>2104.0</ele>
        <time>2013-06-30T13:40:52Z</time>
      </trkpt>
      <trkpt lat="40.177167" lon="-5.174467">
        <ele>2102.0</ele>
        <time>2013-06-30T13:40:53Z</time>
      </trkpt>
      <trkpt lat="40.177150" lon="-5.174567">
        <ele>2099.0</ele>
        <time>2013-06-30T13:40:54Z</time>
      </trkpt>
      <trkpt lat="40.177117" lon="-5.174700">
        <ele>2096.0</ele>
        <time>2013-06-30T13:40:55Z</time>
      </trkpt>
      <trkpt lat="40.177067" lon="-5.174800">
        <ele>2094.0</ele>
        <time>2013-06-30T13:40:56Z</time>
      </trkpt>
      <trkpt lat="40.177050" lon="-5.174917">
        <ele>2091.0</ele>
        <time>2013-06-30T13:40:57Z</time>
      </trkpt>
      <trkpt lat="40.177017" lon="-5.175017">
        <ele>2090.0</ele>
        <time>2013-06-30T13:40:58Z</time>
      </trkpt>
      <trkpt lat="40.176983" lon="-5.175117">
        <ele>2089.0</ele>
        <time>2013-06-30T13:40:59Z</time>
      </trkpt>
      <trkpt lat="40.176950" lon="-5.175200">
        <ele>2088.0</ele>
        <time>2013-06-30T13:41:00Z</time>
      </trkpt>
      <trkpt lat="40.176917" lon="-5.175300">
        <ele>2086.0</ele>
        <time>2013-06-30T13:41:01Z</time>
      </trkpt>
      <trkpt lat="40.176883" lon="-5.175417">
        <ele>2085.0</ele>
        <time>2013-06-30T13:41:02Z</time>
      </trkpt>
      <trkpt lat="40.176850" lon="-5.175517">
        <ele>2084.0</ele>
        <time>2013-06-30T13:41:03Z</time>
      </trkpt>
      <trkpt lat="40.176817" lon="-5.175617">
        <ele>2082.0</ele>
        <time>2013-06-30T13:41:04Z</time>
      </trkpt>
      <trkpt lat="40.176783" lon="-5.175717">
        <ele>2081.0</ele>
        <time>2013-06-30T13:41:05Z</time>
      </trkpt>
      <trkpt lat="40.176750" lon="-5.175817">
        <ele>2080.0</ele>
        <time>2013-06-30T13:41:06Z</time>
      </trkpt>
      <trkpt lat="40.176700" lon="-5.175917">
        <ele>2079.0</ele>
        <time>2013-06-30T13:41:07Z</time>
      </trkpt>
      <trkpt lat="40.176667" lon="-5.176017">
        <ele>2078.0</ele>
        <time>2013-06-30T13:41:08Z</time>
      </trkpt>
      <trkpt lat="40.176633" lon="-5.176133">
        <ele>2077.0</ele>
        <time>2013-06-30T13:41:09Z</time>
      </trkpt>
      <trkpt lat="40.176600" lon="-5.176233">
        <ele>2076.0</ele>
        <time>2013-06-30T13:41:10Z</time>
      </trkpt>
      <trkpt lat="40.176550" lon="-5.176317">
        <ele>2076.0</ele>
        <time>2013-06-30T13:41:11Z</time>
      </trkpt>
      <trkpt lat="40.176517" lon="-5.176417">
        <ele>2075.0</ele>
        <time>2013-06-30T13:41:12Z</time>
      </trkpt>
      <trkpt lat="40.176467" lon="-5.176500">
        <ele>2073.0</ele>
        <time>2013-06-30T13:41:13Z</time>
      </trkpt>
      <trkpt lat="40.176417" lon="-5.176583">
        <ele>2072.0</ele>
        <time>2013-06-30T13:41:14Z</time>
      </trkpt>
      <trkpt lat="40.176367" lon="-5.176683">
        <ele>2071.0</ele>
        <time>2013-06-30T13:41:15Z</time>
      </trkpt>
      <trkpt lat="40.176283" lon="-5.176917">
        <ele>2068.0</ele>
        <time>2013-06-30T13:41:17Z</time>
      </trkpt>
      <trkpt lat="40.176233" lon="-5.177033">
        <ele>2066.0</ele>
        <time>2013-06-30T13:41:18Z</time>
      </trkpt>
      <trkpt lat="40.176200" lon="-5.177133">
        <ele>2065.0</ele>
        <time>2013-06-30T13:41:19Z</time>
      </trkpt>
      <trkpt lat="40.176150" lon="-5.177233">
        <ele>2065.0</ele>
        <time>2013-06-30T13:41:20Z</time>
      </trkpt>
      <trkpt lat="40.176117" lon="-5.177333">
        <ele>2064.0</ele>
        <time>2013-06-30T13:41:21Z</time>
      </trkpt>
      <trkpt lat="40.176067" lon="-5.177433">
        <ele>2062.0</ele>
        <time>2013-06-30T13:41:22Z</time>
      </trkpt>
      <trkpt lat="40.176000" lon="-5.177533">
        <ele>2060.0</ele>
        <time>2013-06-30T13:41:23Z</time>
      </trkpt>
      <trkpt lat="40.175950" lon="-5.177633">
        <ele>2058.0</ele>
        <time>2013-06-30T13:41:24Z</time>
      </trkpt>
      <trkpt lat="40.175900" lon="-5.177733">
        <ele>2057.0</ele>
        <time>2013-06-30T13:41:25Z</time>
      </trkpt>
      <trkpt lat="40.175850" lon="-5.177833">
        <ele>2056.0</ele>
        <time>2013-06-30T13:41:26Z</time>
      </trkpt>
      <trkpt lat="40.175800" lon="-5.177917">
        <ele>2055.0</ele>
        <time>2013-06-30T13:41:27Z</time>
      </trkpt>
      <trkpt lat="40.175767" lon="-5.178017">
        <ele>2054.0</ele>
        <time>2013-06-30T13:41:28Z</time>
      </trkpt>
      <trkpt lat="40.175733" lon="-5.178117">
        <ele>2052.0</ele>
        <time>2013-06-30T13:41:29Z</time>
      </trkpt>
      <trkpt lat="40.175683" lon="-5.178250">
        <ele>2050.0</ele>
        <time>2013-06-30T13:41:30Z</time>
      </trkpt>
      <trkpt lat="40.175633" lon="-5.178367">
        <ele>2048.0</ele>
        <time>2013-06-30T13:41:31Z</time>
      </trkpt>
      <trkpt lat="40.175583" lon="-5.178483">
        <ele>2046.0</ele>
        <time>2013-06-30T13:41:32Z</time>
      </trkpt>
      <trkpt lat="40.175550" lon="-5.178583">
        <ele>2045.0</ele>
        <time>2013-06-30T13:41:33Z</time>
      </trkpt>
      <trkpt lat="40.175517" lon="-5.178700">
        <ele>2044.0</ele>
        <time>2013-06-30T13:41:34Z</time>
      </trkpt>
      <trkpt lat="40.175483" lon="-5.178800">
        <ele>2042.0</ele>
        <time>2013-06-30T13:41:35Z</time>
      </trkpt>
      <trkpt lat="40.175450" lon="-5.178900">
        <ele>2040.0</ele>
        <time>2013-06-30T13:41:36Z</time>
      </trkpt>
      <trkpt lat="40.175417" lon="-5.179017">
        <ele>2037.0</ele>
        <time>2013-06-30T13:41:37Z</time>
      </trkpt>
      <trkpt lat="40.175367" lon="-5.179133">
        <ele>2035.0</ele>
        <time>2013-06-30T13:41:38Z</time>
      </trkpt>
      <trkpt lat="40.175317" lon="-5.179267">
        <ele>2032.0</ele>
        <time>2013-06-30T13:41:39Z</time>
      </trkpt>
      <trkpt lat="40.175267" lon="-5.179383">
        <ele>2031.0</ele>
        <time>2013-06-30T13:41:40Z</time>
      </trkpt>
      <trkpt lat="40.175233" lon="-5.179500">
        <ele>2029.0</ele>
        <time>2013-06-30T13:41:41Z</time>
      </trkpt>
      <trkpt lat="40.175183" lon="-5.179617">
        <ele>2027.0</ele>
        <time>2013-06-30T13:41:42Z</time>
      </trkpt>
      <trkpt lat="40.175133" lon="-5.179733">
        <ele>2025.0</ele>
        <time>2013-06-30T13:41:43Z</time>
      </trkpt>
      <trkpt lat="40.175083" lon="-5.179850">
        <ele>2023.0</ele>
        <time>2013-06-30T13:41:44Z</time>
      </trkpt>
      <trkpt lat="40.175033" lon="-5.179983">
        <ele>2021.0</ele>
        <time>2013-06-30T13:41:45Z</time>
      </trkpt>
      <trkpt lat="40.174983" lon="-5.180117">
        <ele>2019.0</ele>
        <time>2013-06-30T13:41:46Z</time>
      </trkpt>
      <trkpt lat="40.174950" lon="-5.180233">
        <ele>2018.0</ele>
        <time>2013-06-30T13:41:47Z</time>
      </trkpt>
      <trkpt lat="40.174900" lon="-5.180350">
        <ele>2016.0</ele>
        <time>2013-06-30T13:41:48Z</time>
      </trkpt>
      <trkpt lat="40.174850" lon="-5.180467">
        <ele>2015.0</ele>
        <time>2013-06-30T13:41:49Z</time>
      </trkpt>
      <trkpt lat="40.174817" lon="-5.180583">
        <ele>2013.0</ele>
        <time>2013-06-30T13:41:50Z</time>
      </trkpt>
      <trkpt lat="40.174767" lon="-5.180717">
        <ele>2011.0</ele>
        <time>2013-06-30T13:41:51Z</time>
      </trkpt>
      <trkpt lat="40.174717" lon="-5.180833">
        <ele>2009.0</ele>
        <time>2013-06-30T13:41:52Z</time>
      </trkpt>
      <trkpt lat="40.174667" lon="-5.180967">
        <ele>2008.0</ele>
        <time>2013-06-30T13:41:53Z</time>
      </trkpt>
      <trkpt lat="40.174617" lon="-5.181067">
        <ele>2007.0</ele>
        <time>2013-06-30T13:41:54Z</time>
      </trkpt>
      <trkpt lat="40.174567" lon="-5.181167">
        <ele>2006.0</ele>
        <time>2013-06-30T13:41:55Z</time>
      </trkpt>
      <trkpt lat="40.174500" lon="-5.181267">
        <ele>2004.0</ele>
        <time>2013-06-30T13:41:56Z</time>
      </trkpt>
      <trkpt lat="40.174417" lon="-5.181350">
        <ele>2002.0</ele>
        <time>2013-06-30T13:41:57Z</time>
      </trkpt>
      <trkpt lat="40.174350" lon="-5.181467">
        <ele>1999.0</ele>
        <time>2013-06-30T13:41:58Z</time>
      </trkpt>
      <trkpt lat="40.174283" lon="-5.181583">
        <ele>1997.0</ele>
        <time>2013-06-30T13:41:59Z</time>
      </trkpt>
      <trkpt lat="40.174217" lon="-5.181700">
        <ele>1995.0</ele>
        <time>2013-06-30T13:42:00Z</time>
      </trkpt>
      <trkpt lat="40.174150" lon="-5.181800">
        <ele>1994.0</ele>
        <time>2013-06-30T13:42:01Z</time>
      </trkpt>
      <trkpt lat="40.174083" lon="-5.181867">
        <ele>1993.0</ele>
        <time>2013-06-30T13:42:02Z</time>
      </trkpt>
      <trkpt lat="40.174017" lon="-5.181950">
        <ele>1991.0</ele>
        <time>2013-06-30T13:42:03Z</time>
      </trkpt>
      <trkpt lat="40.173950" lon="-5.182067">
        <ele>1989.0</ele>
        <time>2013-06-30T13:42:04Z</time>
      </trkpt>
      <trkpt lat="40.173883" lon="-5.182167">
        <ele>1987.0</ele>
        <time>2013-06-30T13:42:05Z</time>
      </trkpt>
      <trkpt lat="40.173817" lon="-5.182300">
        <ele>1985.0</ele>
        <time>2013-06-30T13:42:06Z</time>
      </trkpt>
      <trkpt lat="40.173767" lon="-5.182400">
        <ele>1983.0</ele>
        <time>2013-06-30T13:42:07Z</time>
      </trkpt>
      <trkpt lat="40.173700" lon="-5.182500">
        <ele>1982.0</ele>
        <time>2013-06-30T13:42:08Z</time>
      </trkpt>
      <trkpt lat="40.173633" lon="-5.182600">
        <ele>1980.0</ele>
        <time>2013-06-30T13:42:09Z</time>
      </trkpt>
      <trkpt lat="40.173567" lon="-5.182700">
        <ele>1978.0</ele>
        <time>2013-06-30T13:42:10Z</time>
      </trkpt>
      <trkpt lat="40.173500" lon="-5.182817">
        <ele>1975.0</ele>
        <time>2013-06-30T13:42:11Z</time>
      </trkpt>
      <trkpt lat="40.173433" lon="-5.182933">
        <ele>1973.0</ele>
        <time>2013-06-30T13:42:12Z</time>
      </trkpt>
      <trkpt lat="40.173383" lon="-5.183033">
        <ele>1971.0</ele>
        <time>2013-06-30T13:42:13Z</time>
      </trkpt>
      <trkpt lat="40.173333" lon="-5.183133">
        <ele>1971.0</ele>
        <time>2013-06-30T13:42:14Z</time>
      </trkpt>
      <trkpt lat="40.173283" lon="-5.183233">
        <ele>1970.0</ele>
        <time>2013-06-30T13:42:15Z</time>
      </trkpt>
      <trkpt lat="40.173233" lon="-5.183333">
        <ele>1968.0</ele>
        <time>2013-06-30T13:42:16Z</time>
      </trkpt>
      <trkpt lat="40.173200" lon="-5.183450">
        <ele>1967.0</ele>
        <time>2013-06-30T13:42:17Z</time>
      </trkpt>
      <trkpt lat="40.173150" lon="-5.183567">
        <ele>1965.0</ele>
        <time>2013-06-30T13:42:18Z</time>
      </trkpt>
      <trkpt lat="40.173117" lon="-5.183683">
        <ele>1963.0</ele>
        <time>2013-06-30T13:42:19Z</time>
      </trkpt>
      <trkpt lat="40.173067" lon="-5.183800">
        <ele>1962.0</ele>
        <time>2013-06-30T13:42:20Z</time>
      </trkpt>
      <trkpt lat="40.173033" lon="-5.183917">
        <ele>1960.0</ele>
        <time>2013-06-30T13:42:21Z</time>
      </trkpt>
      <trkpt lat="40.172983" lon="-5.184017">
        <ele>1958.0</ele>
        <time>2013-06-30T13:42:22Z</time>
      </trkpt>
      <trkpt lat="40.172950" lon="-5.184133">
        <ele>1956.0</ele>
        <time>2013-06-30T13:42:23Z</time>
      </trkpt>
      <trkpt lat="40.172900" lon="-5.184233">
        <ele>1955.0</ele>
        <time>2013-06-30T13:42:24Z</time>
      </trkpt>
      <trkpt lat="40.172867" lon="-5.184367">
        <ele>1953.0</ele>
        <time>2013-06-30T13:42:25Z</time>
      </trkpt>
      <trkpt lat="40.172850" lon="-5.184483">
        <ele>1951.0</ele>
        <time>2013-06-30T13:42:26Z</time>
      </trkpt>
      <trkpt lat="40.172767" lon="-5.184717">
        <ele>1947.0</ele>
        <time>2013-06-30T13:42:28Z</time>
      </trkpt>
      <trkpt lat="40.172717" lon="-5.184833">
        <ele>1943.0</ele>
        <time>2013-06-30T13:42:29Z</time>
      </trkpt>
      <trkpt lat="40.172683" lon="-5.184967">
        <ele>1941.0</ele>
        <time>2013-06-30T13:42:30Z</time>
      </trkpt>
      <trkpt lat="40.172633" lon="-5.185083">
        <ele>1939.0</ele>
        <time>2013-06-30T13:42:31Z</time>
      </trkpt>
      <trkpt lat="40.172600" lon="-5.185200">
        <ele>1938.0</ele>
        <time>2013-06-30T13:42:32Z</time>
      </trkpt>
      <trkpt lat="40.172567" lon="-5.185300">
        <ele>1937.0</ele>
        <time>2013-06-30T13:42:33Z</time>
      </trkpt>
      <trkpt lat="40.172533" lon="-5.185400">
        <ele>1936.0</ele>
        <time>2013-06-30T13:42:34Z</time>
      </trkpt>
      <trkpt lat="40.172517" lon="-5.185500">
        <ele>1935.0</ele>
        <time>2013-06-30T13:42:35Z</time>
      </trkpt>
      <trkpt lat="40.172483" lon="-5.185600">
        <ele>1934.0</ele>
        <time>2013-06-30T13:42:36Z</time>
      </trkpt>
      <trkpt lat="40.172450" lon="-5.185717">
        <ele>1932.0</ele>
        <time>2013-06-30T13:42:37Z</time>
      </trkpt>
      <trkpt lat="40.172433" lon="-5.185817">
        <ele>1931.0</ele>
        <time>2013-06-30T13:42:38Z</time>
      </trkpt>
      <trkpt lat="40.172400" lon="-5.185917">
        <ele>1928.0</ele>
        <time>2013-06-30T13:42:39Z</time>
      </trkpt>
      <trkpt lat="40.172367" lon="-5.186017">
        <ele>1926.0</ele>
        <time>2013-06-30T13:42:40Z</time>
      </trkpt>
      <trkpt lat="40.172350" lon="-5.186117">
        <ele>1924.0</ele>
        <time>2013-06-30T13:42:41Z</time>
      </trkpt>
      <trkpt lat="40.172333" lon="-5.186233">
        <ele>1922.0</ele>
        <time>2013-06-30T13:42:42Z</time>
      </trkpt>
      <trkpt lat="40.172317" lon="-5.186333">
        <ele>1920.0</ele>
        <time>2013-06-30T13:42:43Z</time>
      </trkpt>
      <trkpt lat="40.172283" lon="-5.186467">
        <ele>1918.0</ele>
        <time>2013-06-30T13:42:44Z</time>
      </trkpt>
      <trkpt lat="40.172250" lon="-5.186583">
        <ele>1915.0</ele>
        <time>2013-06-30T13:42:45Z</time>
      </trkpt>
      <trkpt lat="40.172233" lon="-5.186700">
        <ele>1914.0</ele>
        <time>2013-06-30T13:42:46Z</time>
      </trkpt>
      <trkpt lat="40.172200" lon="-5.186800">
        <ele>1912.0</ele>
        <time>2013-06-30T13:42:47Z</time>
      </trkpt>
      <trkpt lat="40.172183" lon="-5.186900">
        <ele>1911.0</ele>
        <time>2013-06-30T13:42:48Z</time>
      </trkpt>
      <trkpt lat="40.172150" lon="-5.186983">
        <ele>1909.0</ele>
        <time>2013-06-30T13:42:49Z</time>
      </trkpt>
      <trkpt lat="40.172133" lon="-5.187083">
        <ele>1907.0</ele>
        <time>2013-06-30T13:42:50Z</time>
      </trkpt>
      <trkpt lat="40.172083" lon="-5.187183">
        <ele>1905.0</ele>
        <time>2013-06-30T13:42:51Z</time>
      </trkpt>
      <trkpt lat="40.172050" lon="-5.187283">
        <ele>1903.0</ele>
        <time>2013-06-30T13:42:52Z</time>
      </trkpt>
      <trkpt lat="40.172017" lon="-5.187367">
        <ele>1901.0</ele>
        <time>2013-06-30T13:42:53Z</time>
      </trkpt>
      <trkpt lat="40.172000" lon="-5.187467">
        <ele>1899.0</ele>
        <time>2013-06-30T13:42:54Z</time>
      </trkpt>
      <trkpt lat="40.171967" lon="-5.187550">
        <ele>1898.0</ele>
        <time>2013-06-30T13:42:55Z</time>
      </trkpt>
      <trkpt lat="40.171950" lon="-5.187650">
        <ele>1896.0</ele>
        <time>2013-06-30T13:42:56Z</time>
      </trkpt>
      <trkpt lat="40.171933" lon="-5.187750">
        <ele>1894.0</ele>
        <time>2013-06-30T13:42:57Z</time>
      </trkpt>
      <trkpt lat="40.171917" lon="-5.187817">
        <ele>1891.0</ele>
        <time>2013-06-30T13:42:58Z</time>
      </trkpt>
      <trkpt lat="40.171883" lon="-5.187900">
        <ele>1889.0</ele>
        <time>2013-06-30T13:42:59Z</time>
      </trkpt>
      <trkpt lat="40.171867" lon="-5.188000">
        <ele>1885.0</ele>
        <time>2013-06-30T13:43:00Z</time>
      </trkpt>
      <trkpt lat="40.171833" lon="-5.188183">
        <ele>1881.0</ele>
        <time>2013-06-30T13:43:02Z</time>
      </trkpt>
      <trkpt lat="40.171817" lon="-5.188267">
        <ele>1879.0</ele>
        <time>2013-06-30T13:43:03Z</time>
      </trkpt>
      <trkpt lat="40.171800" lon="-5.188367">
        <ele>1876.0</ele>
        <time>2013-06-30T13:43:04Z</time>
      </trkpt>
      <trkpt lat="40.171783" lon="-5.188450">
        <ele>1874.0</ele>
        <time>2013-06-30T13:43:05Z</time>
      </trkpt>
      <trkpt lat="40.171767" lon="-5.188533">
        <ele>1873.0</ele>
        <time>2013-06-30T13:43:06Z</time>
      </trkpt>
      <trkpt lat="40.171767" lon="-5.188617">
        <ele>1870.0</ele>
        <time>2013-06-30T13:43:07Z</time>
      </trkpt>
      <trkpt lat="40.171733" lon="-5.188700">
        <ele>1868.0</ele>
        <time>2013-06-30T13:43:08Z</time>
      </trkpt>
      <trkpt lat="40.171700" lon="-5.188817">
        <ele>1865.0</ele>
        <time>2013-06-30T13:43:09Z</time>
      </trkpt>
      <trkpt lat="40.171667" lon="-5.188917">
        <ele>1864.0</ele>
        <time>2013-06-30T13:43:10Z</time>
      </trkpt>
      <trkpt lat="40.171633" lon="-5.189000">
        <ele>1864.0</ele>
        <time>2013-06-30T13:43:11Z</time>
      </trkpt>
      <trkpt lat="40.171600" lon="-5.189067">
        <ele>1863.0</ele>
        <time>2013-06-30T13:43:12Z</time>
      </trkpt>
      <trkpt lat="40.171583" lon="-5.189133">
        <ele>1863.0</ele>
        <time>2013-06-30T13:43:13Z</time>
      </trkpt>
      <trkpt lat="40.171550" lon="-5.189217">
        <ele>1862.0</ele>
        <time>2013-06-30T13:43:14Z</time>
      </trkpt>
      <trkpt lat="40.171517" lon="-5.189300">
        <ele>1861.0</ele>
        <time>2013-06-30T13:43:15Z</time>
      </trkpt>
      <trkpt lat="40.171467" lon="-5.189400">
        <ele>1860.0</ele>
        <time>2013-06-30T13:43:16Z</time>
      </trkpt>
      <trkpt lat="40.171450" lon="-5.189500">
        <ele>1860.0</ele>
        <time>2013-06-30T13:43:17Z</time>
      </trkpt>
      <trkpt lat="40.171433" lon="-5.189583">
        <ele>1861.0</ele>
        <time>2013-06-30T13:43:18Z</time>
      </trkpt>
      <trkpt lat="40.171433" lon="-5.189650">
        <ele>1863.0</ele>
        <time>2013-06-30T13:43:19Z</time>
      </trkpt>
      <trkpt lat="40.171417" lon="-5.189717">
        <ele>1864.0</ele>
        <time>2013-06-30T13:43:20Z</time>
      </trkpt>
      <trkpt lat="40.171400" lon="-5.189817">
        <ele>1864.0</ele>
        <time>2013-06-30T13:43:21Z</time>
      </trkpt>
      <trkpt lat="40.171367" lon="-5.189917">
        <ele>1864.0</ele>
        <time>2013-06-30T13:43:22Z</time>
      </trkpt>
      <trkpt lat="40.171350" lon="-5.190033">
        <ele>1863.0</ele>
        <time>2013-06-30T13:43:23Z</time>
      </trkpt>
      <trkpt lat="40.171350" lon="-5.190133">
        <ele>1864.0</ele>
        <time>2013-06-30T13:43:24Z</time>
      </trkpt>
      <trkpt lat="40.171350" lon="-5.190233">
        <ele>1864.0</ele>
        <time>2013-06-30T13:43:25Z</time>
      </trkpt>
      <trkpt lat="40.171350" lon="-5.190333">
        <ele>1864.0</ele>
        <time>2013-06-30T13:43:26Z</time>
      </trkpt>
      <trkpt lat="40.171367" lon="-5.190450">
        <ele>1865.0</ele>
        <time>2013-06-30T13:43:27Z</time>
      </trkpt>
      <trkpt lat="40.171367" lon="-5.190583">
        <ele>1864.0</ele>
        <time>2013-06-30T13:43:28Z</time>
      </trkpt>
      <trkpt lat="40.171367" lon="-5.190733">
        <ele>1865.0</ele>
        <time>2013-06-30T13:43:29Z</time>
      </trkpt>
      <trkpt lat="40.171367" lon="-5.190867">
        <ele>1865.0</ele>
        <time>2013-06-30T13:43:30Z</time>
      </trkpt>
      <trkpt lat="40.171383" lon="-5.190983">
        <ele>1866.0</ele>
        <time>2013-06-30T13:43:31Z</time>
      </trkpt>
      <trkpt lat="40.171400" lon="-5.191133">
        <ele>1866.0</ele>
        <time>2013-06-30T13:43:32Z</time>
      </trkpt>
      <trkpt lat="40.171383" lon="-5.191267">
        <ele>1866.0</ele>
        <time>2013-06-30T13:43:33Z</time>
      </trkpt>
      <trkpt lat="40.171383" lon="-5.191400">
        <ele>1867.0</ele>
        <time>2013-06-30T13:43:34Z</time>
      </trkpt>
      <trkpt lat="40.171367" lon="-5.191533">
        <ele>1868.0</ele>
        <time>2013-06-30T13:43:35Z</time>
      </trkpt>
      <trkpt lat="40.171367" lon="-5.191667">
        <ele>1870.0</ele>
        <time>2013-06-30T13:43:36Z</time>
      </trkpt>
      <trkpt lat="40.171367" lon="-5.191800">
        <ele>1871.0</ele>
        <time>2013-06-30T13:43:37Z</time>
      </trkpt>
      <trkpt lat="40.171367" lon="-5.191933">
        <ele>1873.0</ele>
        <time>2013-06-30T13:43:38Z</time>
      </trkpt>
      <trkpt lat="40.171350" lon="-5.192067">
        <ele>1874.0</ele>
        <time>2013-06-30T13:43:39Z</time>
      </trkpt>
      <trkpt lat="40.171350" lon="-5.192200">
        <ele>1875.0</ele>
        <time>2013-06-30T13:43:40Z</time>
      </trkpt>
      <trkpt lat="40.171333" lon="-5.192333">
        <ele>1876.0</ele>
        <time>2013-06-30T13:43:41Z</time>
      </trkpt>
      <trkpt lat="40.171317" lon="-5.192467">
        <ele>1878.0</ele>
        <time>2013-06-30T13:43:42Z</time>
      </trkpt>
      <trkpt lat="40.171300" lon="-5.192583">
        <ele>1879.0</ele>
        <time>2013-06-30T13:43:43Z</time>
      </trkpt>
      <trkpt lat="40.171283" lon="-5.192717">
        <ele>1881.0</ele>
        <time>2013-06-30T13:43:44Z</time>
      </trkpt>
      <trkpt lat="40.171267" lon="-5.192850">
        <ele>1882.0</ele>
        <time>2013-06-30T13:43:45Z</time>
      </trkpt>
      <trkpt lat="40.171250" lon="-5.192983">
        <ele>1884.0</ele>
        <time>2013-06-30T13:43:46Z</time>
      </trkpt>
      <trkpt lat="40.171233" lon="-5.193100">
        <ele>1885.0</ele>
        <time>2013-06-30T13:43:47Z</time>
      </trkpt>
      <trkpt lat="40.171233" lon="-5.193233">
        <ele>1886.0</ele>
        <time>2013-06-30T13:43:48Z</time>
      </trkpt>
      <trkpt lat="40.171217" lon="-5.193367">
        <ele>1886.0</ele>
        <time>2013-06-30T13:43:49Z</time>
      </trkpt>
      <trkpt lat="40.171183" lon="-5.193517">
        <ele>1886.0</ele>
        <time>2013-06-30T13:43:50Z</time>
      </trkpt>
      <trkpt lat="40.171167" lon="-5.193667">
        <ele>1887.0</ele>
        <time>2013-06-30T13:43:51Z</time>
      </trkpt>
      <trkpt lat="40.171150" lon="-5.193800">
        <ele>1889.0</ele>
        <time>2013-06-30T13:43:52Z</time>
      </trkpt>
      <trkpt lat="40.171133" lon="-5.193917">
        <ele>1891.0</ele>
        <time>2013-06-30T13:43:53Z</time>
      </trkpt>
      <trkpt lat="40.171133" lon="-5.194033">
        <ele>1892.0</ele>
        <time>2013-06-30T13:43:54Z</time>
      </trkpt>
      <trkpt lat="40.171117" lon="-5.194317">
        <ele>1894.0</ele>
        <time>2013-06-30T13:43:56Z</time>
      </trkpt>
      <trkpt lat="40.171117" lon="-5.194467">
        <ele>1894.0</ele>
        <time>2013-06-30T13:43:57Z</time>
      </trkpt>
      <trkpt lat="40.171117" lon="-5.194617">
        <ele>1895.0</ele>
        <time>2013-06-30T13:43:58Z</time>
      </trkpt>
      <trkpt lat="40.171117" lon="-5.194750">
        <ele>1897.0</ele>
        <time>2013-06-30T13:43:59Z</time>
      </trkpt>
      <trkpt lat="40.171150" lon="-5.194883">
        <ele>1900.0</ele>
        <time>2013-06-30T13:44:00Z</time>
      </trkpt>
      <trkpt lat="40.171183" lon="-5.194967">
        <ele>1902.0</ele>
        <time>2013-06-30T13:44:01Z</time>
      </trkpt>
      <trkpt lat="40.171267" lon="-5.195050">
        <ele>1902.0</ele>
        <time>2013-06-30T13:44:02Z</time>
      </trkpt>
      <trkpt lat="40.171350" lon="-5.195117">
        <ele>1902.0</ele>
        <time>2013-06-30T13:44:03Z</time>
      </trkpt>
      <trkpt lat="40.171433" lon="-5.195133">
        <ele>1902.0</ele>
        <time>2013-06-30T13:44:04Z</time>
      </trkpt>
      <trkpt lat="40.171517" lon="-5.195133">
        <ele>1902.0</ele>
        <time>2013-06-30T13:44:05Z</time>
      </trkpt>
      <trkpt lat="40.171600" lon="-5.195100">
        <ele>1903.0</ele>
        <time>2013-06-30T13:44:06Z</time>
      </trkpt>
      <trkpt lat="40.171667" lon="-5.195033">
        <ele>1904.0</ele>
        <time>2013-06-30T13:44:07Z</time>
      </trkpt>
      <trkpt lat="40.171700" lon="-5.194950">
        <ele>1905.0</ele>
        <time>2013-06-30T13:44:08Z</time>
      </trkpt>
      <trkpt lat="40.171733" lon="-5.194850">
        <ele>1905.0</ele>
        <time>2013-06-30T13:44:09Z</time>
      </trkpt>
      <trkpt lat="40.171733" lon="-5.194750">
        <ele>1906.0</ele>
        <time>2013-06-30T13:44:10Z</time>
      </trkpt>
      <trkpt lat="40.171717" lon="-5.194650">
        <ele>1908.0</ele>
        <time>2013-06-30T13:44:11Z</time>
      </trkpt>
      <trkpt lat="40.171683" lon="-5.194600">
        <ele>1910.0</ele>
        <time>2013-06-30T13:44:12Z</time>
      </trkpt>
      <trkpt lat="40.171633" lon="-5.194550">
        <ele>1913.0</ele>
        <time>2013-06-30T13:44:13Z</time>
      </trkpt>
      <trkpt lat="40.171583" lon="-5.194500">
        <ele>1915.0</ele>
        <time>2013-06-30T13:44:14Z</time>
      </trkpt>
      <trkpt lat="40.171533" lon="-5.194450">
        <ele>1917.0</ele>
        <time>2013-06-30T13:44:15Z</time>
      </trkpt>
      <trkpt lat="40.171483" lon="-5.194400">
        <ele>1919.0</ele>
        <time>2013-06-30T13:44:16Z</time>
      </trkpt>
      <trkpt lat="40.171433" lon="-5.194367">
        <ele>1920.0</ele>
        <time>2013-06-30T13:44:17Z</time>
      </trkpt>
      <trkpt lat="40.171367" lon="-5.194333">
        <ele>1922.0</ele>
        <time>2013-06-30T13:44:18Z</time>
      </trkpt>
      <trkpt lat="40.171300" lon="-5.194333">
        <ele>1923.0</ele>
        <time>2013-06-30T13:44:19Z</time>
      </trkpt>
      <trkpt lat="40.171233" lon="-5.194350">
        <ele>1924.0</ele>
        <time>2013-06-30T13:44:20Z</time>
      </trkpt>
      <trkpt lat="40.171167" lon="-5.194400">
        <ele>1925.0</ele>
        <time>2013-06-30T13:44:21Z</time>
      </trkpt>
      <trkpt lat="40.171083" lon="-5.194450">
        <ele>1926.0</ele>
        <time>2013-06-30T13:44:22Z</time>
      </trkpt>
      <trkpt lat="40.171000" lon="-5.194533">
        <ele>1927.0</ele>
        <time>2013-06-30T13:44:23Z</time>
      </trkpt>
      <trkpt lat="40.170950" lon="-5.194633">
        <ele>1928.0</ele>
        <time>2013-06-30T13:44:24Z</time>
      </trkpt>
      <trkpt lat="40.170917" lon="-5.194767">
        <ele>1929.0</ele>
        <time>2013-06-30T13:44:25Z</time>
      </trkpt>
      <trkpt lat="40.170900" lon="-5.194917">
        <ele>1929.0</ele>
        <time>2013-06-30T13:44:26Z</time>
      </trkpt>
      <trkpt lat="40.170917" lon="-5.195067">
        <ele>1929.0</ele>
        <time>2013-06-30T13:44:27Z</time>
      </trkpt>
      <trkpt lat="40.170950" lon="-5.195200">
        <ele>1930.0</ele>
        <time>2013-06-30T13:44:28Z</time>
      </trkpt>
      <trkpt lat="40.170983" lon="-5.195317">
        <ele>1932.0</ele>
        <time>2013-06-30T13:44:29Z</time>
      </trkpt>
      <trkpt lat="40.171033" lon="-5.195400">
        <ele>1933.0</ele>
        <time>2013-06-30T13:44:30Z</time>
      </trkpt>
      <trkpt lat="40.171100" lon="-5.195467">
        <ele>1934.0</ele>
        <time>2013-06-30T13:44:31Z</time>
      </trkpt>
      <trkpt lat="40.171183" lon="-5.195533">
        <ele>1934.0</ele>
        <time>2013-06-30T13:44:32Z</time>
      </trkpt>
      <trkpt lat="40.171267" lon="-5.195600">
        <ele>1934.0</ele>
        <time>2013-06-30T13:44:33Z</time>
      </trkpt>
      <trkpt lat="40.171350" lon="-5.195633">
        <ele>1936.0</ele>
        <time>2013-06-30T13:44:34Z</time>
      </trkpt>
      <trkpt lat="40.171433" lon="-5.195650">
        <ele>1937.0</ele>
        <time>2013-06-30T13:44:35Z</time>
      </trkpt>
      <trkpt lat="40.171500" lon="-5.195650">
        <ele>1939.0</ele>
        <time>2013-06-30T13:44:36Z</time>
      </trkpt>
      <trkpt lat="40.171567" lon="-5.195617">
        <ele>1939.0</ele>
        <time>2013-06-30T13:44:37Z</time>
      </trkpt>
      <trkpt lat="40.171650" lon="-5.195583">
        <ele>1939.0</ele>
        <time>2013-06-30T13:44:38Z</time>
      </trkpt>
      <trkpt lat="40.171733" lon="-5.195517">
        <ele>1939.0</ele>
        <time>2013-06-30T13:44:39Z</time>
      </trkpt>
      <trkpt lat="40.171800" lon="-5.195467">
        <ele>1939.0</ele>
        <time>2013-06-30T13:44:40Z</time>
      </trkpt>
      <trkpt lat="40.171867" lon="-5.195400">
        <ele>1940.0</ele>
        <time>2013-06-30T13:44:41Z</time>
      </trkpt>
      <trkpt lat="40.171900" lon="-5.195350">
        <ele>1942.0</ele>
        <time>2013-06-30T13:44:42Z</time>
      </trkpt>
      <trkpt lat="40.171950" lon="-5.195283">
        <ele>1944.0</ele>
        <time>2013-06-30T13:44:43Z</time>
      </trkpt>
      <trkpt lat="40.171983" lon="-5.195233">
        <ele>1945.0</ele>
        <time>2013-06-30T13:44:44Z</time>
      </trkpt>
      <trkpt lat="40.172017" lon="-5.195150">
        <ele>1946.0</ele>
        <time>2013-06-30T13:44:45Z</time>
      </trkpt>
      <trkpt lat="40.172050" lon="-5.195083">
        <ele>1947.0</ele>
        <time>2013-06-30T13:44:46Z</time>
      </trkpt>
      <trkpt lat="40.172067" lon="-5.194983">
        <ele>1947.0</ele>
        <time>2013-06-30T13:44:47Z</time>
      </trkpt>
      <trkpt lat="40.172067" lon="-5.194900">
        <ele>1948.0</ele>
        <time>2013-06-30T13:44:48Z</time>
      </trkpt>
      <trkpt lat="40.172033" lon="-5.194817">
        <ele>1949.0</ele>
        <time>2013-06-30T13:44:49Z</time>
      </trkpt>
      <trkpt lat="40.171983" lon="-5.194767">
        <ele>1950.0</ele>
        <time>2013-06-30T13:44:50Z</time>
      </trkpt>
      <trkpt lat="40.171933" lon="-5.194733">
        <ele>1951.0</ele>
        <time>2013-06-30T13:44:51Z</time>
      </trkpt>
      <trkpt lat="40.171867" lon="-5.194700">
        <ele>1952.0</ele>
        <time>2013-06-30T13:44:52Z</time>
      </trkpt>
      <trkpt lat="40.171783" lon="-5.194683">
        <ele>1952.0</ele>
        <time>2013-06-30T13:44:53Z</time>
      </trkpt>
      <trkpt lat="40.171700" lon="-5.194683">
        <ele>1952.0</ele>
        <time>2013-06-30T13:44:54Z</time>
      </trkpt>
      <trkpt lat="40.171617" lon="-5.194700">
        <ele>1952.0</ele>
        <time>2013-06-30T13:44:55Z</time>
      </trkpt>
      <trkpt lat="40.171550" lon="-5.194750">
        <ele>1953.0</ele>
        <time>2013-06-30T13:44:56Z</time>
      </trkpt>
      <trkpt lat="40.171500" lon="-5.194800">
        <ele>1954.0</ele>
        <time>2013-06-30T13:44:57Z</time>
      </trkpt>
      <trkpt lat="40.171450" lon="-5.194883">
        <ele>1955.0</ele>
        <time>2013-06-30T13:44:58Z</time>
      </trkpt>
      <trkpt lat="40.171383" lon="-5.194967">
        <ele>1954.0</ele>
        <time>2013-06-30T13:44:59Z</time>
      </trkpt>
      <trkpt lat="40.171283" lon="-5.195067">
        <ele>1954.0</ele>
        <time>2013-06-30T13:45:00Z</time>
      </trkpt>
      <trkpt lat="40.171217" lon="-5.195167">
        <ele>1953.0</ele>
        <time>2013-06-30T13:45:01Z</time>
      </trkpt>
      <trkpt lat="40.171167" lon="-5.195267">
        <ele>1954.0</ele>
        <time>2013-06-30T13:45:02Z</time>
      </trkpt>
      <trkpt lat="40.171133" lon="-5.195367">
        <ele>1955.0</ele>
        <time>2013-06-30T13:45:03Z</time>
      </trkpt>
      <trkpt lat="40.171100" lon="-5.195483">
        <ele>1955.0</ele>
        <time>2013-06-30T13:45:04Z</time>
      </trkpt>
      <trkpt lat="40.171067" lon="-5.195617">
        <ele>1955.0</ele>
        <time>2013-06-30T13:45:05Z</time>
      </trkpt>
      <trkpt lat="40.171033" lon="-5.195767">
        <ele>1955.0</ele>
        <time>2013-06-30T13:45:06Z</time>
      </trkpt>
      <trkpt lat="40.170983" lon="-5.195900">
        <ele>1956.0</ele>
        <time>2013-06-30T13:45:07Z</time>
      </trkpt>
      <trkpt lat="40.170933" lon="-5.196033">
        <ele>1957.0</ele>
        <time>2013-06-30T13:45:08Z</time>
      </trkpt>
      <trkpt lat="40.170917" lon="-5.196133">
        <ele>1960.0</ele>
        <time>2013-06-30T13:45:09Z</time>
      </trkpt>
      <trkpt lat="40.170900" lon="-5.196233">
        <ele>1961.0</ele>
        <time>2013-06-30T13:45:10Z</time>
      </trkpt>
      <trkpt lat="40.170900" lon="-5.196350">
        <ele>1963.0</ele>
        <time>2013-06-30T13:45:11Z</time>
      </trkpt>
      <trkpt lat="40.170917" lon="-5.196467">
        <ele>1964.0</ele>
        <time>2013-06-30T13:45:12Z</time>
      </trkpt>
      <trkpt lat="40.170950" lon="-5.196583">
        <ele>1964.0</ele>
        <time>2013-06-30T13:45:13Z</time>
      </trkpt>
      <trkpt lat="40.171000" lon="-5.196683">
        <ele>1964.0</ele>
        <time>2013-06-30T13:45:14Z</time>
      </trkpt>
      <trkpt lat="40.171067" lon="-5.196767">
        <ele>1965.0</ele>
        <time>2013-06-30T13:45:15Z</time>
      </trkpt>
      <trkpt lat="40.171150" lon="-5.196817">
        <ele>1964.0</ele>
        <time>2013-06-30T13:45:16Z</time>
      </trkpt>
      <trkpt lat="40.171250" lon="-5.196850">
        <ele>1964.0</ele>
        <time>2013-06-30T13:45:17Z</time>
      </trkpt>
      <trkpt lat="40.171350" lon="-5.196833">
        <ele>1963.0</ele>
        <time>2013-06-30T13:45:18Z</time>
      </trkpt>
      <trkpt lat="40.171433" lon="-5.196817">
        <ele>1963.0</ele>
        <time>2013-06-30T13:45:19Z</time>
      </trkpt>
      <trkpt lat="40.171517" lon="-5.196783">
        <ele>1964.0</ele>
        <time>2013-06-30T13:45:20Z</time>
      </trkpt>
      <trkpt lat="40.171583" lon="-5.196733">
        <ele>1965.0</ele>
        <time>2013-06-30T13:45:21Z</time>
      </trkpt>
      <trkpt lat="40.171617" lon="-5.196667">
        <ele>1966.0</ele>
        <time>2013-06-30T13:45:22Z</time>
      </trkpt>
      <trkpt lat="40.171633" lon="-5.196567">
        <ele>1966.0</ele>
        <time>2013-06-30T13:45:23Z</time>
      </trkpt>
      <trkpt lat="40.171633" lon="-5.196483">
        <ele>1967.0</ele>
        <time>2013-06-30T13:45:24Z</time>
      </trkpt>
      <trkpt lat="40.171633" lon="-5.196400">
        <ele>1968.0</ele>
        <time>2013-06-30T13:45:25Z</time>
      </trkpt>
      <trkpt lat="40.171600" lon="-5.196317">
        <ele>1969.0</ele>
        <time>2013-06-30T13:45:26Z</time>
      </trkpt>
      <trkpt lat="40.171567" lon="-5.196250">
        <ele>1970.0</ele>
        <time>2013-06-30T13:45:27Z</time>
      </trkpt>
      <trkpt lat="40.171517" lon="-5.196183">
        <ele>1972.0</ele>
        <time>2013-06-30T13:45:28Z</time>
      </trkpt>
      <trkpt lat="40.171450" lon="-5.196117">
        <ele>1973.0</ele>
        <time>2013-06-30T13:45:29Z</time>
      </trkpt>
      <trkpt lat="40.171383" lon="-5.196067">
        <ele>1974.0</ele>
        <time>2013-06-30T13:45:30Z</time>
      </trkpt>
      <trkpt lat="40.171283" lon="-5.196050">
        <ele>1975.0</ele>
        <time>2013-06-30T13:45:31Z</time>
      </trkpt>
      <trkpt lat="40.171183" lon="-5.196033">
        <ele>1976.0</ele>
        <time>2013-06-30T13:45:32Z</time>
      </trkpt>
      <trkpt lat="40.171100" lon="-5.196033">
        <ele>1976.0</ele>
        <time>2013-06-30T13:45:33Z</time>
      </trkpt>
      <trkpt lat="40.171000" lon="-5.196050">
        <ele>1978.0</ele>
        <time>2013-06-30T13:45:34Z</time>
      </trkpt>
      <trkpt lat="40.170917" lon="-5.196083">
        <ele>1979.0</ele>
        <time>2013-06-30T13:45:35Z</time>
      </trkpt>
      <trkpt lat="40.170833" lon="-5.196133">
        <ele>1980.0</ele>
        <time>2013-06-30T13:45:36Z</time>
      </trkpt>
      <trkpt lat="40.170733" lon="-5.196200">
        <ele>1980.0</ele>
        <time>2013-06-30T13:45:37Z</time>
      </trkpt>
      <trkpt lat="40.170633" lon="-5.196267">
        <ele>1980.0</ele>
        <time>2013-06-30T13:45:38Z</time>
      </trkpt>
      <trkpt lat="40.170550" lon="-5.196333">
        <ele>1981.0</ele>
        <time>2013-06-30T13:45:39Z</time>
      </trkpt>
      <trkpt lat="40.170467" lon="-5.196400">
        <ele>1982.0</ele>
        <time>2013-06-30T13:45:40Z</time>
      </trkpt>
      <trkpt lat="40.170400" lon="-5.196483">
        <ele>1983.0</ele>
        <time>2013-06-30T13:45:41Z</time>
      </trkpt>
      <trkpt lat="40.170333" lon="-5.196567">
        <ele>1984.0</ele>
        <time>2013-06-30T13:45:42Z</time>
      </trkpt>
      <trkpt lat="40.170283" lon="-5.196667">
        <ele>1985.0</ele>
        <time>2013-06-30T13:45:43Z</time>
      </trkpt>
      <trkpt lat="40.170233" lon="-5.196767">
        <ele>1985.0</ele>
        <time>2013-06-30T13:45:44Z</time>
      </trkpt>
      <trkpt lat="40.170217" lon="-5.196850">
        <ele>1985.0</ele>
        <time>2013-06-30T13:45:45Z</time>
      </trkpt>
      <trkpt lat="40.170183" lon="-5.196950">
        <ele>1985.0</ele>
        <time>2013-06-30T13:45:46Z</time>
      </trkpt>
      <trkpt lat="40.170167" lon="-5.197067">
        <ele>1984.0</ele>
        <time>2013-06-30T13:45:47Z</time>
      </trkpt>
      <trkpt lat="40.170150" lon="-5.197183">
        <ele>1983.0</ele>
        <time>2013-06-30T13:45:48Z</time>
      </trkpt>
      <trkpt lat="40.170133" lon="-5.197317">
        <ele>1981.0</ele>
        <time>2013-06-30T13:45:49Z</time>
      </trkpt>
      <trkpt lat="40.170117" lon="-5.197433">
        <ele>1980.0</ele>
        <time>2013-06-30T13:45:50Z</time>
      </trkpt>
      <trkpt lat="40.170083" lon="-5.197550">
        <ele>1980.0</ele>
        <time>2013-06-30T13:45:51Z</time>
      </trkpt>
      <trkpt lat="40.170067" lon="-5.197650">
        <ele>1979.0</ele>
        <time>2013-06-30T13:45:52Z</time>
      </trkpt>
      <trkpt lat="40.170033" lon="-5.197750">
        <ele>1978.0</ele>
        <time>2013-06-30T13:45:53Z</time>
      </trkpt>
      <trkpt lat="40.170017" lon="-5.197867">
        <ele>1978.0</ele>
        <time>2013-06-30T13:45:54Z</time>
      </trkpt>
      <trkpt lat="40.170000" lon="-5.197983">
        <ele>1976.0</ele>
        <time>2013-06-30T13:45:55Z</time>
      </trkpt>
      <trkpt lat="40.169983" lon="-5.198100">
        <ele>1976.0</ele>
        <time>2013-06-30T13:45:56Z</time>
      </trkpt>
      <trkpt lat="40.169983" lon="-5.198217">
        <ele>1976.0</ele>
        <time>2013-06-30T13:45:57Z</time>
      </trkpt>
      <trkpt lat="40.169983" lon="-5.198317">
        <ele>1978.0</ele>
        <time>2013-06-30T13:45:58Z</time>
      </trkpt>
      <trkpt lat="40.170000" lon="-5.198417">
        <ele>1979.0</ele>
        <time>2013-06-30T13:45:59Z</time>
      </trkpt>
      <trkpt lat="40.170033" lon="-5.198500">
        <ele>1979.0</ele>
        <time>2013-06-30T13:46:00Z</time>
      </trkpt>
      <trkpt lat="40.170067" lon="-5.198600">
        <ele>1979.0</ele>
        <time>2013-06-30T13:46:01Z</time>
      </trkpt>
      <trkpt lat="40.170133" lon="-5.198717">
        <ele>1978.0</ele>
        <time>2013-06-30T13:46:02Z</time>
      </trkpt>
      <trkpt lat="40.170217" lon="-5.198800">
        <ele>1978.0</ele>
        <time>2013-06-30T13:46:03Z</time>
      </trkpt>
      <trkpt lat="40.170300" lon="-5.198867">
        <ele>1978.0</ele>
        <time>2013-06-30T13:46:04Z</time>
      </trkpt>
      <trkpt lat="40.170400" lon="-5.198883">
        <ele>1979.0</ele>
        <time>2013-06-30T13:46:05Z</time>
      </trkpt>
      <trkpt lat="40.170483" lon="-5.198883">
        <ele>1980.0</ele>
        <time>2013-06-30T13:46:06Z</time>
      </trkpt>
      <trkpt lat="40.170567" lon="-5.198850">
        <ele>1981.0</ele>
        <time>2013-06-30T13:46:07Z</time>
      </trkpt>
      <trkpt lat="40.170650" lon="-5.198783">
        <ele>1983.0</ele>
        <time>2013-06-30T13:46:08Z</time>
      </trkpt>
      <trkpt lat="40.170717" lon="-5.198717">
        <ele>1984.0</ele>
        <time>2013-06-30T13:46:09Z</time>
      </trkpt>
      <trkpt lat="40.170767" lon="-5.198617">
        <ele>1984.0</ele>
        <time>2013-06-30T13:46:10Z</time>
      </trkpt>
      <trkpt lat="40.170800" lon="-5.198500">
        <ele>1985.0</ele>
        <time>2013-06-30T13:46:11Z</time>
      </trkpt>
      <trkpt lat="40.170817" lon="-5.198400">
        <ele>1985.0</ele>
        <time>2013-06-30T13:46:12Z</time>
      </trkpt>
      <trkpt lat="40.170817" lon="-5.198317">
        <ele>1987.0</ele>
        <time>2013-06-30T13:46:13Z</time>
      </trkpt>
      <trkpt lat="40.170817" lon="-5.198233">
        <ele>1988.0</ele>
        <time>2013-06-30T13:46:14Z</time>
      </trkpt>
      <trkpt lat="40.170800" lon="-5.198167">
        <ele>1988.0</ele>
        <time>2013-06-30T13:46:15Z</time>
      </trkpt>
      <trkpt lat="40.170767" lon="-5.198083">
        <ele>1987.0</ele>
        <time>2013-06-30T13:46:16Z</time>
      </trkpt>
      <trkpt lat="40.170717" lon="-5.198000">
        <ele>1986.0</ele>
        <time>2013-06-30T13:46:17Z</time>
      </trkpt>
      <trkpt lat="40.170650" lon="-5.197950">
        <ele>1985.0</ele>
        <time>2013-06-30T13:46:18Z</time>
      </trkpt>
      <trkpt lat="40.170583" lon="-5.197917">
        <ele>1985.0</ele>
        <time>2013-06-30T13:46:19Z</time>
      </trkpt>
      <trkpt lat="40.170517" lon="-5.197917">
        <ele>1984.0</ele>
        <time>2013-06-30T13:46:20Z</time>
      </trkpt>
      <trkpt lat="40.170450" lon="-5.197950">
        <ele>1984.0</ele>
        <time>2013-06-30T13:46:21Z</time>
      </trkpt>
      <trkpt lat="40.170367" lon="-5.197983">
        <ele>1983.0</ele>
        <time>2013-06-30T13:46:22Z</time>
      </trkpt>
      <trkpt lat="40.170283" lon="-5.198033">
        <ele>1981.0</ele>
        <time>2013-06-30T13:46:23Z</time>
      </trkpt>
      <trkpt lat="40.170200" lon="-5.198100">
        <ele>1979.0</ele>
        <time>2013-06-30T13:46:24Z</time>
      </trkpt>
      <trkpt lat="40.170133" lon="-5.198167">
        <ele>1977.0</ele>
        <time>2013-06-30T13:46:25Z</time>
      </trkpt>
      <trkpt lat="40.170067" lon="-5.198267">
        <ele>1976.0</ele>
        <time>2013-06-30T13:46:26Z</time>
      </trkpt>
      <trkpt lat="40.170000" lon="-5.198350">
        <ele>1975.0</ele>
        <time>2013-06-30T13:46:27Z</time>
      </trkpt>
      <trkpt lat="40.169917" lon="-5.198550">
        <ele>1975.0</ele>
        <time>2013-06-30T13:46:29Z</time>
      </trkpt>
      <trkpt lat="40.169883" lon="-5.198633">
        <ele>1975.0</ele>
        <time>2013-06-30T13:46:30Z</time>
      </trkpt>
      <trkpt lat="40.169850" lon="-5.198717">
        <ele>1975.0</ele>
        <time>2013-06-30T13:46:31Z</time>
      </trkpt>
      <trkpt lat="40.169817" lon="-5.198817">
        <ele>1975.0</ele>
        <time>2013-06-30T13:46:32Z</time>
      </trkpt>
      <trkpt lat="40.169800" lon="-5.198917">
        <ele>1975.0</ele>
        <time>2013-06-30T13:46:33Z</time>
      </trkpt>
      <trkpt lat="40.169783" lon="-5.199033">
        <ele>1976.0</ele>
        <time>2013-06-30T13:46:34Z</time>
      </trkpt>
      <trkpt lat="40.169767" lon="-5.199150">
        <ele>1976.0</ele>
        <time>2013-06-30T13:46:35Z</time>
      </trkpt>
      <trkpt lat="40.169767" lon="-5.199267">
        <ele>1977.0</ele>
        <time>2013-06-30T13:46:36Z</time>
      </trkpt>
      <trkpt lat="40.169767" lon="-5.199367">
        <ele>1978.0</ele>
        <time>2013-06-30T13:46:37Z</time>
      </trkpt>
      <trkpt lat="40.169750" lon="-5.199483">
        <ele>1979.0</ele>
        <time>2013-06-30T13:46:38Z</time>
      </trkpt>
      <trkpt lat="40.169733" lon="-5.199583">
        <ele>1981.0</ele>
        <time>2013-06-30T13:46:39Z</time>
      </trkpt>
      <trkpt lat="40.169733" lon="-5.199700">
        <ele>1981.0</ele>
        <time>2013-06-30T13:46:40Z</time>
      </trkpt>
      <trkpt lat="40.169733" lon="-5.199817">
        <ele>1981.0</ele>
        <time>2013-06-30T13:46:41Z</time>
      </trkpt>
      <trkpt lat="40.169733" lon="-5.199950">
        <ele>1981.0</ele>
        <time>2013-06-30T13:46:42Z</time>
      </trkpt>
      <trkpt lat="40.169733" lon="-5.200067">
        <ele>1982.0</ele>
        <time>2013-06-30T13:46:43Z</time>
      </trkpt>
      <trkpt lat="40.169733" lon="-5.200183">
        <ele>1983.0</ele>
        <time>2013-06-30T13:46:44Z</time>
      </trkpt>
      <trkpt lat="40.169733" lon="-5.200283">
        <ele>1984.0</ele>
        <time>2013-06-30T13:46:45Z</time>
      </trkpt>
      <trkpt lat="40.169717" lon="-5.200400">
        <ele>1984.0</ele>
        <time>2013-06-30T13:46:46Z</time>
      </trkpt>
      <trkpt lat="40.169717" lon="-5.200617">
        <ele>1984.0</ele>
        <time>2013-06-30T13:46:48Z</time>
      </trkpt>
      <trkpt lat="40.169717" lon="-5.200733">
        <ele>1984.0</ele>
        <time>2013-06-30T13:46:49Z</time>
      </trkpt>
      <trkpt lat="40.169717" lon="-5.200867">
        <ele>1983.0</ele>
        <time>2013-06-30T13:46:50Z</time>
      </trkpt>
      <trkpt lat="40.169733" lon="-5.200983">
        <ele>1983.0</ele>
        <time>2013-06-30T13:46:51Z</time>
      </trkpt>
      <trkpt lat="40.169733" lon="-5.201100">
        <ele>1982.0</ele>
        <time>2013-06-30T13:46:52Z</time>
      </trkpt>
      <trkpt lat="40.169733" lon="-5.201200">
        <ele>1982.0</ele>
        <time>2013-06-30T13:46:53Z</time>
      </trkpt>
      <trkpt lat="40.169733" lon="-5.201317">
        <ele>1981.0</ele>
        <time>2013-06-30T13:46:54Z</time>
      </trkpt>
      <trkpt lat="40.169733" lon="-5.201433">
        <ele>1979.0</ele>
        <time>2013-06-30T13:46:55Z</time>
      </trkpt>
      <trkpt lat="40.169717" lon="-5.201550">
        <ele>1977.0</ele>
        <time>2013-06-30T13:46:56Z</time>
      </trkpt>
      <trkpt lat="40.169700" lon="-5.201700">
        <ele>1976.0</ele>
        <time>2013-06-30T13:46:57Z</time>
      </trkpt>
      <trkpt lat="40.169683" lon="-5.201833">
        <ele>1975.0</ele>
        <time>2013-06-30T13:46:58Z</time>
      </trkpt>
      <trkpt lat="40.169667" lon="-5.201950">
        <ele>1974.0</ele>
        <time>2013-06-30T13:46:59Z</time>
      </trkpt>
      <trkpt lat="40.169650" lon="-5.202083">
        <ele>1974.0</ele>
        <time>2013-06-30T13:47:00Z</time>
      </trkpt>
      <trkpt lat="40.169633" lon="-5.202200">
        <ele>1974.0</ele>
        <time>2013-06-30T13:47:01Z</time>
      </trkpt>
      <trkpt lat="40.169600" lon="-5.202333">
        <ele>1973.0</ele>
        <time>2013-06-30T13:47:02Z</time>
      </trkpt>
      <trkpt lat="40.169583" lon="-5.202483">
        <ele>1972.0</ele>
        <time>2013-06-30T13:47:03Z</time>
      </trkpt>
      <trkpt lat="40.169567" lon="-5.202617">
        <ele>1971.0</ele>
        <time>2013-06-30T13:47:04Z</time>
      </trkpt>
      <trkpt lat="40.169567" lon="-5.202750">
        <ele>1970.0</ele>
        <time>2013-06-30T13:47:05Z</time>
      </trkpt>
      <trkpt lat="40.169550" lon="-5.202867">
        <ele>1969.0</ele>
        <time>2013-06-30T13:47:06Z</time>
      </trkpt>
      <trkpt lat="40.169533" lon="-5.202983">
        <ele>1968.0</ele>
        <time>2013-06-30T13:47:07Z</time>
      </trkpt>
      <trkpt lat="40.169517" lon="-5.203100">
        <ele>1967.0</ele>
        <time>2013-06-30T13:47:08Z</time>
      </trkpt>
      <trkpt lat="40.169500" lon="-5.203233">
        <ele>1965.0</ele>
        <time>2013-06-30T13:47:09Z</time>
      </trkpt>
      <trkpt lat="40.169483" lon="-5.203367">
        <ele>1964.0</ele>
        <time>2013-06-30T13:47:10Z</time>
      </trkpt>
      <trkpt lat="40.169467" lon="-5.203500">
        <ele>1963.0</ele>
        <time>2013-06-30T13:47:11Z</time>
      </trkpt>
      <trkpt lat="40.169467" lon="-5.203617">
        <ele>1962.0</ele>
        <time>2013-06-30T13:47:12Z</time>
      </trkpt>
      <trkpt lat="40.169450" lon="-5.203733">
        <ele>1962.0</ele>
        <time>2013-06-30T13:47:13Z</time>
      </trkpt>
      <trkpt lat="40.169433" lon="-5.203833">
        <ele>1960.0</ele>
        <time>2013-06-30T13:47:14Z</time>
      </trkpt>
      <trkpt lat="40.169417" lon="-5.203967">
        <ele>1959.0</ele>
        <time>2013-06-30T13:47:15Z</time>
      </trkpt>
      <trkpt lat="40.169383" lon="-5.204083">
        <ele>1957.0</ele>
        <time>2013-06-30T13:47:16Z</time>
      </trkpt>
      <trkpt lat="40.169367" lon="-5.204200">
        <ele>1957.0</ele>
        <time>2013-06-30T13:47:17Z</time>
      </trkpt>
      <trkpt lat="40.169333" lon="-5.204317">
        <ele>1956.0</ele>
        <time>2013-06-30T13:47:18Z</time>
      </trkpt>
      <trkpt lat="40.169300" lon="-5.204433">
        <ele>1956.0</ele>
        <time>2013-06-30T13:47:19Z</time>
      </trkpt>
      <trkpt lat="40.169283" lon="-5.204550">
        <ele>1956.0</ele>
        <time>2013-06-30T13:47:20Z</time>
      </trkpt>
      <trkpt lat="40.169267" lon="-5.204667">
        <ele>1955.0</ele>
        <time>2013-06-30T13:47:21Z</time>
      </trkpt>
      <trkpt lat="40.169250" lon="-5.204800">
        <ele>1955.0</ele>
        <time>2013-06-30T13:47:22Z</time>
      </trkpt>
      <trkpt lat="40.169233" lon="-5.204917">
        <ele>1956.0</ele>
        <time>2013-06-30T13:47:23Z</time>
      </trkpt>
      <trkpt lat="40.169217" lon="-5.205017">
        <ele>1956.0</ele>
        <time>2013-06-30T13:47:24Z</time>
      </trkpt>
      <trkpt lat="40.169200" lon="-5.205133">
        <ele>1957.0</ele>
        <time>2013-06-30T13:47:25Z</time>
      </trkpt>
      <trkpt lat="40.169200" lon="-5.205250">
        <ele>1957.0</ele>
        <time>2013-06-30T13:47:26Z</time>
      </trkpt>
      <trkpt lat="40.169183" lon="-5.205367">
        <ele>1957.0</ele>
        <time>2013-06-30T13:47:27Z</time>
      </trkpt>
      <trkpt lat="40.169150" lon="-5.205500">
        <ele>1956.0</ele>
        <time>2013-06-30T13:47:28Z</time>
      </trkpt>
      <trkpt lat="40.169133" lon="-5.205600">
        <ele>1957.0</ele>
        <time>2013-06-30T13:47:29Z</time>
      </trkpt>
      <trkpt lat="40.169117" lon="-5.205717">
        <ele>1958.0</ele>
        <time>2013-06-30T13:47:30Z</time>
      </trkpt>
      <trkpt lat="40.169100" lon="-5.205817">
        <ele>1958.0</ele>
        <time>2013-06-30T13:47:31Z</time>
      </trkpt>
      <trkpt lat="40.169067" lon="-5.205933">
        <ele>1958.0</ele>
        <time>2013-06-30T13:47:32Z</time>
      </trkpt>
      <trkpt lat="40.169050" lon="-5.206067">
        <ele>1958.0</ele>
        <time>2013-06-30T13:47:33Z</time>
      </trkpt>
      <trkpt lat="40.169033" lon="-5.206183">
        <ele>1958.0</ele>
        <time>2013-06-30T13:47:34Z</time>
      </trkpt>
      <trkpt lat="40.169017" lon="-5.206317">
        <ele>1958.0</ele>
        <time>2013-06-30T13:47:35Z</time>
      </trkpt>
      <trkpt lat="40.169017" lon="-5.206450">
        <ele>1958.0</ele>
        <time>2013-06-30T13:47:36Z</time>
      </trkpt>
      <trkpt lat="40.169000" lon="-5.206583">
        <ele>1958.0</ele>
        <time>2013-06-30T13:47:37Z</time>
      </trkpt>
      <trkpt lat="40.168983" lon="-5.206717">
        <ele>1959.0</ele>
        <time>2013-06-30T13:47:38Z</time>
      </trkpt>
      <trkpt lat="40.168967" lon="-5.206850">
        <ele>1959.0</ele>
        <time>2013-06-30T13:47:39Z</time>
      </trkpt>
      <trkpt lat="40.168950" lon="-5.206983">
        <ele>1960.0</ele>
        <time>2013-06-30T13:47:40Z</time>
      </trkpt>
      <trkpt lat="40.168933" lon="-5.207100">
        <ele>1961.0</ele>
        <time>2013-06-30T13:47:41Z</time>
      </trkpt>
      <trkpt lat="40.168933" lon="-5.207233">
        <ele>1962.0</ele>
        <time>2013-06-30T13:47:42Z</time>
      </trkpt>
      <trkpt lat="40.168917" lon="-5.207367">
        <ele>1962.0</ele>
        <time>2013-06-30T13:47:43Z</time>
      </trkpt>
      <trkpt lat="40.168900" lon="-5.207500">
        <ele>1963.0</ele>
        <time>2013-06-30T13:47:44Z</time>
      </trkpt>
      <trkpt lat="40.168883" lon="-5.207617">
        <ele>1963.0</ele>
        <time>2013-06-30T13:47:45Z</time>
      </trkpt>
      <trkpt lat="40.168867" lon="-5.207733">
        <ele>1964.0</ele>
        <time>2013-06-30T13:47:46Z</time>
      </trkpt>
      <trkpt lat="40.168833" lon="-5.207850">
        <ele>1964.0</ele>
        <time>2013-06-30T13:47:47Z</time>
      </trkpt>
      <trkpt lat="40.168817" lon="-5.207983">
        <ele>1964.0</ele>
        <time>2013-06-30T13:47:48Z</time>
      </trkpt>
      <trkpt lat="40.168800" lon="-5.208117">
        <ele>1964.0</ele>
        <time>2013-06-30T13:47:49Z</time>
      </trkpt>
      <trkpt lat="40.168767" lon="-5.208250">
        <ele>1964.0</ele>
        <time>2013-06-30T13:47:50Z</time>
      </trkpt>
      <trkpt lat="40.168750" lon="-5.208383">
        <ele>1965.0</ele>
        <time>2013-06-30T13:47:51Z</time>
      </trkpt>
      <trkpt lat="40.168717" lon="-5.208517">
        <ele>1964.0</ele>
        <time>2013-06-30T13:47:52Z</time>
      </trkpt>
      <trkpt lat="40.168683" lon="-5.208633">
        <ele>1964.0</ele>
        <time>2013-06-30T13:47:53Z</time>
      </trkpt>
      <trkpt lat="40.168633" lon="-5.208767">
        <ele>1963.0</ele>
        <time>2013-06-30T13:47:54Z</time>
      </trkpt>
      <trkpt lat="40.168583" lon="-5.208883">
        <ele>1963.0</ele>
        <time>2013-06-30T13:47:55Z</time>
      </trkpt>
      <trkpt lat="40.168550" lon="-5.209000">
        <ele>1965.0</ele>
        <time>2013-06-30T13:47:56Z</time>
      </trkpt>
      <trkpt lat="40.168517" lon="-5.209117">
        <ele>1966.0</ele>
        <time>2013-06-30T13:47:57Z</time>
      </trkpt>
      <trkpt lat="40.168483" lon="-5.209233">
        <ele>1968.0</ele>
        <time>2013-06-30T13:47:58Z</time>
      </trkpt>
      <trkpt lat="40.168467" lon="-5.209333">
        <ele>1969.0</ele>
        <time>2013-06-30T13:47:59Z</time>
      </trkpt>
      <trkpt lat="40.168433" lon="-5.209450">
        <ele>1970.0</ele>
        <time>2013-06-30T13:48:00Z</time>
      </trkpt>
      <trkpt lat="40.168400" lon="-5.209567">
        <ele>1970.0</ele>
        <time>2013-06-30T13:48:01Z</time>
      </trkpt>
      <trkpt lat="40.168367" lon="-5.209683">
        <ele>1970.0</ele>
        <time>2013-06-30T13:48:02Z</time>
      </trkpt>
      <trkpt lat="40.168333" lon="-5.209800">
        <ele>1970.0</ele>
        <time>2013-06-30T13:48:03Z</time>
      </trkpt>
      <trkpt lat="40.168283" lon="-5.209900">
        <ele>1970.0</ele>
        <time>2013-06-30T13:48:04Z</time>
      </trkpt>
      <trkpt lat="40.168250" lon="-5.210017">
        <ele>1970.0</ele>
        <time>2013-06-30T13:48:05Z</time>
      </trkpt>
      <trkpt lat="40.168183" lon="-5.210133">
        <ele>1970.0</ele>
        <time>2013-06-30T13:48:06Z</time>
      </trkpt>
      <trkpt lat="40.168117" lon="-5.210267">
        <ele>1971.0</ele>
        <time>2013-06-30T13:48:07Z</time>
      </trkpt>
      <trkpt lat="40.168067" lon="-5.210383">
        <ele>1972.0</ele>
        <time>2013-06-30T13:48:08Z</time>
      </trkpt>
      <trkpt lat="40.168017" lon="-5.210483">
        <ele>1974.0</ele>
        <time>2013-06-30T13:48:09Z</time>
      </trkpt>
      <trkpt lat="40.167967" lon="-5.210583">
        <ele>1976.0</ele>
        <time>2013-06-30T13:48:10Z</time>
      </trkpt>
      <trkpt lat="40.167917" lon="-5.210683">
        <ele>1978.0</ele>
        <time>2013-06-30T13:48:11Z</time>
      </trkpt>
      <trkpt lat="40.167883" lon="-5.210783">
        <ele>1979.0</ele>
        <time>2013-06-30T13:48:12Z</time>
      </trkpt>
      <trkpt lat="40.167850" lon="-5.210883">
        <ele>1980.0</ele>
        <time>2013-06-30T13:48:13Z</time>
      </trkpt>
      <trkpt lat="40.167833" lon="-5.211017">
        <ele>1981.0</ele>
        <time>2013-06-30T13:48:14Z</time>
      </trkpt>
      <trkpt lat="40.167867" lon="-5.211150">
        <ele>1981.0</ele>
        <time>2013-06-30T13:48:15Z</time>
      </trkpt>
      <trkpt lat="40.167917" lon="-5.211267">
        <ele>1981.0</ele>
        <time>2013-06-30T13:48:16Z</time>
      </trkpt>
      <trkpt lat="40.168017" lon="-5.211333">
        <ele>1981.0</ele>
        <time>2013-06-30T13:48:17Z</time>
      </trkpt>
      <trkpt lat="40.168100" lon="-5.211350">
        <ele>1980.0</ele>
        <time>2013-06-30T13:48:18Z</time>
      </trkpt>
      <trkpt lat="40.168183" lon="-5.211317">
        <ele>1979.0</ele>
        <time>2013-06-30T13:48:19Z</time>
      </trkpt>
      <trkpt lat="40.168333" lon="-5.211217">
        <ele>1981.0</ele>
        <time>2013-06-30T13:48:21Z</time>
      </trkpt>
      <trkpt lat="40.168433" lon="-5.211100">
        <ele>1984.0</ele>
        <time>2013-06-30T13:48:23Z</time>
      </trkpt>
      <trkpt lat="40.168483" lon="-5.211017">
        <ele>1985.0</ele>
        <time>2013-06-30T13:48:24Z</time>
      </trkpt>
      <trkpt lat="40.168517" lon="-5.210917">
        <ele>1986.0</ele>
        <time>2013-06-30T13:48:25Z</time>
      </trkpt>
      <trkpt lat="40.168517" lon="-5.210833">
        <ele>1987.0</ele>
        <time>2013-06-30T13:48:26Z</time>
      </trkpt>
      <trkpt lat="40.168533" lon="-5.210767">
        <ele>1989.0</ele>
        <time>2013-06-30T13:48:27Z</time>
      </trkpt>
      <trkpt lat="40.168517" lon="-5.210700">
        <ele>1991.0</ele>
        <time>2013-06-30T13:48:28Z</time>
      </trkpt>
      <trkpt lat="40.168517" lon="-5.210633">
        <ele>1993.0</ele>
        <time>2013-06-30T13:48:29Z</time>
      </trkpt>
      <trkpt lat="40.168483" lon="-5.210567">
        <ele>1994.0</ele>
        <time>2013-06-30T13:48:30Z</time>
      </trkpt>
      <trkpt lat="40.168450" lon="-5.210517">
        <ele>1995.0</ele>
        <time>2013-06-30T13:48:31Z</time>
      </trkpt>
      <trkpt lat="40.168417" lon="-5.210450">
        <ele>1996.0</ele>
        <time>2013-06-30T13:48:32Z</time>
      </trkpt>
      <trkpt lat="40.168350" lon="-5.210367">
        <ele>1995.0</ele>
        <time>2013-06-30T13:48:33Z</time>
      </trkpt>
      <trkpt lat="40.168300" lon="-5.210300">
        <ele>1995.0</ele>
        <time>2013-06-30T13:48:34Z</time>
      </trkpt>
      <trkpt lat="40.168250" lon="-5.210250">
        <ele>1995.0</ele>
        <time>2013-06-30T13:48:35Z</time>
      </trkpt>
      <trkpt lat="40.168183" lon="-5.210217">
        <ele>1996.0</ele>
        <time>2013-06-30T13:48:36Z</time>
      </trkpt>
      <trkpt lat="40.168067" lon="-5.210200">
        <ele>1996.0</ele>
        <time>2013-06-30T13:48:38Z</time>
      </trkpt>
      <trkpt lat="40.167983" lon="-5.210200">
        <ele>1994.0</ele>
        <time>2013-06-30T13:48:39Z</time>
      </trkpt>
      <trkpt lat="40.167900" lon="-5.210183">
        <ele>1993.0</ele>
        <time>2013-06-30T13:48:40Z</time>
      </trkpt>
      <trkpt lat="40.167800" lon="-5.210183">
        <ele>1992.0</ele>
        <time>2013-06-30T13:48:41Z</time>
      </trkpt>
      <trkpt lat="40.167700" lon="-5.210200">
        <ele>1993.0</ele>
        <time>2013-06-30T13:48:42Z</time>
      </trkpt>
      <trkpt lat="40.167633" lon="-5.210233">
        <ele>1994.0</ele>
        <time>2013-06-30T13:48:43Z</time>
      </trkpt>
      <trkpt lat="40.167567" lon="-5.210267">
        <ele>1995.0</ele>
        <time>2013-06-30T13:48:44Z</time>
      </trkpt>
      <trkpt lat="40.167500" lon="-5.210300">
        <ele>1996.0</ele>
        <time>2013-06-30T13:48:45Z</time>
      </trkpt>
      <trkpt lat="40.167317" lon="-5.210400">
        <ele>1994.0</ele>
        <time>2013-06-30T13:48:47Z</time>
      </trkpt>
      <trkpt lat="40.167233" lon="-5.210450">
        <ele>1994.0</ele>
        <time>2013-06-30T13:48:48Z</time>
      </trkpt>
      <trkpt lat="40.167150" lon="-5.210500">
        <ele>1994.0</ele>
        <time>2013-06-30T13:48:49Z</time>
      </trkpt>
      <trkpt lat="40.167083" lon="-5.210550">
        <ele>1996.0</ele>
        <time>2013-06-30T13:48:50Z</time>
      </trkpt>
      <trkpt lat="40.167017" lon="-5.210583">
        <ele>1997.0</ele>
        <time>2013-06-30T13:48:51Z</time>
      </trkpt>
      <trkpt lat="40.166950" lon="-5.210633">
        <ele>1997.0</ele>
        <time>2013-06-30T13:48:52Z</time>
      </trkpt>
      <trkpt lat="40.166817" lon="-5.210783">
        <ele>1994.0</ele>
        <time>2013-06-30T13:48:54Z</time>
      </trkpt>
      <trkpt lat="40.166750" lon="-5.210867">
        <ele>1993.0</ele>
        <time>2013-06-30T13:48:55Z</time>
      </trkpt>
      <trkpt lat="40.166683" lon="-5.210967">
        <ele>1993.0</ele>
        <time>2013-06-30T13:48:56Z</time>
      </trkpt>
      <trkpt lat="40.166617" lon="-5.211067">
        <ele>1992.0</ele>
        <time>2013-06-30T13:48:57Z</time>
      </trkpt>
      <trkpt lat="40.166550" lon="-5.211150">
        <ele>1993.0</ele>
        <time>2013-06-30T13:48:58Z</time>
      </trkpt>
      <trkpt lat="40.166500" lon="-5.211250">
        <ele>1994.0</ele>
        <time>2013-06-30T13:48:59Z</time>
      </trkpt>
      <trkpt lat="40.166467" lon="-5.211350">
        <ele>1995.0</ele>
        <time>2013-06-30T13:49:00Z</time>
      </trkpt>
      <trkpt lat="40.166433" lon="-5.211467">
        <ele>1995.0</ele>
        <time>2013-06-30T13:49:01Z</time>
      </trkpt>
      <trkpt lat="40.166417" lon="-5.211583">
        <ele>1994.0</ele>
        <time>2013-06-30T13:49:02Z</time>
      </trkpt>
      <trkpt lat="40.166433" lon="-5.211717">
        <ele>1994.0</ele>
        <time>2013-06-30T13:49:03Z</time>
      </trkpt>
      <trkpt lat="40.166450" lon="-5.211833">
        <ele>1993.0</ele>
        <time>2013-06-30T13:49:04Z</time>
      </trkpt>
      <trkpt lat="40.166483" lon="-5.211950">
        <ele>1993.0</ele>
        <time>2013-06-30T13:49:05Z</time>
      </trkpt>
      <trkpt lat="40.166533" lon="-5.212067">
        <ele>1993.0</ele>
        <time>2013-06-30T13:49:06Z</time>
      </trkpt>
      <trkpt lat="40.166683" lon="-5.212200">
        <ele>1993.0</ele>
        <time>2013-06-30T13:49:08Z</time>
      </trkpt>
      <trkpt lat="40.166750" lon="-5.212250">
        <ele>1992.0</ele>
        <time>2013-06-30T13:49:09Z</time>
      </trkpt>
      <trkpt lat="40.166833" lon="-5.212283">
        <ele>1991.0</ele>
        <time>2013-06-30T13:49:10Z</time>
      </trkpt>
      <trkpt lat="40.166900" lon="-5.212283">
        <ele>1990.0</ele>
        <time>2013-06-30T13:49:11Z</time>
      </trkpt>
      <trkpt lat="40.166983" lon="-5.212283">
        <ele>1989.0</ele>
        <time>2013-06-30T13:49:12Z</time>
      </trkpt>
      <trkpt lat="40.167067" lon="-5.212233">
        <ele>1988.0</ele>
        <time>2013-06-30T13:49:13Z</time>
      </trkpt>
      <trkpt lat="40.167117" lon="-5.212183">
        <ele>1987.0</ele>
        <time>2013-06-30T13:49:14Z</time>
      </trkpt>
      <trkpt lat="40.167167" lon="-5.212100">
        <ele>1986.0</ele>
        <time>2013-06-30T13:49:15Z</time>
      </trkpt>
      <trkpt lat="40.167200" lon="-5.212017">
        <ele>1985.0</ele>
        <time>2013-06-30T13:49:16Z</time>
      </trkpt>
      <trkpt lat="40.167233" lon="-5.211950">
        <ele>1985.0</ele>
        <time>2013-06-30T13:49:17Z</time>
      </trkpt>
      <trkpt lat="40.167250" lon="-5.211867">
        <ele>1986.0</ele>
        <time>2013-06-30T13:49:18Z</time>
      </trkpt>
      <trkpt lat="40.167267" lon="-5.211783">
        <ele>1986.0</ele>
        <time>2013-06-30T13:49:19Z</time>
      </trkpt>
      <trkpt lat="40.167283" lon="-5.211683">
        <ele>1986.0</ele>
        <time>2013-06-30T13:49:20Z</time>
      </trkpt>
      <trkpt lat="40.167300" lon="-5.211583">
        <ele>1986.0</ele>
        <time>2013-06-30T13:49:21Z</time>
      </trkpt>
      <trkpt lat="40.167300" lon="-5.211483">
        <ele>1986.0</ele>
        <time>2013-06-30T13:49:22Z</time>
      </trkpt>
      <trkpt lat="40.167283" lon="-5.211350">
        <ele>1986.0</ele>
        <time>2013-06-30T13:49:23Z</time>
      </trkpt>
      <trkpt lat="40.167283" lon="-5.211250">
        <ele>1986.0</ele>
        <time>2013-06-30T13:49:24Z</time>
      </trkpt>
      <trkpt lat="40.167283" lon="-5.211150">
        <ele>1988.0</ele>
        <time>2013-06-30T13:49:25Z</time>
      </trkpt>
      <trkpt lat="40.167283" lon="-5.211067">
        <ele>1990.0</ele>
        <time>2013-06-30T13:49:26Z</time>
      </trkpt>
      <trkpt lat="40.167283" lon="-5.211000">
        <ele>1991.0</ele>
        <time>2013-06-30T13:49:27Z</time>
      </trkpt>
      <trkpt lat="40.167283" lon="-5.210933">
        <ele>1992.0</ele>
        <time>2013-06-30T13:49:28Z</time>
      </trkpt>
      <trkpt lat="40.167300" lon="-5.210833">
        <ele>1991.0</ele>
        <time>2013-06-30T13:49:29Z</time>
      </trkpt>
      <trkpt lat="40.167300" lon="-5.210717">
        <ele>1990.0</ele>
        <time>2013-06-30T13:49:30Z</time>
      </trkpt>
      <trkpt lat="40.167283" lon="-5.210617">
        <ele>1991.0</ele>
        <time>2013-06-30T13:49:31Z</time>
      </trkpt>
      <trkpt lat="40.167267" lon="-5.210533">
        <ele>1992.0</ele>
        <time>2013-06-30T13:49:32Z</time>
      </trkpt>
      <trkpt lat="40.167250" lon="-5.210450">
        <ele>1993.0</ele>
        <time>2013-06-30T13:49:33Z</time>
      </trkpt>
      <trkpt lat="40.167217" lon="-5.210383">
        <ele>1994.0</ele>
        <time>2013-06-30T13:49:34Z</time>
      </trkpt>
      <trkpt lat="40.167183" lon="-5.210300">
        <ele>1994.0</ele>
        <time>2013-06-30T13:49:35Z</time>
      </trkpt>
      <trkpt lat="40.167133" lon="-5.210217">
        <ele>1993.0</ele>
        <time>2013-06-30T13:49:36Z</time>
      </trkpt>
      <trkpt lat="40.167067" lon="-5.210150">
        <ele>1993.0</ele>
        <time>2013-06-30T13:49:37Z</time>
      </trkpt>
      <trkpt lat="40.167000" lon="-5.210117">
        <ele>1994.0</ele>
        <time>2013-06-30T13:49:38Z</time>
      </trkpt>
      <trkpt lat="40.166917" lon="-5.210117">
        <ele>1994.0</ele>
        <time>2013-06-30T13:49:39Z</time>
      </trkpt>
      <trkpt lat="40.166833" lon="-5.210150">
        <ele>1994.0</ele>
        <time>2013-06-30T13:49:40Z</time>
      </trkpt>
      <trkpt lat="40.166767" lon="-5.210183">
        <ele>1994.0</ele>
        <time>2013-06-30T13:49:41Z</time>
      </trkpt>
      <trkpt lat="40.166683" lon="-5.210233">
        <ele>1994.0</ele>
        <time>2013-06-30T13:49:42Z</time>
      </trkpt>
      <trkpt lat="40.166617" lon="-5.210317">
        <ele>1995.0</ele>
        <time>2013-06-30T13:49:43Z</time>
      </trkpt>
      <trkpt lat="40.166567" lon="-5.210400">
        <ele>1994.0</ele>
        <time>2013-06-30T13:49:44Z</time>
      </trkpt>
      <trkpt lat="40.166533" lon="-5.210517">
        <ele>1994.0</ele>
        <time>2013-06-30T13:49:45Z</time>
      </trkpt>
      <trkpt lat="40.166533" lon="-5.210650">
        <ele>1994.0</ele>
        <time>2013-06-30T13:49:46Z</time>
      </trkpt>
      <trkpt lat="40.166533" lon="-5.210750">
        <ele>1994.0</ele>
        <time>2013-06-30T13:49:47Z</time>
      </trkpt>
      <trkpt lat="40.166567" lon="-5.210833">
        <ele>1995.0</ele>
        <time>2013-06-30T13:49:48Z</time>
      </trkpt>
      <trkpt lat="40.166617" lon="-5.210933">
        <ele>1994.0</ele>
        <time>2013-06-30T13:49:49Z</time>
      </trkpt>
      <trkpt lat="40.166667" lon="-5.211033">
        <ele>1994.0</ele>
        <time>2013-06-30T13:49:50Z</time>
      </trkpt>
      <trkpt lat="40.166750" lon="-5.211117">
        <ele>1992.0</ele>
        <time>2013-06-30T13:49:51Z</time>
      </trkpt>
      <trkpt lat="40.166833" lon="-5.211183">
        <ele>1992.0</ele>
        <time>2013-06-30T13:49:52Z</time>
      </trkpt>
      <trkpt lat="40.166917" lon="-5.211233">
        <ele>1992.0</ele>
        <time>2013-06-30T13:49:53Z</time>
      </trkpt>
      <trkpt lat="40.167000" lon="-5.211267">
        <ele>1993.0</ele>
        <time>2013-06-30T13:49:54Z</time>
      </trkpt>
      <trkpt lat="40.167083" lon="-5.211267">
        <ele>1993.0</ele>
        <time>2013-06-30T13:49:55Z</time>
      </trkpt>
      <trkpt lat="40.167183" lon="-5.211283">
        <ele>1992.0</ele>
        <time>2013-06-30T13:49:56Z</time>
      </trkpt>
      <trkpt lat="40.167283" lon="-5.211267">
        <ele>1991.0</ele>
        <time>2013-06-30T13:49:57Z</time>
      </trkpt>
      <trkpt lat="40.167367" lon="-5.211233">
        <ele>1990.0</ele>
        <time>2013-06-30T13:49:58Z</time>
      </trkpt>
      <trkpt lat="40.167467" lon="-5.211183">
        <ele>1990.0</ele>
        <time>2013-06-30T13:49:59Z</time>
      </trkpt>
      <trkpt lat="40.167550" lon="-5.211133">
        <ele>1990.0</ele>
        <time>2013-06-30T13:50:00Z</time>
      </trkpt>
      <trkpt lat="40.167633" lon="-5.211083">
        <ele>1991.0</ele>
        <time>2013-06-30T13:50:01Z</time>
      </trkpt>
      <trkpt lat="40.167700" lon="-5.211050">
        <ele>1992.0</ele>
        <time>2013-06-30T13:50:02Z</time>
      </trkpt>
      <trkpt lat="40.167767" lon="-5.211000">
        <ele>1992.0</ele>
        <time>2013-06-30T13:50:03Z</time>
      </trkpt>
      <trkpt lat="40.167900" lon="-5.210833">
        <ele>1991.0</ele>
        <time>2013-06-30T13:50:05Z</time>
      </trkpt>
      <trkpt lat="40.167950" lon="-5.210750">
        <ele>1991.0</ele>
        <time>2013-06-30T13:50:06Z</time>
      </trkpt>
      <trkpt lat="40.168000" lon="-5.210667">
        <ele>1990.0</ele>
        <time>2013-06-30T13:50:07Z</time>
      </trkpt>
      <trkpt lat="40.168050" lon="-5.210583">
        <ele>1991.0</ele>
        <time>2013-06-30T13:50:08Z</time>
      </trkpt>
      <trkpt lat="40.168083" lon="-5.210500">
        <ele>1991.0</ele>
        <time>2013-06-30T13:50:09Z</time>
      </trkpt>
      <trkpt lat="40.168117" lon="-5.210417">
        <ele>1991.0</ele>
        <time>2013-06-30T13:50:10Z</time>
      </trkpt>
      <trkpt lat="40.168150" lon="-5.210333">
        <ele>1992.0</ele>
        <time>2013-06-30T13:50:11Z</time>
      </trkpt>
      <trkpt lat="40.168167" lon="-5.210250">
        <ele>1993.0</ele>
        <time>2013-06-30T13:50:12Z</time>
      </trkpt>
      <trkpt lat="40.168183" lon="-5.210167">
        <ele>1994.0</ele>
        <time>2013-06-30T13:50:13Z</time>
      </trkpt>
      <trkpt lat="40.168200" lon="-5.210083">
        <ele>1994.0</ele>
        <time>2013-06-30T13:50:14Z</time>
      </trkpt>
      <trkpt lat="40.168217" lon="-5.209983">
        <ele>1995.0</ele>
        <time>2013-06-30T13:50:15Z</time>
      </trkpt>
      <trkpt lat="40.168217" lon="-5.209900">
        <ele>1995.0</ele>
        <time>2013-06-30T13:50:16Z</time>
      </trkpt>
      <trkpt lat="40.168217" lon="-5.209800">
        <ele>1996.0</ele>
        <time>2013-06-30T13:50:17Z</time>
      </trkpt>
      <trkpt lat="40.168217" lon="-5.209717">
        <ele>1997.0</ele>
        <time>2013-06-30T13:50:18Z</time>
      </trkpt>
      <trkpt lat="40.168217" lon="-5.209633">
        <ele>1998.0</ele>
        <time>2013-06-30T13:50:19Z</time>
      </trkpt>
      <trkpt lat="40.168217" lon="-5.209567">
        <ele>2000.0</ele>
        <time>2013-06-30T13:50:20Z</time>
      </trkpt>
      <trkpt lat="40.168217" lon="-5.209483">
        <ele>2001.0</ele>
        <time>2013-06-30T13:50:21Z</time>
      </trkpt>
      <trkpt lat="40.168217" lon="-5.209400">
        <ele>2002.0</ele>
        <time>2013-06-30T13:50:22Z</time>
      </trkpt>
      <trkpt lat="40.168200" lon="-5.209317">
        <ele>2002.0</ele>
        <time>2013-06-30T13:50:23Z</time>
      </trkpt>
      <trkpt lat="40.168183" lon="-5.209233">
        <ele>2003.0</ele>
        <time>2013-06-30T13:50:24Z</time>
      </trkpt>
      <trkpt lat="40.168167" lon="-5.209133">
        <ele>2004.0</ele>
        <time>2013-06-30T13:50:25Z</time>
      </trkpt>
      <trkpt lat="40.168150" lon="-5.209050">
        <ele>2005.0</ele>
        <time>2013-06-30T13:50:26Z</time>
      </trkpt>
      <trkpt lat="40.168133" lon="-5.208983">
        <ele>2007.0</ele>
        <time>2013-06-30T13:50:27Z</time>
      </trkpt>
      <trkpt lat="40.168117" lon="-5.208917">
        <ele>2008.0</ele>
        <time>2013-06-30T13:50:28Z</time>
      </trkpt>
      <trkpt lat="40.168083" lon="-5.208850">
        <ele>2010.0</ele>
        <time>2013-06-30T13:50:29Z</time>
      </trkpt>
      <trkpt lat="40.168050" lon="-5.208767">
        <ele>2010.0</ele>
        <time>2013-06-30T13:50:30Z</time>
      </trkpt>
      <trkpt lat="40.168000" lon="-5.208700">
        <ele>2010.0</ele>
        <time>2013-06-30T13:50:31Z</time>
      </trkpt>
      <trkpt lat="40.167933" lon="-5.208633">
        <ele>2010.0</ele>
        <time>2013-06-30T13:50:32Z</time>
      </trkpt>
      <trkpt lat="40.167867" lon="-5.208617">
        <ele>2011.0</ele>
        <time>2013-06-30T13:50:33Z</time>
      </trkpt>
      <trkpt lat="40.167800" lon="-5.208633">
        <ele>2011.0</ele>
        <time>2013-06-30T13:50:34Z</time>
      </trkpt>
      <trkpt lat="40.167717" lon="-5.208667">
        <ele>2012.0</ele>
        <time>2013-06-30T13:50:35Z</time>
      </trkpt>
      <trkpt lat="40.167650" lon="-5.208717">
        <ele>2013.0</ele>
        <time>2013-06-30T13:50:36Z</time>
      </trkpt>
      <trkpt lat="40.167567" lon="-5.208783">
        <ele>2014.0</ele>
        <time>2013-06-30T13:50:37Z</time>
      </trkpt>
      <trkpt lat="40.167500" lon="-5.208850">
        <ele>2015.0</ele>
        <time>2013-06-30T13:50:38Z</time>
      </trkpt>
      <trkpt lat="40.167433" lon="-5.208950">
        <ele>2017.0</ele>
        <time>2013-06-30T13:50:39Z</time>
      </trkpt>
      <trkpt lat="40.167383" lon="-5.209050">
        <ele>2019.0</ele>
        <time>2013-06-30T13:50:40Z</time>
      </trkpt>
      <trkpt lat="40.167367" lon="-5.209150">
        <ele>2020.0</ele>
        <time>2013-06-30T13:50:41Z</time>
      </trkpt>
      <trkpt lat="40.167350" lon="-5.209267">
        <ele>2021.0</ele>
        <time>2013-06-30T13:50:42Z</time>
      </trkpt>
      <trkpt lat="40.167367" lon="-5.209400">
        <ele>2022.0</ele>
        <time>2013-06-30T13:50:43Z</time>
      </trkpt>
      <trkpt lat="40.167383" lon="-5.209533">
        <ele>2023.0</ele>
        <time>2013-06-30T13:50:44Z</time>
      </trkpt>
      <trkpt lat="40.167417" lon="-5.209667">
        <ele>2023.0</ele>
        <time>2013-06-30T13:50:45Z</time>
      </trkpt>
      <trkpt lat="40.167450" lon="-5.209800">
        <ele>2023.0</ele>
        <time>2013-06-30T13:50:46Z</time>
      </trkpt>
      <trkpt lat="40.167517" lon="-5.209900">
        <ele>2023.0</ele>
        <time>2013-06-30T13:50:47Z</time>
      </trkpt>
      <trkpt lat="40.167600" lon="-5.209983">
        <ele>2023.0</ele>
        <time>2013-06-30T13:50:48Z</time>
      </trkpt>
      <trkpt lat="40.167683" lon="-5.210033">
        <ele>2021.0</ele>
        <time>2013-06-30T13:50:49Z</time>
      </trkpt>
      <trkpt lat="40.167783" lon="-5.210067">
        <ele>2020.0</ele>
        <time>2013-06-30T13:50:50Z</time>
      </trkpt>
      <trkpt lat="40.167883" lon="-5.210083">
        <ele>2019.0</ele>
        <time>2013-06-30T13:50:51Z</time>
      </trkpt>
      <trkpt lat="40.167967" lon="-5.210067">
        <ele>2019.0</ele>
        <time>2013-06-30T13:50:52Z</time>
      </trkpt>
      <trkpt lat="40.168050" lon="-5.210033">
        <ele>2019.0</ele>
        <time>2013-06-30T13:50:53Z</time>
      </trkpt>
      <trkpt lat="40.168133" lon="-5.209983">
        <ele>2019.0</ele>
        <time>2013-06-30T13:50:54Z</time>
      </trkpt>
      <trkpt lat="40.168200" lon="-5.209933">
        <ele>2019.0</ele>
        <time>2013-06-30T13:50:55Z</time>
      </trkpt>
      <trkpt lat="40.168267" lon="-5.209867">
        <ele>2020.0</ele>
        <time>2013-06-30T13:50:56Z</time>
      </trkpt>
      <trkpt lat="40.168317" lon="-5.209817">
        <ele>2021.0</ele>
        <time>2013-06-30T13:50:57Z</time>
      </trkpt>
      <trkpt lat="40.168383" lon="-5.209700">
        <ele>2025.0</ele>
        <time>2013-06-30T13:50:59Z</time>
      </trkpt>
      <trkpt lat="40.168400" lon="-5.209633">
        <ele>2026.0</ele>
        <time>2013-06-30T13:51:00Z</time>
      </trkpt>
      <trkpt lat="40.168417" lon="-5.209583">
        <ele>2027.0</ele>
        <time>2013-06-30T13:51:01Z</time>
      </trkpt>
      <trkpt lat="40.168450" lon="-5.209517">
        <ele>2028.0</ele>
        <time>2013-06-30T13:51:02Z</time>
      </trkpt>
      <trkpt lat="40.168450" lon="-5.209450">
        <ele>2029.0</ele>
        <time>2013-06-30T13:51:03Z</time>
      </trkpt>
      <trkpt lat="40.168467" lon="-5.209383">
        <ele>2029.0</ele>
        <time>2013-06-30T13:51:04Z</time>
      </trkpt>
      <trkpt lat="40.168467" lon="-5.209300">
        <ele>2030.0</ele>
        <time>2013-06-30T13:51:05Z</time>
      </trkpt>
      <trkpt lat="40.168467" lon="-5.209233">
        <ele>2031.0</ele>
        <time>2013-06-30T13:51:06Z</time>
      </trkpt>
      <trkpt lat="40.168433" lon="-5.209167">
        <ele>2031.0</ele>
        <time>2013-06-30T13:51:07Z</time>
      </trkpt>
      <trkpt lat="40.168400" lon="-5.209117">
        <ele>2031.0</ele>
        <time>2013-06-30T13:51:08Z</time>
      </trkpt>
      <trkpt lat="40.168350" lon="-5.209067">
        <ele>2031.0</ele>
        <time>2013-06-30T13:51:09Z</time>
      </trkpt>
      <trkpt lat="40.168283" lon="-5.209033">
        <ele>2032.0</ele>
        <time>2013-06-30T13:51:10Z</time>
      </trkpt>
      <trkpt lat="40.168217" lon="-5.209017">
        <ele>2032.0</ele>
        <time>2013-06-30T13:51:11Z</time>
      </trkpt>
      <trkpt lat="40.168150" lon="-5.209000">
        <ele>2032.0</ele>
        <time>2013-06-30T13:51:12Z</time>
      </trkpt>
      <trkpt lat="40.168083" lon="-5.208983">
        <ele>2032.0</ele>
        <time>2013-06-30T13:51:13Z</time>
      </trkpt>
      <trkpt lat="40.168000" lon="-5.208967">
        <ele>2032.0</ele>
        <time>2013-06-30T13:51:14Z</time>
      </trkpt>
      <trkpt lat="40.167933" lon="-5.208950">
        <ele>2032.0</ele>
        <time>2013-06-30T13:51:15Z</time>
      </trkpt>
      <trkpt lat="40.167833" lon="-5.208950">
        <ele>2033.0</ele>
        <time>2013-06-30T13:51:16Z</time>
      </trkpt>
      <trkpt lat="40.167750" lon="-5.208983">
        <ele>2033.0</ele>
        <time>2013-06-30T13:51:17Z</time>
      </trkpt>
      <trkpt lat="40.167583" lon="-5.209100">
        <ele>2033.0</ele>
        <time>2013-06-30T13:51:19Z</time>
      </trkpt>
      <trkpt lat="40.167500" lon="-5.209183">
        <ele>2033.0</ele>
        <time>2013-06-30T13:51:20Z</time>
      </trkpt>
      <trkpt lat="40.167417" lon="-5.209283">
        <ele>2034.0</ele>
        <time>2013-06-30T13:51:21Z</time>
      </trkpt>
      <trkpt lat="40.167367" lon="-5.209383">
        <ele>2034.0</ele>
        <time>2013-06-30T13:51:22Z</time>
      </trkpt>
      <trkpt lat="40.167300" lon="-5.209483">
        <ele>2034.0</ele>
        <time>2013-06-30T13:51:23Z</time>
      </trkpt>
      <trkpt lat="40.167250" lon="-5.209617">
        <ele>2033.0</ele>
        <time>2013-06-30T13:51:24Z</time>
      </trkpt>
      <trkpt lat="40.167183" lon="-5.209750">
        <ele>2033.0</ele>
        <time>2013-06-30T13:51:25Z</time>
      </trkpt>
      <trkpt lat="40.167150" lon="-5.209883">
        <ele>2033.0</ele>
        <time>2013-06-30T13:51:26Z</time>
      </trkpt>
      <trkpt lat="40.167117" lon="-5.209983">
        <ele>2034.0</ele>
        <time>2013-06-30T13:51:27Z</time>
      </trkpt>
      <trkpt lat="40.167100" lon="-5.210083">
        <ele>2034.0</ele>
        <time>2013-06-30T13:51:28Z</time>
      </trkpt>
      <trkpt lat="40.167083" lon="-5.210183">
        <ele>2034.0</ele>
        <time>2013-06-30T13:51:29Z</time>
      </trkpt>
      <trkpt lat="40.167067" lon="-5.210450">
        <ele>2033.0</ele>
        <time>2013-06-30T13:51:31Z</time>
      </trkpt>
      <trkpt lat="40.167083" lon="-5.210583">
        <ele>2033.0</ele>
        <time>2013-06-30T13:51:32Z</time>
      </trkpt>
      <trkpt lat="40.167133" lon="-5.210700">
        <ele>2033.0</ele>
        <time>2013-06-30T13:51:33Z</time>
      </trkpt>
      <trkpt lat="40.167183" lon="-5.210800">
        <ele>2034.0</ele>
        <time>2013-06-30T13:51:34Z</time>
      </trkpt>
      <trkpt lat="40.167233" lon="-5.210883">
        <ele>2035.0</ele>
        <time>2013-06-30T13:51:35Z</time>
      </trkpt>
      <trkpt lat="40.167283" lon="-5.210967">
        <ele>2035.0</ele>
        <time>2013-06-30T13:51:36Z</time>
      </trkpt>
      <trkpt lat="40.167350" lon="-5.211050">
        <ele>2036.0</ele>
        <time>2013-06-30T13:51:37Z</time>
      </trkpt>
      <trkpt lat="40.167433" lon="-5.211133">
        <ele>2036.0</ele>
        <time>2013-06-30T13:51:38Z</time>
      </trkpt>
      <trkpt lat="40.167517" lon="-5.211183">
        <ele>2036.0</ele>
        <time>2013-06-30T13:51:39Z</time>
      </trkpt>
      <trkpt lat="40.167617" lon="-5.211233">
        <ele>2036.0</ele>
        <time>2013-06-30T13:51:40Z</time>
      </trkpt>
      <trkpt lat="40.167700" lon="-5.211267">
        <ele>2037.0</ele>
        <time>2013-06-30T13:51:41Z</time>
      </trkpt>
      <trkpt lat="40.167783" lon="-5.211283">
        <ele>2038.0</ele>
        <time>2013-06-30T13:51:42Z</time>
      </trkpt>
      <trkpt lat="40.167867" lon="-5.211300">
        <ele>2037.0</ele>
        <time>2013-06-30T13:51:43Z</time>
      </trkpt>
      <trkpt lat="40.167950" lon="-5.211300">
        <ele>2035.0</ele>
        <time>2013-06-30T13:51:44Z</time>
      </trkpt>
      <trkpt lat="40.168050" lon="-5.211283">
        <ele>2034.0</ele>
        <time>2013-06-30T13:51:45Z</time>
      </trkpt>
      <trkpt lat="40.168150" lon="-5.211283">
        <ele>2032.0</ele>
        <time>2013-06-30T13:51:46Z</time>
      </trkpt>
      <trkpt lat="40.168233" lon="-5.211267">
        <ele>2031.0</ele>
        <time>2013-06-30T13:51:47Z</time>
      </trkpt>
      <trkpt lat="40.168350" lon="-5.211250">
        <ele>2034.0</ele>
        <time>2013-06-30T13:51:49Z</time>
      </trkpt>
      <trkpt lat="40.168400" lon="-5.211200">
        <ele>2034.0</ele>
        <time>2013-06-30T13:51:50Z</time>
      </trkpt>
      <trkpt lat="40.168450" lon="-5.211133">
        <ele>2033.0</ele>
        <time>2013-06-30T13:51:51Z</time>
      </trkpt>
      <trkpt lat="40.168500" lon="-5.211083">
        <ele>2032.0</ele>
        <time>2013-06-30T13:51:52Z</time>
      </trkpt>
      <trkpt lat="40.168550" lon="-5.211033">
        <ele>2032.0</ele>
        <time>2013-06-30T13:51:53Z</time>
      </trkpt>
      <trkpt lat="40.168600" lon="-5.210983">
        <ele>2034.0</ele>
        <time>2013-06-30T13:51:54Z</time>
      </trkpt>
      <trkpt lat="40.168650" lon="-5.210950">
        <ele>2034.0</ele>
        <time>2013-06-30T13:51:55Z</time>
      </trkpt>
      <trkpt lat="40.168683" lon="-5.210883">
        <ele>2035.0</ele>
        <time>2013-06-30T13:51:56Z</time>
      </trkpt>
      <trkpt lat="40.168733" lon="-5.210817">
        <ele>2034.0</ele>
        <time>2013-06-30T13:51:57Z</time>
      </trkpt>
      <trkpt lat="40.168767" lon="-5.210733">
        <ele>2034.0</ele>
        <time>2013-06-30T13:51:58Z</time>
      </trkpt>
      <trkpt lat="40.168800" lon="-5.210650">
        <ele>2034.0</ele>
        <time>2013-06-30T13:51:59Z</time>
      </trkpt>
      <trkpt lat="40.168817" lon="-5.210600">
        <ele>2034.0</ele>
        <time>2013-06-30T13:52:00Z</time>
      </trkpt>
      <trkpt lat="40.168817" lon="-5.210533">
        <ele>2035.0</ele>
        <time>2013-06-30T13:52:01Z</time>
      </trkpt>
      <trkpt lat="40.168817" lon="-5.210483">
        <ele>2035.0</ele>
        <time>2013-06-30T13:52:02Z</time>
      </trkpt>
      <trkpt lat="40.168817" lon="-5.210400">
        <ele>2033.0</ele>
        <time>2013-06-30T13:52:03Z</time>
      </trkpt>
      <trkpt lat="40.168800" lon="-5.210317">
        <ele>2031.0</ele>
        <time>2013-06-30T13:52:04Z</time>
      </trkpt>
      <trkpt lat="40.168800" lon="-5.210233">
        <ele>2030.0</ele>
        <time>2013-06-30T13:52:05Z</time>
      </trkpt>
      <trkpt lat="40.168783" lon="-5.210167">
        <ele>2029.0</ele>
        <time>2013-06-30T13:52:06Z</time>
      </trkpt>
      <trkpt lat="40.168750" lon="-5.210117">
        <ele>2029.0</ele>
        <time>2013-06-30T13:52:07Z</time>
      </trkpt>
      <trkpt lat="40.168700" lon="-5.210067">
        <ele>2028.0</ele>
        <time>2013-06-30T13:52:08Z</time>
      </trkpt>
      <trkpt lat="40.168633" lon="-5.210033">
        <ele>2028.0</ele>
        <time>2013-06-30T13:52:09Z</time>
      </trkpt>
      <trkpt lat="40.168567" lon="-5.210000">
        <ele>2028.0</ele>
        <time>2013-06-30T13:52:10Z</time>
      </trkpt>
      <trkpt lat="40.168483" lon="-5.210000">
        <ele>2029.0</ele>
        <time>2013-06-30T13:52:11Z</time>
      </trkpt>
      <trkpt lat="40.168400" lon="-5.210017">
        <ele>2030.0</ele>
        <time>2013-06-30T13:52:12Z</time>
      </trkpt>
      <trkpt lat="40.168333" lon="-5.210067">
        <ele>2030.0</ele>
        <time>2013-06-30T13:52:13Z</time>
      </trkpt>
      <trkpt lat="40.168267" lon="-5.210117">
        <ele>2030.0</ele>
        <time>2013-06-30T13:52:14Z</time>
      </trkpt>
      <trkpt lat="40.168200" lon="-5.210167">
        <ele>2029.0</ele>
        <time>2013-06-30T13:52:15Z</time>
      </trkpt>
      <trkpt lat="40.168117" lon="-5.210250">
        <ele>2028.0</ele>
        <time>2013-06-30T13:52:16Z</time>
      </trkpt>
      <trkpt lat="40.168067" lon="-5.210333">
        <ele>2028.0</ele>
        <time>2013-06-30T13:52:17Z</time>
      </trkpt>
      <trkpt lat="40.168017" lon="-5.210433">
        <ele>2028.0</ele>
        <time>2013-06-30T13:52:18Z</time>
      </trkpt>
      <trkpt lat="40.167967" lon="-5.210533">
        <ele>2028.0</ele>
        <time>2013-06-30T13:52:19Z</time>
      </trkpt>
      <trkpt lat="40.167917" lon="-5.210650">
        <ele>2028.0</ele>
        <time>2013-06-30T13:52:20Z</time>
      </trkpt>
      <trkpt lat="40.167883" lon="-5.210767">
        <ele>2028.0</ele>
        <time>2013-06-30T13:52:21Z</time>
      </trkpt>
      <trkpt lat="40.167850" lon="-5.210867">
        <ele>2029.0</ele>
        <time>2013-06-30T13:52:22Z</time>
      </trkpt>
      <trkpt lat="40.167817" lon="-5.210967">
        <ele>2030.0</ele>
        <time>2013-06-30T13:52:23Z</time>
      </trkpt>
      <trkpt lat="40.167800" lon="-5.211067">
        <ele>2030.0</ele>
        <time>2013-06-30T13:52:24Z</time>
      </trkpt>
      <trkpt lat="40.167767" lon="-5.211183">
        <ele>2030.0</ele>
        <time>2013-06-30T13:52:25Z</time>
      </trkpt>
      <trkpt lat="40.167733" lon="-5.211317">
        <ele>2031.0</ele>
        <time>2013-06-30T13:52:26Z</time>
      </trkpt>
      <trkpt lat="40.167700" lon="-5.211433">
        <ele>2031.0</ele>
        <time>2013-06-30T13:52:27Z</time>
      </trkpt>
      <trkpt lat="40.167683" lon="-5.211550">
        <ele>2032.0</ele>
        <time>2013-06-30T13:52:28Z</time>
      </trkpt>
      <trkpt lat="40.167667" lon="-5.211650">
        <ele>2033.0</ele>
        <time>2013-06-30T13:52:29Z</time>
      </trkpt>
      <trkpt lat="40.167650" lon="-5.211767">
        <ele>2033.0</ele>
        <time>2013-06-30T13:52:30Z</time>
      </trkpt>
      <trkpt lat="40.167650" lon="-5.211900">
        <ele>2032.0</ele>
        <time>2013-06-30T13:52:31Z</time>
      </trkpt>
      <trkpt lat="40.167633" lon="-5.212050">
        <ele>2031.0</ele>
        <time>2013-06-30T13:52:32Z</time>
      </trkpt>
      <trkpt lat="40.167633" lon="-5.212200">
        <ele>2031.0</ele>
        <time>2013-06-30T13:52:33Z</time>
      </trkpt>
      <trkpt lat="40.167617" lon="-5.212333">
        <ele>2031.0</ele>
        <time>2013-06-30T13:52:34Z</time>
      </trkpt>
      <trkpt lat="40.167617" lon="-5.212467">
        <ele>2031.0</ele>
        <time>2013-06-30T13:52:35Z</time>
      </trkpt>
      <trkpt lat="40.167617" lon="-5.212600">
        <ele>2031.0</ele>
        <time>2013-06-30T13:52:36Z</time>
      </trkpt>
      <trkpt lat="40.167600" lon="-5.212733">
        <ele>2031.0</ele>
        <time>2013-06-30T13:52:37Z</time>
      </trkpt>
      <trkpt lat="40.167583" lon="-5.212867">
        <ele>2030.0</ele>
        <time>2013-06-30T13:52:38Z</time>
      </trkpt>
      <trkpt lat="40.167583" lon="-5.213033">
        <ele>2029.0</ele>
        <time>2013-06-30T13:52:39Z</time>
      </trkpt>
      <trkpt lat="40.167583" lon="-5.213183">
        <ele>2028.0</ele>
        <time>2013-06-30T13:52:40Z</time>
      </trkpt>
      <trkpt lat="40.167567" lon="-5.213333">
        <ele>2027.0</ele>
        <time>2013-06-30T13:52:41Z</time>
      </trkpt>
      <trkpt lat="40.167567" lon="-5.213467">
        <ele>2027.0</ele>
        <time>2013-06-30T13:52:42Z</time>
      </trkpt>
      <trkpt lat="40.167550" lon="-5.213600">
        <ele>2027.0</ele>
        <time>2013-06-30T13:52:43Z</time>
      </trkpt>
      <trkpt lat="40.167533" lon="-5.213717">
        <ele>2026.0</ele>
        <time>2013-06-30T13:52:44Z</time>
      </trkpt>
      <trkpt lat="40.167517" lon="-5.213850">
        <ele>2025.0</ele>
        <time>2013-06-30T13:52:45Z</time>
      </trkpt>
      <trkpt lat="40.167500" lon="-5.213983">
        <ele>2024.0</ele>
        <time>2013-06-30T13:52:46Z</time>
      </trkpt>
      <trkpt lat="40.167483" lon="-5.214117">
        <ele>2022.0</ele>
        <time>2013-06-30T13:52:47Z</time>
      </trkpt>
      <trkpt lat="40.167467" lon="-5.214267">
        <ele>2021.0</ele>
        <time>2013-06-30T13:52:48Z</time>
      </trkpt>
      <trkpt lat="40.167450" lon="-5.214400">
        <ele>2020.0</ele>
        <time>2013-06-30T13:52:49Z</time>
      </trkpt>
      <trkpt lat="40.167417" lon="-5.214533">
        <ele>2018.0</ele>
        <time>2013-06-30T13:52:50Z</time>
      </trkpt>
      <trkpt lat="40.167400" lon="-5.214667">
        <ele>2016.0</ele>
        <time>2013-06-30T13:52:51Z</time>
      </trkpt>
      <trkpt lat="40.167367" lon="-5.214800">
        <ele>2013.0</ele>
        <time>2013-06-30T13:52:52Z</time>
      </trkpt>
      <trkpt lat="40.167350" lon="-5.214933">
        <ele>2011.0</ele>
        <time>2013-06-30T13:52:53Z</time>
      </trkpt>
      <trkpt lat="40.167333" lon="-5.215067">
        <ele>2009.0</ele>
        <time>2013-06-30T13:52:54Z</time>
      </trkpt>
      <trkpt lat="40.167300" lon="-5.215200">
        <ele>2008.0</ele>
        <time>2013-06-30T13:52:55Z</time>
      </trkpt>
      <trkpt lat="40.167283" lon="-5.215333">
        <ele>2007.0</ele>
        <time>2013-06-30T13:52:56Z</time>
      </trkpt>
      <trkpt lat="40.167267" lon="-5.215450">
        <ele>2006.0</ele>
        <time>2013-06-30T13:52:57Z</time>
      </trkpt>
      <trkpt lat="40.167233" lon="-5.215567">
        <ele>2005.0</ele>
        <time>2013-06-30T13:52:58Z</time>
      </trkpt>
      <trkpt lat="40.167217" lon="-5.215667">
        <ele>2002.0</ele>
        <time>2013-06-30T13:52:59Z</time>
      </trkpt>
      <trkpt lat="40.167183" lon="-5.215783">
        <ele>2000.0</ele>
        <time>2013-06-30T13:53:00Z</time>
      </trkpt>
      <trkpt lat="40.167150" lon="-5.215900">
        <ele>1999.0</ele>
        <time>2013-06-30T13:53:01Z</time>
      </trkpt>
      <trkpt lat="40.167117" lon="-5.216017">
        <ele>1997.0</ele>
        <time>2013-06-30T13:53:02Z</time>
      </trkpt>
      <trkpt lat="40.167083" lon="-5.216133">
        <ele>1995.0</ele>
        <time>2013-06-30T13:53:03Z</time>
      </trkpt>
      <trkpt lat="40.167050" lon="-5.216233">
        <ele>1994.0</ele>
        <time>2013-06-30T13:53:04Z</time>
      </trkpt>
      <trkpt lat="40.167017" lon="-5.216350">
        <ele>1993.0</ele>
        <time>2013-06-30T13:53:05Z</time>
      </trkpt>
      <trkpt lat="40.166983" lon="-5.216467">
        <ele>1992.0</ele>
        <time>2013-06-30T13:53:06Z</time>
      </trkpt>
      <trkpt lat="40.166967" lon="-5.216583">
        <ele>1991.0</ele>
        <time>2013-06-30T13:53:07Z</time>
      </trkpt>
      <trkpt lat="40.166933" lon="-5.216700">
        <ele>1990.0</ele>
        <time>2013-06-30T13:53:08Z</time>
      </trkpt>
      <trkpt lat="40.166900" lon="-5.216833">
        <ele>1987.0</ele>
        <time>2013-06-30T13:53:09Z</time>
      </trkpt>
      <trkpt lat="40.166867" lon="-5.216967">
        <ele>1985.0</ele>
        <time>2013-06-30T13:53:10Z</time>
      </trkpt>
      <trkpt lat="40.166833" lon="-5.217100">
        <ele>1983.0</ele>
        <time>2013-06-30T13:53:11Z</time>
      </trkpt>
      <trkpt lat="40.166800" lon="-5.217217">
        <ele>1982.0</ele>
        <time>2013-06-30T13:53:12Z</time>
      </trkpt>
      <trkpt lat="40.166767" lon="-5.217333">
        <ele>1981.0</ele>
        <time>2013-06-30T13:53:13Z</time>
      </trkpt>
      <trkpt lat="40.166750" lon="-5.217433">
        <ele>1980.0</ele>
        <time>2013-06-30T13:53:14Z</time>
      </trkpt>
      <trkpt lat="40.166733" lon="-5.217550">
        <ele>1979.0</ele>
        <time>2013-06-30T13:53:15Z</time>
      </trkpt>
      <trkpt lat="40.166700" lon="-5.217667">
        <ele>1976.0</ele>
        <time>2013-06-30T13:53:16Z</time>
      </trkpt>
      <trkpt lat="40.166667" lon="-5.217800">
        <ele>1974.0</ele>
        <time>2013-06-30T13:53:17Z</time>
      </trkpt>
      <trkpt lat="40.166600" lon="-5.217933">
        <ele>1971.0</ele>
        <time>2013-06-30T13:53:18Z</time>
      </trkpt>
      <trkpt lat="40.166533" lon="-5.218067">
        <ele>1969.0</ele>
        <time>2013-06-30T13:53:19Z</time>
      </trkpt>
      <trkpt lat="40.166467" lon="-5.218200">
        <ele>1968.0</ele>
        <time>2013-06-30T13:53:20Z</time>
      </trkpt>
      <trkpt lat="40.166400" lon="-5.218333">
        <ele>1967.0</ele>
        <time>2013-06-30T13:53:21Z</time>
      </trkpt>
      <trkpt lat="40.166350" lon="-5.218450">
        <ele>1967.0</ele>
        <time>2013-06-30T13:53:22Z</time>
      </trkpt>
      <trkpt lat="40.166317" lon="-5.218550">
        <ele>1967.0</ele>
        <time>2013-06-30T13:53:23Z</time>
      </trkpt>
      <trkpt lat="40.166267" lon="-5.218667">
        <ele>1967.0</ele>
        <time>2013-06-30T13:53:24Z</time>
      </trkpt>
      <trkpt lat="40.166200" lon="-5.218800">
        <ele>1966.0</ele>
        <time>2013-06-30T13:53:25Z</time>
      </trkpt>
      <trkpt lat="40.166150" lon="-5.218917">
        <ele>1965.0</ele>
        <time>2013-06-30T13:53:26Z</time>
      </trkpt>
      <trkpt lat="40.166100" lon="-5.219033">
        <ele>1965.0</ele>
        <time>2013-06-30T13:53:27Z</time>
      </trkpt>
      <trkpt lat="40.166067" lon="-5.219150">
        <ele>1965.0</ele>
        <time>2013-06-30T13:53:28Z</time>
      </trkpt>
      <trkpt lat="40.166033" lon="-5.219283">
        <ele>1964.0</ele>
        <time>2013-06-30T13:53:29Z</time>
      </trkpt>
      <trkpt lat="40.165983" lon="-5.219400">
        <ele>1963.0</ele>
        <time>2013-06-30T13:53:30Z</time>
      </trkpt>
      <trkpt lat="40.165950" lon="-5.219533">
        <ele>1962.0</ele>
        <time>2013-06-30T13:53:31Z</time>
      </trkpt>
      <trkpt lat="40.165917" lon="-5.219667">
        <ele>1960.0</ele>
        <time>2013-06-30T13:53:32Z</time>
      </trkpt>
      <trkpt lat="40.165867" lon="-5.219800">
        <ele>1959.0</ele>
        <time>2013-06-30T13:53:33Z</time>
      </trkpt>
      <trkpt lat="40.165833" lon="-5.219950">
        <ele>1957.0</ele>
        <time>2013-06-30T13:53:34Z</time>
      </trkpt>
      <trkpt lat="40.165800" lon="-5.220083">
        <ele>1955.0</ele>
        <time>2013-06-30T13:53:35Z</time>
      </trkpt>
      <trkpt lat="40.165767" lon="-5.220217">
        <ele>1954.0</ele>
        <time>2013-06-30T13:53:36Z</time>
      </trkpt>
      <trkpt lat="40.165717" lon="-5.220350">
        <ele>1952.0</ele>
        <time>2013-06-30T13:53:37Z</time>
      </trkpt>
      <trkpt lat="40.165683" lon="-5.220483">
        <ele>1949.0</ele>
        <time>2013-06-30T13:53:38Z</time>
      </trkpt>
      <trkpt lat="40.165667" lon="-5.220633">
        <ele>1947.0</ele>
        <time>2013-06-30T13:53:39Z</time>
      </trkpt>
      <trkpt lat="40.165633" lon="-5.220783">
        <ele>1945.0</ele>
        <time>2013-06-30T13:53:40Z</time>
      </trkpt>
      <trkpt lat="40.165600" lon="-5.220917">
        <ele>1942.0</ele>
        <time>2013-06-30T13:53:41Z</time>
      </trkpt>
      <trkpt lat="40.165567" lon="-5.221050">
        <ele>1940.0</ele>
        <time>2013-06-30T13:53:42Z</time>
      </trkpt>
      <trkpt lat="40.165533" lon="-5.221183">
        <ele>1939.0</ele>
        <time>2013-06-30T13:53:43Z</time>
      </trkpt>
      <trkpt lat="40.165517" lon="-5.221317">
        <ele>1937.0</ele>
        <time>2013-06-30T13:53:44Z</time>
      </trkpt>
      <trkpt lat="40.165500" lon="-5.221450">
        <ele>1935.0</ele>
        <time>2013-06-30T13:53:45Z</time>
      </trkpt>
      <trkpt lat="40.165467" lon="-5.221600">
        <ele>1933.0</ele>
        <time>2013-06-30T13:53:46Z</time>
      </trkpt>
      <trkpt lat="40.165450" lon="-5.221767">
        <ele>1931.0</ele>
        <time>2013-06-30T13:53:47Z</time>
      </trkpt>
      <trkpt lat="40.165417" lon="-5.221900">
        <ele>1929.0</ele>
        <time>2013-06-30T13:53:48Z</time>
      </trkpt>
      <trkpt lat="40.165400" lon="-5.222050">
        <ele>1927.0</ele>
        <time>2013-06-30T13:53:49Z</time>
      </trkpt>
      <trkpt lat="40.165383" lon="-5.222183">
        <ele>1925.0</ele>
        <time>2013-06-30T13:53:50Z</time>
      </trkpt>
      <trkpt lat="40.165350" lon="-5.222333">
        <ele>1922.0</ele>
        <time>2013-06-30T13:53:51Z</time>
      </trkpt>
      <trkpt lat="40.165317" lon="-5.222483">
        <ele>1919.0</ele>
        <time>2013-06-30T13:53:52Z</time>
      </trkpt>
      <trkpt lat="40.165300" lon="-5.222633">
        <ele>1915.0</ele>
        <time>2013-06-30T13:53:53Z</time>
      </trkpt>
      <trkpt lat="40.165283" lon="-5.222783">
        <ele>1912.0</ele>
        <time>2013-06-30T13:53:54Z</time>
      </trkpt>
      <trkpt lat="40.165267" lon="-5.222933">
        <ele>1910.0</ele>
        <time>2013-06-30T13:53:55Z</time>
      </trkpt>
      <trkpt lat="40.165233" lon="-5.223083">
        <ele>1908.0</ele>
        <time>2013-06-30T13:53:56Z</time>
      </trkpt>
      <trkpt lat="40.165217" lon="-5.223217">
        <ele>1907.0</ele>
        <time>2013-06-30T13:53:57Z</time>
      </trkpt>
      <trkpt lat="40.165167" lon="-5.223350">
        <ele>1905.0</ele>
        <time>2013-06-30T13:53:58Z</time>
      </trkpt>
      <trkpt lat="40.165133" lon="-5.223483">
        <ele>1903.0</ele>
        <time>2013-06-30T13:53:59Z</time>
      </trkpt>
      <trkpt lat="40.165100" lon="-5.223617">
        <ele>1900.0</ele>
        <time>2013-06-30T13:54:00Z</time>
      </trkpt>
      <trkpt lat="40.165067" lon="-5.223767">
        <ele>1898.0</ele>
        <time>2013-06-30T13:54:01Z</time>
      </trkpt>
      <trkpt lat="40.165050" lon="-5.223900">
        <ele>1896.0</ele>
        <time>2013-06-30T13:54:02Z</time>
      </trkpt>
      <trkpt lat="40.165017" lon="-5.224050">
        <ele>1895.0</ele>
        <time>2013-06-30T13:54:03Z</time>
      </trkpt>
      <trkpt lat="40.164983" lon="-5.224183">
        <ele>1893.0</ele>
        <time>2013-06-30T13:54:04Z</time>
      </trkpt>
      <trkpt lat="40.164950" lon="-5.224317">
        <ele>1891.0</ele>
        <time>2013-06-30T13:54:05Z</time>
      </trkpt>
      <trkpt lat="40.164917" lon="-5.224467">
        <ele>1889.0</ele>
        <time>2013-06-30T13:54:06Z</time>
      </trkpt>
      <trkpt lat="40.164883" lon="-5.224600">
        <ele>1888.0</ele>
        <time>2013-06-30T13:54:07Z</time>
      </trkpt>
      <trkpt lat="40.164833" lon="-5.224750">
        <ele>1886.0</ele>
        <time>2013-06-30T13:54:08Z</time>
      </trkpt>
      <trkpt lat="40.164800" lon="-5.224883">
        <ele>1884.0</ele>
        <time>2013-06-30T13:54:09Z</time>
      </trkpt>
      <trkpt lat="40.164750" lon="-5.225033">
        <ele>1881.0</ele>
        <time>2013-06-30T13:54:10Z</time>
      </trkpt>
      <trkpt lat="40.164717" lon="-5.225183">
        <ele>1879.0</ele>
        <time>2013-06-30T13:54:11Z</time>
      </trkpt>
      <trkpt lat="40.164683" lon="-5.225333">
        <ele>1877.0</ele>
        <time>2013-06-30T13:54:12Z</time>
      </trkpt>
      <trkpt lat="40.164667" lon="-5.225467">
        <ele>1875.0</ele>
        <time>2013-06-30T13:54:13Z</time>
      </trkpt>
      <trkpt lat="40.164633" lon="-5.225600">
        <ele>1873.0</ele>
        <time>2013-06-30T13:54:14Z</time>
      </trkpt>
      <trkpt lat="40.164600" lon="-5.225733">
        <ele>1871.0</ele>
        <time>2013-06-30T13:54:15Z</time>
      </trkpt>
      <trkpt lat="40.164583" lon="-5.225883">
        <ele>1868.0</ele>
        <time>2013-06-30T13:54:16Z</time>
      </trkpt>
      <trkpt lat="40.164550" lon="-5.226033">
        <ele>1865.0</ele>
        <time>2013-06-30T13:54:17Z</time>
      </trkpt>
      <trkpt lat="40.164517" lon="-5.226183">
        <ele>1862.0</ele>
        <time>2013-06-30T13:54:18Z</time>
      </trkpt>
      <trkpt lat="40.164483" lon="-5.226333">
        <ele>1860.0</ele>
        <time>2013-06-30T13:54:19Z</time>
      </trkpt>
      <trkpt lat="40.164467" lon="-5.226483">
        <ele>1858.0</ele>
        <time>2013-06-30T13:54:20Z</time>
      </trkpt>
      <trkpt lat="40.164450" lon="-5.226633">
        <ele>1856.0</ele>
        <time>2013-06-30T13:54:21Z</time>
      </trkpt>
      <trkpt lat="40.164433" lon="-5.226783">
        <ele>1854.0</ele>
        <time>2013-06-30T13:54:22Z</time>
      </trkpt>
      <trkpt lat="40.164417" lon="-5.226917">
        <ele>1852.0</ele>
        <time>2013-06-30T13:54:23Z</time>
      </trkpt>
      <trkpt lat="40.164383" lon="-5.227083">
        <ele>1849.0</ele>
        <time>2013-06-30T13:54:24Z</time>
      </trkpt>
      <trkpt lat="40.164367" lon="-5.227233">
        <ele>1847.0</ele>
        <time>2013-06-30T13:54:25Z</time>
      </trkpt>
      <trkpt lat="40.164350" lon="-5.227383">
        <ele>1844.0</ele>
        <time>2013-06-30T13:54:26Z</time>
      </trkpt>
      <trkpt lat="40.164333" lon="-5.227533">
        <ele>1842.0</ele>
        <time>2013-06-30T13:54:27Z</time>
      </trkpt>
      <trkpt lat="40.164317" lon="-5.227683">
        <ele>1840.0</ele>
        <time>2013-06-30T13:54:28Z</time>
      </trkpt>
      <trkpt lat="40.164300" lon="-5.227833">
        <ele>1837.0</ele>
        <time>2013-06-30T13:54:29Z</time>
      </trkpt>
      <trkpt lat="40.164283" lon="-5.227983">
        <ele>1835.0</ele>
        <time>2013-06-30T13:54:30Z</time>
      </trkpt>
      <trkpt lat="40.164250" lon="-5.228133">
        <ele>1833.0</ele>
        <time>2013-06-30T13:54:31Z</time>
      </trkpt>
      <trkpt lat="40.164233" lon="-5.228283">
        <ele>1830.0</ele>
        <time>2013-06-30T13:54:32Z</time>
      </trkpt>
      <trkpt lat="40.164200" lon="-5.228433">
        <ele>1827.0</ele>
        <time>2013-06-30T13:54:33Z</time>
      </trkpt>
      <trkpt lat="40.164183" lon="-5.228567">
        <ele>1825.0</ele>
        <time>2013-06-30T13:54:34Z</time>
      </trkpt>
      <trkpt lat="40.164183" lon="-5.228717">
        <ele>1822.0</ele>
        <time>2013-06-30T13:54:35Z</time>
      </trkpt>
      <trkpt lat="40.164167" lon="-5.228867">
        <ele>1819.0</ele>
        <time>2013-06-30T13:54:36Z</time>
      </trkpt>
      <trkpt lat="40.164167" lon="-5.229033">
        <ele>1816.0</ele>
        <time>2013-06-30T13:54:37Z</time>
      </trkpt>
      <trkpt lat="40.164150" lon="-5.229183">
        <ele>1813.0</ele>
        <time>2013-06-30T13:54:38Z</time>
      </trkpt>
      <trkpt lat="40.164133" lon="-5.229333">
        <ele>1811.0</ele>
        <time>2013-06-30T13:54:39Z</time>
      </trkpt>
      <trkpt lat="40.164117" lon="-5.229467">
        <ele>1808.0</ele>
        <time>2013-06-30T13:54:40Z</time>
      </trkpt>
      <trkpt lat="40.164117" lon="-5.229617">
        <ele>1806.0</ele>
        <time>2013-06-30T13:54:41Z</time>
      </trkpt>
      <trkpt lat="40.164100" lon="-5.229750">
        <ele>1803.0</ele>
        <time>2013-06-30T13:54:42Z</time>
      </trkpt>
      <trkpt lat="40.164083" lon="-5.229883">
        <ele>1801.0</ele>
        <time>2013-06-30T13:54:43Z</time>
      </trkpt>
      <trkpt lat="40.164067" lon="-5.230017">
        <ele>1798.0</ele>
        <time>2013-06-30T13:54:44Z</time>
      </trkpt>
      <trkpt lat="40.164033" lon="-5.230283">
        <ele>1793.0</ele>
        <time>2013-06-30T13:54:46Z</time>
      </trkpt>
      <trkpt lat="40.164017" lon="-5.230417">
        <ele>1790.0</ele>
        <time>2013-06-30T13:54:47Z</time>
      </trkpt>
      <trkpt lat="40.164000" lon="-5.230550">
        <ele>1787.0</ele>
        <time>2013-06-30T13:54:48Z</time>
      </trkpt>
      <trkpt lat="40.164000" lon="-5.230683">
        <ele>1784.0</ele>
        <time>2013-06-30T13:54:49Z</time>
      </trkpt>
      <trkpt lat="40.163983" lon="-5.230817">
        <ele>1781.0</ele>
        <time>2013-06-30T13:54:50Z</time>
      </trkpt>
      <trkpt lat="40.163950" lon="-5.230967">
        <ele>1777.0</ele>
        <time>2013-06-30T13:54:51Z</time>
      </trkpt>
      <trkpt lat="40.163933" lon="-5.231117">
        <ele>1773.0</ele>
        <time>2013-06-30T13:54:52Z</time>
      </trkpt>
      <trkpt lat="40.163917" lon="-5.231250">
        <ele>1770.0</ele>
        <time>2013-06-30T13:54:53Z</time>
      </trkpt>
      <trkpt lat="40.163900" lon="-5.231400">
        <ele>1767.0</ele>
        <time>2013-06-30T13:54:54Z</time>
      </trkpt>
      <trkpt lat="40.163883" lon="-5.231550">
        <ele>1763.0</ele>
        <time>2013-06-30T13:54:55Z</time>
      </trkpt>
      <trkpt lat="40.163883" lon="-5.231700">
        <ele>1760.0</ele>
        <time>2013-06-30T13:54:56Z</time>
      </trkpt>
      <trkpt lat="40.163883" lon="-5.231850">
        <ele>1756.0</ele>
        <time>2013-06-30T13:54:57Z</time>
      </trkpt>
      <trkpt lat="40.163883" lon="-5.231983">
        <ele>1752.0</ele>
        <time>2013-06-30T13:54:58Z</time>
      </trkpt>
      <trkpt lat="40.163867" lon="-5.232133">
        <ele>1748.0</ele>
        <time>2013-06-30T13:54:59Z</time>
      </trkpt>
      <trkpt lat="40.163867" lon="-5.232267">
        <ele>1744.0</ele>
        <time>2013-06-30T13:55:00Z</time>
      </trkpt>
      <trkpt lat="40.163867" lon="-5.232417">
        <ele>1741.0</ele>
        <time>2013-06-30T13:55:01Z</time>
      </trkpt>
      <trkpt lat="40.163850" lon="-5.232550">
        <ele>1736.0</ele>
        <time>2013-06-30T13:55:02Z</time>
      </trkpt>
      <trkpt lat="40.163833" lon="-5.232700">
        <ele>1733.0</ele>
        <time>2013-06-30T13:55:03Z</time>
      </trkpt>
      <trkpt lat="40.163833" lon="-5.232833">
        <ele>1730.0</ele>
        <time>2013-06-30T13:55:04Z</time>
      </trkpt>
      <trkpt lat="40.163817" lon="-5.232983">
        <ele>1727.0</ele>
        <time>2013-06-30T13:55:05Z</time>
      </trkpt>
      <trkpt lat="40.163817" lon="-5.233117">
        <ele>1724.0</ele>
        <time>2013-06-30T13:55:06Z</time>
      </trkpt>
      <trkpt lat="40.163800" lon="-5.233267">
        <ele>1720.0</ele>
        <time>2013-06-30T13:55:07Z</time>
      </trkpt>
      <trkpt lat="40.163767" lon="-5.233533">
        <ele>1714.0</ele>
        <time>2013-06-30T13:55:09Z</time>
      </trkpt>
      <trkpt lat="40.163767" lon="-5.233667">
        <ele>1710.0</ele>
        <time>2013-06-30T13:55:10Z</time>
      </trkpt>
      <trkpt lat="40.163750" lon="-5.233817">
        <ele>1707.0</ele>
        <time>2013-06-30T13:55:11Z</time>
      </trkpt>
      <trkpt lat="40.163750" lon="-5.233967">
        <ele>1703.0</ele>
        <time>2013-06-30T13:55:12Z</time>
      </trkpt>
      <trkpt lat="40.163733" lon="-5.234100">
        <ele>1701.0</ele>
        <time>2013-06-30T13:55:13Z</time>
      </trkpt>
      <trkpt lat="40.163733" lon="-5.234233">
        <ele>1699.0</ele>
        <time>2013-06-30T13:55:14Z</time>
      </trkpt>
      <trkpt lat="40.163717" lon="-5.234383">
        <ele>1696.0</ele>
        <time>2013-06-30T13:55:15Z</time>
      </trkpt>
      <trkpt lat="40.163700" lon="-5.234517">
        <ele>1693.0</ele>
        <time>2013-06-30T13:55:16Z</time>
      </trkpt>
      <trkpt lat="40.163683" lon="-5.234650">
        <ele>1690.0</ele>
        <time>2013-06-30T13:55:17Z</time>
      </trkpt>
      <trkpt lat="40.163667" lon="-5.234783">
        <ele>1688.0</ele>
        <time>2013-06-30T13:55:18Z</time>
      </trkpt>
      <trkpt lat="40.163650" lon="-5.234917">
        <ele>1685.0</ele>
        <time>2013-06-30T13:55:19Z</time>
      </trkpt>
      <trkpt lat="40.163633" lon="-5.235033">
        <ele>1680.0</ele>
        <time>2013-06-30T13:55:20Z</time>
      </trkpt>
      <trkpt lat="40.163633" lon="-5.235167">
        <ele>1677.0</ele>
        <time>2013-06-30T13:55:21Z</time>
      </trkpt>
      <trkpt lat="40.163650" lon="-5.235417">
        <ele>1671.0</ele>
        <time>2013-06-30T13:55:23Z</time>
      </trkpt>
      <trkpt lat="40.163667" lon="-5.235517">
        <ele>1670.0</ele>
        <time>2013-06-30T13:55:24Z</time>
      </trkpt>
      <trkpt lat="40.163667" lon="-5.235633">
        <ele>1668.0</ele>
        <time>2013-06-30T13:55:25Z</time>
      </trkpt>
      <trkpt lat="40.163650" lon="-5.235750">
        <ele>1665.0</ele>
        <time>2013-06-30T13:55:26Z</time>
      </trkpt>
      <trkpt lat="40.163650" lon="-5.235867">
        <ele>1662.0</ele>
        <time>2013-06-30T13:55:27Z</time>
      </trkpt>
      <trkpt lat="40.163650" lon="-5.236000">
        <ele>1658.0</ele>
        <time>2013-06-30T13:55:28Z</time>
      </trkpt>
      <trkpt lat="40.163633" lon="-5.236133">
        <ele>1655.0</ele>
        <time>2013-06-30T13:55:29Z</time>
      </trkpt>
      <trkpt lat="40.163633" lon="-5.236250">
        <ele>1653.0</ele>
        <time>2013-06-30T13:55:30Z</time>
      </trkpt>
      <trkpt lat="40.163633" lon="-5.236350">
        <ele>1651.0</ele>
        <time>2013-06-30T13:55:31Z</time>
      </trkpt>
      <trkpt lat="40.163633" lon="-5.236450">
        <ele>1648.0</ele>
        <time>2013-06-30T13:55:32Z</time>
      </trkpt>
      <trkpt lat="40.163633" lon="-5.236567">
        <ele>1645.0</ele>
        <time>2013-06-30T13:55:33Z</time>
      </trkpt>
      <trkpt lat="40.163633" lon="-5.236683">
        <ele>1642.0</ele>
        <time>2013-06-30T13:55:34Z</time>
      </trkpt>
      <trkpt lat="40.163633" lon="-5.236800">
        <ele>1638.0</ele>
        <time>2013-06-30T13:55:35Z</time>
      </trkpt>
      <trkpt lat="40.163650" lon="-5.236933">
        <ele>1634.0</ele>
        <time>2013-06-30T13:55:36Z</time>
      </trkpt>
      <trkpt lat="40.163667" lon="-5.237050">
        <ele>1631.0</ele>
        <time>2013-06-30T13:55:37Z</time>
      </trkpt>
      <trkpt lat="40.163667" lon="-5.237150">
        <ele>1628.0</ele>
        <time>2013-06-30T13:55:38Z</time>
      </trkpt>
      <trkpt lat="40.163667" lon="-5.237267">
        <ele>1625.0</ele>
        <time>2013-06-30T13:55:39Z</time>
      </trkpt>
      <trkpt lat="40.163667" lon="-5.237650">
        <ele>1615.0</ele>
        <time>2013-06-30T13:55:42Z</time>
      </trkpt>
      <trkpt lat="40.163667" lon="-5.237783">
        <ele>1611.0</ele>
        <time>2013-06-30T13:55:43Z</time>
      </trkpt>
      <trkpt lat="40.163667" lon="-5.237883">
        <ele>1608.0</ele>
        <time>2013-06-30T13:55:44Z</time>
      </trkpt>
      <trkpt lat="40.163667" lon="-5.238000">
        <ele>1604.0</ele>
        <time>2013-06-30T13:55:45Z</time>
      </trkpt>
      <trkpt lat="40.163667" lon="-5.238133">
        <ele>1601.0</ele>
        <time>2013-06-30T13:55:46Z</time>
      </trkpt>
      <trkpt lat="40.163667" lon="-5.238250">
        <ele>1597.0</ele>
        <time>2013-06-30T13:55:47Z</time>
      </trkpt>
      <trkpt lat="40.163667" lon="-5.238383">
        <ele>1594.0</ele>
        <time>2013-06-30T13:55:48Z</time>
      </trkpt>
      <trkpt lat="40.163667" lon="-5.238500">
        <ele>1590.0</ele>
        <time>2013-06-30T13:55:49Z</time>
      </trkpt>
      <trkpt lat="40.163650" lon="-5.238617">
        <ele>1588.0</ele>
        <time>2013-06-30T13:55:50Z</time>
      </trkpt>
      <trkpt lat="40.163633" lon="-5.238717">
        <ele>1585.0</ele>
        <time>2013-06-30T13:55:51Z</time>
      </trkpt>
      <trkpt lat="40.163633" lon="-5.238817">
        <ele>1582.0</ele>
        <time>2013-06-30T13:55:52Z</time>
      </trkpt>
      <trkpt lat="40.163617" lon="-5.238933">
        <ele>1579.0</ele>
        <time>2013-06-30T13:55:53Z</time>
      </trkpt>
      <trkpt lat="40.163617" lon="-5.239067">
        <ele>1576.0</ele>
        <time>2013-06-30T13:55:54Z</time>
      </trkpt>
      <trkpt lat="40.163617" lon="-5.239183">
        <ele>1573.0</ele>
        <time>2013-06-30T13:55:55Z</time>
      </trkpt>
      <trkpt lat="40.163600" lon="-5.239300">
        <ele>1571.0</ele>
        <time>2013-06-30T13:55:56Z</time>
      </trkpt>
      <trkpt lat="40.163600" lon="-5.239400">
        <ele>1569.0</ele>
        <time>2013-06-30T13:55:57Z</time>
      </trkpt>
      <trkpt lat="40.163600" lon="-5.239500">
        <ele>1567.0</ele>
        <time>2013-06-30T13:55:58Z</time>
      </trkpt>
      <trkpt lat="40.163600" lon="-5.239617">
        <ele>1565.0</ele>
        <time>2013-06-30T13:55:59Z</time>
      </trkpt>
      <trkpt lat="40.163583" lon="-5.239867">
        <ele>1560.0</ele>
        <time>2013-06-30T13:56:01Z</time>
      </trkpt>
      <trkpt lat="40.163583" lon="-5.240000">
        <ele>1557.0</ele>
        <time>2013-06-30T13:56:02Z</time>
      </trkpt>
      <trkpt lat="40.163583" lon="-5.240117">
        <ele>1555.0</ele>
        <time>2013-06-30T13:56:03Z</time>
      </trkpt>
      <trkpt lat="40.163583" lon="-5.240250">
        <ele>1552.0</ele>
        <time>2013-06-30T13:56:04Z</time>
      </trkpt>
      <trkpt lat="40.163583" lon="-5.240383">
        <ele>1549.0</ele>
        <time>2013-06-30T13:56:05Z</time>
      </trkpt>
      <trkpt lat="40.163567" lon="-5.240517">
        <ele>1547.0</ele>
        <time>2013-06-30T13:56:06Z</time>
      </trkpt>
      <trkpt lat="40.163567" lon="-5.240650">
        <ele>1545.0</ele>
        <time>2013-06-30T13:56:07Z</time>
      </trkpt>
      <trkpt lat="40.163567" lon="-5.240783">
        <ele>1543.0</ele>
        <time>2013-06-30T13:56:08Z</time>
      </trkpt>
      <trkpt lat="40.163533" lon="-5.240900">
        <ele>1541.0</ele>
        <time>2013-06-30T13:56:09Z</time>
      </trkpt>
      <trkpt lat="40.163517" lon="-5.241033">
        <ele>1539.0</ele>
        <time>2013-06-30T13:56:10Z</time>
      </trkpt>
      <trkpt lat="40.163500" lon="-5.241150">
        <ele>1536.0</ele>
        <time>2013-06-30T13:56:11Z</time>
      </trkpt>
      <trkpt lat="40.163483" lon="-5.241300">
        <ele>1533.0</ele>
        <time>2013-06-30T13:56:12Z</time>
      </trkpt>
      <trkpt lat="40.163467" lon="-5.241433">
        <ele>1531.0</ele>
        <time>2013-06-30T13:56:13Z</time>
      </trkpt>
      <trkpt lat="40.163450" lon="-5.241550">
        <ele>1529.0</ele>
        <time>2013-06-30T13:56:14Z</time>
      </trkpt>
      <trkpt lat="40.163433" lon="-5.241683">
        <ele>1526.0</ele>
        <time>2013-06-30T13:56:15Z</time>
      </trkpt>
      <trkpt lat="40.163417" lon="-5.241817">
        <ele>1524.0</ele>
        <time>2013-06-30T13:56:16Z</time>
      </trkpt>
      <trkpt lat="40.163400" lon="-5.241950">
        <ele>1521.0</ele>
        <time>2013-06-30T13:56:17Z</time>
      </trkpt>
      <trkpt lat="40.163383" lon="-5.242083">
        <ele>1518.0</ele>
        <time>2013-06-30T13:56:18Z</time>
      </trkpt>
      <trkpt lat="40.163383" lon="-5.242233">
        <ele>1515.0</ele>
        <time>2013-06-30T13:56:19Z</time>
      </trkpt>
      <trkpt lat="40.163367" lon="-5.242367">
        <ele>1512.0</ele>
        <time>2013-06-30T13:56:20Z</time>
      </trkpt>
      <trkpt lat="40.163367" lon="-5.242500">
        <ele>1509.0</ele>
        <time>2013-06-30T13:56:21Z</time>
      </trkpt>
      <trkpt lat="40.163367" lon="-5.242633">
        <ele>1506.0</ele>
        <time>2013-06-30T13:56:22Z</time>
      </trkpt>
      <trkpt lat="40.163367" lon="-5.242783">
        <ele>1502.0</ele>
        <time>2013-06-30T13:56:23Z</time>
      </trkpt>
      <trkpt lat="40.163367" lon="-5.242933">
        <ele>1498.0</ele>
        <time>2013-06-30T13:56:24Z</time>
      </trkpt>
      <trkpt lat="40.163383" lon="-5.243050">
        <ele>1494.0</ele>
        <time>2013-06-30T13:56:25Z</time>
      </trkpt>
      <trkpt lat="40.163383" lon="-5.243183">
        <ele>1488.0</ele>
        <time>2013-06-30T13:56:26Z</time>
      </trkpt>
      <trkpt lat="40.163383" lon="-5.243300">
        <ele>1485.0</ele>
        <time>2013-06-30T13:56:27Z</time>
      </trkpt>
      <trkpt lat="40.163367" lon="-5.243417">
        <ele>1481.0</ele>
        <time>2013-06-30T13:56:28Z</time>
      </trkpt>
      <trkpt lat="40.163367" lon="-5.243550">
        <ele>1477.0</ele>
        <time>2013-06-30T13:56:29Z</time>
      </trkpt>
      <trkpt lat="40.163367" lon="-5.243700">
        <ele>1474.0</ele>
        <time>2013-06-30T13:56:30Z</time>
      </trkpt>
      <trkpt lat="40.163367" lon="-5.243850">
        <ele>1470.0</ele>
        <time>2013-06-30T13:56:31Z</time>
      </trkpt>
      <trkpt lat="40.163367" lon="-5.244000">
        <ele>1467.0</ele>
        <time>2013-06-30T13:56:32Z</time>
      </trkpt>
      <trkpt lat="40.163383" lon="-5.244133">
        <ele>1464.0</ele>
        <time>2013-06-30T13:56:33Z</time>
      </trkpt>
      <trkpt lat="40.163383" lon="-5.244250">
        <ele>1461.0</ele>
        <time>2013-06-30T13:56:34Z</time>
      </trkpt>
      <trkpt lat="40.163383" lon="-5.244383">
        <ele>1459.0</ele>
        <time>2013-06-30T13:56:35Z</time>
      </trkpt>
      <trkpt lat="40.163383" lon="-5.244533">
        <ele>1456.0</ele>
        <time>2013-06-30T13:56:36Z</time>
      </trkpt>
      <trkpt lat="40.163383" lon="-5.244667">
        <ele>1453.0</ele>
        <time>2013-06-30T13:56:37Z</time>
      </trkpt>
      <trkpt lat="40.163383" lon="-5.244817">
        <ele>1450.0</ele>
        <time>2013-06-30T13:56:38Z</time>
      </trkpt>
      <trkpt lat="40.163383" lon="-5.244950">
        <ele>1447.0</ele>
        <time>2013-06-30T13:56:39Z</time>
      </trkpt>
      <trkpt lat="40.163400" lon="-5.245083">
        <ele>1445.0</ele>
        <time>2013-06-30T13:56:40Z</time>
      </trkpt>
      <trkpt lat="40.163417" lon="-5.245200">
        <ele>1442.0</ele>
        <time>2013-06-30T13:56:41Z</time>
      </trkpt>
      <trkpt lat="40.163433" lon="-5.245333">
        <ele>1440.0</ele>
        <time>2013-06-30T13:56:42Z</time>
      </trkpt>
      <trkpt lat="40.163433" lon="-5.245467">
        <ele>1439.0</ele>
        <time>2013-06-30T13:56:43Z</time>
      </trkpt>
      <trkpt lat="40.163450" lon="-5.245583">
        <ele>1439.0</ele>
        <time>2013-06-30T13:56:44Z</time>
      </trkpt>
      <trkpt lat="40.163467" lon="-5.245683">
        <ele>1439.0</ele>
        <time>2013-06-30T13:56:45Z</time>
      </trkpt>
      <trkpt lat="40.163483" lon="-5.245800">
        <ele>1438.0</ele>
        <time>2013-06-30T13:56:46Z</time>
      </trkpt>
      <trkpt lat="40.163500" lon="-5.245933">
        <ele>1436.0</ele>
        <time>2013-06-30T13:56:47Z</time>
      </trkpt>
      <trkpt lat="40.163517" lon="-5.246067">
        <ele>1435.0</ele>
        <time>2013-06-30T13:56:48Z</time>
      </trkpt>
      <trkpt lat="40.163533" lon="-5.246200">
        <ele>1433.0</ele>
        <time>2013-06-30T13:56:49Z</time>
      </trkpt>
      <trkpt lat="40.163550" lon="-5.246317">
        <ele>1432.0</ele>
        <time>2013-06-30T13:56:50Z</time>
      </trkpt>
      <trkpt lat="40.163567" lon="-5.246450">
        <ele>1430.0</ele>
        <time>2013-06-30T13:56:51Z</time>
      </trkpt>
      <trkpt lat="40.163600" lon="-5.246717">
        <ele>1427.0</ele>
        <time>2013-06-30T13:56:53Z</time>
      </trkpt>
      <trkpt lat="40.163633" lon="-5.246850">
        <ele>1425.0</ele>
        <time>2013-06-30T13:56:54Z</time>
      </trkpt>
      <trkpt lat="40.163650" lon="-5.246983">
        <ele>1423.0</ele>
        <time>2013-06-30T13:56:55Z</time>
      </trkpt>
      <trkpt lat="40.163700" lon="-5.247117">
        <ele>1420.0</ele>
        <time>2013-06-30T13:56:56Z</time>
      </trkpt>
      <trkpt lat="40.163733" lon="-5.247233">
        <ele>1416.0</ele>
        <time>2013-06-30T13:56:57Z</time>
      </trkpt>
      <trkpt lat="40.163783" lon="-5.247367">
        <ele>1412.0</ele>
        <time>2013-06-30T13:56:58Z</time>
      </trkpt>
      <trkpt lat="40.163817" lon="-5.247500">
        <ele>1408.0</ele>
        <time>2013-06-30T13:56:59Z</time>
      </trkpt>
      <trkpt lat="40.163867" lon="-5.247617">
        <ele>1405.0</ele>
        <time>2013-06-30T13:57:00Z</time>
      </trkpt>
      <trkpt lat="40.163883" lon="-5.247750">
        <ele>1402.0</ele>
        <time>2013-06-30T13:57:01Z</time>
      </trkpt>
      <trkpt lat="40.163917" lon="-5.247883">
        <ele>1399.0</ele>
        <time>2013-06-30T13:57:02Z</time>
      </trkpt>
      <trkpt lat="40.163950" lon="-5.248017">
        <ele>1395.0</ele>
        <time>2013-06-30T13:57:03Z</time>
      </trkpt>
      <trkpt lat="40.163983" lon="-5.248150">
        <ele>1392.0</ele>
        <time>2013-06-30T13:57:04Z</time>
      </trkpt>
      <trkpt lat="40.164000" lon="-5.248283">
        <ele>1390.0</ele>
        <time>2013-06-30T13:57:05Z</time>
      </trkpt>
      <trkpt lat="40.164017" lon="-5.248400">
        <ele>1387.0</ele>
        <time>2013-06-30T13:57:06Z</time>
      </trkpt>
      <trkpt lat="40.164033" lon="-5.248533">
        <ele>1384.0</ele>
        <time>2013-06-30T13:57:07Z</time>
      </trkpt>
      <trkpt lat="40.164050" lon="-5.248683">
        <ele>1380.0</ele>
        <time>2013-06-30T13:57:08Z</time>
      </trkpt>
      <trkpt lat="40.164067" lon="-5.248833">
        <ele>1377.0</ele>
        <time>2013-06-30T13:57:09Z</time>
      </trkpt>
      <trkpt lat="40.164083" lon="-5.248983">
        <ele>1374.0</ele>
        <time>2013-06-30T13:57:10Z</time>
      </trkpt>
      <trkpt lat="40.164100" lon="-5.249117">
        <ele>1372.0</ele>
        <time>2013-06-30T13:57:11Z</time>
      </trkpt>
      <trkpt lat="40.164117" lon="-5.249250">
        <ele>1370.0</ele>
        <time>2013-06-30T13:57:12Z</time>
      </trkpt>
      <trkpt lat="40.164117" lon="-5.249367">
        <ele>1368.0</ele>
        <time>2013-06-30T13:57:13Z</time>
      </trkpt>
      <trkpt lat="40.164133" lon="-5.249500">
        <ele>1365.0</ele>
        <time>2013-06-30T13:57:14Z</time>
      </trkpt>
      <trkpt lat="40.164133" lon="-5.249617">
        <ele>1362.0</ele>
        <time>2013-06-30T13:57:15Z</time>
      </trkpt>
      <trkpt lat="40.164167" lon="-5.249733">
        <ele>1359.0</ele>
        <time>2013-06-30T13:57:16Z</time>
      </trkpt>
      <trkpt lat="40.164183" lon="-5.249850">
        <ele>1356.0</ele>
        <time>2013-06-30T13:57:17Z</time>
      </trkpt>
      <trkpt lat="40.164217" lon="-5.249967">
        <ele>1354.0</ele>
        <time>2013-06-30T13:57:18Z</time>
      </trkpt>
      <trkpt lat="40.164250" lon="-5.250083">
        <ele>1351.0</ele>
        <time>2013-06-30T13:57:19Z</time>
      </trkpt>
      <trkpt lat="40.164267" lon="-5.250200">
        <ele>1349.0</ele>
        <time>2013-06-30T13:57:20Z</time>
      </trkpt>
      <trkpt lat="40.164300" lon="-5.250317">
        <ele>1346.0</ele>
        <time>2013-06-30T13:57:21Z</time>
      </trkpt>
      <trkpt lat="40.164333" lon="-5.250433">
        <ele>1344.0</ele>
        <time>2013-06-30T13:57:22Z</time>
      </trkpt>
      <trkpt lat="40.164367" lon="-5.250550">
        <ele>1341.0</ele>
        <time>2013-06-30T13:57:23Z</time>
      </trkpt>
      <trkpt lat="40.164417" lon="-5.250683">
        <ele>1337.0</ele>
        <time>2013-06-30T13:57:24Z</time>
      </trkpt>
      <trkpt lat="40.164450" lon="-5.250800">
        <ele>1333.0</ele>
        <time>2013-06-30T13:57:25Z</time>
      </trkpt>
      <trkpt lat="40.164483" lon="-5.250900">
        <ele>1330.0</ele>
        <time>2013-06-30T13:57:26Z</time>
      </trkpt>
      <trkpt lat="40.164533" lon="-5.251017">
        <ele>1327.0</ele>
        <time>2013-06-30T13:57:27Z</time>
      </trkpt>
      <trkpt lat="40.164567" lon="-5.251133">
        <ele>1323.0</ele>
        <time>2013-06-30T13:57:28Z</time>
      </trkpt>
      <trkpt lat="40.164600" lon="-5.251267">
        <ele>1319.0</ele>
        <time>2013-06-30T13:57:29Z</time>
      </trkpt>
      <trkpt lat="40.164650" lon="-5.251383">
        <ele>1315.0</ele>
        <time>2013-06-30T13:57:30Z</time>
      </trkpt>
      <trkpt lat="40.164683" lon="-5.251517">
        <ele>1312.0</ele>
        <time>2013-06-30T13:57:31Z</time>
      </trkpt>
      <trkpt lat="40.164717" lon="-5.251633">
        <ele>1309.0</ele>
        <time>2013-06-30T13:57:32Z</time>
      </trkpt>
      <trkpt lat="40.164767" lon="-5.251750">
        <ele>1306.0</ele>
        <time>2013-06-30T13:57:33Z</time>
      </trkpt>
      <trkpt lat="40.164800" lon="-5.251883">
        <ele>1303.0</ele>
        <time>2013-06-30T13:57:34Z</time>
      </trkpt>
      <trkpt lat="40.164850" lon="-5.252000">
        <ele>1301.0</ele>
        <time>2013-06-30T13:57:35Z</time>
      </trkpt>
      <trkpt lat="40.164883" lon="-5.252117">
        <ele>1300.0</ele>
        <time>2013-06-30T13:57:36Z</time>
      </trkpt>
      <trkpt lat="40.164917" lon="-5.252217">
        <ele>1298.0</ele>
        <time>2013-06-30T13:57:37Z</time>
      </trkpt>
      <trkpt lat="40.164950" lon="-5.252333">
        <ele>1296.0</ele>
        <time>2013-06-30T13:57:38Z</time>
      </trkpt>
      <trkpt lat="40.165000" lon="-5.252467">
        <ele>1293.0</ele>
        <time>2013-06-30T13:57:39Z</time>
      </trkpt>
      <trkpt lat="40.165050" lon="-5.252600">
        <ele>1291.0</ele>
        <time>2013-06-30T13:57:40Z</time>
      </trkpt>
      <trkpt lat="40.165100" lon="-5.252733">
        <ele>1289.0</ele>
        <time>2013-06-30T13:57:41Z</time>
      </trkpt>
      <trkpt lat="40.165133" lon="-5.252850">
        <ele>1288.0</ele>
        <time>2013-06-30T13:57:42Z</time>
      </trkpt>
      <trkpt lat="40.165183" lon="-5.252967">
        <ele>1286.0</ele>
        <time>2013-06-30T13:57:43Z</time>
      </trkpt>
      <trkpt lat="40.165217" lon="-5.253100">
        <ele>1284.0</ele>
        <time>2013-06-30T13:57:44Z</time>
      </trkpt>
      <trkpt lat="40.165283" lon="-5.253217">
        <ele>1282.0</ele>
        <time>2013-06-30T13:57:45Z</time>
      </trkpt>
      <trkpt lat="40.165333" lon="-5.253350">
        <ele>1281.0</ele>
        <time>2013-06-30T13:57:46Z</time>
      </trkpt>
      <trkpt lat="40.165383" lon="-5.253483">
        <ele>1279.0</ele>
        <time>2013-06-30T13:57:47Z</time>
      </trkpt>
      <trkpt lat="40.165433" lon="-5.253617">
        <ele>1278.0</ele>
        <time>2013-06-30T13:57:48Z</time>
      </trkpt>
      <trkpt lat="40.165483" lon="-5.253733">
        <ele>1277.0</ele>
        <time>2013-06-30T13:57:49Z</time>
      </trkpt>
      <trkpt lat="40.165517" lon="-5.253850">
        <ele>1275.0</ele>
        <time>2013-06-30T13:57:50Z</time>
      </trkpt>
      <trkpt lat="40.165583" lon="-5.253983">
        <ele>1273.0</ele>
        <time>2013-06-30T13:57:51Z</time>
      </trkpt>
      <trkpt lat="40.165633" lon="-5.254117">
        <ele>1271.0</ele>
        <time>2013-06-30T13:57:52Z</time>
      </trkpt>
      <trkpt lat="40.165683" lon="-5.254250">
        <ele>1269.0</ele>
        <time>2013-06-30T13:57:53Z</time>
      </trkpt>
      <trkpt lat="40.165733" lon="-5.254383">
        <ele>1268.0</ele>
        <time>2013-06-30T13:57:54Z</time>
      </trkpt>
      <trkpt lat="40.165783" lon="-5.254500">
        <ele>1266.0</ele>
        <time>2013-06-30T13:57:55Z</time>
      </trkpt>
      <trkpt lat="40.165850" lon="-5.254617">
        <ele>1265.0</ele>
        <time>2013-06-30T13:57:56Z</time>
      </trkpt>
      <trkpt lat="40.165900" lon="-5.254750">
        <ele>1263.0</ele>
        <time>2013-06-30T13:57:57Z</time>
      </trkpt>
      <trkpt lat="40.165950" lon="-5.254900">
        <ele>1261.0</ele>
        <time>2013-06-30T13:57:58Z</time>
      </trkpt>
      <trkpt lat="40.166000" lon="-5.255033">
        <ele>1259.0</ele>
        <time>2013-06-30T13:57:59Z</time>
      </trkpt>
      <trkpt lat="40.166050" lon="-5.255167">
        <ele>1257.0</ele>
        <time>2013-06-30T13:58:00Z</time>
      </trkpt>
      <trkpt lat="40.166083" lon="-5.255300">
        <ele>1256.0</ele>
        <time>2013-06-30T13:58:01Z</time>
      </trkpt>
      <trkpt lat="40.166133" lon="-5.255433">
        <ele>1254.0</ele>
        <time>2013-06-30T13:58:02Z</time>
      </trkpt>
      <trkpt lat="40.166183" lon="-5.255567">
        <ele>1253.0</ele>
        <time>2013-06-30T13:58:03Z</time>
      </trkpt>
      <trkpt lat="40.166233" lon="-5.255700">
        <ele>1251.0</ele>
        <time>2013-06-30T13:58:04Z</time>
      </trkpt>
      <trkpt lat="40.166283" lon="-5.255833">
        <ele>1249.0</ele>
        <time>2013-06-30T13:58:05Z</time>
      </trkpt>
      <trkpt lat="40.166333" lon="-5.255967">
        <ele>1248.0</ele>
        <time>2013-06-30T13:58:06Z</time>
      </trkpt>
      <trkpt lat="40.166383" lon="-5.256083">
        <ele>1246.0</ele>
        <time>2013-06-30T13:58:07Z</time>
      </trkpt>
      <trkpt lat="40.166433" lon="-5.256217">
        <ele>1245.0</ele>
        <time>2013-06-30T13:58:08Z</time>
      </trkpt>
      <trkpt lat="40.166500" lon="-5.256350">
        <ele>1243.0</ele>
        <time>2013-06-30T13:58:09Z</time>
      </trkpt>
      <trkpt lat="40.166550" lon="-5.256467">
        <ele>1241.0</ele>
        <time>2013-06-30T13:58:10Z</time>
      </trkpt>
      <trkpt lat="40.166583" lon="-5.256600">
        <ele>1240.0</ele>
        <time>2013-06-30T13:58:11Z</time>
      </trkpt>
      <trkpt lat="40.166733" lon="-5.256967">
        <ele>1234.0</ele>
        <time>2013-06-30T13:58:14Z</time>
      </trkpt>
      <trkpt lat="40.166767" lon="-5.257100">
        <ele>1232.0</ele>
        <time>2013-06-30T13:58:15Z</time>
      </trkpt>
      <trkpt lat="40.166817" lon="-5.257233">
        <ele>1230.0</ele>
        <time>2013-06-30T13:58:16Z</time>
      </trkpt>
      <trkpt lat="40.166867" lon="-5.257350">
        <ele>1229.0</ele>
        <time>2013-06-30T13:58:17Z</time>
      </trkpt>
      <trkpt lat="40.166917" lon="-5.257467">
        <ele>1228.0</ele>
        <time>2013-06-30T13:58:18Z</time>
      </trkpt>
      <trkpt lat="40.166950" lon="-5.257567">
        <ele>1226.0</ele>
        <time>2013-06-30T13:58:19Z</time>
      </trkpt>
      <trkpt lat="40.167000" lon="-5.257683">
        <ele>1225.0</ele>
        <time>2013-06-30T13:58:20Z</time>
      </trkpt>
      <trkpt lat="40.167050" lon="-5.257800">
        <ele>1223.0</ele>
        <time>2013-06-30T13:58:21Z</time>
      </trkpt>
      <trkpt lat="40.167100" lon="-5.257917">
        <ele>1221.0</ele>
        <time>2013-06-30T13:58:22Z</time>
      </trkpt>
      <trkpt lat="40.167150" lon="-5.258033">
        <ele>1221.0</ele>
        <time>2013-06-30T13:58:23Z</time>
      </trkpt>
      <trkpt lat="40.167217" lon="-5.258133">
        <ele>1220.0</ele>
        <time>2013-06-30T13:58:24Z</time>
      </trkpt>
      <trkpt lat="40.167267" lon="-5.258250">
        <ele>1218.0</ele>
        <time>2013-06-30T13:58:25Z</time>
      </trkpt>
      <trkpt lat="40.167333" lon="-5.258350">
        <ele>1217.0</ele>
        <time>2013-06-30T13:58:26Z</time>
      </trkpt>
      <trkpt lat="40.167400" lon="-5.258467">
        <ele>1216.0</ele>
        <time>2013-06-30T13:58:27Z</time>
      </trkpt>
      <trkpt lat="40.167467" lon="-5.258583">
        <ele>1213.0</ele>
        <time>2013-06-30T13:58:28Z</time>
      </trkpt>
      <trkpt lat="40.167533" lon="-5.258700">
        <ele>1211.0</ele>
        <time>2013-06-30T13:58:29Z</time>
      </trkpt>
      <trkpt lat="40.167600" lon="-5.258817">
        <ele>1210.0</ele>
        <time>2013-06-30T13:58:30Z</time>
      </trkpt>
      <trkpt lat="40.167667" lon="-5.258917">
        <ele>1208.0</ele>
        <time>2013-06-30T13:58:31Z</time>
      </trkpt>
      <trkpt lat="40.167717" lon="-5.259033">
        <ele>1207.0</ele>
        <time>2013-06-30T13:58:32Z</time>
      </trkpt>
      <trkpt lat="40.167783" lon="-5.259133">
        <ele>1205.0</ele>
        <time>2013-06-30T13:58:33Z</time>
      </trkpt>
      <trkpt lat="40.167850" lon="-5.259250">
        <ele>1203.0</ele>
        <time>2013-06-30T13:58:34Z</time>
      </trkpt>
      <trkpt lat="40.167917" lon="-5.259383">
        <ele>1200.0</ele>
        <time>2013-06-30T13:58:35Z</time>
      </trkpt>
      <trkpt lat="40.167983" lon="-5.259517">
        <ele>1198.0</ele>
        <time>2013-06-30T13:58:36Z</time>
      </trkpt>
      <trkpt lat="40.168050" lon="-5.259633">
        <ele>1196.0</ele>
        <time>2013-06-30T13:58:37Z</time>
      </trkpt>
      <trkpt lat="40.168117" lon="-5.259733">
        <ele>1194.0</ele>
        <time>2013-06-30T13:58:38Z</time>
      </trkpt>
      <trkpt lat="40.168183" lon="-5.259833">
        <ele>1192.0</ele>
        <time>2013-06-30T13:58:39Z</time>
      </trkpt>
      <trkpt lat="40.168250" lon="-5.259950">
        <ele>1190.0</ele>
        <time>2013-06-30T13:58:40Z</time>
      </trkpt>
      <trkpt lat="40.168317" lon="-5.260067">
        <ele>1187.0</ele>
        <time>2013-06-30T13:58:41Z</time>
      </trkpt>
      <trkpt lat="40.168383" lon="-5.260183">
        <ele>1184.0</ele>
        <time>2013-06-30T13:58:42Z</time>
      </trkpt>
      <trkpt lat="40.168450" lon="-5.260317">
        <ele>1182.0</ele>
        <time>2013-06-30T13:58:43Z</time>
      </trkpt>
      <trkpt lat="40.168517" lon="-5.260433">
        <ele>1181.0</ele>
        <time>2013-06-30T13:58:44Z</time>
      </trkpt>
      <trkpt lat="40.168583" lon="-5.260550">
        <ele>1180.0</ele>
        <time>2013-06-30T13:58:45Z</time>
      </trkpt>
      <trkpt lat="40.168633" lon="-5.260667">
        <ele>1179.0</ele>
        <time>2013-06-30T13:58:46Z</time>
      </trkpt>
      <trkpt lat="40.168700" lon="-5.260783">
        <ele>1177.0</ele>
        <time>2013-06-30T13:58:47Z</time>
      </trkpt>
      <trkpt lat="40.168767" lon="-5.260900">
        <ele>1176.0</ele>
        <time>2013-06-30T13:58:48Z</time>
      </trkpt>
      <trkpt lat="40.168817" lon="-5.261033">
        <ele>1176.0</ele>
        <time>2013-06-30T13:58:49Z</time>
      </trkpt>
      <trkpt lat="40.168867" lon="-5.261133">
        <ele>1176.0</ele>
        <time>2013-06-30T13:58:50Z</time>
      </trkpt>
      <trkpt lat="40.168917" lon="-5.261250">
        <ele>1176.0</ele>
        <time>2013-06-30T13:58:51Z</time>
      </trkpt>
      <trkpt lat="40.168983" lon="-5.261367">
        <ele>1175.0</ele>
        <time>2013-06-30T13:58:52Z</time>
      </trkpt>
      <trkpt lat="40.169050" lon="-5.261483">
        <ele>1173.0</ele>
        <time>2013-06-30T13:58:53Z</time>
      </trkpt>
      <trkpt lat="40.169117" lon="-5.261617">
        <ele>1171.0</ele>
        <time>2013-06-30T13:58:54Z</time>
      </trkpt>
      <trkpt lat="40.169183" lon="-5.261750">
        <ele>1170.0</ele>
        <time>2013-06-30T13:58:55Z</time>
      </trkpt>
      <trkpt lat="40.169250" lon="-5.261867">
        <ele>1169.0</ele>
        <time>2013-06-30T13:58:56Z</time>
      </trkpt>
      <trkpt lat="40.169317" lon="-5.262000">
        <ele>1168.0</ele>
        <time>2013-06-30T13:58:57Z</time>
      </trkpt>
      <trkpt lat="40.169383" lon="-5.262133">
        <ele>1166.0</ele>
        <time>2013-06-30T13:58:58Z</time>
      </trkpt>
      <trkpt lat="40.169467" lon="-5.262267">
        <ele>1165.0</ele>
        <time>2013-06-30T13:58:59Z</time>
      </trkpt>
      <trkpt lat="40.169533" lon="-5.262400">
        <ele>1164.0</ele>
        <time>2013-06-30T13:59:00Z</time>
      </trkpt>
      <trkpt lat="40.169600" lon="-5.262517">
        <ele>1165.0</ele>
        <time>2013-06-30T13:59:01Z</time>
      </trkpt>
      <trkpt lat="40.169667" lon="-5.262617">
        <ele>1166.0</ele>
        <time>2013-06-30T13:59:02Z</time>
      </trkpt>
      <trkpt lat="40.169733" lon="-5.262717">
        <ele>1167.0</ele>
        <time>2013-06-30T13:59:03Z</time>
      </trkpt>
      <trkpt lat="40.169800" lon="-5.262833">
        <ele>1168.0</ele>
        <time>2013-06-30T13:59:04Z</time>
      </trkpt>
      <trkpt lat="40.169867" lon="-5.262950">
        <ele>1167.0</ele>
        <time>2013-06-30T13:59:05Z</time>
      </trkpt>
      <trkpt lat="40.169950" lon="-5.263083">
        <ele>1167.0</ele>
        <time>2013-06-30T13:59:06Z</time>
      </trkpt>
      <trkpt lat="40.170017" lon="-5.263200">
        <ele>1167.0</ele>
        <time>2013-06-30T13:59:07Z</time>
      </trkpt>
      <trkpt lat="40.170083" lon="-5.263300">
        <ele>1170.0</ele>
        <time>2013-06-30T13:59:08Z</time>
      </trkpt>
      <trkpt lat="40.170133" lon="-5.263400">
        <ele>1171.0</ele>
        <time>2013-06-30T13:59:09Z</time>
      </trkpt>
      <trkpt lat="40.170183" lon="-5.263500">
        <ele>1172.0</ele>
        <time>2013-06-30T13:59:10Z</time>
      </trkpt>
      <trkpt lat="40.170233" lon="-5.263617">
        <ele>1172.0</ele>
        <time>2013-06-30T13:59:11Z</time>
      </trkpt>
      <trkpt lat="40.170283" lon="-5.263750">
        <ele>1172.0</ele>
        <time>2013-06-30T13:59:12Z</time>
      </trkpt>
      <trkpt lat="40.170333" lon="-5.263867">
        <ele>1172.0</ele>
        <time>2013-06-30T13:59:13Z</time>
      </trkpt>
      <trkpt lat="40.170400" lon="-5.263983">
        <ele>1173.0</ele>
        <time>2013-06-30T13:59:14Z</time>
      </trkpt>
      <trkpt lat="40.170483" lon="-5.264067">
        <ele>1175.0</ele>
        <time>2013-06-30T13:59:15Z</time>
      </trkpt>
      <trkpt lat="40.170600" lon="-5.264117">
        <ele>1176.0</ele>
        <time>2013-06-30T13:59:16Z</time>
      </trkpt>
      <trkpt lat="40.170717" lon="-5.264133">
        <ele>1175.0</ele>
        <time>2013-06-30T13:59:17Z</time>
      </trkpt>
      <trkpt lat="40.170933" lon="-5.264033">
        <ele>1177.0</ele>
        <time>2013-06-30T13:59:19Z</time>
      </trkpt>
      <trkpt lat="40.170983" lon="-5.263917">
        <ele>1179.0</ele>
        <time>2013-06-30T13:59:20Z</time>
      </trkpt>
      <trkpt lat="40.171000" lon="-5.263817">
        <ele>1179.0</ele>
        <time>2013-06-30T13:59:21Z</time>
      </trkpt>
      <trkpt lat="40.170983" lon="-5.263733">
        <ele>1181.0</ele>
        <time>2013-06-30T13:59:22Z</time>
      </trkpt>
      <trkpt lat="40.170950" lon="-5.263683">
        <ele>1183.0</ele>
        <time>2013-06-30T13:59:23Z</time>
      </trkpt>
      <trkpt lat="40.170917" lon="-5.263650">
        <ele>1186.0</ele>
        <time>2013-06-30T13:59:24Z</time>
      </trkpt>
      <trkpt lat="40.170883" lon="-5.263617">
        <ele>1189.0</ele>
        <time>2013-06-30T13:59:25Z</time>
      </trkpt>
      <trkpt lat="40.170850" lon="-5.263583">
        <ele>1191.0</ele>
        <time>2013-06-30T13:59:26Z</time>
      </trkpt>
      <trkpt lat="40.170800" lon="-5.263550">
        <ele>1193.0</ele>
        <time>2013-06-30T13:59:27Z</time>
      </trkpt>
      <trkpt lat="40.170767" lon="-5.263517">
        <ele>1194.0</ele>
        <time>2013-06-30T13:59:28Z</time>
      </trkpt>
      <trkpt lat="40.170717" lon="-5.263517">
        <ele>1196.0</ele>
        <time>2013-06-30T13:59:29Z</time>
      </trkpt>
      <trkpt lat="40.170667" lon="-5.263550">
        <ele>1197.0</ele>
        <time>2013-06-30T13:59:30Z</time>
      </trkpt>
      <trkpt lat="40.170617" lon="-5.263600">
        <ele>1198.0</ele>
        <time>2013-06-30T13:59:31Z</time>
      </trkpt>
      <trkpt lat="40.170583" lon="-5.263683">
        <ele>1199.0</ele>
        <time>2013-06-30T13:59:32Z</time>
      </trkpt>
      <trkpt lat="40.170567" lon="-5.263767">
        <ele>1200.0</ele>
        <time>2013-06-30T13:59:33Z</time>
      </trkpt>
      <trkpt lat="40.170550" lon="-5.263867">
        <ele>1201.0</ele>
        <time>2013-06-30T13:59:34Z</time>
      </trkpt>
      <trkpt lat="40.170550" lon="-5.263967">
        <ele>1203.0</ele>
        <time>2013-06-30T13:59:35Z</time>
      </trkpt>
      <trkpt lat="40.170550" lon="-5.264083">
        <ele>1204.0</ele>
        <time>2013-06-30T13:59:36Z</time>
      </trkpt>
      <trkpt lat="40.170583" lon="-5.264200">
        <ele>1205.0</ele>
        <time>2013-06-30T13:59:37Z</time>
      </trkpt>
      <trkpt lat="40.170617" lon="-5.264317">
        <ele>1206.0</ele>
        <time>2013-06-30T13:59:38Z</time>
      </trkpt>
      <trkpt lat="40.170700" lon="-5.264433">
        <ele>1207.0</ele>
        <time>2013-06-30T13:59:39Z</time>
      </trkpt>
      <trkpt lat="40.170783" lon="-5.264517">
        <ele>1207.0</ele>
        <time>2013-06-30T13:59:40Z</time>
      </trkpt>
      <trkpt lat="40.170900" lon="-5.264583">
        <ele>1208.0</ele>
        <time>2013-06-30T13:59:41Z</time>
      </trkpt>
      <trkpt lat="40.171033" lon="-5.264583">
        <ele>1208.0</ele>
        <time>2013-06-30T13:59:42Z</time>
      </trkpt>
      <trkpt lat="40.171133" lon="-5.264533">
        <ele>1210.0</ele>
        <time>2013-06-30T13:59:43Z</time>
      </trkpt>
      <trkpt lat="40.171267" lon="-5.264350">
        <ele>1213.0</ele>
        <time>2013-06-30T13:59:45Z</time>
      </trkpt>
      <trkpt lat="40.171300" lon="-5.264250">
        <ele>1215.0</ele>
        <time>2013-06-30T13:59:46Z</time>
      </trkpt>
      <trkpt lat="40.171317" lon="-5.264150">
        <ele>1217.0</ele>
        <time>2013-06-30T13:59:47Z</time>
      </trkpt>
      <trkpt lat="40.171317" lon="-5.264067">
        <ele>1220.0</ele>
        <time>2013-06-30T13:59:48Z</time>
      </trkpt>
      <trkpt lat="40.171317" lon="-5.263983">
        <ele>1222.0</ele>
        <time>2013-06-30T13:59:49Z</time>
      </trkpt>
      <trkpt lat="40.171283" lon="-5.263917">
        <ele>1224.0</ele>
        <time>2013-06-30T13:59:50Z</time>
      </trkpt>
      <trkpt lat="40.171250" lon="-5.263867">
        <ele>1226.0</ele>
        <time>2013-06-30T13:59:51Z</time>
      </trkpt>
      <trkpt lat="40.171217" lon="-5.263817">
        <ele>1228.0</ele>
        <time>2013-06-30T13:59:52Z</time>
      </trkpt>
      <trkpt lat="40.171183" lon="-5.263800">
        <ele>1229.0</ele>
        <time>2013-06-30T13:59:53Z</time>
      </trkpt>
      <trkpt lat="40.171133" lon="-5.263783">
        <ele>1229.0</ele>
        <time>2013-06-30T13:59:54Z</time>
      </trkpt>
      <trkpt lat="40.171050" lon="-5.263833">
        <ele>1231.0</ele>
        <time>2013-06-30T13:59:56Z</time>
      </trkpt>
      <trkpt lat="40.171000" lon="-5.263883">
        <ele>1232.0</ele>
        <time>2013-06-30T13:59:57Z</time>
      </trkpt>
      <trkpt lat="40.170950" lon="-5.263967">
        <ele>1232.0</ele>
        <time>2013-06-30T13:59:58Z</time>
      </trkpt>
      <trkpt lat="40.170917" lon="-5.264050">
        <ele>1232.0</ele>
        <time>2013-06-30T13:59:59Z</time>
      </trkpt>
      <trkpt lat="40.170900" lon="-5.264150">
        <ele>1233.0</ele>
        <time>2013-06-30T14:00:00Z</time>
      </trkpt>
      <trkpt lat="40.170900" lon="-5.264283">
        <ele>1233.0</ele>
        <time>2013-06-30T14:00:01Z</time>
      </trkpt>
      <trkpt lat="40.170917" lon="-5.264417">
        <ele>1233.0</ele>
        <time>2013-06-30T14:00:02Z</time>
      </trkpt>
      <trkpt lat="40.170950" lon="-5.264550">
        <ele>1233.0</ele>
        <time>2013-06-30T14:00:03Z</time>
      </trkpt>
      <trkpt lat="40.171000" lon="-5.264683">
        <ele>1233.0</ele>
        <time>2013-06-30T14:00:04Z</time>
      </trkpt>
      <trkpt lat="40.171083" lon="-5.264783">
        <ele>1234.0</ele>
        <time>2013-06-30T14:00:05Z</time>
      </trkpt>
      <trkpt lat="40.171200" lon="-5.264833">
        <ele>1233.0</ele>
        <time>2013-06-30T14:00:06Z</time>
      </trkpt>
      <trkpt lat="40.171317" lon="-5.264850">
        <ele>1233.0</ele>
        <time>2013-06-30T14:00:07Z</time>
      </trkpt>
      <trkpt lat="40.171433" lon="-5.264833">
        <ele>1233.0</ele>
        <time>2013-06-30T14:00:08Z</time>
      </trkpt>
      <trkpt lat="40.171533" lon="-5.264783">
        <ele>1235.0</ele>
        <time>2013-06-30T14:00:09Z</time>
      </trkpt>
      <trkpt lat="40.171650" lon="-5.264617">
        <ele>1240.0</ele>
        <time>2013-06-30T14:00:11Z</time>
      </trkpt>
      <trkpt lat="40.171700" lon="-5.264533">
        <ele>1242.0</ele>
        <time>2013-06-30T14:00:12Z</time>
      </trkpt>
      <trkpt lat="40.171717" lon="-5.264317">
        <ele>1245.0</ele>
        <time>2013-06-30T14:00:14Z</time>
      </trkpt>
      <trkpt lat="40.171700" lon="-5.264233">
        <ele>1247.0</ele>
        <time>2013-06-30T14:00:15Z</time>
      </trkpt>
      <trkpt lat="40.171683" lon="-5.264150">
        <ele>1248.0</ele>
        <time>2013-06-30T14:00:16Z</time>
      </trkpt>
      <trkpt lat="40.171650" lon="-5.264067">
        <ele>1250.0</ele>
        <time>2013-06-30T14:00:17Z</time>
      </trkpt>
      <trkpt lat="40.171633" lon="-5.264017">
        <ele>1252.0</ele>
        <time>2013-06-30T14:00:18Z</time>
      </trkpt>
      <trkpt lat="40.171600" lon="-5.263967">
        <ele>1253.0</ele>
        <time>2013-06-30T14:00:19Z</time>
      </trkpt>
      <trkpt lat="40.171533" lon="-5.263917">
        <ele>1253.0</ele>
        <time>2013-06-30T14:00:20Z</time>
      </trkpt>
      <trkpt lat="40.171483" lon="-5.263900">
        <ele>1254.0</ele>
        <time>2013-06-30T14:00:21Z</time>
      </trkpt>
      <trkpt lat="40.171417" lon="-5.263900">
        <ele>1254.0</ele>
        <time>2013-06-30T14:00:22Z</time>
      </trkpt>
      <trkpt lat="40.171350" lon="-5.263917">
        <ele>1256.0</ele>
        <time>2013-06-30T14:00:23Z</time>
      </trkpt>
      <trkpt lat="40.171300" lon="-5.263950">
        <ele>1257.0</ele>
        <time>2013-06-30T14:00:24Z</time>
      </trkpt>
      <trkpt lat="40.171250" lon="-5.264000">
        <ele>1258.0</ele>
        <time>2013-06-30T14:00:25Z</time>
      </trkpt>
      <trkpt lat="40.171217" lon="-5.264050">
        <ele>1259.0</ele>
        <time>2013-06-30T14:00:26Z</time>
      </trkpt>
      <trkpt lat="40.171167" lon="-5.264133">
        <ele>1259.0</ele>
        <time>2013-06-30T14:00:27Z</time>
      </trkpt>
      <trkpt lat="40.171133" lon="-5.264233">
        <ele>1259.0</ele>
        <time>2013-06-30T14:00:28Z</time>
      </trkpt>
      <trkpt lat="40.171133" lon="-5.264350">
        <ele>1259.0</ele>
        <time>2013-06-30T14:00:29Z</time>
      </trkpt>
      <trkpt lat="40.171133" lon="-5.264483">
        <ele>1259.0</ele>
        <time>2013-06-30T14:00:30Z</time>
      </trkpt>
      <trkpt lat="40.171167" lon="-5.264617">
        <ele>1259.0</ele>
        <time>2013-06-30T14:00:31Z</time>
      </trkpt>
      <trkpt lat="40.171217" lon="-5.264733">
        <ele>1259.0</ele>
        <time>2013-06-30T14:00:32Z</time>
      </trkpt>
      <trkpt lat="40.171283" lon="-5.264833">
        <ele>1259.0</ele>
        <time>2013-06-30T14:00:33Z</time>
      </trkpt>
      <trkpt lat="40.171367" lon="-5.264917">
        <ele>1260.0</ele>
        <time>2013-06-30T14:00:34Z</time>
      </trkpt>
      <trkpt lat="40.171467" lon="-5.264967">
        <ele>1259.0</ele>
        <time>2013-06-30T14:00:35Z</time>
      </trkpt>
      <trkpt lat="40.171567" lon="-5.265017">
        <ele>1258.0</ele>
        <time>2013-06-30T14:00:36Z</time>
      </trkpt>
      <trkpt lat="40.171683" lon="-5.265033">
        <ele>1258.0</ele>
        <time>2013-06-30T14:00:37Z</time>
      </trkpt>
      <trkpt lat="40.171783" lon="-5.265033">
        <ele>1259.0</ele>
        <time>2013-06-30T14:00:38Z</time>
      </trkpt>
      <trkpt lat="40.171967" lon="-5.264950">
        <ele>1260.0</ele>
        <time>2013-06-30T14:00:40Z</time>
      </trkpt>
      <trkpt lat="40.172050" lon="-5.264867">
        <ele>1259.0</ele>
        <time>2013-06-30T14:00:41Z</time>
      </trkpt>
      <trkpt lat="40.172200" lon="-5.264650">
        <ele>1259.0</ele>
        <time>2013-06-30T14:00:43Z</time>
      </trkpt>
      <trkpt lat="40.172233" lon="-5.264533">
        <ele>1261.0</ele>
        <time>2013-06-30T14:00:44Z</time>
      </trkpt>
      <trkpt lat="40.172250" lon="-5.264433">
        <ele>1263.0</ele>
        <time>2013-06-30T14:00:45Z</time>
      </trkpt>
      <trkpt lat="40.172250" lon="-5.264333">
        <ele>1264.0</ele>
        <time>2013-06-30T14:00:46Z</time>
      </trkpt>
      <trkpt lat="40.172233" lon="-5.264233">
        <ele>1266.0</ele>
        <time>2013-06-30T14:00:47Z</time>
      </trkpt>
      <trkpt lat="40.172217" lon="-5.264150">
        <ele>1268.0</ele>
        <time>2013-06-30T14:00:48Z</time>
      </trkpt>
      <trkpt lat="40.172200" lon="-5.264083">
        <ele>1270.0</ele>
        <time>2013-06-30T14:00:49Z</time>
      </trkpt>
      <trkpt lat="40.172167" lon="-5.264050">
        <ele>1272.0</ele>
        <time>2013-06-30T14:00:50Z</time>
      </trkpt>
      <trkpt lat="40.172100" lon="-5.264050">
        <ele>1272.0</ele>
        <time>2013-06-30T14:00:51Z</time>
      </trkpt>
      <trkpt lat="40.172050" lon="-5.264050">
        <ele>1270.0</ele>
        <time>2013-06-30T14:00:52Z</time>
      </trkpt>
      <trkpt lat="40.171983" lon="-5.264083">
        <ele>1271.0</ele>
        <time>2013-06-30T14:00:53Z</time>
      </trkpt>
      <trkpt lat="40.171933" lon="-5.264133">
        <ele>1272.0</ele>
        <time>2013-06-30T14:00:54Z</time>
      </trkpt>
      <trkpt lat="40.171883" lon="-5.264200">
        <ele>1273.0</ele>
        <time>2013-06-30T14:00:55Z</time>
      </trkpt>
      <trkpt lat="40.171867" lon="-5.264300">
        <ele>1274.0</ele>
        <time>2013-06-30T14:00:56Z</time>
      </trkpt>
      <trkpt lat="40.171867" lon="-5.264417">
        <ele>1274.0</ele>
        <time>2013-06-30T14:00:57Z</time>
      </trkpt>
      <trkpt lat="40.171933" lon="-5.264667">
        <ele>1276.0</ele>
        <time>2013-06-30T14:00:59Z</time>
      </trkpt>
      <trkpt lat="40.172000" lon="-5.264767">
        <ele>1277.0</ele>
        <time>2013-06-30T14:01:00Z</time>
      </trkpt>
      <trkpt lat="40.172083" lon="-5.264850">
        <ele>1278.0</ele>
        <time>2013-06-30T14:01:01Z</time>
      </trkpt>
      <trkpt lat="40.172183" lon="-5.264917">
        <ele>1279.0</ele>
        <time>2013-06-30T14:01:02Z</time>
      </trkpt>
      <trkpt lat="40.172283" lon="-5.264933">
        <ele>1280.0</ele>
        <time>2013-06-30T14:01:03Z</time>
      </trkpt>
      <trkpt lat="40.172383" lon="-5.264917">
        <ele>1280.0</ele>
        <time>2013-06-30T14:01:04Z</time>
      </trkpt>
      <trkpt lat="40.172500" lon="-5.264883">
        <ele>1280.0</ele>
        <time>2013-06-30T14:01:05Z</time>
      </trkpt>
      <trkpt lat="40.172600" lon="-5.264833">
        <ele>1281.0</ele>
        <time>2013-06-30T14:01:06Z</time>
      </trkpt>
      <trkpt lat="40.172683" lon="-5.264767">
        <ele>1281.0</ele>
        <time>2013-06-30T14:01:07Z</time>
      </trkpt>
      <trkpt lat="40.172767" lon="-5.264667">
        <ele>1281.0</ele>
        <time>2013-06-30T14:01:08Z</time>
      </trkpt>
      <trkpt lat="40.172817" lon="-5.264567">
        <ele>1282.0</ele>
        <time>2013-06-30T14:01:09Z</time>
      </trkpt>
      <trkpt lat="40.172850" lon="-5.264450">
        <ele>1283.0</ele>
        <time>2013-06-30T14:01:10Z</time>
      </trkpt>
      <trkpt lat="40.172867" lon="-5.264350">
        <ele>1284.0</ele>
        <time>2013-06-30T14:01:11Z</time>
      </trkpt>
      <trkpt lat="40.172867" lon="-5.264267">
        <ele>1285.0</ele>
        <time>2013-06-30T14:01:12Z</time>
      </trkpt>
      <trkpt lat="40.172867" lon="-5.264200">
        <ele>1286.0</ele>
        <time>2013-06-30T14:01:13Z</time>
      </trkpt>
      <trkpt lat="40.172833" lon="-5.264150">
        <ele>1288.0</ele>
        <time>2013-06-30T14:01:14Z</time>
      </trkpt>
      <trkpt lat="40.172817" lon="-5.264100">
        <ele>1289.0</ele>
        <time>2013-06-30T14:01:15Z</time>
      </trkpt>
      <trkpt lat="40.172783" lon="-5.264067">
        <ele>1289.0</ele>
        <time>2013-06-30T14:01:16Z</time>
      </trkpt>
      <trkpt lat="40.172733" lon="-5.264017">
        <ele>1288.0</ele>
        <time>2013-06-30T14:01:17Z</time>
      </trkpt>
      <trkpt lat="40.172683" lon="-5.263983">
        <ele>1288.0</ele>
        <time>2013-06-30T14:01:18Z</time>
      </trkpt>
      <trkpt lat="40.172617" lon="-5.263967">
        <ele>1288.0</ele>
        <time>2013-06-30T14:01:19Z</time>
      </trkpt>
      <trkpt lat="40.172567" lon="-5.263967">
        <ele>1289.0</ele>
        <time>2013-06-30T14:01:20Z</time>
      </trkpt>
      <trkpt lat="40.172500" lon="-5.263967">
        <ele>1290.0</ele>
        <time>2013-06-30T14:01:21Z</time>
      </trkpt>
      <trkpt lat="40.172450" lon="-5.263983">
        <ele>1290.0</ele>
        <time>2013-06-30T14:01:22Z</time>
      </trkpt>
      <trkpt lat="40.172383" lon="-5.264017">
        <ele>1291.0</ele>
        <time>2013-06-30T14:01:23Z</time>
      </trkpt>
      <trkpt lat="40.172333" lon="-5.264067">
        <ele>1292.0</ele>
        <time>2013-06-30T14:01:24Z</time>
      </trkpt>
      <trkpt lat="40.172283" lon="-5.264150">
        <ele>1293.0</ele>
        <time>2013-06-30T14:01:25Z</time>
      </trkpt>
      <trkpt lat="40.172250" lon="-5.264250">
        <ele>1293.0</ele>
        <time>2013-06-30T14:01:26Z</time>
      </trkpt>
      <trkpt lat="40.172233" lon="-5.264367">
        <ele>1294.0</ele>
        <time>2013-06-30T14:01:27Z</time>
      </trkpt>
      <trkpt lat="40.172233" lon="-5.264467">
        <ele>1295.0</ele>
        <time>2013-06-30T14:01:28Z</time>
      </trkpt>
      <trkpt lat="40.172250" lon="-5.264600">
        <ele>1296.0</ele>
        <time>2013-06-30T14:01:29Z</time>
      </trkpt>
      <trkpt lat="40.172283" lon="-5.264717">
        <ele>1297.0</ele>
        <time>2013-06-30T14:01:30Z</time>
      </trkpt>
      <trkpt lat="40.172317" lon="-5.264850">
        <ele>1297.0</ele>
        <time>2013-06-30T14:01:31Z</time>
      </trkpt>
      <trkpt lat="40.172400" lon="-5.264950">
        <ele>1297.0</ele>
        <time>2013-06-30T14:01:32Z</time>
      </trkpt>
      <trkpt lat="40.172567" lon="-5.265117">
        <ele>1298.0</ele>
        <time>2013-06-30T14:01:34Z</time>
      </trkpt>
      <trkpt lat="40.172667" lon="-5.265150">
        <ele>1301.0</ele>
        <time>2013-06-30T14:01:35Z</time>
      </trkpt>
      <trkpt lat="40.172883" lon="-5.265133">
        <ele>1303.0</ele>
        <time>2013-06-30T14:01:37Z</time>
      </trkpt>
      <trkpt lat="40.172983" lon="-5.265083">
        <ele>1304.0</ele>
        <time>2013-06-30T14:01:38Z</time>
      </trkpt>
      <trkpt lat="40.173067" lon="-5.265000">
        <ele>1305.0</ele>
        <time>2013-06-30T14:01:39Z</time>
      </trkpt>
      <trkpt lat="40.173117" lon="-5.264900">
        <ele>1306.0</ele>
        <time>2013-06-30T14:01:40Z</time>
      </trkpt>
      <trkpt lat="40.173150" lon="-5.264800">
        <ele>1306.0</ele>
        <time>2013-06-30T14:01:41Z</time>
      </trkpt>
      <trkpt lat="40.173167" lon="-5.264700">
        <ele>1306.0</ele>
        <time>2013-06-30T14:01:42Z</time>
      </trkpt>
      <trkpt lat="40.173150" lon="-5.264600">
        <ele>1307.0</ele>
        <time>2013-06-30T14:01:43Z</time>
      </trkpt>
      <trkpt lat="40.173133" lon="-5.264533">
        <ele>1308.0</ele>
        <time>2013-06-30T14:01:44Z</time>
      </trkpt>
      <trkpt lat="40.173100" lon="-5.264483">
        <ele>1309.0</ele>
        <time>2013-06-30T14:01:45Z</time>
      </trkpt>
      <trkpt lat="40.173050" lon="-5.264433">
        <ele>1311.0</ele>
        <time>2013-06-30T14:01:46Z</time>
      </trkpt>
      <trkpt lat="40.173000" lon="-5.264400">
        <ele>1311.0</ele>
        <time>2013-06-30T14:01:47Z</time>
      </trkpt>
      <trkpt lat="40.172950" lon="-5.264383">
        <ele>1312.0</ele>
        <time>2013-06-30T14:01:48Z</time>
      </trkpt>
      <trkpt lat="40.172883" lon="-5.264383">
        <ele>1312.0</ele>
        <time>2013-06-30T14:01:49Z</time>
      </trkpt>
      <trkpt lat="40.172817" lon="-5.264400">
        <ele>1312.0</ele>
        <time>2013-06-30T14:01:50Z</time>
      </trkpt>
      <trkpt lat="40.172750" lon="-5.264417">
        <ele>1311.0</ele>
        <time>2013-06-30T14:01:51Z</time>
      </trkpt>
      <trkpt lat="40.172717" lon="-5.264450">
        <ele>1312.0</ele>
        <time>2013-06-30T14:01:52Z</time>
      </trkpt>
      <trkpt lat="40.172683" lon="-5.264500">
        <ele>1312.0</ele>
        <time>2013-06-30T14:01:53Z</time>
      </trkpt>
      <trkpt lat="40.172667" lon="-5.264567">
        <ele>1312.0</ele>
        <time>2013-06-30T14:01:54Z</time>
      </trkpt>
      <trkpt lat="40.172633" lon="-5.264650">
        <ele>1311.0</ele>
        <time>2013-06-30T14:01:55Z</time>
      </trkpt>
      <trkpt lat="40.172583" lon="-5.264733">
        <ele>1308.0</ele>
        <time>2013-06-30T14:01:56Z</time>
      </trkpt>
      <trkpt lat="40.172533" lon="-5.264833">
        <ele>1305.0</ele>
        <time>2013-06-30T14:01:57Z</time>
      </trkpt>
      <trkpt lat="40.172500" lon="-5.264933">
        <ele>1303.0</ele>
        <time>2013-06-30T14:01:58Z</time>
      </trkpt>
      <trkpt lat="40.172500" lon="-5.265067">
        <ele>1301.0</ele>
        <time>2013-06-30T14:01:59Z</time>
      </trkpt>
      <trkpt lat="40.172517" lon="-5.265200">
        <ele>1300.0</ele>
        <time>2013-06-30T14:02:00Z</time>
      </trkpt>
      <trkpt lat="40.172567" lon="-5.265333">
        <ele>1299.0</ele>
        <time>2013-06-30T14:02:01Z</time>
      </trkpt>
      <trkpt lat="40.172600" lon="-5.265450">
        <ele>1298.0</ele>
        <time>2013-06-30T14:02:02Z</time>
      </trkpt>
      <trkpt lat="40.172633" lon="-5.265567">
        <ele>1297.0</ele>
        <time>2013-06-30T14:02:03Z</time>
      </trkpt>
      <trkpt lat="40.172650" lon="-5.265683">
        <ele>1297.0</ele>
        <time>2013-06-30T14:02:04Z</time>
      </trkpt>
      <trkpt lat="40.172700" lon="-5.265783">
        <ele>1297.0</ele>
        <time>2013-06-30T14:02:05Z</time>
      </trkpt>
      <trkpt lat="40.172767" lon="-5.265900">
        <ele>1295.0</ele>
        <time>2013-06-30T14:02:06Z</time>
      </trkpt>
      <trkpt lat="40.172833" lon="-5.266017">
        <ele>1295.0</ele>
        <time>2013-06-30T14:02:07Z</time>
      </trkpt>
      <trkpt lat="40.172917" lon="-5.266117">
        <ele>1296.0</ele>
        <time>2013-06-30T14:02:08Z</time>
      </trkpt>
      <trkpt lat="40.172983" lon="-5.266217">
        <ele>1296.0</ele>
        <time>2013-06-30T14:02:09Z</time>
      </trkpt>
      <trkpt lat="40.173067" lon="-5.266300">
        <ele>1296.0</ele>
        <time>2013-06-30T14:02:10Z</time>
      </trkpt>
      <trkpt lat="40.173150" lon="-5.266367">
        <ele>1296.0</ele>
        <time>2013-06-30T14:02:11Z</time>
      </trkpt>
      <trkpt lat="40.173250" lon="-5.266450">
        <ele>1297.0</ele>
        <time>2013-06-30T14:02:12Z</time>
      </trkpt>
      <trkpt lat="40.173333" lon="-5.266567">
        <ele>1296.0</ele>
        <time>2013-06-30T14:02:13Z</time>
      </trkpt>
      <trkpt lat="40.173417" lon="-5.266667">
        <ele>1298.0</ele>
        <time>2013-06-30T14:02:14Z</time>
      </trkpt>
      <trkpt lat="40.173483" lon="-5.266750">
        <ele>1299.0</ele>
        <time>2013-06-30T14:02:15Z</time>
      </trkpt>
      <trkpt lat="40.173550" lon="-5.266850">
        <ele>1300.0</ele>
        <time>2013-06-30T14:02:16Z</time>
      </trkpt>
      <trkpt lat="40.173617" lon="-5.266933">
        <ele>1301.0</ele>
        <time>2013-06-30T14:02:17Z</time>
      </trkpt>
      <trkpt lat="40.173683" lon="-5.267033">
        <ele>1302.0</ele>
        <time>2013-06-30T14:02:18Z</time>
      </trkpt>
      <trkpt lat="40.173750" lon="-5.267150">
        <ele>1303.0</ele>
        <time>2013-06-30T14:02:19Z</time>
      </trkpt>
      <trkpt lat="40.173800" lon="-5.267250">
        <ele>1304.0</ele>
        <time>2013-06-30T14:02:20Z</time>
      </trkpt>
      <trkpt lat="40.173867" lon="-5.267350">
        <ele>1305.0</ele>
        <time>2013-06-30T14:02:21Z</time>
      </trkpt>
      <trkpt lat="40.173917" lon="-5.267467">
        <ele>1306.0</ele>
        <time>2013-06-30T14:02:22Z</time>
      </trkpt>
      <trkpt lat="40.173967" lon="-5.267600">
        <ele>1306.0</ele>
        <time>2013-06-30T14:02:23Z</time>
      </trkpt>
      <trkpt lat="40.174000" lon="-5.267733">
        <ele>1305.0</ele>
        <time>2013-06-30T14:02:24Z</time>
      </trkpt>
      <trkpt lat="40.174050" lon="-5.267867">
        <ele>1306.0</ele>
        <time>2013-06-30T14:02:25Z</time>
      </trkpt>
      <trkpt lat="40.174100" lon="-5.267983">
        <ele>1307.0</ele>
        <time>2013-06-30T14:02:26Z</time>
      </trkpt>
      <trkpt lat="40.174117" lon="-5.268083">
        <ele>1310.0</ele>
        <time>2013-06-30T14:02:27Z</time>
      </trkpt>
      <trkpt lat="40.174133" lon="-5.268183">
        <ele>1311.0</ele>
        <time>2013-06-30T14:02:28Z</time>
      </trkpt>
      <trkpt lat="40.174133" lon="-5.268300">
        <ele>1312.0</ele>
        <time>2013-06-30T14:02:29Z</time>
      </trkpt>
      <trkpt lat="40.174133" lon="-5.268417">
        <ele>1314.0</ele>
        <time>2013-06-30T14:02:30Z</time>
      </trkpt>
      <trkpt lat="40.174117" lon="-5.268500">
        <ele>1315.0</ele>
        <time>2013-06-30T14:02:31Z</time>
      </trkpt>
      <trkpt lat="40.174083" lon="-5.268567">
        <ele>1317.0</ele>
        <time>2013-06-30T14:02:32Z</time>
      </trkpt>
      <trkpt lat="40.174033" lon="-5.268600">
        <ele>1318.0</ele>
        <time>2013-06-30T14:02:33Z</time>
      </trkpt>
      <trkpt lat="40.173983" lon="-5.268617">
        <ele>1318.0</ele>
        <time>2013-06-30T14:02:34Z</time>
      </trkpt>
      <trkpt lat="40.173933" lon="-5.268650">
        <ele>1318.0</ele>
        <time>2013-06-30T14:02:35Z</time>
      </trkpt>
      <trkpt lat="40.173867" lon="-5.268667">
        <ele>1319.0</ele>
        <time>2013-06-30T14:02:36Z</time>
      </trkpt>
      <trkpt lat="40.173817" lon="-5.268650">
        <ele>1319.0</ele>
        <time>2013-06-30T14:02:37Z</time>
      </trkpt>
      <trkpt lat="40.173767" lon="-5.268633">
        <ele>1317.0</ele>
        <time>2013-06-30T14:02:38Z</time>
      </trkpt>
      <trkpt lat="40.173733" lon="-5.268600">
        <ele>1318.0</ele>
        <time>2013-06-30T14:02:39Z</time>
      </trkpt>
      <trkpt lat="40.173683" lon="-5.268550">
        <ele>1319.0</ele>
        <time>2013-06-30T14:02:40Z</time>
      </trkpt>
      <trkpt lat="40.173650" lon="-5.268533">
        <ele>1319.0</ele>
        <time>2013-06-30T14:02:41Z</time>
      </trkpt>
      <trkpt lat="40.173583" lon="-5.268533">
        <ele>1319.0</ele>
        <time>2013-06-30T14:02:42Z</time>
      </trkpt>
      <trkpt lat="40.173517" lon="-5.268567">
        <ele>1319.0</ele>
        <time>2013-06-30T14:02:43Z</time>
      </trkpt>
      <trkpt lat="40.173467" lon="-5.268633">
        <ele>1319.0</ele>
        <time>2013-06-30T14:02:44Z</time>
      </trkpt>
      <trkpt lat="40.173433" lon="-5.268717">
        <ele>1320.0</ele>
        <time>2013-06-30T14:02:45Z</time>
      </trkpt>
      <trkpt lat="40.173417" lon="-5.268817">
        <ele>1321.0</ele>
        <time>2013-06-30T14:02:46Z</time>
      </trkpt>
      <trkpt lat="40.173400" lon="-5.268917">
        <ele>1322.0</ele>
        <time>2013-06-30T14:02:47Z</time>
      </trkpt>
      <trkpt lat="40.173417" lon="-5.269050">
        <ele>1323.0</ele>
        <time>2013-06-30T14:02:48Z</time>
      </trkpt>
      <trkpt lat="40.173433" lon="-5.269167">
        <ele>1324.0</ele>
        <time>2013-06-30T14:02:49Z</time>
      </trkpt>
      <trkpt lat="40.173467" lon="-5.269283">
        <ele>1324.0</ele>
        <time>2013-06-30T14:02:50Z</time>
      </trkpt>
      <trkpt lat="40.173550" lon="-5.269383">
        <ele>1325.0</ele>
        <time>2013-06-30T14:02:51Z</time>
      </trkpt>
      <trkpt lat="40.173633" lon="-5.269467">
        <ele>1325.0</ele>
        <time>2013-06-30T14:02:52Z</time>
      </trkpt>
      <trkpt lat="40.173733" lon="-5.269533">
        <ele>1325.0</ele>
        <time>2013-06-30T14:02:53Z</time>
      </trkpt>
      <trkpt lat="40.173850" lon="-5.269567">
        <ele>1325.0</ele>
        <time>2013-06-30T14:02:54Z</time>
      </trkpt>
      <trkpt lat="40.173967" lon="-5.269583">
        <ele>1324.0</ele>
        <time>2013-06-30T14:02:55Z</time>
      </trkpt>
      <trkpt lat="40.174083" lon="-5.269550">
        <ele>1324.0</ele>
        <time>2013-06-30T14:02:56Z</time>
      </trkpt>
      <trkpt lat="40.174183" lon="-5.269500">
        <ele>1325.0</ele>
        <time>2013-06-30T14:02:57Z</time>
      </trkpt>
      <trkpt lat="40.174267" lon="-5.269417">
        <ele>1326.0</ele>
        <time>2013-06-30T14:02:58Z</time>
      </trkpt>
      <trkpt lat="40.174317" lon="-5.269333">
        <ele>1327.0</ele>
        <time>2013-06-30T14:02:59Z</time>
      </trkpt>
      <trkpt lat="40.174350" lon="-5.269250">
        <ele>1328.0</ele>
        <time>2013-06-30T14:03:00Z</time>
      </trkpt>
      <trkpt lat="40.174367" lon="-5.269150">
        <ele>1328.0</ele>
        <time>2013-06-30T14:03:01Z</time>
      </trkpt>
      <trkpt lat="40.174367" lon="-5.269083">
        <ele>1328.0</ele>
        <time>2013-06-30T14:03:02Z</time>
      </trkpt>
      <trkpt lat="40.174333" lon="-5.269017">
        <ele>1328.0</ele>
        <time>2013-06-30T14:03:03Z</time>
      </trkpt>
      <trkpt lat="40.174283" lon="-5.268983">
        <ele>1328.0</ele>
        <time>2013-06-30T14:03:04Z</time>
      </trkpt>
      <trkpt lat="40.174217" lon="-5.268983">
        <ele>1327.0</ele>
        <time>2013-06-30T14:03:05Z</time>
      </trkpt>
      <trkpt lat="40.174167" lon="-5.269000">
        <ele>1327.0</ele>
        <time>2013-06-30T14:03:06Z</time>
      </trkpt>
      <trkpt lat="40.174117" lon="-5.269017">
        <ele>1328.0</ele>
        <time>2013-06-30T14:03:07Z</time>
      </trkpt>
      <trkpt lat="40.174067" lon="-5.269067">
        <ele>1329.0</ele>
        <time>2013-06-30T14:03:08Z</time>
      </trkpt>
      <trkpt lat="40.174033" lon="-5.269117">
        <ele>1330.0</ele>
        <time>2013-06-30T14:03:09Z</time>
      </trkpt>
      <trkpt lat="40.174000" lon="-5.269183">
        <ele>1331.0</ele>
        <time>2013-06-30T14:03:10Z</time>
      </trkpt>
      <trkpt lat="40.173967" lon="-5.269267">
        <ele>1332.0</ele>
        <time>2013-06-30T14:03:11Z</time>
      </trkpt>
      <trkpt lat="40.173950" lon="-5.269367">
        <ele>1333.0</ele>
        <time>2013-06-30T14:03:12Z</time>
      </trkpt>
      <trkpt lat="40.173967" lon="-5.269483">
        <ele>1334.0</ele>
        <time>2013-06-30T14:03:13Z</time>
      </trkpt>
      <trkpt lat="40.174067" lon="-5.269717">
        <ele>1335.0</ele>
        <time>2013-06-30T14:03:15Z</time>
      </trkpt>
      <trkpt lat="40.174150" lon="-5.269817">
        <ele>1336.0</ele>
        <time>2013-06-30T14:03:16Z</time>
      </trkpt>
      <trkpt lat="40.174217" lon="-5.269917">
        <ele>1338.0</ele>
        <time>2013-06-30T14:03:17Z</time>
      </trkpt>
      <trkpt lat="40.174533" lon="-5.270150">
        <ele>1339.0</ele>
        <time>2013-06-30T14:03:20Z</time>
      </trkpt>
      <trkpt lat="40.174650" lon="-5.270167">
        <ele>1339.0</ele>
        <time>2013-06-30T14:03:21Z</time>
      </trkpt>
      <trkpt lat="40.174767" lon="-5.270150">
        <ele>1338.0</ele>
        <time>2013-06-30T14:03:22Z</time>
      </trkpt>
      <trkpt lat="40.174867" lon="-5.270100">
        <ele>1339.0</ele>
        <time>2013-06-30T14:03:23Z</time>
      </trkpt>
      <trkpt lat="40.174950" lon="-5.270017">
        <ele>1339.0</ele>
        <time>2013-06-30T14:03:24Z</time>
      </trkpt>
      <trkpt lat="40.175017" lon="-5.269950">
        <ele>1339.0</ele>
        <time>2013-06-30T14:03:25Z</time>
      </trkpt>
      <trkpt lat="40.175067" lon="-5.269850">
        <ele>1340.0</ele>
        <time>2013-06-30T14:03:26Z</time>
      </trkpt>
      <trkpt lat="40.175100" lon="-5.269767">
        <ele>1340.0</ele>
        <time>2013-06-30T14:03:27Z</time>
      </trkpt>
      <trkpt lat="40.175117" lon="-5.269667">
        <ele>1340.0</ele>
        <time>2013-06-30T14:03:28Z</time>
      </trkpt>
      <trkpt lat="40.175100" lon="-5.269583">
        <ele>1340.0</ele>
        <time>2013-06-30T14:03:29Z</time>
      </trkpt>
      <trkpt lat="40.175067" lon="-5.269517">
        <ele>1341.0</ele>
        <time>2013-06-30T14:03:30Z</time>
      </trkpt>
      <trkpt lat="40.175033" lon="-5.269467">
        <ele>1342.0</ele>
        <time>2013-06-30T14:03:31Z</time>
      </trkpt>
      <trkpt lat="40.174983" lon="-5.269417">
        <ele>1343.0</ele>
        <time>2013-06-30T14:03:32Z</time>
      </trkpt>
      <trkpt lat="40.174950" lon="-5.269367">
        <ele>1344.0</ele>
        <time>2013-06-30T14:03:33Z</time>
      </trkpt>
      <trkpt lat="40.174917" lon="-5.269317">
        <ele>1345.0</ele>
        <time>2013-06-30T14:03:34Z</time>
      </trkpt>
      <trkpt lat="40.174883" lon="-5.269250">
        <ele>1345.0</ele>
        <time>2013-06-30T14:03:35Z</time>
      </trkpt>
      <trkpt lat="40.174850" lon="-5.269217">
        <ele>1347.0</ele>
        <time>2013-06-30T14:03:36Z</time>
      </trkpt>
      <trkpt lat="40.174817" lon="-5.269200">
        <ele>1348.0</ele>
        <time>2013-06-30T14:03:37Z</time>
      </trkpt>
      <trkpt lat="40.174767" lon="-5.269200">
        <ele>1348.0</ele>
        <time>2013-06-30T14:03:38Z</time>
      </trkpt>
      <trkpt lat="40.174717" lon="-5.269233">
        <ele>1348.0</ele>
        <time>2013-06-30T14:03:39Z</time>
      </trkpt>
      <trkpt lat="40.174667" lon="-5.269267">
        <ele>1348.0</ele>
        <time>2013-06-30T14:03:40Z</time>
      </trkpt>
      <trkpt lat="40.174633" lon="-5.269333">
        <ele>1349.0</ele>
        <time>2013-06-30T14:03:41Z</time>
      </trkpt>
      <trkpt lat="40.174617" lon="-5.269417">
        <ele>1350.0</ele>
        <time>2013-06-30T14:03:42Z</time>
      </trkpt>
      <trkpt lat="40.174600" lon="-5.269500">
        <ele>1350.0</ele>
        <time>2013-06-30T14:03:43Z</time>
      </trkpt>
      <trkpt lat="40.174617" lon="-5.269617">
        <ele>1351.0</ele>
        <time>2013-06-30T14:03:44Z</time>
      </trkpt>
      <trkpt lat="40.174633" lon="-5.269733">
        <ele>1351.0</ele>
        <time>2013-06-30T14:03:45Z</time>
      </trkpt>
      <trkpt lat="40.174667" lon="-5.269850">
        <ele>1352.0</ele>
        <time>2013-06-30T14:03:46Z</time>
      </trkpt>
      <trkpt lat="40.174717" lon="-5.269967">
        <ele>1352.0</ele>
        <time>2013-06-30T14:03:47Z</time>
      </trkpt>
      <trkpt lat="40.174817" lon="-5.270067">
        <ele>1353.0</ele>
        <time>2013-06-30T14:03:48Z</time>
      </trkpt>
      <trkpt lat="40.174917" lon="-5.270150">
        <ele>1354.0</ele>
        <time>2013-06-30T14:03:49Z</time>
      </trkpt>
      <trkpt lat="40.175033" lon="-5.270200">
        <ele>1354.0</ele>
        <time>2013-06-30T14:03:50Z</time>
      </trkpt>
      <trkpt lat="40.175133" lon="-5.270217">
        <ele>1356.0</ele>
        <time>2013-06-30T14:03:51Z</time>
      </trkpt>
      <trkpt lat="40.175250" lon="-5.270217">
        <ele>1357.0</ele>
        <time>2013-06-30T14:03:52Z</time>
      </trkpt>
      <trkpt lat="40.175350" lon="-5.270183">
        <ele>1357.0</ele>
        <time>2013-06-30T14:03:53Z</time>
      </trkpt>
      <trkpt lat="40.175450" lon="-5.270150">
        <ele>1357.0</ele>
        <time>2013-06-30T14:03:54Z</time>
      </trkpt>
      <trkpt lat="40.175550" lon="-5.270100">
        <ele>1358.0</ele>
        <time>2013-06-30T14:03:55Z</time>
      </trkpt>
      <trkpt lat="40.175633" lon="-5.270033">
        <ele>1358.0</ele>
        <time>2013-06-30T14:03:56Z</time>
      </trkpt>
      <trkpt lat="40.175700" lon="-5.269933">
        <ele>1358.0</ele>
        <time>2013-06-30T14:03:57Z</time>
      </trkpt>
      <trkpt lat="40.175733" lon="-5.269833">
        <ele>1358.0</ele>
        <time>2013-06-30T14:03:58Z</time>
      </trkpt>
      <trkpt lat="40.175767" lon="-5.269733">
        <ele>1358.0</ele>
        <time>2013-06-30T14:03:59Z</time>
      </trkpt>
      <trkpt lat="40.175783" lon="-5.269633">
        <ele>1358.0</ele>
        <time>2013-06-30T14:04:00Z</time>
      </trkpt>
      <trkpt lat="40.175783" lon="-5.269550">
        <ele>1358.0</ele>
        <time>2013-06-30T14:04:01Z</time>
      </trkpt>
      <trkpt lat="40.175783" lon="-5.269450">
        <ele>1359.0</ele>
        <time>2013-06-30T14:04:02Z</time>
      </trkpt>
      <trkpt lat="40.175783" lon="-5.269367">
        <ele>1359.0</ele>
        <time>2013-06-30T14:04:03Z</time>
      </trkpt>
      <trkpt lat="40.175767" lon="-5.269283">
        <ele>1359.0</ele>
        <time>2013-06-30T14:04:04Z</time>
      </trkpt>
      <trkpt lat="40.175767" lon="-5.269183">
        <ele>1359.0</ele>
        <time>2013-06-30T14:04:05Z</time>
      </trkpt>
      <trkpt lat="40.175750" lon="-5.269100">
        <ele>1359.0</ele>
        <time>2013-06-30T14:04:06Z</time>
      </trkpt>
      <trkpt lat="40.175767" lon="-5.269033">
        <ele>1360.0</ele>
        <time>2013-06-30T14:04:07Z</time>
      </trkpt>
      <trkpt lat="40.175767" lon="-5.268950">
        <ele>1362.0</ele>
        <time>2013-06-30T14:04:08Z</time>
      </trkpt>
      <trkpt lat="40.175767" lon="-5.268883">
        <ele>1362.0</ele>
        <time>2013-06-30T14:04:09Z</time>
      </trkpt>
      <trkpt lat="40.175783" lon="-5.268800">
        <ele>1363.0</ele>
        <time>2013-06-30T14:04:10Z</time>
      </trkpt>
      <trkpt lat="40.175767" lon="-5.268717">
        <ele>1362.0</ele>
        <time>2013-06-30T14:04:11Z</time>
      </trkpt>
      <trkpt lat="40.175767" lon="-5.268633">
        <ele>1362.0</ele>
        <time>2013-06-30T14:04:12Z</time>
      </trkpt>
      <trkpt lat="40.175733" lon="-5.268583">
        <ele>1362.0</ele>
        <time>2013-06-30T14:04:13Z</time>
      </trkpt>
      <trkpt lat="40.175683" lon="-5.268550">
        <ele>1361.0</ele>
        <time>2013-06-30T14:04:14Z</time>
      </trkpt>
      <trkpt lat="40.175617" lon="-5.268550">
        <ele>1361.0</ele>
        <time>2013-06-30T14:04:15Z</time>
      </trkpt>
      <trkpt lat="40.175567" lon="-5.268567">
        <ele>1361.0</ele>
        <time>2013-06-30T14:04:16Z</time>
      </trkpt>
      <trkpt lat="40.175500" lon="-5.268600">
        <ele>1361.0</ele>
        <time>2013-06-30T14:04:17Z</time>
      </trkpt>
      <trkpt lat="40.175450" lon="-5.268650">
        <ele>1362.0</ele>
        <time>2013-06-30T14:04:18Z</time>
      </trkpt>
      <trkpt lat="40.175400" lon="-5.268733">
        <ele>1362.0</ele>
        <time>2013-06-30T14:04:19Z</time>
      </trkpt>
      <trkpt lat="40.175367" lon="-5.268817">
        <ele>1362.0</ele>
        <time>2013-06-30T14:04:20Z</time>
      </trkpt>
      <trkpt lat="40.175350" lon="-5.268917">
        <ele>1362.0</ele>
        <time>2013-06-30T14:04:21Z</time>
      </trkpt>
      <trkpt lat="40.175317" lon="-5.269033">
        <ele>1361.0</ele>
        <time>2013-06-30T14:04:22Z</time>
      </trkpt>
      <trkpt lat="40.175300" lon="-5.269250">
        <ele>1362.0</ele>
        <time>2013-06-30T14:04:24Z</time>
      </trkpt>
      <trkpt lat="40.175317" lon="-5.269367">
        <ele>1362.0</ele>
        <time>2013-06-30T14:04:25Z</time>
      </trkpt>
      <trkpt lat="40.175317" lon="-5.269483">
        <ele>1362.0</ele>
        <time>2013-06-30T14:04:26Z</time>
      </trkpt>
      <trkpt lat="40.175350" lon="-5.269600">
        <ele>1362.0</ele>
        <time>2013-06-30T14:04:27Z</time>
      </trkpt>
      <trkpt lat="40.175417" lon="-5.269717">
        <ele>1362.0</ele>
        <time>2013-06-30T14:04:28Z</time>
      </trkpt>
      <trkpt lat="40.175500" lon="-5.269833">
        <ele>1362.0</ele>
        <time>2013-06-30T14:04:29Z</time>
      </trkpt>
      <trkpt lat="40.175600" lon="-5.269917">
        <ele>1362.0</ele>
        <time>2013-06-30T14:04:30Z</time>
      </trkpt>
      <trkpt lat="40.175717" lon="-5.269967">
        <ele>1363.0</ele>
        <time>2013-06-30T14:04:31Z</time>
      </trkpt>
      <trkpt lat="40.175850" lon="-5.270000">
        <ele>1363.0</ele>
        <time>2013-06-30T14:04:32Z</time>
      </trkpt>
      <trkpt lat="40.175967" lon="-5.270000">
        <ele>1363.0</ele>
        <time>2013-06-30T14:04:33Z</time>
      </trkpt>
      <trkpt lat="40.176067" lon="-5.269983">
        <ele>1364.0</ele>
        <time>2013-06-30T14:04:34Z</time>
      </trkpt>
      <trkpt lat="40.176150" lon="-5.269933">
        <ele>1365.0</ele>
        <time>2013-06-30T14:04:35Z</time>
      </trkpt>
      <trkpt lat="40.176217" lon="-5.269867">
        <ele>1365.0</ele>
        <time>2013-06-30T14:04:36Z</time>
      </trkpt>
      <trkpt lat="40.176267" lon="-5.269767">
        <ele>1365.0</ele>
        <time>2013-06-30T14:04:37Z</time>
      </trkpt>
      <trkpt lat="40.176300" lon="-5.269667">
        <ele>1364.0</ele>
        <time>2013-06-30T14:04:38Z</time>
      </trkpt>
      <trkpt lat="40.176333" lon="-5.269567">
        <ele>1363.0</ele>
        <time>2013-06-30T14:04:39Z</time>
      </trkpt>
      <trkpt lat="40.176350" lon="-5.269467">
        <ele>1362.0</ele>
        <time>2013-06-30T14:04:40Z</time>
      </trkpt>
      <trkpt lat="40.176350" lon="-5.269383">
        <ele>1362.0</ele>
        <time>2013-06-30T14:04:41Z</time>
      </trkpt>
      <trkpt lat="40.176333" lon="-5.269317">
        <ele>1362.0</ele>
        <time>2013-06-30T14:04:42Z</time>
      </trkpt>
      <trkpt lat="40.176300" lon="-5.269267">
        <ele>1361.0</ele>
        <time>2013-06-30T14:04:43Z</time>
      </trkpt>
      <trkpt lat="40.176250" lon="-5.269233">
        <ele>1361.0</ele>
        <time>2013-06-30T14:04:44Z</time>
      </trkpt>
      <trkpt lat="40.176200" lon="-5.269217">
        <ele>1361.0</ele>
        <time>2013-06-30T14:04:45Z</time>
      </trkpt>
      <trkpt lat="40.176150" lon="-5.269233">
        <ele>1362.0</ele>
        <time>2013-06-30T14:04:46Z</time>
      </trkpt>
      <trkpt lat="40.176117" lon="-5.269267">
        <ele>1362.0</ele>
        <time>2013-06-30T14:04:47Z</time>
      </trkpt>
      <trkpt lat="40.176067" lon="-5.269317">
        <ele>1362.0</ele>
        <time>2013-06-30T14:04:48Z</time>
      </trkpt>
      <trkpt lat="40.176017" lon="-5.269383">
        <ele>1362.0</ele>
        <time>2013-06-30T14:04:49Z</time>
      </trkpt>
      <trkpt lat="40.175983" lon="-5.269450">
        <ele>1361.0</ele>
        <time>2013-06-30T14:04:50Z</time>
      </trkpt>
      <trkpt lat="40.175933" lon="-5.269533">
        <ele>1361.0</ele>
        <time>2013-06-30T14:04:51Z</time>
      </trkpt>
      <trkpt lat="40.175900" lon="-5.269600">
        <ele>1361.0</ele>
        <time>2013-06-30T14:04:52Z</time>
      </trkpt>
      <trkpt lat="40.175883" lon="-5.269683">
        <ele>1361.0</ele>
        <time>2013-06-30T14:04:53Z</time>
      </trkpt>
      <trkpt lat="40.175867" lon="-5.269783">
        <ele>1362.0</ele>
        <time>2013-06-30T14:04:54Z</time>
      </trkpt>
      <trkpt lat="40.175850" lon="-5.269883">
        <ele>1362.0</ele>
        <time>2013-06-30T14:04:55Z</time>
      </trkpt>
      <trkpt lat="40.175833" lon="-5.269983">
        <ele>1361.0</ele>
        <time>2013-06-30T14:04:56Z</time>
      </trkpt>
      <trkpt lat="40.175817" lon="-5.270100">
        <ele>1360.0</ele>
        <time>2013-06-30T14:04:57Z</time>
      </trkpt>
      <trkpt lat="40.175800" lon="-5.270200">
        <ele>1360.0</ele>
        <time>2013-06-30T14:04:58Z</time>
      </trkpt>
      <trkpt lat="40.175783" lon="-5.270300">
        <ele>1360.0</ele>
        <time>2013-06-30T14:04:59Z</time>
      </trkpt>
      <trkpt lat="40.175767" lon="-5.270400">
        <ele>1360.0</ele>
        <time>2013-06-30T14:05:00Z</time>
      </trkpt>
      <trkpt lat="40.175767" lon="-5.270517">
        <ele>1360.0</ele>
        <time>2013-06-30T14:05:01Z</time>
      </trkpt>
      <trkpt lat="40.175767" lon="-5.270633">
        <ele>1360.0</ele>
        <time>2013-06-30T14:05:02Z</time>
      </trkpt>
      <trkpt lat="40.175750" lon="-5.270733">
        <ele>1359.0</ele>
        <time>2013-06-30T14:05:03Z</time>
      </trkpt>
      <trkpt lat="40.175733" lon="-5.270850">
        <ele>1360.0</ele>
        <time>2013-06-30T14:05:04Z</time>
      </trkpt>
      <trkpt lat="40.175733" lon="-5.270950">
        <ele>1361.0</ele>
        <time>2013-06-30T14:05:05Z</time>
      </trkpt>
      <trkpt lat="40.175717" lon="-5.271050">
        <ele>1361.0</ele>
        <time>2013-06-30T14:05:06Z</time>
      </trkpt>
      <trkpt lat="40.175717" lon="-5.271150">
        <ele>1362.0</ele>
        <time>2013-06-30T14:05:07Z</time>
      </trkpt>
      <trkpt lat="40.175700" lon="-5.271250">
        <ele>1363.0</ele>
        <time>2013-06-30T14:05:08Z</time>
      </trkpt>
      <trkpt lat="40.175667" lon="-5.271350">
        <ele>1364.0</ele>
        <time>2013-06-30T14:05:09Z</time>
      </trkpt>
      <trkpt lat="40.175633" lon="-5.271567">
        <ele>1367.0</ele>
        <time>2013-06-30T14:05:11Z</time>
      </trkpt>
      <trkpt lat="40.175650" lon="-5.271667">
        <ele>1370.0</ele>
        <time>2013-06-30T14:05:12Z</time>
      </trkpt>
      <trkpt lat="40.175683" lon="-5.271767">
        <ele>1372.0</ele>
        <time>2013-06-30T14:05:13Z</time>
      </trkpt>
      <trkpt lat="40.175733" lon="-5.271883">
        <ele>1372.0</ele>
        <time>2013-06-30T14:05:14Z</time>
      </trkpt>
      <trkpt lat="40.175817" lon="-5.272000">
        <ele>1372.0</ele>
        <time>2013-06-30T14:05:15Z</time>
      </trkpt>
      <trkpt lat="40.175900" lon="-5.272083">
        <ele>1374.0</ele>
        <time>2013-06-30T14:05:16Z</time>
      </trkpt>
      <trkpt lat="40.176000" lon="-5.272133">
        <ele>1376.0</ele>
        <time>2013-06-30T14:05:17Z</time>
      </trkpt>
      <trkpt lat="40.176200" lon="-5.272117">
        <ele>1380.0</ele>
        <time>2013-06-30T14:05:19Z</time>
      </trkpt>
      <trkpt lat="40.176300" lon="-5.272067">
        <ele>1381.0</ele>
        <time>2013-06-30T14:05:20Z</time>
      </trkpt>
      <trkpt lat="40.176383" lon="-5.272000">
        <ele>1383.0</ele>
        <time>2013-06-30T14:05:21Z</time>
      </trkpt>
      <trkpt lat="40.176450" lon="-5.271933">
        <ele>1386.0</ele>
        <time>2013-06-30T14:05:22Z</time>
      </trkpt>
      <trkpt lat="40.176517" lon="-5.271850">
        <ele>1388.0</ele>
        <time>2013-06-30T14:05:23Z</time>
      </trkpt>
      <trkpt lat="40.176550" lon="-5.271767">
        <ele>1389.0</ele>
        <time>2013-06-30T14:05:24Z</time>
      </trkpt>
      <trkpt lat="40.176567" lon="-5.271667">
        <ele>1390.0</ele>
        <time>2013-06-30T14:05:25Z</time>
      </trkpt>
      <trkpt lat="40.176567" lon="-5.271483">
        <ele>1393.0</ele>
        <time>2013-06-30T14:05:27Z</time>
      </trkpt>
      <trkpt lat="40.176550" lon="-5.271400">
        <ele>1394.0</ele>
        <time>2013-06-30T14:05:28Z</time>
      </trkpt>
      <trkpt lat="40.176533" lon="-5.271350">
        <ele>1396.0</ele>
        <time>2013-06-30T14:05:29Z</time>
      </trkpt>
      <trkpt lat="40.176517" lon="-5.271283">
        <ele>1398.0</ele>
        <time>2013-06-30T14:05:30Z</time>
      </trkpt>
      <trkpt lat="40.176483" lon="-5.271250">
        <ele>1399.0</ele>
        <time>2013-06-30T14:05:31Z</time>
      </trkpt>
      <trkpt lat="40.176450" lon="-5.271233">
        <ele>1400.0</ele>
        <time>2013-06-30T14:05:32Z</time>
      </trkpt>
      <trkpt lat="40.176383" lon="-5.271217">
        <ele>1399.0</ele>
        <time>2013-06-30T14:05:33Z</time>
      </trkpt>
      <trkpt lat="40.176333" lon="-5.271233">
        <ele>1400.0</ele>
        <time>2013-06-30T14:05:34Z</time>
      </trkpt>
      <trkpt lat="40.176300" lon="-5.271283">
        <ele>1402.0</ele>
        <time>2013-06-30T14:05:35Z</time>
      </trkpt>
      <trkpt lat="40.176267" lon="-5.271333">
        <ele>1403.0</ele>
        <time>2013-06-30T14:05:36Z</time>
      </trkpt>
      <trkpt lat="40.176233" lon="-5.271400">
        <ele>1405.0</ele>
        <time>2013-06-30T14:05:37Z</time>
      </trkpt>
      <trkpt lat="40.176217" lon="-5.271483">
        <ele>1406.0</ele>
        <time>2013-06-30T14:05:38Z</time>
      </trkpt>
      <trkpt lat="40.176200" lon="-5.271583">
        <ele>1407.0</ele>
        <time>2013-06-30T14:05:39Z</time>
      </trkpt>
      <trkpt lat="40.176183" lon="-5.271700">
        <ele>1408.0</ele>
        <time>2013-06-30T14:05:40Z</time>
      </trkpt>
      <trkpt lat="40.176200" lon="-5.271817">
        <ele>1409.0</ele>
        <time>2013-06-30T14:05:41Z</time>
      </trkpt>
      <trkpt lat="40.176317" lon="-5.272050">
        <ele>1411.0</ele>
        <time>2013-06-30T14:05:43Z</time>
      </trkpt>
      <trkpt lat="40.176400" lon="-5.272133">
        <ele>1412.0</ele>
        <time>2013-06-30T14:05:44Z</time>
      </trkpt>
      <trkpt lat="40.176483" lon="-5.272200">
        <ele>1413.0</ele>
        <time>2013-06-30T14:05:45Z</time>
      </trkpt>
      <trkpt lat="40.176583" lon="-5.272233">
        <ele>1413.0</ele>
        <time>2013-06-30T14:05:46Z</time>
      </trkpt>
      <trkpt lat="40.176700" lon="-5.272267">
        <ele>1413.0</ele>
        <time>2013-06-30T14:05:47Z</time>
      </trkpt>
      <trkpt lat="40.176800" lon="-5.272267">
        <ele>1414.0</ele>
        <time>2013-06-30T14:05:48Z</time>
      </trkpt>
      <trkpt lat="40.176917" lon="-5.272250">
        <ele>1414.0</ele>
        <time>2013-06-30T14:05:49Z</time>
      </trkpt>
      <trkpt lat="40.177017" lon="-5.272200">
        <ele>1415.0</ele>
        <time>2013-06-30T14:05:50Z</time>
      </trkpt>
      <trkpt lat="40.177100" lon="-5.272117">
        <ele>1417.0</ele>
        <time>2013-06-30T14:05:51Z</time>
      </trkpt>
      <trkpt lat="40.177150" lon="-5.272017">
        <ele>1418.0</ele>
        <time>2013-06-30T14:05:52Z</time>
      </trkpt>
      <trkpt lat="40.177200" lon="-5.271917">
        <ele>1419.0</ele>
        <time>2013-06-30T14:05:53Z</time>
      </trkpt>
      <trkpt lat="40.177233" lon="-5.271817">
        <ele>1421.0</ele>
        <time>2013-06-30T14:05:54Z</time>
      </trkpt>
      <trkpt lat="40.177250" lon="-5.271733">
        <ele>1422.0</ele>
        <time>2013-06-30T14:05:55Z</time>
      </trkpt>
      <trkpt lat="40.177250" lon="-5.271650">
        <ele>1424.0</ele>
        <time>2013-06-30T14:05:56Z</time>
      </trkpt>
      <trkpt lat="40.177267" lon="-5.271567">
        <ele>1425.0</ele>
        <time>2013-06-30T14:05:57Z</time>
      </trkpt>
      <trkpt lat="40.177267" lon="-5.271483">
        <ele>1426.0</ele>
        <time>2013-06-30T14:05:58Z</time>
      </trkpt>
      <trkpt lat="40.177283" lon="-5.271417">
        <ele>1427.0</ele>
        <time>2013-06-30T14:05:59Z</time>
      </trkpt>
      <trkpt lat="40.177283" lon="-5.271350">
        <ele>1429.0</ele>
        <time>2013-06-30T14:06:00Z</time>
      </trkpt>
      <trkpt lat="40.177283" lon="-5.271283">
        <ele>1430.0</ele>
        <time>2013-06-30T14:06:01Z</time>
      </trkpt>
      <trkpt lat="40.177283" lon="-5.271217">
        <ele>1430.0</ele>
        <time>2013-06-30T14:06:02Z</time>
      </trkpt>
      <trkpt lat="40.177283" lon="-5.271133">
        <ele>1431.0</ele>
        <time>2013-06-30T14:06:03Z</time>
      </trkpt>
      <trkpt lat="40.177267" lon="-5.271067">
        <ele>1431.0</ele>
        <time>2013-06-30T14:06:04Z</time>
      </trkpt>
      <trkpt lat="40.177250" lon="-5.271000">
        <ele>1431.0</ele>
        <time>2013-06-30T14:06:05Z</time>
      </trkpt>
      <trkpt lat="40.177233" lon="-5.270933">
        <ele>1431.0</ele>
        <time>2013-06-30T14:06:06Z</time>
      </trkpt>
      <trkpt lat="40.177200" lon="-5.270867">
        <ele>1431.0</ele>
        <time>2013-06-30T14:06:07Z</time>
      </trkpt>
      <trkpt lat="40.177167" lon="-5.270833">
        <ele>1432.0</ele>
        <time>2013-06-30T14:06:08Z</time>
      </trkpt>
      <trkpt lat="40.177117" lon="-5.270800">
        <ele>1432.0</ele>
        <time>2013-06-30T14:06:09Z</time>
      </trkpt>
      <trkpt lat="40.177083" lon="-5.270800">
        <ele>1431.0</ele>
        <time>2013-06-30T14:06:10Z</time>
      </trkpt>
      <trkpt lat="40.177033" lon="-5.270817">
        <ele>1431.0</ele>
        <time>2013-06-30T14:06:11Z</time>
      </trkpt>
      <trkpt lat="40.176983" lon="-5.270850">
        <ele>1431.0</ele>
        <time>2013-06-30T14:06:12Z</time>
      </trkpt>
      <trkpt lat="40.176950" lon="-5.270917">
        <ele>1431.0</ele>
        <time>2013-06-30T14:06:13Z</time>
      </trkpt>
      <trkpt lat="40.176917" lon="-5.271000">
        <ele>1431.0</ele>
        <time>2013-06-30T14:06:14Z</time>
      </trkpt>
      <trkpt lat="40.176900" lon="-5.271083">
        <ele>1430.0</ele>
        <time>2013-06-30T14:06:15Z</time>
      </trkpt>
      <trkpt lat="40.176883" lon="-5.271183">
        <ele>1430.0</ele>
        <time>2013-06-30T14:06:16Z</time>
      </trkpt>
      <trkpt lat="40.176850" lon="-5.271283">
        <ele>1429.0</ele>
        <time>2013-06-30T14:06:17Z</time>
      </trkpt>
      <trkpt lat="40.176817" lon="-5.271367">
        <ele>1428.0</ele>
        <time>2013-06-30T14:06:18Z</time>
      </trkpt>
      <trkpt lat="40.176783" lon="-5.271467">
        <ele>1428.0</ele>
        <time>2013-06-30T14:06:19Z</time>
      </trkpt>
      <trkpt lat="40.176750" lon="-5.271550">
        <ele>1427.0</ele>
        <time>2013-06-30T14:06:20Z</time>
      </trkpt>
      <trkpt lat="40.176733" lon="-5.271650">
        <ele>1427.0</ele>
        <time>2013-06-30T14:06:21Z</time>
      </trkpt>
      <trkpt lat="40.176683" lon="-5.271850">
        <ele>1426.0</ele>
        <time>2013-06-30T14:06:23Z</time>
      </trkpt>
      <trkpt lat="40.176667" lon="-5.271967">
        <ele>1426.0</ele>
        <time>2013-06-30T14:06:24Z</time>
      </trkpt>
      <trkpt lat="40.176633" lon="-5.272067">
        <ele>1426.0</ele>
        <time>2013-06-30T14:06:25Z</time>
      </trkpt>
      <trkpt lat="40.176617" lon="-5.272183">
        <ele>1426.0</ele>
        <time>2013-06-30T14:06:26Z</time>
      </trkpt>
      <trkpt lat="40.176600" lon="-5.272283">
        <ele>1426.0</ele>
        <time>2013-06-30T14:06:27Z</time>
      </trkpt>
      <trkpt lat="40.176583" lon="-5.272383">
        <ele>1427.0</ele>
        <time>2013-06-30T14:06:28Z</time>
      </trkpt>
      <trkpt lat="40.176567" lon="-5.272467">
        <ele>1428.0</ele>
        <time>2013-06-30T14:06:29Z</time>
      </trkpt>
      <trkpt lat="40.176550" lon="-5.272567">
        <ele>1429.0</ele>
        <time>2013-06-30T14:06:30Z</time>
      </trkpt>
      <trkpt lat="40.176517" lon="-5.272650">
        <ele>1429.0</ele>
        <time>2013-06-30T14:06:31Z</time>
      </trkpt>
      <trkpt lat="40.176483" lon="-5.272750">
        <ele>1430.0</ele>
        <time>2013-06-30T14:06:32Z</time>
      </trkpt>
      <trkpt lat="40.176433" lon="-5.272833">
        <ele>1431.0</ele>
        <time>2013-06-30T14:06:33Z</time>
      </trkpt>
      <trkpt lat="40.176400" lon="-5.272917">
        <ele>1433.0</ele>
        <time>2013-06-30T14:06:34Z</time>
      </trkpt>
      <trkpt lat="40.176383" lon="-5.273000">
        <ele>1435.0</ele>
        <time>2013-06-30T14:06:35Z</time>
      </trkpt>
      <trkpt lat="40.176350" lon="-5.273083">
        <ele>1436.0</ele>
        <time>2013-06-30T14:06:36Z</time>
      </trkpt>
      <trkpt lat="40.176300" lon="-5.273167">
        <ele>1438.0</ele>
        <time>2013-06-30T14:06:37Z</time>
      </trkpt>
      <trkpt lat="40.176250" lon="-5.273233">
        <ele>1436.0</ele>
        <time>2013-06-30T14:06:38Z</time>
      </trkpt>
      <trkpt lat="40.176200" lon="-5.273300">
        <ele>1437.0</ele>
        <time>2013-06-30T14:06:39Z</time>
      </trkpt>
      <trkpt lat="40.176167" lon="-5.273400">
        <ele>1438.0</ele>
        <time>2013-06-30T14:06:40Z</time>
      </trkpt>
      <trkpt lat="40.176150" lon="-5.273517">
        <ele>1439.0</ele>
        <time>2013-06-30T14:06:41Z</time>
      </trkpt>
      <trkpt lat="40.176167" lon="-5.273633">
        <ele>1439.0</ele>
        <time>2013-06-30T14:06:42Z</time>
      </trkpt>
      <trkpt lat="40.176217" lon="-5.273750">
        <ele>1440.0</ele>
        <time>2013-06-30T14:06:43Z</time>
      </trkpt>
      <trkpt lat="40.176283" lon="-5.273833">
        <ele>1441.0</ele>
        <time>2013-06-30T14:06:44Z</time>
      </trkpt>
      <trkpt lat="40.176367" lon="-5.273883">
        <ele>1442.0</ele>
        <time>2013-06-30T14:06:45Z</time>
      </trkpt>
      <trkpt lat="40.176450" lon="-5.273933">
        <ele>1444.0</ele>
        <time>2013-06-30T14:06:46Z</time>
      </trkpt>
      <trkpt lat="40.176550" lon="-5.273933">
        <ele>1444.0</ele>
        <time>2013-06-30T14:06:47Z</time>
      </trkpt>
      <trkpt lat="40.176650" lon="-5.273933">
        <ele>1445.0</ele>
        <time>2013-06-30T14:06:48Z</time>
      </trkpt>
      <trkpt lat="40.176733" lon="-5.273883">
        <ele>1445.0</ele>
        <time>2013-06-30T14:06:49Z</time>
      </trkpt>
      <trkpt lat="40.176800" lon="-5.273800">
        <ele>1446.0</ele>
        <time>2013-06-30T14:06:50Z</time>
      </trkpt>
      <trkpt lat="40.176850" lon="-5.273717">
        <ele>1446.0</ele>
        <time>2013-06-30T14:06:51Z</time>
      </trkpt>
      <trkpt lat="40.176883" lon="-5.273617">
        <ele>1447.0</ele>
        <time>2013-06-30T14:06:52Z</time>
      </trkpt>
      <trkpt lat="40.176900" lon="-5.273517">
        <ele>1449.0</ele>
        <time>2013-06-30T14:06:53Z</time>
      </trkpt>
      <trkpt lat="40.176900" lon="-5.273433">
        <ele>1450.0</ele>
        <time>2013-06-30T14:06:54Z</time>
      </trkpt>
      <trkpt lat="40.176900" lon="-5.273350">
        <ele>1452.0</ele>
        <time>2013-06-30T14:06:55Z</time>
      </trkpt>
      <trkpt lat="40.176867" lon="-5.273267">
        <ele>1453.0</ele>
        <time>2013-06-30T14:06:56Z</time>
      </trkpt>
      <trkpt lat="40.176833" lon="-5.273183">
        <ele>1455.0</ele>
        <time>2013-06-30T14:06:57Z</time>
      </trkpt>
      <trkpt lat="40.176800" lon="-5.273117">
        <ele>1456.0</ele>
        <time>2013-06-30T14:06:58Z</time>
      </trkpt>
      <trkpt lat="40.176767" lon="-5.273050">
        <ele>1459.0</ele>
        <time>2013-06-30T14:06:59Z</time>
      </trkpt>
      <trkpt lat="40.176717" lon="-5.272983">
        <ele>1461.0</ele>
        <time>2013-06-30T14:07:00Z</time>
      </trkpt>
      <trkpt lat="40.176667" lon="-5.272933">
        <ele>1463.0</ele>
        <time>2013-06-30T14:07:01Z</time>
      </trkpt>
      <trkpt lat="40.176617" lon="-5.272900">
        <ele>1464.0</ele>
        <time>2013-06-30T14:07:02Z</time>
      </trkpt>
      <trkpt lat="40.176567" lon="-5.272867">
        <ele>1465.0</ele>
        <time>2013-06-30T14:07:03Z</time>
      </trkpt>
      <trkpt lat="40.176517" lon="-5.272833">
        <ele>1466.0</ele>
        <time>2013-06-30T14:07:04Z</time>
      </trkpt>
      <trkpt lat="40.176450" lon="-5.272817">
        <ele>1467.0</ele>
        <time>2013-06-30T14:07:05Z</time>
      </trkpt>
      <trkpt lat="40.176400" lon="-5.272817">
        <ele>1468.0</ele>
        <time>2013-06-30T14:07:06Z</time>
      </trkpt>
      <trkpt lat="40.176333" lon="-5.272833">
        <ele>1467.0</ele>
        <time>2013-06-30T14:07:07Z</time>
      </trkpt>
      <trkpt lat="40.176267" lon="-5.272883">
        <ele>1467.0</ele>
        <time>2013-06-30T14:07:08Z</time>
      </trkpt>
      <trkpt lat="40.176217" lon="-5.272933">
        <ele>1468.0</ele>
        <time>2013-06-30T14:07:09Z</time>
      </trkpt>
      <trkpt lat="40.176150" lon="-5.272983">
        <ele>1469.0</ele>
        <time>2013-06-30T14:07:10Z</time>
      </trkpt>
      <trkpt lat="40.176100" lon="-5.273033">
        <ele>1470.0</ele>
        <time>2013-06-30T14:07:11Z</time>
      </trkpt>
      <trkpt lat="40.176050" lon="-5.273083">
        <ele>1471.0</ele>
        <time>2013-06-30T14:07:12Z</time>
      </trkpt>
      <trkpt lat="40.176000" lon="-5.273150">
        <ele>1472.0</ele>
        <time>2013-06-30T14:07:13Z</time>
      </trkpt>
      <trkpt lat="40.175967" lon="-5.273217">
        <ele>1472.0</ele>
        <time>2013-06-30T14:07:14Z</time>
      </trkpt>
      <trkpt lat="40.175933" lon="-5.273317">
        <ele>1472.0</ele>
        <time>2013-06-30T14:07:15Z</time>
      </trkpt>
      <trkpt lat="40.175917" lon="-5.273433">
        <ele>1473.0</ele>
        <time>2013-06-30T14:07:16Z</time>
      </trkpt>
      <trkpt lat="40.175933" lon="-5.273533">
        <ele>1473.0</ele>
        <time>2013-06-30T14:07:17Z</time>
      </trkpt>
      <trkpt lat="40.175983" lon="-5.273650">
        <ele>1473.0</ele>
        <time>2013-06-30T14:07:18Z</time>
      </trkpt>
      <trkpt lat="40.176033" lon="-5.273733">
        <ele>1474.0</ele>
        <time>2013-06-30T14:07:19Z</time>
      </trkpt>
      <trkpt lat="40.176117" lon="-5.273817">
        <ele>1475.0</ele>
        <time>2013-06-30T14:07:20Z</time>
      </trkpt>
      <trkpt lat="40.176200" lon="-5.273883">
        <ele>1477.0</ele>
        <time>2013-06-30T14:07:21Z</time>
      </trkpt>
      <trkpt lat="40.176300" lon="-5.273917">
        <ele>1479.0</ele>
        <time>2013-06-30T14:07:22Z</time>
      </trkpt>
      <trkpt lat="40.176417" lon="-5.273933">
        <ele>1480.0</ele>
        <time>2013-06-30T14:07:23Z</time>
      </trkpt>
      <trkpt lat="40.176500" lon="-5.273900">
        <ele>1482.0</ele>
        <time>2013-06-30T14:07:24Z</time>
      </trkpt>
      <trkpt lat="40.176583" lon="-5.273833">
        <ele>1483.0</ele>
        <time>2013-06-30T14:07:25Z</time>
      </trkpt>
      <trkpt lat="40.176667" lon="-5.273767">
        <ele>1484.0</ele>
        <time>2013-06-30T14:07:26Z</time>
      </trkpt>
      <trkpt lat="40.176783" lon="-5.273617">
        <ele>1487.0</ele>
        <time>2013-06-30T14:07:28Z</time>
      </trkpt>
      <trkpt lat="40.176850" lon="-5.273533">
        <ele>1488.0</ele>
        <time>2013-06-30T14:07:29Z</time>
      </trkpt>
      <trkpt lat="40.176933" lon="-5.273333">
        <ele>1489.0</ele>
        <time>2013-06-30T14:07:31Z</time>
      </trkpt>
      <trkpt lat="40.176967" lon="-5.273233">
        <ele>1490.0</ele>
        <time>2013-06-30T14:07:32Z</time>
      </trkpt>
      <trkpt lat="40.177000" lon="-5.273117">
        <ele>1491.0</ele>
        <time>2013-06-30T14:07:33Z</time>
      </trkpt>
      <trkpt lat="40.177017" lon="-5.272917">
        <ele>1494.0</ele>
        <time>2013-06-30T14:07:35Z</time>
      </trkpt>
      <trkpt lat="40.177017" lon="-5.272817">
        <ele>1494.0</ele>
        <time>2013-06-30T14:07:36Z</time>
      </trkpt>
      <trkpt lat="40.177000" lon="-5.272717">
        <ele>1493.0</ele>
        <time>2013-06-30T14:07:37Z</time>
      </trkpt>
      <trkpt lat="40.176983" lon="-5.272633">
        <ele>1493.0</ele>
        <time>2013-06-30T14:07:38Z</time>
      </trkpt>
      <trkpt lat="40.176950" lon="-5.272533">
        <ele>1492.0</ele>
        <time>2013-06-30T14:07:39Z</time>
      </trkpt>
      <trkpt lat="40.176917" lon="-5.272483">
        <ele>1491.0</ele>
        <time>2013-06-30T14:07:40Z</time>
      </trkpt>
      <trkpt lat="40.176867" lon="-5.272433">
        <ele>1490.0</ele>
        <time>2013-06-30T14:07:41Z</time>
      </trkpt>
      <trkpt lat="40.176817" lon="-5.272383">
        <ele>1490.0</ele>
        <time>2013-06-30T14:07:42Z</time>
      </trkpt>
      <trkpt lat="40.176767" lon="-5.272367">
        <ele>1491.0</ele>
        <time>2013-06-30T14:07:43Z</time>
      </trkpt>
      <trkpt lat="40.176733" lon="-5.272333">
        <ele>1491.0</ele>
        <time>2013-06-30T14:07:44Z</time>
      </trkpt>
      <trkpt lat="40.176683" lon="-5.272317">
        <ele>1491.0</ele>
        <time>2013-06-30T14:07:45Z</time>
      </trkpt>
      <trkpt lat="40.176617" lon="-5.272317">
        <ele>1491.0</ele>
        <time>2013-06-30T14:07:46Z</time>
      </trkpt>
      <trkpt lat="40.176567" lon="-5.272333">
        <ele>1491.0</ele>
        <time>2013-06-30T14:07:47Z</time>
      </trkpt>
      <trkpt lat="40.176500" lon="-5.272383">
        <ele>1491.0</ele>
        <time>2013-06-30T14:07:48Z</time>
      </trkpt>
      <trkpt lat="40.176450" lon="-5.272433">
        <ele>1491.0</ele>
        <time>2013-06-30T14:07:49Z</time>
      </trkpt>
      <trkpt lat="40.176417" lon="-5.272500">
        <ele>1492.0</ele>
        <time>2013-06-30T14:07:50Z</time>
      </trkpt>
      <trkpt lat="40.176383" lon="-5.272567">
        <ele>1493.0</ele>
        <time>2013-06-30T14:07:51Z</time>
      </trkpt>
      <trkpt lat="40.176350" lon="-5.272650">
        <ele>1493.0</ele>
        <time>2013-06-30T14:07:52Z</time>
      </trkpt>
      <trkpt lat="40.176317" lon="-5.272733">
        <ele>1493.0</ele>
        <time>2013-06-30T14:07:53Z</time>
      </trkpt>
      <trkpt lat="40.176283" lon="-5.272833">
        <ele>1493.0</ele>
        <time>2013-06-30T14:07:54Z</time>
      </trkpt>
      <trkpt lat="40.176250" lon="-5.272933">
        <ele>1492.0</ele>
        <time>2013-06-30T14:07:55Z</time>
      </trkpt>
      <trkpt lat="40.176233" lon="-5.273017">
        <ele>1492.0</ele>
        <time>2013-06-30T14:07:56Z</time>
      </trkpt>
      <trkpt lat="40.176200" lon="-5.273117">
        <ele>1493.0</ele>
        <time>2013-06-30T14:07:57Z</time>
      </trkpt>
      <trkpt lat="40.176167" lon="-5.273200">
        <ele>1493.0</ele>
        <time>2013-06-30T14:07:58Z</time>
      </trkpt>
      <trkpt lat="40.176133" lon="-5.273283">
        <ele>1493.0</ele>
        <time>2013-06-30T14:07:59Z</time>
      </trkpt>
      <trkpt lat="40.176100" lon="-5.273350">
        <ele>1492.0</ele>
        <time>2013-06-30T14:08:00Z</time>
      </trkpt>
      <trkpt lat="40.176067" lon="-5.273433">
        <ele>1492.0</ele>
        <time>2013-06-30T14:08:01Z</time>
      </trkpt>
      <trkpt lat="40.176050" lon="-5.273533">
        <ele>1492.0</ele>
        <time>2013-06-30T14:08:02Z</time>
      </trkpt>
      <trkpt lat="40.176017" lon="-5.273617">
        <ele>1491.0</ele>
        <time>2013-06-30T14:08:03Z</time>
      </trkpt>
      <trkpt lat="40.175983" lon="-5.273717">
        <ele>1491.0</ele>
        <time>2013-06-30T14:08:04Z</time>
      </trkpt>
      <trkpt lat="40.175967" lon="-5.273817">
        <ele>1491.0</ele>
        <time>2013-06-30T14:08:05Z</time>
      </trkpt>
      <trkpt lat="40.175933" lon="-5.273917">
        <ele>1491.0</ele>
        <time>2013-06-30T14:08:06Z</time>
      </trkpt>
      <trkpt lat="40.175900" lon="-5.274017">
        <ele>1490.0</ele>
        <time>2013-06-30T14:08:07Z</time>
      </trkpt>
      <trkpt lat="40.175883" lon="-5.274100">
        <ele>1491.0</ele>
        <time>2013-06-30T14:08:08Z</time>
      </trkpt>
      <trkpt lat="40.175850" lon="-5.274183">
        <ele>1490.0</ele>
        <time>2013-06-30T14:08:09Z</time>
      </trkpt>
      <trkpt lat="40.175817" lon="-5.274267">
        <ele>1490.0</ele>
        <time>2013-06-30T14:08:10Z</time>
      </trkpt>
      <trkpt lat="40.175767" lon="-5.274367">
        <ele>1489.0</ele>
        <time>2013-06-30T14:08:11Z</time>
      </trkpt>
      <trkpt lat="40.175733" lon="-5.274450">
        <ele>1489.0</ele>
        <time>2013-06-30T14:08:12Z</time>
      </trkpt>
      <trkpt lat="40.175683" lon="-5.274533">
        <ele>1488.0</ele>
        <time>2013-06-30T14:08:13Z</time>
      </trkpt>
      <trkpt lat="40.175633" lon="-5.274617">
        <ele>1488.0</ele>
        <time>2013-06-30T14:08:14Z</time>
      </trkpt>
      <trkpt lat="40.175583" lon="-5.274683">
        <ele>1489.0</ele>
        <time>2013-06-30T14:08:15Z</time>
      </trkpt>
      <trkpt lat="40.175533" lon="-5.274767">
        <ele>1489.0</ele>
        <time>2013-06-30T14:08:16Z</time>
      </trkpt>
      <trkpt lat="40.175483" lon="-5.274833">
        <ele>1489.0</ele>
        <time>2013-06-30T14:08:17Z</time>
      </trkpt>
      <trkpt lat="40.175450" lon="-5.274900">
        <ele>1490.0</ele>
        <time>2013-06-30T14:08:18Z</time>
      </trkpt>
      <trkpt lat="40.175400" lon="-5.274950">
        <ele>1491.0</ele>
        <time>2013-06-30T14:08:19Z</time>
      </trkpt>
      <trkpt lat="40.175367" lon="-5.275017">
        <ele>1491.0</ele>
        <time>2013-06-30T14:08:20Z</time>
      </trkpt>
      <trkpt lat="40.175317" lon="-5.275083">
        <ele>1491.0</ele>
        <time>2013-06-30T14:08:21Z</time>
      </trkpt>
      <trkpt lat="40.175267" lon="-5.275167">
        <ele>1492.0</ele>
        <time>2013-06-30T14:08:22Z</time>
      </trkpt>
      <trkpt lat="40.175217" lon="-5.275233">
        <ele>1492.0</ele>
        <time>2013-06-30T14:08:23Z</time>
      </trkpt>
      <trkpt lat="40.175183" lon="-5.275300">
        <ele>1493.0</ele>
        <time>2013-06-30T14:08:24Z</time>
      </trkpt>
      <trkpt lat="40.175133" lon="-5.275383">
        <ele>1493.0</ele>
        <time>2013-06-30T14:08:25Z</time>
      </trkpt>
      <trkpt lat="40.175100" lon="-5.275450">
        <ele>1494.0</ele>
        <time>2013-06-30T14:08:26Z</time>
      </trkpt>
      <trkpt lat="40.175050" lon="-5.275533">
        <ele>1495.0</ele>
        <time>2013-06-30T14:08:27Z</time>
      </trkpt>
      <trkpt lat="40.175017" lon="-5.275600">
        <ele>1495.0</ele>
        <time>2013-06-30T14:08:28Z</time>
      </trkpt>
      <trkpt lat="40.174983" lon="-5.275667">
        <ele>1496.0</ele>
        <time>2013-06-30T14:08:29Z</time>
      </trkpt>
      <trkpt lat="40.174933" lon="-5.275733">
        <ele>1496.0</ele>
        <time>2013-06-30T14:08:30Z</time>
      </trkpt>
      <trkpt lat="40.174900" lon="-5.275800">
        <ele>1497.0</ele>
        <time>2013-06-30T14:08:31Z</time>
      </trkpt>
      <trkpt lat="40.174867" lon="-5.275883">
        <ele>1497.0</ele>
        <time>2013-06-30T14:08:32Z</time>
      </trkpt>
      <trkpt lat="40.174833" lon="-5.275950">
        <ele>1498.0</ele>
        <time>2013-06-30T14:08:33Z</time>
      </trkpt>
      <trkpt lat="40.174800" lon="-5.276017">
        <ele>1498.0</ele>
        <time>2013-06-30T14:08:34Z</time>
      </trkpt>
      <trkpt lat="40.174750" lon="-5.276083">
        <ele>1498.0</ele>
        <time>2013-06-30T14:08:35Z</time>
      </trkpt>
      <trkpt lat="40.174717" lon="-5.276150">
        <ele>1498.0</ele>
        <time>2013-06-30T14:08:36Z</time>
      </trkpt>
      <trkpt lat="40.174683" lon="-5.276217">
        <ele>1499.0</ele>
        <time>2013-06-30T14:08:37Z</time>
      </trkpt>
      <trkpt lat="40.174633" lon="-5.276300">
        <ele>1499.0</ele>
        <time>2013-06-30T14:08:38Z</time>
      </trkpt>
      <trkpt lat="40.174600" lon="-5.276367">
        <ele>1498.0</ele>
        <time>2013-06-30T14:08:39Z</time>
      </trkpt>
      <trkpt lat="40.174550" lon="-5.276450">
        <ele>1498.0</ele>
        <time>2013-06-30T14:08:40Z</time>
      </trkpt>
      <trkpt lat="40.174517" lon="-5.276517">
        <ele>1498.0</ele>
        <time>2013-06-30T14:08:41Z</time>
      </trkpt>
      <trkpt lat="40.174483" lon="-5.276600">
        <ele>1498.0</ele>
        <time>2013-06-30T14:08:42Z</time>
      </trkpt>
      <trkpt lat="40.174450" lon="-5.276683">
        <ele>1498.0</ele>
        <time>2013-06-30T14:08:43Z</time>
      </trkpt>
      <trkpt lat="40.174400" lon="-5.276767">
        <ele>1498.0</ele>
        <time>2013-06-30T14:08:44Z</time>
      </trkpt>
      <trkpt lat="40.174367" lon="-5.276833">
        <ele>1498.0</ele>
        <time>2013-06-30T14:08:45Z</time>
      </trkpt>
      <trkpt lat="40.174333" lon="-5.276917">
        <ele>1497.0</ele>
        <time>2013-06-30T14:08:46Z</time>
      </trkpt>
      <trkpt lat="40.174300" lon="-5.277017">
        <ele>1496.0</ele>
        <time>2013-06-30T14:08:47Z</time>
      </trkpt>
      <trkpt lat="40.174267" lon="-5.277117">
        <ele>1495.0</ele>
        <time>2013-06-30T14:08:48Z</time>
      </trkpt>
      <trkpt lat="40.174217" lon="-5.277200">
        <ele>1494.0</ele>
        <time>2013-06-30T14:08:49Z</time>
      </trkpt>
      <trkpt lat="40.174183" lon="-5.277300">
        <ele>1494.0</ele>
        <time>2013-06-30T14:08:50Z</time>
      </trkpt>
      <trkpt lat="40.174167" lon="-5.277400">
        <ele>1494.0</ele>
        <time>2013-06-30T14:08:51Z</time>
      </trkpt>
      <trkpt lat="40.174133" lon="-5.277500">
        <ele>1493.0</ele>
        <time>2013-06-30T14:08:52Z</time>
      </trkpt>
      <trkpt lat="40.174117" lon="-5.277600">
        <ele>1491.0</ele>
        <time>2013-06-30T14:08:53Z</time>
      </trkpt>
      <trkpt lat="40.174067" lon="-5.277700">
        <ele>1489.0</ele>
        <time>2013-06-30T14:08:54Z</time>
      </trkpt>
      <trkpt lat="40.174033" lon="-5.277817">
        <ele>1488.0</ele>
        <time>2013-06-30T14:08:55Z</time>
      </trkpt>
      <trkpt lat="40.174000" lon="-5.277917">
        <ele>1486.0</ele>
        <time>2013-06-30T14:08:56Z</time>
      </trkpt>
      <trkpt lat="40.173967" lon="-5.278017">
        <ele>1485.0</ele>
        <time>2013-06-30T14:08:57Z</time>
      </trkpt>
      <trkpt lat="40.173933" lon="-5.278100">
        <ele>1484.0</ele>
        <time>2013-06-30T14:08:58Z</time>
      </trkpt>
      <trkpt lat="40.173900" lon="-5.278200">
        <ele>1483.0</ele>
        <time>2013-06-30T14:08:59Z</time>
      </trkpt>
      <trkpt lat="40.173867" lon="-5.278300">
        <ele>1481.0</ele>
        <time>2013-06-30T14:09:00Z</time>
      </trkpt>
      <trkpt lat="40.173833" lon="-5.278400">
        <ele>1478.0</ele>
        <time>2013-06-30T14:09:01Z</time>
      </trkpt>
      <trkpt lat="40.173800" lon="-5.278517">
        <ele>1477.0</ele>
        <time>2013-06-30T14:09:02Z</time>
      </trkpt>
      <trkpt lat="40.173783" lon="-5.278617">
        <ele>1476.0</ele>
        <time>2013-06-30T14:09:03Z</time>
      </trkpt>
      <trkpt lat="40.173767" lon="-5.278717">
        <ele>1475.0</ele>
        <time>2013-06-30T14:09:04Z</time>
      </trkpt>
      <trkpt lat="40.173750" lon="-5.278817">
        <ele>1474.0</ele>
        <time>2013-06-30T14:09:05Z</time>
      </trkpt>
      <trkpt lat="40.173717" lon="-5.278917">
        <ele>1471.0</ele>
        <time>2013-06-30T14:09:06Z</time>
      </trkpt>
      <trkpt lat="40.173683" lon="-5.279033">
        <ele>1469.0</ele>
        <time>2013-06-30T14:09:07Z</time>
      </trkpt>
      <trkpt lat="40.173650" lon="-5.279150">
        <ele>1466.0</ele>
        <time>2013-06-30T14:09:08Z</time>
      </trkpt>
      <trkpt lat="40.173617" lon="-5.279267">
        <ele>1464.0</ele>
        <time>2013-06-30T14:09:09Z</time>
      </trkpt>
      <trkpt lat="40.173583" lon="-5.279367">
        <ele>1462.0</ele>
        <time>2013-06-30T14:09:10Z</time>
      </trkpt>
      <trkpt lat="40.173550" lon="-5.279450">
        <ele>1460.0</ele>
        <time>2013-06-30T14:09:11Z</time>
      </trkpt>
      <trkpt lat="40.173517" lon="-5.279550">
        <ele>1459.0</ele>
        <time>2013-06-30T14:09:12Z</time>
      </trkpt>
      <trkpt lat="40.173467" lon="-5.279633">
        <ele>1456.0</ele>
        <time>2013-06-30T14:09:13Z</time>
      </trkpt>
      <trkpt lat="40.173417" lon="-5.279733">
        <ele>1454.0</ele>
        <time>2013-06-30T14:09:14Z</time>
      </trkpt>
      <trkpt lat="40.173367" lon="-5.279833">
        <ele>1452.0</ele>
        <time>2013-06-30T14:09:15Z</time>
      </trkpt>
      <trkpt lat="40.173317" lon="-5.279917">
        <ele>1450.0</ele>
        <time>2013-06-30T14:09:16Z</time>
      </trkpt>
      <trkpt lat="40.173250" lon="-5.280017">
        <ele>1448.0</ele>
        <time>2013-06-30T14:09:17Z</time>
      </trkpt>
      <trkpt lat="40.173200" lon="-5.280100">
        <ele>1445.0</ele>
        <time>2013-06-30T14:09:18Z</time>
      </trkpt>
      <trkpt lat="40.173133" lon="-5.280200">
        <ele>1443.0</ele>
        <time>2013-06-30T14:09:19Z</time>
      </trkpt>
      <trkpt lat="40.173067" lon="-5.280300">
        <ele>1441.0</ele>
        <time>2013-06-30T14:09:20Z</time>
      </trkpt>
      <trkpt lat="40.173017" lon="-5.280400">
        <ele>1439.0</ele>
        <time>2013-06-30T14:09:21Z</time>
      </trkpt>
      <trkpt lat="40.172967" lon="-5.280500">
        <ele>1438.0</ele>
        <time>2013-06-30T14:09:22Z</time>
      </trkpt>
      <trkpt lat="40.172917" lon="-5.280600">
        <ele>1437.0</ele>
        <time>2013-06-30T14:09:23Z</time>
      </trkpt>
      <trkpt lat="40.172867" lon="-5.280700">
        <ele>1437.0</ele>
        <time>2013-06-30T14:09:24Z</time>
      </trkpt>
      <trkpt lat="40.172833" lon="-5.280817">
        <ele>1436.0</ele>
        <time>2013-06-30T14:09:25Z</time>
      </trkpt>
      <trkpt lat="40.172800" lon="-5.280917">
        <ele>1434.0</ele>
        <time>2013-06-30T14:09:26Z</time>
      </trkpt>
      <trkpt lat="40.172750" lon="-5.281033">
        <ele>1431.0</ele>
        <time>2013-06-30T14:09:27Z</time>
      </trkpt>
      <trkpt lat="40.172700" lon="-5.281150">
        <ele>1428.0</ele>
        <time>2013-06-30T14:09:28Z</time>
      </trkpt>
      <trkpt lat="40.172650" lon="-5.281267">
        <ele>1426.0</ele>
        <time>2013-06-30T14:09:29Z</time>
      </trkpt>
      <trkpt lat="40.172600" lon="-5.281383">
        <ele>1423.0</ele>
        <time>2013-06-30T14:09:30Z</time>
      </trkpt>
      <trkpt lat="40.172550" lon="-5.281500">
        <ele>1421.0</ele>
        <time>2013-06-30T14:09:31Z</time>
      </trkpt>
      <trkpt lat="40.172500" lon="-5.281617">
        <ele>1420.0</ele>
        <time>2013-06-30T14:09:32Z</time>
      </trkpt>
      <trkpt lat="40.172467" lon="-5.281733">
        <ele>1419.0</ele>
        <time>2013-06-30T14:09:33Z</time>
      </trkpt>
      <trkpt lat="40.172433" lon="-5.281850">
        <ele>1417.0</ele>
        <time>2013-06-30T14:09:34Z</time>
      </trkpt>
      <trkpt lat="40.172400" lon="-5.281967">
        <ele>1416.0</ele>
        <time>2013-06-30T14:09:35Z</time>
      </trkpt>
      <trkpt lat="40.172383" lon="-5.282100">
        <ele>1415.0</ele>
        <time>2013-06-30T14:09:36Z</time>
      </trkpt>
      <trkpt lat="40.172367" lon="-5.282233">
        <ele>1414.0</ele>
        <time>2013-06-30T14:09:37Z</time>
      </trkpt>
      <trkpt lat="40.172333" lon="-5.282367">
        <ele>1413.0</ele>
        <time>2013-06-30T14:09:38Z</time>
      </trkpt>
      <trkpt lat="40.172300" lon="-5.282500">
        <ele>1413.0</ele>
        <time>2013-06-30T14:09:39Z</time>
      </trkpt>
      <trkpt lat="40.172283" lon="-5.282617">
        <ele>1415.0</ele>
        <time>2013-06-30T14:09:40Z</time>
      </trkpt>
      <trkpt lat="40.172267" lon="-5.282717">
        <ele>1417.0</ele>
        <time>2013-06-30T14:09:41Z</time>
      </trkpt>
      <trkpt lat="40.172267" lon="-5.282833">
        <ele>1419.0</ele>
        <time>2013-06-30T14:09:42Z</time>
      </trkpt>
      <trkpt lat="40.172250" lon="-5.282933">
        <ele>1420.0</ele>
        <time>2013-06-30T14:09:43Z</time>
      </trkpt>
      <trkpt lat="40.172250" lon="-5.283050">
        <ele>1422.0</ele>
        <time>2013-06-30T14:09:44Z</time>
      </trkpt>
      <trkpt lat="40.172233" lon="-5.283150">
        <ele>1424.0</ele>
        <time>2013-06-30T14:09:45Z</time>
      </trkpt>
      <trkpt lat="40.172217" lon="-5.283250">
        <ele>1426.0</ele>
        <time>2013-06-30T14:09:46Z</time>
      </trkpt>
      <trkpt lat="40.172200" lon="-5.283350">
        <ele>1428.0</ele>
        <time>2013-06-30T14:09:47Z</time>
      </trkpt>
      <trkpt lat="40.172183" lon="-5.283450">
        <ele>1430.0</ele>
        <time>2013-06-30T14:09:48Z</time>
      </trkpt>
      <trkpt lat="40.172183" lon="-5.283550">
        <ele>1433.0</ele>
        <time>2013-06-30T14:09:49Z</time>
      </trkpt>
      <trkpt lat="40.172167" lon="-5.283650">
        <ele>1434.0</ele>
        <time>2013-06-30T14:09:50Z</time>
      </trkpt>
      <trkpt lat="40.172167" lon="-5.283750">
        <ele>1436.0</ele>
        <time>2013-06-30T14:09:51Z</time>
      </trkpt>
      <trkpt lat="40.172167" lon="-5.283867">
        <ele>1437.0</ele>
        <time>2013-06-30T14:09:52Z</time>
      </trkpt>
      <trkpt lat="40.172200" lon="-5.283983">
        <ele>1438.0</ele>
        <time>2013-06-30T14:09:53Z</time>
      </trkpt>
      <trkpt lat="40.172250" lon="-5.284117">
        <ele>1438.0</ele>
        <time>2013-06-30T14:09:54Z</time>
      </trkpt>
      <trkpt lat="40.172350" lon="-5.284233">
        <ele>1439.0</ele>
        <time>2013-06-30T14:09:55Z</time>
      </trkpt>
      <trkpt lat="40.172583" lon="-5.284333">
        <ele>1440.0</ele>
        <time>2013-06-30T14:09:57Z</time>
      </trkpt>
      <trkpt lat="40.172717" lon="-5.284317">
        <ele>1441.0</ele>
        <time>2013-06-30T14:09:58Z</time>
      </trkpt>
      <trkpt lat="40.172817" lon="-5.284267">
        <ele>1442.0</ele>
        <time>2013-06-30T14:09:59Z</time>
      </trkpt>
      <trkpt lat="40.172900" lon="-5.284200">
        <ele>1445.0</ele>
        <time>2013-06-30T14:10:00Z</time>
      </trkpt>
      <trkpt lat="40.172933" lon="-5.284133">
        <ele>1448.0</ele>
        <time>2013-06-30T14:10:01Z</time>
      </trkpt>
      <trkpt lat="40.172967" lon="-5.284067">
        <ele>1450.0</ele>
        <time>2013-06-30T14:10:02Z</time>
      </trkpt>
      <trkpt lat="40.172983" lon="-5.284000">
        <ele>1451.0</ele>
        <time>2013-06-30T14:10:03Z</time>
      </trkpt>
      <trkpt lat="40.173017" lon="-5.283900">
        <ele>1452.0</ele>
        <time>2013-06-30T14:10:04Z</time>
      </trkpt>
      <trkpt lat="40.173033" lon="-5.283800">
        <ele>1452.0</ele>
        <time>2013-06-30T14:10:05Z</time>
      </trkpt>
      <trkpt lat="40.173050" lon="-5.283717">
        <ele>1453.0</ele>
        <time>2013-06-30T14:10:06Z</time>
      </trkpt>
      <trkpt lat="40.173033" lon="-5.283633">
        <ele>1455.0</ele>
        <time>2013-06-30T14:10:07Z</time>
      </trkpt>
      <trkpt lat="40.173017" lon="-5.283583">
        <ele>1457.0</ele>
        <time>2013-06-30T14:10:08Z</time>
      </trkpt>
      <trkpt lat="40.173000" lon="-5.283550">
        <ele>1458.0</ele>
        <time>2013-06-30T14:10:09Z</time>
      </trkpt>
      <trkpt lat="40.172967" lon="-5.283517">
        <ele>1459.0</ele>
        <time>2013-06-30T14:10:10Z</time>
      </trkpt>
      <trkpt lat="40.172917" lon="-5.283483">
        <ele>1459.0</ele>
        <time>2013-06-30T14:10:11Z</time>
      </trkpt>
      <trkpt lat="40.172867" lon="-5.283467">
        <ele>1459.0</ele>
        <time>2013-06-30T14:10:12Z</time>
      </trkpt>
      <trkpt lat="40.172817" lon="-5.283433">
        <ele>1460.0</ele>
        <time>2013-06-30T14:10:13Z</time>
      </trkpt>
      <trkpt lat="40.172767" lon="-5.283433">
        <ele>1461.0</ele>
        <time>2013-06-30T14:10:14Z</time>
      </trkpt>
      <trkpt lat="40.172717" lon="-5.283433">
        <ele>1462.0</ele>
        <time>2013-06-30T14:10:15Z</time>
      </trkpt>
      <trkpt lat="40.172667" lon="-5.283450">
        <ele>1463.0</ele>
        <time>2013-06-30T14:10:16Z</time>
      </trkpt>
      <trkpt lat="40.172600" lon="-5.283483">
        <ele>1463.0</ele>
        <time>2013-06-30T14:10:17Z</time>
      </trkpt>
      <trkpt lat="40.172533" lon="-5.283533">
        <ele>1463.0</ele>
        <time>2013-06-30T14:10:18Z</time>
      </trkpt>
      <trkpt lat="40.172467" lon="-5.283583">
        <ele>1465.0</ele>
        <time>2013-06-30T14:10:19Z</time>
      </trkpt>
      <trkpt lat="40.172417" lon="-5.283633">
        <ele>1467.0</ele>
        <time>2013-06-30T14:10:20Z</time>
      </trkpt>
      <trkpt lat="40.172367" lon="-5.283667">
        <ele>1470.0</ele>
        <time>2013-06-30T14:10:21Z</time>
      </trkpt>
      <trkpt lat="40.172317" lon="-5.283733">
        <ele>1473.0</ele>
        <time>2013-06-30T14:10:22Z</time>
      </trkpt>
      <trkpt lat="40.172267" lon="-5.283800">
        <ele>1475.0</ele>
        <time>2013-06-30T14:10:23Z</time>
      </trkpt>
      <trkpt lat="40.172233" lon="-5.283917">
        <ele>1477.0</ele>
        <time>2013-06-30T14:10:24Z</time>
      </trkpt>
      <trkpt lat="40.172217" lon="-5.284033">
        <ele>1478.0</ele>
        <time>2013-06-30T14:10:25Z</time>
      </trkpt>
      <trkpt lat="40.172233" lon="-5.284167">
        <ele>1480.0</ele>
        <time>2013-06-30T14:10:26Z</time>
      </trkpt>
      <trkpt lat="40.172267" lon="-5.284300">
        <ele>1482.0</ele>
        <time>2013-06-30T14:10:27Z</time>
      </trkpt>
      <trkpt lat="40.172300" lon="-5.284433">
        <ele>1485.0</ele>
        <time>2013-06-30T14:10:28Z</time>
      </trkpt>
      <trkpt lat="40.172333" lon="-5.284550">
        <ele>1488.0</ele>
        <time>2013-06-30T14:10:29Z</time>
      </trkpt>
      <trkpt lat="40.172350" lon="-5.284667">
        <ele>1491.0</ele>
        <time>2013-06-30T14:10:30Z</time>
      </trkpt>
      <trkpt lat="40.172367" lon="-5.284783">
        <ele>1493.0</ele>
        <time>2013-06-30T14:10:31Z</time>
      </trkpt>
      <trkpt lat="40.172400" lon="-5.284917">
        <ele>1495.0</ele>
        <time>2013-06-30T14:10:32Z</time>
      </trkpt>
      <trkpt lat="40.172417" lon="-5.285033">
        <ele>1498.0</ele>
        <time>2013-06-30T14:10:33Z</time>
      </trkpt>
      <trkpt lat="40.172417" lon="-5.285150">
        <ele>1500.0</ele>
        <time>2013-06-30T14:10:34Z</time>
      </trkpt>
      <trkpt lat="40.172400" lon="-5.285267">
        <ele>1503.0</ele>
        <time>2013-06-30T14:10:35Z</time>
      </trkpt>
      <trkpt lat="40.172383" lon="-5.285367">
        <ele>1505.0</ele>
        <time>2013-06-30T14:10:36Z</time>
      </trkpt>
      <trkpt lat="40.172350" lon="-5.285467">
        <ele>1507.0</ele>
        <time>2013-06-30T14:10:37Z</time>
      </trkpt>
      <trkpt lat="40.172300" lon="-5.285550">
        <ele>1510.0</ele>
        <time>2013-06-30T14:10:38Z</time>
      </trkpt>
      <trkpt lat="40.172267" lon="-5.285617">
        <ele>1513.0</ele>
        <time>2013-06-30T14:10:39Z</time>
      </trkpt>
      <trkpt lat="40.172217" lon="-5.285667">
        <ele>1516.0</ele>
        <time>2013-06-30T14:10:40Z</time>
      </trkpt>
      <trkpt lat="40.172167" lon="-5.285700">
        <ele>1518.0</ele>
        <time>2013-06-30T14:10:41Z</time>
      </trkpt>
      <trkpt lat="40.172117" lon="-5.285700">
        <ele>1521.0</ele>
        <time>2013-06-30T14:10:42Z</time>
      </trkpt>
      <trkpt lat="40.172067" lon="-5.285683">
        <ele>1523.0</ele>
        <time>2013-06-30T14:10:43Z</time>
      </trkpt>
      <trkpt lat="40.172033" lon="-5.285650">
        <ele>1525.0</ele>
        <time>2013-06-30T14:10:44Z</time>
      </trkpt>
      <trkpt lat="40.172000" lon="-5.285633">
        <ele>1528.0</ele>
        <time>2013-06-30T14:10:45Z</time>
      </trkpt>
      <trkpt lat="40.171950" lon="-5.285633">
        <ele>1530.0</ele>
        <time>2013-06-30T14:10:46Z</time>
      </trkpt>
      <trkpt lat="40.171900" lon="-5.285650">
        <ele>1531.0</ele>
        <time>2013-06-30T14:10:47Z</time>
      </trkpt>
      <trkpt lat="40.171850" lon="-5.285667">
        <ele>1532.0</ele>
        <time>2013-06-30T14:10:48Z</time>
      </trkpt>
      <trkpt lat="40.171783" lon="-5.285700">
        <ele>1533.0</ele>
        <time>2013-06-30T14:10:49Z</time>
      </trkpt>
      <trkpt lat="40.171750" lon="-5.285750">
        <ele>1535.0</ele>
        <time>2013-06-30T14:10:50Z</time>
      </trkpt>
      <trkpt lat="40.171717" lon="-5.285850">
        <ele>1536.0</ele>
        <time>2013-06-30T14:10:51Z</time>
      </trkpt>
      <trkpt lat="40.171717" lon="-5.285983">
        <ele>1537.0</ele>
        <time>2013-06-30T14:10:52Z</time>
      </trkpt>
      <trkpt lat="40.171733" lon="-5.286117">
        <ele>1537.0</ele>
        <time>2013-06-30T14:10:53Z</time>
      </trkpt>
      <trkpt lat="40.171783" lon="-5.286250">
        <ele>1539.0</ele>
        <time>2013-06-30T14:10:54Z</time>
      </trkpt>
      <trkpt lat="40.171850" lon="-5.286350">
        <ele>1540.0</ele>
        <time>2013-06-30T14:10:55Z</time>
      </trkpt>
      <trkpt lat="40.171933" lon="-5.286450">
        <ele>1542.0</ele>
        <time>2013-06-30T14:10:56Z</time>
      </trkpt>
      <trkpt lat="40.172033" lon="-5.286500">
        <ele>1544.0</ele>
        <time>2013-06-30T14:10:57Z</time>
      </trkpt>
      <trkpt lat="40.172133" lon="-5.286550">
        <ele>1546.0</ele>
        <time>2013-06-30T14:10:58Z</time>
      </trkpt>
      <trkpt lat="40.172250" lon="-5.286550">
        <ele>1549.0</ele>
        <time>2013-06-30T14:10:59Z</time>
      </trkpt>
      <trkpt lat="40.172333" lon="-5.286517">
        <ele>1552.0</ele>
        <time>2013-06-30T14:11:00Z</time>
      </trkpt>
      <trkpt lat="40.172400" lon="-5.286467">
        <ele>1555.0</ele>
        <time>2013-06-30T14:11:01Z</time>
      </trkpt>
      <trkpt lat="40.172450" lon="-5.286383">
        <ele>1559.0</ele>
        <time>2013-06-30T14:11:02Z</time>
      </trkpt>
      <trkpt lat="40.172483" lon="-5.286317">
        <ele>1562.0</ele>
        <time>2013-06-30T14:11:03Z</time>
      </trkpt>
      <trkpt lat="40.172500" lon="-5.286250">
        <ele>1565.0</ele>
        <time>2013-06-30T14:11:04Z</time>
      </trkpt>
      <trkpt lat="40.172500" lon="-5.286167">
        <ele>1568.0</ele>
        <time>2013-06-30T14:11:05Z</time>
      </trkpt>
      <trkpt lat="40.172483" lon="-5.286100">
        <ele>1570.0</ele>
        <time>2013-06-30T14:11:06Z</time>
      </trkpt>
      <trkpt lat="40.172450" lon="-5.286050">
        <ele>1573.0</ele>
        <time>2013-06-30T14:11:07Z</time>
      </trkpt>
      <trkpt lat="40.172417" lon="-5.286000">
        <ele>1575.0</ele>
        <time>2013-06-30T14:11:08Z</time>
      </trkpt>
      <trkpt lat="40.172400" lon="-5.285933">
        <ele>1577.0</ele>
        <time>2013-06-30T14:11:09Z</time>
      </trkpt>
      <trkpt lat="40.172367" lon="-5.285883">
        <ele>1579.0</ele>
        <time>2013-06-30T14:11:10Z</time>
      </trkpt>
      <trkpt lat="40.172333" lon="-5.285833">
        <ele>1581.0</ele>
        <time>2013-06-30T14:11:11Z</time>
      </trkpt>
      <trkpt lat="40.172283" lon="-5.285783">
        <ele>1582.0</ele>
        <time>2013-06-30T14:11:12Z</time>
      </trkpt>
      <trkpt lat="40.172233" lon="-5.285750">
        <ele>1584.0</ele>
        <time>2013-06-30T14:11:13Z</time>
      </trkpt>
      <trkpt lat="40.172200" lon="-5.285700">
        <ele>1586.0</ele>
        <time>2013-06-30T14:11:14Z</time>
      </trkpt>
      <trkpt lat="40.172167" lon="-5.285667">
        <ele>1589.0</ele>
        <time>2013-06-30T14:11:15Z</time>
      </trkpt>
      <trkpt lat="40.172117" lon="-5.285617">
        <ele>1590.0</ele>
        <time>2013-06-30T14:11:16Z</time>
      </trkpt>
      <trkpt lat="40.172050" lon="-5.285583">
        <ele>1592.0</ele>
        <time>2013-06-30T14:11:17Z</time>
      </trkpt>
      <trkpt lat="40.172000" lon="-5.285550">
        <ele>1594.0</ele>
        <time>2013-06-30T14:11:18Z</time>
      </trkpt>
      <trkpt lat="40.171933" lon="-5.285550">
        <ele>1599.0</ele>
        <time>2013-06-30T14:11:19Z</time>
      </trkpt>
      <trkpt lat="40.171900" lon="-5.285550">
        <ele>1603.0</ele>
        <time>2013-06-30T14:11:20Z</time>
      </trkpt>
      <trkpt lat="40.171850" lon="-5.285550">
        <ele>1606.0</ele>
        <time>2013-06-30T14:11:21Z</time>
      </trkpt>
      <trkpt lat="40.171817" lon="-5.285550">
        <ele>1608.0</ele>
        <time>2013-06-30T14:11:22Z</time>
      </trkpt>
      <trkpt lat="40.171767" lon="-5.285533">
        <ele>1610.0</ele>
        <time>2013-06-30T14:11:23Z</time>
      </trkpt>
      <trkpt lat="40.171717" lon="-5.285533">
        <ele>1612.0</ele>
        <time>2013-06-30T14:11:24Z</time>
      </trkpt>
      <trkpt lat="40.171650" lon="-5.285533">
        <ele>1611.0</ele>
        <time>2013-06-30T14:11:25Z</time>
      </trkpt>
      <trkpt lat="40.171583" lon="-5.285550">
        <ele>1612.0</ele>
        <time>2013-06-30T14:11:26Z</time>
      </trkpt>
      <trkpt lat="40.171533" lon="-5.285583">
        <ele>1614.0</ele>
        <time>2013-06-30T14:11:27Z</time>
      </trkpt>
      <trkpt lat="40.171483" lon="-5.285633">
        <ele>1615.0</ele>
        <time>2013-06-30T14:11:28Z</time>
      </trkpt>
      <trkpt lat="40.171450" lon="-5.285700">
        <ele>1616.0</ele>
        <time>2013-06-30T14:11:29Z</time>
      </trkpt>
      <trkpt lat="40.171400" lon="-5.285783">
        <ele>1616.0</ele>
        <time>2013-06-30T14:11:30Z</time>
      </trkpt>
      <trkpt lat="40.171367" lon="-5.285900">
        <ele>1616.0</ele>
        <time>2013-06-30T14:11:31Z</time>
      </trkpt>
      <trkpt lat="40.171350" lon="-5.286017">
        <ele>1617.0</ele>
        <time>2013-06-30T14:11:32Z</time>
      </trkpt>
      <trkpt lat="40.171383" lon="-5.286133">
        <ele>1618.0</ele>
        <time>2013-06-30T14:11:33Z</time>
      </trkpt>
      <trkpt lat="40.171517" lon="-5.286350">
        <ele>1618.0</ele>
        <time>2013-06-30T14:11:35Z</time>
      </trkpt>
      <trkpt lat="40.171683" lon="-5.286533">
        <ele>1618.0</ele>
        <time>2013-06-30T14:11:37Z</time>
      </trkpt>
      <trkpt lat="40.171767" lon="-5.286617">
        <ele>1619.0</ele>
        <time>2013-06-30T14:11:38Z</time>
      </trkpt>
      <trkpt lat="40.171950" lon="-5.286700">
        <ele>1623.0</ele>
        <time>2013-06-30T14:11:40Z</time>
      </trkpt>
      <trkpt lat="40.172050" lon="-5.286683">
        <ele>1624.0</ele>
        <time>2013-06-30T14:11:41Z</time>
      </trkpt>
      <trkpt lat="40.172133" lon="-5.286650">
        <ele>1625.0</ele>
        <time>2013-06-30T14:11:42Z</time>
      </trkpt>
      <trkpt lat="40.172233" lon="-5.286533">
        <ele>1631.0</ele>
        <time>2013-06-30T14:11:44Z</time>
      </trkpt>
      <trkpt lat="40.172267" lon="-5.286483">
        <ele>1634.0</ele>
        <time>2013-06-30T14:11:45Z</time>
      </trkpt>
      <trkpt lat="40.172300" lon="-5.286433">
        <ele>1638.0</ele>
        <time>2013-06-30T14:11:46Z</time>
      </trkpt>
      <trkpt lat="40.172300" lon="-5.286350">
        <ele>1640.0</ele>
        <time>2013-06-30T14:11:47Z</time>
      </trkpt>
      <trkpt lat="40.172300" lon="-5.286283">
        <ele>1642.0</ele>
        <time>2013-06-30T14:11:48Z</time>
      </trkpt>
      <trkpt lat="40.172283" lon="-5.286183">
        <ele>1643.0</ele>
        <time>2013-06-30T14:11:49Z</time>
      </trkpt>
      <trkpt lat="40.172267" lon="-5.286100">
        <ele>1644.0</ele>
        <time>2013-06-30T14:11:50Z</time>
      </trkpt>
      <trkpt lat="40.172233" lon="-5.286033">
        <ele>1646.0</ele>
        <time>2013-06-30T14:11:51Z</time>
      </trkpt>
      <trkpt lat="40.172217" lon="-5.285983">
        <ele>1649.0</ele>
        <time>2013-06-30T14:11:52Z</time>
      </trkpt>
      <trkpt lat="40.172183" lon="-5.285950">
        <ele>1653.0</ele>
        <time>2013-06-30T14:11:53Z</time>
      </trkpt>
      <trkpt lat="40.172167" lon="-5.285900">
        <ele>1655.0</ele>
        <time>2013-06-30T14:11:54Z</time>
      </trkpt>
      <trkpt lat="40.172133" lon="-5.285850">
        <ele>1657.0</ele>
        <time>2013-06-30T14:11:55Z</time>
      </trkpt>
      <trkpt lat="40.172083" lon="-5.285783">
        <ele>1658.0</ele>
        <time>2013-06-30T14:11:56Z</time>
      </trkpt>
      <trkpt lat="40.172050" lon="-5.285733">
        <ele>1659.0</ele>
        <time>2013-06-30T14:11:57Z</time>
      </trkpt>
      <trkpt lat="40.172017" lon="-5.285667">
        <ele>1661.0</ele>
        <time>2013-06-30T14:11:58Z</time>
      </trkpt>
      <trkpt lat="40.172000" lon="-5.285600">
        <ele>1663.0</ele>
        <time>2013-06-30T14:11:59Z</time>
      </trkpt>
      <trkpt lat="40.171983" lon="-5.285550">
        <ele>1665.0</ele>
        <time>2013-06-30T14:12:00Z</time>
      </trkpt>
      <trkpt lat="40.171967" lon="-5.285517">
        <ele>1669.0</ele>
        <time>2013-06-30T14:12:01Z</time>
      </trkpt>
      <trkpt lat="40.171933" lon="-5.285483">
        <ele>1672.0</ele>
        <time>2013-06-30T14:12:02Z</time>
      </trkpt>
      <trkpt lat="40.171900" lon="-5.285433">
        <ele>1674.0</ele>
        <time>2013-06-30T14:12:03Z</time>
      </trkpt>
      <trkpt lat="40.171850" lon="-5.285383">
        <ele>1677.0</ele>
        <time>2013-06-30T14:12:04Z</time>
      </trkpt>
      <trkpt lat="40.171817" lon="-5.285333">
        <ele>1680.0</ele>
        <time>2013-06-30T14:12:05Z</time>
      </trkpt>
      <trkpt lat="40.171783" lon="-5.285300">
        <ele>1684.0</ele>
        <time>2013-06-30T14:12:06Z</time>
      </trkpt>
      <trkpt lat="40.171750" lon="-5.285267">
        <ele>1688.0</ele>
        <time>2013-06-30T14:12:07Z</time>
      </trkpt>
      <trkpt lat="40.171717" lon="-5.285233">
        <ele>1690.0</ele>
        <time>2013-06-30T14:12:08Z</time>
      </trkpt>
      <trkpt lat="40.171667" lon="-5.285183">
        <ele>1692.0</ele>
        <time>2013-06-30T14:12:09Z</time>
      </trkpt>
      <trkpt lat="40.171617" lon="-5.285117">
        <ele>1693.0</ele>
        <time>2013-06-30T14:12:10Z</time>
      </trkpt>
      <trkpt lat="40.171583" lon="-5.285083">
        <ele>1693.0</ele>
        <time>2013-06-30T14:12:11Z</time>
      </trkpt>
      <trkpt lat="40.171550" lon="-5.285067">
        <ele>1693.0</ele>
        <time>2013-06-30T14:12:12Z</time>
      </trkpt>
      <trkpt lat="40.171517" lon="-5.285050">
        <ele>1693.0</ele>
        <time>2013-06-30T14:12:13Z</time>
      </trkpt>
      <trkpt lat="40.171467" lon="-5.285050">
        <ele>1693.0</ele>
        <time>2013-06-30T14:12:14Z</time>
      </trkpt>
      <trkpt lat="40.171400" lon="-5.285067">
        <ele>1693.0</ele>
        <time>2013-06-30T14:12:15Z</time>
      </trkpt>
      <trkpt lat="40.171350" lon="-5.285100">
        <ele>1692.0</ele>
        <time>2013-06-30T14:12:16Z</time>
      </trkpt>
      <trkpt lat="40.171300" lon="-5.285150">
        <ele>1692.0</ele>
        <time>2013-06-30T14:12:17Z</time>
      </trkpt>
      <trkpt lat="40.171267" lon="-5.285250">
        <ele>1692.0</ele>
        <time>2013-06-30T14:12:18Z</time>
      </trkpt>
      <trkpt lat="40.171267" lon="-5.285367">
        <ele>1691.0</ele>
        <time>2013-06-30T14:12:19Z</time>
      </trkpt>
      <trkpt lat="40.171267" lon="-5.285500">
        <ele>1691.0</ele>
        <time>2013-06-30T14:12:20Z</time>
      </trkpt>
      <trkpt lat="40.171283" lon="-5.285617">
        <ele>1691.0</ele>
        <time>2013-06-30T14:12:21Z</time>
      </trkpt>
      <trkpt lat="40.171333" lon="-5.285717">
        <ele>1691.0</ele>
        <time>2013-06-30T14:12:22Z</time>
      </trkpt>
      <trkpt lat="40.171383" lon="-5.285800">
        <ele>1691.0</ele>
        <time>2013-06-30T14:12:23Z</time>
      </trkpt>
      <trkpt lat="40.171450" lon="-5.285900">
        <ele>1691.0</ele>
        <time>2013-06-30T14:12:24Z</time>
      </trkpt>
      <trkpt lat="40.171533" lon="-5.285983">
        <ele>1690.0</ele>
        <time>2013-06-30T14:12:25Z</time>
      </trkpt>
      <trkpt lat="40.171633" lon="-5.286067">
        <ele>1689.0</ele>
        <time>2013-06-30T14:12:26Z</time>
      </trkpt>
      <trkpt lat="40.171733" lon="-5.286117">
        <ele>1688.0</ele>
        <time>2013-06-30T14:12:27Z</time>
      </trkpt>
      <trkpt lat="40.171833" lon="-5.286150">
        <ele>1688.0</ele>
        <time>2013-06-30T14:12:28Z</time>
      </trkpt>
      <trkpt lat="40.171933" lon="-5.286167">
        <ele>1688.0</ele>
        <time>2013-06-30T14:12:29Z</time>
      </trkpt>
      <trkpt lat="40.172033" lon="-5.286167">
        <ele>1687.0</ele>
        <time>2013-06-30T14:12:30Z</time>
      </trkpt>
      <trkpt lat="40.172267" lon="-5.286133">
        <ele>1684.0</ele>
        <time>2013-06-30T14:12:32Z</time>
      </trkpt>
      <trkpt lat="40.172550" lon="-5.286083">
        <ele>1685.0</ele>
        <time>2013-06-30T14:12:35Z</time>
      </trkpt>
      <trkpt lat="40.172617" lon="-5.286017">
        <ele>1685.0</ele>
        <time>2013-06-30T14:12:36Z</time>
      </trkpt>
      <trkpt lat="40.172667" lon="-5.285917">
        <ele>1686.0</ele>
        <time>2013-06-30T14:12:37Z</time>
      </trkpt>
      <trkpt lat="40.172733" lon="-5.285833">
        <ele>1688.0</ele>
        <time>2013-06-30T14:12:38Z</time>
      </trkpt>
      <trkpt lat="40.172783" lon="-5.285767">
        <ele>1692.0</ele>
        <time>2013-06-30T14:12:39Z</time>
      </trkpt>
      <trkpt lat="40.172800" lon="-5.285717">
        <ele>1696.0</ele>
        <time>2013-06-30T14:12:40Z</time>
      </trkpt>
      <trkpt lat="40.172817" lon="-5.285650">
        <ele>1700.0</ele>
        <time>2013-06-30T14:12:41Z</time>
      </trkpt>
      <trkpt lat="40.172833" lon="-5.285583">
        <ele>1703.0</ele>
        <time>2013-06-30T14:12:42Z</time>
      </trkpt>
      <trkpt lat="40.172850" lon="-5.285500">
        <ele>1705.0</ele>
        <time>2013-06-30T14:12:43Z</time>
      </trkpt>
      <trkpt lat="40.172867" lon="-5.285433">
        <ele>1708.0</ele>
        <time>2013-06-30T14:12:44Z</time>
      </trkpt>
      <trkpt lat="40.172883" lon="-5.285367">
        <ele>1711.0</ele>
        <time>2013-06-30T14:12:45Z</time>
      </trkpt>
      <trkpt lat="40.172867" lon="-5.285250">
        <ele>1717.0</ele>
        <time>2013-06-30T14:12:47Z</time>
      </trkpt>
      <trkpt lat="40.172867" lon="-5.285183">
        <ele>1720.0</ele>
        <time>2013-06-30T14:12:48Z</time>
      </trkpt>
      <trkpt lat="40.172867" lon="-5.285100">
        <ele>1722.0</ele>
        <time>2013-06-30T14:12:49Z</time>
      </trkpt>
      <trkpt lat="40.172850" lon="-5.285017">
        <ele>1725.0</ele>
        <time>2013-06-30T14:12:50Z</time>
      </trkpt>
      <trkpt lat="40.172850" lon="-5.284950">
        <ele>1729.0</ele>
        <time>2013-06-30T14:12:51Z</time>
      </trkpt>
      <trkpt lat="40.172817" lon="-5.284900">
        <ele>1732.0</ele>
        <time>2013-06-30T14:12:52Z</time>
      </trkpt>
      <trkpt lat="40.172783" lon="-5.284867">
        <ele>1734.0</ele>
        <time>2013-06-30T14:12:53Z</time>
      </trkpt>
      <trkpt lat="40.172733" lon="-5.284833">
        <ele>1736.0</ele>
        <time>2013-06-30T14:12:54Z</time>
      </trkpt>
      <trkpt lat="40.172667" lon="-5.284850">
        <ele>1737.0</ele>
        <time>2013-06-30T14:12:55Z</time>
      </trkpt>
      <trkpt lat="40.172600" lon="-5.284883">
        <ele>1739.0</ele>
        <time>2013-06-30T14:12:56Z</time>
      </trkpt>
      <trkpt lat="40.172533" lon="-5.284950">
        <ele>1741.0</ele>
        <time>2013-06-30T14:12:57Z</time>
      </trkpt>
      <trkpt lat="40.172500" lon="-5.285050">
        <ele>1744.0</ele>
        <time>2013-06-30T14:12:58Z</time>
      </trkpt>
      <trkpt lat="40.172450" lon="-5.285150">
        <ele>1747.0</ele>
        <time>2013-06-30T14:12:59Z</time>
      </trkpt>
      <trkpt lat="40.172450" lon="-5.285250">
        <ele>1750.0</ele>
        <time>2013-06-30T14:13:00Z</time>
      </trkpt>
      <trkpt lat="40.172433" lon="-5.285350">
        <ele>1753.0</ele>
        <time>2013-06-30T14:13:01Z</time>
      </trkpt>
      <trkpt lat="40.172433" lon="-5.285483">
        <ele>1755.0</ele>
        <time>2013-06-30T14:13:02Z</time>
      </trkpt>
      <trkpt lat="40.172467" lon="-5.285617">
        <ele>1757.0</ele>
        <time>2013-06-30T14:13:03Z</time>
      </trkpt>
      <trkpt lat="40.172500" lon="-5.285767">
        <ele>1760.0</ele>
        <time>2013-06-30T14:13:04Z</time>
      </trkpt>
      <trkpt lat="40.172567" lon="-5.285883">
        <ele>1762.0</ele>
        <time>2013-06-30T14:13:05Z</time>
      </trkpt>
      <trkpt lat="40.172650" lon="-5.285983">
        <ele>1765.0</ele>
        <time>2013-06-30T14:13:06Z</time>
      </trkpt>
      <trkpt lat="40.172733" lon="-5.286050">
        <ele>1768.0</ele>
        <time>2013-06-30T14:13:07Z</time>
      </trkpt>
      <trkpt lat="40.172833" lon="-5.286083">
        <ele>1769.0</ele>
        <time>2013-06-30T14:13:08Z</time>
      </trkpt>
      <trkpt lat="40.172933" lon="-5.286117">
        <ele>1770.0</ele>
        <time>2013-06-30T14:13:09Z</time>
      </trkpt>
      <trkpt lat="40.173050" lon="-5.286167">
        <ele>1770.0</ele>
        <time>2013-06-30T14:13:10Z</time>
      </trkpt>
      <trkpt lat="40.173150" lon="-5.286233">
        <ele>1771.0</ele>
        <time>2013-06-30T14:13:11Z</time>
      </trkpt>
      <trkpt lat="40.173250" lon="-5.286300">
        <ele>1771.0</ele>
        <time>2013-06-30T14:13:12Z</time>
      </trkpt>
      <trkpt lat="40.173350" lon="-5.286333">
        <ele>1771.0</ele>
        <time>2013-06-30T14:13:13Z</time>
      </trkpt>
      <trkpt lat="40.173583" lon="-5.286300">
        <ele>1776.0</ele>
        <time>2013-06-30T14:13:15Z</time>
      </trkpt>
      <trkpt lat="40.173667" lon="-5.286267">
        <ele>1781.0</ele>
        <time>2013-06-30T14:13:16Z</time>
      </trkpt>
      <trkpt lat="40.173733" lon="-5.286233">
        <ele>1786.0</ele>
        <time>2013-06-30T14:13:17Z</time>
      </trkpt>
      <trkpt lat="40.173783" lon="-5.286183">
        <ele>1789.0</ele>
        <time>2013-06-30T14:13:18Z</time>
      </trkpt>
      <trkpt lat="40.173833" lon="-5.286133">
        <ele>1792.0</ele>
        <time>2013-06-30T14:13:19Z</time>
      </trkpt>
      <trkpt lat="40.173883" lon="-5.286050">
        <ele>1794.0</ele>
        <time>2013-06-30T14:13:20Z</time>
      </trkpt>
      <trkpt lat="40.173933" lon="-5.285950">
        <ele>1796.0</ele>
        <time>2013-06-30T14:13:21Z</time>
      </trkpt>
      <trkpt lat="40.173967" lon="-5.285833">
        <ele>1799.0</ele>
        <time>2013-06-30T14:13:22Z</time>
      </trkpt>
      <trkpt lat="40.173983" lon="-5.285733">
        <ele>1803.0</ele>
        <time>2013-06-30T14:13:23Z</time>
      </trkpt>
      <trkpt lat="40.173983" lon="-5.285650">
        <ele>1807.0</ele>
        <time>2013-06-30T14:13:24Z</time>
      </trkpt>
      <trkpt lat="40.173983" lon="-5.285550">
        <ele>1811.0</ele>
        <time>2013-06-30T14:13:25Z</time>
      </trkpt>
      <trkpt lat="40.173983" lon="-5.285450">
        <ele>1814.0</ele>
        <time>2013-06-30T14:13:26Z</time>
      </trkpt>
      <trkpt lat="40.173967" lon="-5.285333">
        <ele>1816.0</ele>
        <time>2013-06-30T14:13:27Z</time>
      </trkpt>
      <trkpt lat="40.173950" lon="-5.285217">
        <ele>1818.0</ele>
        <time>2013-06-30T14:13:28Z</time>
      </trkpt>
      <trkpt lat="40.173933" lon="-5.285100">
        <ele>1821.0</ele>
        <time>2013-06-30T14:13:29Z</time>
      </trkpt>
      <trkpt lat="40.173917" lon="-5.285000">
        <ele>1823.0</ele>
        <time>2013-06-30T14:13:30Z</time>
      </trkpt>
      <trkpt lat="40.173900" lon="-5.284900">
        <ele>1826.0</ele>
        <time>2013-06-30T14:13:31Z</time>
      </trkpt>
      <trkpt lat="40.173867" lon="-5.284817">
        <ele>1829.0</ele>
        <time>2013-06-30T14:13:32Z</time>
      </trkpt>
      <trkpt lat="40.173833" lon="-5.284750">
        <ele>1831.0</ele>
        <time>2013-06-30T14:13:33Z</time>
      </trkpt>
      <trkpt lat="40.173783" lon="-5.284683">
        <ele>1833.0</ele>
        <time>2013-06-30T14:13:34Z</time>
      </trkpt>
      <trkpt lat="40.173717" lon="-5.284633">
        <ele>1834.0</ele>
        <time>2013-06-30T14:13:35Z</time>
      </trkpt>
      <trkpt lat="40.173650" lon="-5.284600">
        <ele>1836.0</ele>
        <time>2013-06-30T14:13:36Z</time>
      </trkpt>
      <trkpt lat="40.173600" lon="-5.284600">
        <ele>1839.0</ele>
        <time>2013-06-30T14:13:37Z</time>
      </trkpt>
      <trkpt lat="40.173550" lon="-5.284617">
        <ele>1842.0</ele>
        <time>2013-06-30T14:13:38Z</time>
      </trkpt>
      <trkpt lat="40.173483" lon="-5.284650">
        <ele>1845.0</ele>
        <time>2013-06-30T14:13:39Z</time>
      </trkpt>
      <trkpt lat="40.173433" lon="-5.284717">
        <ele>1847.0</ele>
        <time>2013-06-30T14:13:40Z</time>
      </trkpt>
      <trkpt lat="40.173383" lon="-5.284783">
        <ele>1850.0</ele>
        <time>2013-06-30T14:13:41Z</time>
      </trkpt>
      <trkpt lat="40.173350" lon="-5.284867">
        <ele>1853.0</ele>
        <time>2013-06-30T14:13:42Z</time>
      </trkpt>
      <trkpt lat="40.173317" lon="-5.284950">
        <ele>1856.0</ele>
        <time>2013-06-30T14:13:43Z</time>
      </trkpt>
      <trkpt lat="40.173283" lon="-5.285050">
        <ele>1859.0</ele>
        <time>2013-06-30T14:13:44Z</time>
      </trkpt>
      <trkpt lat="40.173267" lon="-5.285150">
        <ele>1862.0</ele>
        <time>2013-06-30T14:13:45Z</time>
      </trkpt>
      <trkpt lat="40.173250" lon="-5.285250">
        <ele>1865.0</ele>
        <time>2013-06-30T14:13:46Z</time>
      </trkpt>
      <trkpt lat="40.173250" lon="-5.285367">
        <ele>1868.0</ele>
        <time>2013-06-30T14:13:47Z</time>
      </trkpt>
      <trkpt lat="40.173250" lon="-5.285483">
        <ele>1870.0</ele>
        <time>2013-06-30T14:13:48Z</time>
      </trkpt>
      <trkpt lat="40.173250" lon="-5.285600">
        <ele>1872.0</ele>
        <time>2013-06-30T14:13:49Z</time>
      </trkpt>
      <trkpt lat="40.173267" lon="-5.285700">
        <ele>1875.0</ele>
        <time>2013-06-30T14:13:50Z</time>
      </trkpt>
      <trkpt lat="40.173300" lon="-5.285817">
        <ele>1876.0</ele>
        <time>2013-06-30T14:13:51Z</time>
      </trkpt>
      <trkpt lat="40.173333" lon="-5.285950">
        <ele>1878.0</ele>
        <time>2013-06-30T14:13:52Z</time>
      </trkpt>
      <trkpt lat="40.173383" lon="-5.286067">
        <ele>1879.0</ele>
        <time>2013-06-30T14:13:53Z</time>
      </trkpt>
      <trkpt lat="40.173450" lon="-5.286167">
        <ele>1881.0</ele>
        <time>2013-06-30T14:13:54Z</time>
      </trkpt>
      <trkpt lat="40.173533" lon="-5.286267">
        <ele>1883.0</ele>
        <time>2013-06-30T14:13:55Z</time>
      </trkpt>
      <trkpt lat="40.173633" lon="-5.286350">
        <ele>1884.0</ele>
        <time>2013-06-30T14:13:56Z</time>
      </trkpt>
      <trkpt lat="40.173717" lon="-5.286417">
        <ele>1886.0</ele>
        <time>2013-06-30T14:13:57Z</time>
      </trkpt>
      <trkpt lat="40.173817" lon="-5.286450">
        <ele>1888.0</ele>
        <time>2013-06-30T14:13:58Z</time>
      </trkpt>
      <trkpt lat="40.173900" lon="-5.286483">
        <ele>1891.0</ele>
        <time>2013-06-30T14:13:59Z</time>
      </trkpt>
      <trkpt lat="40.174000" lon="-5.286483">
        <ele>1894.0</ele>
        <time>2013-06-30T14:14:00Z</time>
      </trkpt>
      <trkpt lat="40.174100" lon="-5.286450">
        <ele>1896.0</ele>
        <time>2013-06-30T14:14:01Z</time>
      </trkpt>
      <trkpt lat="40.174200" lon="-5.286417">
        <ele>1899.0</ele>
        <time>2013-06-30T14:14:02Z</time>
      </trkpt>
      <trkpt lat="40.174267" lon="-5.286367">
        <ele>1903.0</ele>
        <time>2013-06-30T14:14:03Z</time>
      </trkpt>
      <trkpt lat="40.174350" lon="-5.286300">
        <ele>1906.0</ele>
        <time>2013-06-30T14:14:04Z</time>
      </trkpt>
      <trkpt lat="40.174400" lon="-5.286250">
        <ele>1909.0</ele>
        <time>2013-06-30T14:14:05Z</time>
      </trkpt>
      <trkpt lat="40.174450" lon="-5.286167">
        <ele>1911.0</ele>
        <time>2013-06-30T14:14:06Z</time>
      </trkpt>
      <trkpt lat="40.174500" lon="-5.286083">
        <ele>1912.0</ele>
        <time>2013-06-30T14:14:07Z</time>
      </trkpt>
      <trkpt lat="40.174533" lon="-5.285967">
        <ele>1914.0</ele>
        <time>2013-06-30T14:14:08Z</time>
      </trkpt>
      <trkpt lat="40.174567" lon="-5.285867">
        <ele>1915.0</ele>
        <time>2013-06-30T14:14:09Z</time>
      </trkpt>
      <trkpt lat="40.174583" lon="-5.285750">
        <ele>1917.0</ele>
        <time>2013-06-30T14:14:10Z</time>
      </trkpt>
      <trkpt lat="40.174583" lon="-5.285650">
        <ele>1920.0</ele>
        <time>2013-06-30T14:14:11Z</time>
      </trkpt>
      <trkpt lat="40.174567" lon="-5.285550">
        <ele>1922.0</ele>
        <time>2013-06-30T14:14:12Z</time>
      </trkpt>
      <trkpt lat="40.174550" lon="-5.285467">
        <ele>1924.0</ele>
        <time>2013-06-30T14:14:13Z</time>
      </trkpt>
      <trkpt lat="40.174533" lon="-5.285367">
        <ele>1927.0</ele>
        <time>2013-06-30T14:14:14Z</time>
      </trkpt>
      <trkpt lat="40.174517" lon="-5.285267">
        <ele>1929.0</ele>
        <time>2013-06-30T14:14:15Z</time>
      </trkpt>
      <trkpt lat="40.174483" lon="-5.285183">
        <ele>1931.0</ele>
        <time>2013-06-30T14:14:16Z</time>
      </trkpt>
      <trkpt lat="40.174450" lon="-5.285117">
        <ele>1934.0</ele>
        <time>2013-06-30T14:14:17Z</time>
      </trkpt>
      <trkpt lat="40.174417" lon="-5.285050">
        <ele>1937.0</ele>
        <time>2013-06-30T14:14:18Z</time>
      </trkpt>
      <trkpt lat="40.174367" lon="-5.285000">
        <ele>1939.0</ele>
        <time>2013-06-30T14:14:19Z</time>
      </trkpt>
      <trkpt lat="40.174300" lon="-5.284950">
        <ele>1942.0</ele>
        <time>2013-06-30T14:14:20Z</time>
      </trkpt>
      <trkpt lat="40.174250" lon="-5.284933">
        <ele>1944.0</ele>
        <time>2013-06-30T14:14:21Z</time>
      </trkpt>
      <trkpt lat="40.174183" lon="-5.284933">
        <ele>1947.0</ele>
        <time>2013-06-30T14:14:22Z</time>
      </trkpt>
      <trkpt lat="40.174117" lon="-5.284967">
        <ele>1949.0</ele>
        <time>2013-06-30T14:14:23Z</time>
      </trkpt>
      <trkpt lat="40.174067" lon="-5.285000">
        <ele>1952.0</ele>
        <time>2013-06-30T14:14:24Z</time>
      </trkpt>
      <trkpt lat="40.174017" lon="-5.285050">
        <ele>1956.0</ele>
        <time>2013-06-30T14:14:25Z</time>
      </trkpt>
      <trkpt lat="40.173967" lon="-5.285117">
        <ele>1959.0</ele>
        <time>2013-06-30T14:14:26Z</time>
      </trkpt>
      <trkpt lat="40.173900" lon="-5.285183">
        <ele>1962.0</ele>
        <time>2013-06-30T14:14:27Z</time>
      </trkpt>
      <trkpt lat="40.173867" lon="-5.285267">
        <ele>1966.0</ele>
        <time>2013-06-30T14:14:28Z</time>
      </trkpt>
      <trkpt lat="40.173850" lon="-5.285383">
        <ele>1969.0</ele>
        <time>2013-06-30T14:14:29Z</time>
      </trkpt>
      <trkpt lat="40.173850" lon="-5.285500">
        <ele>1971.0</ele>
        <time>2013-06-30T14:14:30Z</time>
      </trkpt>
      <trkpt lat="40.173883" lon="-5.285617">
        <ele>1974.0</ele>
        <time>2013-06-30T14:14:31Z</time>
      </trkpt>
      <trkpt lat="40.173950" lon="-5.285717">
        <ele>1978.0</ele>
        <time>2013-06-30T14:14:32Z</time>
      </trkpt>
      <trkpt lat="40.174017" lon="-5.285783">
        <ele>1981.0</ele>
        <time>2013-06-30T14:14:33Z</time>
      </trkpt>
      <trkpt lat="40.174117" lon="-5.285850">
        <ele>1983.0</ele>
        <time>2013-06-30T14:14:34Z</time>
      </trkpt>
      <trkpt lat="40.174217" lon="-5.285883">
        <ele>1985.0</ele>
        <time>2013-06-30T14:14:35Z</time>
      </trkpt>
      <trkpt lat="40.174317" lon="-5.285900">
        <ele>1987.0</ele>
        <time>2013-06-30T14:14:36Z</time>
      </trkpt>
      <trkpt lat="40.174433" lon="-5.285917">
        <ele>1990.0</ele>
        <time>2013-06-30T14:14:37Z</time>
      </trkpt>
      <trkpt lat="40.174533" lon="-5.285883">
        <ele>1992.0</ele>
        <time>2013-06-30T14:14:38Z</time>
      </trkpt>
      <trkpt lat="40.174800" lon="-5.285700">
        <ele>2000.0</ele>
        <time>2013-06-30T14:14:41Z</time>
      </trkpt>
      <trkpt lat="40.174867" lon="-5.285600">
        <ele>2003.0</ele>
        <time>2013-06-30T14:14:42Z</time>
      </trkpt>
      <trkpt lat="40.174900" lon="-5.285517">
        <ele>2006.0</ele>
        <time>2013-06-30T14:14:43Z</time>
      </trkpt>
      <trkpt lat="40.174933" lon="-5.285433">
        <ele>2009.0</ele>
        <time>2013-06-30T14:14:44Z</time>
      </trkpt>
      <trkpt lat="40.174967" lon="-5.285333">
        <ele>2010.0</ele>
        <time>2013-06-30T14:14:45Z</time>
      </trkpt>
      <trkpt lat="40.175000" lon="-5.285233">
        <ele>2012.0</ele>
        <time>2013-06-30T14:14:46Z</time>
      </trkpt>
      <trkpt lat="40.175017" lon="-5.285117">
        <ele>2013.0</ele>
        <time>2013-06-30T14:14:47Z</time>
      </trkpt>
      <trkpt lat="40.175033" lon="-5.285017">
        <ele>2015.0</ele>
        <time>2013-06-30T14:14:48Z</time>
      </trkpt>
      <trkpt lat="40.175017" lon="-5.284933">
        <ele>2017.0</ele>
        <time>2013-06-30T14:14:49Z</time>
      </trkpt>
      <trkpt lat="40.175000" lon="-5.284850">
        <ele>2019.0</ele>
        <time>2013-06-30T14:14:50Z</time>
      </trkpt>
      <trkpt lat="40.174967" lon="-5.284750">
        <ele>2020.0</ele>
        <time>2013-06-30T14:14:51Z</time>
      </trkpt>
      <trkpt lat="40.174917" lon="-5.284667">
        <ele>2021.0</ele>
        <time>2013-06-30T14:14:52Z</time>
      </trkpt>
      <trkpt lat="40.174867" lon="-5.284600">
        <ele>2022.0</ele>
        <time>2013-06-30T14:14:53Z</time>
      </trkpt>
      <trkpt lat="40.174817" lon="-5.284567">
        <ele>2024.0</ele>
        <time>2013-06-30T14:14:54Z</time>
      </trkpt>
      <trkpt lat="40.174750" lon="-5.284533">
        <ele>2026.0</ele>
        <time>2013-06-30T14:14:55Z</time>
      </trkpt>
      <trkpt lat="40.174683" lon="-5.284517">
        <ele>2029.0</ele>
        <time>2013-06-30T14:14:56Z</time>
      </trkpt>
      <trkpt lat="40.174617" lon="-5.284500">
        <ele>2031.0</ele>
        <time>2013-06-30T14:14:57Z</time>
      </trkpt>
      <trkpt lat="40.174533" lon="-5.284483">
        <ele>2035.0</ele>
        <time>2013-06-30T14:14:58Z</time>
      </trkpt>
      <trkpt lat="40.174467" lon="-5.284500">
        <ele>2038.0</ele>
        <time>2013-06-30T14:14:59Z</time>
      </trkpt>
      <trkpt lat="40.174417" lon="-5.284517">
        <ele>2041.0</ele>
        <time>2013-06-30T14:15:00Z</time>
      </trkpt>
      <trkpt lat="40.174350" lon="-5.284567">
        <ele>2044.0</ele>
        <time>2013-06-30T14:15:01Z</time>
      </trkpt>
      <trkpt lat="40.174283" lon="-5.284617">
        <ele>2046.0</ele>
        <time>2013-06-30T14:15:02Z</time>
      </trkpt>
      <trkpt lat="40.174250" lon="-5.284683">
        <ele>2049.0</ele>
        <time>2013-06-30T14:15:03Z</time>
      </trkpt>
      <trkpt lat="40.174217" lon="-5.284750">
        <ele>2051.0</ele>
        <time>2013-06-30T14:15:04Z</time>
      </trkpt>
      <trkpt lat="40.174183" lon="-5.284850">
        <ele>2053.0</ele>
        <time>2013-06-30T14:15:05Z</time>
      </trkpt>
      <trkpt lat="40.174167" lon="-5.284967">
        <ele>2054.0</ele>
        <time>2013-06-30T14:15:06Z</time>
      </trkpt>
      <trkpt lat="40.174150" lon="-5.285083">
        <ele>2055.0</ele>
        <time>2013-06-30T14:15:07Z</time>
      </trkpt>
      <trkpt lat="40.174133" lon="-5.285183">
        <ele>2057.0</ele>
        <time>2013-06-30T14:15:08Z</time>
      </trkpt>
      <trkpt lat="40.174133" lon="-5.285283">
        <ele>2059.0</ele>
        <time>2013-06-30T14:15:09Z</time>
      </trkpt>
      <trkpt lat="40.174150" lon="-5.285383">
        <ele>2061.0</ele>
        <time>2013-06-30T14:15:10Z</time>
      </trkpt>
      <trkpt lat="40.174183" lon="-5.285483">
        <ele>2062.0</ele>
        <time>2013-06-30T14:15:11Z</time>
      </trkpt>
      <trkpt lat="40.174217" lon="-5.285600">
        <ele>2063.0</ele>
        <time>2013-06-30T14:15:12Z</time>
      </trkpt>
      <trkpt lat="40.174283" lon="-5.285717">
        <ele>2063.0</ele>
        <time>2013-06-30T14:15:13Z</time>
      </trkpt>
      <trkpt lat="40.174367" lon="-5.285800">
        <ele>2063.0</ele>
        <time>2013-06-30T14:15:14Z</time>
      </trkpt>
      <trkpt lat="40.174450" lon="-5.285867">
        <ele>2064.0</ele>
        <time>2013-06-30T14:15:15Z</time>
      </trkpt>
      <trkpt lat="40.174550" lon="-5.285867">
        <ele>2066.0</ele>
        <time>2013-06-30T14:15:16Z</time>
      </trkpt>
      <trkpt lat="40.174650" lon="-5.285833">
        <ele>2068.0</ele>
        <time>2013-06-30T14:15:17Z</time>
      </trkpt>
      <trkpt lat="40.174733" lon="-5.285767">
        <ele>2069.0</ele>
        <time>2013-06-30T14:15:18Z</time>
      </trkpt>
      <trkpt lat="40.174817" lon="-5.285683">
        <ele>2071.0</ele>
        <time>2013-06-30T14:15:19Z</time>
      </trkpt>
      <trkpt lat="40.174883" lon="-5.285600">
        <ele>2073.0</ele>
        <time>2013-06-30T14:15:20Z</time>
      </trkpt>
      <trkpt lat="40.174933" lon="-5.285500">
        <ele>2076.0</ele>
        <time>2013-06-30T14:15:21Z</time>
      </trkpt>
      <trkpt lat="40.174983" lon="-5.285383">
        <ele>2078.0</ele>
        <time>2013-06-30T14:15:22Z</time>
      </trkpt>
      <trkpt lat="40.175000" lon="-5.285267">
        <ele>2080.0</ele>
        <time>2013-06-30T14:15:23Z</time>
      </trkpt>
      <trkpt lat="40.175017" lon="-5.285167">
        <ele>2082.0</ele>
        <time>2013-06-30T14:15:24Z</time>
      </trkpt>
      <trkpt lat="40.175000" lon="-5.285050">
        <ele>2084.0</ele>
        <time>2013-06-30T14:15:25Z</time>
      </trkpt>
      <trkpt lat="40.174983" lon="-5.284933">
        <ele>2086.0</ele>
        <time>2013-06-30T14:15:26Z</time>
      </trkpt>
      <trkpt lat="40.174967" lon="-5.284833">
        <ele>2088.0</ele>
        <time>2013-06-30T14:15:27Z</time>
      </trkpt>
      <trkpt lat="40.174933" lon="-5.284733">
        <ele>2091.0</ele>
        <time>2013-06-30T14:15:28Z</time>
      </trkpt>
      <trkpt lat="40.174900" lon="-5.284633">
        <ele>2093.0</ele>
        <time>2013-06-30T14:15:29Z</time>
      </trkpt>
      <trkpt lat="40.174867" lon="-5.284550">
        <ele>2095.0</ele>
        <time>2013-06-30T14:15:30Z</time>
      </trkpt>
      <trkpt lat="40.174817" lon="-5.284467">
        <ele>2098.0</ele>
        <time>2013-06-30T14:15:31Z</time>
      </trkpt>
      <trkpt lat="40.174783" lon="-5.284400">
        <ele>2101.0</ele>
        <time>2013-06-30T14:15:32Z</time>
      </trkpt>
      <trkpt lat="40.174717" lon="-5.284333">
        <ele>2104.0</ele>
        <time>2013-06-30T14:15:33Z</time>
      </trkpt>
      <trkpt lat="40.174667" lon="-5.284283">
        <ele>2106.0</ele>
        <time>2013-06-30T14:15:34Z</time>
      </trkpt>
      <trkpt lat="40.174600" lon="-5.284233">
        <ele>2107.0</ele>
        <time>2013-06-30T14:15:35Z</time>
      </trkpt>
      <trkpt lat="40.174517" lon="-5.284183">
        <ele>2108.0</ele>
        <time>2013-06-30T14:15:36Z</time>
      </trkpt>
      <trkpt lat="40.174450" lon="-5.284133">
        <ele>2109.0</ele>
        <time>2013-06-30T14:15:37Z</time>
      </trkpt>
      <trkpt lat="40.174383" lon="-5.284083">
        <ele>2110.0</ele>
        <time>2013-06-30T14:15:38Z</time>
      </trkpt>
      <trkpt lat="40.174300" lon="-5.284050">
        <ele>2111.0</ele>
        <time>2013-06-30T14:15:39Z</time>
      </trkpt>
      <trkpt lat="40.174233" lon="-5.284033">
        <ele>2112.0</ele>
        <time>2013-06-30T14:15:40Z</time>
      </trkpt>
      <trkpt lat="40.174150" lon="-5.284017">
        <ele>2112.0</ele>
        <time>2013-06-30T14:15:41Z</time>
      </trkpt>
      <trkpt lat="40.174067" lon="-5.284017">
        <ele>2113.0</ele>
        <time>2013-06-30T14:15:42Z</time>
      </trkpt>
      <trkpt lat="40.173983" lon="-5.284033">
        <ele>2114.0</ele>
        <time>2013-06-30T14:15:43Z</time>
      </trkpt>
      <trkpt lat="40.173917" lon="-5.284067">
        <ele>2116.0</ele>
        <time>2013-06-30T14:15:44Z</time>
      </trkpt>
      <trkpt lat="40.173850" lon="-5.284100">
        <ele>2119.0</ele>
        <time>2013-06-30T14:15:45Z</time>
      </trkpt>
      <trkpt lat="40.173800" lon="-5.284133">
        <ele>2121.0</ele>
        <time>2013-06-30T14:15:46Z</time>
      </trkpt>
      <trkpt lat="40.173750" lon="-5.284167">
        <ele>2123.0</ele>
        <time>2013-06-30T14:15:47Z</time>
      </trkpt>
      <trkpt lat="40.173683" lon="-5.284217">
        <ele>2124.0</ele>
        <time>2013-06-30T14:15:48Z</time>
      </trkpt>
      <trkpt lat="40.173633" lon="-5.284283">
        <ele>2125.0</ele>
        <time>2013-06-30T14:15:49Z</time>
      </trkpt>
      <trkpt lat="40.173583" lon="-5.284383">
        <ele>2125.0</ele>
        <time>2013-06-30T14:15:50Z</time>
      </trkpt>
      <trkpt lat="40.173567" lon="-5.284500">
        <ele>2126.0</ele>
        <time>2013-06-30T14:15:51Z</time>
      </trkpt>
      <trkpt lat="40.173567" lon="-5.284600">
        <ele>2126.0</ele>
        <time>2013-06-30T14:15:52Z</time>
      </trkpt>
      <trkpt lat="40.173583" lon="-5.284700">
        <ele>2127.0</ele>
        <time>2013-06-30T14:15:53Z</time>
      </trkpt>
      <trkpt lat="40.173617" lon="-5.284800">
        <ele>2128.0</ele>
        <time>2013-06-30T14:15:54Z</time>
      </trkpt>
      <trkpt lat="40.173650" lon="-5.284900">
        <ele>2128.0</ele>
        <time>2013-06-30T14:15:55Z</time>
      </trkpt>
      <trkpt lat="40.173717" lon="-5.285000">
        <ele>2128.0</ele>
        <time>2013-06-30T14:15:56Z</time>
      </trkpt>
      <trkpt lat="40.173800" lon="-5.285067">
        <ele>2128.0</ele>
        <time>2013-06-30T14:15:57Z</time>
      </trkpt>
      <trkpt lat="40.173900" lon="-5.285117">
        <ele>2127.0</ele>
        <time>2013-06-30T14:15:58Z</time>
      </trkpt>
      <trkpt lat="40.174000" lon="-5.285133">
        <ele>2126.0</ele>
        <time>2013-06-30T14:15:59Z</time>
      </trkpt>
      <trkpt lat="40.174100" lon="-5.285117">
        <ele>2125.0</ele>
        <time>2013-06-30T14:16:00Z</time>
      </trkpt>
      <trkpt lat="40.174183" lon="-5.285067">
        <ele>2125.0</ele>
        <time>2013-06-30T14:16:01Z</time>
      </trkpt>
      <trkpt lat="40.174267" lon="-5.285000">
        <ele>2125.0</ele>
        <time>2013-06-30T14:16:02Z</time>
      </trkpt>
      <trkpt lat="40.174367" lon="-5.284833">
        <ele>2125.0</ele>
        <time>2013-06-30T14:16:04Z</time>
      </trkpt>
      <trkpt lat="40.174417" lon="-5.284533">
        <ele>2125.0</ele>
        <time>2013-06-30T14:16:07Z</time>
      </trkpt>
      <trkpt lat="40.174417" lon="-5.284450">
        <ele>2126.0</ele>
        <time>2013-06-30T14:16:08Z</time>
      </trkpt>
      <trkpt lat="40.174400" lon="-5.284367">
        <ele>2127.0</ele>
        <time>2013-06-30T14:16:09Z</time>
      </trkpt>
      <trkpt lat="40.174383" lon="-5.284283">
        <ele>2127.0</ele>
        <time>2013-06-30T14:16:10Z</time>
      </trkpt>
      <trkpt lat="40.174350" lon="-5.284183">
        <ele>2127.0</ele>
        <time>2013-06-30T14:16:11Z</time>
      </trkpt>
      <trkpt lat="40.174333" lon="-5.284083">
        <ele>2127.0</ele>
        <time>2013-06-30T14:16:12Z</time>
      </trkpt>
      <trkpt lat="40.174300" lon="-5.283983">
        <ele>2127.0</ele>
        <time>2013-06-30T14:16:13Z</time>
      </trkpt>
      <trkpt lat="40.174267" lon="-5.283900">
        <ele>2128.0</ele>
        <time>2013-06-30T14:16:14Z</time>
      </trkpt>
      <trkpt lat="40.174217" lon="-5.283833">
        <ele>2129.0</ele>
        <time>2013-06-30T14:16:15Z</time>
      </trkpt>
      <trkpt lat="40.174167" lon="-5.283750">
        <ele>2130.0</ele>
        <time>2013-06-30T14:16:16Z</time>
      </trkpt>
      <trkpt lat="40.174117" lon="-5.283683">
        <ele>2131.0</ele>
        <time>2013-06-30T14:16:17Z</time>
      </trkpt>
      <trkpt lat="40.174067" lon="-5.283600">
        <ele>2132.0</ele>
        <time>2013-06-30T14:16:18Z</time>
      </trkpt>
      <trkpt lat="40.174033" lon="-5.283533">
        <ele>2132.0</ele>
        <time>2013-06-30T14:16:19Z</time>
      </trkpt>
      <trkpt lat="40.173967" lon="-5.283483">
        <ele>2133.0</ele>
        <time>2013-06-30T14:16:20Z</time>
      </trkpt>
      <trkpt lat="40.173917" lon="-5.283417">
        <ele>2133.0</ele>
        <time>2013-06-30T14:16:21Z</time>
      </trkpt>
      <trkpt lat="40.173850" lon="-5.283383">
        <ele>2133.0</ele>
        <time>2013-06-30T14:16:22Z</time>
      </trkpt>
      <trkpt lat="40.173783" lon="-5.283333">
        <ele>2132.0</ele>
        <time>2013-06-30T14:16:23Z</time>
      </trkpt>
      <trkpt lat="40.173700" lon="-5.283300">
        <ele>2131.0</ele>
        <time>2013-06-30T14:16:24Z</time>
      </trkpt>
      <trkpt lat="40.173633" lon="-5.283283">
        <ele>2130.0</ele>
        <time>2013-06-30T14:16:25Z</time>
      </trkpt>
      <trkpt lat="40.173550" lon="-5.283267">
        <ele>2129.0</ele>
        <time>2013-06-30T14:16:26Z</time>
      </trkpt>
      <trkpt lat="40.173500" lon="-5.283250">
        <ele>2129.0</ele>
        <time>2013-06-30T14:16:27Z</time>
      </trkpt>
      <trkpt lat="40.173433" lon="-5.283267">
        <ele>2129.0</ele>
        <time>2013-06-30T14:16:28Z</time>
      </trkpt>
      <trkpt lat="40.173383" lon="-5.283283">
        <ele>2129.0</ele>
        <time>2013-06-30T14:16:29Z</time>
      </trkpt>
      <trkpt lat="40.173317" lon="-5.283317">
        <ele>2127.0</ele>
        <time>2013-06-30T14:16:30Z</time>
      </trkpt>
      <trkpt lat="40.173250" lon="-5.283333">
        <ele>2126.0</ele>
        <time>2013-06-30T14:16:31Z</time>
      </trkpt>
      <trkpt lat="40.173167" lon="-5.283367">
        <ele>2124.0</ele>
        <time>2013-06-30T14:16:32Z</time>
      </trkpt>
      <trkpt lat="40.173100" lon="-5.283417">
        <ele>2122.0</ele>
        <time>2013-06-30T14:16:33Z</time>
      </trkpt>
      <trkpt lat="40.173050" lon="-5.283467">
        <ele>2121.0</ele>
        <time>2013-06-30T14:16:34Z</time>
      </trkpt>
      <trkpt lat="40.173000" lon="-5.283517">
        <ele>2119.0</ele>
        <time>2013-06-30T14:16:35Z</time>
      </trkpt>
      <trkpt lat="40.172933" lon="-5.283583">
        <ele>2117.0</ele>
        <time>2013-06-30T14:16:36Z</time>
      </trkpt>
      <trkpt lat="40.172883" lon="-5.283667">
        <ele>2115.0</ele>
        <time>2013-06-30T14:16:37Z</time>
      </trkpt>
      <trkpt lat="40.172817" lon="-5.283750">
        <ele>2113.0</ele>
        <time>2013-06-30T14:16:38Z</time>
      </trkpt>
      <trkpt lat="40.172767" lon="-5.283850">
        <ele>2111.0</ele>
        <time>2013-06-30T14:16:39Z</time>
      </trkpt>
      <trkpt lat="40.172717" lon="-5.283933">
        <ele>2110.0</ele>
        <time>2013-06-30T14:16:40Z</time>
      </trkpt>
      <trkpt lat="40.172683" lon="-5.284017">
        <ele>2109.0</ele>
        <time>2013-06-30T14:16:41Z</time>
      </trkpt>
      <trkpt lat="40.172633" lon="-5.284117">
        <ele>2107.0</ele>
        <time>2013-06-30T14:16:42Z</time>
      </trkpt>
      <trkpt lat="40.172600" lon="-5.284233">
        <ele>2105.0</ele>
        <time>2013-06-30T14:16:43Z</time>
      </trkpt>
      <trkpt lat="40.172567" lon="-5.284367">
        <ele>2104.0</ele>
        <time>2013-06-30T14:16:44Z</time>
      </trkpt>
      <trkpt lat="40.172533" lon="-5.284483">
        <ele>2103.0</ele>
        <time>2013-06-30T14:16:45Z</time>
      </trkpt>
      <trkpt lat="40.172517" lon="-5.284600">
        <ele>2104.0</ele>
        <time>2013-06-30T14:16:46Z</time>
      </trkpt>
      <trkpt lat="40.172483" lon="-5.284700">
        <ele>2105.0</ele>
        <time>2013-06-30T14:16:47Z</time>
      </trkpt>
      <trkpt lat="40.172450" lon="-5.284800">
        <ele>2105.0</ele>
        <time>2013-06-30T14:16:48Z</time>
      </trkpt>
      <trkpt lat="40.172417" lon="-5.284900">
        <ele>2106.0</ele>
        <time>2013-06-30T14:16:49Z</time>
      </trkpt>
      <trkpt lat="40.172383" lon="-5.285000">
        <ele>2106.0</ele>
        <time>2013-06-30T14:16:50Z</time>
      </trkpt>
      <trkpt lat="40.172367" lon="-5.285100">
        <ele>2107.0</ele>
        <time>2013-06-30T14:16:51Z</time>
      </trkpt>
      <trkpt lat="40.172333" lon="-5.285217">
        <ele>2107.0</ele>
        <time>2013-06-30T14:16:52Z</time>
      </trkpt>
      <trkpt lat="40.172283" lon="-5.285333">
        <ele>2107.0</ele>
        <time>2013-06-30T14:16:53Z</time>
      </trkpt>
      <trkpt lat="40.172267" lon="-5.285450">
        <ele>2107.0</ele>
        <time>2013-06-30T14:16:54Z</time>
      </trkpt>
      <trkpt lat="40.172250" lon="-5.285567">
        <ele>2108.0</ele>
        <time>2013-06-30T14:16:55Z</time>
      </trkpt>
      <trkpt lat="40.172250" lon="-5.285683">
        <ele>2109.0</ele>
        <time>2013-06-30T14:16:56Z</time>
      </trkpt>
      <trkpt lat="40.172250" lon="-5.285800">
        <ele>2110.0</ele>
        <time>2013-06-30T14:16:57Z</time>
      </trkpt>
      <trkpt lat="40.172250" lon="-5.285917">
        <ele>2111.0</ele>
        <time>2013-06-30T14:16:58Z</time>
      </trkpt>
      <trkpt lat="40.172250" lon="-5.286050">
        <ele>2111.0</ele>
        <time>2013-06-30T14:16:59Z</time>
      </trkpt>
      <trkpt lat="40.172250" lon="-5.286283">
        <ele>2112.0</ele>
        <time>2013-06-30T14:17:01Z</time>
      </trkpt>
      <trkpt lat="40.172267" lon="-5.286400">
        <ele>2113.0</ele>
        <time>2013-06-30T14:17:02Z</time>
      </trkpt>
      <trkpt lat="40.172267" lon="-5.286500">
        <ele>2114.0</ele>
        <time>2013-06-30T14:17:03Z</time>
      </trkpt>
      <trkpt lat="40.172267" lon="-5.286617">
        <ele>2115.0</ele>
        <time>2013-06-30T14:17:04Z</time>
      </trkpt>
      <trkpt lat="40.172250" lon="-5.286733">
        <ele>2116.0</ele>
        <time>2013-06-30T14:17:05Z</time>
      </trkpt>
      <trkpt lat="40.172250" lon="-5.286833">
        <ele>2118.0</ele>
        <time>2013-06-30T14:17:06Z</time>
      </trkpt>
      <trkpt lat="40.172250" lon="-5.286950">
        <ele>2120.0</ele>
        <time>2013-06-30T14:17:07Z</time>
      </trkpt>
      <trkpt lat="40.172250" lon="-5.287050">
        <ele>2121.0</ele>
        <time>2013-06-30T14:17:08Z</time>
      </trkpt>
      <trkpt lat="40.172250" lon="-5.287133">
        <ele>2123.0</ele>
        <time>2013-06-30T14:17:09Z</time>
      </trkpt>
      <trkpt lat="40.172267" lon="-5.287233">
        <ele>2125.0</ele>
        <time>2013-06-30T14:17:10Z</time>
      </trkpt>
      <trkpt lat="40.172267" lon="-5.287333">
        <ele>2127.0</ele>
        <time>2013-06-30T14:17:11Z</time>
      </trkpt>
      <trkpt lat="40.172267" lon="-5.287433">
        <ele>2129.0</ele>
        <time>2013-06-30T14:17:12Z</time>
      </trkpt>
      <trkpt lat="40.172267" lon="-5.287533">
        <ele>2129.0</ele>
        <time>2013-06-30T14:17:13Z</time>
      </trkpt>
      <trkpt lat="40.172267" lon="-5.287983">
        <ele>2132.0</ele>
        <time>2013-06-30T14:17:17Z</time>
      </trkpt>
      <trkpt lat="40.172283" lon="-5.288083">
        <ele>2133.0</ele>
        <time>2013-06-30T14:17:18Z</time>
      </trkpt>
      <trkpt lat="40.172283" lon="-5.288200">
        <ele>2133.0</ele>
        <time>2013-06-30T14:17:19Z</time>
      </trkpt>
      <trkpt lat="40.172283" lon="-5.288317">
        <ele>2133.0</ele>
        <time>2013-06-30T14:17:20Z</time>
      </trkpt>
      <trkpt lat="40.172267" lon="-5.288433">
        <ele>2132.0</ele>
        <time>2013-06-30T14:17:21Z</time>
      </trkpt>
      <trkpt lat="40.172267" lon="-5.288533">
        <ele>2131.0</ele>
        <time>2013-06-30T14:17:22Z</time>
      </trkpt>
      <trkpt lat="40.172267" lon="-5.288650">
        <ele>2130.0</ele>
        <time>2013-06-30T14:17:23Z</time>
      </trkpt>
      <trkpt lat="40.172267" lon="-5.288767">
        <ele>2129.0</ele>
        <time>2013-06-30T14:17:24Z</time>
      </trkpt>
      <trkpt lat="40.172267" lon="-5.288883">
        <ele>2128.0</ele>
        <time>2013-06-30T14:17:25Z</time>
      </trkpt>
      <trkpt lat="40.172267" lon="-5.288983">
        <ele>2126.0</ele>
        <time>2013-06-30T14:17:26Z</time>
      </trkpt>
      <trkpt lat="40.172283" lon="-5.289083">
        <ele>2125.0</ele>
        <time>2013-06-30T14:17:27Z</time>
      </trkpt>
      <trkpt lat="40.172283" lon="-5.289200">
        <ele>2123.0</ele>
        <time>2013-06-30T14:17:28Z</time>
      </trkpt>
      <trkpt lat="40.172283" lon="-5.289333">
        <ele>2122.0</ele>
        <time>2013-06-30T14:17:29Z</time>
      </trkpt>
      <trkpt lat="40.172283" lon="-5.289450">
        <ele>2122.0</ele>
        <time>2013-06-30T14:17:30Z</time>
      </trkpt>
      <trkpt lat="40.172267" lon="-5.289550">
        <ele>2121.0</ele>
        <time>2013-06-30T14:17:31Z</time>
      </trkpt>
      <trkpt lat="40.172267" lon="-5.289633">
        <ele>2121.0</ele>
        <time>2013-06-30T14:17:32Z</time>
      </trkpt>
      <trkpt lat="40.172250" lon="-5.289733">
        <ele>2120.0</ele>
        <time>2013-06-30T14:17:33Z</time>
      </trkpt>
      <trkpt lat="40.172250" lon="-5.289833">
        <ele>2119.0</ele>
        <time>2013-06-30T14:17:34Z</time>
      </trkpt>
      <trkpt lat="40.172233" lon="-5.289950">
        <ele>2118.0</ele>
        <time>2013-06-30T14:17:35Z</time>
      </trkpt>
      <trkpt lat="40.172200" lon="-5.290067">
        <ele>2117.0</ele>
        <time>2013-06-30T14:17:36Z</time>
      </trkpt>
      <trkpt lat="40.172183" lon="-5.290200">
        <ele>2115.0</ele>
        <time>2013-06-30T14:17:37Z</time>
      </trkpt>
      <trkpt lat="40.172167" lon="-5.290300">
        <ele>2115.0</ele>
        <time>2013-06-30T14:17:38Z</time>
      </trkpt>
      <trkpt lat="40.172150" lon="-5.290400">
        <ele>2115.0</ele>
        <time>2013-06-30T14:17:39Z</time>
      </trkpt>
      <trkpt lat="40.172133" lon="-5.290500">
        <ele>2114.0</ele>
        <time>2013-06-30T14:17:40Z</time>
      </trkpt>
      <trkpt lat="40.172100" lon="-5.290600">
        <ele>2112.0</ele>
        <time>2013-06-30T14:17:41Z</time>
      </trkpt>
      <trkpt lat="40.172083" lon="-5.290717">
        <ele>2110.0</ele>
        <time>2013-06-30T14:17:42Z</time>
      </trkpt>
      <trkpt lat="40.172050" lon="-5.290833">
        <ele>2108.0</ele>
        <time>2013-06-30T14:17:43Z</time>
      </trkpt>
      <trkpt lat="40.172017" lon="-5.290950">
        <ele>2106.0</ele>
        <time>2013-06-30T14:17:44Z</time>
      </trkpt>
      <trkpt lat="40.172000" lon="-5.291033">
        <ele>2104.0</ele>
        <time>2013-06-30T14:17:45Z</time>
      </trkpt>
      <trkpt lat="40.171983" lon="-5.291133">
        <ele>2102.0</ele>
        <time>2013-06-30T14:17:46Z</time>
      </trkpt>
      <trkpt lat="40.171967" lon="-5.291233">
        <ele>2100.0</ele>
        <time>2013-06-30T14:17:47Z</time>
      </trkpt>
      <trkpt lat="40.171933" lon="-5.291350">
        <ele>2097.0</ele>
        <time>2013-06-30T14:17:48Z</time>
      </trkpt>
      <trkpt lat="40.171900" lon="-5.291450">
        <ele>2095.0</ele>
        <time>2013-06-30T14:17:49Z</time>
      </trkpt>
      <trkpt lat="40.171883" lon="-5.291550">
        <ele>2093.0</ele>
        <time>2013-06-30T14:17:50Z</time>
      </trkpt>
      <trkpt lat="40.171883" lon="-5.291633">
        <ele>2092.0</ele>
        <time>2013-06-30T14:17:51Z</time>
      </trkpt>
      <trkpt lat="40.171900" lon="-5.291700">
        <ele>2090.0</ele>
        <time>2013-06-30T14:17:52Z</time>
      </trkpt>
      <trkpt lat="40.171900" lon="-5.291783">
        <ele>2088.0</ele>
        <time>2013-06-30T14:17:53Z</time>
      </trkpt>
      <trkpt lat="40.171917" lon="-5.291867">
        <ele>2086.0</ele>
        <time>2013-06-30T14:17:54Z</time>
      </trkpt>
      <trkpt lat="40.171917" lon="-5.291983">
        <ele>2084.0</ele>
        <time>2013-06-30T14:17:55Z</time>
      </trkpt>
      <trkpt lat="40.171933" lon="-5.292117">
        <ele>2081.0</ele>
        <time>2013-06-30T14:17:56Z</time>
      </trkpt>
      <trkpt lat="40.171933" lon="-5.292217">
        <ele>2079.0</ele>
        <time>2013-06-30T14:17:57Z</time>
      </trkpt>
      <trkpt lat="40.171917" lon="-5.292317">
        <ele>2079.0</ele>
        <time>2013-06-30T14:17:58Z</time>
      </trkpt>
      <trkpt lat="40.171900" lon="-5.292383">
        <ele>2078.0</ele>
        <time>2013-06-30T14:17:59Z</time>
      </trkpt>
      <trkpt lat="40.171883" lon="-5.292467">
        <ele>2077.0</ele>
        <time>2013-06-30T14:18:00Z</time>
      </trkpt>
      <trkpt lat="40.171867" lon="-5.292550">
        <ele>2076.0</ele>
        <time>2013-06-30T14:18:01Z</time>
      </trkpt>
      <trkpt lat="40.171850" lon="-5.292650">
        <ele>2075.0</ele>
        <time>2013-06-30T14:18:02Z</time>
      </trkpt>
      <trkpt lat="40.171817" lon="-5.292750">
        <ele>2073.0</ele>
        <time>2013-06-30T14:18:03Z</time>
      </trkpt>
      <trkpt lat="40.171783" lon="-5.292850">
        <ele>2072.0</ele>
        <time>2013-06-30T14:18:04Z</time>
      </trkpt>
      <trkpt lat="40.171733" lon="-5.292933">
        <ele>2070.0</ele>
        <time>2013-06-30T14:18:05Z</time>
      </trkpt>
      <trkpt lat="40.171683" lon="-5.293017">
        <ele>2069.0</ele>
        <time>2013-06-30T14:18:06Z</time>
      </trkpt>
      <trkpt lat="40.171617" lon="-5.293100">
        <ele>2068.0</ele>
        <time>2013-06-30T14:18:07Z</time>
      </trkpt>
      <trkpt lat="40.171550" lon="-5.293183">
        <ele>2066.0</ele>
        <time>2013-06-30T14:18:08Z</time>
      </trkpt>
      <trkpt lat="40.171500" lon="-5.293283">
        <ele>2066.0</ele>
        <time>2013-06-30T14:18:09Z</time>
      </trkpt>
      <trkpt lat="40.171433" lon="-5.293383">
        <ele>2065.0</ele>
        <time>2013-06-30T14:18:10Z</time>
      </trkpt>
      <trkpt lat="40.171367" lon="-5.293467">
        <ele>2065.0</ele>
        <time>2013-06-30T14:18:11Z</time>
      </trkpt>
      <trkpt lat="40.171283" lon="-5.293533">
        <ele>2065.0</ele>
        <time>2013-06-30T14:18:12Z</time>
      </trkpt>
      <trkpt lat="40.171200" lon="-5.293600">
        <ele>2065.0</ele>
        <time>2013-06-30T14:18:13Z</time>
      </trkpt>
      <trkpt lat="40.171100" lon="-5.293667">
        <ele>2065.0</ele>
        <time>2013-06-30T14:18:14Z</time>
      </trkpt>
      <trkpt lat="40.171017" lon="-5.293717">
        <ele>2067.0</ele>
        <time>2013-06-30T14:18:15Z</time>
      </trkpt>
      <trkpt lat="40.170933" lon="-5.293783">
        <ele>2071.0</ele>
        <time>2013-06-30T14:18:16Z</time>
      </trkpt>
      <trkpt lat="40.170867" lon="-5.293833">
        <ele>2073.0</ele>
        <time>2013-06-30T14:18:17Z</time>
      </trkpt>
      <trkpt lat="40.170800" lon="-5.293867">
        <ele>2074.0</ele>
        <time>2013-06-30T14:18:18Z</time>
      </trkpt>
      <trkpt lat="40.170733" lon="-5.293917">
        <ele>2076.0</ele>
        <time>2013-06-30T14:18:19Z</time>
      </trkpt>
      <trkpt lat="40.170650" lon="-5.293967">
        <ele>2075.0</ele>
        <time>2013-06-30T14:18:20Z</time>
      </trkpt>
      <trkpt lat="40.170567" lon="-5.294017">
        <ele>2074.0</ele>
        <time>2013-06-30T14:18:21Z</time>
      </trkpt>
      <trkpt lat="40.170483" lon="-5.294100">
        <ele>2074.0</ele>
        <time>2013-06-30T14:18:22Z</time>
      </trkpt>
      <trkpt lat="40.170400" lon="-5.294167">
        <ele>2074.0</ele>
        <time>2013-06-30T14:18:23Z</time>
      </trkpt>
      <trkpt lat="40.170350" lon="-5.294250">
        <ele>2075.0</ele>
        <time>2013-06-30T14:18:24Z</time>
      </trkpt>
      <trkpt lat="40.170283" lon="-5.294317">
        <ele>2076.0</ele>
        <time>2013-06-30T14:18:25Z</time>
      </trkpt>
      <trkpt lat="40.170233" lon="-5.294383">
        <ele>2076.0</ele>
        <time>2013-06-30T14:18:26Z</time>
      </trkpt>
      <trkpt lat="40.170167" lon="-5.294467">
        <ele>2075.0</ele>
        <time>2013-06-30T14:18:27Z</time>
      </trkpt>
      <trkpt lat="40.170100" lon="-5.294567">
        <ele>2074.0</ele>
        <time>2013-06-30T14:18:28Z</time>
      </trkpt>
      <trkpt lat="40.170033" lon="-5.294650">
        <ele>2074.0</ele>
        <time>2013-06-30T14:18:29Z</time>
      </trkpt>
      <trkpt lat="40.169983" lon="-5.294750">
        <ele>2074.0</ele>
        <time>2013-06-30T14:18:30Z</time>
      </trkpt>
      <trkpt lat="40.169933" lon="-5.294850">
        <ele>2075.0</ele>
        <time>2013-06-30T14:18:31Z</time>
      </trkpt>
      <trkpt lat="40.169883" lon="-5.294950">
        <ele>2074.0</ele>
        <time>2013-06-30T14:18:32Z</time>
      </trkpt>
      <trkpt lat="40.169833" lon="-5.295050">
        <ele>2074.0</ele>
        <time>2013-06-30T14:18:33Z</time>
      </trkpt>
      <trkpt lat="40.169783" lon="-5.295167">
        <ele>2073.0</ele>
        <time>2013-06-30T14:18:34Z</time>
      </trkpt>
      <trkpt lat="40.169717" lon="-5.295283">
        <ele>2072.0</ele>
        <time>2013-06-30T14:18:35Z</time>
      </trkpt>
      <trkpt lat="40.169667" lon="-5.295417">
        <ele>2070.0</ele>
        <time>2013-06-30T14:18:36Z</time>
      </trkpt>
      <trkpt lat="40.169617" lon="-5.295533">
        <ele>2069.0</ele>
        <time>2013-06-30T14:18:37Z</time>
      </trkpt>
      <trkpt lat="40.169583" lon="-5.295667">
        <ele>2069.0</ele>
        <time>2013-06-30T14:18:38Z</time>
      </trkpt>
      <trkpt lat="40.169550" lon="-5.295783">
        <ele>2068.0</ele>
        <time>2013-06-30T14:18:39Z</time>
      </trkpt>
      <trkpt lat="40.169517" lon="-5.295900">
        <ele>2067.0</ele>
        <time>2013-06-30T14:18:40Z</time>
      </trkpt>
      <trkpt lat="40.169467" lon="-5.296017">
        <ele>2066.0</ele>
        <time>2013-06-30T14:18:41Z</time>
      </trkpt>
      <trkpt lat="40.169433" lon="-5.296133">
        <ele>2065.0</ele>
        <time>2013-06-30T14:18:42Z</time>
      </trkpt>
      <trkpt lat="40.169417" lon="-5.296250">
        <ele>2064.0</ele>
        <time>2013-06-30T14:18:43Z</time>
      </trkpt>
      <trkpt lat="40.169383" lon="-5.296367">
        <ele>2061.0</ele>
        <time>2013-06-30T14:18:44Z</time>
      </trkpt>
      <trkpt lat="40.169333" lon="-5.296500">
        <ele>2059.0</ele>
        <time>2013-06-30T14:18:45Z</time>
      </trkpt>
      <trkpt lat="40.169300" lon="-5.296633">
        <ele>2057.0</ele>
        <time>2013-06-30T14:18:46Z</time>
      </trkpt>
      <trkpt lat="40.169250" lon="-5.296767">
        <ele>2056.0</ele>
        <time>2013-06-30T14:18:47Z</time>
      </trkpt>
      <trkpt lat="40.169217" lon="-5.296883">
        <ele>2054.0</ele>
        <time>2013-06-30T14:18:48Z</time>
      </trkpt>
      <trkpt lat="40.169183" lon="-5.297000">
        <ele>2053.0</ele>
        <time>2013-06-30T14:18:49Z</time>
      </trkpt>
      <trkpt lat="40.169150" lon="-5.297133">
        <ele>2051.0</ele>
        <time>2013-06-30T14:18:50Z</time>
      </trkpt>
      <trkpt lat="40.169117" lon="-5.297267">
        <ele>2049.0</ele>
        <time>2013-06-30T14:18:51Z</time>
      </trkpt>
      <trkpt lat="40.169083" lon="-5.297400">
        <ele>2047.0</ele>
        <time>2013-06-30T14:18:52Z</time>
      </trkpt>
      <trkpt lat="40.169050" lon="-5.297550">
        <ele>2045.0</ele>
        <time>2013-06-30T14:18:53Z</time>
      </trkpt>
      <trkpt lat="40.169033" lon="-5.297683">
        <ele>2044.0</ele>
        <time>2013-06-30T14:18:54Z</time>
      </trkpt>
      <trkpt lat="40.169017" lon="-5.297817">
        <ele>2042.0</ele>
        <time>2013-06-30T14:18:55Z</time>
      </trkpt>
      <trkpt lat="40.169017" lon="-5.297967">
        <ele>2040.0</ele>
        <time>2013-06-30T14:18:56Z</time>
      </trkpt>
      <trkpt lat="40.169000" lon="-5.298133">
        <ele>2038.0</ele>
        <time>2013-06-30T14:18:57Z</time>
      </trkpt>
      <trkpt lat="40.168983" lon="-5.298283">
        <ele>2036.0</ele>
        <time>2013-06-30T14:18:58Z</time>
      </trkpt>
      <trkpt lat="40.168950" lon="-5.298417">
        <ele>2034.0</ele>
        <time>2013-06-30T14:18:59Z</time>
      </trkpt>
      <trkpt lat="40.168933" lon="-5.298550">
        <ele>2033.0</ele>
        <time>2013-06-30T14:19:00Z</time>
      </trkpt>
      <trkpt lat="40.168933" lon="-5.298683">
        <ele>2030.0</ele>
        <time>2013-06-30T14:19:01Z</time>
      </trkpt>
      <trkpt lat="40.168933" lon="-5.298850">
        <ele>2028.0</ele>
        <time>2013-06-30T14:19:02Z</time>
      </trkpt>
      <trkpt lat="40.168950" lon="-5.299017">
        <ele>2025.0</ele>
        <time>2013-06-30T14:19:03Z</time>
      </trkpt>
      <trkpt lat="40.168950" lon="-5.299183">
        <ele>2023.0</ele>
        <time>2013-06-30T14:19:04Z</time>
      </trkpt>
      <trkpt lat="40.168933" lon="-5.299350">
        <ele>2023.0</ele>
        <time>2013-06-30T14:19:05Z</time>
      </trkpt>
      <trkpt lat="40.168933" lon="-5.299500">
        <ele>2026.0</ele>
        <time>2013-06-30T14:19:06Z</time>
      </trkpt>
      <trkpt lat="40.168917" lon="-5.299633">
        <ele>2027.0</ele>
        <time>2013-06-30T14:19:07Z</time>
      </trkpt>
      <trkpt lat="40.168900" lon="-5.299750">
        <ele>2029.0</ele>
        <time>2013-06-30T14:19:08Z</time>
      </trkpt>
      <trkpt lat="40.168867" lon="-5.299867">
        <ele>2030.0</ele>
        <time>2013-06-30T14:19:09Z</time>
      </trkpt>
      <trkpt lat="40.168833" lon="-5.299983">
        <ele>2030.0</ele>
        <time>2013-06-30T14:19:10Z</time>
      </trkpt>
      <trkpt lat="40.168783" lon="-5.300100">
        <ele>2030.0</ele>
        <time>2013-06-30T14:19:11Z</time>
      </trkpt>
      <trkpt lat="40.168733" lon="-5.300217">
        <ele>2031.0</ele>
        <time>2013-06-30T14:19:12Z</time>
      </trkpt>
      <trkpt lat="40.168667" lon="-5.300317">
        <ele>2031.0</ele>
        <time>2013-06-30T14:19:13Z</time>
      </trkpt>
      <trkpt lat="40.168617" lon="-5.300400">
        <ele>2032.0</ele>
        <time>2013-06-30T14:19:14Z</time>
      </trkpt>
      <trkpt lat="40.168550" lon="-5.300467">
        <ele>2033.0</ele>
        <time>2013-06-30T14:19:15Z</time>
      </trkpt>
      <trkpt lat="40.168483" lon="-5.300533">
        <ele>2033.0</ele>
        <time>2013-06-30T14:19:16Z</time>
      </trkpt>
      <trkpt lat="40.168417" lon="-5.300600">
        <ele>2034.0</ele>
        <time>2013-06-30T14:19:17Z</time>
      </trkpt>
      <trkpt lat="40.168350" lon="-5.300667">
        <ele>2034.0</ele>
        <time>2013-06-30T14:19:18Z</time>
      </trkpt>
      <trkpt lat="40.168283" lon="-5.300750">
        <ele>2035.0</ele>
        <time>2013-06-30T14:19:19Z</time>
      </trkpt>
      <trkpt lat="40.168217" lon="-5.300817">
        <ele>2036.0</ele>
        <time>2013-06-30T14:19:20Z</time>
      </trkpt>
      <trkpt lat="40.168150" lon="-5.300883">
        <ele>2036.0</ele>
        <time>2013-06-30T14:19:21Z</time>
      </trkpt>
      <trkpt lat="40.168083" lon="-5.300933">
        <ele>2036.0</ele>
        <time>2013-06-30T14:19:22Z</time>
      </trkpt>
      <trkpt lat="40.168017" lon="-5.301000">
        <ele>2035.0</ele>
        <time>2013-06-30T14:19:23Z</time>
      </trkpt>
      <trkpt lat="40.167950" lon="-5.301050">
        <ele>2035.0</ele>
        <time>2013-06-30T14:19:24Z</time>
      </trkpt>
      <trkpt lat="40.167883" lon="-5.301117">
        <ele>2036.0</ele>
        <time>2013-06-30T14:19:25Z</time>
      </trkpt>
      <trkpt lat="40.167833" lon="-5.301183">
        <ele>2037.0</ele>
        <time>2013-06-30T14:19:26Z</time>
      </trkpt>
      <trkpt lat="40.167783" lon="-5.301267">
        <ele>2037.0</ele>
        <time>2013-06-30T14:19:27Z</time>
      </trkpt>
      <trkpt lat="40.167717" lon="-5.301367">
        <ele>2038.0</ele>
        <time>2013-06-30T14:19:28Z</time>
      </trkpt>
      <trkpt lat="40.167650" lon="-5.301467">
        <ele>2037.0</ele>
        <time>2013-06-30T14:19:29Z</time>
      </trkpt>
      <trkpt lat="40.167583" lon="-5.301583">
        <ele>2037.0</ele>
        <time>2013-06-30T14:19:30Z</time>
      </trkpt>
      <trkpt lat="40.167517" lon="-5.301683">
        <ele>2037.0</ele>
        <time>2013-06-30T14:19:31Z</time>
      </trkpt>
      <trkpt lat="40.167450" lon="-5.301767">
        <ele>2038.0</ele>
        <time>2013-06-30T14:19:32Z</time>
      </trkpt>
      <trkpt lat="40.167383" lon="-5.301867">
        <ele>2039.0</ele>
        <time>2013-06-30T14:19:33Z</time>
      </trkpt>
      <trkpt lat="40.167333" lon="-5.301967">
        <ele>2039.0</ele>
        <time>2013-06-30T14:19:34Z</time>
      </trkpt>
      <trkpt lat="40.167267" lon="-5.302067">
        <ele>2039.0</ele>
        <time>2013-06-30T14:19:35Z</time>
      </trkpt>
      <trkpt lat="40.167200" lon="-5.302183">
        <ele>2040.0</ele>
        <time>2013-06-30T14:19:36Z</time>
      </trkpt>
      <trkpt lat="40.167133" lon="-5.302283">
        <ele>2040.0</ele>
        <time>2013-06-30T14:19:37Z</time>
      </trkpt>
      <trkpt lat="40.167067" lon="-5.302383">
        <ele>2039.0</ele>
        <time>2013-06-30T14:19:38Z</time>
      </trkpt>
      <trkpt lat="40.167000" lon="-5.302500">
        <ele>2039.0</ele>
        <time>2013-06-30T14:19:39Z</time>
      </trkpt>
      <trkpt lat="40.166933" lon="-5.302600">
        <ele>2039.0</ele>
        <time>2013-06-30T14:19:40Z</time>
      </trkpt>
      <trkpt lat="40.166867" lon="-5.302700">
        <ele>2040.0</ele>
        <time>2013-06-30T14:19:41Z</time>
      </trkpt>
      <trkpt lat="40.166817" lon="-5.302800">
        <ele>2040.0</ele>
        <time>2013-06-30T14:19:42Z</time>
      </trkpt>
      <trkpt lat="40.166750" lon="-5.302900">
        <ele>2041.0</ele>
        <time>2013-06-30T14:19:43Z</time>
      </trkpt>
      <trkpt lat="40.166683" lon="-5.303000">
        <ele>2042.0</ele>
        <time>2013-06-30T14:19:44Z</time>
      </trkpt>
      <trkpt lat="40.166633" lon="-5.303083">
        <ele>2043.0</ele>
        <time>2013-06-30T14:19:45Z</time>
      </trkpt>
      <trkpt lat="40.166567" lon="-5.303183">
        <ele>2043.0</ele>
        <time>2013-06-30T14:19:46Z</time>
      </trkpt>
      <trkpt lat="40.166500" lon="-5.303283">
        <ele>2043.0</ele>
        <time>2013-06-30T14:19:47Z</time>
      </trkpt>
      <trkpt lat="40.166433" lon="-5.303400">
        <ele>2043.0</ele>
        <time>2013-06-30T14:19:48Z</time>
      </trkpt>
      <trkpt lat="40.166367" lon="-5.303500">
        <ele>2043.0</ele>
        <time>2013-06-30T14:19:49Z</time>
      </trkpt>
      <trkpt lat="40.166317" lon="-5.303617">
        <ele>2044.0</ele>
        <time>2013-06-30T14:19:50Z</time>
      </trkpt>
      <trkpt lat="40.166250" lon="-5.303733">
        <ele>2044.0</ele>
        <time>2013-06-30T14:19:51Z</time>
      </trkpt>
      <trkpt lat="40.166200" lon="-5.303850">
        <ele>2045.0</ele>
        <time>2013-06-30T14:19:52Z</time>
      </trkpt>
      <trkpt lat="40.166150" lon="-5.303983">
        <ele>2045.0</ele>
        <time>2013-06-30T14:19:53Z</time>
      </trkpt>
      <trkpt lat="40.166083" lon="-5.304100">
        <ele>2045.0</ele>
        <time>2013-06-30T14:19:54Z</time>
      </trkpt>
      <trkpt lat="40.166017" lon="-5.304217">
        <ele>2045.0</ele>
        <time>2013-06-30T14:19:55Z</time>
      </trkpt>
      <trkpt lat="40.165950" lon="-5.304333">
        <ele>2045.0</ele>
        <time>2013-06-30T14:19:56Z</time>
      </trkpt>
      <trkpt lat="40.165917" lon="-5.304450">
        <ele>2046.0</ele>
        <time>2013-06-30T14:19:57Z</time>
      </trkpt>
      <trkpt lat="40.165883" lon="-5.304550">
        <ele>2047.0</ele>
        <time>2013-06-30T14:19:58Z</time>
      </trkpt>
      <trkpt lat="40.165850" lon="-5.304650">
        <ele>2048.0</ele>
        <time>2013-06-30T14:19:59Z</time>
      </trkpt>
      <trkpt lat="40.165800" lon="-5.304750">
        <ele>2049.0</ele>
        <time>2013-06-30T14:20:00Z</time>
      </trkpt>
      <trkpt lat="40.165750" lon="-5.304867">
        <ele>2048.0</ele>
        <time>2013-06-30T14:20:01Z</time>
      </trkpt>
      <trkpt lat="40.165700" lon="-5.304983">
        <ele>2046.0</ele>
        <time>2013-06-30T14:20:02Z</time>
      </trkpt>
      <trkpt lat="40.165650" lon="-5.305100">
        <ele>2045.0</ele>
        <time>2013-06-30T14:20:03Z</time>
      </trkpt>
      <trkpt lat="40.165617" lon="-5.305233">
        <ele>2045.0</ele>
        <time>2013-06-30T14:20:04Z</time>
      </trkpt>
      <trkpt lat="40.165583" lon="-5.305367">
        <ele>2044.0</ele>
        <time>2013-06-30T14:20:05Z</time>
      </trkpt>
      <trkpt lat="40.165550" lon="-5.305500">
        <ele>2043.0</ele>
        <time>2013-06-30T14:20:06Z</time>
      </trkpt>
      <trkpt lat="40.165500" lon="-5.305633">
        <ele>2042.0</ele>
        <time>2013-06-30T14:20:07Z</time>
      </trkpt>
      <trkpt lat="40.165467" lon="-5.305783">
        <ele>2041.0</ele>
        <time>2013-06-30T14:20:08Z</time>
      </trkpt>
      <trkpt lat="40.165417" lon="-5.305900">
        <ele>2040.0</ele>
        <time>2013-06-30T14:20:09Z</time>
      </trkpt>
      <trkpt lat="40.165383" lon="-5.306033">
        <ele>2040.0</ele>
        <time>2013-06-30T14:20:10Z</time>
      </trkpt>
      <trkpt lat="40.165333" lon="-5.306150">
        <ele>2039.0</ele>
        <time>2013-06-30T14:20:11Z</time>
      </trkpt>
      <trkpt lat="40.165300" lon="-5.306283">
        <ele>2037.0</ele>
        <time>2013-06-30T14:20:12Z</time>
      </trkpt>
      <trkpt lat="40.165250" lon="-5.306417">
        <ele>2035.0</ele>
        <time>2013-06-30T14:20:13Z</time>
      </trkpt>
      <trkpt lat="40.165200" lon="-5.306550">
        <ele>2033.0</ele>
        <time>2013-06-30T14:20:14Z</time>
      </trkpt>
      <trkpt lat="40.165167" lon="-5.306683">
        <ele>2030.0</ele>
        <time>2013-06-30T14:20:15Z</time>
      </trkpt>
      <trkpt lat="40.165117" lon="-5.306817">
        <ele>2028.0</ele>
        <time>2013-06-30T14:20:16Z</time>
      </trkpt>
      <trkpt lat="40.165083" lon="-5.306967">
        <ele>2025.0</ele>
        <time>2013-06-30T14:20:17Z</time>
      </trkpt>
      <trkpt lat="40.165033" lon="-5.307100">
        <ele>2023.0</ele>
        <time>2013-06-30T14:20:18Z</time>
      </trkpt>
      <trkpt lat="40.164983" lon="-5.307233">
        <ele>2021.0</ele>
        <time>2013-06-30T14:20:19Z</time>
      </trkpt>
      <trkpt lat="40.164950" lon="-5.307350">
        <ele>2018.0</ele>
        <time>2013-06-30T14:20:20Z</time>
      </trkpt>
      <trkpt lat="40.164900" lon="-5.307467">
        <ele>2015.0</ele>
        <time>2013-06-30T14:20:21Z</time>
      </trkpt>
      <trkpt lat="40.164867" lon="-5.307600">
        <ele>2012.0</ele>
        <time>2013-06-30T14:20:22Z</time>
      </trkpt>
      <trkpt lat="40.164817" lon="-5.307750">
        <ele>2008.0</ele>
        <time>2013-06-30T14:20:23Z</time>
      </trkpt>
      <trkpt lat="40.164783" lon="-5.307900">
        <ele>2005.0</ele>
        <time>2013-06-30T14:20:24Z</time>
      </trkpt>
      <trkpt lat="40.164733" lon="-5.308017">
        <ele>2002.0</ele>
        <time>2013-06-30T14:20:25Z</time>
      </trkpt>
      <trkpt lat="40.164683" lon="-5.308150">
        <ele>1999.0</ele>
        <time>2013-06-30T14:20:26Z</time>
      </trkpt>
      <trkpt lat="40.164617" lon="-5.308300">
        <ele>1996.0</ele>
        <time>2013-06-30T14:20:27Z</time>
      </trkpt>
      <trkpt lat="40.164567" lon="-5.308433">
        <ele>1994.0</ele>
        <time>2013-06-30T14:20:28Z</time>
      </trkpt>
      <trkpt lat="40.164517" lon="-5.308567">
        <ele>1991.0</ele>
        <time>2013-06-30T14:20:29Z</time>
      </trkpt>
      <trkpt lat="40.164450" lon="-5.308683">
        <ele>1989.0</ele>
        <time>2013-06-30T14:20:30Z</time>
      </trkpt>
      <trkpt lat="40.164400" lon="-5.308800">
        <ele>1987.0</ele>
        <time>2013-06-30T14:20:31Z</time>
      </trkpt>
      <trkpt lat="40.164350" lon="-5.308917">
        <ele>1985.0</ele>
        <time>2013-06-30T14:20:32Z</time>
      </trkpt>
      <trkpt lat="40.164300" lon="-5.309050">
        <ele>1982.0</ele>
        <time>2013-06-30T14:20:33Z</time>
      </trkpt>
      <trkpt lat="40.164250" lon="-5.309167">
        <ele>1980.0</ele>
        <time>2013-06-30T14:20:34Z</time>
      </trkpt>
      <trkpt lat="40.164217" lon="-5.309300">
        <ele>1977.0</ele>
        <time>2013-06-30T14:20:35Z</time>
      </trkpt>
      <trkpt lat="40.164117" lon="-5.309550">
        <ele>1971.0</ele>
        <time>2013-06-30T14:20:37Z</time>
      </trkpt>
      <trkpt lat="40.164050" lon="-5.309700">
        <ele>1969.0</ele>
        <time>2013-06-30T14:20:38Z</time>
      </trkpt>
      <trkpt lat="40.164000" lon="-5.309833">
        <ele>1966.0</ele>
        <time>2013-06-30T14:20:39Z</time>
      </trkpt>
      <trkpt lat="40.163950" lon="-5.309950">
        <ele>1964.0</ele>
        <time>2013-06-30T14:20:40Z</time>
      </trkpt>
      <trkpt lat="40.163917" lon="-5.310083">
        <ele>1961.0</ele>
        <time>2013-06-30T14:20:41Z</time>
      </trkpt>
      <trkpt lat="40.163867" lon="-5.310217">
        <ele>1958.0</ele>
        <time>2013-06-30T14:20:42Z</time>
      </trkpt>
      <trkpt lat="40.163817" lon="-5.310350">
        <ele>1955.0</ele>
        <time>2013-06-30T14:20:43Z</time>
      </trkpt>
      <trkpt lat="40.163767" lon="-5.310500">
        <ele>1951.0</ele>
        <time>2013-06-30T14:20:44Z</time>
      </trkpt>
      <trkpt lat="40.163667" lon="-5.310783">
        <ele>1944.0</ele>
        <time>2013-06-30T14:20:46Z</time>
      </trkpt>
      <trkpt lat="40.163567" lon="-5.311033">
        <ele>1937.0</ele>
        <time>2013-06-30T14:20:48Z</time>
      </trkpt>
      <trkpt lat="40.163517" lon="-5.311150">
        <ele>1934.0</ele>
        <time>2013-06-30T14:20:49Z</time>
      </trkpt>
      <trkpt lat="40.163450" lon="-5.311283">
        <ele>1931.0</ele>
        <time>2013-06-30T14:20:50Z</time>
      </trkpt>
      <trkpt lat="40.163400" lon="-5.311417">
        <ele>1928.0</ele>
        <time>2013-06-30T14:20:51Z</time>
      </trkpt>
      <trkpt lat="40.163300" lon="-5.311650">
        <ele>1923.0</ele>
        <time>2013-06-30T14:20:53Z</time>
      </trkpt>
      <trkpt lat="40.163250" lon="-5.311767">
        <ele>1921.0</ele>
        <time>2013-06-30T14:20:54Z</time>
      </trkpt>
      <trkpt lat="40.163200" lon="-5.311900">
        <ele>1919.0</ele>
        <time>2013-06-30T14:20:55Z</time>
      </trkpt>
      <trkpt lat="40.163150" lon="-5.312017">
        <ele>1916.0</ele>
        <time>2013-06-30T14:20:56Z</time>
      </trkpt>
      <trkpt lat="40.163100" lon="-5.312133">
        <ele>1914.0</ele>
        <time>2013-06-30T14:20:57Z</time>
      </trkpt>
      <trkpt lat="40.163067" lon="-5.312250">
        <ele>1912.0</ele>
        <time>2013-06-30T14:20:58Z</time>
      </trkpt>
      <trkpt lat="40.163017" lon="-5.312367">
        <ele>1910.0</ele>
        <time>2013-06-30T14:20:59Z</time>
      </trkpt>
      <trkpt lat="40.162967" lon="-5.312500">
        <ele>1909.0</ele>
        <time>2013-06-30T14:21:00Z</time>
      </trkpt>
      <trkpt lat="40.162933" lon="-5.312633">
        <ele>1906.0</ele>
        <time>2013-06-30T14:21:01Z</time>
      </trkpt>
      <trkpt lat="40.162883" lon="-5.312767">
        <ele>1904.0</ele>
        <time>2013-06-30T14:21:02Z</time>
      </trkpt>
      <trkpt lat="40.162833" lon="-5.312900">
        <ele>1902.0</ele>
        <time>2013-06-30T14:21:03Z</time>
      </trkpt>
      <trkpt lat="40.162800" lon="-5.313017">
        <ele>1900.0</ele>
        <time>2013-06-30T14:21:04Z</time>
      </trkpt>
      <trkpt lat="40.162750" lon="-5.313133">
        <ele>1898.0</ele>
        <time>2013-06-30T14:21:05Z</time>
      </trkpt>
      <trkpt lat="40.162700" lon="-5.313267">
        <ele>1896.0</ele>
        <time>2013-06-30T14:21:06Z</time>
      </trkpt>
      <trkpt lat="40.162617" lon="-5.313550">
        <ele>1888.0</ele>
        <time>2013-06-30T14:21:08Z</time>
      </trkpt>
      <trkpt lat="40.162583" lon="-5.313700">
        <ele>1885.0</ele>
        <time>2013-06-30T14:21:09Z</time>
      </trkpt>
      <trkpt lat="40.162517" lon="-5.313967">
        <ele>1879.0</ele>
        <time>2013-06-30T14:21:11Z</time>
      </trkpt>
      <trkpt lat="40.162467" lon="-5.314100">
        <ele>1876.0</ele>
        <time>2013-06-30T14:21:12Z</time>
      </trkpt>
      <trkpt lat="40.162417" lon="-5.314233">
        <ele>1872.0</ele>
        <time>2013-06-30T14:21:13Z</time>
      </trkpt>
      <trkpt lat="40.162367" lon="-5.314383">
        <ele>1868.0</ele>
        <time>2013-06-30T14:21:14Z</time>
      </trkpt>
      <trkpt lat="40.162317" lon="-5.314517">
        <ele>1865.0</ele>
        <time>2013-06-30T14:21:15Z</time>
      </trkpt>
      <trkpt lat="40.162267" lon="-5.314650">
        <ele>1863.0</ele>
        <time>2013-06-30T14:21:16Z</time>
      </trkpt>
      <trkpt lat="40.162217" lon="-5.314750">
        <ele>1862.0</ele>
        <time>2013-06-30T14:21:17Z</time>
      </trkpt>
      <trkpt lat="40.162183" lon="-5.314867">
        <ele>1860.0</ele>
        <time>2013-06-30T14:21:18Z</time>
      </trkpt>
      <trkpt lat="40.162117" lon="-5.314983">
        <ele>1857.0</ele>
        <time>2013-06-30T14:21:19Z</time>
      </trkpt>
      <trkpt lat="40.162067" lon="-5.315117">
        <ele>1852.0</ele>
        <time>2013-06-30T14:21:20Z</time>
      </trkpt>
      <trkpt lat="40.162000" lon="-5.315250">
        <ele>1849.0</ele>
        <time>2013-06-30T14:21:21Z</time>
      </trkpt>
      <trkpt lat="40.161933" lon="-5.315383">
        <ele>1846.0</ele>
        <time>2013-06-30T14:21:22Z</time>
      </trkpt>
      <trkpt lat="40.161883" lon="-5.315517">
        <ele>1844.0</ele>
        <time>2013-06-30T14:21:23Z</time>
      </trkpt>
      <trkpt lat="40.161817" lon="-5.315633">
        <ele>1842.0</ele>
        <time>2013-06-30T14:21:24Z</time>
      </trkpt>
      <trkpt lat="40.161767" lon="-5.315750">
        <ele>1839.0</ele>
        <time>2013-06-30T14:21:25Z</time>
      </trkpt>
      <trkpt lat="40.161650" lon="-5.316000">
        <ele>1834.0</ele>
        <time>2013-06-30T14:21:27Z</time>
      </trkpt>
      <trkpt lat="40.161583" lon="-5.316133">
        <ele>1831.0</ele>
        <time>2013-06-30T14:21:28Z</time>
      </trkpt>
      <trkpt lat="40.161533" lon="-5.316250">
        <ele>1828.0</ele>
        <time>2013-06-30T14:21:29Z</time>
      </trkpt>
      <trkpt lat="40.161483" lon="-5.316367">
        <ele>1826.0</ele>
        <time>2013-06-30T14:21:30Z</time>
      </trkpt>
      <trkpt lat="40.161433" lon="-5.316483">
        <ele>1823.0</ele>
        <time>2013-06-30T14:21:31Z</time>
      </trkpt>
      <trkpt lat="40.161367" lon="-5.316617">
        <ele>1820.0</ele>
        <time>2013-06-30T14:21:32Z</time>
      </trkpt>
      <trkpt lat="40.161317" lon="-5.316750">
        <ele>1816.0</ele>
        <time>2013-06-30T14:21:33Z</time>
      </trkpt>
      <trkpt lat="40.161267" lon="-5.316883">
        <ele>1814.0</ele>
        <time>2013-06-30T14:21:34Z</time>
      </trkpt>
      <trkpt lat="40.161217" lon="-5.317017">
        <ele>1812.0</ele>
        <time>2013-06-30T14:21:35Z</time>
      </trkpt>
      <trkpt lat="40.161167" lon="-5.317117">
        <ele>1810.0</ele>
        <time>2013-06-30T14:21:36Z</time>
      </trkpt>
      <trkpt lat="40.161117" lon="-5.317233">
        <ele>1808.0</ele>
        <time>2013-06-30T14:21:37Z</time>
      </trkpt>
      <trkpt lat="40.161067" lon="-5.317350">
        <ele>1805.0</ele>
        <time>2013-06-30T14:21:38Z</time>
      </trkpt>
      <trkpt lat="40.161000" lon="-5.317467">
        <ele>1801.0</ele>
        <time>2013-06-30T14:21:39Z</time>
      </trkpt>
      <trkpt lat="40.160950" lon="-5.317600">
        <ele>1798.0</ele>
        <time>2013-06-30T14:21:40Z</time>
      </trkpt>
      <trkpt lat="40.160883" lon="-5.317733">
        <ele>1794.0</ele>
        <time>2013-06-30T14:21:41Z</time>
      </trkpt>
      <trkpt lat="40.160833" lon="-5.317867">
        <ele>1792.0</ele>
        <time>2013-06-30T14:21:42Z</time>
      </trkpt>
      <trkpt lat="40.160767" lon="-5.317983">
        <ele>1789.0</ele>
        <time>2013-06-30T14:21:43Z</time>
      </trkpt>
      <trkpt lat="40.160717" lon="-5.318117">
        <ele>1787.0</ele>
        <time>2013-06-30T14:21:44Z</time>
      </trkpt>
      <trkpt lat="40.160667" lon="-5.318250">
        <ele>1784.0</ele>
        <time>2013-06-30T14:21:45Z</time>
      </trkpt>
      <trkpt lat="40.160550" lon="-5.318517">
        <ele>1779.0</ele>
        <time>2013-06-30T14:21:47Z</time>
      </trkpt>
      <trkpt lat="40.160500" lon="-5.318650">
        <ele>1777.0</ele>
        <time>2013-06-30T14:21:48Z</time>
      </trkpt>
      <trkpt lat="40.160467" lon="-5.318767">
        <ele>1775.0</ele>
        <time>2013-06-30T14:21:49Z</time>
      </trkpt>
      <trkpt lat="40.160417" lon="-5.318900">
        <ele>1772.0</ele>
        <time>2013-06-30T14:21:50Z</time>
      </trkpt>
      <trkpt lat="40.160383" lon="-5.319017">
        <ele>1770.0</ele>
        <time>2013-06-30T14:21:51Z</time>
      </trkpt>
      <trkpt lat="40.160333" lon="-5.319150">
        <ele>1768.0</ele>
        <time>2013-06-30T14:21:52Z</time>
      </trkpt>
      <trkpt lat="40.160300" lon="-5.319283">
        <ele>1766.0</ele>
        <time>2013-06-30T14:21:53Z</time>
      </trkpt>
      <trkpt lat="40.160267" lon="-5.319417">
        <ele>1763.0</ele>
        <time>2013-06-30T14:21:54Z</time>
      </trkpt>
      <trkpt lat="40.160217" lon="-5.319550">
        <ele>1760.0</ele>
        <time>2013-06-30T14:21:55Z</time>
      </trkpt>
      <trkpt lat="40.160183" lon="-5.319667">
        <ele>1758.0</ele>
        <time>2013-06-30T14:21:56Z</time>
      </trkpt>
      <trkpt lat="40.160067" lon="-5.320017">
        <ele>1750.0</ele>
        <time>2013-06-30T14:21:59Z</time>
      </trkpt>
      <trkpt lat="40.160017" lon="-5.320133">
        <ele>1747.0</ele>
        <time>2013-06-30T14:22:00Z</time>
      </trkpt>
      <trkpt lat="40.159983" lon="-5.320250">
        <ele>1744.0</ele>
        <time>2013-06-30T14:22:01Z</time>
      </trkpt>
      <trkpt lat="40.159933" lon="-5.320367">
        <ele>1742.0</ele>
        <time>2013-06-30T14:22:02Z</time>
      </trkpt>
      <trkpt lat="40.159900" lon="-5.320483">
        <ele>1740.0</ele>
        <time>2013-06-30T14:22:03Z</time>
      </trkpt>
      <trkpt lat="40.159850" lon="-5.320600">
        <ele>1738.0</ele>
        <time>2013-06-30T14:22:04Z</time>
      </trkpt>
      <trkpt lat="40.159800" lon="-5.320717">
        <ele>1736.0</ele>
        <time>2013-06-30T14:22:05Z</time>
      </trkpt>
      <trkpt lat="40.159750" lon="-5.320833">
        <ele>1734.0</ele>
        <time>2013-06-30T14:22:06Z</time>
      </trkpt>
      <trkpt lat="40.159717" lon="-5.320967">
        <ele>1732.0</ele>
        <time>2013-06-30T14:22:07Z</time>
      </trkpt>
      <trkpt lat="40.159667" lon="-5.321117">
        <ele>1730.0</ele>
        <time>2013-06-30T14:22:08Z</time>
      </trkpt>
      <trkpt lat="40.159617" lon="-5.321267">
        <ele>1728.0</ele>
        <time>2013-06-30T14:22:09Z</time>
      </trkpt>
      <trkpt lat="40.159567" lon="-5.321400">
        <ele>1726.0</ele>
        <time>2013-06-30T14:22:10Z</time>
      </trkpt>
      <trkpt lat="40.159500" lon="-5.321533">
        <ele>1724.0</ele>
        <time>2013-06-30T14:22:11Z</time>
      </trkpt>
      <trkpt lat="40.159433" lon="-5.321650">
        <ele>1722.0</ele>
        <time>2013-06-30T14:22:12Z</time>
      </trkpt>
      <trkpt lat="40.159317" lon="-5.321917">
        <ele>1717.0</ele>
        <time>2013-06-30T14:22:14Z</time>
      </trkpt>
      <trkpt lat="40.159200" lon="-5.322150">
        <ele>1712.0</ele>
        <time>2013-06-30T14:22:16Z</time>
      </trkpt>
      <trkpt lat="40.159150" lon="-5.322267">
        <ele>1709.0</ele>
        <time>2013-06-30T14:22:17Z</time>
      </trkpt>
      <trkpt lat="40.159100" lon="-5.322383">
        <ele>1706.0</ele>
        <time>2013-06-30T14:22:18Z</time>
      </trkpt>
      <trkpt lat="40.159050" lon="-5.322517">
        <ele>1703.0</ele>
        <time>2013-06-30T14:22:19Z</time>
      </trkpt>
      <trkpt lat="40.159017" lon="-5.322667">
        <ele>1700.0</ele>
        <time>2013-06-30T14:22:20Z</time>
      </trkpt>
      <trkpt lat="40.158967" lon="-5.322800">
        <ele>1699.0</ele>
        <time>2013-06-30T14:22:21Z</time>
      </trkpt>
      <trkpt lat="40.158883" lon="-5.323050">
        <ele>1696.0</ele>
        <time>2013-06-30T14:22:23Z</time>
      </trkpt>
      <trkpt lat="40.158850" lon="-5.323167">
        <ele>1695.0</ele>
        <time>2013-06-30T14:22:24Z</time>
      </trkpt>
      <trkpt lat="40.158800" lon="-5.323300">
        <ele>1694.0</ele>
        <time>2013-06-30T14:22:25Z</time>
      </trkpt>
      <trkpt lat="40.158767" lon="-5.323417">
        <ele>1693.0</ele>
        <time>2013-06-30T14:22:26Z</time>
      </trkpt>
      <trkpt lat="40.158733" lon="-5.323550">
        <ele>1692.0</ele>
        <time>2013-06-30T14:22:27Z</time>
      </trkpt>
      <trkpt lat="40.158683" lon="-5.323683">
        <ele>1690.0</ele>
        <time>2013-06-30T14:22:28Z</time>
      </trkpt>
      <trkpt lat="40.158650" lon="-5.323817">
        <ele>1688.0</ele>
        <time>2013-06-30T14:22:29Z</time>
      </trkpt>
      <trkpt lat="40.158600" lon="-5.324067">
        <ele>1687.0</ele>
        <time>2013-06-30T14:22:31Z</time>
      </trkpt>
      <trkpt lat="40.158567" lon="-5.324183">
        <ele>1687.0</ele>
        <time>2013-06-30T14:22:32Z</time>
      </trkpt>
      <trkpt lat="40.158533" lon="-5.324300">
        <ele>1686.0</ele>
        <time>2013-06-30T14:22:33Z</time>
      </trkpt>
      <trkpt lat="40.158500" lon="-5.324417">
        <ele>1686.0</ele>
        <time>2013-06-30T14:22:34Z</time>
      </trkpt>
      <trkpt lat="40.158417" lon="-5.324667">
        <ele>1684.0</ele>
        <time>2013-06-30T14:22:36Z</time>
      </trkpt>
      <trkpt lat="40.158350" lon="-5.324900">
        <ele>1684.0</ele>
        <time>2013-06-30T14:22:38Z</time>
      </trkpt>
      <trkpt lat="40.158317" lon="-5.325000">
        <ele>1684.0</ele>
        <time>2013-06-30T14:22:39Z</time>
      </trkpt>
      <trkpt lat="40.158283" lon="-5.325100">
        <ele>1683.0</ele>
        <time>2013-06-30T14:22:40Z</time>
      </trkpt>
      <trkpt lat="40.158233" lon="-5.325233">
        <ele>1680.0</ele>
        <time>2013-06-30T14:22:41Z</time>
      </trkpt>
      <trkpt lat="40.158200" lon="-5.325367">
        <ele>1678.0</ele>
        <time>2013-06-30T14:22:42Z</time>
      </trkpt>
      <trkpt lat="40.158167" lon="-5.325500">
        <ele>1676.0</ele>
        <time>2013-06-30T14:22:43Z</time>
      </trkpt>
      <trkpt lat="40.158133" lon="-5.325633">
        <ele>1675.0</ele>
        <time>2013-06-30T14:22:44Z</time>
      </trkpt>
      <trkpt lat="40.158100" lon="-5.325750">
        <ele>1674.0</ele>
        <time>2013-06-30T14:22:45Z</time>
      </trkpt>
      <trkpt lat="40.158083" lon="-5.325867">
        <ele>1673.0</ele>
        <time>2013-06-30T14:22:46Z</time>
      </trkpt>
      <trkpt lat="40.158050" lon="-5.325967">
        <ele>1673.0</ele>
        <time>2013-06-30T14:22:47Z</time>
      </trkpt>
      <trkpt lat="40.158033" lon="-5.326083">
        <ele>1672.0</ele>
        <time>2013-06-30T14:22:48Z</time>
      </trkpt>
      <trkpt lat="40.158017" lon="-5.326217">
        <ele>1670.0</ele>
        <time>2013-06-30T14:22:49Z</time>
      </trkpt>
      <trkpt lat="40.157983" lon="-5.326350">
        <ele>1669.0</ele>
        <time>2013-06-30T14:22:50Z</time>
      </trkpt>
      <trkpt lat="40.157967" lon="-5.326483">
        <ele>1667.0</ele>
        <time>2013-06-30T14:22:51Z</time>
      </trkpt>
      <trkpt lat="40.157900" lon="-5.326733">
        <ele>1664.0</ele>
        <time>2013-06-30T14:22:53Z</time>
      </trkpt>
      <trkpt lat="40.157883" lon="-5.326850">
        <ele>1663.0</ele>
        <time>2013-06-30T14:22:54Z</time>
      </trkpt>
      <trkpt lat="40.157850" lon="-5.326983">
        <ele>1662.0</ele>
        <time>2013-06-30T14:22:55Z</time>
      </trkpt>
      <trkpt lat="40.157817" lon="-5.327117">
        <ele>1660.0</ele>
        <time>2013-06-30T14:22:56Z</time>
      </trkpt>
      <trkpt lat="40.157800" lon="-5.327250">
        <ele>1658.0</ele>
        <time>2013-06-30T14:22:57Z</time>
      </trkpt>
      <trkpt lat="40.157767" lon="-5.327383">
        <ele>1657.0</ele>
        <time>2013-06-30T14:22:58Z</time>
      </trkpt>
      <trkpt lat="40.157717" lon="-5.327500">
        <ele>1655.0</ele>
        <time>2013-06-30T14:22:59Z</time>
      </trkpt>
      <trkpt lat="40.157683" lon="-5.327617">
        <ele>1654.0</ele>
        <time>2013-06-30T14:23:00Z</time>
      </trkpt>
      <trkpt lat="40.157633" lon="-5.327733">
        <ele>1653.0</ele>
        <time>2013-06-30T14:23:01Z</time>
      </trkpt>
      <trkpt lat="40.157583" lon="-5.327833">
        <ele>1651.0</ele>
        <time>2013-06-30T14:23:02Z</time>
      </trkpt>
      <trkpt lat="40.157533" lon="-5.327933">
        <ele>1649.0</ele>
        <time>2013-06-30T14:23:03Z</time>
      </trkpt>
      <trkpt lat="40.157467" lon="-5.328050">
        <ele>1647.0</ele>
        <time>2013-06-30T14:23:04Z</time>
      </trkpt>
      <trkpt lat="40.157400" lon="-5.328150">
        <ele>1646.0</ele>
        <time>2013-06-30T14:23:05Z</time>
      </trkpt>
      <trkpt lat="40.157367" lon="-5.328267">
        <ele>1645.0</ele>
        <time>2013-06-30T14:23:06Z</time>
      </trkpt>
      <trkpt lat="40.157317" lon="-5.328383">
        <ele>1644.0</ele>
        <time>2013-06-30T14:23:07Z</time>
      </trkpt>
      <trkpt lat="40.157283" lon="-5.328500">
        <ele>1642.0</ele>
        <time>2013-06-30T14:23:08Z</time>
      </trkpt>
      <trkpt lat="40.157250" lon="-5.328633">
        <ele>1640.0</ele>
        <time>2013-06-30T14:23:09Z</time>
      </trkpt>
      <trkpt lat="40.157217" lon="-5.328767">
        <ele>1638.0</ele>
        <time>2013-06-30T14:23:10Z</time>
      </trkpt>
      <trkpt lat="40.157150" lon="-5.329017">
        <ele>1634.0</ele>
        <time>2013-06-30T14:23:12Z</time>
      </trkpt>
      <trkpt lat="40.157117" lon="-5.329133">
        <ele>1633.0</ele>
        <time>2013-06-30T14:23:13Z</time>
      </trkpt>
      <trkpt lat="40.157100" lon="-5.329250">
        <ele>1631.0</ele>
        <time>2013-06-30T14:23:14Z</time>
      </trkpt>
      <trkpt lat="40.157067" lon="-5.329367">
        <ele>1630.0</ele>
        <time>2013-06-30T14:23:15Z</time>
      </trkpt>
      <trkpt lat="40.157050" lon="-5.329500">
        <ele>1628.0</ele>
        <time>2013-06-30T14:23:16Z</time>
      </trkpt>
      <trkpt lat="40.157017" lon="-5.329633">
        <ele>1626.0</ele>
        <time>2013-06-30T14:23:17Z</time>
      </trkpt>
      <trkpt lat="40.157000" lon="-5.329767">
        <ele>1624.0</ele>
        <time>2013-06-30T14:23:18Z</time>
      </trkpt>
      <trkpt lat="40.156983" lon="-5.329883">
        <ele>1622.0</ele>
        <time>2013-06-30T14:23:19Z</time>
      </trkpt>
      <trkpt lat="40.156950" lon="-5.330000">
        <ele>1621.0</ele>
        <time>2013-06-30T14:23:20Z</time>
      </trkpt>
      <trkpt lat="40.156933" lon="-5.330133">
        <ele>1619.0</ele>
        <time>2013-06-30T14:23:21Z</time>
      </trkpt>
      <trkpt lat="40.156917" lon="-5.330267">
        <ele>1617.0</ele>
        <time>2013-06-30T14:23:22Z</time>
      </trkpt>
      <trkpt lat="40.156900" lon="-5.330400">
        <ele>1615.0</ele>
        <time>2013-06-30T14:23:23Z</time>
      </trkpt>
      <trkpt lat="40.156883" lon="-5.330550">
        <ele>1612.0</ele>
        <time>2013-06-30T14:23:24Z</time>
      </trkpt>
      <trkpt lat="40.156867" lon="-5.330683">
        <ele>1611.0</ele>
        <time>2013-06-30T14:23:25Z</time>
      </trkpt>
      <trkpt lat="40.156850" lon="-5.330800">
        <ele>1609.0</ele>
        <time>2013-06-30T14:23:26Z</time>
      </trkpt>
      <trkpt lat="40.156833" lon="-5.330933">
        <ele>1607.0</ele>
        <time>2013-06-30T14:23:27Z</time>
      </trkpt>
      <trkpt lat="40.156817" lon="-5.331067">
        <ele>1605.0</ele>
        <time>2013-06-30T14:23:28Z</time>
      </trkpt>
      <trkpt lat="40.156817" lon="-5.331200">
        <ele>1603.0</ele>
        <time>2013-06-30T14:23:29Z</time>
      </trkpt>
      <trkpt lat="40.156800" lon="-5.331333">
        <ele>1600.0</ele>
        <time>2013-06-30T14:23:30Z</time>
      </trkpt>
      <trkpt lat="40.156800" lon="-5.331467">
        <ele>1598.0</ele>
        <time>2013-06-30T14:23:31Z</time>
      </trkpt>
      <trkpt lat="40.156783" lon="-5.331583">
        <ele>1596.0</ele>
        <time>2013-06-30T14:23:32Z</time>
      </trkpt>
      <trkpt lat="40.156783" lon="-5.331717">
        <ele>1594.0</ele>
        <time>2013-06-30T14:23:33Z</time>
      </trkpt>
      <trkpt lat="40.156767" lon="-5.331833">
        <ele>1592.0</ele>
        <time>2013-06-30T14:23:34Z</time>
      </trkpt>
      <trkpt lat="40.156767" lon="-5.331967">
        <ele>1590.0</ele>
        <time>2013-06-30T14:23:35Z</time>
      </trkpt>
      <trkpt lat="40.156750" lon="-5.332100">
        <ele>1587.0</ele>
        <time>2013-06-30T14:23:36Z</time>
      </trkpt>
      <trkpt lat="40.156750" lon="-5.332250">
        <ele>1585.0</ele>
        <time>2013-06-30T14:23:37Z</time>
      </trkpt>
      <trkpt lat="40.156733" lon="-5.332383">
        <ele>1583.0</ele>
        <time>2013-06-30T14:23:38Z</time>
      </trkpt>
      <trkpt lat="40.156717" lon="-5.332517">
        <ele>1581.0</ele>
        <time>2013-06-30T14:23:39Z</time>
      </trkpt>
      <trkpt lat="40.156700" lon="-5.332650">
        <ele>1579.0</ele>
        <time>2013-06-30T14:23:40Z</time>
      </trkpt>
      <trkpt lat="40.156683" lon="-5.332783">
        <ele>1577.0</ele>
        <time>2013-06-30T14:23:41Z</time>
      </trkpt>
      <trkpt lat="40.156667" lon="-5.332900">
        <ele>1575.0</ele>
        <time>2013-06-30T14:23:42Z</time>
      </trkpt>
      <trkpt lat="40.156633" lon="-5.333033">
        <ele>1573.0</ele>
        <time>2013-06-30T14:23:43Z</time>
      </trkpt>
      <trkpt lat="40.156617" lon="-5.333167">
        <ele>1571.0</ele>
        <time>2013-06-30T14:23:44Z</time>
      </trkpt>
      <trkpt lat="40.156600" lon="-5.333283">
        <ele>1569.0</ele>
        <time>2013-06-30T14:23:45Z</time>
      </trkpt>
      <trkpt lat="40.156567" lon="-5.333417">
        <ele>1566.0</ele>
        <time>2013-06-30T14:23:46Z</time>
      </trkpt>
      <trkpt lat="40.156550" lon="-5.333550">
        <ele>1564.0</ele>
        <time>2013-06-30T14:23:47Z</time>
      </trkpt>
      <trkpt lat="40.156517" lon="-5.333667">
        <ele>1562.0</ele>
        <time>2013-06-30T14:23:48Z</time>
      </trkpt>
      <trkpt lat="40.156483" lon="-5.333800">
        <ele>1560.0</ele>
        <time>2013-06-30T14:23:49Z</time>
      </trkpt>
      <trkpt lat="40.156450" lon="-5.333933">
        <ele>1558.0</ele>
        <time>2013-06-30T14:23:50Z</time>
      </trkpt>
      <trkpt lat="40.156417" lon="-5.334050">
        <ele>1556.0</ele>
        <time>2013-06-30T14:23:51Z</time>
      </trkpt>
      <trkpt lat="40.156383" lon="-5.334167">
        <ele>1554.0</ele>
        <time>2013-06-30T14:23:52Z</time>
      </trkpt>
      <trkpt lat="40.156350" lon="-5.334300">
        <ele>1552.0</ele>
        <time>2013-06-30T14:23:53Z</time>
      </trkpt>
      <trkpt lat="40.156317" lon="-5.334433">
        <ele>1549.0</ele>
        <time>2013-06-30T14:23:54Z</time>
      </trkpt>
      <trkpt lat="40.156283" lon="-5.334550">
        <ele>1547.0</ele>
        <time>2013-06-30T14:23:55Z</time>
      </trkpt>
      <trkpt lat="40.156250" lon="-5.334683">
        <ele>1544.0</ele>
        <time>2013-06-30T14:23:56Z</time>
      </trkpt>
      <trkpt lat="40.156217" lon="-5.334800">
        <ele>1542.0</ele>
        <time>2013-06-30T14:23:57Z</time>
      </trkpt>
      <trkpt lat="40.156200" lon="-5.334917">
        <ele>1541.0</ele>
        <time>2013-06-30T14:23:58Z</time>
      </trkpt>
      <trkpt lat="40.156167" lon="-5.335033">
        <ele>1539.0</ele>
        <time>2013-06-30T14:23:59Z</time>
      </trkpt>
      <trkpt lat="40.156133" lon="-5.335167">
        <ele>1536.0</ele>
        <time>2013-06-30T14:24:00Z</time>
      </trkpt>
      <trkpt lat="40.156083" lon="-5.335300">
        <ele>1534.0</ele>
        <time>2013-06-30T14:24:01Z</time>
      </trkpt>
      <trkpt lat="40.156050" lon="-5.335450">
        <ele>1532.0</ele>
        <time>2013-06-30T14:24:02Z</time>
      </trkpt>
      <trkpt lat="40.156017" lon="-5.335567">
        <ele>1531.0</ele>
        <time>2013-06-30T14:24:03Z</time>
      </trkpt>
      <trkpt lat="40.155983" lon="-5.335683">
        <ele>1531.0</ele>
        <time>2013-06-30T14:24:04Z</time>
      </trkpt>
      <trkpt lat="40.155917" lon="-5.335917">
        <ele>1529.0</ele>
        <time>2013-06-30T14:24:06Z</time>
      </trkpt>
      <trkpt lat="40.155867" lon="-5.336050">
        <ele>1528.0</ele>
        <time>2013-06-30T14:24:07Z</time>
      </trkpt>
      <trkpt lat="40.155833" lon="-5.336183">
        <ele>1526.0</ele>
        <time>2013-06-30T14:24:08Z</time>
      </trkpt>
      <trkpt lat="40.155800" lon="-5.336317">
        <ele>1526.0</ele>
        <time>2013-06-30T14:24:09Z</time>
      </trkpt>
      <trkpt lat="40.155783" lon="-5.336450">
        <ele>1526.0</ele>
        <time>2013-06-30T14:24:10Z</time>
      </trkpt>
      <trkpt lat="40.155750" lon="-5.336567">
        <ele>1527.0</ele>
        <time>2013-06-30T14:24:11Z</time>
      </trkpt>
      <trkpt lat="40.155717" lon="-5.336683">
        <ele>1527.0</ele>
        <time>2013-06-30T14:24:12Z</time>
      </trkpt>
      <trkpt lat="40.155683" lon="-5.336800">
        <ele>1527.0</ele>
        <time>2013-06-30T14:24:13Z</time>
      </trkpt>
      <trkpt lat="40.155650" lon="-5.336917">
        <ele>1527.0</ele>
        <time>2013-06-30T14:24:14Z</time>
      </trkpt>
      <trkpt lat="40.155617" lon="-5.337050">
        <ele>1527.0</ele>
        <time>2013-06-30T14:24:15Z</time>
      </trkpt>
      <trkpt lat="40.155583" lon="-5.337167">
        <ele>1528.0</ele>
        <time>2013-06-30T14:24:16Z</time>
      </trkpt>
      <trkpt lat="40.155550" lon="-5.337267">
        <ele>1529.0</ele>
        <time>2013-06-30T14:24:17Z</time>
      </trkpt>
      <trkpt lat="40.155517" lon="-5.337383">
        <ele>1530.0</ele>
        <time>2013-06-30T14:24:18Z</time>
      </trkpt>
      <trkpt lat="40.155483" lon="-5.337483">
        <ele>1531.0</ele>
        <time>2013-06-30T14:24:19Z</time>
      </trkpt>
      <trkpt lat="40.155450" lon="-5.337600">
        <ele>1531.0</ele>
        <time>2013-06-30T14:24:20Z</time>
      </trkpt>
      <trkpt lat="40.155400" lon="-5.337717">
        <ele>1531.0</ele>
        <time>2013-06-30T14:24:21Z</time>
      </trkpt>
      <trkpt lat="40.155350" lon="-5.337817">
        <ele>1531.0</ele>
        <time>2013-06-30T14:24:22Z</time>
      </trkpt>
      <trkpt lat="40.155300" lon="-5.337917">
        <ele>1532.0</ele>
        <time>2013-06-30T14:24:23Z</time>
      </trkpt>
      <trkpt lat="40.155267" lon="-5.338017">
        <ele>1532.0</ele>
        <time>2013-06-30T14:24:24Z</time>
      </trkpt>
      <trkpt lat="40.155217" lon="-5.338133">
        <ele>1533.0</ele>
        <time>2013-06-30T14:24:25Z</time>
      </trkpt>
      <trkpt lat="40.155183" lon="-5.338233">
        <ele>1533.0</ele>
        <time>2013-06-30T14:24:26Z</time>
      </trkpt>
      <trkpt lat="40.155150" lon="-5.338333">
        <ele>1534.0</ele>
        <time>2013-06-30T14:24:27Z</time>
      </trkpt>
      <trkpt lat="40.155117" lon="-5.338450">
        <ele>1534.0</ele>
        <time>2013-06-30T14:24:28Z</time>
      </trkpt>
      <trkpt lat="40.155083" lon="-5.338567">
        <ele>1534.0</ele>
        <time>2013-06-30T14:24:29Z</time>
      </trkpt>
      <trkpt lat="40.155067" lon="-5.338700">
        <ele>1532.0</ele>
        <time>2013-06-30T14:24:30Z</time>
      </trkpt>
      <trkpt lat="40.155033" lon="-5.338850">
        <ele>1531.0</ele>
        <time>2013-06-30T14:24:31Z</time>
      </trkpt>
      <trkpt lat="40.155000" lon="-5.339000">
        <ele>1531.0</ele>
        <time>2013-06-30T14:24:32Z</time>
      </trkpt>
      <trkpt lat="40.154983" lon="-5.339133">
        <ele>1531.0</ele>
        <time>2013-06-30T14:24:33Z</time>
      </trkpt>
      <trkpt lat="40.154950" lon="-5.339267">
        <ele>1532.0</ele>
        <time>2013-06-30T14:24:34Z</time>
      </trkpt>
      <trkpt lat="40.154917" lon="-5.339400">
        <ele>1533.0</ele>
        <time>2013-06-30T14:24:35Z</time>
      </trkpt>
      <trkpt lat="40.154900" lon="-5.339533">
        <ele>1535.0</ele>
        <time>2013-06-30T14:24:36Z</time>
      </trkpt>
      <trkpt lat="40.154867" lon="-5.339667">
        <ele>1536.0</ele>
        <time>2013-06-30T14:24:37Z</time>
      </trkpt>
      <trkpt lat="40.154850" lon="-5.339800">
        <ele>1537.0</ele>
        <time>2013-06-30T14:24:38Z</time>
      </trkpt>
      <trkpt lat="40.154833" lon="-5.339950">
        <ele>1537.0</ele>
        <time>2013-06-30T14:24:39Z</time>
      </trkpt>
      <trkpt lat="40.154817" lon="-5.340083">
        <ele>1538.0</ele>
        <time>2013-06-30T14:24:40Z</time>
      </trkpt>
      <trkpt lat="40.154817" lon="-5.340217">
        <ele>1540.0</ele>
        <time>2013-06-30T14:24:41Z</time>
      </trkpt>
      <trkpt lat="40.154833" lon="-5.340333">
        <ele>1541.0</ele>
        <time>2013-06-30T14:24:42Z</time>
      </trkpt>
      <trkpt lat="40.154867" lon="-5.340467">
        <ele>1542.0</ele>
        <time>2013-06-30T14:24:43Z</time>
      </trkpt>
      <trkpt lat="40.154917" lon="-5.340583">
        <ele>1543.0</ele>
        <time>2013-06-30T14:24:44Z</time>
      </trkpt>
      <trkpt lat="40.155000" lon="-5.340683">
        <ele>1543.0</ele>
        <time>2013-06-30T14:24:45Z</time>
      </trkpt>
      <trkpt lat="40.155067" lon="-5.340750">
        <ele>1544.0</ele>
        <time>2013-06-30T14:24:46Z</time>
      </trkpt>
      <trkpt lat="40.155150" lon="-5.340783">
        <ele>1545.0</ele>
        <time>2013-06-30T14:24:47Z</time>
      </trkpt>
      <trkpt lat="40.155217" lon="-5.340800">
        <ele>1547.0</ele>
        <time>2013-06-30T14:24:48Z</time>
      </trkpt>
      <trkpt lat="40.155283" lon="-5.340800">
        <ele>1548.0</ele>
        <time>2013-06-30T14:24:49Z</time>
      </trkpt>
      <trkpt lat="40.155350" lon="-5.340767">
        <ele>1549.0</ele>
        <time>2013-06-30T14:24:50Z</time>
      </trkpt>
      <trkpt lat="40.155417" lon="-5.340750">
        <ele>1550.0</ele>
        <time>2013-06-30T14:24:51Z</time>
      </trkpt>
      <trkpt lat="40.155467" lon="-5.340700">
        <ele>1551.0</ele>
        <time>2013-06-30T14:24:52Z</time>
      </trkpt>
      <trkpt lat="40.155500" lon="-5.340650">
        <ele>1552.0</ele>
        <time>2013-06-30T14:24:53Z</time>
      </trkpt>
      <trkpt lat="40.155500" lon="-5.340567">
        <ele>1552.0</ele>
        <time>2013-06-30T14:24:54Z</time>
      </trkpt>
      <trkpt lat="40.155483" lon="-5.340500">
        <ele>1552.0</ele>
        <time>2013-06-30T14:24:55Z</time>
      </trkpt>
      <trkpt lat="40.155450" lon="-5.340417">
        <ele>1552.0</ele>
        <time>2013-06-30T14:24:56Z</time>
      </trkpt>
      <trkpt lat="40.155400" lon="-5.340350">
        <ele>1553.0</ele>
        <time>2013-06-30T14:24:57Z</time>
      </trkpt>
      <trkpt lat="40.155333" lon="-5.340300">
        <ele>1555.0</ele>
        <time>2013-06-30T14:24:58Z</time>
      </trkpt>
      <trkpt lat="40.155267" lon="-5.340267">
        <ele>1557.0</ele>
        <time>2013-06-30T14:24:59Z</time>
      </trkpt>
      <trkpt lat="40.155183" lon="-5.340267">
        <ele>1557.0</ele>
        <time>2013-06-30T14:25:00Z</time>
      </trkpt>
      <trkpt lat="40.155083" lon="-5.340283">
        <ele>1557.0</ele>
        <time>2013-06-30T14:25:01Z</time>
      </trkpt>
      <trkpt lat="40.155000" lon="-5.340317">
        <ele>1557.0</ele>
        <time>2013-06-30T14:25:02Z</time>
      </trkpt>
      <trkpt lat="40.154900" lon="-5.340383">
        <ele>1558.0</ele>
        <time>2013-06-30T14:25:03Z</time>
      </trkpt>
      <trkpt lat="40.154817" lon="-5.340450">
        <ele>1558.0</ele>
        <time>2013-06-30T14:25:04Z</time>
      </trkpt>
      <trkpt lat="40.154767" lon="-5.340567">
        <ele>1559.0</ele>
        <time>2013-06-30T14:25:05Z</time>
      </trkpt>
      <trkpt lat="40.154717" lon="-5.340683">
        <ele>1560.0</ele>
        <time>2013-06-30T14:25:06Z</time>
      </trkpt>
      <trkpt lat="40.154683" lon="-5.340817">
        <ele>1560.0</ele>
        <time>2013-06-30T14:25:07Z</time>
      </trkpt>
      <trkpt lat="40.154667" lon="-5.340967">
        <ele>1561.0</ele>
        <time>2013-06-30T14:25:08Z</time>
      </trkpt>
      <trkpt lat="40.154667" lon="-5.341100">
        <ele>1562.0</ele>
        <time>2013-06-30T14:25:09Z</time>
      </trkpt>
      <trkpt lat="40.154683" lon="-5.341233">
        <ele>1563.0</ele>
        <time>2013-06-30T14:25:10Z</time>
      </trkpt>
      <trkpt lat="40.154717" lon="-5.341367">
        <ele>1564.0</ele>
        <time>2013-06-30T14:25:11Z</time>
      </trkpt>
      <trkpt lat="40.154783" lon="-5.341467">
        <ele>1565.0</ele>
        <time>2013-06-30T14:25:12Z</time>
      </trkpt>
      <trkpt lat="40.154850" lon="-5.341550">
        <ele>1566.0</ele>
        <time>2013-06-30T14:25:13Z</time>
      </trkpt>
      <trkpt lat="40.154917" lon="-5.341617">
        <ele>1567.0</ele>
        <time>2013-06-30T14:25:14Z</time>
      </trkpt>
      <trkpt lat="40.155000" lon="-5.341667">
        <ele>1569.0</ele>
        <time>2013-06-30T14:25:15Z</time>
      </trkpt>
      <trkpt lat="40.155083" lon="-5.341700">
        <ele>1570.0</ele>
        <time>2013-06-30T14:25:16Z</time>
      </trkpt>
      <trkpt lat="40.155167" lon="-5.341717">
        <ele>1571.0</ele>
        <time>2013-06-30T14:25:17Z</time>
      </trkpt>
      <trkpt lat="40.155400" lon="-5.341650">
        <ele>1572.0</ele>
        <time>2013-06-30T14:25:20Z</time>
      </trkpt>
      <trkpt lat="40.155450" lon="-5.341617">
        <ele>1573.0</ele>
        <time>2013-06-30T14:25:21Z</time>
      </trkpt>
      <trkpt lat="40.155517" lon="-5.341583">
        <ele>1574.0</ele>
        <time>2013-06-30T14:25:22Z</time>
      </trkpt>
      <trkpt lat="40.155567" lon="-5.341550">
        <ele>1575.0</ele>
        <time>2013-06-30T14:25:23Z</time>
      </trkpt>
      <trkpt lat="40.155617" lon="-5.341500">
        <ele>1576.0</ele>
        <time>2013-06-30T14:25:24Z</time>
      </trkpt>
      <trkpt lat="40.155650" lon="-5.341433">
        <ele>1576.0</ele>
        <time>2013-06-30T14:25:25Z</time>
      </trkpt>
      <trkpt lat="40.155650" lon="-5.341383">
        <ele>1577.0</ele>
        <time>2013-06-30T14:25:26Z</time>
      </trkpt>
      <trkpt lat="40.155633" lon="-5.341317">
        <ele>1578.0</ele>
        <time>2013-06-30T14:25:27Z</time>
      </trkpt>
      <trkpt lat="40.155617" lon="-5.341250">
        <ele>1578.0</ele>
        <time>2013-06-30T14:25:28Z</time>
      </trkpt>
      <trkpt lat="40.155583" lon="-5.341183">
        <ele>1577.0</ele>
        <time>2013-06-30T14:25:29Z</time>
      </trkpt>
      <trkpt lat="40.155533" lon="-5.341133">
        <ele>1577.0</ele>
        <time>2013-06-30T14:25:30Z</time>
      </trkpt>
      <trkpt lat="40.155467" lon="-5.341083">
        <ele>1576.0</ele>
        <time>2013-06-30T14:25:31Z</time>
      </trkpt>
      <trkpt lat="40.155400" lon="-5.341017">
        <ele>1577.0</ele>
        <time>2013-06-30T14:25:32Z</time>
      </trkpt>
      <trkpt lat="40.155317" lon="-5.340983">
        <ele>1578.0</ele>
        <time>2013-06-30T14:25:33Z</time>
      </trkpt>
      <trkpt lat="40.155250" lon="-5.340950">
        <ele>1579.0</ele>
        <time>2013-06-30T14:25:34Z</time>
      </trkpt>
      <trkpt lat="40.155183" lon="-5.340933">
        <ele>1580.0</ele>
        <time>2013-06-30T14:25:35Z</time>
      </trkpt>
      <trkpt lat="40.155100" lon="-5.340950">
        <ele>1580.0</ele>
        <time>2013-06-30T14:25:36Z</time>
      </trkpt>
      <trkpt lat="40.155000" lon="-5.340967">
        <ele>1580.0</ele>
        <time>2013-06-30T14:25:37Z</time>
      </trkpt>
      <trkpt lat="40.154917" lon="-5.341000">
        <ele>1581.0</ele>
        <time>2013-06-30T14:25:38Z</time>
      </trkpt>
      <trkpt lat="40.154850" lon="-5.341033">
        <ele>1582.0</ele>
        <time>2013-06-30T14:25:39Z</time>
      </trkpt>
      <trkpt lat="40.154767" lon="-5.341083">
        <ele>1583.0</ele>
        <time>2013-06-30T14:25:40Z</time>
      </trkpt>
      <trkpt lat="40.154683" lon="-5.341167">
        <ele>1583.0</ele>
        <time>2013-06-30T14:25:41Z</time>
      </trkpt>
      <trkpt lat="40.154617" lon="-5.341283">
        <ele>1584.0</ele>
        <time>2013-06-30T14:25:42Z</time>
      </trkpt>
      <trkpt lat="40.154567" lon="-5.341417">
        <ele>1584.0</ele>
        <time>2013-06-30T14:25:43Z</time>
      </trkpt>
      <trkpt lat="40.154550" lon="-5.341550">
        <ele>1585.0</ele>
        <time>2013-06-30T14:25:44Z</time>
      </trkpt>
      <trkpt lat="40.154567" lon="-5.341683">
        <ele>1586.0</ele>
        <time>2013-06-30T14:25:45Z</time>
      </trkpt>
      <trkpt lat="40.154600" lon="-5.341817">
        <ele>1587.0</ele>
        <time>2013-06-30T14:25:46Z</time>
      </trkpt>
      <trkpt lat="40.154650" lon="-5.341933">
        <ele>1588.0</ele>
        <time>2013-06-30T14:25:47Z</time>
      </trkpt>
      <trkpt lat="40.154700" lon="-5.342033">
        <ele>1589.0</ele>
        <time>2013-06-30T14:25:48Z</time>
      </trkpt>
      <trkpt lat="40.154767" lon="-5.342117">
        <ele>1590.0</ele>
        <time>2013-06-30T14:25:49Z</time>
      </trkpt>
      <trkpt lat="40.154850" lon="-5.342200">
        <ele>1590.0</ele>
        <time>2013-06-30T14:25:50Z</time>
      </trkpt>
      <trkpt lat="40.154917" lon="-5.342267">
        <ele>1591.0</ele>
        <time>2013-06-30T14:25:51Z</time>
      </trkpt>
      <trkpt lat="40.155000" lon="-5.342300">
        <ele>1591.0</ele>
        <time>2013-06-30T14:25:52Z</time>
      </trkpt>
      <trkpt lat="40.155083" lon="-5.342300">
        <ele>1590.0</ele>
        <time>2013-06-30T14:25:53Z</time>
      </trkpt>
      <trkpt lat="40.155167" lon="-5.342300">
        <ele>1589.0</ele>
        <time>2013-06-30T14:25:54Z</time>
      </trkpt>
      <trkpt lat="40.155300" lon="-5.342233">
        <ele>1589.0</ele>
        <time>2013-06-30T14:25:56Z</time>
      </trkpt>
      <trkpt lat="40.155350" lon="-5.342183">
        <ele>1589.0</ele>
        <time>2013-06-30T14:25:57Z</time>
      </trkpt>
      <trkpt lat="40.155383" lon="-5.342133">
        <ele>1589.0</ele>
        <time>2013-06-30T14:25:58Z</time>
      </trkpt>
      <trkpt lat="40.155383" lon="-5.342067">
        <ele>1590.0</ele>
        <time>2013-06-30T14:25:59Z</time>
      </trkpt>
      <trkpt lat="40.155383" lon="-5.342000">
        <ele>1590.0</ele>
        <time>2013-06-30T14:26:00Z</time>
      </trkpt>
      <trkpt lat="40.155367" lon="-5.341933">
        <ele>1591.0</ele>
        <time>2013-06-30T14:26:01Z</time>
      </trkpt>
      <trkpt lat="40.155333" lon="-5.341867">
        <ele>1591.0</ele>
        <time>2013-06-30T14:26:02Z</time>
      </trkpt>
      <trkpt lat="40.155283" lon="-5.341817">
        <ele>1591.0</ele>
        <time>2013-06-30T14:26:03Z</time>
      </trkpt>
      <trkpt lat="40.155233" lon="-5.341750">
        <ele>1592.0</ele>
        <time>2013-06-30T14:26:04Z</time>
      </trkpt>
      <trkpt lat="40.155183" lon="-5.341717">
        <ele>1593.0</ele>
        <time>2013-06-30T14:26:05Z</time>
      </trkpt>
      <trkpt lat="40.155117" lon="-5.341683">
        <ele>1594.0</ele>
        <time>2013-06-30T14:26:06Z</time>
      </trkpt>
      <trkpt lat="40.155033" lon="-5.341650">
        <ele>1594.0</ele>
        <time>2013-06-30T14:26:07Z</time>
      </trkpt>
      <trkpt lat="40.154967" lon="-5.341633">
        <ele>1594.0</ele>
        <time>2013-06-30T14:26:08Z</time>
      </trkpt>
      <trkpt lat="40.154883" lon="-5.341617">
        <ele>1595.0</ele>
        <time>2013-06-30T14:26:09Z</time>
      </trkpt>
      <trkpt lat="40.154817" lon="-5.341617">
        <ele>1596.0</ele>
        <time>2013-06-30T14:26:10Z</time>
      </trkpt>
      <trkpt lat="40.154667" lon="-5.341633">
        <ele>1599.0</ele>
        <time>2013-06-30T14:26:12Z</time>
      </trkpt>
      <trkpt lat="40.154583" lon="-5.341667">
        <ele>1600.0</ele>
        <time>2013-06-30T14:26:13Z</time>
      </trkpt>
      <trkpt lat="40.154517" lon="-5.341717">
        <ele>1601.0</ele>
        <time>2013-06-30T14:26:14Z</time>
      </trkpt>
      <trkpt lat="40.154433" lon="-5.341767">
        <ele>1602.0</ele>
        <time>2013-06-30T14:26:15Z</time>
      </trkpt>
      <trkpt lat="40.154383" lon="-5.341850">
        <ele>1603.0</ele>
        <time>2013-06-30T14:26:16Z</time>
      </trkpt>
      <trkpt lat="40.154317" lon="-5.341950">
        <ele>1604.0</ele>
        <time>2013-06-30T14:26:17Z</time>
      </trkpt>
      <trkpt lat="40.154283" lon="-5.342067">
        <ele>1605.0</ele>
        <time>2013-06-30T14:26:18Z</time>
      </trkpt>
      <trkpt lat="40.154267" lon="-5.342200">
        <ele>1605.0</ele>
        <time>2013-06-30T14:26:19Z</time>
      </trkpt>
      <trkpt lat="40.154267" lon="-5.342333">
        <ele>1605.0</ele>
        <time>2013-06-30T14:26:20Z</time>
      </trkpt>
      <trkpt lat="40.154283" lon="-5.342467">
        <ele>1606.0</ele>
        <time>2013-06-30T14:26:21Z</time>
      </trkpt>
      <trkpt lat="40.154317" lon="-5.342583">
        <ele>1607.0</ele>
        <time>2013-06-30T14:26:22Z</time>
      </trkpt>
      <trkpt lat="40.154367" lon="-5.342683">
        <ele>1608.0</ele>
        <time>2013-06-30T14:26:23Z</time>
      </trkpt>
      <trkpt lat="40.154417" lon="-5.342783">
        <ele>1609.0</ele>
        <time>2013-06-30T14:26:24Z</time>
      </trkpt>
      <trkpt lat="40.154483" lon="-5.342883">
        <ele>1608.0</ele>
        <time>2013-06-30T14:26:25Z</time>
      </trkpt>
      <trkpt lat="40.154567" lon="-5.342967">
        <ele>1608.0</ele>
        <time>2013-06-30T14:26:26Z</time>
      </trkpt>
      <trkpt lat="40.154650" lon="-5.343017">
        <ele>1609.0</ele>
        <time>2013-06-30T14:26:27Z</time>
      </trkpt>
      <trkpt lat="40.154733" lon="-5.343033">
        <ele>1610.0</ele>
        <time>2013-06-30T14:26:28Z</time>
      </trkpt>
      <trkpt lat="40.154800" lon="-5.343033">
        <ele>1610.0</ele>
        <time>2013-06-30T14:26:29Z</time>
      </trkpt>
      <trkpt lat="40.154883" lon="-5.343017">
        <ele>1609.0</ele>
        <time>2013-06-30T14:26:30Z</time>
      </trkpt>
      <trkpt lat="40.154967" lon="-5.342983">
        <ele>1609.0</ele>
        <time>2013-06-30T14:26:31Z</time>
      </trkpt>
      <trkpt lat="40.155050" lon="-5.342950">
        <ele>1609.0</ele>
        <time>2013-06-30T14:26:32Z</time>
      </trkpt>
      <trkpt lat="40.155117" lon="-5.342917">
        <ele>1609.0</ele>
        <time>2013-06-30T14:26:33Z</time>
      </trkpt>
      <trkpt lat="40.155167" lon="-5.342850">
        <ele>1610.0</ele>
        <time>2013-06-30T14:26:34Z</time>
      </trkpt>
      <trkpt lat="40.155217" lon="-5.342783">
        <ele>1610.0</ele>
        <time>2013-06-30T14:26:35Z</time>
      </trkpt>
      <trkpt lat="40.155233" lon="-5.342700">
        <ele>1611.0</ele>
        <time>2013-06-30T14:26:36Z</time>
      </trkpt>
      <trkpt lat="40.155233" lon="-5.342633">
        <ele>1612.0</ele>
        <time>2013-06-30T14:26:37Z</time>
      </trkpt>
      <trkpt lat="40.155233" lon="-5.342567">
        <ele>1613.0</ele>
        <time>2013-06-30T14:26:38Z</time>
      </trkpt>
      <trkpt lat="40.155217" lon="-5.342500">
        <ele>1614.0</ele>
        <time>2013-06-30T14:26:39Z</time>
      </trkpt>
      <trkpt lat="40.155200" lon="-5.342433">
        <ele>1613.0</ele>
        <time>2013-06-30T14:26:40Z</time>
      </trkpt>
      <trkpt lat="40.155183" lon="-5.342333">
        <ele>1612.0</ele>
        <time>2013-06-30T14:26:41Z</time>
      </trkpt>
      <trkpt lat="40.155167" lon="-5.342250">
        <ele>1612.0</ele>
        <time>2013-06-30T14:26:42Z</time>
      </trkpt>
      <trkpt lat="40.155117" lon="-5.342167">
        <ele>1612.0</ele>
        <time>2013-06-30T14:26:43Z</time>
      </trkpt>
      <trkpt lat="40.155083" lon="-5.342100">
        <ele>1612.0</ele>
        <time>2013-06-30T14:26:44Z</time>
      </trkpt>
      <trkpt lat="40.155033" lon="-5.342017">
        <ele>1613.0</ele>
        <time>2013-06-30T14:26:45Z</time>
      </trkpt>
      <trkpt lat="40.155000" lon="-5.341967">
        <ele>1614.0</ele>
        <time>2013-06-30T14:26:46Z</time>
      </trkpt>
      <trkpt lat="40.154933" lon="-5.341917">
        <ele>1615.0</ele>
        <time>2013-06-30T14:26:47Z</time>
      </trkpt>
      <trkpt lat="40.154867" lon="-5.341867">
        <ele>1615.0</ele>
        <time>2013-06-30T14:26:48Z</time>
      </trkpt>
      <trkpt lat="40.154800" lon="-5.341850">
        <ele>1615.0</ele>
        <time>2013-06-30T14:26:49Z</time>
      </trkpt>
      <trkpt lat="40.154733" lon="-5.341850">
        <ele>1615.0</ele>
        <time>2013-06-30T14:26:50Z</time>
      </trkpt>
      <trkpt lat="40.154650" lon="-5.341850">
        <ele>1615.0</ele>
        <time>2013-06-30T14:26:51Z</time>
      </trkpt>
      <trkpt lat="40.154583" lon="-5.341867">
        <ele>1616.0</ele>
        <time>2013-06-30T14:26:52Z</time>
      </trkpt>
      <trkpt lat="40.154517" lon="-5.341900">
        <ele>1617.0</ele>
        <time>2013-06-30T14:26:53Z</time>
      </trkpt>
      <trkpt lat="40.154433" lon="-5.341933">
        <ele>1617.0</ele>
        <time>2013-06-30T14:26:54Z</time>
      </trkpt>
      <trkpt lat="40.154367" lon="-5.341967">
        <ele>1617.0</ele>
        <time>2013-06-30T14:26:55Z</time>
      </trkpt>
      <trkpt lat="40.154283" lon="-5.342033">
        <ele>1617.0</ele>
        <time>2013-06-30T14:26:56Z</time>
      </trkpt>
      <trkpt lat="40.154233" lon="-5.342150">
        <ele>1617.0</ele>
        <time>2013-06-30T14:26:57Z</time>
      </trkpt>
      <trkpt lat="40.154183" lon="-5.342267">
        <ele>1617.0</ele>
        <time>2013-06-30T14:26:58Z</time>
      </trkpt>
      <trkpt lat="40.154167" lon="-5.342383">
        <ele>1617.0</ele>
        <time>2013-06-30T14:26:59Z</time>
      </trkpt>
      <trkpt lat="40.154167" lon="-5.342517">
        <ele>1617.0</ele>
        <time>2013-06-30T14:27:00Z</time>
      </trkpt>
      <trkpt lat="40.154200" lon="-5.342750">
        <ele>1618.0</ele>
        <time>2013-06-30T14:27:02Z</time>
      </trkpt>
      <trkpt lat="40.154350" lon="-5.342950">
        <ele>1619.0</ele>
        <time>2013-06-30T14:27:04Z</time>
      </trkpt>
      <trkpt lat="40.154433" lon="-5.343033">
        <ele>1620.0</ele>
        <time>2013-06-30T14:27:05Z</time>
      </trkpt>
      <trkpt lat="40.154517" lon="-5.343067">
        <ele>1621.0</ele>
        <time>2013-06-30T14:27:06Z</time>
      </trkpt>
      <trkpt lat="40.154600" lon="-5.343083">
        <ele>1623.0</ele>
        <time>2013-06-30T14:27:07Z</time>
      </trkpt>
      <trkpt lat="40.154683" lon="-5.343083">
        <ele>1624.0</ele>
        <time>2013-06-30T14:27:08Z</time>
      </trkpt>
      <trkpt lat="40.154750" lon="-5.343067">
        <ele>1625.0</ele>
        <time>2013-06-30T14:27:09Z</time>
      </trkpt>
      <trkpt lat="40.154817" lon="-5.343033">
        <ele>1625.0</ele>
        <time>2013-06-30T14:27:10Z</time>
      </trkpt>
      <trkpt lat="40.154883" lon="-5.343000">
        <ele>1626.0</ele>
        <time>2013-06-30T14:27:11Z</time>
      </trkpt>
      <trkpt lat="40.154933" lon="-5.342933">
        <ele>1626.0</ele>
        <time>2013-06-30T14:27:12Z</time>
      </trkpt>
      <trkpt lat="40.154983" lon="-5.342867">
        <ele>1627.0</ele>
        <time>2013-06-30T14:27:13Z</time>
      </trkpt>
      <trkpt lat="40.155033" lon="-5.342717">
        <ele>1627.0</ele>
        <time>2013-06-30T14:27:15Z</time>
      </trkpt>
      <trkpt lat="40.155033" lon="-5.342633">
        <ele>1627.0</ele>
        <time>2013-06-30T14:27:16Z</time>
      </trkpt>
      <trkpt lat="40.155033" lon="-5.342567">
        <ele>1627.0</ele>
        <time>2013-06-30T14:27:17Z</time>
      </trkpt>
      <trkpt lat="40.155000" lon="-5.342500">
        <ele>1627.0</ele>
        <time>2013-06-30T14:27:18Z</time>
      </trkpt>
      <trkpt lat="40.154933" lon="-5.342450">
        <ele>1627.0</ele>
        <time>2013-06-30T14:27:19Z</time>
      </trkpt>
      <trkpt lat="40.154867" lon="-5.342417">
        <ele>1626.0</ele>
        <time>2013-06-30T14:27:20Z</time>
      </trkpt>
      <trkpt lat="40.154800" lon="-5.342367">
        <ele>1626.0</ele>
        <time>2013-06-30T14:27:21Z</time>
      </trkpt>
      <trkpt lat="40.154750" lon="-5.342333">
        <ele>1626.0</ele>
        <time>2013-06-30T14:27:22Z</time>
      </trkpt>
      <trkpt lat="40.154683" lon="-5.342317">
        <ele>1627.0</ele>
        <time>2013-06-30T14:27:23Z</time>
      </trkpt>
      <trkpt lat="40.154633" lon="-5.342300">
        <ele>1628.0</ele>
        <time>2013-06-30T14:27:24Z</time>
      </trkpt>
      <trkpt lat="40.154550" lon="-5.342300">
        <ele>1628.0</ele>
        <time>2013-06-30T14:27:25Z</time>
      </trkpt>
      <trkpt lat="40.154483" lon="-5.342300">
        <ele>1627.0</ele>
        <time>2013-06-30T14:27:26Z</time>
      </trkpt>
      <trkpt lat="40.154400" lon="-5.342300">
        <ele>1627.0</ele>
        <time>2013-06-30T14:27:27Z</time>
      </trkpt>
      <trkpt lat="40.154333" lon="-5.342300">
        <ele>1627.0</ele>
        <time>2013-06-30T14:27:28Z</time>
      </trkpt>
      <trkpt lat="40.154250" lon="-5.342317">
        <ele>1627.0</ele>
        <time>2013-06-30T14:27:29Z</time>
      </trkpt>
      <trkpt lat="40.154167" lon="-5.342350">
        <ele>1627.0</ele>
        <time>2013-06-30T14:27:30Z</time>
      </trkpt>
      <trkpt lat="40.154083" lon="-5.342367">
        <ele>1627.0</ele>
        <time>2013-06-30T14:27:31Z</time>
      </trkpt>
      <trkpt lat="40.154000" lon="-5.342400">
        <ele>1627.0</ele>
        <time>2013-06-30T14:27:32Z</time>
      </trkpt>
      <trkpt lat="40.153933" lon="-5.342433">
        <ele>1627.0</ele>
        <time>2013-06-30T14:27:33Z</time>
      </trkpt>
      <trkpt lat="40.153867" lon="-5.342467">
        <ele>1627.0</ele>
        <time>2013-06-30T14:27:34Z</time>
      </trkpt>
      <trkpt lat="40.153800" lon="-5.342500">
        <ele>1628.0</ele>
        <time>2013-06-30T14:27:35Z</time>
      </trkpt>
      <trkpt lat="40.153733" lon="-5.342533">
        <ele>1628.0</ele>
        <time>2013-06-30T14:27:36Z</time>
      </trkpt>
      <trkpt lat="40.153667" lon="-5.342583">
        <ele>1628.0</ele>
        <time>2013-06-30T14:27:37Z</time>
      </trkpt>
      <trkpt lat="40.153600" lon="-5.342667">
        <ele>1628.0</ele>
        <time>2013-06-30T14:27:38Z</time>
      </trkpt>
      <trkpt lat="40.153550" lon="-5.342767">
        <ele>1627.0</ele>
        <time>2013-06-30T14:27:39Z</time>
      </trkpt>
      <trkpt lat="40.153500" lon="-5.342883">
        <ele>1627.0</ele>
        <time>2013-06-30T14:27:40Z</time>
      </trkpt>
      <trkpt lat="40.153467" lon="-5.342983">
        <ele>1627.0</ele>
        <time>2013-06-30T14:27:41Z</time>
      </trkpt>
      <trkpt lat="40.153450" lon="-5.343117">
        <ele>1627.0</ele>
        <time>2013-06-30T14:27:42Z</time>
      </trkpt>
      <trkpt lat="40.153450" lon="-5.343233">
        <ele>1627.0</ele>
        <time>2013-06-30T14:27:43Z</time>
      </trkpt>
      <trkpt lat="40.153450" lon="-5.343383">
        <ele>1626.0</ele>
        <time>2013-06-30T14:27:44Z</time>
      </trkpt>
      <trkpt lat="40.153483" lon="-5.343517">
        <ele>1626.0</ele>
        <time>2013-06-30T14:27:45Z</time>
      </trkpt>
      <trkpt lat="40.153533" lon="-5.343633">
        <ele>1627.0</ele>
        <time>2013-06-30T14:27:46Z</time>
      </trkpt>
      <trkpt lat="40.153583" lon="-5.343733">
        <ele>1627.0</ele>
        <time>2013-06-30T14:27:47Z</time>
      </trkpt>
      <trkpt lat="40.153700" lon="-5.343883">
        <ele>1630.0</ele>
        <time>2013-06-30T14:27:49Z</time>
      </trkpt>
      <trkpt lat="40.153767" lon="-5.343950">
        <ele>1630.0</ele>
        <time>2013-06-30T14:27:50Z</time>
      </trkpt>
      <trkpt lat="40.153850" lon="-5.344017">
        <ele>1630.0</ele>
        <time>2013-06-30T14:27:51Z</time>
      </trkpt>
      <trkpt lat="40.153933" lon="-5.344067">
        <ele>1631.0</ele>
        <time>2013-06-30T14:27:52Z</time>
      </trkpt>
      <trkpt lat="40.154017" lon="-5.344117">
        <ele>1631.0</ele>
        <time>2013-06-30T14:27:53Z</time>
      </trkpt>
      <trkpt lat="40.154100" lon="-5.344167">
        <ele>1632.0</ele>
        <time>2013-06-30T14:27:54Z</time>
      </trkpt>
      <trkpt lat="40.154233" lon="-5.344217">
        <ele>1634.0</ele>
        <time>2013-06-30T14:27:56Z</time>
      </trkpt>
      <trkpt lat="40.154383" lon="-5.344217">
        <ele>1633.0</ele>
        <time>2013-06-30T14:27:58Z</time>
      </trkpt>
      <trkpt lat="40.154467" lon="-5.344183">
        <ele>1632.0</ele>
        <time>2013-06-30T14:27:59Z</time>
      </trkpt>
      <trkpt lat="40.154533" lon="-5.344133">
        <ele>1632.0</ele>
        <time>2013-06-30T14:28:00Z</time>
      </trkpt>
      <trkpt lat="40.154583" lon="-5.344100">
        <ele>1633.0</ele>
        <time>2013-06-30T14:28:01Z</time>
      </trkpt>
      <trkpt lat="40.154633" lon="-5.344067">
        <ele>1633.0</ele>
        <time>2013-06-30T14:28:02Z</time>
      </trkpt>
      <trkpt lat="40.154683" lon="-5.344000">
        <ele>1633.0</ele>
        <time>2013-06-30T14:28:03Z</time>
      </trkpt>
      <trkpt lat="40.154700" lon="-5.343933">
        <ele>1633.0</ele>
        <time>2013-06-30T14:28:04Z</time>
      </trkpt>
      <trkpt lat="40.154717" lon="-5.343850">
        <ele>1632.0</ele>
        <time>2013-06-30T14:28:05Z</time>
      </trkpt>
      <trkpt lat="40.154717" lon="-5.343783">
        <ele>1632.0</ele>
        <time>2013-06-30T14:28:06Z</time>
      </trkpt>
      <trkpt lat="40.154700" lon="-5.343717">
        <ele>1632.0</ele>
        <time>2013-06-30T14:28:07Z</time>
      </trkpt>
      <trkpt lat="40.154683" lon="-5.343650">
        <ele>1632.0</ele>
        <time>2013-06-30T14:28:08Z</time>
      </trkpt>
      <trkpt lat="40.154633" lon="-5.343600">
        <ele>1633.0</ele>
        <time>2013-06-30T14:28:09Z</time>
      </trkpt>
      <trkpt lat="40.154600" lon="-5.343567">
        <ele>1633.0</ele>
        <time>2013-06-30T14:28:10Z</time>
      </trkpt>
      <trkpt lat="40.154550" lon="-5.343533">
        <ele>1633.0</ele>
        <time>2013-06-30T14:28:11Z</time>
      </trkpt>
      <trkpt lat="40.154500" lon="-5.343500">
        <ele>1633.0</ele>
        <time>2013-06-30T14:28:12Z</time>
      </trkpt>
      <trkpt lat="40.154433" lon="-5.343483">
        <ele>1633.0</ele>
        <time>2013-06-30T14:28:13Z</time>
      </trkpt>
      <trkpt lat="40.154350" lon="-5.343483">
        <ele>1632.0</ele>
        <time>2013-06-30T14:28:14Z</time>
      </trkpt>
      <trkpt lat="40.154283" lon="-5.343500">
        <ele>1632.0</ele>
        <time>2013-06-30T14:28:15Z</time>
      </trkpt>
      <trkpt lat="40.154217" lon="-5.343533">
        <ele>1632.0</ele>
        <time>2013-06-30T14:28:16Z</time>
      </trkpt>
      <trkpt lat="40.154150" lon="-5.343583">
        <ele>1633.0</ele>
        <time>2013-06-30T14:28:17Z</time>
      </trkpt>
      <trkpt lat="40.154067" lon="-5.343633">
        <ele>1632.0</ele>
        <time>2013-06-30T14:28:18Z</time>
      </trkpt>
      <trkpt lat="40.154000" lon="-5.343683">
        <ele>1632.0</ele>
        <time>2013-06-30T14:28:19Z</time>
      </trkpt>
      <trkpt lat="40.153933" lon="-5.343767">
        <ele>1632.0</ele>
        <time>2013-06-30T14:28:20Z</time>
      </trkpt>
      <trkpt lat="40.153883" lon="-5.343850">
        <ele>1633.0</ele>
        <time>2013-06-30T14:28:21Z</time>
      </trkpt>
      <trkpt lat="40.153850" lon="-5.343950">
        <ele>1634.0</ele>
        <time>2013-06-30T14:28:22Z</time>
      </trkpt>
      <trkpt lat="40.153800" lon="-5.344050">
        <ele>1634.0</ele>
        <time>2013-06-30T14:28:23Z</time>
      </trkpt>
      <trkpt lat="40.153750" lon="-5.344150">
        <ele>1634.0</ele>
        <time>2013-06-30T14:28:24Z</time>
      </trkpt>
      <trkpt lat="40.153717" lon="-5.344267">
        <ele>1634.0</ele>
        <time>2013-06-30T14:28:25Z</time>
      </trkpt>
      <trkpt lat="40.153667" lon="-5.344383">
        <ele>1635.0</ele>
        <time>2013-06-30T14:28:26Z</time>
      </trkpt>
      <trkpt lat="40.153617" lon="-5.344500">
        <ele>1635.0</ele>
        <time>2013-06-30T14:28:27Z</time>
      </trkpt>
      <trkpt lat="40.153583" lon="-5.344617">
        <ele>1636.0</ele>
        <time>2013-06-30T14:28:28Z</time>
      </trkpt>
      <trkpt lat="40.153567" lon="-5.344717">
        <ele>1637.0</ele>
        <time>2013-06-30T14:28:29Z</time>
      </trkpt>
      <trkpt lat="40.153567" lon="-5.344833">
        <ele>1638.0</ele>
        <time>2013-06-30T14:28:30Z</time>
      </trkpt>
      <trkpt lat="40.153583" lon="-5.344983">
        <ele>1637.0</ele>
        <time>2013-06-30T14:28:31Z</time>
      </trkpt>
      <trkpt lat="40.153600" lon="-5.345117">
        <ele>1637.0</ele>
        <time>2013-06-30T14:28:32Z</time>
      </trkpt>
      <trkpt lat="40.153650" lon="-5.345233">
        <ele>1638.0</ele>
        <time>2013-06-30T14:28:33Z</time>
      </trkpt>
      <trkpt lat="40.153717" lon="-5.345317">
        <ele>1639.0</ele>
        <time>2013-06-30T14:28:34Z</time>
      </trkpt>
      <trkpt lat="40.153783" lon="-5.345400">
        <ele>1639.0</ele>
        <time>2013-06-30T14:28:35Z</time>
      </trkpt>
      <trkpt lat="40.153867" lon="-5.345433">
        <ele>1640.0</ele>
        <time>2013-06-30T14:28:36Z</time>
      </trkpt>
      <trkpt lat="40.153950" lon="-5.345467">
        <ele>1641.0</ele>
        <time>2013-06-30T14:28:37Z</time>
      </trkpt>
      <trkpt lat="40.154017" lon="-5.345500">
        <ele>1642.0</ele>
        <time>2013-06-30T14:28:38Z</time>
      </trkpt>
      <trkpt lat="40.154100" lon="-5.345500">
        <ele>1643.0</ele>
        <time>2013-06-30T14:28:39Z</time>
      </trkpt>
      <trkpt lat="40.154250" lon="-5.345500">
        <ele>1641.0</ele>
        <time>2013-06-30T14:28:41Z</time>
      </trkpt>
      <trkpt lat="40.154333" lon="-5.345467">
        <ele>1640.0</ele>
        <time>2013-06-30T14:28:42Z</time>
      </trkpt>
      <trkpt lat="40.154417" lon="-5.345433">
        <ele>1639.0</ele>
        <time>2013-06-30T14:28:43Z</time>
      </trkpt>
      <trkpt lat="40.154483" lon="-5.345383">
        <ele>1638.0</ele>
        <time>2013-06-30T14:28:44Z</time>
      </trkpt>
      <trkpt lat="40.154533" lon="-5.345333">
        <ele>1638.0</ele>
        <time>2013-06-30T14:28:45Z</time>
      </trkpt>
      <trkpt lat="40.154567" lon="-5.345283">
        <ele>1637.0</ele>
        <time>2013-06-30T14:28:46Z</time>
      </trkpt>
      <trkpt lat="40.154583" lon="-5.345217">
        <ele>1637.0</ele>
        <time>2013-06-30T14:28:47Z</time>
      </trkpt>
      <trkpt lat="40.154600" lon="-5.345150">
        <ele>1636.0</ele>
        <time>2013-06-30T14:28:48Z</time>
      </trkpt>
      <trkpt lat="40.154600" lon="-5.345067">
        <ele>1635.0</ele>
        <time>2013-06-30T14:28:49Z</time>
      </trkpt>
      <trkpt lat="40.154583" lon="-5.345017">
        <ele>1634.0</ele>
        <time>2013-06-30T14:28:50Z</time>
      </trkpt>
      <trkpt lat="40.154550" lon="-5.344950">
        <ele>1635.0</ele>
        <time>2013-06-30T14:28:51Z</time>
      </trkpt>
      <trkpt lat="40.154500" lon="-5.344917">
        <ele>1635.0</ele>
        <time>2013-06-30T14:28:52Z</time>
      </trkpt>
      <trkpt lat="40.154433" lon="-5.344900">
        <ele>1635.0</ele>
        <time>2013-06-30T14:28:53Z</time>
      </trkpt>
      <trkpt lat="40.154367" lon="-5.344900">
        <ele>1635.0</ele>
        <time>2013-06-30T14:28:54Z</time>
      </trkpt>
      <trkpt lat="40.154300" lon="-5.344917">
        <ele>1635.0</ele>
        <time>2013-06-30T14:28:55Z</time>
      </trkpt>
      <trkpt lat="40.154233" lon="-5.344933">
        <ele>1636.0</ele>
        <time>2013-06-30T14:28:56Z</time>
      </trkpt>
      <trkpt lat="40.154167" lon="-5.344983">
        <ele>1637.0</ele>
        <time>2013-06-30T14:28:57Z</time>
      </trkpt>
      <trkpt lat="40.154083" lon="-5.345017">
        <ele>1637.0</ele>
        <time>2013-06-30T14:28:58Z</time>
      </trkpt>
      <trkpt lat="40.154017" lon="-5.345067">
        <ele>1638.0</ele>
        <time>2013-06-30T14:28:59Z</time>
      </trkpt>
      <trkpt lat="40.153950" lon="-5.345100">
        <ele>1638.0</ele>
        <time>2013-06-30T14:29:00Z</time>
      </trkpt>
      <trkpt lat="40.153883" lon="-5.345150">
        <ele>1639.0</ele>
        <time>2013-06-30T14:29:01Z</time>
      </trkpt>
      <trkpt lat="40.153800" lon="-5.345167">
        <ele>1639.0</ele>
        <time>2013-06-30T14:29:02Z</time>
      </trkpt>
      <trkpt lat="40.153733" lon="-5.345200">
        <ele>1640.0</ele>
        <time>2013-06-30T14:29:03Z</time>
      </trkpt>
      <trkpt lat="40.153650" lon="-5.345250">
        <ele>1641.0</ele>
        <time>2013-06-30T14:29:04Z</time>
      </trkpt>
      <trkpt lat="40.153583" lon="-5.345317">
        <ele>1642.0</ele>
        <time>2013-06-30T14:29:05Z</time>
      </trkpt>
      <trkpt lat="40.153500" lon="-5.345383">
        <ele>1642.0</ele>
        <time>2013-06-30T14:29:06Z</time>
      </trkpt>
      <trkpt lat="40.153433" lon="-5.345467">
        <ele>1642.0</ele>
        <time>2013-06-30T14:29:07Z</time>
      </trkpt>
      <trkpt lat="40.153367" lon="-5.345550">
        <ele>1644.0</ele>
        <time>2013-06-30T14:29:08Z</time>
      </trkpt>
      <trkpt lat="40.153317" lon="-5.345633">
        <ele>1645.0</ele>
        <time>2013-06-30T14:29:09Z</time>
      </trkpt>
      <trkpt lat="40.153267" lon="-5.345717">
        <ele>1646.0</ele>
        <time>2013-06-30T14:29:10Z</time>
      </trkpt>
      <trkpt lat="40.153217" lon="-5.345800">
        <ele>1647.0</ele>
        <time>2013-06-30T14:29:11Z</time>
      </trkpt>
      <trkpt lat="40.153167" lon="-5.345900">
        <ele>1645.0</ele>
        <time>2013-06-30T14:29:12Z</time>
      </trkpt>
      <trkpt lat="40.153117" lon="-5.346017">
        <ele>1645.0</ele>
        <time>2013-06-30T14:29:13Z</time>
      </trkpt>
      <trkpt lat="40.153067" lon="-5.346150">
        <ele>1645.0</ele>
        <time>2013-06-30T14:29:14Z</time>
      </trkpt>
      <trkpt lat="40.153050" lon="-5.346283">
        <ele>1646.0</ele>
        <time>2013-06-30T14:29:15Z</time>
      </trkpt>
      <trkpt lat="40.153033" lon="-5.346417">
        <ele>1646.0</ele>
        <time>2013-06-30T14:29:16Z</time>
      </trkpt>
      <trkpt lat="40.153033" lon="-5.346550">
        <ele>1647.0</ele>
        <time>2013-06-30T14:29:17Z</time>
      </trkpt>
      <trkpt lat="40.153033" lon="-5.346683">
        <ele>1647.0</ele>
        <time>2013-06-30T14:29:18Z</time>
      </trkpt>
      <trkpt lat="40.153067" lon="-5.346817">
        <ele>1647.0</ele>
        <time>2013-06-30T14:29:19Z</time>
      </trkpt>
      <trkpt lat="40.153100" lon="-5.346950">
        <ele>1646.0</ele>
        <time>2013-06-30T14:29:20Z</time>
      </trkpt>
      <trkpt lat="40.153117" lon="-5.347067">
        <ele>1646.0</ele>
        <time>2013-06-30T14:29:21Z</time>
      </trkpt>
      <trkpt lat="40.153150" lon="-5.347183">
        <ele>1646.0</ele>
        <time>2013-06-30T14:29:22Z</time>
      </trkpt>
      <trkpt lat="40.153150" lon="-5.347317">
        <ele>1646.0</ele>
        <time>2013-06-30T14:29:23Z</time>
      </trkpt>
      <trkpt lat="40.153150" lon="-5.347450">
        <ele>1645.0</ele>
        <time>2013-06-30T14:29:24Z</time>
      </trkpt>
      <trkpt lat="40.153133" lon="-5.347583">
        <ele>1645.0</ele>
        <time>2013-06-30T14:29:25Z</time>
      </trkpt>
      <trkpt lat="40.153133" lon="-5.347717">
        <ele>1644.0</ele>
        <time>2013-06-30T14:29:26Z</time>
      </trkpt>
      <trkpt lat="40.153117" lon="-5.347833">
        <ele>1643.0</ele>
        <time>2013-06-30T14:29:27Z</time>
      </trkpt>
      <trkpt lat="40.153117" lon="-5.347967">
        <ele>1642.0</ele>
        <time>2013-06-30T14:29:28Z</time>
      </trkpt>
      <trkpt lat="40.153100" lon="-5.348100">
        <ele>1640.0</ele>
        <time>2013-06-30T14:29:29Z</time>
      </trkpt>
      <trkpt lat="40.153100" lon="-5.348233">
        <ele>1638.0</ele>
        <time>2013-06-30T14:29:30Z</time>
      </trkpt>
      <trkpt lat="40.153100" lon="-5.348383">
        <ele>1637.0</ele>
        <time>2013-06-30T14:29:31Z</time>
      </trkpt>
      <trkpt lat="40.153100" lon="-5.348500">
        <ele>1635.0</ele>
        <time>2013-06-30T14:29:32Z</time>
      </trkpt>
      <trkpt lat="40.153083" lon="-5.348633">
        <ele>1633.0</ele>
        <time>2013-06-30T14:29:33Z</time>
      </trkpt>
      <trkpt lat="40.153067" lon="-5.348750">
        <ele>1632.0</ele>
        <time>2013-06-30T14:29:34Z</time>
      </trkpt>
      <trkpt lat="40.153050" lon="-5.348883">
        <ele>1630.0</ele>
        <time>2013-06-30T14:29:35Z</time>
      </trkpt>
      <trkpt lat="40.153050" lon="-5.349017">
        <ele>1628.0</ele>
        <time>2013-06-30T14:29:36Z</time>
      </trkpt>
      <trkpt lat="40.153033" lon="-5.349133">
        <ele>1626.0</ele>
        <time>2013-06-30T14:29:37Z</time>
      </trkpt>
      <trkpt lat="40.153033" lon="-5.349267">
        <ele>1624.0</ele>
        <time>2013-06-30T14:29:38Z</time>
      </trkpt>
      <trkpt lat="40.153017" lon="-5.349383">
        <ele>1622.0</ele>
        <time>2013-06-30T14:29:39Z</time>
      </trkpt>
      <trkpt lat="40.153000" lon="-5.349517">
        <ele>1620.0</ele>
        <time>2013-06-30T14:29:40Z</time>
      </trkpt>
      <trkpt lat="40.152983" lon="-5.349667">
        <ele>1617.0</ele>
        <time>2013-06-30T14:29:41Z</time>
      </trkpt>
      <trkpt lat="40.152967" lon="-5.349783">
        <ele>1615.0</ele>
        <time>2013-06-30T14:29:42Z</time>
      </trkpt>
      <trkpt lat="40.152950" lon="-5.349900">
        <ele>1614.0</ele>
        <time>2013-06-30T14:29:43Z</time>
      </trkpt>
      <trkpt lat="40.152933" lon="-5.350017">
        <ele>1612.0</ele>
        <time>2013-06-30T14:29:44Z</time>
      </trkpt>
      <trkpt lat="40.152900" lon="-5.350150">
        <ele>1610.0</ele>
        <time>2013-06-30T14:29:45Z</time>
      </trkpt>
      <trkpt lat="40.152883" lon="-5.350283">
        <ele>1607.0</ele>
        <time>2013-06-30T14:29:46Z</time>
      </trkpt>
      <trkpt lat="40.152850" lon="-5.350417">
        <ele>1604.0</ele>
        <time>2013-06-30T14:29:47Z</time>
      </trkpt>
      <trkpt lat="40.152833" lon="-5.350550">
        <ele>1601.0</ele>
        <time>2013-06-30T14:29:48Z</time>
      </trkpt>
      <trkpt lat="40.152800" lon="-5.350700">
        <ele>1598.0</ele>
        <time>2013-06-30T14:29:49Z</time>
      </trkpt>
      <trkpt lat="40.152783" lon="-5.350833">
        <ele>1596.0</ele>
        <time>2013-06-30T14:29:50Z</time>
      </trkpt>
      <trkpt lat="40.152750" lon="-5.350950">
        <ele>1593.0</ele>
        <time>2013-06-30T14:29:51Z</time>
      </trkpt>
      <trkpt lat="40.152733" lon="-5.351067">
        <ele>1591.0</ele>
        <time>2013-06-30T14:29:52Z</time>
      </trkpt>
      <trkpt lat="40.152700" lon="-5.351200">
        <ele>1589.0</ele>
        <time>2013-06-30T14:29:53Z</time>
      </trkpt>
      <trkpt lat="40.152667" lon="-5.351333">
        <ele>1586.0</ele>
        <time>2013-06-30T14:29:54Z</time>
      </trkpt>
      <trkpt lat="40.152633" lon="-5.351467">
        <ele>1583.0</ele>
        <time>2013-06-30T14:29:55Z</time>
      </trkpt>
      <trkpt lat="40.152617" lon="-5.351600">
        <ele>1580.0</ele>
        <time>2013-06-30T14:29:56Z</time>
      </trkpt>
      <trkpt lat="40.152583" lon="-5.351717">
        <ele>1578.0</ele>
        <time>2013-06-30T14:29:57Z</time>
      </trkpt>
      <trkpt lat="40.152567" lon="-5.351850">
        <ele>1577.0</ele>
        <time>2013-06-30T14:29:58Z</time>
      </trkpt>
      <trkpt lat="40.152550" lon="-5.351967">
        <ele>1574.0</ele>
        <time>2013-06-30T14:29:59Z</time>
      </trkpt>
      <trkpt lat="40.152517" lon="-5.352100">
        <ele>1572.0</ele>
        <time>2013-06-30T14:30:00Z</time>
      </trkpt>
      <trkpt lat="40.152500" lon="-5.352250">
        <ele>1570.0</ele>
        <time>2013-06-30T14:30:01Z</time>
      </trkpt>
      <trkpt lat="40.152483" lon="-5.352400">
        <ele>1569.0</ele>
        <time>2013-06-30T14:30:02Z</time>
      </trkpt>
      <trkpt lat="40.152467" lon="-5.352533">
        <ele>1567.0</ele>
        <time>2013-06-30T14:30:03Z</time>
      </trkpt>
      <trkpt lat="40.152450" lon="-5.352667">
        <ele>1566.0</ele>
        <time>2013-06-30T14:30:04Z</time>
      </trkpt>
      <trkpt lat="40.152433" lon="-5.352800">
        <ele>1564.0</ele>
        <time>2013-06-30T14:30:05Z</time>
      </trkpt>
      <trkpt lat="40.152433" lon="-5.352950">
        <ele>1563.0</ele>
        <time>2013-06-30T14:30:06Z</time>
      </trkpt>
      <trkpt lat="40.152433" lon="-5.353100">
        <ele>1562.0</ele>
        <time>2013-06-30T14:30:07Z</time>
      </trkpt>
      <trkpt lat="40.152450" lon="-5.353267">
        <ele>1561.0</ele>
        <time>2013-06-30T14:30:08Z</time>
      </trkpt>
      <trkpt lat="40.152467" lon="-5.353417">
        <ele>1559.0</ele>
        <time>2013-06-30T14:30:09Z</time>
      </trkpt>
      <trkpt lat="40.152483" lon="-5.353567">
        <ele>1558.0</ele>
        <time>2013-06-30T14:30:10Z</time>
      </trkpt>
      <trkpt lat="40.152483" lon="-5.353717">
        <ele>1557.0</ele>
        <time>2013-06-30T14:30:11Z</time>
      </trkpt>
      <trkpt lat="40.152500" lon="-5.353883">
        <ele>1556.0</ele>
        <time>2013-06-30T14:30:12Z</time>
      </trkpt>
      <trkpt lat="40.152533" lon="-5.354033">
        <ele>1554.0</ele>
        <time>2013-06-30T14:30:13Z</time>
      </trkpt>
      <trkpt lat="40.152550" lon="-5.354183">
        <ele>1553.0</ele>
        <time>2013-06-30T14:30:14Z</time>
      </trkpt>
      <trkpt lat="40.152567" lon="-5.354333">
        <ele>1551.0</ele>
        <time>2013-06-30T14:30:15Z</time>
      </trkpt>
      <trkpt lat="40.152583" lon="-5.354483">
        <ele>1550.0</ele>
        <time>2013-06-30T14:30:16Z</time>
      </trkpt>
      <trkpt lat="40.152617" lon="-5.354633">
        <ele>1548.0</ele>
        <time>2013-06-30T14:30:17Z</time>
      </trkpt>
      <trkpt lat="40.152650" lon="-5.354767">
        <ele>1547.0</ele>
        <time>2013-06-30T14:30:18Z</time>
      </trkpt>
      <trkpt lat="40.152683" lon="-5.354917">
        <ele>1546.0</ele>
        <time>2013-06-30T14:30:19Z</time>
      </trkpt>
      <trkpt lat="40.152717" lon="-5.355033">
        <ele>1545.0</ele>
        <time>2013-06-30T14:30:20Z</time>
      </trkpt>
      <trkpt lat="40.152733" lon="-5.355167">
        <ele>1544.0</ele>
        <time>2013-06-30T14:30:21Z</time>
      </trkpt>
      <trkpt lat="40.152767" lon="-5.355300">
        <ele>1543.0</ele>
        <time>2013-06-30T14:30:22Z</time>
      </trkpt>
      <trkpt lat="40.152800" lon="-5.355433">
        <ele>1541.0</ele>
        <time>2013-06-30T14:30:23Z</time>
      </trkpt>
      <trkpt lat="40.152850" lon="-5.355583">
        <ele>1538.0</ele>
        <time>2013-06-30T14:30:24Z</time>
      </trkpt>
      <trkpt lat="40.152900" lon="-5.355733">
        <ele>1537.0</ele>
        <time>2013-06-30T14:30:25Z</time>
      </trkpt>
      <trkpt lat="40.152933" lon="-5.355883">
        <ele>1535.0</ele>
        <time>2013-06-30T14:30:26Z</time>
      </trkpt>
      <trkpt lat="40.152983" lon="-5.356017">
        <ele>1534.0</ele>
        <time>2013-06-30T14:30:27Z</time>
      </trkpt>
      <trkpt lat="40.153017" lon="-5.356150">
        <ele>1533.0</ele>
        <time>2013-06-30T14:30:28Z</time>
      </trkpt>
      <trkpt lat="40.153050" lon="-5.356300">
        <ele>1532.0</ele>
        <time>2013-06-30T14:30:29Z</time>
      </trkpt>
      <trkpt lat="40.153083" lon="-5.356450">
        <ele>1531.0</ele>
        <time>2013-06-30T14:30:30Z</time>
      </trkpt>
      <trkpt lat="40.153100" lon="-5.356600">
        <ele>1531.0</ele>
        <time>2013-06-30T14:30:31Z</time>
      </trkpt>
      <trkpt lat="40.153100" lon="-5.356733">
        <ele>1531.0</ele>
        <time>2013-06-30T14:30:32Z</time>
      </trkpt>
      <trkpt lat="40.153117" lon="-5.356883">
        <ele>1530.0</ele>
        <time>2013-06-30T14:30:33Z</time>
      </trkpt>
      <trkpt lat="40.153117" lon="-5.357033">
        <ele>1530.0</ele>
        <time>2013-06-30T14:30:34Z</time>
      </trkpt>
      <trkpt lat="40.153133" lon="-5.357200">
        <ele>1530.0</ele>
        <time>2013-06-30T14:30:35Z</time>
      </trkpt>
      <trkpt lat="40.153133" lon="-5.357350">
        <ele>1530.0</ele>
        <time>2013-06-30T14:30:36Z</time>
      </trkpt>
      <trkpt lat="40.153133" lon="-5.357500">
        <ele>1530.0</ele>
        <time>2013-06-30T14:30:37Z</time>
      </trkpt>
      <trkpt lat="40.153133" lon="-5.357650">
        <ele>1531.0</ele>
        <time>2013-06-30T14:30:38Z</time>
      </trkpt>
      <trkpt lat="40.153150" lon="-5.357800">
        <ele>1531.0</ele>
        <time>2013-06-30T14:30:39Z</time>
      </trkpt>
      <trkpt lat="40.153150" lon="-5.357967">
        <ele>1531.0</ele>
        <time>2013-06-30T14:30:40Z</time>
      </trkpt>
      <trkpt lat="40.153150" lon="-5.358133">
        <ele>1530.0</ele>
        <time>2013-06-30T14:30:41Z</time>
      </trkpt>
      <trkpt lat="40.153150" lon="-5.358300">
        <ele>1531.0</ele>
        <time>2013-06-30T14:30:42Z</time>
      </trkpt>
      <trkpt lat="40.153167" lon="-5.358450">
        <ele>1531.0</ele>
        <time>2013-06-30T14:30:43Z</time>
      </trkpt>
      <trkpt lat="40.153167" lon="-5.358600">
        <ele>1531.0</ele>
        <time>2013-06-30T14:30:44Z</time>
      </trkpt>
      <trkpt lat="40.153167" lon="-5.358750">
        <ele>1531.0</ele>
        <time>2013-06-30T14:30:45Z</time>
      </trkpt>
      <trkpt lat="40.153167" lon="-5.358917">
        <ele>1531.0</ele>
        <time>2013-06-30T14:30:46Z</time>
      </trkpt>
      <trkpt lat="40.153150" lon="-5.359067">
        <ele>1531.0</ele>
        <time>2013-06-30T14:30:47Z</time>
      </trkpt>
      <trkpt lat="40.153133" lon="-5.359217">
        <ele>1532.0</ele>
        <time>2013-06-30T14:30:48Z</time>
      </trkpt>
      <trkpt lat="40.153117" lon="-5.359367">
        <ele>1531.0</ele>
        <time>2013-06-30T14:30:49Z</time>
      </trkpt>
      <trkpt lat="40.153100" lon="-5.359500">
        <ele>1532.0</ele>
        <time>2013-06-30T14:30:50Z</time>
      </trkpt>
      <trkpt lat="40.153083" lon="-5.359633">
        <ele>1532.0</ele>
        <time>2013-06-30T14:30:51Z</time>
      </trkpt>
      <trkpt lat="40.153067" lon="-5.359783">
        <ele>1531.0</ele>
        <time>2013-06-30T14:30:52Z</time>
      </trkpt>
      <trkpt lat="40.153033" lon="-5.359933">
        <ele>1530.0</ele>
        <time>2013-06-30T14:30:53Z</time>
      </trkpt>
      <trkpt lat="40.153017" lon="-5.360067">
        <ele>1529.0</ele>
        <time>2013-06-30T14:30:54Z</time>
      </trkpt>
      <trkpt lat="40.152983" lon="-5.360217">
        <ele>1528.0</ele>
        <time>2013-06-30T14:30:55Z</time>
      </trkpt>
      <trkpt lat="40.152967" lon="-5.360350">
        <ele>1528.0</ele>
        <time>2013-06-30T14:30:56Z</time>
      </trkpt>
      <trkpt lat="40.152933" lon="-5.360500">
        <ele>1527.0</ele>
        <time>2013-06-30T14:30:57Z</time>
      </trkpt>
      <trkpt lat="40.152900" lon="-5.360617">
        <ele>1526.0</ele>
        <time>2013-06-30T14:30:58Z</time>
      </trkpt>
      <trkpt lat="40.152867" lon="-5.360767">
        <ele>1525.0</ele>
        <time>2013-06-30T14:30:59Z</time>
      </trkpt>
      <trkpt lat="40.152833" lon="-5.360900">
        <ele>1524.0</ele>
        <time>2013-06-30T14:31:00Z</time>
      </trkpt>
      <trkpt lat="40.152800" lon="-5.361033">
        <ele>1524.0</ele>
        <time>2013-06-30T14:31:01Z</time>
      </trkpt>
      <trkpt lat="40.152767" lon="-5.361150">
        <ele>1523.0</ele>
        <time>2013-06-30T14:31:02Z</time>
      </trkpt>
      <trkpt lat="40.152733" lon="-5.361283">
        <ele>1523.0</ele>
        <time>2013-06-30T14:31:03Z</time>
      </trkpt>
      <trkpt lat="40.152700" lon="-5.361400">
        <ele>1522.0</ele>
        <time>2013-06-30T14:31:04Z</time>
      </trkpt>
      <trkpt lat="40.152650" lon="-5.361517">
        <ele>1521.0</ele>
        <time>2013-06-30T14:31:05Z</time>
      </trkpt>
      <trkpt lat="40.152600" lon="-5.361633">
        <ele>1520.0</ele>
        <time>2013-06-30T14:31:06Z</time>
      </trkpt>
      <trkpt lat="40.152550" lon="-5.361750">
        <ele>1519.0</ele>
        <time>2013-06-30T14:31:07Z</time>
      </trkpt>
      <trkpt lat="40.152500" lon="-5.361867">
        <ele>1518.0</ele>
        <time>2013-06-30T14:31:08Z</time>
      </trkpt>
      <trkpt lat="40.152467" lon="-5.361967">
        <ele>1518.0</ele>
        <time>2013-06-30T14:31:09Z</time>
      </trkpt>
      <trkpt lat="40.152417" lon="-5.362067">
        <ele>1518.0</ele>
        <time>2013-06-30T14:31:10Z</time>
      </trkpt>
      <trkpt lat="40.152383" lon="-5.362167">
        <ele>1519.0</ele>
        <time>2013-06-30T14:31:11Z</time>
      </trkpt>
      <trkpt lat="40.152333" lon="-5.362267">
        <ele>1518.0</ele>
        <time>2013-06-30T14:31:12Z</time>
      </trkpt>
      <trkpt lat="40.152283" lon="-5.362350">
        <ele>1519.0</ele>
        <time>2013-06-30T14:31:13Z</time>
      </trkpt>
      <trkpt lat="40.152250" lon="-5.362450">
        <ele>1519.0</ele>
        <time>2013-06-30T14:31:14Z</time>
      </trkpt>
      <trkpt lat="40.152200" lon="-5.362550">
        <ele>1519.0</ele>
        <time>2013-06-30T14:31:15Z</time>
      </trkpt>
      <trkpt lat="40.152167" lon="-5.362667">
        <ele>1518.0</ele>
        <time>2013-06-30T14:31:16Z</time>
      </trkpt>
      <trkpt lat="40.152133" lon="-5.362800">
        <ele>1518.0</ele>
        <time>2013-06-30T14:31:17Z</time>
      </trkpt>
      <trkpt lat="40.152083" lon="-5.362900">
        <ele>1517.0</ele>
        <time>2013-06-30T14:31:18Z</time>
      </trkpt>
      <trkpt lat="40.152033" lon="-5.362983">
        <ele>1519.0</ele>
        <time>2013-06-30T14:31:19Z</time>
      </trkpt>
      <trkpt lat="40.151983" lon="-5.363067">
        <ele>1520.0</ele>
        <time>2013-06-30T14:31:20Z</time>
      </trkpt>
      <trkpt lat="40.151950" lon="-5.363150">
        <ele>1521.0</ele>
        <time>2013-06-30T14:31:21Z</time>
      </trkpt>
      <trkpt lat="40.151900" lon="-5.363233">
        <ele>1521.0</ele>
        <time>2013-06-30T14:31:22Z</time>
      </trkpt>
      <trkpt lat="40.151867" lon="-5.363333">
        <ele>1520.0</ele>
        <time>2013-06-30T14:31:23Z</time>
      </trkpt>
      <trkpt lat="40.151817" lon="-5.363433">
        <ele>1518.0</ele>
        <time>2013-06-30T14:31:24Z</time>
      </trkpt>
      <trkpt lat="40.151767" lon="-5.363533">
        <ele>1517.0</ele>
        <time>2013-06-30T14:31:25Z</time>
      </trkpt>
      <trkpt lat="40.151700" lon="-5.363617">
        <ele>1516.0</ele>
        <time>2013-06-30T14:31:26Z</time>
      </trkpt>
      <trkpt lat="40.151650" lon="-5.363717">
        <ele>1515.0</ele>
        <time>2013-06-30T14:31:27Z</time>
      </trkpt>
      <trkpt lat="40.151617" lon="-5.363817">
        <ele>1513.0</ele>
        <time>2013-06-30T14:31:28Z</time>
      </trkpt>
      <trkpt lat="40.151567" lon="-5.363900">
        <ele>1512.0</ele>
        <time>2013-06-30T14:31:29Z</time>
      </trkpt>
      <trkpt lat="40.151533" lon="-5.363983">
        <ele>1510.0</ele>
        <time>2013-06-30T14:31:30Z</time>
      </trkpt>
      <trkpt lat="40.151483" lon="-5.364067">
        <ele>1508.0</ele>
        <time>2013-06-30T14:31:31Z</time>
      </trkpt>
      <trkpt lat="40.151433" lon="-5.364150">
        <ele>1506.0</ele>
        <time>2013-06-30T14:31:32Z</time>
      </trkpt>
      <trkpt lat="40.151383" lon="-5.364233">
        <ele>1504.0</ele>
        <time>2013-06-30T14:31:33Z</time>
      </trkpt>
      <trkpt lat="40.151333" lon="-5.364333">
        <ele>1502.0</ele>
        <time>2013-06-30T14:31:34Z</time>
      </trkpt>
      <trkpt lat="40.151300" lon="-5.364433">
        <ele>1499.0</ele>
        <time>2013-06-30T14:31:35Z</time>
      </trkpt>
      <trkpt lat="40.151267" lon="-5.364533">
        <ele>1497.0</ele>
        <time>2013-06-30T14:31:36Z</time>
      </trkpt>
      <trkpt lat="40.151217" lon="-5.364617">
        <ele>1494.0</ele>
        <time>2013-06-30T14:31:37Z</time>
      </trkpt>
      <trkpt lat="40.151183" lon="-5.364717">
        <ele>1493.0</ele>
        <time>2013-06-30T14:31:38Z</time>
      </trkpt>
      <trkpt lat="40.151150" lon="-5.364800">
        <ele>1491.0</ele>
        <time>2013-06-30T14:31:39Z</time>
      </trkpt>
      <trkpt lat="40.151117" lon="-5.364883">
        <ele>1490.0</ele>
        <time>2013-06-30T14:31:40Z</time>
      </trkpt>
      <trkpt lat="40.151083" lon="-5.364967">
        <ele>1488.0</ele>
        <time>2013-06-30T14:31:41Z</time>
      </trkpt>
      <trkpt lat="40.151033" lon="-5.365067">
        <ele>1486.0</ele>
        <time>2013-06-30T14:31:42Z</time>
      </trkpt>
      <trkpt lat="40.150983" lon="-5.365167">
        <ele>1484.0</ele>
        <time>2013-06-30T14:31:43Z</time>
      </trkpt>
      <trkpt lat="40.150933" lon="-5.365267">
        <ele>1483.0</ele>
        <time>2013-06-30T14:31:44Z</time>
      </trkpt>
      <trkpt lat="40.150900" lon="-5.365350">
        <ele>1482.0</ele>
        <time>2013-06-30T14:31:45Z</time>
      </trkpt>
      <trkpt lat="40.150867" lon="-5.365433">
        <ele>1481.0</ele>
        <time>2013-06-30T14:31:46Z</time>
      </trkpt>
      <trkpt lat="40.150817" lon="-5.365533">
        <ele>1480.0</ele>
        <time>2013-06-30T14:31:47Z</time>
      </trkpt>
      <trkpt lat="40.150750" lon="-5.365633">
        <ele>1478.0</ele>
        <time>2013-06-30T14:31:48Z</time>
      </trkpt>
      <trkpt lat="40.150700" lon="-5.365733">
        <ele>1476.0</ele>
        <time>2013-06-30T14:31:49Z</time>
      </trkpt>
      <trkpt lat="40.150650" lon="-5.365817">
        <ele>1475.0</ele>
        <time>2013-06-30T14:31:50Z</time>
      </trkpt>
      <trkpt lat="40.150617" lon="-5.365900">
        <ele>1476.0</ele>
        <time>2013-06-30T14:31:51Z</time>
      </trkpt>
      <trkpt lat="40.150583" lon="-5.365967">
        <ele>1476.0</ele>
        <time>2013-06-30T14:31:52Z</time>
      </trkpt>
      <trkpt lat="40.150550" lon="-5.366050">
        <ele>1475.0</ele>
        <time>2013-06-30T14:31:53Z</time>
      </trkpt>
      <trkpt lat="40.150500" lon="-5.366150">
        <ele>1473.0</ele>
        <time>2013-06-30T14:31:54Z</time>
      </trkpt>
      <trkpt lat="40.150467" lon="-5.366267">
        <ele>1471.0</ele>
        <time>2013-06-30T14:31:55Z</time>
      </trkpt>
      <trkpt lat="40.150433" lon="-5.366383">
        <ele>1469.0</ele>
        <time>2013-06-30T14:31:56Z</time>
      </trkpt>
      <trkpt lat="40.150383" lon="-5.366483">
        <ele>1469.0</ele>
        <time>2013-06-30T14:31:57Z</time>
      </trkpt>
      <trkpt lat="40.150333" lon="-5.366583">
        <ele>1468.0</ele>
        <time>2013-06-30T14:31:58Z</time>
      </trkpt>
      <trkpt lat="40.150283" lon="-5.366683">
        <ele>1469.0</ele>
        <time>2013-06-30T14:31:59Z</time>
      </trkpt>
      <trkpt lat="40.150233" lon="-5.366800">
        <ele>1470.0</ele>
        <time>2013-06-30T14:32:00Z</time>
      </trkpt>
      <trkpt lat="40.150200" lon="-5.366900">
        <ele>1472.0</ele>
        <time>2013-06-30T14:32:01Z</time>
      </trkpt>
      <trkpt lat="40.150150" lon="-5.366983">
        <ele>1474.0</ele>
        <time>2013-06-30T14:32:02Z</time>
      </trkpt>
      <trkpt lat="40.150100" lon="-5.367067">
        <ele>1476.0</ele>
        <time>2013-06-30T14:32:03Z</time>
      </trkpt>
      <trkpt lat="40.150050" lon="-5.367150">
        <ele>1478.0</ele>
        <time>2013-06-30T14:32:04Z</time>
      </trkpt>
      <trkpt lat="40.150000" lon="-5.367250">
        <ele>1479.0</ele>
        <time>2013-06-30T14:32:05Z</time>
      </trkpt>
      <trkpt lat="40.149950" lon="-5.367350">
        <ele>1479.0</ele>
        <time>2013-06-30T14:32:06Z</time>
      </trkpt>
      <trkpt lat="40.149900" lon="-5.367450">
        <ele>1480.0</ele>
        <time>2013-06-30T14:32:07Z</time>
      </trkpt>
      <trkpt lat="40.149850" lon="-5.367533">
        <ele>1481.0</ele>
        <time>2013-06-30T14:32:08Z</time>
      </trkpt>
      <trkpt lat="40.149800" lon="-5.367633">
        <ele>1482.0</ele>
        <time>2013-06-30T14:32:09Z</time>
      </trkpt>
      <trkpt lat="40.149750" lon="-5.367717">
        <ele>1484.0</ele>
        <time>2013-06-30T14:32:10Z</time>
      </trkpt>
      <trkpt lat="40.149717" lon="-5.367817">
        <ele>1485.0</ele>
        <time>2013-06-30T14:32:11Z</time>
      </trkpt>
      <trkpt lat="40.149683" lon="-5.367933">
        <ele>1486.0</ele>
        <time>2013-06-30T14:32:12Z</time>
      </trkpt>
      <trkpt lat="40.149683" lon="-5.368050">
        <ele>1487.0</ele>
        <time>2013-06-30T14:32:13Z</time>
      </trkpt>
      <trkpt lat="40.149700" lon="-5.368167">
        <ele>1487.0</ele>
        <time>2013-06-30T14:32:14Z</time>
      </trkpt>
      <trkpt lat="40.149767" lon="-5.368433">
        <ele>1491.0</ele>
        <time>2013-06-30T14:32:16Z</time>
      </trkpt>
      <trkpt lat="40.149783" lon="-5.368533">
        <ele>1494.0</ele>
        <time>2013-06-30T14:32:17Z</time>
      </trkpt>
      <trkpt lat="40.149800" lon="-5.368633">
        <ele>1498.0</ele>
        <time>2013-06-30T14:32:18Z</time>
      </trkpt>
      <trkpt lat="40.149817" lon="-5.368717">
        <ele>1501.0</ele>
        <time>2013-06-30T14:32:19Z</time>
      </trkpt>
      <trkpt lat="40.149850" lon="-5.368833">
        <ele>1504.0</ele>
        <time>2013-06-30T14:32:20Z</time>
      </trkpt>
      <trkpt lat="40.149900" lon="-5.368950">
        <ele>1505.0</ele>
        <time>2013-06-30T14:32:21Z</time>
      </trkpt>
      <trkpt lat="40.150033" lon="-5.369150">
        <ele>1508.0</ele>
        <time>2013-06-30T14:32:23Z</time>
      </trkpt>
      <trkpt lat="40.150117" lon="-5.369200">
        <ele>1510.0</ele>
        <time>2013-06-30T14:32:24Z</time>
      </trkpt>
      <trkpt lat="40.150200" lon="-5.369250">
        <ele>1510.0</ele>
        <time>2013-06-30T14:32:25Z</time>
      </trkpt>
      <trkpt lat="40.150283" lon="-5.369267">
        <ele>1511.0</ele>
        <time>2013-06-30T14:32:26Z</time>
      </trkpt>
      <trkpt lat="40.150350" lon="-5.369250">
        <ele>1512.0</ele>
        <time>2013-06-30T14:32:27Z</time>
      </trkpt>
      <trkpt lat="40.150417" lon="-5.369217">
        <ele>1513.0</ele>
        <time>2013-06-30T14:32:28Z</time>
      </trkpt>
      <trkpt lat="40.150450" lon="-5.369167">
        <ele>1513.0</ele>
        <time>2013-06-30T14:32:29Z</time>
      </trkpt>
      <trkpt lat="40.150500" lon="-5.369117">
        <ele>1513.0</ele>
        <time>2013-06-30T14:32:30Z</time>
      </trkpt>
      <trkpt lat="40.150550" lon="-5.369050">
        <ele>1513.0</ele>
        <time>2013-06-30T14:32:31Z</time>
      </trkpt>
      <trkpt lat="40.150617" lon="-5.368983">
        <ele>1513.0</ele>
        <time>2013-06-30T14:32:32Z</time>
      </trkpt>
      <trkpt lat="40.150667" lon="-5.368917">
        <ele>1514.0</ele>
        <time>2013-06-30T14:32:33Z</time>
      </trkpt>
      <trkpt lat="40.150683" lon="-5.368850">
        <ele>1516.0</ele>
        <time>2013-06-30T14:32:34Z</time>
      </trkpt>
      <trkpt lat="40.150683" lon="-5.368733">
        <ele>1519.0</ele>
        <time>2013-06-30T14:32:36Z</time>
      </trkpt>
      <trkpt lat="40.150683" lon="-5.368683">
        <ele>1521.0</ele>
        <time>2013-06-30T14:32:37Z</time>
      </trkpt>
      <trkpt lat="40.150700" lon="-5.368617">
        <ele>1521.0</ele>
        <time>2013-06-30T14:32:38Z</time>
      </trkpt>
      <trkpt lat="40.150683" lon="-5.368533">
        <ele>1522.0</ele>
        <time>2013-06-30T14:32:39Z</time>
      </trkpt>
      <trkpt lat="40.150667" lon="-5.368467">
        <ele>1522.0</ele>
        <time>2013-06-30T14:32:40Z</time>
      </trkpt>
      <trkpt lat="40.150650" lon="-5.368383">
        <ele>1524.0</ele>
        <time>2013-06-30T14:32:41Z</time>
      </trkpt>
      <trkpt lat="40.150617" lon="-5.368317">
        <ele>1525.0</ele>
        <time>2013-06-30T14:32:42Z</time>
      </trkpt>
      <trkpt lat="40.150567" lon="-5.368250">
        <ele>1527.0</ele>
        <time>2013-06-30T14:32:43Z</time>
      </trkpt>
      <trkpt lat="40.150517" lon="-5.368183">
        <ele>1529.0</ele>
        <time>2013-06-30T14:32:44Z</time>
      </trkpt>
      <trkpt lat="40.150467" lon="-5.368117">
        <ele>1531.0</ele>
        <time>2013-06-30T14:32:45Z</time>
      </trkpt>
      <trkpt lat="40.150417" lon="-5.368067">
        <ele>1532.0</ele>
        <time>2013-06-30T14:32:46Z</time>
      </trkpt>
      <trkpt lat="40.150367" lon="-5.368017">
        <ele>1534.0</ele>
        <time>2013-06-30T14:32:47Z</time>
      </trkpt>
      <trkpt lat="40.150317" lon="-5.367950">
        <ele>1535.0</ele>
        <time>2013-06-30T14:32:48Z</time>
      </trkpt>
      <trkpt lat="40.150250" lon="-5.367883">
        <ele>1535.0</ele>
        <time>2013-06-30T14:32:49Z</time>
      </trkpt>
      <trkpt lat="40.150183" lon="-5.367833">
        <ele>1536.0</ele>
        <time>2013-06-30T14:32:50Z</time>
      </trkpt>
      <trkpt lat="40.150117" lon="-5.367767">
        <ele>1538.0</ele>
        <time>2013-06-30T14:32:51Z</time>
      </trkpt>
      <trkpt lat="40.150033" lon="-5.367733">
        <ele>1539.0</ele>
        <time>2013-06-30T14:32:52Z</time>
      </trkpt>
      <trkpt lat="40.149883" lon="-5.367717">
        <ele>1542.0</ele>
        <time>2013-06-30T14:32:54Z</time>
      </trkpt>
      <trkpt lat="40.149800" lon="-5.367717">
        <ele>1543.0</ele>
        <time>2013-06-30T14:32:55Z</time>
      </trkpt>
      <trkpt lat="40.149717" lon="-5.367733">
        <ele>1545.0</ele>
        <time>2013-06-30T14:32:56Z</time>
      </trkpt>
      <trkpt lat="40.149633" lon="-5.367767">
        <ele>1547.0</ele>
        <time>2013-06-30T14:32:57Z</time>
      </trkpt>
      <trkpt lat="40.149533" lon="-5.367817">
        <ele>1548.0</ele>
        <time>2013-06-30T14:32:58Z</time>
      </trkpt>
      <trkpt lat="40.149450" lon="-5.367883">
        <ele>1550.0</ele>
        <time>2013-06-30T14:32:59Z</time>
      </trkpt>
      <trkpt lat="40.149383" lon="-5.367950">
        <ele>1552.0</ele>
        <time>2013-06-30T14:33:00Z</time>
      </trkpt>
      <trkpt lat="40.149317" lon="-5.368033">
        <ele>1554.0</ele>
        <time>2013-06-30T14:33:01Z</time>
      </trkpt>
      <trkpt lat="40.149250" lon="-5.368117">
        <ele>1556.0</ele>
        <time>2013-06-30T14:33:02Z</time>
      </trkpt>
      <trkpt lat="40.149167" lon="-5.368217">
        <ele>1558.0</ele>
        <time>2013-06-30T14:33:03Z</time>
      </trkpt>
      <trkpt lat="40.149133" lon="-5.368300">
        <ele>1561.0</ele>
        <time>2013-06-30T14:33:04Z</time>
      </trkpt>
      <trkpt lat="40.149100" lon="-5.368400">
        <ele>1564.0</ele>
        <time>2013-06-30T14:33:05Z</time>
      </trkpt>
      <trkpt lat="40.149083" lon="-5.368533">
        <ele>1565.0</ele>
        <time>2013-06-30T14:33:06Z</time>
      </trkpt>
      <trkpt lat="40.149083" lon="-5.368650">
        <ele>1566.0</ele>
        <time>2013-06-30T14:33:07Z</time>
      </trkpt>
      <trkpt lat="40.149083" lon="-5.368783">
        <ele>1567.0</ele>
        <time>2013-06-30T14:33:08Z</time>
      </trkpt>
      <trkpt lat="40.149100" lon="-5.368900">
        <ele>1568.0</ele>
        <time>2013-06-30T14:33:09Z</time>
      </trkpt>
      <trkpt lat="40.149133" lon="-5.369000">
        <ele>1570.0</ele>
        <time>2013-06-30T14:33:10Z</time>
      </trkpt>
      <trkpt lat="40.149183" lon="-5.369100">
        <ele>1571.0</ele>
        <time>2013-06-30T14:33:11Z</time>
      </trkpt>
      <trkpt lat="40.149233" lon="-5.369183">
        <ele>1572.0</ele>
        <time>2013-06-30T14:33:12Z</time>
      </trkpt>
      <trkpt lat="40.149317" lon="-5.369250">
        <ele>1572.0</ele>
        <time>2013-06-30T14:33:13Z</time>
      </trkpt>
      <trkpt lat="40.149383" lon="-5.369317">
        <ele>1573.0</ele>
        <time>2013-06-30T14:33:14Z</time>
      </trkpt>
      <trkpt lat="40.149467" lon="-5.369367">
        <ele>1574.0</ele>
        <time>2013-06-30T14:33:15Z</time>
      </trkpt>
      <trkpt lat="40.149533" lon="-5.369383">
        <ele>1575.0</ele>
        <time>2013-06-30T14:33:16Z</time>
      </trkpt>
      <trkpt lat="40.149617" lon="-5.369367">
        <ele>1576.0</ele>
        <time>2013-06-30T14:33:17Z</time>
      </trkpt>
      <trkpt lat="40.149750" lon="-5.369283">
        <ele>1577.0</ele>
        <time>2013-06-30T14:33:19Z</time>
      </trkpt>
      <trkpt lat="40.149800" lon="-5.369217">
        <ele>1579.0</ele>
        <time>2013-06-30T14:33:20Z</time>
      </trkpt>
      <trkpt lat="40.149833" lon="-5.369150">
        <ele>1580.0</ele>
        <time>2013-06-30T14:33:21Z</time>
      </trkpt>
      <trkpt lat="40.149917" lon="-5.369000">
        <ele>1583.0</ele>
        <time>2013-06-30T14:33:23Z</time>
      </trkpt>
      <trkpt lat="40.149933" lon="-5.368900">
        <ele>1584.0</ele>
        <time>2013-06-30T14:33:24Z</time>
      </trkpt>
      <trkpt lat="40.149933" lon="-5.368800">
        <ele>1585.0</ele>
        <time>2013-06-30T14:33:25Z</time>
      </trkpt>
      <trkpt lat="40.149933" lon="-5.368717">
        <ele>1587.0</ele>
        <time>2013-06-30T14:33:26Z</time>
      </trkpt>
      <trkpt lat="40.149917" lon="-5.368617">
        <ele>1589.0</ele>
        <time>2013-06-30T14:33:27Z</time>
      </trkpt>
      <trkpt lat="40.149883" lon="-5.368517">
        <ele>1590.0</ele>
        <time>2013-06-30T14:33:28Z</time>
      </trkpt>
      <trkpt lat="40.149850" lon="-5.368433">
        <ele>1591.0</ele>
        <time>2013-06-30T14:33:29Z</time>
      </trkpt>
      <trkpt lat="40.149800" lon="-5.368350">
        <ele>1592.0</ele>
        <time>2013-06-30T14:33:30Z</time>
      </trkpt>
      <trkpt lat="40.149750" lon="-5.368283">
        <ele>1594.0</ele>
        <time>2013-06-30T14:33:31Z</time>
      </trkpt>
      <trkpt lat="40.149700" lon="-5.368233">
        <ele>1596.0</ele>
        <time>2013-06-30T14:33:32Z</time>
      </trkpt>
      <trkpt lat="40.149633" lon="-5.368183">
        <ele>1598.0</ele>
        <time>2013-06-30T14:33:33Z</time>
      </trkpt>
      <trkpt lat="40.149550" lon="-5.368133">
        <ele>1599.0</ele>
        <time>2013-06-30T14:33:34Z</time>
      </trkpt>
      <trkpt lat="40.149467" lon="-5.368100">
        <ele>1600.0</ele>
        <time>2013-06-30T14:33:35Z</time>
      </trkpt>
      <trkpt lat="40.149367" lon="-5.368050">
        <ele>1601.0</ele>
        <time>2013-06-30T14:33:36Z</time>
      </trkpt>
      <trkpt lat="40.149283" lon="-5.368033">
        <ele>1603.0</ele>
        <time>2013-06-30T14:33:37Z</time>
      </trkpt>
      <trkpt lat="40.149200" lon="-5.368017">
        <ele>1606.0</ele>
        <time>2013-06-30T14:33:38Z</time>
      </trkpt>
      <trkpt lat="40.149117" lon="-5.368033">
        <ele>1610.0</ele>
        <time>2013-06-30T14:33:39Z</time>
      </trkpt>
      <trkpt lat="40.149017" lon="-5.368050">
        <ele>1612.0</ele>
        <time>2013-06-30T14:33:40Z</time>
      </trkpt>
      <trkpt lat="40.148933" lon="-5.368083">
        <ele>1614.0</ele>
        <time>2013-06-30T14:33:41Z</time>
      </trkpt>
      <trkpt lat="40.148833" lon="-5.368117">
        <ele>1615.0</ele>
        <time>2013-06-30T14:33:42Z</time>
      </trkpt>
      <trkpt lat="40.148717" lon="-5.368183">
        <ele>1617.0</ele>
        <time>2013-06-30T14:33:43Z</time>
      </trkpt>
      <trkpt lat="40.148617" lon="-5.368250">
        <ele>1619.0</ele>
        <time>2013-06-30T14:33:44Z</time>
      </trkpt>
      <trkpt lat="40.148550" lon="-5.368333">
        <ele>1622.0</ele>
        <time>2013-06-30T14:33:45Z</time>
      </trkpt>
      <trkpt lat="40.148483" lon="-5.368417">
        <ele>1625.0</ele>
        <time>2013-06-30T14:33:46Z</time>
      </trkpt>
      <trkpt lat="40.148450" lon="-5.368500">
        <ele>1628.0</ele>
        <time>2013-06-30T14:33:47Z</time>
      </trkpt>
      <trkpt lat="40.148400" lon="-5.368600">
        <ele>1631.0</ele>
        <time>2013-06-30T14:33:48Z</time>
      </trkpt>
      <trkpt lat="40.148350" lon="-5.368700">
        <ele>1633.0</ele>
        <time>2013-06-30T14:33:49Z</time>
      </trkpt>
      <trkpt lat="40.148317" lon="-5.368833">
        <ele>1633.0</ele>
        <time>2013-06-30T14:33:50Z</time>
      </trkpt>
      <trkpt lat="40.148283" lon="-5.368967">
        <ele>1633.0</ele>
        <time>2013-06-30T14:33:51Z</time>
      </trkpt>
      <trkpt lat="40.148267" lon="-5.369083">
        <ele>1633.0</ele>
        <time>2013-06-30T14:33:52Z</time>
      </trkpt>
      <trkpt lat="40.148283" lon="-5.369217">
        <ele>1633.0</ele>
        <time>2013-06-30T14:33:53Z</time>
      </trkpt>
      <trkpt lat="40.148317" lon="-5.369350">
        <ele>1632.0</ele>
        <time>2013-06-30T14:33:54Z</time>
      </trkpt>
      <trkpt lat="40.148367" lon="-5.369450">
        <ele>1632.0</ele>
        <time>2013-06-30T14:33:55Z</time>
      </trkpt>
      <trkpt lat="40.148417" lon="-5.369550">
        <ele>1631.0</ele>
        <time>2013-06-30T14:33:56Z</time>
      </trkpt>
      <trkpt lat="40.148483" lon="-5.369633">
        <ele>1631.0</ele>
        <time>2013-06-30T14:33:57Z</time>
      </trkpt>
      <trkpt lat="40.148533" lon="-5.369700">
        <ele>1631.0</ele>
        <time>2013-06-30T14:33:58Z</time>
      </trkpt>
      <trkpt lat="40.148617" lon="-5.369750">
        <ele>1631.0</ele>
        <time>2013-06-30T14:33:59Z</time>
      </trkpt>
      <trkpt lat="40.148700" lon="-5.369800">
        <ele>1631.0</ele>
        <time>2013-06-30T14:34:00Z</time>
      </trkpt>
      <trkpt lat="40.148767" lon="-5.369817">
        <ele>1630.0</ele>
        <time>2013-06-30T14:34:01Z</time>
      </trkpt>
      <trkpt lat="40.148850" lon="-5.369817">
        <ele>1629.0</ele>
        <time>2013-06-30T14:34:02Z</time>
      </trkpt>
      <trkpt lat="40.148917" lon="-5.369800">
        <ele>1629.0</ele>
        <time>2013-06-30T14:34:03Z</time>
      </trkpt>
      <trkpt lat="40.148967" lon="-5.369767">
        <ele>1629.0</ele>
        <time>2013-06-30T14:34:04Z</time>
      </trkpt>
      <trkpt lat="40.149050" lon="-5.369650">
        <ele>1630.0</ele>
        <time>2013-06-30T14:34:06Z</time>
      </trkpt>
      <trkpt lat="40.149067" lon="-5.369583">
        <ele>1630.0</ele>
        <time>2013-06-30T14:34:07Z</time>
      </trkpt>
      <trkpt lat="40.149083" lon="-5.369500">
        <ele>1631.0</ele>
        <time>2013-06-30T14:34:08Z</time>
      </trkpt>
      <trkpt lat="40.149083" lon="-5.369433">
        <ele>1632.0</ele>
        <time>2013-06-30T14:34:09Z</time>
      </trkpt>
      <trkpt lat="40.149100" lon="-5.369350">
        <ele>1632.0</ele>
        <time>2013-06-30T14:34:10Z</time>
      </trkpt>
      <trkpt lat="40.149083" lon="-5.369250">
        <ele>1633.0</ele>
        <time>2013-06-30T14:34:11Z</time>
      </trkpt>
      <trkpt lat="40.149083" lon="-5.369167">
        <ele>1633.0</ele>
        <time>2013-06-30T14:34:12Z</time>
      </trkpt>
      <trkpt lat="40.149067" lon="-5.369067">
        <ele>1634.0</ele>
        <time>2013-06-30T14:34:13Z</time>
      </trkpt>
      <trkpt lat="40.149067" lon="-5.368983">
        <ele>1635.0</ele>
        <time>2013-06-30T14:34:14Z</time>
      </trkpt>
      <trkpt lat="40.149050" lon="-5.368900">
        <ele>1636.0</ele>
        <time>2013-06-30T14:34:15Z</time>
      </trkpt>
      <trkpt lat="40.149033" lon="-5.368817">
        <ele>1639.0</ele>
        <time>2013-06-30T14:34:16Z</time>
      </trkpt>
      <trkpt lat="40.149017" lon="-5.368750">
        <ele>1641.0</ele>
        <time>2013-06-30T14:34:17Z</time>
      </trkpt>
      <trkpt lat="40.148967" lon="-5.368667">
        <ele>1643.0</ele>
        <time>2013-06-30T14:34:18Z</time>
      </trkpt>
      <trkpt lat="40.148917" lon="-5.368600">
        <ele>1644.0</ele>
        <time>2013-06-30T14:34:19Z</time>
      </trkpt>
      <trkpt lat="40.148850" lon="-5.368517">
        <ele>1645.0</ele>
        <time>2013-06-30T14:34:20Z</time>
      </trkpt>
      <trkpt lat="40.148783" lon="-5.368450">
        <ele>1646.0</ele>
        <time>2013-06-30T14:34:21Z</time>
      </trkpt>
      <trkpt lat="40.148717" lon="-5.368383">
        <ele>1648.0</ele>
        <time>2013-06-30T14:34:22Z</time>
      </trkpt>
      <trkpt lat="40.148667" lon="-5.368333">
        <ele>1651.0</ele>
        <time>2013-06-30T14:34:23Z</time>
      </trkpt>
      <trkpt lat="40.148600" lon="-5.368283">
        <ele>1653.0</ele>
        <time>2013-06-30T14:34:24Z</time>
      </trkpt>
      <trkpt lat="40.148533" lon="-5.368233">
        <ele>1655.0</ele>
        <time>2013-06-30T14:34:25Z</time>
      </trkpt>
      <trkpt lat="40.148467" lon="-5.368183">
        <ele>1655.0</ele>
        <time>2013-06-30T14:34:26Z</time>
      </trkpt>
      <trkpt lat="40.148367" lon="-5.368150">
        <ele>1655.0</ele>
        <time>2013-06-30T14:34:27Z</time>
      </trkpt>
      <trkpt lat="40.148283" lon="-5.368133">
        <ele>1654.0</ele>
        <time>2013-06-30T14:34:28Z</time>
      </trkpt>
      <trkpt lat="40.148183" lon="-5.368150">
        <ele>1654.0</ele>
        <time>2013-06-30T14:34:29Z</time>
      </trkpt>
      <trkpt lat="40.148017" lon="-5.368267">
        <ele>1655.0</ele>
        <time>2013-06-30T14:34:31Z</time>
      </trkpt>
      <trkpt lat="40.147950" lon="-5.368350">
        <ele>1655.0</ele>
        <time>2013-06-30T14:34:32Z</time>
      </trkpt>
      <trkpt lat="40.147900" lon="-5.368450">
        <ele>1655.0</ele>
        <time>2013-06-30T14:34:33Z</time>
      </trkpt>
      <trkpt lat="40.147833" lon="-5.368567">
        <ele>1654.0</ele>
        <time>2013-06-30T14:34:34Z</time>
      </trkpt>
      <trkpt lat="40.147783" lon="-5.368700">
        <ele>1654.0</ele>
        <time>2013-06-30T14:34:35Z</time>
      </trkpt>
      <trkpt lat="40.147750" lon="-5.368850">
        <ele>1653.0</ele>
        <time>2013-06-30T14:34:36Z</time>
      </trkpt>
      <trkpt lat="40.147733" lon="-5.368983">
        <ele>1652.0</ele>
        <time>2013-06-30T14:34:37Z</time>
      </trkpt>
      <trkpt lat="40.147733" lon="-5.369100">
        <ele>1653.0</ele>
        <time>2013-06-30T14:34:38Z</time>
      </trkpt>
      <trkpt lat="40.147733" lon="-5.369200">
        <ele>1655.0</ele>
        <time>2013-06-30T14:34:39Z</time>
      </trkpt>
      <trkpt lat="40.147750" lon="-5.369283">
        <ele>1656.0</ele>
        <time>2013-06-30T14:34:40Z</time>
      </trkpt>
      <trkpt lat="40.147783" lon="-5.369383">
        <ele>1657.0</ele>
        <time>2013-06-30T14:34:41Z</time>
      </trkpt>
      <trkpt lat="40.147817" lon="-5.369483">
        <ele>1657.0</ele>
        <time>2013-06-30T14:34:42Z</time>
      </trkpt>
      <trkpt lat="40.147867" lon="-5.369567">
        <ele>1657.0</ele>
        <time>2013-06-30T14:34:43Z</time>
      </trkpt>
      <trkpt lat="40.147933" lon="-5.369617">
        <ele>1657.0</ele>
        <time>2013-06-30T14:34:44Z</time>
      </trkpt>
      <trkpt lat="40.148233" lon="-5.369633">
        <ele>1650.0</ele>
        <time>2013-06-30T14:34:48Z</time>
      </trkpt>
      <trkpt lat="40.148283" lon="-5.369600">
        <ele>1650.0</ele>
        <time>2013-06-30T14:34:49Z</time>
      </trkpt>
      <trkpt lat="40.148333" lon="-5.369550">
        <ele>1650.0</ele>
        <time>2013-06-30T14:34:50Z</time>
      </trkpt>
      <trkpt lat="40.148383" lon="-5.369483">
        <ele>1650.0</ele>
        <time>2013-06-30T14:34:51Z</time>
      </trkpt>
      <trkpt lat="40.148417" lon="-5.369417">
        <ele>1649.0</ele>
        <time>2013-06-30T14:34:52Z</time>
      </trkpt>
      <trkpt lat="40.148467" lon="-5.369333">
        <ele>1648.0</ele>
        <time>2013-06-30T14:34:53Z</time>
      </trkpt>
      <trkpt lat="40.148500" lon="-5.369267">
        <ele>1648.0</ele>
        <time>2013-06-30T14:34:54Z</time>
      </trkpt>
      <trkpt lat="40.148533" lon="-5.369217">
        <ele>1650.0</ele>
        <time>2013-06-30T14:34:55Z</time>
      </trkpt>
      <trkpt lat="40.148567" lon="-5.369167">
        <ele>1651.0</ele>
        <time>2013-06-30T14:34:56Z</time>
      </trkpt>
      <trkpt lat="40.148583" lon="-5.369133">
        <ele>1653.0</ele>
        <time>2013-06-30T14:34:57Z</time>
      </trkpt>
      <trkpt lat="40.148583" lon="-5.369067">
        <ele>1654.0</ele>
        <time>2013-06-30T14:34:58Z</time>
      </trkpt>
      <trkpt lat="40.148583" lon="-5.369000">
        <ele>1655.0</ele>
        <time>2013-06-30T14:34:59Z</time>
      </trkpt>
      <trkpt lat="40.148583" lon="-5.368917">
        <ele>1654.0</ele>
        <time>2013-06-30T14:35:00Z</time>
      </trkpt>
      <trkpt lat="40.148583" lon="-5.368817">
        <ele>1653.0</ele>
        <time>2013-06-30T14:35:01Z</time>
      </trkpt>
      <trkpt lat="40.148583" lon="-5.368717">
        <ele>1653.0</ele>
        <time>2013-06-30T14:35:02Z</time>
      </trkpt>
      <trkpt lat="40.148550" lon="-5.368617">
        <ele>1653.0</ele>
        <time>2013-06-30T14:35:03Z</time>
      </trkpt>
      <trkpt lat="40.148517" lon="-5.368533">
        <ele>1653.0</ele>
        <time>2013-06-30T14:35:04Z</time>
      </trkpt>
      <trkpt lat="40.148450" lon="-5.368467">
        <ele>1651.0</ele>
        <time>2013-06-30T14:35:05Z</time>
      </trkpt>
      <trkpt lat="40.148367" lon="-5.368417">
        <ele>1650.0</ele>
        <time>2013-06-30T14:35:06Z</time>
      </trkpt>
      <trkpt lat="40.148283" lon="-5.368383">
        <ele>1649.0</ele>
        <time>2013-06-30T14:35:07Z</time>
      </trkpt>
      <trkpt lat="40.148200" lon="-5.368350">
        <ele>1649.0</ele>
        <time>2013-06-30T14:35:08Z</time>
      </trkpt>
      <trkpt lat="40.148133" lon="-5.368317">
        <ele>1648.0</ele>
        <time>2013-06-30T14:35:09Z</time>
      </trkpt>
      <trkpt lat="40.148083" lon="-5.368267">
        <ele>1648.0</ele>
        <time>2013-06-30T14:35:10Z</time>
      </trkpt>
      <trkpt lat="40.148000" lon="-5.368233">
        <ele>1647.0</ele>
        <time>2013-06-30T14:35:11Z</time>
      </trkpt>
      <trkpt lat="40.147917" lon="-5.368217">
        <ele>1645.0</ele>
        <time>2013-06-30T14:35:12Z</time>
      </trkpt>
      <trkpt lat="40.147833" lon="-5.368200">
        <ele>1642.0</ele>
        <time>2013-06-30T14:35:13Z</time>
      </trkpt>
      <trkpt lat="40.147733" lon="-5.368200">
        <ele>1641.0</ele>
        <time>2013-06-30T14:35:14Z</time>
      </trkpt>
      <trkpt lat="40.147650" lon="-5.368200">
        <ele>1641.0</ele>
        <time>2013-06-30T14:35:15Z</time>
      </trkpt>
      <trkpt lat="40.147583" lon="-5.368200">
        <ele>1640.0</ele>
        <time>2013-06-30T14:35:16Z</time>
      </trkpt>
      <trkpt lat="40.147483" lon="-5.368217">
        <ele>1640.0</ele>
        <time>2013-06-30T14:35:17Z</time>
      </trkpt>
      <trkpt lat="40.147400" lon="-5.368233">
        <ele>1639.0</ele>
        <time>2013-06-30T14:35:18Z</time>
      </trkpt>
      <trkpt lat="40.147317" lon="-5.368283">
        <ele>1638.0</ele>
        <time>2013-06-30T14:35:19Z</time>
      </trkpt>
      <trkpt lat="40.147233" lon="-5.368333">
        <ele>1637.0</ele>
        <time>2013-06-30T14:35:20Z</time>
      </trkpt>
      <trkpt lat="40.147150" lon="-5.368400">
        <ele>1636.0</ele>
        <time>2013-06-30T14:35:21Z</time>
      </trkpt>
      <trkpt lat="40.147083" lon="-5.368467">
        <ele>1636.0</ele>
        <time>2013-06-30T14:35:22Z</time>
      </trkpt>
      <trkpt lat="40.147000" lon="-5.368533">
        <ele>1635.0</ele>
        <time>2013-06-30T14:35:23Z</time>
      </trkpt>
      <trkpt lat="40.146917" lon="-5.368617">
        <ele>1633.0</ele>
        <time>2013-06-30T14:35:24Z</time>
      </trkpt>
      <trkpt lat="40.146833" lon="-5.368700">
        <ele>1631.0</ele>
        <time>2013-06-30T14:35:25Z</time>
      </trkpt>
      <trkpt lat="40.146767" lon="-5.368817">
        <ele>1629.0</ele>
        <time>2013-06-30T14:35:26Z</time>
      </trkpt>
      <trkpt lat="40.146683" lon="-5.368933">
        <ele>1627.0</ele>
        <time>2013-06-30T14:35:27Z</time>
      </trkpt>
      <trkpt lat="40.146617" lon="-5.369033">
        <ele>1627.0</ele>
        <time>2013-06-30T14:35:28Z</time>
      </trkpt>
      <trkpt lat="40.146567" lon="-5.369150">
        <ele>1626.0</ele>
        <time>2013-06-30T14:35:29Z</time>
      </trkpt>
      <trkpt lat="40.146517" lon="-5.369267">
        <ele>1625.0</ele>
        <time>2013-06-30T14:35:30Z</time>
      </trkpt>
      <trkpt lat="40.146483" lon="-5.369383">
        <ele>1624.0</ele>
        <time>2013-06-30T14:35:31Z</time>
      </trkpt>
      <trkpt lat="40.146433" lon="-5.369517">
        <ele>1622.0</ele>
        <time>2013-06-30T14:35:32Z</time>
      </trkpt>
      <trkpt lat="40.146383" lon="-5.369650">
        <ele>1621.0</ele>
        <time>2013-06-30T14:35:33Z</time>
      </trkpt>
      <trkpt lat="40.146350" lon="-5.369783">
        <ele>1619.0</ele>
        <time>2013-06-30T14:35:34Z</time>
      </trkpt>
      <trkpt lat="40.146300" lon="-5.369900">
        <ele>1618.0</ele>
        <time>2013-06-30T14:35:35Z</time>
      </trkpt>
      <trkpt lat="40.146267" lon="-5.370033">
        <ele>1617.0</ele>
        <time>2013-06-30T14:35:36Z</time>
      </trkpt>
      <trkpt lat="40.146217" lon="-5.370167">
        <ele>1615.0</ele>
        <time>2013-06-30T14:35:37Z</time>
      </trkpt>
      <trkpt lat="40.146183" lon="-5.370300">
        <ele>1614.0</ele>
        <time>2013-06-30T14:35:38Z</time>
      </trkpt>
      <trkpt lat="40.146167" lon="-5.370450">
        <ele>1612.0</ele>
        <time>2013-06-30T14:35:39Z</time>
      </trkpt>
      <trkpt lat="40.146150" lon="-5.370583">
        <ele>1612.0</ele>
        <time>2013-06-30T14:35:40Z</time>
      </trkpt>
      <trkpt lat="40.146133" lon="-5.370700">
        <ele>1612.0</ele>
        <time>2013-06-30T14:35:41Z</time>
      </trkpt>
      <trkpt lat="40.146133" lon="-5.370817">
        <ele>1611.0</ele>
        <time>2013-06-30T14:35:42Z</time>
      </trkpt>
      <trkpt lat="40.146133" lon="-5.370917">
        <ele>1610.0</ele>
        <time>2013-06-30T14:35:43Z</time>
      </trkpt>
      <trkpt lat="40.146133" lon="-5.371033">
        <ele>1609.0</ele>
        <time>2013-06-30T14:35:44Z</time>
      </trkpt>
      <trkpt lat="40.146133" lon="-5.371133">
        <ele>1607.0</ele>
        <time>2013-06-30T14:35:45Z</time>
      </trkpt>
      <trkpt lat="40.146150" lon="-5.371250">
        <ele>1606.0</ele>
        <time>2013-06-30T14:35:46Z</time>
      </trkpt>
      <trkpt lat="40.146150" lon="-5.371367">
        <ele>1605.0</ele>
        <time>2013-06-30T14:35:47Z</time>
      </trkpt>
      <trkpt lat="40.146150" lon="-5.371467">
        <ele>1602.0</ele>
        <time>2013-06-30T14:35:48Z</time>
      </trkpt>
      <trkpt lat="40.146133" lon="-5.371567">
        <ele>1601.0</ele>
        <time>2013-06-30T14:35:49Z</time>
      </trkpt>
      <trkpt lat="40.146133" lon="-5.371683">
        <ele>1598.0</ele>
        <time>2013-06-30T14:35:50Z</time>
      </trkpt>
      <trkpt lat="40.146133" lon="-5.371800">
        <ele>1595.0</ele>
        <time>2013-06-30T14:35:51Z</time>
      </trkpt>
      <trkpt lat="40.146117" lon="-5.371917">
        <ele>1592.0</ele>
        <time>2013-06-30T14:35:52Z</time>
      </trkpt>
      <trkpt lat="40.146117" lon="-5.372033">
        <ele>1591.0</ele>
        <time>2013-06-30T14:35:53Z</time>
      </trkpt>
      <trkpt lat="40.146100" lon="-5.372117">
        <ele>1589.0</ele>
        <time>2013-06-30T14:35:54Z</time>
      </trkpt>
      <trkpt lat="40.146083" lon="-5.372217">
        <ele>1588.0</ele>
        <time>2013-06-30T14:35:55Z</time>
      </trkpt>
      <trkpt lat="40.146083" lon="-5.372333">
        <ele>1585.0</ele>
        <time>2013-06-30T14:35:56Z</time>
      </trkpt>
      <trkpt lat="40.146067" lon="-5.372450">
        <ele>1583.0</ele>
        <time>2013-06-30T14:35:57Z</time>
      </trkpt>
      <trkpt lat="40.146067" lon="-5.372567">
        <ele>1581.0</ele>
        <time>2013-06-30T14:35:58Z</time>
      </trkpt>
      <trkpt lat="40.146050" lon="-5.372683">
        <ele>1579.0</ele>
        <time>2013-06-30T14:35:59Z</time>
      </trkpt>
      <trkpt lat="40.146050" lon="-5.372800">
        <ele>1577.0</ele>
        <time>2013-06-30T14:36:00Z</time>
      </trkpt>
      <trkpt lat="40.146033" lon="-5.372900">
        <ele>1575.0</ele>
        <time>2013-06-30T14:36:01Z</time>
      </trkpt>
      <trkpt lat="40.146017" lon="-5.373017">
        <ele>1573.0</ele>
        <time>2013-06-30T14:36:02Z</time>
      </trkpt>
      <trkpt lat="40.145983" lon="-5.373133">
        <ele>1571.0</ele>
        <time>2013-06-30T14:36:03Z</time>
      </trkpt>
      <trkpt lat="40.145967" lon="-5.373233">
        <ele>1569.0</ele>
        <time>2013-06-30T14:36:04Z</time>
      </trkpt>
      <trkpt lat="40.145950" lon="-5.373350">
        <ele>1568.0</ele>
        <time>2013-06-30T14:36:05Z</time>
      </trkpt>
      <trkpt lat="40.145933" lon="-5.373450">
        <ele>1567.0</ele>
        <time>2013-06-30T14:36:06Z</time>
      </trkpt>
      <trkpt lat="40.145900" lon="-5.373533">
        <ele>1566.0</ele>
        <time>2013-06-30T14:36:07Z</time>
      </trkpt>
      <trkpt lat="40.145867" lon="-5.373633">
        <ele>1565.0</ele>
        <time>2013-06-30T14:36:08Z</time>
      </trkpt>
      <trkpt lat="40.145850" lon="-5.373733">
        <ele>1564.0</ele>
        <time>2013-06-30T14:36:09Z</time>
      </trkpt>
      <trkpt lat="40.145817" lon="-5.373850">
        <ele>1563.0</ele>
        <time>2013-06-30T14:36:10Z</time>
      </trkpt>
      <trkpt lat="40.145800" lon="-5.373950">
        <ele>1561.0</ele>
        <time>2013-06-30T14:36:11Z</time>
      </trkpt>
      <trkpt lat="40.145783" lon="-5.374050">
        <ele>1560.0</ele>
        <time>2013-06-30T14:36:12Z</time>
      </trkpt>
      <trkpt lat="40.145767" lon="-5.374150">
        <ele>1558.0</ele>
        <time>2013-06-30T14:36:13Z</time>
      </trkpt>
      <trkpt lat="40.145750" lon="-5.374267">
        <ele>1556.0</ele>
        <time>2013-06-30T14:36:14Z</time>
      </trkpt>
      <trkpt lat="40.145733" lon="-5.374383">
        <ele>1553.0</ele>
        <time>2013-06-30T14:36:15Z</time>
      </trkpt>
      <trkpt lat="40.145717" lon="-5.374500">
        <ele>1551.0</ele>
        <time>2013-06-30T14:36:16Z</time>
      </trkpt>
      <trkpt lat="40.145700" lon="-5.374633">
        <ele>1549.0</ele>
        <time>2013-06-30T14:36:17Z</time>
      </trkpt>
      <trkpt lat="40.145683" lon="-5.374750">
        <ele>1547.0</ele>
        <time>2013-06-30T14:36:18Z</time>
      </trkpt>
      <trkpt lat="40.145667" lon="-5.374850">
        <ele>1546.0</ele>
        <time>2013-06-30T14:36:19Z</time>
      </trkpt>
      <trkpt lat="40.145650" lon="-5.374950">
        <ele>1545.0</ele>
        <time>2013-06-30T14:36:20Z</time>
      </trkpt>
      <trkpt lat="40.145633" lon="-5.375067">
        <ele>1544.0</ele>
        <time>2013-06-30T14:36:21Z</time>
      </trkpt>
      <trkpt lat="40.145617" lon="-5.375167">
        <ele>1542.0</ele>
        <time>2013-06-30T14:36:22Z</time>
      </trkpt>
      <trkpt lat="40.145600" lon="-5.375283">
        <ele>1541.0</ele>
        <time>2013-06-30T14:36:23Z</time>
      </trkpt>
      <trkpt lat="40.145600" lon="-5.375383">
        <ele>1540.0</ele>
        <time>2013-06-30T14:36:24Z</time>
      </trkpt>
      <trkpt lat="40.145583" lon="-5.375467">
        <ele>1539.0</ele>
        <time>2013-06-30T14:36:25Z</time>
      </trkpt>
      <trkpt lat="40.145583" lon="-5.375567">
        <ele>1538.0</ele>
        <time>2013-06-30T14:36:26Z</time>
      </trkpt>
      <trkpt lat="40.145583" lon="-5.375667">
        <ele>1537.0</ele>
        <time>2013-06-30T14:36:27Z</time>
      </trkpt>
      <trkpt lat="40.145583" lon="-5.375767">
        <ele>1535.0</ele>
        <time>2013-06-30T14:36:28Z</time>
      </trkpt>
      <trkpt lat="40.145600" lon="-5.375900">
        <ele>1534.0</ele>
        <time>2013-06-30T14:36:29Z</time>
      </trkpt>
      <trkpt lat="40.145600" lon="-5.376017">
        <ele>1532.0</ele>
        <time>2013-06-30T14:36:30Z</time>
      </trkpt>
      <trkpt lat="40.145600" lon="-5.376117">
        <ele>1531.0</ele>
        <time>2013-06-30T14:36:31Z</time>
      </trkpt>
      <trkpt lat="40.145583" lon="-5.376217">
        <ele>1531.0</ele>
        <time>2013-06-30T14:36:32Z</time>
      </trkpt>
      <trkpt lat="40.145583" lon="-5.376317">
        <ele>1533.0</ele>
        <time>2013-06-30T14:36:33Z</time>
      </trkpt>
      <trkpt lat="40.145567" lon="-5.376433">
        <ele>1533.0</ele>
        <time>2013-06-30T14:36:34Z</time>
      </trkpt>
      <trkpt lat="40.145567" lon="-5.376550">
        <ele>1533.0</ele>
        <time>2013-06-30T14:36:35Z</time>
      </trkpt>
      <trkpt lat="40.145550" lon="-5.376683">
        <ele>1533.0</ele>
        <time>2013-06-30T14:36:36Z</time>
      </trkpt>
      <trkpt lat="40.145517" lon="-5.376817">
        <ele>1533.0</ele>
        <time>2013-06-30T14:36:37Z</time>
      </trkpt>
      <trkpt lat="40.145500" lon="-5.376950">
        <ele>1534.0</ele>
        <time>2013-06-30T14:36:38Z</time>
      </trkpt>
      <trkpt lat="40.145467" lon="-5.377083">
        <ele>1535.0</ele>
        <time>2013-06-30T14:36:39Z</time>
      </trkpt>
      <trkpt lat="40.145450" lon="-5.377200">
        <ele>1536.0</ele>
        <time>2013-06-30T14:36:40Z</time>
      </trkpt>
      <trkpt lat="40.145433" lon="-5.377333">
        <ele>1538.0</ele>
        <time>2013-06-30T14:36:41Z</time>
      </trkpt>
      <trkpt lat="40.145417" lon="-5.377450">
        <ele>1539.0</ele>
        <time>2013-06-30T14:36:42Z</time>
      </trkpt>
      <trkpt lat="40.145400" lon="-5.377567">
        <ele>1540.0</ele>
        <time>2013-06-30T14:36:43Z</time>
      </trkpt>
      <trkpt lat="40.145383" lon="-5.377683">
        <ele>1541.0</ele>
        <time>2013-06-30T14:36:44Z</time>
      </trkpt>
      <trkpt lat="40.145367" lon="-5.377817">
        <ele>1541.0</ele>
        <time>2013-06-30T14:36:45Z</time>
      </trkpt>
      <trkpt lat="40.145367" lon="-5.377950">
        <ele>1541.0</ele>
        <time>2013-06-30T14:36:46Z</time>
      </trkpt>
      <trkpt lat="40.145350" lon="-5.378083">
        <ele>1541.0</ele>
        <time>2013-06-30T14:36:47Z</time>
      </trkpt>
      <trkpt lat="40.145333" lon="-5.378200">
        <ele>1542.0</ele>
        <time>2013-06-30T14:36:48Z</time>
      </trkpt>
      <trkpt lat="40.145333" lon="-5.378317">
        <ele>1542.0</ele>
        <time>2013-06-30T14:36:49Z</time>
      </trkpt>
      <trkpt lat="40.145333" lon="-5.378417">
        <ele>1542.0</ele>
        <time>2013-06-30T14:36:50Z</time>
      </trkpt>
      <trkpt lat="40.145317" lon="-5.378533">
        <ele>1542.0</ele>
        <time>2013-06-30T14:36:51Z</time>
      </trkpt>
      <trkpt lat="40.145300" lon="-5.378650">
        <ele>1540.0</ele>
        <time>2013-06-30T14:36:52Z</time>
      </trkpt>
      <trkpt lat="40.145250" lon="-5.378883">
        <ele>1537.0</ele>
        <time>2013-06-30T14:36:54Z</time>
      </trkpt>
      <trkpt lat="40.145233" lon="-5.379017">
        <ele>1536.0</ele>
        <time>2013-06-30T14:36:55Z</time>
      </trkpt>
      <trkpt lat="40.145233" lon="-5.379150">
        <ele>1536.0</ele>
        <time>2013-06-30T14:36:56Z</time>
      </trkpt>
      <trkpt lat="40.145217" lon="-5.379283">
        <ele>1535.0</ele>
        <time>2013-06-30T14:36:57Z</time>
      </trkpt>
      <trkpt lat="40.145183" lon="-5.379400">
        <ele>1534.0</ele>
        <time>2013-06-30T14:36:58Z</time>
      </trkpt>
      <trkpt lat="40.145167" lon="-5.379517">
        <ele>1534.0</ele>
        <time>2013-06-30T14:36:59Z</time>
      </trkpt>
      <trkpt lat="40.145133" lon="-5.379633">
        <ele>1534.0</ele>
        <time>2013-06-30T14:37:00Z</time>
      </trkpt>
      <trkpt lat="40.145117" lon="-5.379750">
        <ele>1534.0</ele>
        <time>2013-06-30T14:37:01Z</time>
      </trkpt>
      <trkpt lat="40.145083" lon="-5.379850">
        <ele>1534.0</ele>
        <time>2013-06-30T14:37:02Z</time>
      </trkpt>
      <trkpt lat="40.145050" lon="-5.379950">
        <ele>1534.0</ele>
        <time>2013-06-30T14:37:03Z</time>
      </trkpt>
      <trkpt lat="40.145017" lon="-5.380050">
        <ele>1534.0</ele>
        <time>2013-06-30T14:37:04Z</time>
      </trkpt>
      <trkpt lat="40.144983" lon="-5.380150">
        <ele>1534.0</ele>
        <time>2013-06-30T14:37:05Z</time>
      </trkpt>
      <trkpt lat="40.144950" lon="-5.380233">
        <ele>1535.0</ele>
        <time>2013-06-30T14:37:06Z</time>
      </trkpt>
      <trkpt lat="40.144917" lon="-5.380317">
        <ele>1536.0</ele>
        <time>2013-06-30T14:37:07Z</time>
      </trkpt>
      <trkpt lat="40.144900" lon="-5.380417">
        <ele>1537.0</ele>
        <time>2013-06-30T14:37:08Z</time>
      </trkpt>
      <trkpt lat="40.144867" lon="-5.380517">
        <ele>1536.0</ele>
        <time>2013-06-30T14:37:09Z</time>
      </trkpt>
      <trkpt lat="40.144817" lon="-5.380633">
        <ele>1536.0</ele>
        <time>2013-06-30T14:37:10Z</time>
      </trkpt>
      <trkpt lat="40.144783" lon="-5.380750">
        <ele>1536.0</ele>
        <time>2013-06-30T14:37:11Z</time>
      </trkpt>
      <trkpt lat="40.144733" lon="-5.380867">
        <ele>1537.0</ele>
        <time>2013-06-30T14:37:12Z</time>
      </trkpt>
      <trkpt lat="40.144700" lon="-5.380983">
        <ele>1538.0</ele>
        <time>2013-06-30T14:37:13Z</time>
      </trkpt>
      <trkpt lat="40.144667" lon="-5.381083">
        <ele>1538.0</ele>
        <time>2013-06-30T14:37:14Z</time>
      </trkpt>
      <trkpt lat="40.144617" lon="-5.381200">
        <ele>1539.0</ele>
        <time>2013-06-30T14:37:15Z</time>
      </trkpt>
      <trkpt lat="40.144550" lon="-5.381317">
        <ele>1540.0</ele>
        <time>2013-06-30T14:37:16Z</time>
      </trkpt>
      <trkpt lat="40.144483" lon="-5.381400">
        <ele>1541.0</ele>
        <time>2013-06-30T14:37:17Z</time>
      </trkpt>
      <trkpt lat="40.144400" lon="-5.381483">
        <ele>1541.0</ele>
        <time>2013-06-30T14:37:18Z</time>
      </trkpt>
      <trkpt lat="40.144333" lon="-5.381533">
        <ele>1542.0</ele>
        <time>2013-06-30T14:37:19Z</time>
      </trkpt>
      <trkpt lat="40.144267" lon="-5.381600">
        <ele>1543.0</ele>
        <time>2013-06-30T14:37:20Z</time>
      </trkpt>
      <trkpt lat="40.144200" lon="-5.381683">
        <ele>1543.0</ele>
        <time>2013-06-30T14:37:21Z</time>
      </trkpt>
      <trkpt lat="40.144133" lon="-5.381783">
        <ele>1543.0</ele>
        <time>2013-06-30T14:37:22Z</time>
      </trkpt>
      <trkpt lat="40.144067" lon="-5.381900">
        <ele>1543.0</ele>
        <time>2013-06-30T14:37:23Z</time>
      </trkpt>
      <trkpt lat="40.144000" lon="-5.382000">
        <ele>1543.0</ele>
        <time>2013-06-30T14:37:24Z</time>
      </trkpt>
      <trkpt lat="40.143900" lon="-5.382217">
        <ele>1545.0</ele>
        <time>2013-06-30T14:37:26Z</time>
      </trkpt>
      <trkpt lat="40.143850" lon="-5.382317">
        <ele>1545.0</ele>
        <time>2013-06-30T14:37:27Z</time>
      </trkpt>
      <trkpt lat="40.143783" lon="-5.382417">
        <ele>1545.0</ele>
        <time>2013-06-30T14:37:28Z</time>
      </trkpt>
      <trkpt lat="40.143750" lon="-5.382517">
        <ele>1545.0</ele>
        <time>2013-06-30T14:37:29Z</time>
      </trkpt>
      <trkpt lat="40.143700" lon="-5.382617">
        <ele>1545.0</ele>
        <time>2013-06-30T14:37:30Z</time>
      </trkpt>
      <trkpt lat="40.143683" lon="-5.382717">
        <ele>1545.0</ele>
        <time>2013-06-30T14:37:31Z</time>
      </trkpt>
      <trkpt lat="40.143650" lon="-5.382817">
        <ele>1545.0</ele>
        <time>2013-06-30T14:37:32Z</time>
      </trkpt>
      <trkpt lat="40.143617" lon="-5.382933">
        <ele>1544.0</ele>
        <time>2013-06-30T14:37:33Z</time>
      </trkpt>
      <trkpt lat="40.143600" lon="-5.383050">
        <ele>1544.0</ele>
        <time>2013-06-30T14:37:34Z</time>
      </trkpt>
      <trkpt lat="40.143583" lon="-5.383167">
        <ele>1543.0</ele>
        <time>2013-06-30T14:37:35Z</time>
      </trkpt>
      <trkpt lat="40.143567" lon="-5.383300">
        <ele>1543.0</ele>
        <time>2013-06-30T14:37:36Z</time>
      </trkpt>
      <trkpt lat="40.143550" lon="-5.383400">
        <ele>1543.0</ele>
        <time>2013-06-30T14:37:37Z</time>
      </trkpt>
      <trkpt lat="40.143550" lon="-5.383500">
        <ele>1543.0</ele>
        <time>2013-06-30T14:37:38Z</time>
      </trkpt>
      <trkpt lat="40.143533" lon="-5.383600">
        <ele>1543.0</ele>
        <time>2013-06-30T14:37:39Z</time>
      </trkpt>
      <trkpt lat="40.143500" lon="-5.383717">
        <ele>1543.0</ele>
        <time>2013-06-30T14:37:40Z</time>
      </trkpt>
      <trkpt lat="40.143483" lon="-5.383933">
        <ele>1542.0</ele>
        <time>2013-06-30T14:37:42Z</time>
      </trkpt>
      <trkpt lat="40.143467" lon="-5.384033">
        <ele>1542.0</ele>
        <time>2013-06-30T14:37:43Z</time>
      </trkpt>
      <trkpt lat="40.143467" lon="-5.384117">
        <ele>1542.0</ele>
        <time>2013-06-30T14:37:44Z</time>
      </trkpt>
      <trkpt lat="40.143467" lon="-5.384217">
        <ele>1542.0</ele>
        <time>2013-06-30T14:37:45Z</time>
      </trkpt>
      <trkpt lat="40.143450" lon="-5.384317">
        <ele>1541.0</ele>
        <time>2013-06-30T14:37:46Z</time>
      </trkpt>
      <trkpt lat="40.143450" lon="-5.384433">
        <ele>1539.0</ele>
        <time>2013-06-30T14:37:47Z</time>
      </trkpt>
      <trkpt lat="40.143433" lon="-5.384550">
        <ele>1537.0</ele>
        <time>2013-06-30T14:37:48Z</time>
      </trkpt>
      <trkpt lat="40.143433" lon="-5.384650">
        <ele>1536.0</ele>
        <time>2013-06-30T14:37:49Z</time>
      </trkpt>
      <trkpt lat="40.143450" lon="-5.384767">
        <ele>1535.0</ele>
        <time>2013-06-30T14:37:50Z</time>
      </trkpt>
      <trkpt lat="40.143450" lon="-5.384883">
        <ele>1534.0</ele>
        <time>2013-06-30T14:37:51Z</time>
      </trkpt>
      <trkpt lat="40.143450" lon="-5.384983">
        <ele>1533.0</ele>
        <time>2013-06-30T14:37:52Z</time>
      </trkpt>
      <trkpt lat="40.143433" lon="-5.385083">
        <ele>1532.0</ele>
        <time>2013-06-30T14:37:53Z</time>
      </trkpt>
      <trkpt lat="40.143433" lon="-5.385183">
        <ele>1531.0</ele>
        <time>2013-06-30T14:37:54Z</time>
      </trkpt>
      <trkpt lat="40.143417" lon="-5.385283">
        <ele>1529.0</ele>
        <time>2013-06-30T14:37:55Z</time>
      </trkpt>
      <trkpt lat="40.143400" lon="-5.385417">
        <ele>1528.0</ele>
        <time>2013-06-30T14:37:56Z</time>
      </trkpt>
      <trkpt lat="40.143350" lon="-5.385633">
        <ele>1524.0</ele>
        <time>2013-06-30T14:37:58Z</time>
      </trkpt>
      <trkpt lat="40.143317" lon="-5.385733">
        <ele>1523.0</ele>
        <time>2013-06-30T14:37:59Z</time>
      </trkpt>
      <trkpt lat="40.143300" lon="-5.385817">
        <ele>1520.0</ele>
        <time>2013-06-30T14:38:00Z</time>
      </trkpt>
      <trkpt lat="40.143267" lon="-5.385900">
        <ele>1518.0</ele>
        <time>2013-06-30T14:38:01Z</time>
      </trkpt>
      <trkpt lat="40.143233" lon="-5.385983">
        <ele>1514.0</ele>
        <time>2013-06-30T14:38:02Z</time>
      </trkpt>
      <trkpt lat="40.143200" lon="-5.386083">
        <ele>1511.0</ele>
        <time>2013-06-30T14:38:03Z</time>
      </trkpt>
      <trkpt lat="40.143167" lon="-5.386200">
        <ele>1508.0</ele>
        <time>2013-06-30T14:38:04Z</time>
      </trkpt>
      <trkpt lat="40.143150" lon="-5.386317">
        <ele>1506.0</ele>
        <time>2013-06-30T14:38:05Z</time>
      </trkpt>
      <trkpt lat="40.143133" lon="-5.386417">
        <ele>1504.0</ele>
        <time>2013-06-30T14:38:06Z</time>
      </trkpt>
      <trkpt lat="40.143117" lon="-5.386517">
        <ele>1503.0</ele>
        <time>2013-06-30T14:38:07Z</time>
      </trkpt>
      <trkpt lat="40.143100" lon="-5.386600">
        <ele>1502.0</ele>
        <time>2013-06-30T14:38:08Z</time>
      </trkpt>
      <trkpt lat="40.143083" lon="-5.386683">
        <ele>1500.0</ele>
        <time>2013-06-30T14:38:09Z</time>
      </trkpt>
      <trkpt lat="40.143050" lon="-5.386783">
        <ele>1498.0</ele>
        <time>2013-06-30T14:38:10Z</time>
      </trkpt>
      <trkpt lat="40.143033" lon="-5.386883">
        <ele>1496.0</ele>
        <time>2013-06-30T14:38:11Z</time>
      </trkpt>
      <trkpt lat="40.143017" lon="-5.387000">
        <ele>1495.0</ele>
        <time>2013-06-30T14:38:12Z</time>
      </trkpt>
      <trkpt lat="40.142983" lon="-5.387200">
        <ele>1493.0</ele>
        <time>2013-06-30T14:38:14Z</time>
      </trkpt>
      <trkpt lat="40.142983" lon="-5.387283">
        <ele>1492.0</ele>
        <time>2013-06-30T14:38:15Z</time>
      </trkpt>
      <trkpt lat="40.142967" lon="-5.387383">
        <ele>1491.0</ele>
        <time>2013-06-30T14:38:16Z</time>
      </trkpt>
      <trkpt lat="40.142950" lon="-5.387483">
        <ele>1489.0</ele>
        <time>2013-06-30T14:38:17Z</time>
      </trkpt>
      <trkpt lat="40.142933" lon="-5.387600">
        <ele>1487.0</ele>
        <time>2013-06-30T14:38:18Z</time>
      </trkpt>
      <trkpt lat="40.142917" lon="-5.387700">
        <ele>1486.0</ele>
        <time>2013-06-30T14:38:19Z</time>
      </trkpt>
      <trkpt lat="40.142900" lon="-5.387800">
        <ele>1485.0</ele>
        <time>2013-06-30T14:38:20Z</time>
      </trkpt>
      <trkpt lat="40.142867" lon="-5.387900">
        <ele>1484.0</ele>
        <time>2013-06-30T14:38:21Z</time>
      </trkpt>
      <trkpt lat="40.142850" lon="-5.387983">
        <ele>1483.0</ele>
        <time>2013-06-30T14:38:22Z</time>
      </trkpt>
      <trkpt lat="40.142817" lon="-5.388100">
        <ele>1482.0</ele>
        <time>2013-06-30T14:38:23Z</time>
      </trkpt>
      <trkpt lat="40.142783" lon="-5.388200">
        <ele>1481.0</ele>
        <time>2013-06-30T14:38:24Z</time>
      </trkpt>
      <trkpt lat="40.142767" lon="-5.388317">
        <ele>1481.0</ele>
        <time>2013-06-30T14:38:25Z</time>
      </trkpt>
      <trkpt lat="40.142750" lon="-5.388417">
        <ele>1480.0</ele>
        <time>2013-06-30T14:38:26Z</time>
      </trkpt>
      <trkpt lat="40.142733" lon="-5.388600">
        <ele>1481.0</ele>
        <time>2013-06-30T14:38:28Z</time>
      </trkpt>
      <trkpt lat="40.142717" lon="-5.388717">
        <ele>1480.0</ele>
        <time>2013-06-30T14:38:29Z</time>
      </trkpt>
      <trkpt lat="40.142700" lon="-5.388833">
        <ele>1478.0</ele>
        <time>2013-06-30T14:38:30Z</time>
      </trkpt>
      <trkpt lat="40.142700" lon="-5.388950">
        <ele>1477.0</ele>
        <time>2013-06-30T14:38:31Z</time>
      </trkpt>
      <trkpt lat="40.142700" lon="-5.389050">
        <ele>1477.0</ele>
        <time>2013-06-30T14:38:32Z</time>
      </trkpt>
      <trkpt lat="40.142683" lon="-5.389150">
        <ele>1477.0</ele>
        <time>2013-06-30T14:38:33Z</time>
      </trkpt>
      <trkpt lat="40.142683" lon="-5.389233">
        <ele>1477.0</ele>
        <time>2013-06-30T14:38:34Z</time>
      </trkpt>
      <trkpt lat="40.142667" lon="-5.389333">
        <ele>1476.0</ele>
        <time>2013-06-30T14:38:35Z</time>
      </trkpt>
      <trkpt lat="40.142667" lon="-5.389450">
        <ele>1475.0</ele>
        <time>2013-06-30T14:38:36Z</time>
      </trkpt>
      <trkpt lat="40.142650" lon="-5.389567">
        <ele>1473.0</ele>
        <time>2013-06-30T14:38:37Z</time>
      </trkpt>
      <trkpt lat="40.142650" lon="-5.389683">
        <ele>1473.0</ele>
        <time>2013-06-30T14:38:38Z</time>
      </trkpt>
      <trkpt lat="40.142633" lon="-5.389800">
        <ele>1472.0</ele>
        <time>2013-06-30T14:38:39Z</time>
      </trkpt>
      <trkpt lat="40.142633" lon="-5.389900">
        <ele>1472.0</ele>
        <time>2013-06-30T14:38:40Z</time>
      </trkpt>
      <trkpt lat="40.142617" lon="-5.390017">
        <ele>1471.0</ele>
        <time>2013-06-30T14:38:41Z</time>
      </trkpt>
      <trkpt lat="40.142600" lon="-5.390133">
        <ele>1469.0</ele>
        <time>2013-06-30T14:38:42Z</time>
      </trkpt>
      <trkpt lat="40.142583" lon="-5.390267">
        <ele>1468.0</ele>
        <time>2013-06-30T14:38:43Z</time>
      </trkpt>
      <trkpt lat="40.142567" lon="-5.390383">
        <ele>1467.0</ele>
        <time>2013-06-30T14:38:44Z</time>
      </trkpt>
      <trkpt lat="40.142567" lon="-5.390500">
        <ele>1466.0</ele>
        <time>2013-06-30T14:38:45Z</time>
      </trkpt>
      <trkpt lat="40.142550" lon="-5.390617">
        <ele>1464.0</ele>
        <time>2013-06-30T14:38:46Z</time>
      </trkpt>
      <trkpt lat="40.142533" lon="-5.390733">
        <ele>1463.0</ele>
        <time>2013-06-30T14:38:47Z</time>
      </trkpt>
      <trkpt lat="40.142533" lon="-5.390850">
        <ele>1461.0</ele>
        <time>2013-06-30T14:38:48Z</time>
      </trkpt>
      <trkpt lat="40.142517" lon="-5.390983">
        <ele>1459.0</ele>
        <time>2013-06-30T14:38:49Z</time>
      </trkpt>
      <trkpt lat="40.142517" lon="-5.391117">
        <ele>1457.0</ele>
        <time>2013-06-30T14:38:50Z</time>
      </trkpt>
      <trkpt lat="40.142500" lon="-5.391233">
        <ele>1455.0</ele>
        <time>2013-06-30T14:38:51Z</time>
      </trkpt>
      <trkpt lat="40.142500" lon="-5.391333">
        <ele>1453.0</ele>
        <time>2013-06-30T14:38:52Z</time>
      </trkpt>
      <trkpt lat="40.142500" lon="-5.391433">
        <ele>1452.0</ele>
        <time>2013-06-30T14:38:53Z</time>
      </trkpt>
      <trkpt lat="40.142517" lon="-5.391550">
        <ele>1451.0</ele>
        <time>2013-06-30T14:38:54Z</time>
      </trkpt>
      <trkpt lat="40.142517" lon="-5.391650">
        <ele>1449.0</ele>
        <time>2013-06-30T14:38:55Z</time>
      </trkpt>
      <trkpt lat="40.142500" lon="-5.391767">
        <ele>1447.0</ele>
        <time>2013-06-30T14:38:56Z</time>
      </trkpt>
      <trkpt lat="40.142483" lon="-5.391883">
        <ele>1445.0</ele>
        <time>2013-06-30T14:38:57Z</time>
      </trkpt>
      <trkpt lat="40.142467" lon="-5.392000">
        <ele>1443.0</ele>
        <time>2013-06-30T14:38:58Z</time>
      </trkpt>
      <trkpt lat="40.142450" lon="-5.392117">
        <ele>1442.0</ele>
        <time>2013-06-30T14:38:59Z</time>
      </trkpt>
      <trkpt lat="40.142417" lon="-5.392233">
        <ele>1440.0</ele>
        <time>2013-06-30T14:39:00Z</time>
      </trkpt>
      <trkpt lat="40.142383" lon="-5.392350">
        <ele>1438.0</ele>
        <time>2013-06-30T14:39:01Z</time>
      </trkpt>
      <trkpt lat="40.142350" lon="-5.392450">
        <ele>1436.0</ele>
        <time>2013-06-30T14:39:02Z</time>
      </trkpt>
      <trkpt lat="40.142333" lon="-5.392567">
        <ele>1435.0</ele>
        <time>2013-06-30T14:39:03Z</time>
      </trkpt>
      <trkpt lat="40.142317" lon="-5.392667">
        <ele>1433.0</ele>
        <time>2013-06-30T14:39:04Z</time>
      </trkpt>
      <trkpt lat="40.142300" lon="-5.392767">
        <ele>1431.0</ele>
        <time>2013-06-30T14:39:05Z</time>
      </trkpt>
      <trkpt lat="40.142267" lon="-5.392867">
        <ele>1429.0</ele>
        <time>2013-06-30T14:39:06Z</time>
      </trkpt>
      <trkpt lat="40.142250" lon="-5.392983">
        <ele>1426.0</ele>
        <time>2013-06-30T14:39:07Z</time>
      </trkpt>
      <trkpt lat="40.142217" lon="-5.393100">
        <ele>1424.0</ele>
        <time>2013-06-30T14:39:08Z</time>
      </trkpt>
      <trkpt lat="40.142200" lon="-5.393217">
        <ele>1422.0</ele>
        <time>2013-06-30T14:39:09Z</time>
      </trkpt>
      <trkpt lat="40.142167" lon="-5.393317">
        <ele>1420.0</ele>
        <time>2013-06-30T14:39:10Z</time>
      </trkpt>
      <trkpt lat="40.142150" lon="-5.393433">
        <ele>1418.0</ele>
        <time>2013-06-30T14:39:11Z</time>
      </trkpt>
      <trkpt lat="40.142133" lon="-5.393533">
        <ele>1416.0</ele>
        <time>2013-06-30T14:39:12Z</time>
      </trkpt>
      <trkpt lat="40.142100" lon="-5.393650">
        <ele>1414.0</ele>
        <time>2013-06-30T14:39:13Z</time>
      </trkpt>
      <trkpt lat="40.142083" lon="-5.393767">
        <ele>1410.0</ele>
        <time>2013-06-30T14:39:14Z</time>
      </trkpt>
      <trkpt lat="40.142050" lon="-5.393900">
        <ele>1408.0</ele>
        <time>2013-06-30T14:39:15Z</time>
      </trkpt>
      <trkpt lat="40.142017" lon="-5.394017">
        <ele>1405.0</ele>
        <time>2013-06-30T14:39:16Z</time>
      </trkpt>
      <trkpt lat="40.141983" lon="-5.394133">
        <ele>1403.0</ele>
        <time>2013-06-30T14:39:17Z</time>
      </trkpt>
      <trkpt lat="40.141933" lon="-5.394250">
        <ele>1401.0</ele>
        <time>2013-06-30T14:39:18Z</time>
      </trkpt>
      <trkpt lat="40.141900" lon="-5.394350">
        <ele>1399.0</ele>
        <time>2013-06-30T14:39:19Z</time>
      </trkpt>
      <trkpt lat="40.141850" lon="-5.394450">
        <ele>1397.0</ele>
        <time>2013-06-30T14:39:20Z</time>
      </trkpt>
      <trkpt lat="40.141817" lon="-5.394550">
        <ele>1396.0</ele>
        <time>2013-06-30T14:39:21Z</time>
      </trkpt>
      <trkpt lat="40.141767" lon="-5.394667">
        <ele>1394.0</ele>
        <time>2013-06-30T14:39:22Z</time>
      </trkpt>
      <trkpt lat="40.141733" lon="-5.394783">
        <ele>1392.0</ele>
        <time>2013-06-30T14:39:23Z</time>
      </trkpt>
      <trkpt lat="40.141700" lon="-5.394883">
        <ele>1389.0</ele>
        <time>2013-06-30T14:39:24Z</time>
      </trkpt>
      <trkpt lat="40.141667" lon="-5.395017">
        <ele>1387.0</ele>
        <time>2013-06-30T14:39:25Z</time>
      </trkpt>
      <trkpt lat="40.141633" lon="-5.395133">
        <ele>1385.0</ele>
        <time>2013-06-30T14:39:26Z</time>
      </trkpt>
      <trkpt lat="40.141600" lon="-5.395250">
        <ele>1383.0</ele>
        <time>2013-06-30T14:39:27Z</time>
      </trkpt>
      <trkpt lat="40.141567" lon="-5.395367">
        <ele>1381.0</ele>
        <time>2013-06-30T14:39:28Z</time>
      </trkpt>
      <trkpt lat="40.141533" lon="-5.395467">
        <ele>1379.0</ele>
        <time>2013-06-30T14:39:29Z</time>
      </trkpt>
      <trkpt lat="40.141483" lon="-5.395567">
        <ele>1378.0</ele>
        <time>2013-06-30T14:39:30Z</time>
      </trkpt>
      <trkpt lat="40.141450" lon="-5.395683">
        <ele>1375.0</ele>
        <time>2013-06-30T14:39:31Z</time>
      </trkpt>
      <trkpt lat="40.141417" lon="-5.395800">
        <ele>1372.0</ele>
        <time>2013-06-30T14:39:32Z</time>
      </trkpt>
      <trkpt lat="40.141367" lon="-5.395933">
        <ele>1369.0</ele>
        <time>2013-06-30T14:39:33Z</time>
      </trkpt>
      <trkpt lat="40.141333" lon="-5.396067">
        <ele>1367.0</ele>
        <time>2013-06-30T14:39:34Z</time>
      </trkpt>
      <trkpt lat="40.141317" lon="-5.396200">
        <ele>1365.0</ele>
        <time>2013-06-30T14:39:35Z</time>
      </trkpt>
      <trkpt lat="40.141283" lon="-5.396317">
        <ele>1363.0</ele>
        <time>2013-06-30T14:39:36Z</time>
      </trkpt>
      <trkpt lat="40.141267" lon="-5.396450">
        <ele>1361.0</ele>
        <time>2013-06-30T14:39:37Z</time>
      </trkpt>
      <trkpt lat="40.141250" lon="-5.396567">
        <ele>1359.0</ele>
        <time>2013-06-30T14:39:38Z</time>
      </trkpt>
      <trkpt lat="40.141233" lon="-5.396683">
        <ele>1357.0</ele>
        <time>2013-06-30T14:39:39Z</time>
      </trkpt>
      <trkpt lat="40.141217" lon="-5.396817">
        <ele>1355.0</ele>
        <time>2013-06-30T14:39:40Z</time>
      </trkpt>
      <trkpt lat="40.141200" lon="-5.396933">
        <ele>1353.0</ele>
        <time>2013-06-30T14:39:41Z</time>
      </trkpt>
      <trkpt lat="40.141183" lon="-5.397050">
        <ele>1351.0</ele>
        <time>2013-06-30T14:39:42Z</time>
      </trkpt>
      <trkpt lat="40.141167" lon="-5.397183">
        <ele>1349.0</ele>
        <time>2013-06-30T14:39:43Z</time>
      </trkpt>
      <trkpt lat="40.141167" lon="-5.397300">
        <ele>1347.0</ele>
        <time>2013-06-30T14:39:44Z</time>
      </trkpt>
      <trkpt lat="40.141150" lon="-5.397433">
        <ele>1345.0</ele>
        <time>2013-06-30T14:39:45Z</time>
      </trkpt>
      <trkpt lat="40.141133" lon="-5.397550">
        <ele>1343.0</ele>
        <time>2013-06-30T14:39:46Z</time>
      </trkpt>
      <trkpt lat="40.141133" lon="-5.397683">
        <ele>1342.0</ele>
        <time>2013-06-30T14:39:47Z</time>
      </trkpt>
      <trkpt lat="40.141117" lon="-5.397933">
        <ele>1338.0</ele>
        <time>2013-06-30T14:39:49Z</time>
      </trkpt>
      <trkpt lat="40.141117" lon="-5.398067">
        <ele>1337.0</ele>
        <time>2013-06-30T14:39:50Z</time>
      </trkpt>
      <trkpt lat="40.141117" lon="-5.398167">
        <ele>1336.0</ele>
        <time>2013-06-30T14:39:51Z</time>
      </trkpt>
      <trkpt lat="40.141117" lon="-5.398283">
        <ele>1336.0</ele>
        <time>2013-06-30T14:39:52Z</time>
      </trkpt>
      <trkpt lat="40.141100" lon="-5.398367">
        <ele>1336.0</ele>
        <time>2013-06-30T14:39:53Z</time>
      </trkpt>
      <trkpt lat="40.141083" lon="-5.398483">
        <ele>1335.0</ele>
        <time>2013-06-30T14:39:54Z</time>
      </trkpt>
      <trkpt lat="40.141083" lon="-5.398600">
        <ele>1334.0</ele>
        <time>2013-06-30T14:39:55Z</time>
      </trkpt>
      <trkpt lat="40.141083" lon="-5.398733">
        <ele>1333.0</ele>
        <time>2013-06-30T14:39:56Z</time>
      </trkpt>
      <trkpt lat="40.141083" lon="-5.398867">
        <ele>1333.0</ele>
        <time>2013-06-30T14:39:57Z</time>
      </trkpt>
      <trkpt lat="40.141083" lon="-5.398967">
        <ele>1334.0</ele>
        <time>2013-06-30T14:39:58Z</time>
      </trkpt>
      <trkpt lat="40.141083" lon="-5.399067">
        <ele>1336.0</ele>
        <time>2013-06-30T14:39:59Z</time>
      </trkpt>
      <trkpt lat="40.141067" lon="-5.399150">
        <ele>1337.0</ele>
        <time>2013-06-30T14:40:00Z</time>
      </trkpt>
      <trkpt lat="40.141050" lon="-5.399250">
        <ele>1338.0</ele>
        <time>2013-06-30T14:40:01Z</time>
      </trkpt>
      <trkpt lat="40.141033" lon="-5.399367">
        <ele>1338.0</ele>
        <time>2013-06-30T14:40:02Z</time>
      </trkpt>
      <trkpt lat="40.141017" lon="-5.399500">
        <ele>1338.0</ele>
        <time>2013-06-30T14:40:03Z</time>
      </trkpt>
      <trkpt lat="40.141017" lon="-5.399617">
        <ele>1338.0</ele>
        <time>2013-06-30T14:40:04Z</time>
      </trkpt>
      <trkpt lat="40.141000" lon="-5.399733">
        <ele>1339.0</ele>
        <time>2013-06-30T14:40:05Z</time>
      </trkpt>
      <trkpt lat="40.140983" lon="-5.399833">
        <ele>1340.0</ele>
        <time>2013-06-30T14:40:06Z</time>
      </trkpt>
      <trkpt lat="40.140983" lon="-5.399950">
        <ele>1341.0</ele>
        <time>2013-06-30T14:40:07Z</time>
      </trkpt>
      <trkpt lat="40.140950" lon="-5.400083">
        <ele>1341.0</ele>
        <time>2013-06-30T14:40:08Z</time>
      </trkpt>
      <trkpt lat="40.140933" lon="-5.400217">
        <ele>1341.0</ele>
        <time>2013-06-30T14:40:09Z</time>
      </trkpt>
      <trkpt lat="40.140917" lon="-5.400367">
        <ele>1341.0</ele>
        <time>2013-06-30T14:40:10Z</time>
      </trkpt>
      <trkpt lat="40.140900" lon="-5.400483">
        <ele>1340.0</ele>
        <time>2013-06-30T14:40:11Z</time>
      </trkpt>
      <trkpt lat="40.140883" lon="-5.400600">
        <ele>1340.0</ele>
        <time>2013-06-30T14:40:12Z</time>
      </trkpt>
      <trkpt lat="40.140850" lon="-5.400733">
        <ele>1339.0</ele>
        <time>2013-06-30T14:40:13Z</time>
      </trkpt>
      <trkpt lat="40.140833" lon="-5.400867">
        <ele>1338.0</ele>
        <time>2013-06-30T14:40:14Z</time>
      </trkpt>
      <trkpt lat="40.140800" lon="-5.401017">
        <ele>1336.0</ele>
        <time>2013-06-30T14:40:15Z</time>
      </trkpt>
      <trkpt lat="40.140783" lon="-5.401167">
        <ele>1335.0</ele>
        <time>2013-06-30T14:40:16Z</time>
      </trkpt>
      <trkpt lat="40.140750" lon="-5.401317">
        <ele>1334.0</ele>
        <time>2013-06-30T14:40:17Z</time>
      </trkpt>
      <trkpt lat="40.140733" lon="-5.401467">
        <ele>1333.0</ele>
        <time>2013-06-30T14:40:18Z</time>
      </trkpt>
      <trkpt lat="40.140717" lon="-5.401617">
        <ele>1333.0</ele>
        <time>2013-06-30T14:40:19Z</time>
      </trkpt>
      <trkpt lat="40.140700" lon="-5.401750">
        <ele>1333.0</ele>
        <time>2013-06-30T14:40:20Z</time>
      </trkpt>
      <trkpt lat="40.140700" lon="-5.401883">
        <ele>1333.0</ele>
        <time>2013-06-30T14:40:21Z</time>
      </trkpt>
      <trkpt lat="40.140700" lon="-5.402000">
        <ele>1333.0</ele>
        <time>2013-06-30T14:40:22Z</time>
      </trkpt>
      <trkpt lat="40.140667" lon="-5.402117">
        <ele>1333.0</ele>
        <time>2013-06-30T14:40:23Z</time>
      </trkpt>
      <trkpt lat="40.140650" lon="-5.402233">
        <ele>1332.0</ele>
        <time>2013-06-30T14:40:24Z</time>
      </trkpt>
      <trkpt lat="40.140617" lon="-5.402350">
        <ele>1330.0</ele>
        <time>2013-06-30T14:40:25Z</time>
      </trkpt>
      <trkpt lat="40.140600" lon="-5.402467">
        <ele>1328.0</ele>
        <time>2013-06-30T14:40:26Z</time>
      </trkpt>
      <trkpt lat="40.140567" lon="-5.402567">
        <ele>1327.0</ele>
        <time>2013-06-30T14:40:27Z</time>
      </trkpt>
      <trkpt lat="40.140533" lon="-5.402700">
        <ele>1324.0</ele>
        <time>2013-06-30T14:40:28Z</time>
      </trkpt>
      <trkpt lat="40.140467" lon="-5.402967">
        <ele>1317.0</ele>
        <time>2013-06-30T14:40:30Z</time>
      </trkpt>
      <trkpt lat="40.140450" lon="-5.403100">
        <ele>1316.0</ele>
        <time>2013-06-30T14:40:31Z</time>
      </trkpt>
      <trkpt lat="40.140433" lon="-5.403217">
        <ele>1314.0</ele>
        <time>2013-06-30T14:40:32Z</time>
      </trkpt>
      <trkpt lat="40.140417" lon="-5.403333">
        <ele>1312.0</ele>
        <time>2013-06-30T14:40:33Z</time>
      </trkpt>
      <trkpt lat="40.140383" lon="-5.403450">
        <ele>1310.0</ele>
        <time>2013-06-30T14:40:34Z</time>
      </trkpt>
      <trkpt lat="40.140367" lon="-5.403583">
        <ele>1306.0</ele>
        <time>2013-06-30T14:40:35Z</time>
      </trkpt>
      <trkpt lat="40.140333" lon="-5.403717">
        <ele>1302.0</ele>
        <time>2013-06-30T14:40:36Z</time>
      </trkpt>
      <trkpt lat="40.140300" lon="-5.403833">
        <ele>1299.0</ele>
        <time>2013-06-30T14:40:37Z</time>
      </trkpt>
      <trkpt lat="40.140283" lon="-5.403967">
        <ele>1296.0</ele>
        <time>2013-06-30T14:40:38Z</time>
      </trkpt>
      <trkpt lat="40.140267" lon="-5.404083">
        <ele>1294.0</ele>
        <time>2013-06-30T14:40:39Z</time>
      </trkpt>
      <trkpt lat="40.140267" lon="-5.404183">
        <ele>1292.0</ele>
        <time>2013-06-30T14:40:40Z</time>
      </trkpt>
      <trkpt lat="40.140250" lon="-5.404283">
        <ele>1290.0</ele>
        <time>2013-06-30T14:40:41Z</time>
      </trkpt>
      <trkpt lat="40.140217" lon="-5.404400">
        <ele>1288.0</ele>
        <time>2013-06-30T14:40:42Z</time>
      </trkpt>
      <trkpt lat="40.140200" lon="-5.404500">
        <ele>1286.0</ele>
        <time>2013-06-30T14:40:43Z</time>
      </trkpt>
      <trkpt lat="40.140183" lon="-5.404617">
        <ele>1285.0</ele>
        <time>2013-06-30T14:40:44Z</time>
      </trkpt>
      <trkpt lat="40.140167" lon="-5.404717">
        <ele>1283.0</ele>
        <time>2013-06-30T14:40:45Z</time>
      </trkpt>
      <trkpt lat="40.140150" lon="-5.404817">
        <ele>1282.0</ele>
        <time>2013-06-30T14:40:46Z</time>
      </trkpt>
      <trkpt lat="40.140133" lon="-5.404917">
        <ele>1280.0</ele>
        <time>2013-06-30T14:40:47Z</time>
      </trkpt>
      <trkpt lat="40.140100" lon="-5.405017">
        <ele>1279.0</ele>
        <time>2013-06-30T14:40:48Z</time>
      </trkpt>
      <trkpt lat="40.140067" lon="-5.405133">
        <ele>1277.0</ele>
        <time>2013-06-30T14:40:49Z</time>
      </trkpt>
      <trkpt lat="40.140033" lon="-5.405250">
        <ele>1276.0</ele>
        <time>2013-06-30T14:40:50Z</time>
      </trkpt>
      <trkpt lat="40.140017" lon="-5.405367">
        <ele>1275.0</ele>
        <time>2013-06-30T14:40:51Z</time>
      </trkpt>
      <trkpt lat="40.140000" lon="-5.405483">
        <ele>1275.0</ele>
        <time>2013-06-30T14:40:52Z</time>
      </trkpt>
      <trkpt lat="40.139950" lon="-5.405683">
        <ele>1273.0</ele>
        <time>2013-06-30T14:40:54Z</time>
      </trkpt>
      <trkpt lat="40.139917" lon="-5.405783">
        <ele>1272.0</ele>
        <time>2013-06-30T14:40:55Z</time>
      </trkpt>
      <trkpt lat="40.139883" lon="-5.405900">
        <ele>1270.0</ele>
        <time>2013-06-30T14:40:56Z</time>
      </trkpt>
      <trkpt lat="40.139850" lon="-5.406017">
        <ele>1268.0</ele>
        <time>2013-06-30T14:40:57Z</time>
      </trkpt>
      <trkpt lat="40.139817" lon="-5.406117">
        <ele>1266.0</ele>
        <time>2013-06-30T14:40:58Z</time>
      </trkpt>
      <trkpt lat="40.139783" lon="-5.406233">
        <ele>1264.0</ele>
        <time>2013-06-30T14:40:59Z</time>
      </trkpt>
      <trkpt lat="40.139750" lon="-5.406350">
        <ele>1262.0</ele>
        <time>2013-06-30T14:41:00Z</time>
      </trkpt>
      <trkpt lat="40.139733" lon="-5.406450">
        <ele>1260.0</ele>
        <time>2013-06-30T14:41:01Z</time>
      </trkpt>
      <trkpt lat="40.139700" lon="-5.406550">
        <ele>1256.0</ele>
        <time>2013-06-30T14:41:02Z</time>
      </trkpt>
      <trkpt lat="40.139683" lon="-5.406667">
        <ele>1254.0</ele>
        <time>2013-06-30T14:41:03Z</time>
      </trkpt>
      <trkpt lat="40.139650" lon="-5.406783">
        <ele>1251.0</ele>
        <time>2013-06-30T14:41:04Z</time>
      </trkpt>
      <trkpt lat="40.139617" lon="-5.406900">
        <ele>1249.0</ele>
        <time>2013-06-30T14:41:05Z</time>
      </trkpt>
      <trkpt lat="40.139583" lon="-5.407017">
        <ele>1247.0</ele>
        <time>2013-06-30T14:41:06Z</time>
      </trkpt>
      <trkpt lat="40.139550" lon="-5.407133">
        <ele>1244.0</ele>
        <time>2013-06-30T14:41:07Z</time>
      </trkpt>
      <trkpt lat="40.139517" lon="-5.407250">
        <ele>1241.0</ele>
        <time>2013-06-30T14:41:08Z</time>
      </trkpt>
      <trkpt lat="40.139483" lon="-5.407367">
        <ele>1238.0</ele>
        <time>2013-06-30T14:41:09Z</time>
      </trkpt>
      <trkpt lat="40.139450" lon="-5.407500">
        <ele>1235.0</ele>
        <time>2013-06-30T14:41:10Z</time>
      </trkpt>
      <trkpt lat="40.139417" lon="-5.407617">
        <ele>1232.0</ele>
        <time>2013-06-30T14:41:11Z</time>
      </trkpt>
      <trkpt lat="40.139400" lon="-5.407717">
        <ele>1230.0</ele>
        <time>2013-06-30T14:41:12Z</time>
      </trkpt>
      <trkpt lat="40.139367" lon="-5.407833">
        <ele>1227.0</ele>
        <time>2013-06-30T14:41:13Z</time>
      </trkpt>
      <trkpt lat="40.139350" lon="-5.407950">
        <ele>1224.0</ele>
        <time>2013-06-30T14:41:14Z</time>
      </trkpt>
      <trkpt lat="40.139317" lon="-5.408067">
        <ele>1221.0</ele>
        <time>2013-06-30T14:41:15Z</time>
      </trkpt>
      <trkpt lat="40.139300" lon="-5.408200">
        <ele>1217.0</ele>
        <time>2013-06-30T14:41:16Z</time>
      </trkpt>
      <trkpt lat="40.139283" lon="-5.408317">
        <ele>1214.0</ele>
        <time>2013-06-30T14:41:17Z</time>
      </trkpt>
      <trkpt lat="40.139250" lon="-5.408517">
        <ele>1208.0</ele>
        <time>2013-06-30T14:41:19Z</time>
      </trkpt>
      <trkpt lat="40.139233" lon="-5.408617">
        <ele>1205.0</ele>
        <time>2013-06-30T14:41:20Z</time>
      </trkpt>
      <trkpt lat="40.139200" lon="-5.408717">
        <ele>1202.0</ele>
        <time>2013-06-30T14:41:21Z</time>
      </trkpt>
      <trkpt lat="40.139183" lon="-5.408833">
        <ele>1198.0</ele>
        <time>2013-06-30T14:41:22Z</time>
      </trkpt>
      <trkpt lat="40.139167" lon="-5.408967">
        <ele>1194.0</ele>
        <time>2013-06-30T14:41:23Z</time>
      </trkpt>
      <trkpt lat="40.139133" lon="-5.409067">
        <ele>1191.0</ele>
        <time>2013-06-30T14:41:24Z</time>
      </trkpt>
      <trkpt lat="40.139100" lon="-5.409167">
        <ele>1189.0</ele>
        <time>2013-06-30T14:41:25Z</time>
      </trkpt>
      <trkpt lat="40.139083" lon="-5.409283">
        <ele>1186.0</ele>
        <time>2013-06-30T14:41:26Z</time>
      </trkpt>
      <trkpt lat="40.139067" lon="-5.409383">
        <ele>1182.0</ele>
        <time>2013-06-30T14:41:27Z</time>
      </trkpt>
      <trkpt lat="40.139050" lon="-5.409500">
        <ele>1179.0</ele>
        <time>2013-06-30T14:41:28Z</time>
      </trkpt>
      <trkpt lat="40.139033" lon="-5.409617">
        <ele>1176.0</ele>
        <time>2013-06-30T14:41:29Z</time>
      </trkpt>
      <trkpt lat="40.139017" lon="-5.409733">
        <ele>1173.0</ele>
        <time>2013-06-30T14:41:30Z</time>
      </trkpt>
      <trkpt lat="40.139000" lon="-5.409850">
        <ele>1171.0</ele>
        <time>2013-06-30T14:41:31Z</time>
      </trkpt>
      <trkpt lat="40.139000" lon="-5.409967">
        <ele>1168.0</ele>
        <time>2013-06-30T14:41:32Z</time>
      </trkpt>
      <trkpt lat="40.138983" lon="-5.410200">
        <ele>1163.0</ele>
        <time>2013-06-30T14:41:34Z</time>
      </trkpt>
      <trkpt lat="40.138967" lon="-5.410317">
        <ele>1160.0</ele>
        <time>2013-06-30T14:41:35Z</time>
      </trkpt>
      <trkpt lat="40.138950" lon="-5.410433">
        <ele>1157.0</ele>
        <time>2013-06-30T14:41:36Z</time>
      </trkpt>
      <trkpt lat="40.138933" lon="-5.410550">
        <ele>1155.0</ele>
        <time>2013-06-30T14:41:37Z</time>
      </trkpt>
      <trkpt lat="40.138917" lon="-5.410683">
        <ele>1152.0</ele>
        <time>2013-06-30T14:41:38Z</time>
      </trkpt>
      <trkpt lat="40.138900" lon="-5.410800">
        <ele>1149.0</ele>
        <time>2013-06-30T14:41:39Z</time>
      </trkpt>
      <trkpt lat="40.138883" lon="-5.410917">
        <ele>1147.0</ele>
        <time>2013-06-30T14:41:40Z</time>
      </trkpt>
      <trkpt lat="40.138867" lon="-5.411017">
        <ele>1144.0</ele>
        <time>2013-06-30T14:41:41Z</time>
      </trkpt>
      <trkpt lat="40.138850" lon="-5.411133">
        <ele>1141.0</ele>
        <time>2013-06-30T14:41:42Z</time>
      </trkpt>
      <trkpt lat="40.138833" lon="-5.411267">
        <ele>1139.0</ele>
        <time>2013-06-30T14:41:43Z</time>
      </trkpt>
      <trkpt lat="40.138800" lon="-5.411383">
        <ele>1136.0</ele>
        <time>2013-06-30T14:41:44Z</time>
      </trkpt>
      <trkpt lat="40.138783" lon="-5.411500">
        <ele>1134.0</ele>
        <time>2013-06-30T14:41:45Z</time>
      </trkpt>
      <trkpt lat="40.138767" lon="-5.411600">
        <ele>1131.0</ele>
        <time>2013-06-30T14:41:46Z</time>
      </trkpt>
      <trkpt lat="40.138733" lon="-5.411717">
        <ele>1129.0</ele>
        <time>2013-06-30T14:41:47Z</time>
      </trkpt>
      <trkpt lat="40.138717" lon="-5.411833">
        <ele>1127.0</ele>
        <time>2013-06-30T14:41:48Z</time>
      </trkpt>
      <trkpt lat="40.138683" lon="-5.411950">
        <ele>1124.0</ele>
        <time>2013-06-30T14:41:49Z</time>
      </trkpt>
      <trkpt lat="40.138650" lon="-5.412067">
        <ele>1122.0</ele>
        <time>2013-06-30T14:41:50Z</time>
      </trkpt>
      <trkpt lat="40.138633" lon="-5.412183">
        <ele>1121.0</ele>
        <time>2013-06-30T14:41:51Z</time>
      </trkpt>
      <trkpt lat="40.138600" lon="-5.412300">
        <ele>1119.0</ele>
        <time>2013-06-30T14:41:52Z</time>
      </trkpt>
      <trkpt lat="40.138567" lon="-5.412417">
        <ele>1118.0</ele>
        <time>2013-06-30T14:41:53Z</time>
      </trkpt>
      <trkpt lat="40.138550" lon="-5.412550">
        <ele>1116.0</ele>
        <time>2013-06-30T14:41:54Z</time>
      </trkpt>
      <trkpt lat="40.138533" lon="-5.412667">
        <ele>1114.0</ele>
        <time>2013-06-30T14:41:55Z</time>
      </trkpt>
      <trkpt lat="40.138517" lon="-5.412800">
        <ele>1113.0</ele>
        <time>2013-06-30T14:41:56Z</time>
      </trkpt>
      <trkpt lat="40.138500" lon="-5.412917">
        <ele>1111.0</ele>
        <time>2013-06-30T14:41:57Z</time>
      </trkpt>
      <trkpt lat="40.138483" lon="-5.413033">
        <ele>1110.0</ele>
        <time>2013-06-30T14:41:58Z</time>
      </trkpt>
      <trkpt lat="40.138450" lon="-5.413150">
        <ele>1109.0</ele>
        <time>2013-06-30T14:41:59Z</time>
      </trkpt>
      <trkpt lat="40.138400" lon="-5.413267">
        <ele>1109.0</ele>
        <time>2013-06-30T14:42:00Z</time>
      </trkpt>
      <trkpt lat="40.138350" lon="-5.413383">
        <ele>1108.0</ele>
        <time>2013-06-30T14:42:01Z</time>
      </trkpt>
      <trkpt lat="40.138317" lon="-5.413500">
        <ele>1107.0</ele>
        <time>2013-06-30T14:42:02Z</time>
      </trkpt>
      <trkpt lat="40.138283" lon="-5.413617">
        <ele>1107.0</ele>
        <time>2013-06-30T14:42:03Z</time>
      </trkpt>
      <trkpt lat="40.138267" lon="-5.413717">
        <ele>1107.0</ele>
        <time>2013-06-30T14:42:04Z</time>
      </trkpt>
      <trkpt lat="40.138233" lon="-5.413817">
        <ele>1106.0</ele>
        <time>2013-06-30T14:42:05Z</time>
      </trkpt>
      <trkpt lat="40.138100" lon="-5.414117">
        <ele>1106.0</ele>
        <time>2013-06-30T14:42:08Z</time>
      </trkpt>
      <trkpt lat="40.138050" lon="-5.414217">
        <ele>1105.0</ele>
        <time>2013-06-30T14:42:09Z</time>
      </trkpt>
      <trkpt lat="40.138000" lon="-5.414300">
        <ele>1105.0</ele>
        <time>2013-06-30T14:42:10Z</time>
      </trkpt>
      <trkpt lat="40.137950" lon="-5.414400">
        <ele>1104.0</ele>
        <time>2013-06-30T14:42:11Z</time>
      </trkpt>
      <trkpt lat="40.137883" lon="-5.414483">
        <ele>1104.0</ele>
        <time>2013-06-30T14:42:12Z</time>
      </trkpt>
      <trkpt lat="40.137833" lon="-5.414583">
        <ele>1103.0</ele>
        <time>2013-06-30T14:42:13Z</time>
      </trkpt>
      <trkpt lat="40.137767" lon="-5.414667">
        <ele>1102.0</ele>
        <time>2013-06-30T14:42:14Z</time>
      </trkpt>
      <trkpt lat="40.137717" lon="-5.414767">
        <ele>1101.0</ele>
        <time>2013-06-30T14:42:15Z</time>
      </trkpt>
      <trkpt lat="40.137667" lon="-5.414850">
        <ele>1100.0</ele>
        <time>2013-06-30T14:42:16Z</time>
      </trkpt>
      <trkpt lat="40.137600" lon="-5.414950">
        <ele>1099.0</ele>
        <time>2013-06-30T14:42:17Z</time>
      </trkpt>
      <trkpt lat="40.137550" lon="-5.415050">
        <ele>1098.0</ele>
        <time>2013-06-30T14:42:18Z</time>
      </trkpt>
      <trkpt lat="40.137483" lon="-5.415133">
        <ele>1097.0</ele>
        <time>2013-06-30T14:42:19Z</time>
      </trkpt>
      <trkpt lat="40.137417" lon="-5.415233">
        <ele>1095.0</ele>
        <time>2013-06-30T14:42:20Z</time>
      </trkpt>
      <trkpt lat="40.137367" lon="-5.415317">
        <ele>1093.0</ele>
        <time>2013-06-30T14:42:21Z</time>
      </trkpt>
      <trkpt lat="40.137317" lon="-5.415400">
        <ele>1092.0</ele>
        <time>2013-06-30T14:42:22Z</time>
      </trkpt>
      <trkpt lat="40.137283" lon="-5.415483">
        <ele>1090.0</ele>
        <time>2013-06-30T14:42:23Z</time>
      </trkpt>
      <trkpt lat="40.137233" lon="-5.415550">
        <ele>1088.0</ele>
        <time>2013-06-30T14:42:24Z</time>
      </trkpt>
      <trkpt lat="40.137200" lon="-5.415633">
        <ele>1086.0</ele>
        <time>2013-06-30T14:42:25Z</time>
      </trkpt>
      <trkpt lat="40.137150" lon="-5.415700">
        <ele>1084.0</ele>
        <time>2013-06-30T14:42:26Z</time>
      </trkpt>
      <trkpt lat="40.137100" lon="-5.415783">
        <ele>1081.0</ele>
        <time>2013-06-30T14:42:27Z</time>
      </trkpt>
      <trkpt lat="40.137033" lon="-5.415867">
        <ele>1078.0</ele>
        <time>2013-06-30T14:42:28Z</time>
      </trkpt>
      <trkpt lat="40.136983" lon="-5.415950">
        <ele>1075.0</ele>
        <time>2013-06-30T14:42:29Z</time>
      </trkpt>
      <trkpt lat="40.136933" lon="-5.416017">
        <ele>1073.0</ele>
        <time>2013-06-30T14:42:30Z</time>
      </trkpt>
      <trkpt lat="40.136883" lon="-5.416100">
        <ele>1071.0</ele>
        <time>2013-06-30T14:42:31Z</time>
      </trkpt>
      <trkpt lat="40.136850" lon="-5.416150">
        <ele>1069.0</ele>
        <time>2013-06-30T14:42:32Z</time>
      </trkpt>
      <trkpt lat="40.136817" lon="-5.416200">
        <ele>1066.0</ele>
        <time>2013-06-30T14:42:33Z</time>
      </trkpt>
      <trkpt lat="40.136767" lon="-5.416267">
        <ele>1063.0</ele>
        <time>2013-06-30T14:42:34Z</time>
      </trkpt>
      <trkpt lat="40.136717" lon="-5.416333">
        <ele>1059.0</ele>
        <time>2013-06-30T14:42:35Z</time>
      </trkpt>
      <trkpt lat="40.136617" lon="-5.416500">
        <ele>1051.0</ele>
        <time>2013-06-30T14:42:37Z</time>
      </trkpt>
      <trkpt lat="40.136567" lon="-5.416567">
        <ele>1049.0</ele>
        <time>2013-06-30T14:42:38Z</time>
      </trkpt>
      <trkpt lat="40.136517" lon="-5.416650">
        <ele>1047.0</ele>
        <time>2013-06-30T14:42:39Z</time>
      </trkpt>
      <trkpt lat="40.136483" lon="-5.416733">
        <ele>1045.0</ele>
        <time>2013-06-30T14:42:40Z</time>
      </trkpt>
      <trkpt lat="40.136433" lon="-5.416817">
        <ele>1043.0</ele>
        <time>2013-06-30T14:42:41Z</time>
      </trkpt>
      <trkpt lat="40.136400" lon="-5.416900">
        <ele>1041.0</ele>
        <time>2013-06-30T14:42:42Z</time>
      </trkpt>
      <trkpt lat="40.136367" lon="-5.416983">
        <ele>1040.0</ele>
        <time>2013-06-30T14:42:43Z</time>
      </trkpt>
      <trkpt lat="40.136317" lon="-5.417067">
        <ele>1038.0</ele>
        <time>2013-06-30T14:42:44Z</time>
      </trkpt>
      <trkpt lat="40.136283" lon="-5.417167">
        <ele>1037.0</ele>
        <time>2013-06-30T14:42:45Z</time>
      </trkpt>
      <trkpt lat="40.136233" lon="-5.417250">
        <ele>1034.0</ele>
        <time>2013-06-30T14:42:46Z</time>
      </trkpt>
      <trkpt lat="40.136133" lon="-5.417417">
        <ele>1030.0</ele>
        <time>2013-06-30T14:42:48Z</time>
      </trkpt>
      <trkpt lat="40.136083" lon="-5.417517">
        <ele>1028.0</ele>
        <time>2013-06-30T14:42:49Z</time>
      </trkpt>
      <trkpt lat="40.136033" lon="-5.417600">
        <ele>1026.0</ele>
        <time>2013-06-30T14:42:50Z</time>
      </trkpt>
      <trkpt lat="40.135983" lon="-5.417700">
        <ele>1025.0</ele>
        <time>2013-06-30T14:42:51Z</time>
      </trkpt>
      <trkpt lat="40.135917" lon="-5.417783">
        <ele>1023.0</ele>
        <time>2013-06-30T14:42:52Z</time>
      </trkpt>
      <trkpt lat="40.135867" lon="-5.417867">
        <ele>1021.0</ele>
        <time>2013-06-30T14:42:53Z</time>
      </trkpt>
      <trkpt lat="40.135817" lon="-5.417950">
        <ele>1018.0</ele>
        <time>2013-06-30T14:42:54Z</time>
      </trkpt>
      <trkpt lat="40.135750" lon="-5.418050">
        <ele>1016.0</ele>
        <time>2013-06-30T14:42:55Z</time>
      </trkpt>
      <trkpt lat="40.135683" lon="-5.418133">
        <ele>1013.0</ele>
        <time>2013-06-30T14:42:56Z</time>
      </trkpt>
      <trkpt lat="40.135617" lon="-5.418217">
        <ele>1010.0</ele>
        <time>2013-06-30T14:42:57Z</time>
      </trkpt>
      <trkpt lat="40.135550" lon="-5.418300">
        <ele>1008.0</ele>
        <time>2013-06-30T14:42:58Z</time>
      </trkpt>
      <trkpt lat="40.135467" lon="-5.418367">
        <ele>1006.0</ele>
        <time>2013-06-30T14:42:59Z</time>
      </trkpt>
      <trkpt lat="40.135400" lon="-5.418450">
        <ele>1004.0</ele>
        <time>2013-06-30T14:43:00Z</time>
      </trkpt>
      <trkpt lat="40.135333" lon="-5.418533">
        <ele>1002.0</ele>
        <time>2013-06-30T14:43:01Z</time>
      </trkpt>
      <trkpt lat="40.135250" lon="-5.418617">
        <ele>1000.0</ele>
        <time>2013-06-30T14:43:02Z</time>
      </trkpt>
      <trkpt lat="40.135183" lon="-5.418700">
        <ele>998.0</ele>
        <time>2013-06-30T14:43:03Z</time>
      </trkpt>
      <trkpt lat="40.135100" lon="-5.418767">
        <ele>997.0</ele>
        <time>2013-06-30T14:43:04Z</time>
      </trkpt>
      <trkpt lat="40.135050" lon="-5.418850">
        <ele>995.0</ele>
        <time>2013-06-30T14:43:05Z</time>
      </trkpt>
      <trkpt lat="40.134983" lon="-5.418933">
        <ele>992.0</ele>
        <time>2013-06-30T14:43:06Z</time>
      </trkpt>
      <trkpt lat="40.134900" lon="-5.419017">
        <ele>990.0</ele>
        <time>2013-06-30T14:43:07Z</time>
      </trkpt>
      <trkpt lat="40.134833" lon="-5.419100">
        <ele>989.0</ele>
        <time>2013-06-30T14:43:08Z</time>
      </trkpt>
      <trkpt lat="40.134767" lon="-5.419183">
        <ele>987.0</ele>
        <time>2013-06-30T14:43:09Z</time>
      </trkpt>
      <trkpt lat="40.134717" lon="-5.419283">
        <ele>985.0</ele>
        <time>2013-06-30T14:43:10Z</time>
      </trkpt>
      <trkpt lat="40.134667" lon="-5.419383">
        <ele>983.0</ele>
        <time>2013-06-30T14:43:11Z</time>
      </trkpt>
      <trkpt lat="40.134600" lon="-5.419483">
        <ele>980.0</ele>
        <time>2013-06-30T14:43:12Z</time>
      </trkpt>
      <trkpt lat="40.134400" lon="-5.419767">
        <ele>971.0</ele>
        <time>2013-06-30T14:43:15Z</time>
      </trkpt>
      <trkpt lat="40.134267" lon="-5.419967">
        <ele>967.0</ele>
        <time>2013-06-30T14:43:17Z</time>
      </trkpt>
      <trkpt lat="40.134217" lon="-5.420050">
        <ele>966.0</ele>
        <time>2013-06-30T14:43:18Z</time>
      </trkpt>
      <trkpt lat="40.134167" lon="-5.420117">
        <ele>965.0</ele>
        <time>2013-06-30T14:43:19Z</time>
      </trkpt>
      <trkpt lat="40.134117" lon="-5.420217">
        <ele>963.0</ele>
        <time>2013-06-30T14:43:20Z</time>
      </trkpt>
      <trkpt lat="40.134067" lon="-5.420317">
        <ele>961.0</ele>
        <time>2013-06-30T14:43:21Z</time>
      </trkpt>
      <trkpt lat="40.134017" lon="-5.420433">
        <ele>958.0</ele>
        <time>2013-06-30T14:43:22Z</time>
      </trkpt>
      <trkpt lat="40.133967" lon="-5.420533">
        <ele>956.0</ele>
        <time>2013-06-30T14:43:23Z</time>
      </trkpt>
      <trkpt lat="40.133917" lon="-5.420600">
        <ele>954.0</ele>
        <time>2013-06-30T14:43:24Z</time>
      </trkpt>
      <trkpt lat="40.133867" lon="-5.420650">
        <ele>952.0</ele>
        <time>2013-06-30T14:43:25Z</time>
      </trkpt>
      <trkpt lat="40.133833" lon="-5.420700">
        <ele>949.0</ele>
        <time>2013-06-30T14:43:26Z</time>
      </trkpt>
      <trkpt lat="40.133767" lon="-5.420750">
        <ele>945.0</ele>
        <time>2013-06-30T14:43:27Z</time>
      </trkpt>
      <trkpt lat="40.133683" lon="-5.420817">
        <ele>942.0</ele>
        <time>2013-06-30T14:43:28Z</time>
      </trkpt>
      <trkpt lat="40.133617" lon="-5.420883">
        <ele>939.0</ele>
        <time>2013-06-30T14:43:29Z</time>
      </trkpt>
      <trkpt lat="40.133550" lon="-5.420967">
        <ele>936.0</ele>
        <time>2013-06-30T14:43:30Z</time>
      </trkpt>
      <trkpt lat="40.133500" lon="-5.421033">
        <ele>934.0</ele>
        <time>2013-06-30T14:43:31Z</time>
      </trkpt>
      <trkpt lat="40.133450" lon="-5.421067">
        <ele>932.0</ele>
        <time>2013-06-30T14:43:32Z</time>
      </trkpt>
      <trkpt lat="40.133383" lon="-5.421117">
        <ele>929.0</ele>
        <time>2013-06-30T14:43:33Z</time>
      </trkpt>
      <trkpt lat="40.133300" lon="-5.421150">
        <ele>926.0</ele>
        <time>2013-06-30T14:43:34Z</time>
      </trkpt>
      <trkpt lat="40.133233" lon="-5.421200">
        <ele>923.0</ele>
        <time>2013-06-30T14:43:35Z</time>
      </trkpt>
      <trkpt lat="40.133167" lon="-5.421250">
        <ele>921.0</ele>
        <time>2013-06-30T14:43:36Z</time>
      </trkpt>
      <trkpt lat="40.133117" lon="-5.421317">
        <ele>920.0</ele>
        <time>2013-06-30T14:43:37Z</time>
      </trkpt>
      <trkpt lat="40.133067" lon="-5.421383">
        <ele>918.0</ele>
        <time>2013-06-30T14:43:38Z</time>
      </trkpt>
      <trkpt lat="40.133000" lon="-5.421450">
        <ele>915.0</ele>
        <time>2013-06-30T14:43:39Z</time>
      </trkpt>
      <trkpt lat="40.132933" lon="-5.421517">
        <ele>912.0</ele>
        <time>2013-06-30T14:43:40Z</time>
      </trkpt>
      <trkpt lat="40.132800" lon="-5.421650">
        <ele>907.0</ele>
        <time>2013-06-30T14:43:42Z</time>
      </trkpt>
      <trkpt lat="40.132733" lon="-5.421700">
        <ele>905.0</ele>
        <time>2013-06-30T14:43:43Z</time>
      </trkpt>
      <trkpt lat="40.132667" lon="-5.421750">
        <ele>903.0</ele>
        <time>2013-06-30T14:43:44Z</time>
      </trkpt>
      <trkpt lat="40.132600" lon="-5.421817">
        <ele>901.0</ele>
        <time>2013-06-30T14:43:45Z</time>
      </trkpt>
      <trkpt lat="40.132533" lon="-5.421867">
        <ele>899.0</ele>
        <time>2013-06-30T14:43:46Z</time>
      </trkpt>
      <trkpt lat="40.132450" lon="-5.421933">
        <ele>897.0</ele>
        <time>2013-06-30T14:43:47Z</time>
      </trkpt>
      <trkpt lat="40.132383" lon="-5.422000">
        <ele>894.0</ele>
        <time>2013-06-30T14:43:48Z</time>
      </trkpt>
      <trkpt lat="40.132317" lon="-5.422067">
        <ele>892.0</ele>
        <time>2013-06-30T14:43:49Z</time>
      </trkpt>
      <trkpt lat="40.132250" lon="-5.422150">
        <ele>890.0</ele>
        <time>2013-06-30T14:43:50Z</time>
      </trkpt>
      <trkpt lat="40.132200" lon="-5.422217">
        <ele>887.0</ele>
        <time>2013-06-30T14:43:51Z</time>
      </trkpt>
      <trkpt lat="40.132133" lon="-5.422317">
        <ele>884.0</ele>
        <time>2013-06-30T14:43:52Z</time>
      </trkpt>
      <trkpt lat="40.132050" lon="-5.422400">
        <ele>882.0</ele>
        <time>2013-06-30T14:43:53Z</time>
      </trkpt>
      <trkpt lat="40.131983" lon="-5.422500">
        <ele>879.0</ele>
        <time>2013-06-30T14:43:54Z</time>
      </trkpt>
      <trkpt lat="40.131933" lon="-5.422583">
        <ele>878.0</ele>
        <time>2013-06-30T14:43:55Z</time>
      </trkpt>
      <trkpt lat="40.131883" lon="-5.422667">
        <ele>876.0</ele>
        <time>2013-06-30T14:43:56Z</time>
      </trkpt>
      <trkpt lat="40.131683" lon="-5.422950">
        <ele>870.0</ele>
        <time>2013-06-30T14:43:59Z</time>
      </trkpt>
      <trkpt lat="40.131617" lon="-5.423050">
        <ele>868.0</ele>
        <time>2013-06-30T14:44:00Z</time>
      </trkpt>
      <trkpt lat="40.131550" lon="-5.423133">
        <ele>866.0</ele>
        <time>2013-06-30T14:44:01Z</time>
      </trkpt>
      <trkpt lat="40.131500" lon="-5.423217">
        <ele>865.0</ele>
        <time>2013-06-30T14:44:02Z</time>
      </trkpt>
      <trkpt lat="40.131433" lon="-5.423283">
        <ele>863.0</ele>
        <time>2013-06-30T14:44:03Z</time>
      </trkpt>
      <trkpt lat="40.131350" lon="-5.423383">
        <ele>861.0</ele>
        <time>2013-06-30T14:44:04Z</time>
      </trkpt>
      <trkpt lat="40.131267" lon="-5.423483">
        <ele>858.0</ele>
        <time>2013-06-30T14:44:05Z</time>
      </trkpt>
      <trkpt lat="40.131183" lon="-5.423567">
        <ele>856.0</ele>
        <time>2013-06-30T14:44:06Z</time>
      </trkpt>
      <trkpt lat="40.131117" lon="-5.423650">
        <ele>854.0</ele>
        <time>2013-06-30T14:44:07Z</time>
      </trkpt>
      <trkpt lat="40.131050" lon="-5.423717">
        <ele>852.0</ele>
        <time>2013-06-30T14:44:08Z</time>
      </trkpt>
      <trkpt lat="40.130983" lon="-5.423783">
        <ele>851.0</ele>
        <time>2013-06-30T14:44:09Z</time>
      </trkpt>
      <trkpt lat="40.130900" lon="-5.423850">
        <ele>849.0</ele>
        <time>2013-06-30T14:44:10Z</time>
      </trkpt>
      <trkpt lat="40.130833" lon="-5.423933">
        <ele>846.0</ele>
        <time>2013-06-30T14:44:11Z</time>
      </trkpt>
      <trkpt lat="40.130750" lon="-5.424017">
        <ele>845.0</ele>
        <time>2013-06-30T14:44:12Z</time>
      </trkpt>
      <trkpt lat="40.130700" lon="-5.424100">
        <ele>844.0</ele>
        <time>2013-06-30T14:44:13Z</time>
      </trkpt>
      <trkpt lat="40.130650" lon="-5.424167">
        <ele>843.0</ele>
        <time>2013-06-30T14:44:14Z</time>
      </trkpt>
      <trkpt lat="40.130600" lon="-5.424233">
        <ele>841.0</ele>
        <time>2013-06-30T14:44:15Z</time>
      </trkpt>
      <trkpt lat="40.130550" lon="-5.424283">
        <ele>839.0</ele>
        <time>2013-06-30T14:44:16Z</time>
      </trkpt>
      <trkpt lat="40.130483" lon="-5.424350">
        <ele>836.0</ele>
        <time>2013-06-30T14:44:17Z</time>
      </trkpt>
      <trkpt lat="40.130417" lon="-5.424450">
        <ele>833.0</ele>
        <time>2013-06-30T14:44:18Z</time>
      </trkpt>
      <trkpt lat="40.130367" lon="-5.424517">
        <ele>830.0</ele>
        <time>2013-06-30T14:44:19Z</time>
      </trkpt>
      <trkpt lat="40.130317" lon="-5.424600">
        <ele>828.0</ele>
        <time>2013-06-30T14:44:20Z</time>
      </trkpt>
      <trkpt lat="40.130267" lon="-5.424667">
        <ele>826.0</ele>
        <time>2013-06-30T14:44:21Z</time>
      </trkpt>
      <trkpt lat="40.130217" lon="-5.424733">
        <ele>824.0</ele>
        <time>2013-06-30T14:44:22Z</time>
      </trkpt>
      <trkpt lat="40.130150" lon="-5.424817">
        <ele>821.0</ele>
        <time>2013-06-30T14:44:23Z</time>
      </trkpt>
      <trkpt lat="40.130100" lon="-5.424917">
        <ele>817.0</ele>
        <time>2013-06-30T14:44:24Z</time>
      </trkpt>
      <trkpt lat="40.130017" lon="-5.425000">
        <ele>814.0</ele>
        <time>2013-06-30T14:44:25Z</time>
      </trkpt>
      <trkpt lat="40.129950" lon="-5.425083">
        <ele>811.0</ele>
        <time>2013-06-30T14:44:26Z</time>
      </trkpt>
      <trkpt lat="40.129883" lon="-5.425150">
        <ele>809.0</ele>
        <time>2013-06-30T14:44:27Z</time>
      </trkpt>
      <trkpt lat="40.129817" lon="-5.425233">
        <ele>807.0</ele>
        <time>2013-06-30T14:44:28Z</time>
      </trkpt>
      <trkpt lat="40.129750" lon="-5.425300">
        <ele>805.0</ele>
        <time>2013-06-30T14:44:29Z</time>
      </trkpt>
      <trkpt lat="40.129700" lon="-5.425383">
        <ele>803.0</ele>
        <time>2013-06-30T14:44:30Z</time>
      </trkpt>
      <trkpt lat="40.129650" lon="-5.425483">
        <ele>801.0</ele>
        <time>2013-06-30T14:44:31Z</time>
      </trkpt>
      <trkpt lat="40.129600" lon="-5.425550">
        <ele>800.0</ele>
        <time>2013-06-30T14:44:32Z</time>
      </trkpt>
      <trkpt lat="40.129550" lon="-5.425617">
        <ele>798.0</ele>
        <time>2013-06-30T14:44:33Z</time>
      </trkpt>
      <trkpt lat="40.129483" lon="-5.425667">
        <ele>796.0</ele>
        <time>2013-06-30T14:44:34Z</time>
      </trkpt>
      <trkpt lat="40.129417" lon="-5.425733">
        <ele>795.0</ele>
        <time>2013-06-30T14:44:35Z</time>
      </trkpt>
      <trkpt lat="40.129350" lon="-5.425800">
        <ele>793.0</ele>
        <time>2013-06-30T14:44:36Z</time>
      </trkpt>
      <trkpt lat="40.129283" lon="-5.425883">
        <ele>792.0</ele>
        <time>2013-06-30T14:44:37Z</time>
      </trkpt>
      <trkpt lat="40.129217" lon="-5.425983">
        <ele>791.0</ele>
        <time>2013-06-30T14:44:38Z</time>
      </trkpt>
      <trkpt lat="40.129133" lon="-5.426050">
        <ele>790.0</ele>
        <time>2013-06-30T14:44:39Z</time>
      </trkpt>
      <trkpt lat="40.129083" lon="-5.426117">
        <ele>790.0</ele>
        <time>2013-06-30T14:44:40Z</time>
      </trkpt>
      <trkpt lat="40.129017" lon="-5.426200">
        <ele>790.0</ele>
        <time>2013-06-30T14:44:41Z</time>
      </trkpt>
      <trkpt lat="40.128950" lon="-5.426283">
        <ele>788.0</ele>
        <time>2013-06-30T14:44:42Z</time>
      </trkpt>
      <trkpt lat="40.128883" lon="-5.426367">
        <ele>787.0</ele>
        <time>2013-06-30T14:44:43Z</time>
      </trkpt>
      <trkpt lat="40.128783" lon="-5.426450">
        <ele>785.0</ele>
        <time>2013-06-30T14:44:44Z</time>
      </trkpt>
      <trkpt lat="40.128717" lon="-5.426533">
        <ele>784.0</ele>
        <time>2013-06-30T14:44:45Z</time>
      </trkpt>
      <trkpt lat="40.128633" lon="-5.426617">
        <ele>781.0</ele>
        <time>2013-06-30T14:44:46Z</time>
      </trkpt>
      <trkpt lat="40.128567" lon="-5.426700">
        <ele>779.0</ele>
        <time>2013-06-30T14:44:47Z</time>
      </trkpt>
      <trkpt lat="40.128483" lon="-5.426783">
        <ele>777.0</ele>
        <time>2013-06-30T14:44:48Z</time>
      </trkpt>
      <trkpt lat="40.128400" lon="-5.426867">
        <ele>775.0</ele>
        <time>2013-06-30T14:44:49Z</time>
      </trkpt>
      <trkpt lat="40.128333" lon="-5.426933">
        <ele>773.0</ele>
        <time>2013-06-30T14:44:50Z</time>
      </trkpt>
      <trkpt lat="40.128250" lon="-5.427017">
        <ele>772.0</ele>
        <time>2013-06-30T14:44:51Z</time>
      </trkpt>
      <trkpt lat="40.128183" lon="-5.427100">
        <ele>771.0</ele>
        <time>2013-06-30T14:44:52Z</time>
      </trkpt>
      <trkpt lat="40.128100" lon="-5.427183">
        <ele>768.0</ele>
        <time>2013-06-30T14:44:53Z</time>
      </trkpt>
      <trkpt lat="40.128017" lon="-5.427267">
        <ele>767.0</ele>
        <time>2013-06-30T14:44:54Z</time>
      </trkpt>
      <trkpt lat="40.127950" lon="-5.427350">
        <ele>767.0</ele>
        <time>2013-06-30T14:44:55Z</time>
      </trkpt>
      <trkpt lat="40.127900" lon="-5.427433">
        <ele>767.0</ele>
        <time>2013-06-30T14:44:56Z</time>
      </trkpt>
      <trkpt lat="40.127833" lon="-5.427500">
        <ele>765.0</ele>
        <time>2013-06-30T14:44:57Z</time>
      </trkpt>
      <trkpt lat="40.127767" lon="-5.427583">
        <ele>764.0</ele>
        <time>2013-06-30T14:44:58Z</time>
      </trkpt>
      <trkpt lat="40.127683" lon="-5.427683">
        <ele>761.0</ele>
        <time>2013-06-30T14:44:59Z</time>
      </trkpt>
      <trkpt lat="40.127617" lon="-5.427800">
        <ele>758.0</ele>
        <time>2013-06-30T14:45:00Z</time>
      </trkpt>
      <trkpt lat="40.127550" lon="-5.427917">
        <ele>756.0</ele>
        <time>2013-06-30T14:45:01Z</time>
      </trkpt>
      <trkpt lat="40.127483" lon="-5.428033">
        <ele>754.0</ele>
        <time>2013-06-30T14:45:02Z</time>
      </trkpt>
      <trkpt lat="40.127417" lon="-5.428150">
        <ele>752.0</ele>
        <time>2013-06-30T14:45:03Z</time>
      </trkpt>
      <trkpt lat="40.127350" lon="-5.428250">
        <ele>750.0</ele>
        <time>2013-06-30T14:45:04Z</time>
      </trkpt>
      <trkpt lat="40.127283" lon="-5.428383">
        <ele>748.0</ele>
        <time>2013-06-30T14:45:05Z</time>
      </trkpt>
      <trkpt lat="40.127217" lon="-5.428500">
        <ele>745.0</ele>
        <time>2013-06-30T14:45:06Z</time>
      </trkpt>
      <trkpt lat="40.127150" lon="-5.428617">
        <ele>742.0</ele>
        <time>2013-06-30T14:45:07Z</time>
      </trkpt>
      <trkpt lat="40.127067" lon="-5.428717">
        <ele>741.0</ele>
        <time>2013-06-30T14:45:08Z</time>
      </trkpt>
      <trkpt lat="40.127017" lon="-5.428833">
        <ele>740.0</ele>
        <time>2013-06-30T14:45:09Z</time>
      </trkpt>
      <trkpt lat="40.126967" lon="-5.428933">
        <ele>739.0</ele>
        <time>2013-06-30T14:45:10Z</time>
      </trkpt>
      <trkpt lat="40.126917" lon="-5.429033">
        <ele>740.0</ele>
        <time>2013-06-30T14:45:11Z</time>
      </trkpt>
      <trkpt lat="40.126883" lon="-5.429150">
        <ele>740.0</ele>
        <time>2013-06-30T14:45:12Z</time>
      </trkpt>
      <trkpt lat="40.126833" lon="-5.429267">
        <ele>739.0</ele>
        <time>2013-06-30T14:45:13Z</time>
      </trkpt>
      <trkpt lat="40.126783" lon="-5.429400">
        <ele>739.0</ele>
        <time>2013-06-30T14:45:14Z</time>
      </trkpt>
      <trkpt lat="40.126733" lon="-5.429517">
        <ele>738.0</ele>
        <time>2013-06-30T14:45:15Z</time>
      </trkpt>
      <trkpt lat="40.126683" lon="-5.429633">
        <ele>739.0</ele>
        <time>2013-06-30T14:45:16Z</time>
      </trkpt>
      <trkpt lat="40.126633" lon="-5.429733">
        <ele>739.0</ele>
        <time>2013-06-30T14:45:17Z</time>
      </trkpt>
      <trkpt lat="40.126567" lon="-5.429833">
        <ele>740.0</ele>
        <time>2013-06-30T14:45:18Z</time>
      </trkpt>
      <trkpt lat="40.126517" lon="-5.429950">
        <ele>740.0</ele>
        <time>2013-06-30T14:45:19Z</time>
      </trkpt>
      <trkpt lat="40.126450" lon="-5.430067">
        <ele>739.0</ele>
        <time>2013-06-30T14:45:20Z</time>
      </trkpt>
      <trkpt lat="40.126400" lon="-5.430167">
        <ele>739.0</ele>
        <time>2013-06-30T14:45:21Z</time>
      </trkpt>
      <trkpt lat="40.126350" lon="-5.430283">
        <ele>739.0</ele>
        <time>2013-06-30T14:45:22Z</time>
      </trkpt>
      <trkpt lat="40.126300" lon="-5.430383">
        <ele>740.0</ele>
        <time>2013-06-30T14:45:23Z</time>
      </trkpt>
      <trkpt lat="40.126250" lon="-5.430483">
        <ele>741.0</ele>
        <time>2013-06-30T14:45:24Z</time>
      </trkpt>
      <trkpt lat="40.126217" lon="-5.430567">
        <ele>741.0</ele>
        <time>2013-06-30T14:45:25Z</time>
      </trkpt>
      <trkpt lat="40.126167" lon="-5.430667">
        <ele>742.0</ele>
        <time>2013-06-30T14:45:26Z</time>
      </trkpt>
      <trkpt lat="40.126133" lon="-5.430783">
        <ele>743.0</ele>
        <time>2013-06-30T14:45:27Z</time>
      </trkpt>
      <trkpt lat="40.126100" lon="-5.430900">
        <ele>743.0</ele>
        <time>2013-06-30T14:45:28Z</time>
      </trkpt>
      <trkpt lat="40.126083" lon="-5.431017">
        <ele>743.0</ele>
        <time>2013-06-30T14:45:29Z</time>
      </trkpt>
      <trkpt lat="40.126067" lon="-5.431133">
        <ele>744.0</ele>
        <time>2013-06-30T14:45:30Z</time>
      </trkpt>
      <trkpt lat="40.126067" lon="-5.431250">
        <ele>745.0</ele>
        <time>2013-06-30T14:45:31Z</time>
      </trkpt>
      <trkpt lat="40.126067" lon="-5.431350">
        <ele>745.0</ele>
        <time>2013-06-30T14:45:32Z</time>
      </trkpt>
      <trkpt lat="40.126050" lon="-5.431450">
        <ele>746.0</ele>
        <time>2013-06-30T14:45:33Z</time>
      </trkpt>
      <trkpt lat="40.126050" lon="-5.431567">
        <ele>746.0</ele>
        <time>2013-06-30T14:45:34Z</time>
      </trkpt>
      <trkpt lat="40.126050" lon="-5.431700">
        <ele>746.0</ele>
        <time>2013-06-30T14:45:35Z</time>
      </trkpt>
      <trkpt lat="40.126033" lon="-5.431833">
        <ele>745.0</ele>
        <time>2013-06-30T14:45:36Z</time>
      </trkpt>
      <trkpt lat="40.126017" lon="-5.431950">
        <ele>745.0</ele>
        <time>2013-06-30T14:45:37Z</time>
      </trkpt>
      <trkpt lat="40.126000" lon="-5.432067">
        <ele>745.0</ele>
        <time>2013-06-30T14:45:38Z</time>
      </trkpt>
      <trkpt lat="40.125967" lon="-5.432200">
        <ele>744.0</ele>
        <time>2013-06-30T14:45:39Z</time>
      </trkpt>
      <trkpt lat="40.125933" lon="-5.432317">
        <ele>744.0</ele>
        <time>2013-06-30T14:45:40Z</time>
      </trkpt>
      <trkpt lat="40.125917" lon="-5.432433">
        <ele>743.0</ele>
        <time>2013-06-30T14:45:41Z</time>
      </trkpt>
      <trkpt lat="40.125900" lon="-5.432550">
        <ele>743.0</ele>
        <time>2013-06-30T14:45:42Z</time>
      </trkpt>
      <trkpt lat="40.125883" lon="-5.432650">
        <ele>743.0</ele>
        <time>2013-06-30T14:45:43Z</time>
      </trkpt>
      <trkpt lat="40.125850" lon="-5.432767">
        <ele>743.0</ele>
        <time>2013-06-30T14:45:44Z</time>
      </trkpt>
      <trkpt lat="40.125817" lon="-5.433000">
        <ele>741.0</ele>
        <time>2013-06-30T14:45:46Z</time>
      </trkpt>
      <trkpt lat="40.125800" lon="-5.433117">
        <ele>740.0</ele>
        <time>2013-06-30T14:45:47Z</time>
      </trkpt>
      <trkpt lat="40.125767" lon="-5.433233">
        <ele>740.0</ele>
        <time>2013-06-30T14:45:48Z</time>
      </trkpt>
      <trkpt lat="40.125750" lon="-5.433333">
        <ele>739.0</ele>
        <time>2013-06-30T14:45:49Z</time>
      </trkpt>
      <trkpt lat="40.125733" lon="-5.433450">
        <ele>738.0</ele>
        <time>2013-06-30T14:45:50Z</time>
      </trkpt>
      <trkpt lat="40.125717" lon="-5.433567">
        <ele>738.0</ele>
        <time>2013-06-30T14:45:51Z</time>
      </trkpt>
      <trkpt lat="40.125683" lon="-5.433700">
        <ele>737.0</ele>
        <time>2013-06-30T14:45:52Z</time>
      </trkpt>
      <trkpt lat="40.125583" lon="-5.433917">
        <ele>738.0</ele>
        <time>2013-06-30T14:45:54Z</time>
      </trkpt>
      <trkpt lat="40.125533" lon="-5.434000">
        <ele>739.0</ele>
        <time>2013-06-30T14:45:55Z</time>
      </trkpt>
      <trkpt lat="40.125483" lon="-5.434083">
        <ele>740.0</ele>
        <time>2013-06-30T14:45:56Z</time>
      </trkpt>
      <trkpt lat="40.125433" lon="-5.434183">
        <ele>740.0</ele>
        <time>2013-06-30T14:45:57Z</time>
      </trkpt>
      <trkpt lat="40.125383" lon="-5.434283">
        <ele>740.0</ele>
        <time>2013-06-30T14:45:58Z</time>
      </trkpt>
      <trkpt lat="40.125317" lon="-5.434367">
        <ele>740.0</ele>
        <time>2013-06-30T14:45:59Z</time>
      </trkpt>
      <trkpt lat="40.125250" lon="-5.434417">
        <ele>738.0</ele>
        <time>2013-06-30T14:46:00Z</time>
      </trkpt>
      <trkpt lat="40.125167" lon="-5.434467">
        <ele>737.0</ele>
        <time>2013-06-30T14:46:01Z</time>
      </trkpt>
      <trkpt lat="40.125083" lon="-5.434483">
        <ele>736.0</ele>
        <time>2013-06-30T14:46:02Z</time>
      </trkpt>
      <trkpt lat="40.125000" lon="-5.434483">
        <ele>734.0</ele>
        <time>2013-06-30T14:46:03Z</time>
      </trkpt>
      <trkpt lat="40.124933" lon="-5.434467">
        <ele>734.0</ele>
        <time>2013-06-30T14:46:04Z</time>
      </trkpt>
      <trkpt lat="40.124867" lon="-5.434433">
        <ele>734.0</ele>
        <time>2013-06-30T14:46:05Z</time>
      </trkpt>
      <trkpt lat="40.124817" lon="-5.434367">
        <ele>733.0</ele>
        <time>2013-06-30T14:46:06Z</time>
      </trkpt>
      <trkpt lat="40.124783" lon="-5.434283">
        <ele>732.0</ele>
        <time>2013-06-30T14:46:07Z</time>
      </trkpt>
      <trkpt lat="40.124767" lon="-5.434217">
        <ele>732.0</ele>
        <time>2013-06-30T14:46:08Z</time>
      </trkpt>
      <trkpt lat="40.124733" lon="-5.434150">
        <ele>731.0</ele>
        <time>2013-06-30T14:46:09Z</time>
      </trkpt>
      <trkpt lat="40.124717" lon="-5.434067">
        <ele>731.0</ele>
        <time>2013-06-30T14:46:10Z</time>
      </trkpt>
      <trkpt lat="40.124700" lon="-5.433983">
        <ele>730.0</ele>
        <time>2013-06-30T14:46:11Z</time>
      </trkpt>
      <trkpt lat="40.124700" lon="-5.433900">
        <ele>728.0</ele>
        <time>2013-06-30T14:46:12Z</time>
      </trkpt>
      <trkpt lat="40.124700" lon="-5.433800">
        <ele>727.0</ele>
        <time>2013-06-30T14:46:13Z</time>
      </trkpt>
      <trkpt lat="40.124750" lon="-5.433617">
        <ele>726.0</ele>
        <time>2013-06-30T14:46:15Z</time>
      </trkpt>
      <trkpt lat="40.124783" lon="-5.433550">
        <ele>727.0</ele>
        <time>2013-06-30T14:46:16Z</time>
      </trkpt>
      <trkpt lat="40.124817" lon="-5.433483">
        <ele>728.0</ele>
        <time>2013-06-30T14:46:17Z</time>
      </trkpt>
      <trkpt lat="40.124850" lon="-5.433417">
        <ele>728.0</ele>
        <time>2013-06-30T14:46:18Z</time>
      </trkpt>
      <trkpt lat="40.124900" lon="-5.433333">
        <ele>727.0</ele>
        <time>2013-06-30T14:46:19Z</time>
      </trkpt>
      <trkpt lat="40.124933" lon="-5.433233">
        <ele>726.0</ele>
        <time>2013-06-30T14:46:20Z</time>
      </trkpt>
      <trkpt lat="40.124967" lon="-5.433150">
        <ele>726.0</ele>
        <time>2013-06-30T14:46:21Z</time>
      </trkpt>
      <trkpt lat="40.125017" lon="-5.433083">
        <ele>726.0</ele>
        <time>2013-06-30T14:46:22Z</time>
      </trkpt>
      <trkpt lat="40.125050" lon="-5.433033">
        <ele>727.0</ele>
        <time>2013-06-30T14:46:23Z</time>
      </trkpt>
      <trkpt lat="40.125100" lon="-5.432983">
        <ele>726.0</ele>
        <time>2013-06-30T14:46:24Z</time>
      </trkpt>
      <trkpt lat="40.125150" lon="-5.432933">
        <ele>725.0</ele>
        <time>2013-06-30T14:46:25Z</time>
      </trkpt>
      <trkpt lat="40.125217" lon="-5.432867">
        <ele>723.0</ele>
        <time>2013-06-30T14:46:26Z</time>
      </trkpt>
      <trkpt lat="40.125300" lon="-5.432833">
        <ele>721.0</ele>
        <time>2013-06-30T14:46:27Z</time>
      </trkpt>
      <trkpt lat="40.125383" lon="-5.432817">
        <ele>720.0</ele>
        <time>2013-06-30T14:46:28Z</time>
      </trkpt>
      <trkpt lat="40.125633" lon="-5.432833">
        <ele>719.0</ele>
        <time>2013-06-30T14:46:31Z</time>
      </trkpt>
      <trkpt lat="40.125717" lon="-5.432850">
        <ele>719.0</ele>
        <time>2013-06-30T14:46:32Z</time>
      </trkpt>
      <trkpt lat="40.125800" lon="-5.432867">
        <ele>719.0</ele>
        <time>2013-06-30T14:46:33Z</time>
      </trkpt>
      <trkpt lat="40.125883" lon="-5.432900">
        <ele>719.0</ele>
        <time>2013-06-30T14:46:34Z</time>
      </trkpt>
      <trkpt lat="40.125950" lon="-5.432950">
        <ele>718.0</ele>
        <time>2013-06-30T14:46:35Z</time>
      </trkpt>
      <trkpt lat="40.126033" lon="-5.433033">
        <ele>717.0</ele>
        <time>2013-06-30T14:46:36Z</time>
      </trkpt>
      <trkpt lat="40.126167" lon="-5.433217">
        <ele>715.0</ele>
        <time>2013-06-30T14:46:38Z</time>
      </trkpt>
      <trkpt lat="40.126217" lon="-5.433333">
        <ele>715.0</ele>
        <time>2013-06-30T14:46:39Z</time>
      </trkpt>
      <trkpt lat="40.126233" lon="-5.433483">
        <ele>714.0</ele>
        <time>2013-06-30T14:46:40Z</time>
      </trkpt>
      <trkpt lat="40.126250" lon="-5.433617">
        <ele>713.0</ele>
        <time>2013-06-30T14:46:41Z</time>
      </trkpt>
      <trkpt lat="40.126267" lon="-5.433750">
        <ele>713.0</ele>
        <time>2013-06-30T14:46:42Z</time>
      </trkpt>
      <trkpt lat="40.126267" lon="-5.433883">
        <ele>712.0</ele>
        <time>2013-06-30T14:46:43Z</time>
      </trkpt>
      <trkpt lat="40.126267" lon="-5.434017">
        <ele>711.0</ele>
        <time>2013-06-30T14:46:44Z</time>
      </trkpt>
      <trkpt lat="40.126250" lon="-5.434133">
        <ele>711.0</ele>
        <time>2013-06-30T14:46:45Z</time>
      </trkpt>
      <trkpt lat="40.126200" lon="-5.434383">
        <ele>710.0</ele>
        <time>2013-06-30T14:46:47Z</time>
      </trkpt>
      <trkpt lat="40.126167" lon="-5.434500">
        <ele>709.0</ele>
        <time>2013-06-30T14:46:48Z</time>
      </trkpt>
      <trkpt lat="40.126133" lon="-5.434617">
        <ele>709.0</ele>
        <time>2013-06-30T14:46:49Z</time>
      </trkpt>
      <trkpt lat="40.126083" lon="-5.434733">
        <ele>709.0</ele>
        <time>2013-06-30T14:46:50Z</time>
      </trkpt>
      <trkpt lat="40.126017" lon="-5.434850">
        <ele>709.0</ele>
        <time>2013-06-30T14:46:51Z</time>
      </trkpt>
      <trkpt lat="40.125967" lon="-5.434967">
        <ele>710.0</ele>
        <time>2013-06-30T14:46:52Z</time>
      </trkpt>
      <trkpt lat="40.125917" lon="-5.435050">
        <ele>710.0</ele>
        <time>2013-06-30T14:46:53Z</time>
      </trkpt>
      <trkpt lat="40.125867" lon="-5.435150">
        <ele>712.0</ele>
        <time>2013-06-30T14:46:54Z</time>
      </trkpt>
      <trkpt lat="40.125817" lon="-5.435250">
        <ele>714.0</ele>
        <time>2013-06-30T14:46:55Z</time>
      </trkpt>
      <trkpt lat="40.125783" lon="-5.435350">
        <ele>715.0</ele>
        <time>2013-06-30T14:46:56Z</time>
      </trkpt>
      <trkpt lat="40.125717" lon="-5.435450">
        <ele>713.0</ele>
        <time>2013-06-30T14:46:57Z</time>
      </trkpt>
      <trkpt lat="40.125667" lon="-5.435533">
        <ele>713.0</ele>
        <time>2013-06-30T14:46:58Z</time>
      </trkpt>
      <trkpt lat="40.125600" lon="-5.435600">
        <ele>715.0</ele>
        <time>2013-06-30T14:46:59Z</time>
      </trkpt>
      <trkpt lat="40.125550" lon="-5.435650">
        <ele>718.0</ele>
        <time>2013-06-30T14:47:00Z</time>
      </trkpt>
      <trkpt lat="40.125483" lon="-5.435700">
        <ele>720.0</ele>
        <time>2013-06-30T14:47:01Z</time>
      </trkpt>
      <trkpt lat="40.125417" lon="-5.435733">
        <ele>721.0</ele>
        <time>2013-06-30T14:47:02Z</time>
      </trkpt>
      <trkpt lat="40.125350" lon="-5.435767">
        <ele>721.0</ele>
        <time>2013-06-30T14:47:03Z</time>
      </trkpt>
      <trkpt lat="40.125267" lon="-5.435767">
        <ele>721.0</ele>
        <time>2013-06-30T14:47:04Z</time>
      </trkpt>
      <trkpt lat="40.125183" lon="-5.435783">
        <ele>720.0</ele>
        <time>2013-06-30T14:47:05Z</time>
      </trkpt>
      <trkpt lat="40.125117" lon="-5.435800">
        <ele>720.0</ele>
        <time>2013-06-30T14:47:06Z</time>
      </trkpt>
      <trkpt lat="40.125050" lon="-5.435883">
        <ele>720.0</ele>
        <time>2013-06-30T14:47:07Z</time>
      </trkpt>
      <trkpt lat="40.125000" lon="-5.436133">
        <ele>719.0</ele>
        <time>2013-06-30T14:47:09Z</time>
      </trkpt>
      <trkpt lat="40.125017" lon="-5.436283">
        <ele>718.0</ele>
        <time>2013-06-30T14:47:10Z</time>
      </trkpt>
      <trkpt lat="40.125133" lon="-5.436483">
        <ele>718.0</ele>
        <time>2013-06-30T14:47:12Z</time>
      </trkpt>
      <trkpt lat="40.125200" lon="-5.436550">
        <ele>718.0</ele>
        <time>2013-06-30T14:47:13Z</time>
      </trkpt>
      <trkpt lat="40.125300" lon="-5.436600">
        <ele>718.0</ele>
        <time>2013-06-30T14:47:14Z</time>
      </trkpt>
      <trkpt lat="40.125383" lon="-5.436600">
        <ele>717.0</ele>
        <time>2013-06-30T14:47:15Z</time>
      </trkpt>
      <trkpt lat="40.125567" lon="-5.436567">
        <ele>717.0</ele>
        <time>2013-06-30T14:47:17Z</time>
      </trkpt>
      <trkpt lat="40.125683" lon="-5.436483">
        <ele>718.0</ele>
        <time>2013-06-30T14:47:19Z</time>
      </trkpt>
      <trkpt lat="40.125733" lon="-5.436433">
        <ele>718.0</ele>
        <time>2013-06-30T14:47:20Z</time>
      </trkpt>
      <trkpt lat="40.125800" lon="-5.436367">
        <ele>719.0</ele>
        <time>2013-06-30T14:47:21Z</time>
      </trkpt>
      <trkpt lat="40.125867" lon="-5.436217">
        <ele>720.0</ele>
        <time>2013-06-30T14:47:23Z</time>
      </trkpt>
      <trkpt lat="40.125883" lon="-5.436150">
        <ele>722.0</ele>
        <time>2013-06-30T14:47:24Z</time>
      </trkpt>
      <trkpt lat="40.125883" lon="-5.436017">
        <ele>722.0</ele>
        <time>2013-06-30T14:47:26Z</time>
      </trkpt>
      <trkpt lat="40.125883" lon="-5.435933">
        <ele>721.0</ele>
        <time>2013-06-30T14:47:27Z</time>
      </trkpt>
      <trkpt lat="40.125900" lon="-5.435833">
        <ele>720.0</ele>
        <time>2013-06-30T14:47:28Z</time>
      </trkpt>
      <trkpt lat="40.125917" lon="-5.435750">
        <ele>720.0</ele>
        <time>2013-06-30T14:47:29Z</time>
      </trkpt>
      <trkpt lat="40.125933" lon="-5.435683">
        <ele>721.0</ele>
        <time>2013-06-30T14:47:30Z</time>
      </trkpt>
      <trkpt lat="40.125917" lon="-5.435617">
        <ele>723.0</ele>
        <time>2013-06-30T14:47:31Z</time>
      </trkpt>
      <trkpt lat="40.125917" lon="-5.435550">
        <ele>724.0</ele>
        <time>2013-06-30T14:47:32Z</time>
      </trkpt>
      <trkpt lat="40.125900" lon="-5.435483">
        <ele>725.0</ele>
        <time>2013-06-30T14:47:33Z</time>
      </trkpt>
      <trkpt lat="40.125900" lon="-5.435433">
        <ele>725.0</ele>
        <time>2013-06-30T14:47:34Z</time>
      </trkpt>
      <trkpt lat="40.125883" lon="-5.435350">
        <ele>725.0</ele>
        <time>2013-06-30T14:47:35Z</time>
      </trkpt>
      <trkpt lat="40.125867" lon="-5.435300">
        <ele>724.0</ele>
        <time>2013-06-30T14:47:36Z</time>
      </trkpt>
      <trkpt lat="40.125817" lon="-5.435250">
        <ele>723.0</ele>
        <time>2013-06-30T14:47:37Z</time>
      </trkpt>
      <trkpt lat="40.125750" lon="-5.435217">
        <ele>723.0</ele>
        <time>2013-06-30T14:47:38Z</time>
      </trkpt>
      <trkpt lat="40.125683" lon="-5.435217">
        <ele>722.0</ele>
        <time>2013-06-30T14:47:39Z</time>
      </trkpt>
      <trkpt lat="40.125617" lon="-5.435250">
        <ele>721.0</ele>
        <time>2013-06-30T14:47:40Z</time>
      </trkpt>
      <trkpt lat="40.125550" lon="-5.435317">
        <ele>721.0</ele>
        <time>2013-06-30T14:47:41Z</time>
      </trkpt>
      <trkpt lat="40.125517" lon="-5.435400">
        <ele>720.0</ele>
        <time>2013-06-30T14:47:42Z</time>
      </trkpt>
      <trkpt lat="40.125483" lon="-5.435500">
        <ele>720.0</ele>
        <time>2013-06-30T14:47:43Z</time>
      </trkpt>
      <trkpt lat="40.125467" lon="-5.435617">
        <ele>720.0</ele>
        <time>2013-06-30T14:47:44Z</time>
      </trkpt>
      <trkpt lat="40.125467" lon="-5.435733">
        <ele>720.0</ele>
        <time>2013-06-30T14:47:45Z</time>
      </trkpt>
      <trkpt lat="40.125500" lon="-5.435850">
        <ele>720.0</ele>
        <time>2013-06-30T14:47:46Z</time>
      </trkpt>
      <trkpt lat="40.125600" lon="-5.436067">
        <ele>720.0</ele>
        <time>2013-06-30T14:47:48Z</time>
      </trkpt>
      <trkpt lat="40.125667" lon="-5.436150">
        <ele>721.0</ele>
        <time>2013-06-30T14:47:49Z</time>
      </trkpt>
      <trkpt lat="40.125717" lon="-5.436233">
        <ele>722.0</ele>
        <time>2013-06-30T14:47:50Z</time>
      </trkpt>
      <trkpt lat="40.125783" lon="-5.436300">
        <ele>724.0</ele>
        <time>2013-06-30T14:47:51Z</time>
      </trkpt>
      <trkpt lat="40.125867" lon="-5.436333">
        <ele>725.0</ele>
        <time>2013-06-30T14:47:52Z</time>
      </trkpt>
      <trkpt lat="40.125933" lon="-5.436333">
        <ele>726.0</ele>
        <time>2013-06-30T14:47:53Z</time>
      </trkpt>
      <trkpt lat="40.126017" lon="-5.436333">
        <ele>726.0</ele>
        <time>2013-06-30T14:47:54Z</time>
      </trkpt>
      <trkpt lat="40.126150" lon="-5.436300">
        <ele>729.0</ele>
        <time>2013-06-30T14:47:56Z</time>
      </trkpt>
      <trkpt lat="40.126200" lon="-5.436283">
        <ele>730.0</ele>
        <time>2013-06-30T14:47:57Z</time>
      </trkpt>
      <trkpt lat="40.126250" lon="-5.436233">
        <ele>729.0</ele>
        <time>2013-06-30T14:47:58Z</time>
      </trkpt>
      <trkpt lat="40.126317" lon="-5.436100">
        <ele>726.0</ele>
        <time>2013-06-30T14:48:00Z</time>
      </trkpt>
      <trkpt lat="40.126317" lon="-5.436033">
        <ele>725.0</ele>
        <time>2013-06-30T14:48:01Z</time>
      </trkpt>
      <trkpt lat="40.126317" lon="-5.435967">
        <ele>724.0</ele>
        <time>2013-06-30T14:48:02Z</time>
      </trkpt>
      <trkpt lat="40.126300" lon="-5.435900">
        <ele>724.0</ele>
        <time>2013-06-30T14:48:03Z</time>
      </trkpt>
      <trkpt lat="40.126283" lon="-5.435850">
        <ele>724.0</ele>
        <time>2013-06-30T14:48:04Z</time>
      </trkpt>
      <trkpt lat="40.126250" lon="-5.435800">
        <ele>723.0</ele>
        <time>2013-06-30T14:48:05Z</time>
      </trkpt>
      <trkpt lat="40.126200" lon="-5.435750">
        <ele>722.0</ele>
        <time>2013-06-30T14:48:06Z</time>
      </trkpt>
      <trkpt lat="40.126150" lon="-5.435700">
        <ele>721.0</ele>
        <time>2013-06-30T14:48:07Z</time>
      </trkpt>
      <trkpt lat="40.126100" lon="-5.435650">
        <ele>720.0</ele>
        <time>2013-06-30T14:48:08Z</time>
      </trkpt>
      <trkpt lat="40.126033" lon="-5.435617">
        <ele>719.0</ele>
        <time>2013-06-30T14:48:09Z</time>
      </trkpt>
      <trkpt lat="40.125983" lon="-5.435583">
        <ele>719.0</ele>
        <time>2013-06-30T14:48:10Z</time>
      </trkpt>
      <trkpt lat="40.125917" lon="-5.435567">
        <ele>718.0</ele>
        <time>2013-06-30T14:48:11Z</time>
      </trkpt>
      <trkpt lat="40.125867" lon="-5.435550">
        <ele>718.0</ele>
        <time>2013-06-30T14:48:12Z</time>
      </trkpt>
      <trkpt lat="40.125783" lon="-5.435533">
        <ele>718.0</ele>
        <time>2013-06-30T14:48:13Z</time>
      </trkpt>
      <trkpt lat="40.125717" lon="-5.435517">
        <ele>717.0</ele>
        <time>2013-06-30T14:48:14Z</time>
      </trkpt>
      <trkpt lat="40.125650" lon="-5.435517">
        <ele>718.0</ele>
        <time>2013-06-30T14:48:15Z</time>
      </trkpt>
      <trkpt lat="40.125583" lon="-5.435517">
        <ele>718.0</ele>
        <time>2013-06-30T14:48:16Z</time>
      </trkpt>
      <trkpt lat="40.125517" lon="-5.435517">
        <ele>718.0</ele>
        <time>2013-06-30T14:48:17Z</time>
      </trkpt>
      <trkpt lat="40.125450" lon="-5.435517">
        <ele>717.0</ele>
        <time>2013-06-30T14:48:18Z</time>
      </trkpt>
      <trkpt lat="40.125367" lon="-5.435533">
        <ele>716.0</ele>
        <time>2013-06-30T14:48:19Z</time>
      </trkpt>
      <trkpt lat="40.125283" lon="-5.435533">
        <ele>715.0</ele>
        <time>2013-06-30T14:48:20Z</time>
      </trkpt>
      <trkpt lat="40.125217" lon="-5.435567">
        <ele>715.0</ele>
        <time>2013-06-30T14:48:21Z</time>
      </trkpt>
      <trkpt lat="40.125150" lon="-5.435600">
        <ele>715.0</ele>
        <time>2013-06-30T14:48:22Z</time>
      </trkpt>
      <trkpt lat="40.125083" lon="-5.435650">
        <ele>715.0</ele>
        <time>2013-06-30T14:48:23Z</time>
      </trkpt>
      <trkpt lat="40.125017" lon="-5.435700">
        <ele>715.0</ele>
        <time>2013-06-30T14:48:24Z</time>
      </trkpt>
      <trkpt lat="40.124950" lon="-5.435783">
        <ele>714.0</ele>
        <time>2013-06-30T14:48:25Z</time>
      </trkpt>
      <trkpt lat="40.124883" lon="-5.435883">
        <ele>715.0</ele>
        <time>2013-06-30T14:48:26Z</time>
      </trkpt>
      <trkpt lat="40.124850" lon="-5.435967">
        <ele>715.0</ele>
        <time>2013-06-30T14:48:27Z</time>
      </trkpt>
      <trkpt lat="40.124817" lon="-5.436083">
        <ele>716.0</ele>
        <time>2013-06-30T14:48:28Z</time>
      </trkpt>
      <trkpt lat="40.124817" lon="-5.436200">
        <ele>716.0</ele>
        <time>2013-06-30T14:48:29Z</time>
      </trkpt>
      <trkpt lat="40.124833" lon="-5.436333">
        <ele>716.0</ele>
        <time>2013-06-30T14:48:30Z</time>
      </trkpt>
      <trkpt lat="40.124867" lon="-5.436450">
        <ele>717.0</ele>
        <time>2013-06-30T14:48:31Z</time>
      </trkpt>
      <trkpt lat="40.124917" lon="-5.436567">
        <ele>716.0</ele>
        <time>2013-06-30T14:48:32Z</time>
      </trkpt>
      <trkpt lat="40.125000" lon="-5.436667">
        <ele>716.0</ele>
        <time>2013-06-30T14:48:33Z</time>
      </trkpt>
      <trkpt lat="40.125083" lon="-5.436733">
        <ele>716.0</ele>
        <time>2013-06-30T14:48:34Z</time>
      </trkpt>
      <trkpt lat="40.125150" lon="-5.436783">
        <ele>716.0</ele>
        <time>2013-06-30T14:48:35Z</time>
      </trkpt>
      <trkpt lat="40.125233" lon="-5.436817">
        <ele>717.0</ele>
        <time>2013-06-30T14:48:36Z</time>
      </trkpt>
      <trkpt lat="40.125317" lon="-5.436833">
        <ele>717.0</ele>
        <time>2013-06-30T14:48:37Z</time>
      </trkpt>
      <trkpt lat="40.125400" lon="-5.436817">
        <ele>716.0</ele>
        <time>2013-06-30T14:48:38Z</time>
      </trkpt>
      <trkpt lat="40.125467" lon="-5.436800">
        <ele>716.0</ele>
        <time>2013-06-30T14:48:39Z</time>
      </trkpt>
      <trkpt lat="40.125533" lon="-5.436750">
        <ele>716.0</ele>
        <time>2013-06-30T14:48:40Z</time>
      </trkpt>
      <trkpt lat="40.125567" lon="-5.436683">
        <ele>716.0</ele>
        <time>2013-06-30T14:48:41Z</time>
      </trkpt>
      <trkpt lat="40.125583" lon="-5.436600">
        <ele>717.0</ele>
        <time>2013-06-30T14:48:42Z</time>
      </trkpt>
      <trkpt lat="40.125600" lon="-5.436517">
        <ele>716.0</ele>
        <time>2013-06-30T14:48:43Z</time>
      </trkpt>
      <trkpt lat="40.125617" lon="-5.436433">
        <ele>717.0</ele>
        <time>2013-06-30T14:48:44Z</time>
      </trkpt>
      <trkpt lat="40.125617" lon="-5.436367">
        <ele>717.0</ele>
        <time>2013-06-30T14:48:45Z</time>
      </trkpt>
      <trkpt lat="40.125600" lon="-5.436283">
        <ele>718.0</ele>
        <time>2013-06-30T14:48:46Z</time>
      </trkpt>
      <trkpt lat="40.125567" lon="-5.436233">
        <ele>718.0</ele>
        <time>2013-06-30T14:48:47Z</time>
      </trkpt>
      <trkpt lat="40.125533" lon="-5.436183">
        <ele>719.0</ele>
        <time>2013-06-30T14:48:48Z</time>
      </trkpt>
      <trkpt lat="40.125483" lon="-5.436117">
        <ele>719.0</ele>
        <time>2013-06-30T14:48:49Z</time>
      </trkpt>
      <trkpt lat="40.125433" lon="-5.436067">
        <ele>719.0</ele>
        <time>2013-06-30T14:48:50Z</time>
      </trkpt>
      <trkpt lat="40.125383" lon="-5.436033">
        <ele>719.0</ele>
        <time>2013-06-30T14:48:51Z</time>
      </trkpt>
      <trkpt lat="40.125333" lon="-5.435983">
        <ele>719.0</ele>
        <time>2013-06-30T14:48:52Z</time>
      </trkpt>
      <trkpt lat="40.125267" lon="-5.435967">
        <ele>720.0</ele>
        <time>2013-06-30T14:48:53Z</time>
      </trkpt>
      <trkpt lat="40.125200" lon="-5.435933">
        <ele>720.0</ele>
        <time>2013-06-30T14:48:54Z</time>
      </trkpt>
      <trkpt lat="40.125133" lon="-5.435917">
        <ele>721.0</ele>
        <time>2013-06-30T14:48:55Z</time>
      </trkpt>
      <trkpt lat="40.125083" lon="-5.435883">
        <ele>721.0</ele>
        <time>2013-06-30T14:48:56Z</time>
      </trkpt>
      <trkpt lat="40.125017" lon="-5.435867">
        <ele>722.0</ele>
        <time>2013-06-30T14:48:57Z</time>
      </trkpt>
      <trkpt lat="40.124950" lon="-5.435850">
        <ele>722.0</ele>
        <time>2013-06-30T14:48:58Z</time>
      </trkpt>
      <trkpt lat="40.124900" lon="-5.435833">
        <ele>724.0</ele>
        <time>2013-06-30T14:48:59Z</time>
      </trkpt>
      <trkpt lat="40.124833" lon="-5.435817">
        <ele>725.0</ele>
        <time>2013-06-30T14:49:00Z</time>
      </trkpt>
      <trkpt lat="40.124767" lon="-5.435817">
        <ele>726.0</ele>
        <time>2013-06-30T14:49:01Z</time>
      </trkpt>
      <trkpt lat="40.124700" lon="-5.435817">
        <ele>727.0</ele>
        <time>2013-06-30T14:49:02Z</time>
      </trkpt>
      <trkpt lat="40.124650" lon="-5.435833">
        <ele>727.0</ele>
        <time>2013-06-30T14:49:03Z</time>
      </trkpt>
      <trkpt lat="40.124583" lon="-5.435867">
        <ele>727.0</ele>
        <time>2013-06-30T14:49:04Z</time>
      </trkpt>
      <trkpt lat="40.124517" lon="-5.435933">
        <ele>727.0</ele>
        <time>2013-06-30T14:49:05Z</time>
      </trkpt>
      <trkpt lat="40.124450" lon="-5.436017">
        <ele>727.0</ele>
        <time>2013-06-30T14:49:06Z</time>
      </trkpt>
      <trkpt lat="40.124400" lon="-5.436133">
        <ele>728.0</ele>
        <time>2013-06-30T14:49:07Z</time>
      </trkpt>
      <trkpt lat="40.124367" lon="-5.436233">
        <ele>730.0</ele>
        <time>2013-06-30T14:49:08Z</time>
      </trkpt>
      <trkpt lat="40.124333" lon="-5.436317">
        <ele>733.0</ele>
        <time>2013-06-30T14:49:09Z</time>
      </trkpt>
      <trkpt lat="40.124317" lon="-5.436400">
        <ele>736.0</ele>
        <time>2013-06-30T14:49:10Z</time>
      </trkpt>
      <trkpt lat="40.124300" lon="-5.436500">
        <ele>737.0</ele>
        <time>2013-06-30T14:49:11Z</time>
      </trkpt>
      <trkpt lat="40.124300" lon="-5.436600">
        <ele>739.0</ele>
        <time>2013-06-30T14:49:12Z</time>
      </trkpt>
      <trkpt lat="40.124283" lon="-5.436733">
        <ele>739.0</ele>
        <time>2013-06-30T14:49:13Z</time>
      </trkpt>
      <trkpt lat="40.124300" lon="-5.436867">
        <ele>741.0</ele>
        <time>2013-06-30T14:49:14Z</time>
      </trkpt>
      <trkpt lat="40.124333" lon="-5.436967">
        <ele>743.0</ele>
        <time>2013-06-30T14:49:15Z</time>
      </trkpt>
      <trkpt lat="40.124400" lon="-5.437050">
        <ele>744.0</ele>
        <time>2013-06-30T14:49:16Z</time>
      </trkpt>
      <trkpt lat="40.124467" lon="-5.437117">
        <ele>744.0</ele>
        <time>2013-06-30T14:49:17Z</time>
      </trkpt>
      <trkpt lat="40.124550" lon="-5.437200">
        <ele>744.0</ele>
        <time>2013-06-30T14:49:18Z</time>
      </trkpt>
      <trkpt lat="40.124650" lon="-5.437267">
        <ele>743.0</ele>
        <time>2013-06-30T14:49:19Z</time>
      </trkpt>
      <trkpt lat="40.124750" lon="-5.437300">
        <ele>743.0</ele>
        <time>2013-06-30T14:49:20Z</time>
      </trkpt>
      <trkpt lat="40.124833" lon="-5.437333">
        <ele>743.0</ele>
        <time>2013-06-30T14:49:21Z</time>
      </trkpt>
      <trkpt lat="40.124933" lon="-5.437350">
        <ele>745.0</ele>
        <time>2013-06-30T14:49:22Z</time>
      </trkpt>
      <trkpt lat="40.125000" lon="-5.437333">
        <ele>746.0</ele>
        <time>2013-06-30T14:49:23Z</time>
      </trkpt>
      <trkpt lat="40.125083" lon="-5.437317">
        <ele>747.0</ele>
        <time>2013-06-30T14:49:24Z</time>
      </trkpt>
      <trkpt lat="40.125167" lon="-5.437283">
        <ele>748.0</ele>
        <time>2013-06-30T14:49:25Z</time>
      </trkpt>
      <trkpt lat="40.125217" lon="-5.437233">
        <ele>749.0</ele>
        <time>2013-06-30T14:49:26Z</time>
      </trkpt>
      <trkpt lat="40.125267" lon="-5.437167">
        <ele>750.0</ele>
        <time>2013-06-30T14:49:27Z</time>
      </trkpt>
      <trkpt lat="40.125283" lon="-5.437083">
        <ele>751.0</ele>
        <time>2013-06-30T14:49:28Z</time>
      </trkpt>
      <trkpt lat="40.125300" lon="-5.437000">
        <ele>751.0</ele>
        <time>2013-06-30T14:49:29Z</time>
      </trkpt>
      <trkpt lat="40.125317" lon="-5.436917">
        <ele>752.0</ele>
        <time>2013-06-30T14:49:30Z</time>
      </trkpt>
      <trkpt lat="40.125300" lon="-5.436850">
        <ele>753.0</ele>
        <time>2013-06-30T14:49:31Z</time>
      </trkpt>
      <trkpt lat="40.125283" lon="-5.436783">
        <ele>754.0</ele>
        <time>2013-06-30T14:49:32Z</time>
      </trkpt>
      <trkpt lat="40.125267" lon="-5.436717">
        <ele>755.0</ele>
        <time>2013-06-30T14:49:33Z</time>
      </trkpt>
      <trkpt lat="40.125233" lon="-5.436617">
        <ele>755.0</ele>
        <time>2013-06-30T14:49:34Z</time>
      </trkpt>
      <trkpt lat="40.125217" lon="-5.436533">
        <ele>756.0</ele>
        <time>2013-06-30T14:49:35Z</time>
      </trkpt>
      <trkpt lat="40.125183" lon="-5.436467">
        <ele>758.0</ele>
        <time>2013-06-30T14:49:36Z</time>
      </trkpt>
      <trkpt lat="40.125133" lon="-5.436417">
        <ele>761.0</ele>
        <time>2013-06-30T14:49:37Z</time>
      </trkpt>
      <trkpt lat="40.125100" lon="-5.436400">
        <ele>763.0</ele>
        <time>2013-06-30T14:49:38Z</time>
      </trkpt>
      <trkpt lat="40.125050" lon="-5.436367">
        <ele>765.0</ele>
        <time>2013-06-30T14:49:39Z</time>
      </trkpt>
      <trkpt lat="40.125000" lon="-5.436333">
        <ele>766.0</ele>
        <time>2013-06-30T14:49:40Z</time>
      </trkpt>
      <trkpt lat="40.124950" lon="-5.436317">
        <ele>767.0</ele>
        <time>2013-06-30T14:49:41Z</time>
      </trkpt>
      <trkpt lat="40.124883" lon="-5.436300">
        <ele>768.0</ele>
        <time>2013-06-30T14:49:42Z</time>
      </trkpt>
      <trkpt lat="40.124817" lon="-5.436300">
        <ele>769.0</ele>
        <time>2013-06-30T14:49:43Z</time>
      </trkpt>
      <trkpt lat="40.124750" lon="-5.436317">
        <ele>771.0</ele>
        <time>2013-06-30T14:49:44Z</time>
      </trkpt>
      <trkpt lat="40.124700" lon="-5.436367">
        <ele>773.0</ele>
        <time>2013-06-30T14:49:45Z</time>
      </trkpt>
      <trkpt lat="40.124650" lon="-5.436450">
        <ele>775.0</ele>
        <time>2013-06-30T14:49:46Z</time>
      </trkpt>
      <trkpt lat="40.124600" lon="-5.436550">
        <ele>776.0</ele>
        <time>2013-06-30T14:49:47Z</time>
      </trkpt>
      <trkpt lat="40.124583" lon="-5.436667">
        <ele>777.0</ele>
        <time>2013-06-30T14:49:48Z</time>
      </trkpt>
      <trkpt lat="40.124567" lon="-5.436800">
        <ele>778.0</ele>
        <time>2013-06-30T14:49:49Z</time>
      </trkpt>
      <trkpt lat="40.124583" lon="-5.436917">
        <ele>780.0</ele>
        <time>2013-06-30T14:49:50Z</time>
      </trkpt>
      <trkpt lat="40.124617" lon="-5.437033">
        <ele>782.0</ele>
        <time>2013-06-30T14:49:51Z</time>
      </trkpt>
      <trkpt lat="40.124667" lon="-5.437133">
        <ele>785.0</ele>
        <time>2013-06-30T14:49:52Z</time>
      </trkpt>
      <trkpt lat="40.124717" lon="-5.437233">
        <ele>786.0</ele>
        <time>2013-06-30T14:49:53Z</time>
      </trkpt>
      <trkpt lat="40.124800" lon="-5.437317">
        <ele>788.0</ele>
        <time>2013-06-30T14:49:54Z</time>
      </trkpt>
      <trkpt lat="40.124883" lon="-5.437400">
        <ele>789.0</ele>
        <time>2013-06-30T14:49:55Z</time>
      </trkpt>
      <trkpt lat="40.124983" lon="-5.437450">
        <ele>791.0</ele>
        <time>2013-06-30T14:49:56Z</time>
      </trkpt>
      <trkpt lat="40.125067" lon="-5.437467">
        <ele>792.0</ele>
        <time>2013-06-30T14:49:57Z</time>
      </trkpt>
      <trkpt lat="40.125150" lon="-5.437467">
        <ele>794.0</ele>
        <time>2013-06-30T14:49:58Z</time>
      </trkpt>
      <trkpt lat="40.125233" lon="-5.437433">
        <ele>797.0</ele>
        <time>2013-06-30T14:49:59Z</time>
      </trkpt>
      <trkpt lat="40.125300" lon="-5.437383">
        <ele>799.0</ele>
        <time>2013-06-30T14:50:00Z</time>
      </trkpt>
      <trkpt lat="40.125367" lon="-5.437333">
        <ele>801.0</ele>
        <time>2013-06-30T14:50:01Z</time>
      </trkpt>
      <trkpt lat="40.125417" lon="-5.437250">
        <ele>802.0</ele>
        <time>2013-06-30T14:50:02Z</time>
      </trkpt>
      <trkpt lat="40.125450" lon="-5.437183">
        <ele>804.0</ele>
        <time>2013-06-30T14:50:03Z</time>
      </trkpt>
      <trkpt lat="40.125467" lon="-5.437100">
        <ele>806.0</ele>
        <time>2013-06-30T14:50:04Z</time>
      </trkpt>
      <trkpt lat="40.125483" lon="-5.437033">
        <ele>808.0</ele>
        <time>2013-06-30T14:50:05Z</time>
      </trkpt>
      <trkpt lat="40.125483" lon="-5.436967">
        <ele>810.0</ele>
        <time>2013-06-30T14:50:06Z</time>
      </trkpt>
      <trkpt lat="40.125467" lon="-5.436900">
        <ele>812.0</ele>
        <time>2013-06-30T14:50:07Z</time>
      </trkpt>
      <trkpt lat="40.125467" lon="-5.436817">
        <ele>812.0</ele>
        <time>2013-06-30T14:50:08Z</time>
      </trkpt>
      <trkpt lat="40.125483" lon="-5.436750">
        <ele>812.0</ele>
        <time>2013-06-30T14:50:09Z</time>
      </trkpt>
      <trkpt lat="40.125467" lon="-5.436667">
        <ele>812.0</ele>
        <time>2013-06-30T14:50:10Z</time>
      </trkpt>
      <trkpt lat="40.125450" lon="-5.436600">
        <ele>812.0</ele>
        <time>2013-06-30T14:50:11Z</time>
      </trkpt>
      <trkpt lat="40.125400" lon="-5.436533">
        <ele>812.0</ele>
        <time>2013-06-30T14:50:12Z</time>
      </trkpt>
      <trkpt lat="40.125350" lon="-5.436467">
        <ele>811.0</ele>
        <time>2013-06-30T14:50:13Z</time>
      </trkpt>
      <trkpt lat="40.125283" lon="-5.436433">
        <ele>811.0</ele>
        <time>2013-06-30T14:50:14Z</time>
      </trkpt>
      <trkpt lat="40.125217" lon="-5.436400">
        <ele>811.0</ele>
        <time>2013-06-30T14:50:15Z</time>
      </trkpt>
      <trkpt lat="40.125133" lon="-5.436383">
        <ele>812.0</ele>
        <time>2013-06-30T14:50:16Z</time>
      </trkpt>
      <trkpt lat="40.125067" lon="-5.436350">
        <ele>811.0</ele>
        <time>2013-06-30T14:50:17Z</time>
      </trkpt>
      <trkpt lat="40.124983" lon="-5.436333">
        <ele>811.0</ele>
        <time>2013-06-30T14:50:18Z</time>
      </trkpt>
      <trkpt lat="40.124883" lon="-5.436333">
        <ele>811.0</ele>
        <time>2013-06-30T14:50:19Z</time>
      </trkpt>
      <trkpt lat="40.124800" lon="-5.436350">
        <ele>812.0</ele>
        <time>2013-06-30T14:50:20Z</time>
      </trkpt>
      <trkpt lat="40.124700" lon="-5.436383">
        <ele>812.0</ele>
        <time>2013-06-30T14:50:21Z</time>
      </trkpt>
      <trkpt lat="40.124617" lon="-5.436400">
        <ele>814.0</ele>
        <time>2013-06-30T14:50:22Z</time>
      </trkpt>
      <trkpt lat="40.124550" lon="-5.436417">
        <ele>815.0</ele>
        <time>2013-06-30T14:50:23Z</time>
      </trkpt>
      <trkpt lat="40.124467" lon="-5.436450">
        <ele>816.0</ele>
        <time>2013-06-30T14:50:24Z</time>
      </trkpt>
      <trkpt lat="40.124400" lon="-5.436483">
        <ele>816.0</ele>
        <time>2013-06-30T14:50:25Z</time>
      </trkpt>
      <trkpt lat="40.124317" lon="-5.436533">
        <ele>815.0</ele>
        <time>2013-06-30T14:50:26Z</time>
      </trkpt>
      <trkpt lat="40.124250" lon="-5.436600">
        <ele>815.0</ele>
        <time>2013-06-30T14:50:27Z</time>
      </trkpt>
      <trkpt lat="40.124183" lon="-5.436683">
        <ele>815.0</ele>
        <time>2013-06-30T14:50:28Z</time>
      </trkpt>
      <trkpt lat="40.124133" lon="-5.436750">
        <ele>815.0</ele>
        <time>2013-06-30T14:50:29Z</time>
      </trkpt>
      <trkpt lat="40.124100" lon="-5.436833">
        <ele>815.0</ele>
        <time>2013-06-30T14:50:30Z</time>
      </trkpt>
      <trkpt lat="40.124067" lon="-5.436933">
        <ele>814.0</ele>
        <time>2013-06-30T14:50:31Z</time>
      </trkpt>
      <trkpt lat="40.124017" lon="-5.437033">
        <ele>813.0</ele>
        <time>2013-06-30T14:50:32Z</time>
      </trkpt>
      <trkpt lat="40.123967" lon="-5.437133">
        <ele>812.0</ele>
        <time>2013-06-30T14:50:33Z</time>
      </trkpt>
      <trkpt lat="40.123933" lon="-5.437233">
        <ele>811.0</ele>
        <time>2013-06-30T14:50:34Z</time>
      </trkpt>
      <trkpt lat="40.123900" lon="-5.437333">
        <ele>810.0</ele>
        <time>2013-06-30T14:50:35Z</time>
      </trkpt>
      <trkpt lat="40.123883" lon="-5.437417">
        <ele>810.0</ele>
        <time>2013-06-30T14:50:36Z</time>
      </trkpt>
      <trkpt lat="40.123867" lon="-5.437517">
        <ele>809.0</ele>
        <time>2013-06-30T14:50:37Z</time>
      </trkpt>
      <trkpt lat="40.123867" lon="-5.437633">
        <ele>808.0</ele>
        <time>2013-06-30T14:50:38Z</time>
      </trkpt>
      <trkpt lat="40.123850" lon="-5.437750">
        <ele>807.0</ele>
        <time>2013-06-30T14:50:39Z</time>
      </trkpt>
      <trkpt lat="40.123850" lon="-5.437867">
        <ele>805.0</ele>
        <time>2013-06-30T14:50:40Z</time>
      </trkpt>
      <trkpt lat="40.123867" lon="-5.437983">
        <ele>805.0</ele>
        <time>2013-06-30T14:50:41Z</time>
      </trkpt>
      <trkpt lat="40.123883" lon="-5.438083">
        <ele>805.0</ele>
        <time>2013-06-30T14:50:42Z</time>
      </trkpt>
      <trkpt lat="40.123900" lon="-5.438200">
        <ele>804.0</ele>
        <time>2013-06-30T14:50:43Z</time>
      </trkpt>
      <trkpt lat="40.123933" lon="-5.438317">
        <ele>803.0</ele>
        <time>2013-06-30T14:50:44Z</time>
      </trkpt>
      <trkpt lat="40.123983" lon="-5.438417">
        <ele>802.0</ele>
        <time>2013-06-30T14:50:45Z</time>
      </trkpt>
      <trkpt lat="40.124033" lon="-5.438517">
        <ele>802.0</ele>
        <time>2013-06-30T14:50:46Z</time>
      </trkpt>
      <trkpt lat="40.124100" lon="-5.438600">
        <ele>801.0</ele>
        <time>2013-06-30T14:50:47Z</time>
      </trkpt>
      <trkpt lat="40.124200" lon="-5.438650">
        <ele>800.0</ele>
        <time>2013-06-30T14:50:48Z</time>
      </trkpt>
      <trkpt lat="40.124283" lon="-5.438683">
        <ele>799.0</ele>
        <time>2013-06-30T14:50:49Z</time>
      </trkpt>
      <trkpt lat="40.124467" lon="-5.438650">
        <ele>801.0</ele>
        <time>2013-06-30T14:50:51Z</time>
      </trkpt>
      <trkpt lat="40.124633" lon="-5.438583">
        <ele>804.0</ele>
        <time>2013-06-30T14:50:53Z</time>
      </trkpt>
      <trkpt lat="40.124700" lon="-5.438533">
        <ele>806.0</ele>
        <time>2013-06-30T14:50:54Z</time>
      </trkpt>
      <trkpt lat="40.124867" lon="-5.438433">
        <ele>808.0</ele>
        <time>2013-06-30T14:50:56Z</time>
      </trkpt>
      <trkpt lat="40.125017" lon="-5.438300">
        <ele>809.0</ele>
        <time>2013-06-30T14:50:58Z</time>
      </trkpt>
      <trkpt lat="40.125067" lon="-5.438217">
        <ele>809.0</ele>
        <time>2013-06-30T14:50:59Z</time>
      </trkpt>
      <trkpt lat="40.125133" lon="-5.437983">
        <ele>812.0</ele>
        <time>2013-06-30T14:51:02Z</time>
      </trkpt>
      <trkpt lat="40.125117" lon="-5.437917">
        <ele>814.0</ele>
        <time>2013-06-30T14:51:03Z</time>
      </trkpt>
      <trkpt lat="40.125117" lon="-5.437850">
        <ele>815.0</ele>
        <time>2013-06-30T14:51:04Z</time>
      </trkpt>
      <trkpt lat="40.125117" lon="-5.437783">
        <ele>816.0</ele>
        <time>2013-06-30T14:51:05Z</time>
      </trkpt>
      <trkpt lat="40.125117" lon="-5.437717">
        <ele>815.0</ele>
        <time>2013-06-30T14:51:06Z</time>
      </trkpt>
      <trkpt lat="40.125133" lon="-5.437633">
        <ele>813.0</ele>
        <time>2013-06-30T14:51:07Z</time>
      </trkpt>
      <trkpt lat="40.125117" lon="-5.437533">
        <ele>812.0</ele>
        <time>2013-06-30T14:51:08Z</time>
      </trkpt>
      <trkpt lat="40.125083" lon="-5.437450">
        <ele>811.0</ele>
        <time>2013-06-30T14:51:09Z</time>
      </trkpt>
      <trkpt lat="40.125033" lon="-5.437400">
        <ele>811.0</ele>
        <time>2013-06-30T14:51:10Z</time>
      </trkpt>
      <trkpt lat="40.124983" lon="-5.437400">
        <ele>811.0</ele>
        <time>2013-06-30T14:51:11Z</time>
      </trkpt>
      <trkpt lat="40.124933" lon="-5.437417">
        <ele>812.0</ele>
        <time>2013-06-30T14:51:12Z</time>
      </trkpt>
      <trkpt lat="40.124883" lon="-5.437450">
        <ele>812.0</ele>
        <time>2013-06-30T14:51:13Z</time>
      </trkpt>
      <trkpt lat="40.124833" lon="-5.437500">
        <ele>813.0</ele>
        <time>2013-06-30T14:51:14Z</time>
      </trkpt>
      <trkpt lat="40.124783" lon="-5.437550">
        <ele>813.0</ele>
        <time>2013-06-30T14:51:15Z</time>
      </trkpt>
      <trkpt lat="40.124733" lon="-5.437617">
        <ele>814.0</ele>
        <time>2013-06-30T14:51:16Z</time>
      </trkpt>
      <trkpt lat="40.124667" lon="-5.437700">
        <ele>814.0</ele>
        <time>2013-06-30T14:51:17Z</time>
      </trkpt>
      <trkpt lat="40.124617" lon="-5.437783">
        <ele>814.0</ele>
        <time>2013-06-30T14:51:18Z</time>
      </trkpt>
      <trkpt lat="40.124583" lon="-5.437867">
        <ele>814.0</ele>
        <time>2013-06-30T14:51:19Z</time>
      </trkpt>
      <trkpt lat="40.124550" lon="-5.437983">
        <ele>814.0</ele>
        <time>2013-06-30T14:51:20Z</time>
      </trkpt>
      <trkpt lat="40.124517" lon="-5.438117">
        <ele>814.0</ele>
        <time>2013-06-30T14:51:21Z</time>
      </trkpt>
      <trkpt lat="40.124500" lon="-5.438250">
        <ele>814.0</ele>
        <time>2013-06-30T14:51:22Z</time>
      </trkpt>
      <trkpt lat="40.124500" lon="-5.438383">
        <ele>815.0</ele>
        <time>2013-06-30T14:51:23Z</time>
      </trkpt>
      <trkpt lat="40.124517" lon="-5.438500">
        <ele>816.0</ele>
        <time>2013-06-30T14:51:24Z</time>
      </trkpt>
      <trkpt lat="40.124550" lon="-5.438633">
        <ele>817.0</ele>
        <time>2013-06-30T14:51:25Z</time>
      </trkpt>
      <trkpt lat="40.124583" lon="-5.438750">
        <ele>817.0</ele>
        <time>2013-06-30T14:51:26Z</time>
      </trkpt>
      <trkpt lat="40.124650" lon="-5.438850">
        <ele>817.0</ele>
        <time>2013-06-30T14:51:27Z</time>
      </trkpt>
      <trkpt lat="40.124717" lon="-5.438950">
        <ele>816.0</ele>
        <time>2013-06-30T14:51:28Z</time>
      </trkpt>
      <trkpt lat="40.124800" lon="-5.439017">
        <ele>815.0</ele>
        <time>2013-06-30T14:51:29Z</time>
      </trkpt>
      <trkpt lat="40.124900" lon="-5.439067">
        <ele>814.0</ele>
        <time>2013-06-30T14:51:30Z</time>
      </trkpt>
      <trkpt lat="40.125000" lon="-5.439083">
        <ele>813.0</ele>
        <time>2013-06-30T14:51:31Z</time>
      </trkpt>
      <trkpt lat="40.125083" lon="-5.439067">
        <ele>813.0</ele>
        <time>2013-06-30T14:51:32Z</time>
      </trkpt>
      <trkpt lat="40.125167" lon="-5.439033">
        <ele>814.0</ele>
        <time>2013-06-30T14:51:33Z</time>
      </trkpt>
      <trkpt lat="40.125233" lon="-5.439017">
        <ele>815.0</ele>
        <time>2013-06-30T14:51:34Z</time>
      </trkpt>
      <trkpt lat="40.125317" lon="-5.438983">
        <ele>815.0</ele>
        <time>2013-06-30T14:51:35Z</time>
      </trkpt>
      <trkpt lat="40.125383" lon="-5.438917">
        <ele>816.0</ele>
        <time>2013-06-30T14:51:36Z</time>
      </trkpt>
      <trkpt lat="40.125450" lon="-5.438850">
        <ele>816.0</ele>
        <time>2013-06-30T14:51:37Z</time>
      </trkpt>
      <trkpt lat="40.125500" lon="-5.438767">
        <ele>816.0</ele>
        <time>2013-06-30T14:51:38Z</time>
      </trkpt>
      <trkpt lat="40.125550" lon="-5.438683">
        <ele>817.0</ele>
        <time>2013-06-30T14:51:39Z</time>
      </trkpt>
      <trkpt lat="40.125600" lon="-5.438600">
        <ele>818.0</ele>
        <time>2013-06-30T14:51:40Z</time>
      </trkpt>
      <trkpt lat="40.125633" lon="-5.438517">
        <ele>818.0</ele>
        <time>2013-06-30T14:51:41Z</time>
      </trkpt>
      <trkpt lat="40.125650" lon="-5.438417">
        <ele>818.0</ele>
        <time>2013-06-30T14:51:42Z</time>
      </trkpt>
      <trkpt lat="40.125633" lon="-5.438333">
        <ele>819.0</ele>
        <time>2013-06-30T14:51:43Z</time>
      </trkpt>
      <trkpt lat="40.125617" lon="-5.438250">
        <ele>819.0</ele>
        <time>2013-06-30T14:51:44Z</time>
      </trkpt>
      <trkpt lat="40.125600" lon="-5.438200">
        <ele>819.0</ele>
        <time>2013-06-30T14:51:45Z</time>
      </trkpt>
      <trkpt lat="40.125533" lon="-5.438150">
        <ele>819.0</ele>
        <time>2013-06-30T14:51:46Z</time>
      </trkpt>
      <trkpt lat="40.125467" lon="-5.438100">
        <ele>819.0</ele>
        <time>2013-06-30T14:51:47Z</time>
      </trkpt>
      <trkpt lat="40.125400" lon="-5.438083">
        <ele>819.0</ele>
        <time>2013-06-30T14:51:48Z</time>
      </trkpt>
      <trkpt lat="40.125333" lon="-5.438067">
        <ele>820.0</ele>
        <time>2013-06-30T14:51:49Z</time>
      </trkpt>
      <trkpt lat="40.125283" lon="-5.438067">
        <ele>821.0</ele>
        <time>2013-06-30T14:51:50Z</time>
      </trkpt>
      <trkpt lat="40.125250" lon="-5.438067">
        <ele>823.0</ele>
        <time>2013-06-30T14:51:51Z</time>
      </trkpt>
      <trkpt lat="40.125183" lon="-5.438033">
        <ele>824.0</ele>
        <time>2013-06-30T14:51:52Z</time>
      </trkpt>
      <trkpt lat="40.125133" lon="-5.438017">
        <ele>824.0</ele>
        <time>2013-06-30T14:51:53Z</time>
      </trkpt>
      <trkpt lat="40.125050" lon="-5.437967">
        <ele>824.0</ele>
        <time>2013-06-30T14:51:54Z</time>
      </trkpt>
      <trkpt lat="40.124967" lon="-5.437950">
        <ele>825.0</ele>
        <time>2013-06-30T14:51:55Z</time>
      </trkpt>
      <trkpt lat="40.124883" lon="-5.437950">
        <ele>826.0</ele>
        <time>2013-06-30T14:51:56Z</time>
      </trkpt>
      <trkpt lat="40.124817" lon="-5.437983">
        <ele>828.0</ele>
        <time>2013-06-30T14:51:57Z</time>
      </trkpt>
      <trkpt lat="40.124750" lon="-5.438033">
        <ele>830.0</ele>
        <time>2013-06-30T14:51:58Z</time>
      </trkpt>
      <trkpt lat="40.124683" lon="-5.438100">
        <ele>831.0</ele>
        <time>2013-06-30T14:51:59Z</time>
      </trkpt>
      <trkpt lat="40.124600" lon="-5.438167">
        <ele>832.0</ele>
        <time>2013-06-30T14:52:00Z</time>
      </trkpt>
      <trkpt lat="40.124533" lon="-5.438250">
        <ele>832.0</ele>
        <time>2013-06-30T14:52:01Z</time>
      </trkpt>
      <trkpt lat="40.124483" lon="-5.438350">
        <ele>834.0</ele>
        <time>2013-06-30T14:52:02Z</time>
      </trkpt>
      <trkpt lat="40.124450" lon="-5.438467">
        <ele>835.0</ele>
        <time>2013-06-30T14:52:03Z</time>
      </trkpt>
      <trkpt lat="40.124450" lon="-5.438567">
        <ele>837.0</ele>
        <time>2013-06-30T14:52:04Z</time>
      </trkpt>
      <trkpt lat="40.124433" lon="-5.438683">
        <ele>838.0</ele>
        <time>2013-06-30T14:52:05Z</time>
      </trkpt>
      <trkpt lat="40.124417" lon="-5.438767">
        <ele>839.0</ele>
        <time>2013-06-30T14:52:06Z</time>
      </trkpt>
      <trkpt lat="40.124400" lon="-5.438867">
        <ele>840.0</ele>
        <time>2013-06-30T14:52:07Z</time>
      </trkpt>
      <trkpt lat="40.124400" lon="-5.438983">
        <ele>840.0</ele>
        <time>2013-06-30T14:52:08Z</time>
      </trkpt>
      <trkpt lat="40.124417" lon="-5.439117">
        <ele>840.0</ele>
        <time>2013-06-30T14:52:09Z</time>
      </trkpt>
      <trkpt lat="40.124467" lon="-5.439233">
        <ele>838.0</ele>
        <time>2013-06-30T14:52:10Z</time>
      </trkpt>
      <trkpt lat="40.124583" lon="-5.439417">
        <ele>839.0</ele>
        <time>2013-06-30T14:52:12Z</time>
      </trkpt>
      <trkpt lat="40.124650" lon="-5.439467">
        <ele>839.0</ele>
        <time>2013-06-30T14:52:13Z</time>
      </trkpt>
      <trkpt lat="40.124733" lon="-5.439533">
        <ele>838.0</ele>
        <time>2013-06-30T14:52:14Z</time>
      </trkpt>
      <trkpt lat="40.124833" lon="-5.439583">
        <ele>838.0</ele>
        <time>2013-06-30T14:52:15Z</time>
      </trkpt>
      <trkpt lat="40.124950" lon="-5.439600">
        <ele>839.0</ele>
        <time>2013-06-30T14:52:16Z</time>
      </trkpt>
      <trkpt lat="40.125033" lon="-5.439600">
        <ele>841.0</ele>
        <time>2013-06-30T14:52:17Z</time>
      </trkpt>
      <trkpt lat="40.125117" lon="-5.439583">
        <ele>843.0</ele>
        <time>2013-06-30T14:52:18Z</time>
      </trkpt>
      <trkpt lat="40.125200" lon="-5.439583">
        <ele>845.0</ele>
        <time>2013-06-30T14:52:19Z</time>
      </trkpt>
      <trkpt lat="40.125283" lon="-5.439567">
        <ele>847.0</ele>
        <time>2013-06-30T14:52:20Z</time>
      </trkpt>
      <trkpt lat="40.125367" lon="-5.439533">
        <ele>848.0</ele>
        <time>2013-06-30T14:52:21Z</time>
      </trkpt>
      <trkpt lat="40.125450" lon="-5.439483">
        <ele>847.0</ele>
        <time>2013-06-30T14:52:22Z</time>
      </trkpt>
      <trkpt lat="40.125550" lon="-5.439433">
        <ele>846.0</ele>
        <time>2013-06-30T14:52:23Z</time>
      </trkpt>
      <trkpt lat="40.125633" lon="-5.439350">
        <ele>845.0</ele>
        <time>2013-06-30T14:52:24Z</time>
      </trkpt>
      <trkpt lat="40.125700" lon="-5.439267">
        <ele>846.0</ele>
        <time>2013-06-30T14:52:25Z</time>
      </trkpt>
      <trkpt lat="40.125750" lon="-5.439200">
        <ele>847.0</ele>
        <time>2013-06-30T14:52:26Z</time>
      </trkpt>
      <trkpt lat="40.125783" lon="-5.439067">
        <ele>850.0</ele>
        <time>2013-06-30T14:52:28Z</time>
      </trkpt>
      <trkpt lat="40.125783" lon="-5.438983">
        <ele>851.0</ele>
        <time>2013-06-30T14:52:29Z</time>
      </trkpt>
      <trkpt lat="40.125783" lon="-5.438917">
        <ele>852.0</ele>
        <time>2013-06-30T14:52:30Z</time>
      </trkpt>
      <trkpt lat="40.125767" lon="-5.438867">
        <ele>853.0</ele>
        <time>2013-06-30T14:52:31Z</time>
      </trkpt>
      <trkpt lat="40.125733" lon="-5.438817">
        <ele>854.0</ele>
        <time>2013-06-30T14:52:32Z</time>
      </trkpt>
      <trkpt lat="40.125700" lon="-5.438783">
        <ele>856.0</ele>
        <time>2013-06-30T14:52:33Z</time>
      </trkpt>
      <trkpt lat="40.125650" lon="-5.438750">
        <ele>856.0</ele>
        <time>2013-06-30T14:52:34Z</time>
      </trkpt>
      <trkpt lat="40.125600" lon="-5.438717">
        <ele>857.0</ele>
        <time>2013-06-30T14:52:35Z</time>
      </trkpt>
      <trkpt lat="40.125533" lon="-5.438683">
        <ele>856.0</ele>
        <time>2013-06-30T14:52:36Z</time>
      </trkpt>
      <trkpt lat="40.125450" lon="-5.438650">
        <ele>857.0</ele>
        <time>2013-06-30T14:52:37Z</time>
      </trkpt>
      <trkpt lat="40.125383" lon="-5.438650">
        <ele>858.0</ele>
        <time>2013-06-30T14:52:38Z</time>
      </trkpt>
      <trkpt lat="40.125317" lon="-5.438667">
        <ele>859.0</ele>
        <time>2013-06-30T14:52:39Z</time>
      </trkpt>
      <trkpt lat="40.125250" lon="-5.438700">
        <ele>861.0</ele>
        <time>2013-06-30T14:52:40Z</time>
      </trkpt>
      <trkpt lat="40.125167" lon="-5.438733">
        <ele>861.0</ele>
        <time>2013-06-30T14:52:41Z</time>
      </trkpt>
      <trkpt lat="40.125083" lon="-5.438767">
        <ele>862.0</ele>
        <time>2013-06-30T14:52:42Z</time>
      </trkpt>
      <trkpt lat="40.125000" lon="-5.438783">
        <ele>864.0</ele>
        <time>2013-06-30T14:52:43Z</time>
      </trkpt>
      <trkpt lat="40.124933" lon="-5.438817">
        <ele>866.0</ele>
        <time>2013-06-30T14:52:44Z</time>
      </trkpt>
      <trkpt lat="40.124867" lon="-5.438867">
        <ele>868.0</ele>
        <time>2013-06-30T14:52:45Z</time>
      </trkpt>
      <trkpt lat="40.124817" lon="-5.438933">
        <ele>870.0</ele>
        <time>2013-06-30T14:52:46Z</time>
      </trkpt>
      <trkpt lat="40.124733" lon="-5.439017">
        <ele>872.0</ele>
        <time>2013-06-30T14:52:47Z</time>
      </trkpt>
      <trkpt lat="40.124667" lon="-5.439067">
        <ele>874.0</ele>
        <time>2013-06-30T14:52:48Z</time>
      </trkpt>
      <trkpt lat="40.124600" lon="-5.439133">
        <ele>875.0</ele>
        <time>2013-06-30T14:52:49Z</time>
      </trkpt>
      <trkpt lat="40.124533" lon="-5.439200">
        <ele>876.0</ele>
        <time>2013-06-30T14:52:50Z</time>
      </trkpt>
      <trkpt lat="40.124500" lon="-5.439300">
        <ele>877.0</ele>
        <time>2013-06-30T14:52:51Z</time>
      </trkpt>
      <trkpt lat="40.124483" lon="-5.439400">
        <ele>877.0</ele>
        <time>2013-06-30T14:52:52Z</time>
      </trkpt>
      <trkpt lat="40.124467" lon="-5.439517">
        <ele>878.0</ele>
        <time>2013-06-30T14:52:53Z</time>
      </trkpt>
      <trkpt lat="40.124450" lon="-5.439617">
        <ele>879.0</ele>
        <time>2013-06-30T14:52:54Z</time>
      </trkpt>
      <trkpt lat="40.124433" lon="-5.439700">
        <ele>880.0</ele>
        <time>2013-06-30T14:52:55Z</time>
      </trkpt>
      <trkpt lat="40.124417" lon="-5.439800">
        <ele>880.0</ele>
        <time>2013-06-30T14:52:56Z</time>
      </trkpt>
      <trkpt lat="40.124417" lon="-5.439917">
        <ele>880.0</ele>
        <time>2013-06-30T14:52:57Z</time>
      </trkpt>
      <trkpt lat="40.124433" lon="-5.440033">
        <ele>880.0</ele>
        <time>2013-06-30T14:52:58Z</time>
      </trkpt>
      <trkpt lat="40.124467" lon="-5.440150">
        <ele>880.0</ele>
        <time>2013-06-30T14:52:59Z</time>
      </trkpt>
      <trkpt lat="40.124517" lon="-5.440250">
        <ele>880.0</ele>
        <time>2013-06-30T14:53:00Z</time>
      </trkpt>
      <trkpt lat="40.124583" lon="-5.440333">
        <ele>880.0</ele>
        <time>2013-06-30T14:53:01Z</time>
      </trkpt>
      <trkpt lat="40.124633" lon="-5.440417">
        <ele>880.0</ele>
        <time>2013-06-30T14:53:02Z</time>
      </trkpt>
      <trkpt lat="40.124717" lon="-5.440500">
        <ele>880.0</ele>
        <time>2013-06-30T14:53:03Z</time>
      </trkpt>
      <trkpt lat="40.124783" lon="-5.440567">
        <ele>880.0</ele>
        <time>2013-06-30T14:53:04Z</time>
      </trkpt>
      <trkpt lat="40.124867" lon="-5.440617">
        <ele>881.0</ele>
        <time>2013-06-30T14:53:05Z</time>
      </trkpt>
      <trkpt lat="40.124967" lon="-5.440633">
        <ele>882.0</ele>
        <time>2013-06-30T14:53:06Z</time>
      </trkpt>
      <trkpt lat="40.125050" lon="-5.440633">
        <ele>883.0</ele>
        <time>2013-06-30T14:53:07Z</time>
      </trkpt>
      <trkpt lat="40.125150" lon="-5.440650">
        <ele>884.0</ele>
        <time>2013-06-30T14:53:08Z</time>
      </trkpt>
      <trkpt lat="40.125233" lon="-5.440650">
        <ele>885.0</ele>
        <time>2013-06-30T14:53:09Z</time>
      </trkpt>
      <trkpt lat="40.125333" lon="-5.440667">
        <ele>887.0</ele>
        <time>2013-06-30T14:53:10Z</time>
      </trkpt>
      <trkpt lat="40.125417" lon="-5.440667">
        <ele>889.0</ele>
        <time>2013-06-30T14:53:11Z</time>
      </trkpt>
      <trkpt lat="40.125517" lon="-5.440650">
        <ele>890.0</ele>
        <time>2013-06-30T14:53:12Z</time>
      </trkpt>
      <trkpt lat="40.125633" lon="-5.440617">
        <ele>890.0</ele>
        <time>2013-06-30T14:53:13Z</time>
      </trkpt>
      <trkpt lat="40.125717" lon="-5.440600">
        <ele>892.0</ele>
        <time>2013-06-30T14:53:14Z</time>
      </trkpt>
      <trkpt lat="40.125800" lon="-5.440567">
        <ele>894.0</ele>
        <time>2013-06-30T14:53:15Z</time>
      </trkpt>
      <trkpt lat="40.125850" lon="-5.440517">
        <ele>896.0</ele>
        <time>2013-06-30T14:53:16Z</time>
      </trkpt>
      <trkpt lat="40.125883" lon="-5.440450">
        <ele>897.0</ele>
        <time>2013-06-30T14:53:17Z</time>
      </trkpt>
      <trkpt lat="40.125900" lon="-5.440367">
        <ele>897.0</ele>
        <time>2013-06-30T14:53:18Z</time>
      </trkpt>
      <trkpt lat="40.125917" lon="-5.440283">
        <ele>897.0</ele>
        <time>2013-06-30T14:53:19Z</time>
      </trkpt>
      <trkpt lat="40.125917" lon="-5.440183">
        <ele>896.0</ele>
        <time>2013-06-30T14:53:20Z</time>
      </trkpt>
      <trkpt lat="40.125933" lon="-5.440100">
        <ele>896.0</ele>
        <time>2013-06-30T14:53:21Z</time>
      </trkpt>
      <trkpt lat="40.125917" lon="-5.440017">
        <ele>898.0</ele>
        <time>2013-06-30T14:53:22Z</time>
      </trkpt>
      <trkpt lat="40.125900" lon="-5.439950">
        <ele>899.0</ele>
        <time>2013-06-30T14:53:23Z</time>
      </trkpt>
      <trkpt lat="40.125867" lon="-5.439883">
        <ele>899.0</ele>
        <time>2013-06-30T14:53:24Z</time>
      </trkpt>
      <trkpt lat="40.125817" lon="-5.439833">
        <ele>898.0</ele>
        <time>2013-06-30T14:53:25Z</time>
      </trkpt>
      <trkpt lat="40.125767" lon="-5.439800">
        <ele>898.0</ele>
        <time>2013-06-30T14:53:26Z</time>
      </trkpt>
      <trkpt lat="40.125700" lon="-5.439783">
        <ele>898.0</ele>
        <time>2013-06-30T14:53:27Z</time>
      </trkpt>
      <trkpt lat="40.125650" lon="-5.439783">
        <ele>899.0</ele>
        <time>2013-06-30T14:53:28Z</time>
      </trkpt>
      <trkpt lat="40.125600" lon="-5.439800">
        <ele>901.0</ele>
        <time>2013-06-30T14:53:29Z</time>
      </trkpt>
      <trkpt lat="40.125550" lon="-5.439817">
        <ele>902.0</ele>
        <time>2013-06-30T14:53:30Z</time>
      </trkpt>
      <trkpt lat="40.125483" lon="-5.439817">
        <ele>902.0</ele>
        <time>2013-06-30T14:53:31Z</time>
      </trkpt>
      <trkpt lat="40.125417" lon="-5.439850">
        <ele>902.0</ele>
        <time>2013-06-30T14:53:32Z</time>
      </trkpt>
      <trkpt lat="40.125333" lon="-5.439900">
        <ele>901.0</ele>
        <time>2013-06-30T14:53:33Z</time>
      </trkpt>
      <trkpt lat="40.125267" lon="-5.439950">
        <ele>902.0</ele>
        <time>2013-06-30T14:53:34Z</time>
      </trkpt>
      <trkpt lat="40.125200" lon="-5.440017">
        <ele>904.0</ele>
        <time>2013-06-30T14:53:35Z</time>
      </trkpt>
      <trkpt lat="40.125150" lon="-5.440083">
        <ele>906.0</ele>
        <time>2013-06-30T14:53:36Z</time>
      </trkpt>
      <trkpt lat="40.125100" lon="-5.440133">
        <ele>907.0</ele>
        <time>2013-06-30T14:53:37Z</time>
      </trkpt>
      <trkpt lat="40.125033" lon="-5.440200">
        <ele>908.0</ele>
        <time>2013-06-30T14:53:38Z</time>
      </trkpt>
      <trkpt lat="40.124967" lon="-5.440300">
        <ele>909.0</ele>
        <time>2013-06-30T14:53:39Z</time>
      </trkpt>
      <trkpt lat="40.124917" lon="-5.440417">
        <ele>909.0</ele>
        <time>2013-06-30T14:53:40Z</time>
      </trkpt>
      <trkpt lat="40.124883" lon="-5.440533">
        <ele>911.0</ele>
        <time>2013-06-30T14:53:41Z</time>
      </trkpt>
      <trkpt lat="40.124867" lon="-5.440650">
        <ele>913.0</ele>
        <time>2013-06-30T14:53:42Z</time>
      </trkpt>
      <trkpt lat="40.124883" lon="-5.440750">
        <ele>916.0</ele>
        <time>2013-06-30T14:53:43Z</time>
      </trkpt>
      <trkpt lat="40.124917" lon="-5.440850">
        <ele>918.0</ele>
        <time>2013-06-30T14:53:44Z</time>
      </trkpt>
      <trkpt lat="40.124950" lon="-5.440967">
        <ele>919.0</ele>
        <time>2013-06-30T14:53:45Z</time>
      </trkpt>
      <trkpt lat="40.125017" lon="-5.441083">
        <ele>920.0</ele>
        <time>2013-06-30T14:53:46Z</time>
      </trkpt>
      <trkpt lat="40.125067" lon="-5.441183">
        <ele>921.0</ele>
        <time>2013-06-30T14:53:47Z</time>
      </trkpt>
      <trkpt lat="40.125150" lon="-5.441267">
        <ele>922.0</ele>
        <time>2013-06-30T14:53:48Z</time>
      </trkpt>
      <trkpt lat="40.125250" lon="-5.441333">
        <ele>923.0</ele>
        <time>2013-06-30T14:53:49Z</time>
      </trkpt>
      <trkpt lat="40.125350" lon="-5.441383">
        <ele>924.0</ele>
        <time>2013-06-30T14:53:50Z</time>
      </trkpt>
      <trkpt lat="40.125433" lon="-5.441400">
        <ele>924.0</ele>
        <time>2013-06-30T14:53:51Z</time>
      </trkpt>
      <trkpt lat="40.125533" lon="-5.441400">
        <ele>925.0</ele>
        <time>2013-06-30T14:53:52Z</time>
      </trkpt>
      <trkpt lat="40.125617" lon="-5.441383">
        <ele>926.0</ele>
        <time>2013-06-30T14:53:53Z</time>
      </trkpt>
      <trkpt lat="40.125700" lon="-5.441333">
        <ele>926.0</ele>
        <time>2013-06-30T14:53:54Z</time>
      </trkpt>
      <trkpt lat="40.125767" lon="-5.441283">
        <ele>927.0</ele>
        <time>2013-06-30T14:53:55Z</time>
      </trkpt>
      <trkpt lat="40.125817" lon="-5.441217">
        <ele>928.0</ele>
        <time>2013-06-30T14:53:56Z</time>
      </trkpt>
      <trkpt lat="40.125850" lon="-5.441133">
        <ele>929.0</ele>
        <time>2013-06-30T14:53:57Z</time>
      </trkpt>
      <trkpt lat="40.125883" lon="-5.440983">
        <ele>931.0</ele>
        <time>2013-06-30T14:53:59Z</time>
      </trkpt>
      <trkpt lat="40.125900" lon="-5.440900">
        <ele>933.0</ele>
        <time>2013-06-30T14:54:00Z</time>
      </trkpt>
      <trkpt lat="40.125883" lon="-5.440817">
        <ele>934.0</ele>
        <time>2013-06-30T14:54:01Z</time>
      </trkpt>
      <trkpt lat="40.125883" lon="-5.440733">
        <ele>935.0</ele>
        <time>2013-06-30T14:54:02Z</time>
      </trkpt>
      <trkpt lat="40.125850" lon="-5.440667">
        <ele>936.0</ele>
        <time>2013-06-30T14:54:03Z</time>
      </trkpt>
      <trkpt lat="40.125817" lon="-5.440600">
        <ele>937.0</ele>
        <time>2013-06-30T14:54:04Z</time>
      </trkpt>
      <trkpt lat="40.125750" lon="-5.440567">
        <ele>937.0</ele>
        <time>2013-06-30T14:54:05Z</time>
      </trkpt>
      <trkpt lat="40.125683" lon="-5.440517">
        <ele>937.0</ele>
        <time>2013-06-30T14:54:06Z</time>
      </trkpt>
      <trkpt lat="40.125617" lon="-5.440500">
        <ele>937.0</ele>
        <time>2013-06-30T14:54:07Z</time>
      </trkpt>
      <trkpt lat="40.125550" lon="-5.440500">
        <ele>938.0</ele>
        <time>2013-06-30T14:54:08Z</time>
      </trkpt>
      <trkpt lat="40.125500" lon="-5.440483">
        <ele>939.0</ele>
        <time>2013-06-30T14:54:09Z</time>
      </trkpt>
      <trkpt lat="40.125417" lon="-5.440500">
        <ele>939.0</ele>
        <time>2013-06-30T14:54:10Z</time>
      </trkpt>
      <trkpt lat="40.125333" lon="-5.440500">
        <ele>940.0</ele>
        <time>2013-06-30T14:54:11Z</time>
      </trkpt>
      <trkpt lat="40.125267" lon="-5.440517">
        <ele>941.0</ele>
        <time>2013-06-30T14:54:12Z</time>
      </trkpt>
      <trkpt lat="40.125183" lon="-5.440567">
        <ele>942.0</ele>
        <time>2013-06-30T14:54:13Z</time>
      </trkpt>
      <trkpt lat="40.125117" lon="-5.440633">
        <ele>943.0</ele>
        <time>2013-06-30T14:54:14Z</time>
      </trkpt>
      <trkpt lat="40.125033" lon="-5.440700">
        <ele>943.0</ele>
        <time>2013-06-30T14:54:15Z</time>
      </trkpt>
      <trkpt lat="40.124967" lon="-5.440783">
        <ele>944.0</ele>
        <time>2013-06-30T14:54:16Z</time>
      </trkpt>
      <trkpt lat="40.124900" lon="-5.440867">
        <ele>945.0</ele>
        <time>2013-06-30T14:54:17Z</time>
      </trkpt>
      <trkpt lat="40.124850" lon="-5.440967">
        <ele>947.0</ele>
        <time>2013-06-30T14:54:18Z</time>
      </trkpt>
      <trkpt lat="40.124800" lon="-5.441067">
        <ele>949.0</ele>
        <time>2013-06-30T14:54:19Z</time>
      </trkpt>
      <trkpt lat="40.124733" lon="-5.441150">
        <ele>951.0</ele>
        <time>2013-06-30T14:54:20Z</time>
      </trkpt>
      <trkpt lat="40.124667" lon="-5.441217">
        <ele>953.0</ele>
        <time>2013-06-30T14:54:21Z</time>
      </trkpt>
      <trkpt lat="40.124600" lon="-5.441317">
        <ele>953.0</ele>
        <time>2013-06-30T14:54:22Z</time>
      </trkpt>
      <trkpt lat="40.124550" lon="-5.441417">
        <ele>955.0</ele>
        <time>2013-06-30T14:54:23Z</time>
      </trkpt>
      <trkpt lat="40.124500" lon="-5.441533">
        <ele>958.0</ele>
        <time>2013-06-30T14:54:24Z</time>
      </trkpt>
      <trkpt lat="40.124500" lon="-5.441650">
        <ele>961.0</ele>
        <time>2013-06-30T14:54:25Z</time>
      </trkpt>
      <trkpt lat="40.124517" lon="-5.441767">
        <ele>964.0</ele>
        <time>2013-06-30T14:54:26Z</time>
      </trkpt>
      <trkpt lat="40.124533" lon="-5.441867">
        <ele>965.0</ele>
        <time>2013-06-30T14:54:27Z</time>
      </trkpt>
      <trkpt lat="40.124567" lon="-5.442000">
        <ele>967.0</ele>
        <time>2013-06-30T14:54:28Z</time>
      </trkpt>
      <trkpt lat="40.124617" lon="-5.442117">
        <ele>969.0</ele>
        <time>2013-06-30T14:54:29Z</time>
      </trkpt>
      <trkpt lat="40.124667" lon="-5.442250">
        <ele>970.0</ele>
        <time>2013-06-30T14:54:30Z</time>
      </trkpt>
      <trkpt lat="40.124733" lon="-5.442350">
        <ele>972.0</ele>
        <time>2013-06-30T14:54:31Z</time>
      </trkpt>
      <trkpt lat="40.124817" lon="-5.442433">
        <ele>973.0</ele>
        <time>2013-06-30T14:54:32Z</time>
      </trkpt>
      <trkpt lat="40.124917" lon="-5.442483">
        <ele>973.0</ele>
        <time>2013-06-30T14:54:33Z</time>
      </trkpt>
      <trkpt lat="40.125017" lon="-5.442517">
        <ele>973.0</ele>
        <time>2013-06-30T14:54:34Z</time>
      </trkpt>
      <trkpt lat="40.125100" lon="-5.442533">
        <ele>973.0</ele>
        <time>2013-06-30T14:54:35Z</time>
      </trkpt>
      <trkpt lat="40.125200" lon="-5.442533">
        <ele>974.0</ele>
        <time>2013-06-30T14:54:36Z</time>
      </trkpt>
      <trkpt lat="40.125283" lon="-5.442517">
        <ele>974.0</ele>
        <time>2013-06-30T14:54:37Z</time>
      </trkpt>
      <trkpt lat="40.125350" lon="-5.442500">
        <ele>975.0</ele>
        <time>2013-06-30T14:54:38Z</time>
      </trkpt>
      <trkpt lat="40.125433" lon="-5.442467">
        <ele>975.0</ele>
        <time>2013-06-30T14:54:39Z</time>
      </trkpt>
      <trkpt lat="40.125500" lon="-5.442417">
        <ele>975.0</ele>
        <time>2013-06-30T14:54:40Z</time>
      </trkpt>
      <trkpt lat="40.125600" lon="-5.442250">
        <ele>974.0</ele>
        <time>2013-06-30T14:54:42Z</time>
      </trkpt>
      <trkpt lat="40.125633" lon="-5.442150">
        <ele>975.0</ele>
        <time>2013-06-30T14:54:43Z</time>
      </trkpt>
      <trkpt lat="40.125650" lon="-5.442067">
        <ele>976.0</ele>
        <time>2013-06-30T14:54:44Z</time>
      </trkpt>
      <trkpt lat="40.125650" lon="-5.441983">
        <ele>978.0</ele>
        <time>2013-06-30T14:54:45Z</time>
      </trkpt>
      <trkpt lat="40.125667" lon="-5.441900">
        <ele>980.0</ele>
        <time>2013-06-30T14:54:46Z</time>
      </trkpt>
      <trkpt lat="40.125667" lon="-5.441817">
        <ele>981.0</ele>
        <time>2013-06-30T14:54:47Z</time>
      </trkpt>
      <trkpt lat="40.125667" lon="-5.441733">
        <ele>983.0</ele>
        <time>2013-06-30T14:54:48Z</time>
      </trkpt>
      <trkpt lat="40.125683" lon="-5.441650">
        <ele>985.0</ele>
        <time>2013-06-30T14:54:49Z</time>
      </trkpt>
      <trkpt lat="40.125683" lon="-5.441583">
        <ele>987.0</ele>
        <time>2013-06-30T14:54:50Z</time>
      </trkpt>
      <trkpt lat="40.125683" lon="-5.441500">
        <ele>988.0</ele>
        <time>2013-06-30T14:54:51Z</time>
      </trkpt>
      <trkpt lat="40.125667" lon="-5.441433">
        <ele>989.0</ele>
        <time>2013-06-30T14:54:52Z</time>
      </trkpt>
      <trkpt lat="40.125633" lon="-5.441350">
        <ele>991.0</ele>
        <time>2013-06-30T14:54:53Z</time>
      </trkpt>
      <trkpt lat="40.125583" lon="-5.441283">
        <ele>991.0</ele>
        <time>2013-06-30T14:54:54Z</time>
      </trkpt>
      <trkpt lat="40.125533" lon="-5.441250">
        <ele>993.0</ele>
        <time>2013-06-30T14:54:55Z</time>
      </trkpt>
      <trkpt lat="40.125483" lon="-5.441217">
        <ele>994.0</ele>
        <time>2013-06-30T14:54:56Z</time>
      </trkpt>
      <trkpt lat="40.125433" lon="-5.441217">
        <ele>995.0</ele>
        <time>2013-06-30T14:54:57Z</time>
      </trkpt>
      <trkpt lat="40.125350" lon="-5.441200">
        <ele>996.0</ele>
        <time>2013-06-30T14:54:58Z</time>
      </trkpt>
      <trkpt lat="40.125283" lon="-5.441200">
        <ele>996.0</ele>
        <time>2013-06-30T14:54:59Z</time>
      </trkpt>
      <trkpt lat="40.125200" lon="-5.441233">
        <ele>997.0</ele>
        <time>2013-06-30T14:55:00Z</time>
      </trkpt>
      <trkpt lat="40.125117" lon="-5.441267">
        <ele>998.0</ele>
        <time>2013-06-30T14:55:01Z</time>
      </trkpt>
      <trkpt lat="40.125050" lon="-5.441333">
        <ele>999.0</ele>
        <time>2013-06-30T14:55:02Z</time>
      </trkpt>
      <trkpt lat="40.124983" lon="-5.441400">
        <ele>1000.0</ele>
        <time>2013-06-30T14:55:03Z</time>
      </trkpt>
      <trkpt lat="40.124917" lon="-5.441483">
        <ele>1001.0</ele>
        <time>2013-06-30T14:55:04Z</time>
      </trkpt>
      <trkpt lat="40.124850" lon="-5.441567">
        <ele>1002.0</ele>
        <time>2013-06-30T14:55:05Z</time>
      </trkpt>
      <trkpt lat="40.124817" lon="-5.441667">
        <ele>1004.0</ele>
        <time>2013-06-30T14:55:06Z</time>
      </trkpt>
      <trkpt lat="40.124767" lon="-5.441750">
        <ele>1006.0</ele>
        <time>2013-06-30T14:55:07Z</time>
      </trkpt>
      <trkpt lat="40.124733" lon="-5.441817">
        <ele>1008.0</ele>
        <time>2013-06-30T14:55:08Z</time>
      </trkpt>
      <trkpt lat="40.124683" lon="-5.441900">
        <ele>1010.0</ele>
        <time>2013-06-30T14:55:09Z</time>
      </trkpt>
      <trkpt lat="40.124650" lon="-5.442000">
        <ele>1011.0</ele>
        <time>2013-06-30T14:55:10Z</time>
      </trkpt>
      <trkpt lat="40.124600" lon="-5.442133">
        <ele>1012.0</ele>
        <time>2013-06-30T14:55:11Z</time>
      </trkpt>
      <trkpt lat="40.124583" lon="-5.442267">
        <ele>1013.0</ele>
        <time>2013-06-30T14:55:12Z</time>
      </trkpt>
      <trkpt lat="40.124567" lon="-5.442383">
        <ele>1016.0</ele>
        <time>2013-06-30T14:55:13Z</time>
      </trkpt>
      <trkpt lat="40.124600" lon="-5.442500">
        <ele>1019.0</ele>
        <time>2013-06-30T14:55:14Z</time>
      </trkpt>
      <trkpt lat="40.124667" lon="-5.442583">
        <ele>1020.0</ele>
        <time>2013-06-30T14:55:15Z</time>
      </trkpt>
      <trkpt lat="40.124717" lon="-5.442667">
        <ele>1022.0</ele>
        <time>2013-06-30T14:55:16Z</time>
      </trkpt>
      <trkpt lat="40.124783" lon="-5.442750">
        <ele>1023.0</ele>
        <time>2013-06-30T14:55:17Z</time>
      </trkpt>
      <trkpt lat="40.124833" lon="-5.442833">
        <ele>1024.0</ele>
        <time>2013-06-30T14:55:18Z</time>
      </trkpt>
      <trkpt lat="40.124917" lon="-5.442900">
        <ele>1025.0</ele>
        <time>2013-06-30T14:55:19Z</time>
      </trkpt>
      <trkpt lat="40.124983" lon="-5.442950">
        <ele>1025.0</ele>
        <time>2013-06-30T14:55:20Z</time>
      </trkpt>
      <trkpt lat="40.125083" lon="-5.442983">
        <ele>1026.0</ele>
        <time>2013-06-30T14:55:21Z</time>
      </trkpt>
      <trkpt lat="40.125183" lon="-5.442983">
        <ele>1025.0</ele>
        <time>2013-06-30T14:55:22Z</time>
      </trkpt>
      <trkpt lat="40.125267" lon="-5.442967">
        <ele>1025.0</ele>
        <time>2013-06-30T14:55:23Z</time>
      </trkpt>
      <trkpt lat="40.125350" lon="-5.442917">
        <ele>1026.0</ele>
        <time>2013-06-30T14:55:24Z</time>
      </trkpt>
      <trkpt lat="40.125417" lon="-5.442867">
        <ele>1027.0</ele>
        <time>2013-06-30T14:55:25Z</time>
      </trkpt>
      <trkpt lat="40.125483" lon="-5.442817">
        <ele>1028.0</ele>
        <time>2013-06-30T14:55:26Z</time>
      </trkpt>
      <trkpt lat="40.125550" lon="-5.442750">
        <ele>1028.0</ele>
        <time>2013-06-30T14:55:27Z</time>
      </trkpt>
      <trkpt lat="40.125617" lon="-5.442667">
        <ele>1029.0</ele>
        <time>2013-06-30T14:55:28Z</time>
      </trkpt>
      <trkpt lat="40.125667" lon="-5.442583">
        <ele>1030.0</ele>
        <time>2013-06-30T14:55:29Z</time>
      </trkpt>
      <trkpt lat="40.125700" lon="-5.442517">
        <ele>1032.0</ele>
        <time>2013-06-30T14:55:30Z</time>
      </trkpt>
      <trkpt lat="40.125733" lon="-5.442450">
        <ele>1033.0</ele>
        <time>2013-06-30T14:55:31Z</time>
      </trkpt>
      <trkpt lat="40.125750" lon="-5.442367">
        <ele>1035.0</ele>
        <time>2013-06-30T14:55:32Z</time>
      </trkpt>
      <trkpt lat="40.125750" lon="-5.442283">
        <ele>1037.0</ele>
        <time>2013-06-30T14:55:33Z</time>
      </trkpt>
      <trkpt lat="40.125733" lon="-5.442217">
        <ele>1038.0</ele>
        <time>2013-06-30T14:55:34Z</time>
      </trkpt>
      <trkpt lat="40.125733" lon="-5.442133">
        <ele>1039.0</ele>
        <time>2013-06-30T14:55:35Z</time>
      </trkpt>
      <trkpt lat="40.125717" lon="-5.442067">
        <ele>1041.0</ele>
        <time>2013-06-30T14:55:36Z</time>
      </trkpt>
      <trkpt lat="40.125700" lon="-5.442000">
        <ele>1042.0</ele>
        <time>2013-06-30T14:55:37Z</time>
      </trkpt>
      <trkpt lat="40.125667" lon="-5.441933">
        <ele>1042.0</ele>
        <time>2013-06-30T14:55:38Z</time>
      </trkpt>
      <trkpt lat="40.125617" lon="-5.441867">
        <ele>1043.0</ele>
        <time>2013-06-30T14:55:39Z</time>
      </trkpt>
      <trkpt lat="40.125583" lon="-5.441833">
        <ele>1044.0</ele>
        <time>2013-06-30T14:55:40Z</time>
      </trkpt>
      <trkpt lat="40.125483" lon="-5.441800">
        <ele>1046.0</ele>
        <time>2013-06-30T14:55:42Z</time>
      </trkpt>
      <trkpt lat="40.125433" lon="-5.441800">
        <ele>1047.0</ele>
        <time>2013-06-30T14:55:43Z</time>
      </trkpt>
      <trkpt lat="40.125367" lon="-5.441800">
        <ele>1048.0</ele>
        <time>2013-06-30T14:55:44Z</time>
      </trkpt>
      <trkpt lat="40.125317" lon="-5.441817">
        <ele>1049.0</ele>
        <time>2013-06-30T14:55:45Z</time>
      </trkpt>
      <trkpt lat="40.125250" lon="-5.441850">
        <ele>1049.0</ele>
        <time>2013-06-30T14:55:46Z</time>
      </trkpt>
      <trkpt lat="40.125183" lon="-5.441867">
        <ele>1048.0</ele>
        <time>2013-06-30T14:55:47Z</time>
      </trkpt>
      <trkpt lat="40.125100" lon="-5.441917">
        <ele>1048.0</ele>
        <time>2013-06-30T14:55:48Z</time>
      </trkpt>
      <trkpt lat="40.125017" lon="-5.441950">
        <ele>1048.0</ele>
        <time>2013-06-30T14:55:49Z</time>
      </trkpt>
      <trkpt lat="40.124933" lon="-5.442000">
        <ele>1048.0</ele>
        <time>2013-06-30T14:55:50Z</time>
      </trkpt>
      <trkpt lat="40.124850" lon="-5.442067">
        <ele>1048.0</ele>
        <time>2013-06-30T14:55:51Z</time>
      </trkpt>
      <trkpt lat="40.124783" lon="-5.442117">
        <ele>1049.0</ele>
        <time>2013-06-30T14:55:52Z</time>
      </trkpt>
      <trkpt lat="40.124700" lon="-5.442183">
        <ele>1050.0</ele>
        <time>2013-06-30T14:55:53Z</time>
      </trkpt>
      <trkpt lat="40.124650" lon="-5.442283">
        <ele>1050.0</ele>
        <time>2013-06-30T14:55:54Z</time>
      </trkpt>
      <trkpt lat="40.124600" lon="-5.442383">
        <ele>1052.0</ele>
        <time>2013-06-30T14:55:55Z</time>
      </trkpt>
      <trkpt lat="40.124567" lon="-5.442483">
        <ele>1052.0</ele>
        <time>2013-06-30T14:55:56Z</time>
      </trkpt>
      <trkpt lat="40.124533" lon="-5.442617">
        <ele>1052.0</ele>
        <time>2013-06-30T14:55:57Z</time>
      </trkpt>
      <trkpt lat="40.124533" lon="-5.442750">
        <ele>1053.0</ele>
        <time>2013-06-30T14:55:58Z</time>
      </trkpt>
      <trkpt lat="40.124533" lon="-5.442883">
        <ele>1054.0</ele>
        <time>2013-06-30T14:55:59Z</time>
      </trkpt>
      <trkpt lat="40.124550" lon="-5.443017">
        <ele>1055.0</ele>
        <time>2013-06-30T14:56:00Z</time>
      </trkpt>
      <trkpt lat="40.124567" lon="-5.443150">
        <ele>1057.0</ele>
        <time>2013-06-30T14:56:01Z</time>
      </trkpt>
      <trkpt lat="40.124600" lon="-5.443250">
        <ele>1059.0</ele>
        <time>2013-06-30T14:56:02Z</time>
      </trkpt>
      <trkpt lat="40.124867" lon="-5.443600">
        <ele>1064.0</ele>
        <time>2013-06-30T14:56:06Z</time>
      </trkpt>
      <trkpt lat="40.124950" lon="-5.443650">
        <ele>1066.0</ele>
        <time>2013-06-30T14:56:07Z</time>
      </trkpt>
      <trkpt lat="40.125033" lon="-5.443667">
        <ele>1067.0</ele>
        <time>2013-06-30T14:56:08Z</time>
      </trkpt>
      <trkpt lat="40.125100" lon="-5.443700">
        <ele>1069.0</ele>
        <time>2013-06-30T14:56:09Z</time>
      </trkpt>
      <trkpt lat="40.125183" lon="-5.443700">
        <ele>1070.0</ele>
        <time>2013-06-30T14:56:10Z</time>
      </trkpt>
      <trkpt lat="40.125267" lon="-5.443700">
        <ele>1071.0</ele>
        <time>2013-06-30T14:56:11Z</time>
      </trkpt>
      <trkpt lat="40.125367" lon="-5.443683">
        <ele>1072.0</ele>
        <time>2013-06-30T14:56:12Z</time>
      </trkpt>
      <trkpt lat="40.125450" lon="-5.443650">
        <ele>1073.0</ele>
        <time>2013-06-30T14:56:13Z</time>
      </trkpt>
      <trkpt lat="40.125517" lon="-5.443600">
        <ele>1075.0</ele>
        <time>2013-06-30T14:56:14Z</time>
      </trkpt>
      <trkpt lat="40.125583" lon="-5.443550">
        <ele>1077.0</ele>
        <time>2013-06-30T14:56:15Z</time>
      </trkpt>
      <trkpt lat="40.125633" lon="-5.443483">
        <ele>1079.0</ele>
        <time>2013-06-30T14:56:16Z</time>
      </trkpt>
      <trkpt lat="40.125700" lon="-5.443417">
        <ele>1080.0</ele>
        <time>2013-06-30T14:56:17Z</time>
      </trkpt>
      <trkpt lat="40.125750" lon="-5.443333">
        <ele>1081.0</ele>
        <time>2013-06-30T14:56:18Z</time>
      </trkpt>
      <trkpt lat="40.125783" lon="-5.443267">
        <ele>1082.0</ele>
        <time>2013-06-30T14:56:19Z</time>
      </trkpt>
      <trkpt lat="40.125800" lon="-5.443200">
        <ele>1082.0</ele>
        <time>2013-06-30T14:56:20Z</time>
      </trkpt>
      <trkpt lat="40.125817" lon="-5.443117">
        <ele>1083.0</ele>
        <time>2013-06-30T14:56:21Z</time>
      </trkpt>
      <trkpt lat="40.125833" lon="-5.443033">
        <ele>1082.0</ele>
        <time>2013-06-30T14:56:22Z</time>
      </trkpt>
      <trkpt lat="40.125833" lon="-5.442950">
        <ele>1082.0</ele>
        <time>2013-06-30T14:56:23Z</time>
      </trkpt>
      <trkpt lat="40.125817" lon="-5.442867">
        <ele>1082.0</ele>
        <time>2013-06-30T14:56:24Z</time>
      </trkpt>
      <trkpt lat="40.125783" lon="-5.442800">
        <ele>1082.0</ele>
        <time>2013-06-30T14:56:25Z</time>
      </trkpt>
      <trkpt lat="40.125733" lon="-5.442767">
        <ele>1082.0</ele>
        <time>2013-06-30T14:56:26Z</time>
      </trkpt>
      <trkpt lat="40.125683" lon="-5.442717">
        <ele>1082.0</ele>
        <time>2013-06-30T14:56:27Z</time>
      </trkpt>
      <trkpt lat="40.125633" lon="-5.442667">
        <ele>1081.0</ele>
        <time>2013-06-30T14:56:28Z</time>
      </trkpt>
      <trkpt lat="40.125583" lon="-5.442633">
        <ele>1080.0</ele>
        <time>2013-06-30T14:56:29Z</time>
      </trkpt>
      <trkpt lat="40.125533" lon="-5.442600">
        <ele>1079.0</ele>
        <time>2013-06-30T14:56:30Z</time>
      </trkpt>
      <trkpt lat="40.125467" lon="-5.442583">
        <ele>1078.0</ele>
        <time>2013-06-30T14:56:31Z</time>
      </trkpt>
      <trkpt lat="40.125383" lon="-5.442583">
        <ele>1077.0</ele>
        <time>2013-06-30T14:56:32Z</time>
      </trkpt>
      <trkpt lat="40.125300" lon="-5.442600">
        <ele>1075.0</ele>
        <time>2013-06-30T14:56:33Z</time>
      </trkpt>
      <trkpt lat="40.125217" lon="-5.442617">
        <ele>1074.0</ele>
        <time>2013-06-30T14:56:34Z</time>
      </trkpt>
      <trkpt lat="40.125150" lon="-5.442667">
        <ele>1074.0</ele>
        <time>2013-06-30T14:56:35Z</time>
      </trkpt>
      <trkpt lat="40.125083" lon="-5.442700">
        <ele>1075.0</ele>
        <time>2013-06-30T14:56:36Z</time>
      </trkpt>
      <trkpt lat="40.125017" lon="-5.442750">
        <ele>1075.0</ele>
        <time>2013-06-30T14:56:37Z</time>
      </trkpt>
      <trkpt lat="40.124967" lon="-5.442783">
        <ele>1076.0</ele>
        <time>2013-06-30T14:56:38Z</time>
      </trkpt>
      <trkpt lat="40.124883" lon="-5.442850">
        <ele>1076.0</ele>
        <time>2013-06-30T14:56:39Z</time>
      </trkpt>
      <trkpt lat="40.124817" lon="-5.442917">
        <ele>1075.0</ele>
        <time>2013-06-30T14:56:40Z</time>
      </trkpt>
      <trkpt lat="40.124750" lon="-5.443000">
        <ele>1076.0</ele>
        <time>2013-06-30T14:56:41Z</time>
      </trkpt>
      <trkpt lat="40.124683" lon="-5.443100">
        <ele>1077.0</ele>
        <time>2013-06-30T14:56:42Z</time>
      </trkpt>
      <trkpt lat="40.124633" lon="-5.443200">
        <ele>1078.0</ele>
        <time>2013-06-30T14:56:43Z</time>
      </trkpt>
      <trkpt lat="40.124600" lon="-5.443283">
        <ele>1080.0</ele>
        <time>2013-06-30T14:56:44Z</time>
      </trkpt>
      <trkpt lat="40.124550" lon="-5.443383">
        <ele>1081.0</ele>
        <time>2013-06-30T14:56:45Z</time>
      </trkpt>
      <trkpt lat="40.124517" lon="-5.443500">
        <ele>1081.0</ele>
        <time>2013-06-30T14:56:46Z</time>
      </trkpt>
      <trkpt lat="40.124500" lon="-5.443633">
        <ele>1080.0</ele>
        <time>2013-06-30T14:56:47Z</time>
      </trkpt>
      <trkpt lat="40.124483" lon="-5.443767">
        <ele>1080.0</ele>
        <time>2013-06-30T14:56:48Z</time>
      </trkpt>
      <trkpt lat="40.124500" lon="-5.443883">
        <ele>1082.0</ele>
        <time>2013-06-30T14:56:49Z</time>
      </trkpt>
      <trkpt lat="40.124533" lon="-5.443983">
        <ele>1082.0</ele>
        <time>2013-06-30T14:56:50Z</time>
      </trkpt>
      <trkpt lat="40.124583" lon="-5.444083">
        <ele>1083.0</ele>
        <time>2013-06-30T14:56:51Z</time>
      </trkpt>
      <trkpt lat="40.124650" lon="-5.444183">
        <ele>1083.0</ele>
        <time>2013-06-30T14:56:52Z</time>
      </trkpt>
      <trkpt lat="40.124700" lon="-5.444283">
        <ele>1084.0</ele>
        <time>2013-06-30T14:56:53Z</time>
      </trkpt>
      <trkpt lat="40.124717" lon="-5.444400">
        <ele>1085.0</ele>
        <time>2013-06-30T14:56:54Z</time>
      </trkpt>
      <trkpt lat="40.124750" lon="-5.444500">
        <ele>1086.0</ele>
        <time>2013-06-30T14:56:55Z</time>
      </trkpt>
      <trkpt lat="40.124850" lon="-5.444683">
        <ele>1087.0</ele>
        <time>2013-06-30T14:56:57Z</time>
      </trkpt>
      <trkpt lat="40.124933" lon="-5.444733">
        <ele>1087.0</ele>
        <time>2013-06-30T14:56:58Z</time>
      </trkpt>
      <trkpt lat="40.125083" lon="-5.444700">
        <ele>1087.0</ele>
        <time>2013-06-30T14:57:00Z</time>
      </trkpt>
      <trkpt lat="40.125133" lon="-5.444633">
        <ele>1089.0</ele>
        <time>2013-06-30T14:57:01Z</time>
      </trkpt>
      <trkpt lat="40.125150" lon="-5.444567">
        <ele>1090.0</ele>
        <time>2013-06-30T14:57:02Z</time>
      </trkpt>
      <trkpt lat="40.125167" lon="-5.444500">
        <ele>1091.0</ele>
        <time>2013-06-30T14:57:03Z</time>
      </trkpt>
      <trkpt lat="40.125183" lon="-5.444433">
        <ele>1091.0</ele>
        <time>2013-06-30T14:57:04Z</time>
      </trkpt>
      <trkpt lat="40.125183" lon="-5.444367">
        <ele>1091.0</ele>
        <time>2013-06-30T14:57:05Z</time>
      </trkpt>
      <trkpt lat="40.125183" lon="-5.444267">
        <ele>1090.0</ele>
        <time>2013-06-30T14:57:06Z</time>
      </trkpt>
      <trkpt lat="40.125183" lon="-5.444167">
        <ele>1089.0</ele>
        <time>2013-06-30T14:57:07Z</time>
      </trkpt>
      <trkpt lat="40.125167" lon="-5.444083">
        <ele>1089.0</ele>
        <time>2013-06-30T14:57:08Z</time>
      </trkpt>
      <trkpt lat="40.125133" lon="-5.444033">
        <ele>1090.0</ele>
        <time>2013-06-30T14:57:09Z</time>
      </trkpt>
      <trkpt lat="40.125100" lon="-5.444000">
        <ele>1091.0</ele>
        <time>2013-06-30T14:57:10Z</time>
      </trkpt>
      <trkpt lat="40.125033" lon="-5.443983">
        <ele>1092.0</ele>
        <time>2013-06-30T14:57:11Z</time>
      </trkpt>
      <trkpt lat="40.124967" lon="-5.443967">
        <ele>1093.0</ele>
        <time>2013-06-30T14:57:12Z</time>
      </trkpt>
      <trkpt lat="40.124900" lon="-5.443950">
        <ele>1093.0</ele>
        <time>2013-06-30T14:57:13Z</time>
      </trkpt>
      <trkpt lat="40.124817" lon="-5.443967">
        <ele>1094.0</ele>
        <time>2013-06-30T14:57:14Z</time>
      </trkpt>
      <trkpt lat="40.124750" lon="-5.444000">
        <ele>1096.0</ele>
        <time>2013-06-30T14:57:15Z</time>
      </trkpt>
      <trkpt lat="40.124683" lon="-5.444033">
        <ele>1096.0</ele>
        <time>2013-06-30T14:57:16Z</time>
      </trkpt>
      <trkpt lat="40.124617" lon="-5.444083">
        <ele>1097.0</ele>
        <time>2013-06-30T14:57:17Z</time>
      </trkpt>
      <trkpt lat="40.124550" lon="-5.444133">
        <ele>1097.0</ele>
        <time>2013-06-30T14:57:18Z</time>
      </trkpt>
      <trkpt lat="40.124483" lon="-5.444200">
        <ele>1098.0</ele>
        <time>2013-06-30T14:57:19Z</time>
      </trkpt>
      <trkpt lat="40.124417" lon="-5.444283">
        <ele>1098.0</ele>
        <time>2013-06-30T14:57:20Z</time>
      </trkpt>
      <trkpt lat="40.124350" lon="-5.444367">
        <ele>1098.0</ele>
        <time>2013-06-30T14:57:21Z</time>
      </trkpt>
      <trkpt lat="40.124300" lon="-5.444467">
        <ele>1098.0</ele>
        <time>2013-06-30T14:57:22Z</time>
      </trkpt>
      <trkpt lat="40.124267" lon="-5.444550">
        <ele>1099.0</ele>
        <time>2013-06-30T14:57:23Z</time>
      </trkpt>
      <trkpt lat="40.124250" lon="-5.444650">
        <ele>1099.0</ele>
        <time>2013-06-30T14:57:24Z</time>
      </trkpt>
      <trkpt lat="40.124233" lon="-5.444783">
        <ele>1099.0</ele>
        <time>2013-06-30T14:57:25Z</time>
      </trkpt>
      <trkpt lat="40.124233" lon="-5.444917">
        <ele>1099.0</ele>
        <time>2013-06-30T14:57:26Z</time>
      </trkpt>
      <trkpt lat="40.124267" lon="-5.445033">
        <ele>1099.0</ele>
        <time>2013-06-30T14:57:27Z</time>
      </trkpt>
      <trkpt lat="40.124317" lon="-5.445133">
        <ele>1101.0</ele>
        <time>2013-06-30T14:57:28Z</time>
      </trkpt>
      <trkpt lat="40.124367" lon="-5.445217">
        <ele>1102.0</ele>
        <time>2013-06-30T14:57:29Z</time>
      </trkpt>
      <trkpt lat="40.124417" lon="-5.445283">
        <ele>1102.0</ele>
        <time>2013-06-30T14:57:30Z</time>
      </trkpt>
      <trkpt lat="40.124500" lon="-5.445350">
        <ele>1101.0</ele>
        <time>2013-06-30T14:57:31Z</time>
      </trkpt>
      <trkpt lat="40.124567" lon="-5.445417">
        <ele>1102.0</ele>
        <time>2013-06-30T14:57:32Z</time>
      </trkpt>
      <trkpt lat="40.124633" lon="-5.445450">
        <ele>1103.0</ele>
        <time>2013-06-30T14:57:33Z</time>
      </trkpt>
      <trkpt lat="40.124700" lon="-5.445450">
        <ele>1104.0</ele>
        <time>2013-06-30T14:57:34Z</time>
      </trkpt>
      <trkpt lat="40.124767" lon="-5.445417">
        <ele>1105.0</ele>
        <time>2013-06-30T14:57:35Z</time>
      </trkpt>
      <trkpt lat="40.124833" lon="-5.445383">
        <ele>1106.0</ele>
        <time>2013-06-30T14:57:36Z</time>
      </trkpt>
      <trkpt lat="40.124883" lon="-5.445317">
        <ele>1106.0</ele>
        <time>2013-06-30T14:57:37Z</time>
      </trkpt>
      <trkpt lat="40.124917" lon="-5.445267">
        <ele>1107.0</ele>
        <time>2013-06-30T14:57:38Z</time>
      </trkpt>
      <trkpt lat="40.124950" lon="-5.445200">
        <ele>1108.0</ele>
        <time>2013-06-30T14:57:39Z</time>
      </trkpt>
      <trkpt lat="40.124983" lon="-5.445133">
        <ele>1109.0</ele>
        <time>2013-06-30T14:57:40Z</time>
      </trkpt>
      <trkpt lat="40.125000" lon="-5.445067">
        <ele>1110.0</ele>
        <time>2013-06-30T14:57:41Z</time>
      </trkpt>
      <trkpt lat="40.125017" lon="-5.444983">
        <ele>1110.0</ele>
        <time>2013-06-30T14:57:42Z</time>
      </trkpt>
      <trkpt lat="40.125033" lon="-5.444917">
        <ele>1111.0</ele>
        <time>2013-06-30T14:57:43Z</time>
      </trkpt>
      <trkpt lat="40.125017" lon="-5.444833">
        <ele>1111.0</ele>
        <time>2013-06-30T14:57:44Z</time>
      </trkpt>
      <trkpt lat="40.124983" lon="-5.444783">
        <ele>1112.0</ele>
        <time>2013-06-30T14:57:45Z</time>
      </trkpt>
      <trkpt lat="40.124933" lon="-5.444750">
        <ele>1113.0</ele>
        <time>2013-06-30T14:57:46Z</time>
      </trkpt>
      <trkpt lat="40.124867" lon="-5.444733">
        <ele>1113.0</ele>
        <time>2013-06-30T14:57:47Z</time>
      </trkpt>
      <trkpt lat="40.124800" lon="-5.444717">
        <ele>1114.0</ele>
        <time>2013-06-30T14:57:48Z</time>
      </trkpt>
      <trkpt lat="40.124733" lon="-5.444733">
        <ele>1114.0</ele>
        <time>2013-06-30T14:57:49Z</time>
      </trkpt>
      <trkpt lat="40.124650" lon="-5.444750">
        <ele>1114.0</ele>
        <time>2013-06-30T14:57:50Z</time>
      </trkpt>
      <trkpt lat="40.124567" lon="-5.444783">
        <ele>1113.0</ele>
        <time>2013-06-30T14:57:51Z</time>
      </trkpt>
      <trkpt lat="40.124483" lon="-5.444833">
        <ele>1112.0</ele>
        <time>2013-06-30T14:57:52Z</time>
      </trkpt>
      <trkpt lat="40.124417" lon="-5.444883">
        <ele>1112.0</ele>
        <time>2013-06-30T14:57:53Z</time>
      </trkpt>
      <trkpt lat="40.124350" lon="-5.444933">
        <ele>1112.0</ele>
        <time>2013-06-30T14:57:54Z</time>
      </trkpt>
      <trkpt lat="40.124283" lon="-5.445000">
        <ele>1112.0</ele>
        <time>2013-06-30T14:57:55Z</time>
      </trkpt>
      <trkpt lat="40.124217" lon="-5.445100">
        <ele>1112.0</ele>
        <time>2013-06-30T14:57:56Z</time>
      </trkpt>
      <trkpt lat="40.124167" lon="-5.445200">
        <ele>1111.0</ele>
        <time>2013-06-30T14:57:57Z</time>
      </trkpt>
      <trkpt lat="40.124117" lon="-5.445300">
        <ele>1111.0</ele>
        <time>2013-06-30T14:57:58Z</time>
      </trkpt>
      <trkpt lat="40.124100" lon="-5.445417">
        <ele>1110.0</ele>
        <time>2013-06-30T14:57:59Z</time>
      </trkpt>
      <trkpt lat="40.124083" lon="-5.445533">
        <ele>1110.0</ele>
        <time>2013-06-30T14:58:00Z</time>
      </trkpt>
      <trkpt lat="40.124117" lon="-5.445667">
        <ele>1110.0</ele>
        <time>2013-06-30T14:58:01Z</time>
      </trkpt>
      <trkpt lat="40.124150" lon="-5.445783">
        <ele>1111.0</ele>
        <time>2013-06-30T14:58:02Z</time>
      </trkpt>
      <trkpt lat="40.124217" lon="-5.445867">
        <ele>1112.0</ele>
        <time>2013-06-30T14:58:03Z</time>
      </trkpt>
      <trkpt lat="40.124283" lon="-5.445917">
        <ele>1112.0</ele>
        <time>2013-06-30T14:58:04Z</time>
      </trkpt>
      <trkpt lat="40.124367" lon="-5.445950">
        <ele>1112.0</ele>
        <time>2013-06-30T14:58:05Z</time>
      </trkpt>
      <trkpt lat="40.124450" lon="-5.445950">
        <ele>1112.0</ele>
        <time>2013-06-30T14:58:06Z</time>
      </trkpt>
      <trkpt lat="40.124583" lon="-5.445933">
        <ele>1114.0</ele>
        <time>2013-06-30T14:58:08Z</time>
      </trkpt>
      <trkpt lat="40.124650" lon="-5.445900">
        <ele>1116.0</ele>
        <time>2013-06-30T14:58:09Z</time>
      </trkpt>
      <trkpt lat="40.124700" lon="-5.445867">
        <ele>1117.0</ele>
        <time>2013-06-30T14:58:10Z</time>
      </trkpt>
      <trkpt lat="40.124750" lon="-5.445817">
        <ele>1117.0</ele>
        <time>2013-06-30T14:58:11Z</time>
      </trkpt>
      <trkpt lat="40.124800" lon="-5.445750">
        <ele>1118.0</ele>
        <time>2013-06-30T14:58:12Z</time>
      </trkpt>
      <trkpt lat="40.124833" lon="-5.445683">
        <ele>1118.0</ele>
        <time>2013-06-30T14:58:13Z</time>
      </trkpt>
      <trkpt lat="40.124867" lon="-5.445617">
        <ele>1118.0</ele>
        <time>2013-06-30T14:58:14Z</time>
      </trkpt>
      <trkpt lat="40.124900" lon="-5.445533">
        <ele>1118.0</ele>
        <time>2013-06-30T14:58:15Z</time>
      </trkpt>
      <trkpt lat="40.124933" lon="-5.445467">
        <ele>1118.0</ele>
        <time>2013-06-30T14:58:16Z</time>
      </trkpt>
      <trkpt lat="40.124967" lon="-5.445383">
        <ele>1119.0</ele>
        <time>2013-06-30T14:58:17Z</time>
      </trkpt>
      <trkpt lat="40.124983" lon="-5.445317">
        <ele>1120.0</ele>
        <time>2013-06-30T14:58:18Z</time>
      </trkpt>
      <trkpt lat="40.125000" lon="-5.445250">
        <ele>1120.0</ele>
        <time>2013-06-30T14:58:19Z</time>
      </trkpt>
      <trkpt lat="40.125000" lon="-5.445183">
        <ele>1121.0</ele>
        <time>2013-06-30T14:58:20Z</time>
      </trkpt>
      <trkpt lat="40.125017" lon="-5.445117">
        <ele>1122.0</ele>
        <time>2013-06-30T14:58:21Z</time>
      </trkpt>
      <trkpt lat="40.125017" lon="-5.445033">
        <ele>1122.0</ele>
        <time>2013-06-30T14:58:22Z</time>
      </trkpt>
      <trkpt lat="40.125017" lon="-5.444967">
        <ele>1122.0</ele>
        <time>2013-06-30T14:58:23Z</time>
      </trkpt>
      <trkpt lat="40.125017" lon="-5.444883">
        <ele>1123.0</ele>
        <time>2013-06-30T14:58:24Z</time>
      </trkpt>
      <trkpt lat="40.125017" lon="-5.444817">
        <ele>1123.0</ele>
        <time>2013-06-30T14:58:25Z</time>
      </trkpt>
      <trkpt lat="40.125000" lon="-5.444750">
        <ele>1122.0</ele>
        <time>2013-06-30T14:58:26Z</time>
      </trkpt>
      <trkpt lat="40.124983" lon="-5.444667">
        <ele>1122.0</ele>
        <time>2013-06-30T14:58:27Z</time>
      </trkpt>
      <trkpt lat="40.124950" lon="-5.444583">
        <ele>1122.0</ele>
        <time>2013-06-30T14:58:28Z</time>
      </trkpt>
      <trkpt lat="40.124900" lon="-5.444500">
        <ele>1121.0</ele>
        <time>2013-06-30T14:58:29Z</time>
      </trkpt>
      <trkpt lat="40.124867" lon="-5.444433">
        <ele>1122.0</ele>
        <time>2013-06-30T14:58:30Z</time>
      </trkpt>
      <trkpt lat="40.124817" lon="-5.444367">
        <ele>1122.0</ele>
        <time>2013-06-30T14:58:31Z</time>
      </trkpt>
      <trkpt lat="40.124783" lon="-5.444283">
        <ele>1122.0</ele>
        <time>2013-06-30T14:58:32Z</time>
      </trkpt>
      <trkpt lat="40.124717" lon="-5.444217">
        <ele>1122.0</ele>
        <time>2013-06-30T14:58:33Z</time>
      </trkpt>
      <trkpt lat="40.124650" lon="-5.444150">
        <ele>1121.0</ele>
        <time>2013-06-30T14:58:34Z</time>
      </trkpt>
      <trkpt lat="40.124583" lon="-5.444117">
        <ele>1121.0</ele>
        <time>2013-06-30T14:58:35Z</time>
      </trkpt>
      <trkpt lat="40.124517" lon="-5.444083">
        <ele>1120.0</ele>
        <time>2013-06-30T14:58:36Z</time>
      </trkpt>
      <trkpt lat="40.124450" lon="-5.444050">
        <ele>1119.0</ele>
        <time>2013-06-30T14:58:37Z</time>
      </trkpt>
      <trkpt lat="40.124400" lon="-5.444017">
        <ele>1118.0</ele>
        <time>2013-06-30T14:58:38Z</time>
      </trkpt>
      <trkpt lat="40.124317" lon="-5.443983">
        <ele>1117.0</ele>
        <time>2013-06-30T14:58:39Z</time>
      </trkpt>
      <trkpt lat="40.124233" lon="-5.443967">
        <ele>1116.0</ele>
        <time>2013-06-30T14:58:40Z</time>
      </trkpt>
      <trkpt lat="40.124150" lon="-5.443967">
        <ele>1115.0</ele>
        <time>2013-06-30T14:58:41Z</time>
      </trkpt>
      <trkpt lat="40.124083" lon="-5.443983">
        <ele>1114.0</ele>
        <time>2013-06-30T14:58:42Z</time>
      </trkpt>
      <trkpt lat="40.124017" lon="-5.444033">
        <ele>1114.0</ele>
        <time>2013-06-30T14:58:43Z</time>
      </trkpt>
      <trkpt lat="40.123950" lon="-5.444083">
        <ele>1114.0</ele>
        <time>2013-06-30T14:58:44Z</time>
      </trkpt>
      <trkpt lat="40.123883" lon="-5.444133">
        <ele>1113.0</ele>
        <time>2013-06-30T14:58:45Z</time>
      </trkpt>
      <trkpt lat="40.123817" lon="-5.444200">
        <ele>1112.0</ele>
        <time>2013-06-30T14:58:46Z</time>
      </trkpt>
      <trkpt lat="40.123750" lon="-5.444267">
        <ele>1111.0</ele>
        <time>2013-06-30T14:58:47Z</time>
      </trkpt>
      <trkpt lat="40.123683" lon="-5.444350">
        <ele>1111.0</ele>
        <time>2013-06-30T14:58:48Z</time>
      </trkpt>
      <trkpt lat="40.123600" lon="-5.444417">
        <ele>1110.0</ele>
        <time>2013-06-30T14:58:49Z</time>
      </trkpt>
      <trkpt lat="40.123550" lon="-5.444483">
        <ele>1111.0</ele>
        <time>2013-06-30T14:58:50Z</time>
      </trkpt>
      <trkpt lat="40.123483" lon="-5.444533">
        <ele>1113.0</ele>
        <time>2013-06-30T14:58:51Z</time>
      </trkpt>
      <trkpt lat="40.123417" lon="-5.444600">
        <ele>1114.0</ele>
        <time>2013-06-30T14:58:52Z</time>
      </trkpt>
      <trkpt lat="40.123350" lon="-5.444667">
        <ele>1114.0</ele>
        <time>2013-06-30T14:58:53Z</time>
      </trkpt>
      <trkpt lat="40.123283" lon="-5.444750">
        <ele>1114.0</ele>
        <time>2013-06-30T14:58:54Z</time>
      </trkpt>
      <trkpt lat="40.123233" lon="-5.444833">
        <ele>1114.0</ele>
        <time>2013-06-30T14:58:55Z</time>
      </trkpt>
      <trkpt lat="40.123183" lon="-5.444917">
        <ele>1115.0</ele>
        <time>2013-06-30T14:58:56Z</time>
      </trkpt>
      <trkpt lat="40.123133" lon="-5.445000">
        <ele>1116.0</ele>
        <time>2013-06-30T14:58:57Z</time>
      </trkpt>
      <trkpt lat="40.123100" lon="-5.445083">
        <ele>1117.0</ele>
        <time>2013-06-30T14:58:58Z</time>
      </trkpt>
      <trkpt lat="40.123050" lon="-5.445183">
        <ele>1118.0</ele>
        <time>2013-06-30T14:58:59Z</time>
      </trkpt>
      <trkpt lat="40.123000" lon="-5.445267">
        <ele>1119.0</ele>
        <time>2013-06-30T14:59:00Z</time>
      </trkpt>
      <trkpt lat="40.122967" lon="-5.445367">
        <ele>1120.0</ele>
        <time>2013-06-30T14:59:01Z</time>
      </trkpt>
      <trkpt lat="40.122933" lon="-5.445483">
        <ele>1121.0</ele>
        <time>2013-06-30T14:59:02Z</time>
      </trkpt>
      <trkpt lat="40.122917" lon="-5.445600">
        <ele>1121.0</ele>
        <time>2013-06-30T14:59:03Z</time>
      </trkpt>
      <trkpt lat="40.122917" lon="-5.445733">
        <ele>1122.0</ele>
        <time>2013-06-30T14:59:04Z</time>
      </trkpt>
      <trkpt lat="40.122933" lon="-5.445833">
        <ele>1124.0</ele>
        <time>2013-06-30T14:59:05Z</time>
      </trkpt>
      <trkpt lat="40.122967" lon="-5.445950">
        <ele>1125.0</ele>
        <time>2013-06-30T14:59:06Z</time>
      </trkpt>
      <trkpt lat="40.123017" lon="-5.446067">
        <ele>1128.0</ele>
        <time>2013-06-30T14:59:07Z</time>
      </trkpt>
      <trkpt lat="40.123050" lon="-5.446167">
        <ele>1130.0</ele>
        <time>2013-06-30T14:59:08Z</time>
      </trkpt>
      <trkpt lat="40.123083" lon="-5.446250">
        <ele>1133.0</ele>
        <time>2013-06-30T14:59:09Z</time>
      </trkpt>
      <trkpt lat="40.123150" lon="-5.446333">
        <ele>1136.0</ele>
        <time>2013-06-30T14:59:10Z</time>
      </trkpt>
      <trkpt lat="40.123217" lon="-5.446417">
        <ele>1134.0</ele>
        <time>2013-06-30T14:59:11Z</time>
      </trkpt>
      <trkpt lat="40.123283" lon="-5.446483">
        <ele>1135.0</ele>
        <time>2013-06-30T14:59:12Z</time>
      </trkpt>
      <trkpt lat="40.123350" lon="-5.446533">
        <ele>1137.0</ele>
        <time>2013-06-30T14:59:13Z</time>
      </trkpt>
      <trkpt lat="40.123417" lon="-5.446567">
        <ele>1139.0</ele>
        <time>2013-06-30T14:59:14Z</time>
      </trkpt>
      <trkpt lat="40.123483" lon="-5.446583">
        <ele>1142.0</ele>
        <time>2013-06-30T14:59:15Z</time>
      </trkpt>
      <trkpt lat="40.123533" lon="-5.446583">
        <ele>1144.0</ele>
        <time>2013-06-30T14:59:16Z</time>
      </trkpt>
      <trkpt lat="40.123667" lon="-5.446550">
        <ele>1148.0</ele>
        <time>2013-06-30T14:59:18Z</time>
      </trkpt>
      <trkpt lat="40.123717" lon="-5.446517">
        <ele>1150.0</ele>
        <time>2013-06-30T14:59:19Z</time>
      </trkpt>
      <trkpt lat="40.123750" lon="-5.446450">
        <ele>1151.0</ele>
        <time>2013-06-30T14:59:20Z</time>
      </trkpt>
      <trkpt lat="40.123783" lon="-5.446367">
        <ele>1151.0</ele>
        <time>2013-06-30T14:59:21Z</time>
      </trkpt>
      <trkpt lat="40.123800" lon="-5.446283">
        <ele>1152.0</ele>
        <time>2013-06-30T14:59:22Z</time>
      </trkpt>
      <trkpt lat="40.123800" lon="-5.446183">
        <ele>1152.0</ele>
        <time>2013-06-30T14:59:23Z</time>
      </trkpt>
      <trkpt lat="40.123783" lon="-5.446000">
        <ele>1155.0</ele>
        <time>2013-06-30T14:59:25Z</time>
      </trkpt>
      <trkpt lat="40.123733" lon="-5.445867">
        <ele>1158.0</ele>
        <time>2013-06-30T14:59:27Z</time>
      </trkpt>
      <trkpt lat="40.123683" lon="-5.445800">
        <ele>1158.0</ele>
        <time>2013-06-30T14:59:28Z</time>
      </trkpt>
      <trkpt lat="40.123633" lon="-5.445717">
        <ele>1158.0</ele>
        <time>2013-06-30T14:59:29Z</time>
      </trkpt>
      <trkpt lat="40.123550" lon="-5.445650">
        <ele>1158.0</ele>
        <time>2013-06-30T14:59:30Z</time>
      </trkpt>
      <trkpt lat="40.123367" lon="-5.445533">
        <ele>1161.0</ele>
        <time>2013-06-30T14:59:33Z</time>
      </trkpt>
      <trkpt lat="40.123300" lon="-5.445500">
        <ele>1163.0</ele>
        <time>2013-06-30T14:59:34Z</time>
      </trkpt>
      <trkpt lat="40.123233" lon="-5.445450">
        <ele>1164.0</ele>
        <time>2013-06-30T14:59:35Z</time>
      </trkpt>
      <trkpt lat="40.123150" lon="-5.445400">
        <ele>1164.0</ele>
        <time>2013-06-30T14:59:36Z</time>
      </trkpt>
      <trkpt lat="40.123067" lon="-5.445383">
        <ele>1164.0</ele>
        <time>2013-06-30T14:59:37Z</time>
      </trkpt>
      <trkpt lat="40.122967" lon="-5.445367">
        <ele>1162.0</ele>
        <time>2013-06-30T14:59:38Z</time>
      </trkpt>
      <trkpt lat="40.122867" lon="-5.445367">
        <ele>1162.0</ele>
        <time>2013-06-30T14:59:39Z</time>
      </trkpt>
      <trkpt lat="40.122783" lon="-5.445367">
        <ele>1163.0</ele>
        <time>2013-06-30T14:59:40Z</time>
      </trkpt>
      <trkpt lat="40.122700" lon="-5.445367">
        <ele>1165.0</ele>
        <time>2013-06-30T14:59:41Z</time>
      </trkpt>
      <trkpt lat="40.122633" lon="-5.445400">
        <ele>1168.0</ele>
        <time>2013-06-30T14:59:42Z</time>
      </trkpt>
      <trkpt lat="40.122550" lon="-5.445433">
        <ele>1169.0</ele>
        <time>2013-06-30T14:59:43Z</time>
      </trkpt>
      <trkpt lat="40.122467" lon="-5.445500">
        <ele>1170.0</ele>
        <time>2013-06-30T14:59:44Z</time>
      </trkpt>
      <trkpt lat="40.122400" lon="-5.445567">
        <ele>1171.0</ele>
        <time>2013-06-30T14:59:45Z</time>
      </trkpt>
      <trkpt lat="40.122333" lon="-5.445650">
        <ele>1173.0</ele>
        <time>2013-06-30T14:59:46Z</time>
      </trkpt>
      <trkpt lat="40.122267" lon="-5.445733">
        <ele>1175.0</ele>
        <time>2013-06-30T14:59:47Z</time>
      </trkpt>
      <trkpt lat="40.122233" lon="-5.445833">
        <ele>1177.0</ele>
        <time>2013-06-30T14:59:48Z</time>
      </trkpt>
      <trkpt lat="40.122217" lon="-5.445967">
        <ele>1179.0</ele>
        <time>2013-06-30T14:59:49Z</time>
      </trkpt>
      <trkpt lat="40.122200" lon="-5.446083">
        <ele>1182.0</ele>
        <time>2013-06-30T14:59:50Z</time>
      </trkpt>
      <trkpt lat="40.122217" lon="-5.446200">
        <ele>1184.0</ele>
        <time>2013-06-30T14:59:51Z</time>
      </trkpt>
      <trkpt lat="40.122233" lon="-5.446300">
        <ele>1187.0</ele>
        <time>2013-06-30T14:59:52Z</time>
      </trkpt>
      <trkpt lat="40.122250" lon="-5.446400">
        <ele>1191.0</ele>
        <time>2013-06-30T14:59:53Z</time>
      </trkpt>
      <trkpt lat="40.122283" lon="-5.446483">
        <ele>1196.0</ele>
        <time>2013-06-30T14:59:54Z</time>
      </trkpt>
      <trkpt lat="40.122317" lon="-5.446550">
        <ele>1200.0</ele>
        <time>2013-06-30T14:59:55Z</time>
      </trkpt>
      <trkpt lat="40.122367" lon="-5.446617">
        <ele>1203.0</ele>
        <time>2013-06-30T14:59:56Z</time>
      </trkpt>
      <trkpt lat="40.122517" lon="-5.446717">
        <ele>1200.0</ele>
        <time>2013-06-30T14:59:58Z</time>
      </trkpt>
      <trkpt lat="40.122567" lon="-5.446750">
        <ele>1201.0</ele>
        <time>2013-06-30T14:59:59Z</time>
      </trkpt>
      <trkpt lat="40.122617" lon="-5.446783">
        <ele>1204.0</ele>
        <time>2013-06-30T15:00:00Z</time>
      </trkpt>
      <trkpt lat="40.122667" lon="-5.446800">
        <ele>1208.0</ele>
        <time>2013-06-30T15:00:01Z</time>
      </trkpt>
      <trkpt lat="40.122717" lon="-5.446817">
        <ele>1212.0</ele>
        <time>2013-06-30T15:00:02Z</time>
      </trkpt>
      <trkpt lat="40.122783" lon="-5.446800">
        <ele>1214.0</ele>
        <time>2013-06-30T15:00:03Z</time>
      </trkpt>
      <trkpt lat="40.122933" lon="-5.446783">
        <ele>1219.0</ele>
        <time>2013-06-30T15:00:05Z</time>
      </trkpt>
      <trkpt lat="40.123000" lon="-5.446767">
        <ele>1222.0</ele>
        <time>2013-06-30T15:00:06Z</time>
      </trkpt>
      <trkpt lat="40.123133" lon="-5.446683">
        <ele>1227.0</ele>
        <time>2013-06-30T15:00:08Z</time>
      </trkpt>
      <trkpt lat="40.123183" lon="-5.446617">
        <ele>1229.0</ele>
        <time>2013-06-30T15:00:09Z</time>
      </trkpt>
      <trkpt lat="40.123217" lon="-5.446550">
        <ele>1232.0</ele>
        <time>2013-06-30T15:00:10Z</time>
      </trkpt>
      <trkpt lat="40.123250" lon="-5.446483">
        <ele>1234.0</ele>
        <time>2013-06-30T15:00:11Z</time>
      </trkpt>
      <trkpt lat="40.123267" lon="-5.446317">
        <ele>1236.0</ele>
        <time>2013-06-30T15:00:13Z</time>
      </trkpt>
      <trkpt lat="40.123250" lon="-5.446217">
        <ele>1237.0</ele>
        <time>2013-06-30T15:00:14Z</time>
      </trkpt>
      <trkpt lat="40.123233" lon="-5.446117">
        <ele>1237.0</ele>
        <time>2013-06-30T15:00:15Z</time>
      </trkpt>
      <trkpt lat="40.123200" lon="-5.446000">
        <ele>1238.0</ele>
        <time>2013-06-30T15:00:16Z</time>
      </trkpt>
      <trkpt lat="40.123167" lon="-5.445917">
        <ele>1240.0</ele>
        <time>2013-06-30T15:00:17Z</time>
      </trkpt>
      <trkpt lat="40.123117" lon="-5.445850">
        <ele>1242.0</ele>
        <time>2013-06-30T15:00:18Z</time>
      </trkpt>
      <trkpt lat="40.123067" lon="-5.445800">
        <ele>1244.0</ele>
        <time>2013-06-30T15:00:19Z</time>
      </trkpt>
      <trkpt lat="40.122983" lon="-5.445767">
        <ele>1244.0</ele>
        <time>2013-06-30T15:00:20Z</time>
      </trkpt>
      <trkpt lat="40.122883" lon="-5.445717">
        <ele>1243.0</ele>
        <time>2013-06-30T15:00:21Z</time>
      </trkpt>
      <trkpt lat="40.122783" lon="-5.445700">
        <ele>1242.0</ele>
        <time>2013-06-30T15:00:22Z</time>
      </trkpt>
      <trkpt lat="40.122700" lon="-5.445683">
        <ele>1242.0</ele>
        <time>2013-06-30T15:00:23Z</time>
      </trkpt>
      <trkpt lat="40.122617" lon="-5.445683">
        <ele>1242.0</ele>
        <time>2013-06-30T15:00:24Z</time>
      </trkpt>
      <trkpt lat="40.122533" lon="-5.445700">
        <ele>1243.0</ele>
        <time>2013-06-30T15:00:25Z</time>
      </trkpt>
      <trkpt lat="40.122433" lon="-5.445750">
        <ele>1242.0</ele>
        <time>2013-06-30T15:00:26Z</time>
      </trkpt>
      <trkpt lat="40.122350" lon="-5.445817">
        <ele>1242.0</ele>
        <time>2013-06-30T15:00:27Z</time>
      </trkpt>
      <trkpt lat="40.122267" lon="-5.445900">
        <ele>1242.0</ele>
        <time>2013-06-30T15:00:28Z</time>
      </trkpt>
      <trkpt lat="40.122183" lon="-5.446000">
        <ele>1242.0</ele>
        <time>2013-06-30T15:00:29Z</time>
      </trkpt>
      <trkpt lat="40.122117" lon="-5.446083">
        <ele>1243.0</ele>
        <time>2013-06-30T15:00:30Z</time>
      </trkpt>
      <trkpt lat="40.122050" lon="-5.446167">
        <ele>1244.0</ele>
        <time>2013-06-30T15:00:31Z</time>
      </trkpt>
      <trkpt lat="40.121983" lon="-5.446250">
        <ele>1246.0</ele>
        <time>2013-06-30T15:00:32Z</time>
      </trkpt>
      <trkpt lat="40.121917" lon="-5.446333">
        <ele>1247.0</ele>
        <time>2013-06-30T15:00:33Z</time>
      </trkpt>
      <trkpt lat="40.121867" lon="-5.446433">
        <ele>1247.0</ele>
        <time>2013-06-30T15:00:34Z</time>
      </trkpt>
      <trkpt lat="40.121817" lon="-5.446533">
        <ele>1250.0</ele>
        <time>2013-06-30T15:00:35Z</time>
      </trkpt>
      <trkpt lat="40.121783" lon="-5.446650">
        <ele>1253.0</ele>
        <time>2013-06-30T15:00:36Z</time>
      </trkpt>
      <trkpt lat="40.121767" lon="-5.446750">
        <ele>1257.0</ele>
        <time>2013-06-30T15:00:37Z</time>
      </trkpt>
      <trkpt lat="40.121750" lon="-5.446833">
        <ele>1259.0</ele>
        <time>2013-06-30T15:00:38Z</time>
      </trkpt>
      <trkpt lat="40.121717" lon="-5.446933">
        <ele>1262.0</ele>
        <time>2013-06-30T15:00:39Z</time>
      </trkpt>
      <trkpt lat="40.121667" lon="-5.447033">
        <ele>1264.0</ele>
        <time>2013-06-30T15:00:40Z</time>
      </trkpt>
      <trkpt lat="40.121633" lon="-5.447167">
        <ele>1267.0</ele>
        <time>2013-06-30T15:00:41Z</time>
      </trkpt>
      <trkpt lat="40.121600" lon="-5.447283">
        <ele>1269.0</ele>
        <time>2013-06-30T15:00:42Z</time>
      </trkpt>
      <trkpt lat="40.121583" lon="-5.447400">
        <ele>1273.0</ele>
        <time>2013-06-30T15:00:43Z</time>
      </trkpt>
      <trkpt lat="40.121583" lon="-5.447517">
        <ele>1277.0</ele>
        <time>2013-06-30T15:00:44Z</time>
      </trkpt>
      <trkpt lat="40.121567" lon="-5.447617">
        <ele>1281.0</ele>
        <time>2013-06-30T15:00:45Z</time>
      </trkpt>
      <trkpt lat="40.121550" lon="-5.447733">
        <ele>1285.0</ele>
        <time>2013-06-30T15:00:46Z</time>
      </trkpt>
      <trkpt lat="40.121550" lon="-5.447867">
        <ele>1288.0</ele>
        <time>2013-06-30T15:00:47Z</time>
      </trkpt>
      <trkpt lat="40.121550" lon="-5.447983">
        <ele>1291.0</ele>
        <time>2013-06-30T15:00:48Z</time>
      </trkpt>
      <trkpt lat="40.121583" lon="-5.448083">
        <ele>1295.0</ele>
        <time>2013-06-30T15:00:49Z</time>
      </trkpt>
      <trkpt lat="40.121633" lon="-5.448200">
        <ele>1297.0</ele>
        <time>2013-06-30T15:00:50Z</time>
      </trkpt>
      <trkpt lat="40.121700" lon="-5.448267">
        <ele>1299.0</ele>
        <time>2013-06-30T15:00:51Z</time>
      </trkpt>
      <trkpt lat="40.121767" lon="-5.448317">
        <ele>1301.0</ele>
        <time>2013-06-30T15:00:52Z</time>
      </trkpt>
      <trkpt lat="40.121833" lon="-5.448333">
        <ele>1303.0</ele>
        <time>2013-06-30T15:00:53Z</time>
      </trkpt>
      <trkpt lat="40.121900" lon="-5.448333">
        <ele>1305.0</ele>
        <time>2013-06-30T15:00:54Z</time>
      </trkpt>
      <trkpt lat="40.121950" lon="-5.448300">
        <ele>1308.0</ele>
        <time>2013-06-30T15:00:55Z</time>
      </trkpt>
      <trkpt lat="40.122000" lon="-5.448250">
        <ele>1311.0</ele>
        <time>2013-06-30T15:00:56Z</time>
      </trkpt>
      <trkpt lat="40.122050" lon="-5.448200">
        <ele>1314.0</ele>
        <time>2013-06-30T15:00:57Z</time>
      </trkpt>
      <trkpt lat="40.122100" lon="-5.448117">
        <ele>1317.0</ele>
        <time>2013-06-30T15:00:58Z</time>
      </trkpt>
      <trkpt lat="40.122117" lon="-5.448050">
        <ele>1321.0</ele>
        <time>2013-06-30T15:00:59Z</time>
      </trkpt>
      <trkpt lat="40.122117" lon="-5.447967">
        <ele>1323.0</ele>
        <time>2013-06-30T15:01:00Z</time>
      </trkpt>
      <trkpt lat="40.122117" lon="-5.447900">
        <ele>1326.0</ele>
        <time>2013-06-30T15:01:01Z</time>
      </trkpt>
      <trkpt lat="40.122100" lon="-5.447817">
        <ele>1327.0</ele>
        <time>2013-06-30T15:01:02Z</time>
      </trkpt>
      <trkpt lat="40.122083" lon="-5.447717">
        <ele>1329.0</ele>
        <time>2013-06-30T15:01:03Z</time>
      </trkpt>
      <trkpt lat="40.122083" lon="-5.447633">
        <ele>1330.0</ele>
        <time>2013-06-30T15:01:04Z</time>
      </trkpt>
      <trkpt lat="40.122050" lon="-5.447533">
        <ele>1332.0</ele>
        <time>2013-06-30T15:01:05Z</time>
      </trkpt>
      <trkpt lat="40.122000" lon="-5.447450">
        <ele>1334.0</ele>
        <time>2013-06-30T15:01:06Z</time>
      </trkpt>
      <trkpt lat="40.121950" lon="-5.447383">
        <ele>1337.0</ele>
        <time>2013-06-30T15:01:07Z</time>
      </trkpt>
      <trkpt lat="40.121900" lon="-5.447333">
        <ele>1339.0</ele>
        <time>2013-06-30T15:01:08Z</time>
      </trkpt>
      <trkpt lat="40.121833" lon="-5.447267">
        <ele>1341.0</ele>
        <time>2013-06-30T15:01:09Z</time>
      </trkpt>
      <trkpt lat="40.121767" lon="-5.447233">
        <ele>1342.0</ele>
        <time>2013-06-30T15:01:10Z</time>
      </trkpt>
      <trkpt lat="40.121667" lon="-5.447183">
        <ele>1343.0</ele>
        <time>2013-06-30T15:01:11Z</time>
      </trkpt>
      <trkpt lat="40.121583" lon="-5.447167">
        <ele>1345.0</ele>
        <time>2013-06-30T15:01:12Z</time>
      </trkpt>
      <trkpt lat="40.121467" lon="-5.447150">
        <ele>1346.0</ele>
        <time>2013-06-30T15:01:13Z</time>
      </trkpt>
      <trkpt lat="40.121367" lon="-5.447167">
        <ele>1347.0</ele>
        <time>2013-06-30T15:01:14Z</time>
      </trkpt>
      <trkpt lat="40.121267" lon="-5.447183">
        <ele>1350.0</ele>
        <time>2013-06-30T15:01:15Z</time>
      </trkpt>
      <trkpt lat="40.121150" lon="-5.447217">
        <ele>1353.0</ele>
        <time>2013-06-30T15:01:16Z</time>
      </trkpt>
      <trkpt lat="40.121067" lon="-5.447267">
        <ele>1356.0</ele>
        <time>2013-06-30T15:01:17Z</time>
      </trkpt>
      <trkpt lat="40.120967" lon="-5.447333">
        <ele>1358.0</ele>
        <time>2013-06-30T15:01:18Z</time>
      </trkpt>
      <trkpt lat="40.120883" lon="-5.447417">
        <ele>1361.0</ele>
        <time>2013-06-30T15:01:19Z</time>
      </trkpt>
      <trkpt lat="40.120817" lon="-5.447500">
        <ele>1364.0</ele>
        <time>2013-06-30T15:01:20Z</time>
      </trkpt>
      <trkpt lat="40.120750" lon="-5.447567">
        <ele>1366.0</ele>
        <time>2013-06-30T15:01:21Z</time>
      </trkpt>
      <trkpt lat="40.120683" lon="-5.447633">
        <ele>1369.0</ele>
        <time>2013-06-30T15:01:22Z</time>
      </trkpt>
      <trkpt lat="40.120600" lon="-5.447733">
        <ele>1370.0</ele>
        <time>2013-06-30T15:01:23Z</time>
      </trkpt>
      <trkpt lat="40.120533" lon="-5.447850">
        <ele>1371.0</ele>
        <time>2013-06-30T15:01:24Z</time>
      </trkpt>
      <trkpt lat="40.120467" lon="-5.447967">
        <ele>1373.0</ele>
        <time>2013-06-30T15:01:25Z</time>
      </trkpt>
      <trkpt lat="40.120400" lon="-5.448067">
        <ele>1375.0</ele>
        <time>2013-06-30T15:01:26Z</time>
      </trkpt>
      <trkpt lat="40.120333" lon="-5.448183">
        <ele>1376.0</ele>
        <time>2013-06-30T15:01:27Z</time>
      </trkpt>
      <trkpt lat="40.120300" lon="-5.448283">
        <ele>1377.0</ele>
        <time>2013-06-30T15:01:28Z</time>
      </trkpt>
      <trkpt lat="40.120267" lon="-5.448400">
        <ele>1378.0</ele>
        <time>2013-06-30T15:01:29Z</time>
      </trkpt>
      <trkpt lat="40.120233" lon="-5.448533">
        <ele>1377.0</ele>
        <time>2013-06-30T15:01:30Z</time>
      </trkpt>
      <trkpt lat="40.120217" lon="-5.448700">
        <ele>1376.0</ele>
        <time>2013-06-30T15:01:31Z</time>
      </trkpt>
      <trkpt lat="40.120200" lon="-5.448850">
        <ele>1376.0</ele>
        <time>2013-06-30T15:01:32Z</time>
      </trkpt>
      <trkpt lat="40.120200" lon="-5.448967">
        <ele>1378.0</ele>
        <time>2013-06-30T15:01:33Z</time>
      </trkpt>
      <trkpt lat="40.120217" lon="-5.449083">
        <ele>1379.0</ele>
        <time>2013-06-30T15:01:34Z</time>
      </trkpt>
      <trkpt lat="40.120250" lon="-5.449167">
        <ele>1381.0</ele>
        <time>2013-06-30T15:01:35Z</time>
      </trkpt>
      <trkpt lat="40.120283" lon="-5.449250">
        <ele>1382.0</ele>
        <time>2013-06-30T15:01:36Z</time>
      </trkpt>
      <trkpt lat="40.120333" lon="-5.449317">
        <ele>1384.0</ele>
        <time>2013-06-30T15:01:37Z</time>
      </trkpt>
      <trkpt lat="40.120367" lon="-5.449383">
        <ele>1387.0</ele>
        <time>2013-06-30T15:01:38Z</time>
      </trkpt>
      <trkpt lat="40.120417" lon="-5.449433">
        <ele>1388.0</ele>
        <time>2013-06-30T15:01:39Z</time>
      </trkpt>
      <trkpt lat="40.120467" lon="-5.449467">
        <ele>1390.0</ele>
        <time>2013-06-30T15:01:40Z</time>
      </trkpt>
      <trkpt lat="40.120517" lon="-5.449500">
        <ele>1391.0</ele>
        <time>2013-06-30T15:01:41Z</time>
      </trkpt>
      <trkpt lat="40.120583" lon="-5.449517">
        <ele>1393.0</ele>
        <time>2013-06-30T15:01:42Z</time>
      </trkpt>
      <trkpt lat="40.120650" lon="-5.449517">
        <ele>1396.0</ele>
        <time>2013-06-30T15:01:43Z</time>
      </trkpt>
      <trkpt lat="40.120700" lon="-5.449500">
        <ele>1399.0</ele>
        <time>2013-06-30T15:01:44Z</time>
      </trkpt>
      <trkpt lat="40.120750" lon="-5.449450">
        <ele>1401.0</ele>
        <time>2013-06-30T15:01:45Z</time>
      </trkpt>
      <trkpt lat="40.120800" lon="-5.449383">
        <ele>1404.0</ele>
        <time>2013-06-30T15:01:46Z</time>
      </trkpt>
      <trkpt lat="40.120850" lon="-5.449317">
        <ele>1407.0</ele>
        <time>2013-06-30T15:01:47Z</time>
      </trkpt>
      <trkpt lat="40.120883" lon="-5.449233">
        <ele>1410.0</ele>
        <time>2013-06-30T15:01:48Z</time>
      </trkpt>
      <trkpt lat="40.120917" lon="-5.449167">
        <ele>1414.0</ele>
        <time>2013-06-30T15:01:49Z</time>
      </trkpt>
      <trkpt lat="40.120917" lon="-5.449083">
        <ele>1418.0</ele>
        <time>2013-06-30T15:01:50Z</time>
      </trkpt>
      <trkpt lat="40.120900" lon="-5.449000">
        <ele>1421.0</ele>
        <time>2013-06-30T15:01:51Z</time>
      </trkpt>
      <trkpt lat="40.120883" lon="-5.448900">
        <ele>1424.0</ele>
        <time>2013-06-30T15:01:52Z</time>
      </trkpt>
      <trkpt lat="40.120867" lon="-5.448800">
        <ele>1427.0</ele>
        <time>2013-06-30T15:01:53Z</time>
      </trkpt>
      <trkpt lat="40.120833" lon="-5.448700">
        <ele>1430.0</ele>
        <time>2013-06-30T15:01:54Z</time>
      </trkpt>
      <trkpt lat="40.120800" lon="-5.448617">
        <ele>1434.0</ele>
        <time>2013-06-30T15:01:55Z</time>
      </trkpt>
      <trkpt lat="40.120733" lon="-5.448533">
        <ele>1437.0</ele>
        <time>2013-06-30T15:01:56Z</time>
      </trkpt>
      <trkpt lat="40.120667" lon="-5.448467">
        <ele>1439.0</ele>
        <time>2013-06-30T15:01:57Z</time>
      </trkpt>
      <trkpt lat="40.120583" lon="-5.448417">
        <ele>1441.0</ele>
        <time>2013-06-30T15:01:58Z</time>
      </trkpt>
      <trkpt lat="40.120500" lon="-5.448383">
        <ele>1444.0</ele>
        <time>2013-06-30T15:01:59Z</time>
      </trkpt>
      <trkpt lat="40.120400" lon="-5.448350">
        <ele>1446.0</ele>
        <time>2013-06-30T15:02:00Z</time>
      </trkpt>
      <trkpt lat="40.120317" lon="-5.448333">
        <ele>1449.0</ele>
        <time>2013-06-30T15:02:01Z</time>
      </trkpt>
      <trkpt lat="40.120217" lon="-5.448317">
        <ele>1451.0</ele>
        <time>2013-06-30T15:02:02Z</time>
      </trkpt>
      <trkpt lat="40.120100" lon="-5.448317">
        <ele>1452.0</ele>
        <time>2013-06-30T15:02:03Z</time>
      </trkpt>
      <trkpt lat="40.120000" lon="-5.448350">
        <ele>1454.0</ele>
        <time>2013-06-30T15:02:04Z</time>
      </trkpt>
      <trkpt lat="40.119900" lon="-5.448383">
        <ele>1456.0</ele>
        <time>2013-06-30T15:02:05Z</time>
      </trkpt>
      <trkpt lat="40.119800" lon="-5.448417">
        <ele>1458.0</ele>
        <time>2013-06-30T15:02:06Z</time>
      </trkpt>
      <trkpt lat="40.119700" lon="-5.448467">
        <ele>1459.0</ele>
        <time>2013-06-30T15:02:07Z</time>
      </trkpt>
      <trkpt lat="40.119600" lon="-5.448517">
        <ele>1461.0</ele>
        <time>2013-06-30T15:02:08Z</time>
      </trkpt>
      <trkpt lat="40.119483" lon="-5.448583">
        <ele>1461.0</ele>
        <time>2013-06-30T15:02:09Z</time>
      </trkpt>
      <trkpt lat="40.119383" lon="-5.448667">
        <ele>1462.0</ele>
        <time>2013-06-30T15:02:10Z</time>
      </trkpt>
      <trkpt lat="40.119283" lon="-5.448767">
        <ele>1461.0</ele>
        <time>2013-06-30T15:02:11Z</time>
      </trkpt>
      <trkpt lat="40.119183" lon="-5.448883">
        <ele>1462.0</ele>
        <time>2013-06-30T15:02:12Z</time>
      </trkpt>
      <trkpt lat="40.119117" lon="-5.449017">
        <ele>1461.0</ele>
        <time>2013-06-30T15:02:13Z</time>
      </trkpt>
      <trkpt lat="40.119067" lon="-5.449150">
        <ele>1460.0</ele>
        <time>2013-06-30T15:02:14Z</time>
      </trkpt>
      <trkpt lat="40.119017" lon="-5.449283">
        <ele>1459.0</ele>
        <time>2013-06-30T15:02:15Z</time>
      </trkpt>
      <trkpt lat="40.118950" lon="-5.449417">
        <ele>1459.0</ele>
        <time>2013-06-30T15:02:16Z</time>
      </trkpt>
      <trkpt lat="40.118917" lon="-5.449550">
        <ele>1458.0</ele>
        <time>2013-06-30T15:02:17Z</time>
      </trkpt>
      <trkpt lat="40.118917" lon="-5.449700">
        <ele>1456.0</ele>
        <time>2013-06-30T15:02:18Z</time>
      </trkpt>
      <trkpt lat="40.118917" lon="-5.449833">
        <ele>1455.0</ele>
        <time>2013-06-30T15:02:19Z</time>
      </trkpt>
      <trkpt lat="40.118933" lon="-5.449983">
        <ele>1453.0</ele>
        <time>2013-06-30T15:02:20Z</time>
      </trkpt>
      <trkpt lat="40.118950" lon="-5.450100">
        <ele>1453.0</ele>
        <time>2013-06-30T15:02:21Z</time>
      </trkpt>
      <trkpt lat="40.118967" lon="-5.450217">
        <ele>1453.0</ele>
        <time>2013-06-30T15:02:22Z</time>
      </trkpt>
      <trkpt lat="40.118983" lon="-5.450333">
        <ele>1454.0</ele>
        <time>2013-06-30T15:02:23Z</time>
      </trkpt>
      <trkpt lat="40.119017" lon="-5.450433">
        <ele>1454.0</ele>
        <time>2013-06-30T15:02:24Z</time>
      </trkpt>
      <trkpt lat="40.119067" lon="-5.450533">
        <ele>1453.0</ele>
        <time>2013-06-30T15:02:25Z</time>
      </trkpt>
      <trkpt lat="40.119100" lon="-5.450633">
        <ele>1453.0</ele>
        <time>2013-06-30T15:02:26Z</time>
      </trkpt>
      <trkpt lat="40.119117" lon="-5.450700">
        <ele>1453.0</ele>
        <time>2013-06-30T15:02:27Z</time>
      </trkpt>
      <trkpt lat="40.119133" lon="-5.450733">
        <ele>1455.0</ele>
        <time>2013-06-30T15:02:28Z</time>
      </trkpt>
      <trkpt lat="40.119150" lon="-5.450783">
        <ele>1455.0</ele>
        <time>2013-06-30T15:02:29Z</time>
      </trkpt>
      <trkpt lat="40.119183" lon="-5.450817">
        <ele>1456.0</ele>
        <time>2013-06-30T15:02:30Z</time>
      </trkpt>
      <trkpt lat="40.119233" lon="-5.450867">
        <ele>1455.0</ele>
        <time>2013-06-30T15:02:31Z</time>
      </trkpt>
      <trkpt lat="40.119267" lon="-5.450917">
        <ele>1455.0</ele>
        <time>2013-06-30T15:02:32Z</time>
      </trkpt>
      <trkpt lat="40.119317" lon="-5.450967">
        <ele>1456.0</ele>
        <time>2013-06-30T15:02:33Z</time>
      </trkpt>
      <trkpt lat="40.119350" lon="-5.451000">
        <ele>1457.0</ele>
        <time>2013-06-30T15:02:34Z</time>
      </trkpt>
      <trkpt lat="40.119383" lon="-5.451050">
        <ele>1457.0</ele>
        <time>2013-06-30T15:02:35Z</time>
      </trkpt>
      <trkpt lat="40.119417" lon="-5.451083">
        <ele>1458.0</ele>
        <time>2013-06-30T15:02:36Z</time>
      </trkpt>
      <trkpt lat="40.119467" lon="-5.451133">
        <ele>1457.0</ele>
        <time>2013-06-30T15:02:37Z</time>
      </trkpt>
      <trkpt lat="40.119533" lon="-5.451200">
        <ele>1457.0</ele>
        <time>2013-06-30T15:02:38Z</time>
      </trkpt>
      <trkpt lat="40.119583" lon="-5.451233">
        <ele>1458.0</ele>
        <time>2013-06-30T15:02:39Z</time>
      </trkpt>
      <trkpt lat="40.119633" lon="-5.451267">
        <ele>1459.0</ele>
        <time>2013-06-30T15:02:40Z</time>
      </trkpt>
      <trkpt lat="40.119683" lon="-5.451283">
        <ele>1459.0</ele>
        <time>2013-06-30T15:02:41Z</time>
      </trkpt>
      <trkpt lat="40.119750" lon="-5.451300">
        <ele>1460.0</ele>
        <time>2013-06-30T15:02:42Z</time>
      </trkpt>
      <trkpt lat="40.119800" lon="-5.451317">
        <ele>1460.0</ele>
        <time>2013-06-30T15:02:43Z</time>
      </trkpt>
      <trkpt lat="40.119867" lon="-5.451333">
        <ele>1460.0</ele>
        <time>2013-06-30T15:02:44Z</time>
      </trkpt>
      <trkpt lat="40.119933" lon="-5.451350">
        <ele>1460.0</ele>
        <time>2013-06-30T15:02:45Z</time>
      </trkpt>
      <trkpt lat="40.120017" lon="-5.451367">
        <ele>1461.0</ele>
        <time>2013-06-30T15:02:46Z</time>
      </trkpt>
      <trkpt lat="40.120067" lon="-5.451383">
        <ele>1462.0</ele>
        <time>2013-06-30T15:02:47Z</time>
      </trkpt>
      <trkpt lat="40.120117" lon="-5.451400">
        <ele>1463.0</ele>
        <time>2013-06-30T15:02:48Z</time>
      </trkpt>
      <trkpt lat="40.120183" lon="-5.451417">
        <ele>1464.0</ele>
        <time>2013-06-30T15:02:49Z</time>
      </trkpt>
      <trkpt lat="40.120267" lon="-5.451450">
        <ele>1464.0</ele>
        <time>2013-06-30T15:02:50Z</time>
      </trkpt>
      <trkpt lat="40.120333" lon="-5.451483">
        <ele>1465.0</ele>
        <time>2013-06-30T15:02:51Z</time>
      </trkpt>
      <trkpt lat="40.120417" lon="-5.451550">
        <ele>1466.0</ele>
        <time>2013-06-30T15:02:52Z</time>
      </trkpt>
      <trkpt lat="40.120467" lon="-5.451617">
        <ele>1467.0</ele>
        <time>2013-06-30T15:02:53Z</time>
      </trkpt>
      <trkpt lat="40.120517" lon="-5.451700">
        <ele>1468.0</ele>
        <time>2013-06-30T15:02:54Z</time>
      </trkpt>
      <trkpt lat="40.120583" lon="-5.451783">
        <ele>1471.0</ele>
        <time>2013-06-30T15:02:55Z</time>
      </trkpt>
      <trkpt lat="40.120633" lon="-5.451850">
        <ele>1473.0</ele>
        <time>2013-06-30T15:02:56Z</time>
      </trkpt>
      <trkpt lat="40.120683" lon="-5.451900">
        <ele>1475.0</ele>
        <time>2013-06-30T15:02:57Z</time>
      </trkpt>
      <trkpt lat="40.120717" lon="-5.451967">
        <ele>1474.0</ele>
        <time>2013-06-30T15:02:58Z</time>
      </trkpt>
      <trkpt lat="40.120767" lon="-5.452067">
        <ele>1475.0</ele>
        <time>2013-06-30T15:02:59Z</time>
      </trkpt>
      <trkpt lat="40.120783" lon="-5.452183">
        <ele>1476.0</ele>
        <time>2013-06-30T15:03:00Z</time>
      </trkpt>
      <trkpt lat="40.120800" lon="-5.452300">
        <ele>1476.0</ele>
        <time>2013-06-30T15:03:01Z</time>
      </trkpt>
      <trkpt lat="40.120817" lon="-5.452400">
        <ele>1478.0</ele>
        <time>2013-06-30T15:03:02Z</time>
      </trkpt>
      <trkpt lat="40.120833" lon="-5.452517">
        <ele>1479.0</ele>
        <time>2013-06-30T15:03:03Z</time>
      </trkpt>
      <trkpt lat="40.120850" lon="-5.452617">
        <ele>1482.0</ele>
        <time>2013-06-30T15:03:04Z</time>
      </trkpt>
      <trkpt lat="40.120850" lon="-5.452700">
        <ele>1484.0</ele>
        <time>2013-06-30T15:03:05Z</time>
      </trkpt>
      <trkpt lat="40.120850" lon="-5.452800">
        <ele>1487.0</ele>
        <time>2013-06-30T15:03:06Z</time>
      </trkpt>
      <trkpt lat="40.120833" lon="-5.452900">
        <ele>1489.0</ele>
        <time>2013-06-30T15:03:07Z</time>
      </trkpt>
      <trkpt lat="40.120817" lon="-5.453017">
        <ele>1491.0</ele>
        <time>2013-06-30T15:03:08Z</time>
      </trkpt>
      <trkpt lat="40.120817" lon="-5.453117">
        <ele>1494.0</ele>
        <time>2013-06-30T15:03:09Z</time>
      </trkpt>
      <trkpt lat="40.120817" lon="-5.453217">
        <ele>1497.0</ele>
        <time>2013-06-30T15:03:10Z</time>
      </trkpt>
      <trkpt lat="40.120800" lon="-5.453317">
        <ele>1500.0</ele>
        <time>2013-06-30T15:03:11Z</time>
      </trkpt>
      <trkpt lat="40.120783" lon="-5.453433">
        <ele>1502.0</ele>
        <time>2013-06-30T15:03:12Z</time>
      </trkpt>
      <trkpt lat="40.120733" lon="-5.453533">
        <ele>1504.0</ele>
        <time>2013-06-30T15:03:13Z</time>
      </trkpt>
      <trkpt lat="40.120683" lon="-5.453650">
        <ele>1506.0</ele>
        <time>2013-06-30T15:03:14Z</time>
      </trkpt>
      <trkpt lat="40.120633" lon="-5.453733">
        <ele>1509.0</ele>
        <time>2013-06-30T15:03:15Z</time>
      </trkpt>
      <trkpt lat="40.120583" lon="-5.453783">
        <ele>1511.0</ele>
        <time>2013-06-30T15:03:16Z</time>
      </trkpt>
      <trkpt lat="40.120550" lon="-5.453850">
        <ele>1513.0</ele>
        <time>2013-06-30T15:03:17Z</time>
      </trkpt>
      <trkpt lat="40.120517" lon="-5.453950">
        <ele>1514.0</ele>
        <time>2013-06-30T15:03:18Z</time>
      </trkpt>
      <trkpt lat="40.120483" lon="-5.454050">
        <ele>1514.0</ele>
        <time>2013-06-30T15:03:19Z</time>
      </trkpt>
      <trkpt lat="40.120467" lon="-5.454167">
        <ele>1512.0</ele>
        <time>2013-06-30T15:03:20Z</time>
      </trkpt>
      <trkpt lat="40.120433" lon="-5.454250">
        <ele>1513.0</ele>
        <time>2013-06-30T15:03:21Z</time>
      </trkpt>
      <trkpt lat="40.120400" lon="-5.454317">
        <ele>1515.0</ele>
        <time>2013-06-30T15:03:22Z</time>
      </trkpt>
      <trkpt lat="40.120350" lon="-5.454383">
        <ele>1516.0</ele>
        <time>2013-06-30T15:03:23Z</time>
      </trkpt>
      <trkpt lat="40.120283" lon="-5.454450">
        <ele>1516.0</ele>
        <time>2013-06-30T15:03:24Z</time>
      </trkpt>
      <trkpt lat="40.120217" lon="-5.454517">
        <ele>1515.0</ele>
        <time>2013-06-30T15:03:25Z</time>
      </trkpt>
      <trkpt lat="40.120133" lon="-5.454583">
        <ele>1514.0</ele>
        <time>2013-06-30T15:03:26Z</time>
      </trkpt>
      <trkpt lat="40.120050" lon="-5.454633">
        <ele>1514.0</ele>
        <time>2013-06-30T15:03:27Z</time>
      </trkpt>
      <trkpt lat="40.119983" lon="-5.454667">
        <ele>1513.0</ele>
        <time>2013-06-30T15:03:28Z</time>
      </trkpt>
      <trkpt lat="40.119900" lon="-5.454683">
        <ele>1512.0</ele>
        <time>2013-06-30T15:03:29Z</time>
      </trkpt>
      <trkpt lat="40.119817" lon="-5.454700">
        <ele>1510.0</ele>
        <time>2013-06-30T15:03:30Z</time>
      </trkpt>
      <trkpt lat="40.119733" lon="-5.454700">
        <ele>1506.0</ele>
        <time>2013-06-30T15:03:31Z</time>
      </trkpt>
      <trkpt lat="40.119650" lon="-5.454667">
        <ele>1503.0</ele>
        <time>2013-06-30T15:03:32Z</time>
      </trkpt>
      <trkpt lat="40.119567" lon="-5.454633">
        <ele>1500.0</ele>
        <time>2013-06-30T15:03:33Z</time>
      </trkpt>
      <trkpt lat="40.119483" lon="-5.454550">
        <ele>1497.0</ele>
        <time>2013-06-30T15:03:34Z</time>
      </trkpt>
      <trkpt lat="40.119417" lon="-5.454467">
        <ele>1494.0</ele>
        <time>2013-06-30T15:03:35Z</time>
      </trkpt>
      <trkpt lat="40.119367" lon="-5.454383">
        <ele>1491.0</ele>
        <time>2013-06-30T15:03:36Z</time>
      </trkpt>
      <trkpt lat="40.119317" lon="-5.454300">
        <ele>1489.0</ele>
        <time>2013-06-30T15:03:37Z</time>
      </trkpt>
      <trkpt lat="40.119283" lon="-5.454200">
        <ele>1488.0</ele>
        <time>2013-06-30T15:03:38Z</time>
      </trkpt>
      <trkpt lat="40.119250" lon="-5.454083">
        <ele>1486.0</ele>
        <time>2013-06-30T15:03:39Z</time>
      </trkpt>
      <trkpt lat="40.119250" lon="-5.453967">
        <ele>1484.0</ele>
        <time>2013-06-30T15:03:40Z</time>
      </trkpt>
      <trkpt lat="40.119267" lon="-5.453833">
        <ele>1482.0</ele>
        <time>2013-06-30T15:03:41Z</time>
      </trkpt>
      <trkpt lat="40.119300" lon="-5.453700">
        <ele>1480.0</ele>
        <time>2013-06-30T15:03:42Z</time>
      </trkpt>
      <trkpt lat="40.119333" lon="-5.453583">
        <ele>1477.0</ele>
        <time>2013-06-30T15:03:43Z</time>
      </trkpt>
      <trkpt lat="40.119367" lon="-5.453467">
        <ele>1476.0</ele>
        <time>2013-06-30T15:03:44Z</time>
      </trkpt>
      <trkpt lat="40.119417" lon="-5.453367">
        <ele>1475.0</ele>
        <time>2013-06-30T15:03:45Z</time>
      </trkpt>
      <trkpt lat="40.119450" lon="-5.453267">
        <ele>1474.0</ele>
        <time>2013-06-30T15:03:46Z</time>
      </trkpt>
      <trkpt lat="40.119517" lon="-5.453167">
        <ele>1472.0</ele>
        <time>2013-06-30T15:03:47Z</time>
      </trkpt>
      <trkpt lat="40.119583" lon="-5.453067">
        <ele>1469.0</ele>
        <time>2013-06-30T15:03:48Z</time>
      </trkpt>
      <trkpt lat="40.119667" lon="-5.452967">
        <ele>1466.0</ele>
        <time>2013-06-30T15:03:49Z</time>
      </trkpt>
      <trkpt lat="40.119750" lon="-5.452883">
        <ele>1465.0</ele>
        <time>2013-06-30T15:03:50Z</time>
      </trkpt>
      <trkpt lat="40.119817" lon="-5.452783">
        <ele>1466.0</ele>
        <time>2013-06-30T15:03:51Z</time>
      </trkpt>
      <trkpt lat="40.119850" lon="-5.452700">
        <ele>1466.0</ele>
        <time>2013-06-30T15:03:52Z</time>
      </trkpt>
      <trkpt lat="40.119900" lon="-5.452633">
        <ele>1466.0</ele>
        <time>2013-06-30T15:03:53Z</time>
      </trkpt>
      <trkpt lat="40.119967" lon="-5.452550">
        <ele>1466.0</ele>
        <time>2013-06-30T15:03:54Z</time>
      </trkpt>
      <trkpt lat="40.120033" lon="-5.452467">
        <ele>1467.0</ele>
        <time>2013-06-30T15:03:55Z</time>
      </trkpt>
      <trkpt lat="40.120100" lon="-5.452383">
        <ele>1468.0</ele>
        <time>2013-06-30T15:03:56Z</time>
      </trkpt>
      <trkpt lat="40.120167" lon="-5.452317">
        <ele>1469.0</ele>
        <time>2013-06-30T15:03:57Z</time>
      </trkpt>
      <trkpt lat="40.120233" lon="-5.452267">
        <ele>1471.0</ele>
        <time>2013-06-30T15:03:58Z</time>
      </trkpt>
      <trkpt lat="40.120350" lon="-5.452167">
        <ele>1474.0</ele>
        <time>2013-06-30T15:04:00Z</time>
      </trkpt>
      <trkpt lat="40.120417" lon="-5.452117">
        <ele>1475.0</ele>
        <time>2013-06-30T15:04:01Z</time>
      </trkpt>
      <trkpt lat="40.120483" lon="-5.452083">
        <ele>1475.0</ele>
        <time>2013-06-30T15:04:02Z</time>
      </trkpt>
      <trkpt lat="40.120567" lon="-5.452050">
        <ele>1476.0</ele>
        <time>2013-06-30T15:04:03Z</time>
      </trkpt>
      <trkpt lat="40.120750" lon="-5.451950">
        <ele>1482.0</ele>
        <time>2013-06-30T15:04:06Z</time>
      </trkpt>
      <trkpt lat="40.120783" lon="-5.451900">
        <ele>1484.0</ele>
        <time>2013-06-30T15:04:07Z</time>
      </trkpt>
      <trkpt lat="40.120833" lon="-5.451833">
        <ele>1484.0</ele>
        <time>2013-06-30T15:04:08Z</time>
      </trkpt>
      <trkpt lat="40.120850" lon="-5.451717">
        <ele>1483.0</ele>
        <time>2013-06-30T15:04:09Z</time>
      </trkpt>
      <trkpt lat="40.120867" lon="-5.451600">
        <ele>1483.0</ele>
        <time>2013-06-30T15:04:10Z</time>
      </trkpt>
      <trkpt lat="40.120833" lon="-5.451483">
        <ele>1484.0</ele>
        <time>2013-06-30T15:04:11Z</time>
      </trkpt>
      <trkpt lat="40.120800" lon="-5.451400">
        <ele>1486.0</ele>
        <time>2013-06-30T15:04:12Z</time>
      </trkpt>
      <trkpt lat="40.120733" lon="-5.451333">
        <ele>1487.0</ele>
        <time>2013-06-30T15:04:13Z</time>
      </trkpt>
      <trkpt lat="40.120683" lon="-5.451267">
        <ele>1488.0</ele>
        <time>2013-06-30T15:04:14Z</time>
      </trkpt>
      <trkpt lat="40.120600" lon="-5.451200">
        <ele>1488.0</ele>
        <time>2013-06-30T15:04:15Z</time>
      </trkpt>
      <trkpt lat="40.120517" lon="-5.451150">
        <ele>1489.0</ele>
        <time>2013-06-30T15:04:16Z</time>
      </trkpt>
      <trkpt lat="40.120417" lon="-5.451117">
        <ele>1489.0</ele>
        <time>2013-06-30T15:04:17Z</time>
      </trkpt>
      <trkpt lat="40.120317" lon="-5.451100">
        <ele>1490.0</ele>
        <time>2013-06-30T15:04:18Z</time>
      </trkpt>
      <trkpt lat="40.120233" lon="-5.451117">
        <ele>1492.0</ele>
        <time>2013-06-30T15:04:19Z</time>
      </trkpt>
      <trkpt lat="40.120133" lon="-5.451133">
        <ele>1493.0</ele>
        <time>2013-06-30T15:04:20Z</time>
      </trkpt>
      <trkpt lat="40.120050" lon="-5.451183">
        <ele>1493.0</ele>
        <time>2013-06-30T15:04:21Z</time>
      </trkpt>
      <trkpt lat="40.119950" lon="-5.451233">
        <ele>1493.0</ele>
        <time>2013-06-30T15:04:22Z</time>
      </trkpt>
      <trkpt lat="40.119850" lon="-5.451300">
        <ele>1494.0</ele>
        <time>2013-06-30T15:04:23Z</time>
      </trkpt>
      <trkpt lat="40.119783" lon="-5.451400">
        <ele>1494.0</ele>
        <time>2013-06-30T15:04:24Z</time>
      </trkpt>
      <trkpt lat="40.119700" lon="-5.451500">
        <ele>1495.0</ele>
        <time>2013-06-30T15:04:25Z</time>
      </trkpt>
      <trkpt lat="40.119650" lon="-5.451600">
        <ele>1497.0</ele>
        <time>2013-06-30T15:04:26Z</time>
      </trkpt>
      <trkpt lat="40.119600" lon="-5.451700">
        <ele>1499.0</ele>
        <time>2013-06-30T15:04:27Z</time>
      </trkpt>
      <trkpt lat="40.119567" lon="-5.451800">
        <ele>1501.0</ele>
        <time>2013-06-30T15:04:28Z</time>
      </trkpt>
      <trkpt lat="40.119533" lon="-5.451900">
        <ele>1503.0</ele>
        <time>2013-06-30T15:04:29Z</time>
      </trkpt>
      <trkpt lat="40.119500" lon="-5.452000">
        <ele>1504.0</ele>
        <time>2013-06-30T15:04:30Z</time>
      </trkpt>
      <trkpt lat="40.119467" lon="-5.452083">
        <ele>1506.0</ele>
        <time>2013-06-30T15:04:31Z</time>
      </trkpt>
      <trkpt lat="40.119450" lon="-5.452183">
        <ele>1506.0</ele>
        <time>2013-06-30T15:04:32Z</time>
      </trkpt>
      <trkpt lat="40.119450" lon="-5.452283">
        <ele>1506.0</ele>
        <time>2013-06-30T15:04:33Z</time>
      </trkpt>
      <trkpt lat="40.119450" lon="-5.452383">
        <ele>1508.0</ele>
        <time>2013-06-30T15:04:34Z</time>
      </trkpt>
      <trkpt lat="40.119450" lon="-5.452467">
        <ele>1510.0</ele>
        <time>2013-06-30T15:04:35Z</time>
      </trkpt>
      <trkpt lat="40.119483" lon="-5.452550">
        <ele>1512.0</ele>
        <time>2013-06-30T15:04:36Z</time>
      </trkpt>
      <trkpt lat="40.119500" lon="-5.452633">
        <ele>1513.0</ele>
        <time>2013-06-30T15:04:37Z</time>
      </trkpt>
      <trkpt lat="40.119550" lon="-5.452700">
        <ele>1513.0</ele>
        <time>2013-06-30T15:04:38Z</time>
      </trkpt>
      <trkpt lat="40.119583" lon="-5.452783">
        <ele>1514.0</ele>
        <time>2013-06-30T15:04:39Z</time>
      </trkpt>
      <trkpt lat="40.119633" lon="-5.452867">
        <ele>1514.0</ele>
        <time>2013-06-30T15:04:40Z</time>
      </trkpt>
      <trkpt lat="40.119683" lon="-5.452933">
        <ele>1514.0</ele>
        <time>2013-06-30T15:04:41Z</time>
      </trkpt>
      <trkpt lat="40.119717" lon="-5.453000">
        <ele>1515.0</ele>
        <time>2013-06-30T15:04:42Z</time>
      </trkpt>
      <trkpt lat="40.119767" lon="-5.453050">
        <ele>1516.0</ele>
        <time>2013-06-30T15:04:43Z</time>
      </trkpt>
      <trkpt lat="40.119817" lon="-5.453100">
        <ele>1516.0</ele>
        <time>2013-06-30T15:04:44Z</time>
      </trkpt>
      <trkpt lat="40.119883" lon="-5.453150">
        <ele>1516.0</ele>
        <time>2013-06-30T15:04:45Z</time>
      </trkpt>
      <trkpt lat="40.119950" lon="-5.453233">
        <ele>1516.0</ele>
        <time>2013-06-30T15:04:46Z</time>
      </trkpt>
      <trkpt lat="40.120017" lon="-5.453300">
        <ele>1516.0</ele>
        <time>2013-06-30T15:04:47Z</time>
      </trkpt>
      <trkpt lat="40.120083" lon="-5.453383">
        <ele>1517.0</ele>
        <time>2013-06-30T15:04:48Z</time>
      </trkpt>
      <trkpt lat="40.120167" lon="-5.453433">
        <ele>1518.0</ele>
        <time>2013-06-30T15:04:49Z</time>
      </trkpt>
      <trkpt lat="40.120233" lon="-5.453483">
        <ele>1519.0</ele>
        <time>2013-06-30T15:04:50Z</time>
      </trkpt>
      <trkpt lat="40.120317" lon="-5.453517">
        <ele>1520.0</ele>
        <time>2013-06-30T15:04:51Z</time>
      </trkpt>
      <trkpt lat="40.120400" lon="-5.453533">
        <ele>1520.0</ele>
        <time>2013-06-30T15:04:52Z</time>
      </trkpt>
      <trkpt lat="40.120500" lon="-5.453550">
        <ele>1520.0</ele>
        <time>2013-06-30T15:04:53Z</time>
      </trkpt>
      <trkpt lat="40.120583" lon="-5.453567">
        <ele>1521.0</ele>
        <time>2013-06-30T15:04:54Z</time>
      </trkpt>
      <trkpt lat="40.120650" lon="-5.453567">
        <ele>1522.0</ele>
        <time>2013-06-30T15:04:55Z</time>
      </trkpt>
      <trkpt lat="40.120733" lon="-5.453550">
        <ele>1524.0</ele>
        <time>2013-06-30T15:04:56Z</time>
      </trkpt>
      <trkpt lat="40.120817" lon="-5.453533">
        <ele>1525.0</ele>
        <time>2013-06-30T15:04:57Z</time>
      </trkpt>
      <trkpt lat="40.120900" lon="-5.453500">
        <ele>1527.0</ele>
        <time>2013-06-30T15:04:58Z</time>
      </trkpt>
      <trkpt lat="40.120983" lon="-5.453467">
        <ele>1528.0</ele>
        <time>2013-06-30T15:04:59Z</time>
      </trkpt>
      <trkpt lat="40.121050" lon="-5.453417">
        <ele>1530.0</ele>
        <time>2013-06-30T15:05:00Z</time>
      </trkpt>
      <trkpt lat="40.121117" lon="-5.453367">
        <ele>1531.0</ele>
        <time>2013-06-30T15:05:01Z</time>
      </trkpt>
      <trkpt lat="40.121200" lon="-5.453300">
        <ele>1532.0</ele>
        <time>2013-06-30T15:05:02Z</time>
      </trkpt>
      <trkpt lat="40.121283" lon="-5.453233">
        <ele>1533.0</ele>
        <time>2013-06-30T15:05:03Z</time>
      </trkpt>
      <trkpt lat="40.121367" lon="-5.453167">
        <ele>1533.0</ele>
        <time>2013-06-30T15:05:04Z</time>
      </trkpt>
      <trkpt lat="40.121450" lon="-5.453117">
        <ele>1534.0</ele>
        <time>2013-06-30T15:05:05Z</time>
      </trkpt>
      <trkpt lat="40.121517" lon="-5.453083">
        <ele>1536.0</ele>
        <time>2013-06-30T15:05:06Z</time>
      </trkpt>
      <trkpt lat="40.121567" lon="-5.453033">
        <ele>1538.0</ele>
        <time>2013-06-30T15:05:07Z</time>
      </trkpt>
      <trkpt lat="40.121633" lon="-5.452983">
        <ele>1539.0</ele>
        <time>2013-06-30T15:05:08Z</time>
      </trkpt>
      <trkpt lat="40.121750" lon="-5.452850">
        <ele>1539.0</ele>
        <time>2013-06-30T15:05:10Z</time>
      </trkpt>
      <trkpt lat="40.121783" lon="-5.452783">
        <ele>1539.0</ele>
        <time>2013-06-30T15:05:11Z</time>
      </trkpt>
      <trkpt lat="40.121800" lon="-5.452700">
        <ele>1540.0</ele>
        <time>2013-06-30T15:05:12Z</time>
      </trkpt>
      <trkpt lat="40.121783" lon="-5.452600">
        <ele>1539.0</ele>
        <time>2013-06-30T15:05:13Z</time>
      </trkpt>
      <trkpt lat="40.121767" lon="-5.452500">
        <ele>1538.0</ele>
        <time>2013-06-30T15:05:14Z</time>
      </trkpt>
      <trkpt lat="40.121733" lon="-5.452400">
        <ele>1537.0</ele>
        <time>2013-06-30T15:05:15Z</time>
      </trkpt>
      <trkpt lat="40.121700" lon="-5.452300">
        <ele>1537.0</ele>
        <time>2013-06-30T15:05:16Z</time>
      </trkpt>
      <trkpt lat="40.121633" lon="-5.452233">
        <ele>1538.0</ele>
        <time>2013-06-30T15:05:17Z</time>
      </trkpt>
      <trkpt lat="40.121567" lon="-5.452167">
        <ele>1538.0</ele>
        <time>2013-06-30T15:05:18Z</time>
      </trkpt>
      <trkpt lat="40.121500" lon="-5.452100">
        <ele>1539.0</ele>
        <time>2013-06-30T15:05:19Z</time>
      </trkpt>
      <trkpt lat="40.121417" lon="-5.452050">
        <ele>1539.0</ele>
        <time>2013-06-30T15:05:20Z</time>
      </trkpt>
      <trkpt lat="40.121350" lon="-5.452017">
        <ele>1540.0</ele>
        <time>2013-06-30T15:05:21Z</time>
      </trkpt>
      <trkpt lat="40.121250" lon="-5.452000">
        <ele>1540.0</ele>
        <time>2013-06-30T15:05:22Z</time>
      </trkpt>
      <trkpt lat="40.121167" lon="-5.452000">
        <ele>1539.0</ele>
        <time>2013-06-30T15:05:23Z</time>
      </trkpt>
      <trkpt lat="40.121050" lon="-5.451983">
        <ele>1538.0</ele>
        <time>2013-06-30T15:05:24Z</time>
      </trkpt>
      <trkpt lat="40.120950" lon="-5.452000">
        <ele>1538.0</ele>
        <time>2013-06-30T15:05:25Z</time>
      </trkpt>
      <trkpt lat="40.120833" lon="-5.452000">
        <ele>1538.0</ele>
        <time>2013-06-30T15:05:26Z</time>
      </trkpt>
      <trkpt lat="40.120750" lon="-5.452000">
        <ele>1539.0</ele>
        <time>2013-06-30T15:05:27Z</time>
      </trkpt>
      <trkpt lat="40.120667" lon="-5.452017">
        <ele>1541.0</ele>
        <time>2013-06-30T15:05:28Z</time>
      </trkpt>
      <trkpt lat="40.120583" lon="-5.452017">
        <ele>1542.0</ele>
        <time>2013-06-30T15:05:29Z</time>
      </trkpt>
      <trkpt lat="40.120517" lon="-5.452017">
        <ele>1543.0</ele>
        <time>2013-06-30T15:05:30Z</time>
      </trkpt>
      <trkpt lat="40.120417" lon="-5.452050">
        <ele>1543.0</ele>
        <time>2013-06-30T15:05:31Z</time>
      </trkpt>
      <trkpt lat="40.120333" lon="-5.452067">
        <ele>1543.0</ele>
        <time>2013-06-30T15:05:32Z</time>
      </trkpt>
      <trkpt lat="40.120233" lon="-5.452100">
        <ele>1543.0</ele>
        <time>2013-06-30T15:05:33Z</time>
      </trkpt>
      <trkpt lat="40.120150" lon="-5.452133">
        <ele>1545.0</ele>
        <time>2013-06-30T15:05:34Z</time>
      </trkpt>
      <trkpt lat="40.120083" lon="-5.452167">
        <ele>1546.0</ele>
        <time>2013-06-30T15:05:35Z</time>
      </trkpt>
      <trkpt lat="40.120000" lon="-5.452217">
        <ele>1547.0</ele>
        <time>2013-06-30T15:05:36Z</time>
      </trkpt>
      <trkpt lat="40.119900" lon="-5.452250">
        <ele>1547.0</ele>
        <time>2013-06-30T15:05:37Z</time>
      </trkpt>
      <trkpt lat="40.119800" lon="-5.452300">
        <ele>1547.0</ele>
        <time>2013-06-30T15:05:38Z</time>
      </trkpt>
      <trkpt lat="40.119700" lon="-5.452333">
        <ele>1548.0</ele>
        <time>2013-06-30T15:05:39Z</time>
      </trkpt>
      <trkpt lat="40.119617" lon="-5.452367">
        <ele>1550.0</ele>
        <time>2013-06-30T15:05:40Z</time>
      </trkpt>
      <trkpt lat="40.119533" lon="-5.452400">
        <ele>1552.0</ele>
        <time>2013-06-30T15:05:41Z</time>
      </trkpt>
      <trkpt lat="40.119450" lon="-5.452433">
        <ele>1553.0</ele>
        <time>2013-06-30T15:05:42Z</time>
      </trkpt>
      <trkpt lat="40.119367" lon="-5.452483">
        <ele>1554.0</ele>
        <time>2013-06-30T15:05:43Z</time>
      </trkpt>
      <trkpt lat="40.119283" lon="-5.452550">
        <ele>1554.0</ele>
        <time>2013-06-30T15:05:44Z</time>
      </trkpt>
      <trkpt lat="40.119200" lon="-5.452633">
        <ele>1554.0</ele>
        <time>2013-06-30T15:05:45Z</time>
      </trkpt>
      <trkpt lat="40.119150" lon="-5.452750">
        <ele>1554.0</ele>
        <time>2013-06-30T15:05:46Z</time>
      </trkpt>
      <trkpt lat="40.119117" lon="-5.452867">
        <ele>1554.0</ele>
        <time>2013-06-30T15:05:47Z</time>
      </trkpt>
      <trkpt lat="40.119100" lon="-5.452983">
        <ele>1554.0</ele>
        <time>2013-06-30T15:05:48Z</time>
      </trkpt>
      <trkpt lat="40.119083" lon="-5.453067">
        <ele>1554.0</ele>
        <time>2013-06-30T15:05:49Z</time>
      </trkpt>
      <trkpt lat="40.119050" lon="-5.453150">
        <ele>1555.0</ele>
        <time>2013-06-30T15:05:50Z</time>
      </trkpt>
      <trkpt lat="40.119000" lon="-5.453217">
        <ele>1554.0</ele>
        <time>2013-06-30T15:05:51Z</time>
      </trkpt>
      <trkpt lat="40.118950" lon="-5.453317">
        <ele>1552.0</ele>
        <time>2013-06-30T15:05:52Z</time>
      </trkpt>
      <trkpt lat="40.118883" lon="-5.453417">
        <ele>1549.0</ele>
        <time>2013-06-30T15:05:53Z</time>
      </trkpt>
      <trkpt lat="40.118833" lon="-5.453533">
        <ele>1547.0</ele>
        <time>2013-06-30T15:05:54Z</time>
      </trkpt>
      <trkpt lat="40.118767" lon="-5.453617">
        <ele>1546.0</ele>
        <time>2013-06-30T15:05:55Z</time>
      </trkpt>
      <trkpt lat="40.118717" lon="-5.453683">
        <ele>1544.0</ele>
        <time>2013-06-30T15:05:56Z</time>
      </trkpt>
      <trkpt lat="40.118633" lon="-5.453733">
        <ele>1543.0</ele>
        <time>2013-06-30T15:05:57Z</time>
      </trkpt>
      <trkpt lat="40.118550" lon="-5.453783">
        <ele>1540.0</ele>
        <time>2013-06-30T15:05:58Z</time>
      </trkpt>
      <trkpt lat="40.118467" lon="-5.453833">
        <ele>1538.0</ele>
        <time>2013-06-30T15:05:59Z</time>
      </trkpt>
      <trkpt lat="40.118383" lon="-5.453900">
        <ele>1536.0</ele>
        <time>2013-06-30T15:06:00Z</time>
      </trkpt>
      <trkpt lat="40.118317" lon="-5.453950">
        <ele>1534.0</ele>
        <time>2013-06-30T15:06:01Z</time>
      </trkpt>
      <trkpt lat="40.118250" lon="-5.453983">
        <ele>1532.0</ele>
        <time>2013-06-30T15:06:02Z</time>
      </trkpt>
      <trkpt lat="40.118200" lon="-5.454033">
        <ele>1531.0</ele>
        <time>2013-06-30T15:06:03Z</time>
      </trkpt>
      <trkpt lat="40.118117" lon="-5.454083">
        <ele>1528.0</ele>
        <time>2013-06-30T15:06:04Z</time>
      </trkpt>
      <trkpt lat="40.118033" lon="-5.454117">
        <ele>1524.0</ele>
        <time>2013-06-30T15:06:05Z</time>
      </trkpt>
      <trkpt lat="40.117950" lon="-5.454167">
        <ele>1521.0</ele>
        <time>2013-06-30T15:06:06Z</time>
      </trkpt>
      <trkpt lat="40.117867" lon="-5.454200">
        <ele>1518.0</ele>
        <time>2013-06-30T15:06:07Z</time>
      </trkpt>
      <trkpt lat="40.117783" lon="-5.454233">
        <ele>1516.0</ele>
        <time>2013-06-30T15:06:08Z</time>
      </trkpt>
      <trkpt lat="40.117700" lon="-5.454267">
        <ele>1514.0</ele>
        <time>2013-06-30T15:06:09Z</time>
      </trkpt>
      <trkpt lat="40.117617" lon="-5.454300">
        <ele>1512.0</ele>
        <time>2013-06-30T15:06:10Z</time>
      </trkpt>
      <trkpt lat="40.117517" lon="-5.454333">
        <ele>1509.0</ele>
        <time>2013-06-30T15:06:11Z</time>
      </trkpt>
      <trkpt lat="40.117417" lon="-5.454383">
        <ele>1506.0</ele>
        <time>2013-06-30T15:06:12Z</time>
      </trkpt>
      <trkpt lat="40.117317" lon="-5.454400">
        <ele>1503.0</ele>
        <time>2013-06-30T15:06:13Z</time>
      </trkpt>
      <trkpt lat="40.117233" lon="-5.454433">
        <ele>1502.0</ele>
        <time>2013-06-30T15:06:14Z</time>
      </trkpt>
      <trkpt lat="40.117133" lon="-5.454450">
        <ele>1500.0</ele>
        <time>2013-06-30T15:06:15Z</time>
      </trkpt>
      <trkpt lat="40.117033" lon="-5.454467">
        <ele>1498.0</ele>
        <time>2013-06-30T15:06:16Z</time>
      </trkpt>
      <trkpt lat="40.116950" lon="-5.454483">
        <ele>1495.0</ele>
        <time>2013-06-30T15:06:17Z</time>
      </trkpt>
      <trkpt lat="40.116850" lon="-5.454500">
        <ele>1493.0</ele>
        <time>2013-06-30T15:06:18Z</time>
      </trkpt>
      <trkpt lat="40.116750" lon="-5.454517">
        <ele>1490.0</ele>
        <time>2013-06-30T15:06:19Z</time>
      </trkpt>
      <trkpt lat="40.116667" lon="-5.454533">
        <ele>1488.0</ele>
        <time>2013-06-30T15:06:20Z</time>
      </trkpt>
      <trkpt lat="40.116583" lon="-5.454550">
        <ele>1485.0</ele>
        <time>2013-06-30T15:06:21Z</time>
      </trkpt>
      <trkpt lat="40.116483" lon="-5.454567">
        <ele>1482.0</ele>
        <time>2013-06-30T15:06:22Z</time>
      </trkpt>
      <trkpt lat="40.116383" lon="-5.454583">
        <ele>1479.0</ele>
        <time>2013-06-30T15:06:23Z</time>
      </trkpt>
      <trkpt lat="40.116283" lon="-5.454600">
        <ele>1475.0</ele>
        <time>2013-06-30T15:06:24Z</time>
      </trkpt>
      <trkpt lat="40.116200" lon="-5.454583">
        <ele>1472.0</ele>
        <time>2013-06-30T15:06:25Z</time>
      </trkpt>
      <trkpt lat="40.116100" lon="-5.454583">
        <ele>1470.0</ele>
        <time>2013-06-30T15:06:26Z</time>
      </trkpt>
      <trkpt lat="40.116033" lon="-5.454600">
        <ele>1468.0</ele>
        <time>2013-06-30T15:06:27Z</time>
      </trkpt>
      <trkpt lat="40.115933" lon="-5.454617">
        <ele>1465.0</ele>
        <time>2013-06-30T15:06:28Z</time>
      </trkpt>
      <trkpt lat="40.115850" lon="-5.454633">
        <ele>1462.0</ele>
        <time>2013-06-30T15:06:29Z</time>
      </trkpt>
      <trkpt lat="40.115750" lon="-5.454650">
        <ele>1459.0</ele>
        <time>2013-06-30T15:06:30Z</time>
      </trkpt>
      <trkpt lat="40.115650" lon="-5.454650">
        <ele>1456.0</ele>
        <time>2013-06-30T15:06:31Z</time>
      </trkpt>
      <trkpt lat="40.115567" lon="-5.454667">
        <ele>1455.0</ele>
        <time>2013-06-30T15:06:32Z</time>
      </trkpt>
      <trkpt lat="40.115483" lon="-5.454667">
        <ele>1453.0</ele>
        <time>2013-06-30T15:06:33Z</time>
      </trkpt>
      <trkpt lat="40.115417" lon="-5.454700">
        <ele>1451.0</ele>
        <time>2013-06-30T15:06:34Z</time>
      </trkpt>
      <trkpt lat="40.115333" lon="-5.454733">
        <ele>1449.0</ele>
        <time>2013-06-30T15:06:35Z</time>
      </trkpt>
      <trkpt lat="40.115250" lon="-5.454767">
        <ele>1446.0</ele>
        <time>2013-06-30T15:06:36Z</time>
      </trkpt>
      <trkpt lat="40.115183" lon="-5.454817">
        <ele>1443.0</ele>
        <time>2013-06-30T15:06:37Z</time>
      </trkpt>
      <trkpt lat="40.115100" lon="-5.454850">
        <ele>1441.0</ele>
        <time>2013-06-30T15:06:38Z</time>
      </trkpt>
      <trkpt lat="40.115033" lon="-5.454883">
        <ele>1439.0</ele>
        <time>2013-06-30T15:06:39Z</time>
      </trkpt>
      <trkpt lat="40.114967" lon="-5.454917">
        <ele>1436.0</ele>
        <time>2013-06-30T15:06:40Z</time>
      </trkpt>
      <trkpt lat="40.114883" lon="-5.454950">
        <ele>1433.0</ele>
        <time>2013-06-30T15:06:41Z</time>
      </trkpt>
      <trkpt lat="40.114800" lon="-5.455000">
        <ele>1429.0</ele>
        <time>2013-06-30T15:06:42Z</time>
      </trkpt>
      <trkpt lat="40.114717" lon="-5.455033">
        <ele>1427.0</ele>
        <time>2013-06-30T15:06:43Z</time>
      </trkpt>
      <trkpt lat="40.114633" lon="-5.455083">
        <ele>1425.0</ele>
        <time>2013-06-30T15:06:44Z</time>
      </trkpt>
      <trkpt lat="40.114567" lon="-5.455117">
        <ele>1425.0</ele>
        <time>2013-06-30T15:06:45Z</time>
      </trkpt>
      <trkpt lat="40.114500" lon="-5.455133">
        <ele>1424.0</ele>
        <time>2013-06-30T15:06:46Z</time>
      </trkpt>
      <trkpt lat="40.114433" lon="-5.455167">
        <ele>1423.0</ele>
        <time>2013-06-30T15:06:47Z</time>
      </trkpt>
      <trkpt lat="40.114350" lon="-5.455217">
        <ele>1422.0</ele>
        <time>2013-06-30T15:06:48Z</time>
      </trkpt>
      <trkpt lat="40.114267" lon="-5.455267">
        <ele>1420.0</ele>
        <time>2013-06-30T15:06:49Z</time>
      </trkpt>
      <trkpt lat="40.114183" lon="-5.455300">
        <ele>1418.0</ele>
        <time>2013-06-30T15:06:50Z</time>
      </trkpt>
      <trkpt lat="40.114100" lon="-5.455350">
        <ele>1416.0</ele>
        <time>2013-06-30T15:06:51Z</time>
      </trkpt>
      <trkpt lat="40.114017" lon="-5.455383">
        <ele>1415.0</ele>
        <time>2013-06-30T15:06:52Z</time>
      </trkpt>
      <trkpt lat="40.113933" lon="-5.455433">
        <ele>1413.0</ele>
        <time>2013-06-30T15:06:53Z</time>
      </trkpt>
      <trkpt lat="40.113867" lon="-5.455467">
        <ele>1410.0</ele>
        <time>2013-06-30T15:06:54Z</time>
      </trkpt>
      <trkpt lat="40.113783" lon="-5.455517">
        <ele>1407.0</ele>
        <time>2013-06-30T15:06:55Z</time>
      </trkpt>
      <trkpt lat="40.113700" lon="-5.455550">
        <ele>1405.0</ele>
        <time>2013-06-30T15:06:56Z</time>
      </trkpt>
      <trkpt lat="40.113633" lon="-5.455600">
        <ele>1402.0</ele>
        <time>2013-06-30T15:06:57Z</time>
      </trkpt>
      <trkpt lat="40.113550" lon="-5.455667">
        <ele>1399.0</ele>
        <time>2013-06-30T15:06:58Z</time>
      </trkpt>
      <trkpt lat="40.113467" lon="-5.455733">
        <ele>1396.0</ele>
        <time>2013-06-30T15:06:59Z</time>
      </trkpt>
      <trkpt lat="40.113383" lon="-5.455800">
        <ele>1394.0</ele>
        <time>2013-06-30T15:07:00Z</time>
      </trkpt>
      <trkpt lat="40.113317" lon="-5.455850">
        <ele>1393.0</ele>
        <time>2013-06-30T15:07:01Z</time>
      </trkpt>
      <trkpt lat="40.113250" lon="-5.455917">
        <ele>1393.0</ele>
        <time>2013-06-30T15:07:02Z</time>
      </trkpt>
      <trkpt lat="40.113183" lon="-5.455967">
        <ele>1391.0</ele>
        <time>2013-06-30T15:07:03Z</time>
      </trkpt>
      <trkpt lat="40.113117" lon="-5.456033">
        <ele>1389.0</ele>
        <time>2013-06-30T15:07:04Z</time>
      </trkpt>
      <trkpt lat="40.113033" lon="-5.456117">
        <ele>1387.0</ele>
        <time>2013-06-30T15:07:05Z</time>
      </trkpt>
      <trkpt lat="40.112950" lon="-5.456183">
        <ele>1385.0</ele>
        <time>2013-06-30T15:07:06Z</time>
      </trkpt>
      <trkpt lat="40.112867" lon="-5.456233">
        <ele>1385.0</ele>
        <time>2013-06-30T15:07:07Z</time>
      </trkpt>
      <trkpt lat="40.112800" lon="-5.456300">
        <ele>1385.0</ele>
        <time>2013-06-30T15:07:08Z</time>
      </trkpt>
      <trkpt lat="40.112733" lon="-5.456367">
        <ele>1385.0</ele>
        <time>2013-06-30T15:07:09Z</time>
      </trkpt>
      <trkpt lat="40.112667" lon="-5.456417">
        <ele>1384.0</ele>
        <time>2013-06-30T15:07:10Z</time>
      </trkpt>
      <trkpt lat="40.112600" lon="-5.456467">
        <ele>1383.0</ele>
        <time>2013-06-30T15:07:11Z</time>
      </trkpt>
      <trkpt lat="40.112517" lon="-5.456533">
        <ele>1383.0</ele>
        <time>2013-06-30T15:07:12Z</time>
      </trkpt>
      <trkpt lat="40.112450" lon="-5.456600">
        <ele>1382.0</ele>
        <time>2013-06-30T15:07:13Z</time>
      </trkpt>
      <trkpt lat="40.112367" lon="-5.456650">
        <ele>1381.0</ele>
        <time>2013-06-30T15:07:14Z</time>
      </trkpt>
      <trkpt lat="40.112283" lon="-5.456717">
        <ele>1380.0</ele>
        <time>2013-06-30T15:07:15Z</time>
      </trkpt>
      <trkpt lat="40.112217" lon="-5.456783">
        <ele>1380.0</ele>
        <time>2013-06-30T15:07:16Z</time>
      </trkpt>
      <trkpt lat="40.112150" lon="-5.456833">
        <ele>1380.0</ele>
        <time>2013-06-30T15:07:17Z</time>
      </trkpt>
      <trkpt lat="40.112083" lon="-5.456883">
        <ele>1380.0</ele>
        <time>2013-06-30T15:07:18Z</time>
      </trkpt>
      <trkpt lat="40.112017" lon="-5.456950">
        <ele>1379.0</ele>
        <time>2013-06-30T15:07:19Z</time>
      </trkpt>
      <trkpt lat="40.111950" lon="-5.457000">
        <ele>1378.0</ele>
        <time>2013-06-30T15:07:20Z</time>
      </trkpt>
      <trkpt lat="40.111867" lon="-5.457050">
        <ele>1377.0</ele>
        <time>2013-06-30T15:07:21Z</time>
      </trkpt>
      <trkpt lat="40.111800" lon="-5.457117">
        <ele>1377.0</ele>
        <time>2013-06-30T15:07:22Z</time>
      </trkpt>
      <trkpt lat="40.111717" lon="-5.457167">
        <ele>1376.0</ele>
        <time>2013-06-30T15:07:23Z</time>
      </trkpt>
      <trkpt lat="40.111650" lon="-5.457233">
        <ele>1377.0</ele>
        <time>2013-06-30T15:07:24Z</time>
      </trkpt>
      <trkpt lat="40.111583" lon="-5.457300">
        <ele>1377.0</ele>
        <time>2013-06-30T15:07:25Z</time>
      </trkpt>
      <trkpt lat="40.111517" lon="-5.457367">
        <ele>1378.0</ele>
        <time>2013-06-30T15:07:26Z</time>
      </trkpt>
      <trkpt lat="40.111450" lon="-5.457417">
        <ele>1379.0</ele>
        <time>2013-06-30T15:07:27Z</time>
      </trkpt>
      <trkpt lat="40.111383" lon="-5.457483">
        <ele>1379.0</ele>
        <time>2013-06-30T15:07:28Z</time>
      </trkpt>
      <trkpt lat="40.111317" lon="-5.457533">
        <ele>1380.0</ele>
        <time>2013-06-30T15:07:29Z</time>
      </trkpt>
      <trkpt lat="40.111250" lon="-5.457600">
        <ele>1380.0</ele>
        <time>2013-06-30T15:07:30Z</time>
      </trkpt>
      <trkpt lat="40.111183" lon="-5.457683">
        <ele>1381.0</ele>
        <time>2013-06-30T15:07:31Z</time>
      </trkpt>
      <trkpt lat="40.111117" lon="-5.457767">
        <ele>1382.0</ele>
        <time>2013-06-30T15:07:32Z</time>
      </trkpt>
      <trkpt lat="40.111050" lon="-5.457850">
        <ele>1384.0</ele>
        <time>2013-06-30T15:07:33Z</time>
      </trkpt>
      <trkpt lat="40.111000" lon="-5.457917">
        <ele>1386.0</ele>
        <time>2013-06-30T15:07:34Z</time>
      </trkpt>
      <trkpt lat="40.110933" lon="-5.457967">
        <ele>1387.0</ele>
        <time>2013-06-30T15:07:35Z</time>
      </trkpt>
      <trkpt lat="40.110883" lon="-5.458033">
        <ele>1388.0</ele>
        <time>2013-06-30T15:07:36Z</time>
      </trkpt>
      <trkpt lat="40.110817" lon="-5.458100">
        <ele>1388.0</ele>
        <time>2013-06-30T15:07:37Z</time>
      </trkpt>
      <trkpt lat="40.110733" lon="-5.458183">
        <ele>1388.0</ele>
        <time>2013-06-30T15:07:38Z</time>
      </trkpt>
      <trkpt lat="40.110667" lon="-5.458233">
        <ele>1389.0</ele>
        <time>2013-06-30T15:07:39Z</time>
      </trkpt>
      <trkpt lat="40.110583" lon="-5.458283">
        <ele>1390.0</ele>
        <time>2013-06-30T15:07:40Z</time>
      </trkpt>
      <trkpt lat="40.110517" lon="-5.458317">
        <ele>1391.0</ele>
        <time>2013-06-30T15:07:41Z</time>
      </trkpt>
      <trkpt lat="40.110433" lon="-5.458333">
        <ele>1391.0</ele>
        <time>2013-06-30T15:07:42Z</time>
      </trkpt>
      <trkpt lat="40.110333" lon="-5.458367">
        <ele>1392.0</ele>
        <time>2013-06-30T15:07:43Z</time>
      </trkpt>
      <trkpt lat="40.110233" lon="-5.458383">
        <ele>1392.0</ele>
        <time>2013-06-30T15:07:44Z</time>
      </trkpt>
      <trkpt lat="40.110150" lon="-5.458417">
        <ele>1393.0</ele>
        <time>2013-06-30T15:07:45Z</time>
      </trkpt>
      <trkpt lat="40.110050" lon="-5.458433">
        <ele>1394.0</ele>
        <time>2013-06-30T15:07:46Z</time>
      </trkpt>
      <trkpt lat="40.109967" lon="-5.458483">
        <ele>1394.0</ele>
        <time>2013-06-30T15:07:47Z</time>
      </trkpt>
      <trkpt lat="40.109883" lon="-5.458550">
        <ele>1394.0</ele>
        <time>2013-06-30T15:07:48Z</time>
      </trkpt>
      <trkpt lat="40.109817" lon="-5.458633">
        <ele>1394.0</ele>
        <time>2013-06-30T15:07:49Z</time>
      </trkpt>
      <trkpt lat="40.109750" lon="-5.458767">
        <ele>1393.0</ele>
        <time>2013-06-30T15:07:50Z</time>
      </trkpt>
      <trkpt lat="40.109733" lon="-5.458900">
        <ele>1393.0</ele>
        <time>2013-06-30T15:07:51Z</time>
      </trkpt>
      <trkpt lat="40.109767" lon="-5.459017">
        <ele>1393.0</ele>
        <time>2013-06-30T15:07:52Z</time>
      </trkpt>
      <trkpt lat="40.109817" lon="-5.459100">
        <ele>1393.0</ele>
        <time>2013-06-30T15:07:53Z</time>
      </trkpt>
      <trkpt lat="40.109883" lon="-5.459150">
        <ele>1393.0</ele>
        <time>2013-06-30T15:07:54Z</time>
      </trkpt>
      <trkpt lat="40.109933" lon="-5.459183">
        <ele>1394.0</ele>
        <time>2013-06-30T15:07:55Z</time>
      </trkpt>
      <trkpt lat="40.110000" lon="-5.459217">
        <ele>1394.0</ele>
        <time>2013-06-30T15:07:56Z</time>
      </trkpt>
      <trkpt lat="40.110067" lon="-5.459267">
        <ele>1394.0</ele>
        <time>2013-06-30T15:07:57Z</time>
      </trkpt>
      <trkpt lat="40.110133" lon="-5.459267">
        <ele>1395.0</ele>
        <time>2013-06-30T15:07:58Z</time>
      </trkpt>
      <trkpt lat="40.110200" lon="-5.459267">
        <ele>1396.0</ele>
        <time>2013-06-30T15:07:59Z</time>
      </trkpt>
      <trkpt lat="40.110267" lon="-5.459217">
        <ele>1396.0</ele>
        <time>2013-06-30T15:08:00Z</time>
      </trkpt>
      <trkpt lat="40.110317" lon="-5.459167">
        <ele>1397.0</ele>
        <time>2013-06-30T15:08:01Z</time>
      </trkpt>
      <trkpt lat="40.110383" lon="-5.459117">
        <ele>1399.0</ele>
        <time>2013-06-30T15:08:02Z</time>
      </trkpt>
      <trkpt lat="40.110517" lon="-5.458817">
        <ele>1403.0</ele>
        <time>2013-06-30T15:08:06Z</time>
      </trkpt>
      <trkpt lat="40.110517" lon="-5.458717">
        <ele>1404.0</ele>
        <time>2013-06-30T15:08:07Z</time>
      </trkpt>
      <trkpt lat="40.110517" lon="-5.458600">
        <ele>1406.0</ele>
        <time>2013-06-30T15:08:08Z</time>
      </trkpt>
      <trkpt lat="40.110500" lon="-5.458517">
        <ele>1407.0</ele>
        <time>2013-06-30T15:08:09Z</time>
      </trkpt>
      <trkpt lat="40.110483" lon="-5.458450">
        <ele>1409.0</ele>
        <time>2013-06-30T15:08:10Z</time>
      </trkpt>
      <trkpt lat="40.110450" lon="-5.458367">
        <ele>1410.0</ele>
        <time>2013-06-30T15:08:11Z</time>
      </trkpt>
      <trkpt lat="40.110417" lon="-5.458300">
        <ele>1410.0</ele>
        <time>2013-06-30T15:08:12Z</time>
      </trkpt>
      <trkpt lat="40.110383" lon="-5.458233">
        <ele>1410.0</ele>
        <time>2013-06-30T15:08:13Z</time>
      </trkpt>
      <trkpt lat="40.110350" lon="-5.458150">
        <ele>1410.0</ele>
        <time>2013-06-30T15:08:14Z</time>
      </trkpt>
      <trkpt lat="40.110300" lon="-5.458083">
        <ele>1410.0</ele>
        <time>2013-06-30T15:08:15Z</time>
      </trkpt>
      <trkpt lat="40.110250" lon="-5.458017">
        <ele>1411.0</ele>
        <time>2013-06-30T15:08:16Z</time>
      </trkpt>
      <trkpt lat="40.110200" lon="-5.457967">
        <ele>1411.0</ele>
        <time>2013-06-30T15:08:17Z</time>
      </trkpt>
      <trkpt lat="40.110167" lon="-5.457917">
        <ele>1412.0</ele>
        <time>2013-06-30T15:08:18Z</time>
      </trkpt>
      <trkpt lat="40.110133" lon="-5.457883">
        <ele>1413.0</ele>
        <time>2013-06-30T15:08:19Z</time>
      </trkpt>
      <trkpt lat="40.110083" lon="-5.457867">
        <ele>1414.0</ele>
        <time>2013-06-30T15:08:20Z</time>
      </trkpt>
      <trkpt lat="40.110017" lon="-5.457833">
        <ele>1413.0</ele>
        <time>2013-06-30T15:08:21Z</time>
      </trkpt>
      <trkpt lat="40.109950" lon="-5.457817">
        <ele>1413.0</ele>
        <time>2013-06-30T15:08:22Z</time>
      </trkpt>
      <trkpt lat="40.109883" lon="-5.457817">
        <ele>1414.0</ele>
        <time>2013-06-30T15:08:23Z</time>
      </trkpt>
      <trkpt lat="40.109817" lon="-5.457850">
        <ele>1415.0</ele>
        <time>2013-06-30T15:08:24Z</time>
      </trkpt>
      <trkpt lat="40.109750" lon="-5.457917">
        <ele>1415.0</ele>
        <time>2013-06-30T15:08:25Z</time>
      </trkpt>
      <trkpt lat="40.109683" lon="-5.458017">
        <ele>1415.0</ele>
        <time>2013-06-30T15:08:26Z</time>
      </trkpt>
      <trkpt lat="40.109633" lon="-5.458133">
        <ele>1415.0</ele>
        <time>2013-06-30T15:08:27Z</time>
      </trkpt>
      <trkpt lat="40.109617" lon="-5.458250">
        <ele>1415.0</ele>
        <time>2013-06-30T15:08:28Z</time>
      </trkpt>
      <trkpt lat="40.109600" lon="-5.458367">
        <ele>1415.0</ele>
        <time>2013-06-30T15:08:29Z</time>
      </trkpt>
      <trkpt lat="40.109633" lon="-5.458483">
        <ele>1416.0</ele>
        <time>2013-06-30T15:08:30Z</time>
      </trkpt>
      <trkpt lat="40.109683" lon="-5.458600">
        <ele>1416.0</ele>
        <time>2013-06-30T15:08:31Z</time>
      </trkpt>
      <trkpt lat="40.109733" lon="-5.458700">
        <ele>1416.0</ele>
        <time>2013-06-30T15:08:32Z</time>
      </trkpt>
      <trkpt lat="40.109800" lon="-5.458783">
        <ele>1417.0</ele>
        <time>2013-06-30T15:08:33Z</time>
      </trkpt>
      <trkpt lat="40.109883" lon="-5.458850">
        <ele>1417.0</ele>
        <time>2013-06-30T15:08:34Z</time>
      </trkpt>
      <trkpt lat="40.109950" lon="-5.458900">
        <ele>1418.0</ele>
        <time>2013-06-30T15:08:35Z</time>
      </trkpt>
      <trkpt lat="40.110033" lon="-5.458933">
        <ele>1417.0</ele>
        <time>2013-06-30T15:08:36Z</time>
      </trkpt>
      <trkpt lat="40.110117" lon="-5.458933">
        <ele>1417.0</ele>
        <time>2013-06-30T15:08:37Z</time>
      </trkpt>
      <trkpt lat="40.110200" lon="-5.458933">
        <ele>1417.0</ele>
        <time>2013-06-30T15:08:38Z</time>
      </trkpt>
      <trkpt lat="40.110283" lon="-5.458900">
        <ele>1417.0</ele>
        <time>2013-06-30T15:08:39Z</time>
      </trkpt>
      <trkpt lat="40.110350" lon="-5.458867">
        <ele>1417.0</ele>
        <time>2013-06-30T15:08:40Z</time>
      </trkpt>
      <trkpt lat="40.110417" lon="-5.458817">
        <ele>1417.0</ele>
        <time>2013-06-30T15:08:41Z</time>
      </trkpt>
      <trkpt lat="40.110467" lon="-5.458750">
        <ele>1417.0</ele>
        <time>2013-06-30T15:08:42Z</time>
      </trkpt>
      <trkpt lat="40.110517" lon="-5.458650">
        <ele>1416.0</ele>
        <time>2013-06-30T15:08:43Z</time>
      </trkpt>
      <trkpt lat="40.110550" lon="-5.458567">
        <ele>1417.0</ele>
        <time>2013-06-30T15:08:44Z</time>
      </trkpt>
      <trkpt lat="40.110583" lon="-5.458500">
        <ele>1418.0</ele>
        <time>2013-06-30T15:08:45Z</time>
      </trkpt>
      <trkpt lat="40.110600" lon="-5.458450">
        <ele>1419.0</ele>
        <time>2013-06-30T15:08:46Z</time>
      </trkpt>
      <trkpt lat="40.110600" lon="-5.458383">
        <ele>1420.0</ele>
        <time>2013-06-30T15:08:47Z</time>
      </trkpt>
      <trkpt lat="40.110583" lon="-5.458300">
        <ele>1419.0</ele>
        <time>2013-06-30T15:08:48Z</time>
      </trkpt>
      <trkpt lat="40.110550" lon="-5.458217">
        <ele>1418.0</ele>
        <time>2013-06-30T15:08:49Z</time>
      </trkpt>
      <trkpt lat="40.110517" lon="-5.458117">
        <ele>1417.0</ele>
        <time>2013-06-30T15:08:50Z</time>
      </trkpt>
      <trkpt lat="40.110483" lon="-5.458050">
        <ele>1418.0</ele>
        <time>2013-06-30T15:08:51Z</time>
      </trkpt>
      <trkpt lat="40.110450" lon="-5.458000">
        <ele>1418.0</ele>
        <time>2013-06-30T15:08:52Z</time>
      </trkpt>
      <trkpt lat="40.110417" lon="-5.457967">
        <ele>1419.0</ele>
        <time>2013-06-30T15:08:53Z</time>
      </trkpt>
      <trkpt lat="40.110367" lon="-5.457933">
        <ele>1419.0</ele>
        <time>2013-06-30T15:08:54Z</time>
      </trkpt>
      <trkpt lat="40.110317" lon="-5.457900">
        <ele>1419.0</ele>
        <time>2013-06-30T15:08:55Z</time>
      </trkpt>
      <trkpt lat="40.110250" lon="-5.457850">
        <ele>1418.0</ele>
        <time>2013-06-30T15:08:56Z</time>
      </trkpt>
      <trkpt lat="40.110200" lon="-5.457833">
        <ele>1418.0</ele>
        <time>2013-06-30T15:08:57Z</time>
      </trkpt>
      <trkpt lat="40.110133" lon="-5.457800">
        <ele>1419.0</ele>
        <time>2013-06-30T15:08:58Z</time>
      </trkpt>
      <trkpt lat="40.110067" lon="-5.457800">
        <ele>1420.0</ele>
        <time>2013-06-30T15:08:59Z</time>
      </trkpt>
      <trkpt lat="40.110000" lon="-5.457817">
        <ele>1420.0</ele>
        <time>2013-06-30T15:09:00Z</time>
      </trkpt>
      <trkpt lat="40.109933" lon="-5.457867">
        <ele>1420.0</ele>
        <time>2013-06-30T15:09:01Z</time>
      </trkpt>
      <trkpt lat="40.109850" lon="-5.457933">
        <ele>1419.0</ele>
        <time>2013-06-30T15:09:02Z</time>
      </trkpt>
      <trkpt lat="40.109767" lon="-5.458017">
        <ele>1419.0</ele>
        <time>2013-06-30T15:09:03Z</time>
      </trkpt>
      <trkpt lat="40.109717" lon="-5.458083">
        <ele>1420.0</ele>
        <time>2013-06-30T15:09:04Z</time>
      </trkpt>
      <trkpt lat="40.109667" lon="-5.458167">
        <ele>1421.0</ele>
        <time>2013-06-30T15:09:05Z</time>
      </trkpt>
      <trkpt lat="40.109600" lon="-5.458233">
        <ele>1421.0</ele>
        <time>2013-06-30T15:09:06Z</time>
      </trkpt>
      <trkpt lat="40.109550" lon="-5.458333">
        <ele>1421.0</ele>
        <time>2013-06-30T15:09:07Z</time>
      </trkpt>
      <trkpt lat="40.109483" lon="-5.458417">
        <ele>1421.0</ele>
        <time>2013-06-30T15:09:08Z</time>
      </trkpt>
      <trkpt lat="40.109433" lon="-5.458517">
        <ele>1421.0</ele>
        <time>2013-06-30T15:09:09Z</time>
      </trkpt>
      <trkpt lat="40.109383" lon="-5.458600">
        <ele>1420.0</ele>
        <time>2013-06-30T15:09:10Z</time>
      </trkpt>
      <trkpt lat="40.109350" lon="-5.458700">
        <ele>1421.0</ele>
        <time>2013-06-30T15:09:11Z</time>
      </trkpt>
      <trkpt lat="40.109317" lon="-5.458817">
        <ele>1421.0</ele>
        <time>2013-06-30T15:09:12Z</time>
      </trkpt>
      <trkpt lat="40.109283" lon="-5.458933">
        <ele>1421.0</ele>
        <time>2013-06-30T15:09:13Z</time>
      </trkpt>
      <trkpt lat="40.109267" lon="-5.459050">
        <ele>1420.0</ele>
        <time>2013-06-30T15:09:14Z</time>
      </trkpt>
      <trkpt lat="40.109233" lon="-5.459183">
        <ele>1420.0</ele>
        <time>2013-06-30T15:09:15Z</time>
      </trkpt>
      <trkpt lat="40.109200" lon="-5.459300">
        <ele>1421.0</ele>
        <time>2013-06-30T15:09:16Z</time>
      </trkpt>
      <trkpt lat="40.109167" lon="-5.459417">
        <ele>1421.0</ele>
        <time>2013-06-30T15:09:17Z</time>
      </trkpt>
      <trkpt lat="40.109117" lon="-5.459517">
        <ele>1422.0</ele>
        <time>2013-06-30T15:09:18Z</time>
      </trkpt>
      <trkpt lat="40.109083" lon="-5.459617">
        <ele>1424.0</ele>
        <time>2013-06-30T15:09:19Z</time>
      </trkpt>
      <trkpt lat="40.109033" lon="-5.459717">
        <ele>1424.0</ele>
        <time>2013-06-30T15:09:20Z</time>
      </trkpt>
      <trkpt lat="40.108983" lon="-5.459833">
        <ele>1425.0</ele>
        <time>2013-06-30T15:09:21Z</time>
      </trkpt>
      <trkpt lat="40.108917" lon="-5.459950">
        <ele>1425.0</ele>
        <time>2013-06-30T15:09:22Z</time>
      </trkpt>
      <trkpt lat="40.108867" lon="-5.460067">
        <ele>1426.0</ele>
        <time>2013-06-30T15:09:23Z</time>
      </trkpt>
      <trkpt lat="40.108800" lon="-5.460167">
        <ele>1427.0</ele>
        <time>2013-06-30T15:09:24Z</time>
      </trkpt>
      <trkpt lat="40.108767" lon="-5.460283">
        <ele>1428.0</ele>
        <time>2013-06-30T15:09:25Z</time>
      </trkpt>
      <trkpt lat="40.108767" lon="-5.460383">
        <ele>1428.0</ele>
        <time>2013-06-30T15:09:26Z</time>
      </trkpt>
      <trkpt lat="40.108783" lon="-5.460500">
        <ele>1427.0</ele>
        <time>2013-06-30T15:09:27Z</time>
      </trkpt>
      <trkpt lat="40.108833" lon="-5.460600">
        <ele>1426.0</ele>
        <time>2013-06-30T15:09:28Z</time>
      </trkpt>
      <trkpt lat="40.108900" lon="-5.460667">
        <ele>1426.0</ele>
        <time>2013-06-30T15:09:29Z</time>
      </trkpt>
      <trkpt lat="40.108967" lon="-5.460700">
        <ele>1426.0</ele>
        <time>2013-06-30T15:09:30Z</time>
      </trkpt>
      <trkpt lat="40.109017" lon="-5.460717">
        <ele>1426.0</ele>
        <time>2013-06-30T15:09:31Z</time>
      </trkpt>
      <trkpt lat="40.109083" lon="-5.460717">
        <ele>1425.0</ele>
        <time>2013-06-30T15:09:32Z</time>
      </trkpt>
      <trkpt lat="40.109150" lon="-5.460700">
        <ele>1425.0</ele>
        <time>2013-06-30T15:09:33Z</time>
      </trkpt>
      <trkpt lat="40.109200" lon="-5.460667">
        <ele>1424.0</ele>
        <time>2013-06-30T15:09:34Z</time>
      </trkpt>
      <trkpt lat="40.109250" lon="-5.460617">
        <ele>1424.0</ele>
        <time>2013-06-30T15:09:35Z</time>
      </trkpt>
      <trkpt lat="40.109300" lon="-5.460550">
        <ele>1422.0</ele>
        <time>2013-06-30T15:09:36Z</time>
      </trkpt>
      <trkpt lat="40.109367" lon="-5.460467">
        <ele>1422.0</ele>
        <time>2013-06-30T15:09:37Z</time>
      </trkpt>
      <trkpt lat="40.109400" lon="-5.460400">
        <ele>1421.0</ele>
        <time>2013-06-30T15:09:38Z</time>
      </trkpt>
      <trkpt lat="40.109417" lon="-5.460317">
        <ele>1422.0</ele>
        <time>2013-06-30T15:09:39Z</time>
      </trkpt>
      <trkpt lat="40.109433" lon="-5.460250">
        <ele>1422.0</ele>
        <time>2013-06-30T15:09:40Z</time>
      </trkpt>
      <trkpt lat="40.109450" lon="-5.460167">
        <ele>1422.0</ele>
        <time>2013-06-30T15:09:41Z</time>
      </trkpt>
      <trkpt lat="40.109467" lon="-5.460083">
        <ele>1421.0</ele>
        <time>2013-06-30T15:09:42Z</time>
      </trkpt>
      <trkpt lat="40.109483" lon="-5.460000">
        <ele>1421.0</ele>
        <time>2013-06-30T15:09:43Z</time>
      </trkpt>
      <trkpt lat="40.109483" lon="-5.459917">
        <ele>1420.0</ele>
        <time>2013-06-30T15:09:44Z</time>
      </trkpt>
      <trkpt lat="40.109500" lon="-5.459833">
        <ele>1420.0</ele>
        <time>2013-06-30T15:09:45Z</time>
      </trkpt>
      <trkpt lat="40.109517" lon="-5.459750">
        <ele>1420.0</ele>
        <time>2013-06-30T15:09:46Z</time>
      </trkpt>
      <trkpt lat="40.109500" lon="-5.459683">
        <ele>1419.0</ele>
        <time>2013-06-30T15:09:47Z</time>
      </trkpt>
      <trkpt lat="40.109483" lon="-5.459617">
        <ele>1420.0</ele>
        <time>2013-06-30T15:09:48Z</time>
      </trkpt>
      <trkpt lat="40.109450" lon="-5.459567">
        <ele>1419.0</ele>
        <time>2013-06-30T15:09:49Z</time>
      </trkpt>
      <trkpt lat="40.109417" lon="-5.459517">
        <ele>1419.0</ele>
        <time>2013-06-30T15:09:50Z</time>
      </trkpt>
      <trkpt lat="40.109367" lon="-5.459483">
        <ele>1419.0</ele>
        <time>2013-06-30T15:09:51Z</time>
      </trkpt>
      <trkpt lat="40.109317" lon="-5.459433">
        <ele>1418.0</ele>
        <time>2013-06-30T15:09:52Z</time>
      </trkpt>
      <trkpt lat="40.109250" lon="-5.459383">
        <ele>1416.0</ele>
        <time>2013-06-30T15:09:53Z</time>
      </trkpt>
      <trkpt lat="40.109183" lon="-5.459350">
        <ele>1415.0</ele>
        <time>2013-06-30T15:09:54Z</time>
      </trkpt>
      <trkpt lat="40.109117" lon="-5.459333">
        <ele>1414.0</ele>
        <time>2013-06-30T15:09:55Z</time>
      </trkpt>
      <trkpt lat="40.109050" lon="-5.459333">
        <ele>1414.0</ele>
        <time>2013-06-30T15:09:56Z</time>
      </trkpt>
      <trkpt lat="40.108983" lon="-5.459350">
        <ele>1414.0</ele>
        <time>2013-06-30T15:09:57Z</time>
      </trkpt>
      <trkpt lat="40.108900" lon="-5.459367">
        <ele>1414.0</ele>
        <time>2013-06-30T15:09:58Z</time>
      </trkpt>
      <trkpt lat="40.108817" lon="-5.459383">
        <ele>1413.0</ele>
        <time>2013-06-30T15:09:59Z</time>
      </trkpt>
      <trkpt lat="40.108750" lon="-5.459417">
        <ele>1412.0</ele>
        <time>2013-06-30T15:10:00Z</time>
      </trkpt>
      <trkpt lat="40.108667" lon="-5.459467">
        <ele>1412.0</ele>
        <time>2013-06-30T15:10:01Z</time>
      </trkpt>
      <trkpt lat="40.108600" lon="-5.459517">
        <ele>1412.0</ele>
        <time>2013-06-30T15:10:02Z</time>
      </trkpt>
      <trkpt lat="40.108533" lon="-5.459583">
        <ele>1412.0</ele>
        <time>2013-06-30T15:10:03Z</time>
      </trkpt>
      <trkpt lat="40.108467" lon="-5.459650">
        <ele>1411.0</ele>
        <time>2013-06-30T15:10:04Z</time>
      </trkpt>
      <trkpt lat="40.108383" lon="-5.459733">
        <ele>1409.0</ele>
        <time>2013-06-30T15:10:05Z</time>
      </trkpt>
      <trkpt lat="40.108317" lon="-5.459817">
        <ele>1407.0</ele>
        <time>2013-06-30T15:10:06Z</time>
      </trkpt>
      <trkpt lat="40.108233" lon="-5.459900">
        <ele>1406.0</ele>
        <time>2013-06-30T15:10:07Z</time>
      </trkpt>
      <trkpt lat="40.108167" lon="-5.459983">
        <ele>1405.0</ele>
        <time>2013-06-30T15:10:08Z</time>
      </trkpt>
      <trkpt lat="40.108100" lon="-5.460083">
        <ele>1405.0</ele>
        <time>2013-06-30T15:10:09Z</time>
      </trkpt>
      <trkpt lat="40.108033" lon="-5.460167">
        <ele>1405.0</ele>
        <time>2013-06-30T15:10:10Z</time>
      </trkpt>
      <trkpt lat="40.107983" lon="-5.460250">
        <ele>1404.0</ele>
        <time>2013-06-30T15:10:11Z</time>
      </trkpt>
      <trkpt lat="40.107917" lon="-5.460333">
        <ele>1404.0</ele>
        <time>2013-06-30T15:10:12Z</time>
      </trkpt>
      <trkpt lat="40.107850" lon="-5.460433">
        <ele>1404.0</ele>
        <time>2013-06-30T15:10:13Z</time>
      </trkpt>
      <trkpt lat="40.107783" lon="-5.460533">
        <ele>1403.0</ele>
        <time>2013-06-30T15:10:14Z</time>
      </trkpt>
      <trkpt lat="40.107717" lon="-5.460617">
        <ele>1403.0</ele>
        <time>2013-06-30T15:10:15Z</time>
      </trkpt>
      <trkpt lat="40.107650" lon="-5.460700">
        <ele>1403.0</ele>
        <time>2013-06-30T15:10:16Z</time>
      </trkpt>
      <trkpt lat="40.107583" lon="-5.460783">
        <ele>1403.0</ele>
        <time>2013-06-30T15:10:17Z</time>
      </trkpt>
      <trkpt lat="40.107517" lon="-5.460883">
        <ele>1403.0</ele>
        <time>2013-06-30T15:10:18Z</time>
      </trkpt>
      <trkpt lat="40.107450" lon="-5.460983">
        <ele>1402.0</ele>
        <time>2013-06-30T15:10:19Z</time>
      </trkpt>
      <trkpt lat="40.107367" lon="-5.461067">
        <ele>1402.0</ele>
        <time>2013-06-30T15:10:20Z</time>
      </trkpt>
      <trkpt lat="40.107317" lon="-5.461150">
        <ele>1402.0</ele>
        <time>2013-06-30T15:10:21Z</time>
      </trkpt>
      <trkpt lat="40.107250" lon="-5.461200">
        <ele>1401.0</ele>
        <time>2013-06-30T15:10:22Z</time>
      </trkpt>
      <trkpt lat="40.107183" lon="-5.461283">
        <ele>1400.0</ele>
        <time>2013-06-30T15:10:23Z</time>
      </trkpt>
      <trkpt lat="40.107100" lon="-5.461350">
        <ele>1399.0</ele>
        <time>2013-06-30T15:10:24Z</time>
      </trkpt>
      <trkpt lat="40.107017" lon="-5.461433">
        <ele>1398.0</ele>
        <time>2013-06-30T15:10:25Z</time>
      </trkpt>
      <trkpt lat="40.106950" lon="-5.461517">
        <ele>1397.0</ele>
        <time>2013-06-30T15:10:26Z</time>
      </trkpt>
      <trkpt lat="40.106867" lon="-5.461600">
        <ele>1397.0</ele>
        <time>2013-06-30T15:10:27Z</time>
      </trkpt>
      <trkpt lat="40.106800" lon="-5.461683">
        <ele>1397.0</ele>
        <time>2013-06-30T15:10:28Z</time>
      </trkpt>
      <trkpt lat="40.106750" lon="-5.461750">
        <ele>1397.0</ele>
        <time>2013-06-30T15:10:29Z</time>
      </trkpt>
      <trkpt lat="40.106667" lon="-5.461817">
        <ele>1397.0</ele>
        <time>2013-06-30T15:10:30Z</time>
      </trkpt>
      <trkpt lat="40.106600" lon="-5.461900">
        <ele>1395.0</ele>
        <time>2013-06-30T15:10:31Z</time>
      </trkpt>
      <trkpt lat="40.106517" lon="-5.461983">
        <ele>1393.0</ele>
        <time>2013-06-30T15:10:32Z</time>
      </trkpt>
      <trkpt lat="40.106450" lon="-5.462067">
        <ele>1392.0</ele>
        <time>2013-06-30T15:10:33Z</time>
      </trkpt>
      <trkpt lat="40.106367" lon="-5.462167">
        <ele>1390.0</ele>
        <time>2013-06-30T15:10:34Z</time>
      </trkpt>
      <trkpt lat="40.106283" lon="-5.462250">
        <ele>1390.0</ele>
        <time>2013-06-30T15:10:35Z</time>
      </trkpt>
      <trkpt lat="40.106217" lon="-5.462333">
        <ele>1390.0</ele>
        <time>2013-06-30T15:10:36Z</time>
      </trkpt>
      <trkpt lat="40.106150" lon="-5.462417">
        <ele>1390.0</ele>
        <time>2013-06-30T15:10:37Z</time>
      </trkpt>
      <trkpt lat="40.106083" lon="-5.462500">
        <ele>1389.0</ele>
        <time>2013-06-30T15:10:38Z</time>
      </trkpt>
      <trkpt lat="40.106000" lon="-5.462583">
        <ele>1388.0</ele>
        <time>2013-06-30T15:10:39Z</time>
      </trkpt>
      <trkpt lat="40.105933" lon="-5.462683">
        <ele>1387.0</ele>
        <time>2013-06-30T15:10:40Z</time>
      </trkpt>
      <trkpt lat="40.105850" lon="-5.462800">
        <ele>1385.0</ele>
        <time>2013-06-30T15:10:41Z</time>
      </trkpt>
      <trkpt lat="40.105783" lon="-5.462917">
        <ele>1384.0</ele>
        <time>2013-06-30T15:10:42Z</time>
      </trkpt>
      <trkpt lat="40.105717" lon="-5.463017">
        <ele>1383.0</ele>
        <time>2013-06-30T15:10:43Z</time>
      </trkpt>
      <trkpt lat="40.105650" lon="-5.463133">
        <ele>1382.0</ele>
        <time>2013-06-30T15:10:44Z</time>
      </trkpt>
      <trkpt lat="40.105583" lon="-5.463233">
        <ele>1382.0</ele>
        <time>2013-06-30T15:10:45Z</time>
      </trkpt>
      <trkpt lat="40.105517" lon="-5.463317">
        <ele>1384.0</ele>
        <time>2013-06-30T15:10:46Z</time>
      </trkpt>
      <trkpt lat="40.105467" lon="-5.463400">
        <ele>1385.0</ele>
        <time>2013-06-30T15:10:47Z</time>
      </trkpt>
      <trkpt lat="40.105400" lon="-5.463500">
        <ele>1384.0</ele>
        <time>2013-06-30T15:10:48Z</time>
      </trkpt>
      <trkpt lat="40.105333" lon="-5.463617">
        <ele>1383.0</ele>
        <time>2013-06-30T15:10:49Z</time>
      </trkpt>
      <trkpt lat="40.105283" lon="-5.463733">
        <ele>1382.0</ele>
        <time>2013-06-30T15:10:50Z</time>
      </trkpt>
      <trkpt lat="40.105233" lon="-5.463833">
        <ele>1383.0</ele>
        <time>2013-06-30T15:10:51Z</time>
      </trkpt>
      <trkpt lat="40.105183" lon="-5.463933">
        <ele>1384.0</ele>
        <time>2013-06-30T15:10:52Z</time>
      </trkpt>
      <trkpt lat="40.105133" lon="-5.464033">
        <ele>1384.0</ele>
        <time>2013-06-30T15:10:53Z</time>
      </trkpt>
      <trkpt lat="40.105083" lon="-5.464167">
        <ele>1384.0</ele>
        <time>2013-06-30T15:10:54Z</time>
      </trkpt>
      <trkpt lat="40.105033" lon="-5.464300">
        <ele>1383.0</ele>
        <time>2013-06-30T15:10:55Z</time>
      </trkpt>
      <trkpt lat="40.104967" lon="-5.464433">
        <ele>1381.0</ele>
        <time>2013-06-30T15:10:56Z</time>
      </trkpt>
      <trkpt lat="40.104933" lon="-5.464567">
        <ele>1381.0</ele>
        <time>2013-06-30T15:10:57Z</time>
      </trkpt>
      <trkpt lat="40.104900" lon="-5.464683">
        <ele>1380.0</ele>
        <time>2013-06-30T15:10:58Z</time>
      </trkpt>
      <trkpt lat="40.104850" lon="-5.464800">
        <ele>1380.0</ele>
        <time>2013-06-30T15:10:59Z</time>
      </trkpt>
      <trkpt lat="40.104817" lon="-5.464917">
        <ele>1379.0</ele>
        <time>2013-06-30T15:11:00Z</time>
      </trkpt>
      <trkpt lat="40.104750" lon="-5.465067">
        <ele>1377.0</ele>
        <time>2013-06-30T15:11:01Z</time>
      </trkpt>
      <trkpt lat="40.104717" lon="-5.465200">
        <ele>1374.0</ele>
        <time>2013-06-30T15:11:02Z</time>
      </trkpt>
      <trkpt lat="40.104667" lon="-5.465333">
        <ele>1373.0</ele>
        <time>2013-06-30T15:11:03Z</time>
      </trkpt>
      <trkpt lat="40.104633" lon="-5.465450">
        <ele>1373.0</ele>
        <time>2013-06-30T15:11:04Z</time>
      </trkpt>
      <trkpt lat="40.104600" lon="-5.465550">
        <ele>1372.0</ele>
        <time>2013-06-30T15:11:05Z</time>
      </trkpt>
      <trkpt lat="40.104550" lon="-5.465650">
        <ele>1371.0</ele>
        <time>2013-06-30T15:11:06Z</time>
      </trkpt>
      <trkpt lat="40.104500" lon="-5.465767">
        <ele>1370.0</ele>
        <time>2013-06-30T15:11:07Z</time>
      </trkpt>
      <trkpt lat="40.104467" lon="-5.465883">
        <ele>1368.0</ele>
        <time>2013-06-30T15:11:08Z</time>
      </trkpt>
      <trkpt lat="40.104417" lon="-5.466000">
        <ele>1366.0</ele>
        <time>2013-06-30T15:11:09Z</time>
      </trkpt>
      <trkpt lat="40.104367" lon="-5.466117">
        <ele>1364.0</ele>
        <time>2013-06-30T15:11:10Z</time>
      </trkpt>
      <trkpt lat="40.104333" lon="-5.466233">
        <ele>1362.0</ele>
        <time>2013-06-30T15:11:11Z</time>
      </trkpt>
      <trkpt lat="40.104283" lon="-5.466350">
        <ele>1360.0</ele>
        <time>2013-06-30T15:11:12Z</time>
      </trkpt>
      <trkpt lat="40.104250" lon="-5.466483">
        <ele>1357.0</ele>
        <time>2013-06-30T15:11:13Z</time>
      </trkpt>
      <trkpt lat="40.104200" lon="-5.466600">
        <ele>1355.0</ele>
        <time>2013-06-30T15:11:14Z</time>
      </trkpt>
      <trkpt lat="40.104167" lon="-5.466750">
        <ele>1352.0</ele>
        <time>2013-06-30T15:11:15Z</time>
      </trkpt>
      <trkpt lat="40.104133" lon="-5.466867">
        <ele>1351.0</ele>
        <time>2013-06-30T15:11:16Z</time>
      </trkpt>
      <trkpt lat="40.104100" lon="-5.467000">
        <ele>1349.0</ele>
        <time>2013-06-30T15:11:17Z</time>
      </trkpt>
      <trkpt lat="40.104067" lon="-5.467117">
        <ele>1347.0</ele>
        <time>2013-06-30T15:11:18Z</time>
      </trkpt>
      <trkpt lat="40.104017" lon="-5.467250">
        <ele>1346.0</ele>
        <time>2013-06-30T15:11:19Z</time>
      </trkpt>
      <trkpt lat="40.103983" lon="-5.467367">
        <ele>1345.0</ele>
        <time>2013-06-30T15:11:20Z</time>
      </trkpt>
      <trkpt lat="40.103933" lon="-5.467500">
        <ele>1344.0</ele>
        <time>2013-06-30T15:11:21Z</time>
      </trkpt>
      <trkpt lat="40.103900" lon="-5.467633">
        <ele>1343.0</ele>
        <time>2013-06-30T15:11:22Z</time>
      </trkpt>
      <trkpt lat="40.103867" lon="-5.467767">
        <ele>1343.0</ele>
        <time>2013-06-30T15:11:23Z</time>
      </trkpt>
      <trkpt lat="40.103817" lon="-5.467883">
        <ele>1342.0</ele>
        <time>2013-06-30T15:11:24Z</time>
      </trkpt>
      <trkpt lat="40.103783" lon="-5.468000">
        <ele>1341.0</ele>
        <time>2013-06-30T15:11:25Z</time>
      </trkpt>
      <trkpt lat="40.103733" lon="-5.468133">
        <ele>1339.0</ele>
        <time>2013-06-30T15:11:26Z</time>
      </trkpt>
      <trkpt lat="40.103683" lon="-5.468250">
        <ele>1338.0</ele>
        <time>2013-06-30T15:11:27Z</time>
      </trkpt>
      <trkpt lat="40.103633" lon="-5.468383">
        <ele>1337.0</ele>
        <time>2013-06-30T15:11:28Z</time>
      </trkpt>
      <trkpt lat="40.103583" lon="-5.468500">
        <ele>1336.0</ele>
        <time>2013-06-30T15:11:29Z</time>
      </trkpt>
      <trkpt lat="40.103550" lon="-5.468617">
        <ele>1336.0</ele>
        <time>2013-06-30T15:11:30Z</time>
      </trkpt>
      <trkpt lat="40.103517" lon="-5.468750">
        <ele>1335.0</ele>
        <time>2013-06-30T15:11:31Z</time>
      </trkpt>
      <trkpt lat="40.103467" lon="-5.468867">
        <ele>1333.0</ele>
        <time>2013-06-30T15:11:32Z</time>
      </trkpt>
      <trkpt lat="40.103417" lon="-5.469000">
        <ele>1332.0</ele>
        <time>2013-06-30T15:11:33Z</time>
      </trkpt>
      <trkpt lat="40.103367" lon="-5.469117">
        <ele>1330.0</ele>
        <time>2013-06-30T15:11:34Z</time>
      </trkpt>
      <trkpt lat="40.103317" lon="-5.469233">
        <ele>1328.0</ele>
        <time>2013-06-30T15:11:35Z</time>
      </trkpt>
      <trkpt lat="40.103267" lon="-5.469367">
        <ele>1327.0</ele>
        <time>2013-06-30T15:11:36Z</time>
      </trkpt>
      <trkpt lat="40.103217" lon="-5.469483">
        <ele>1324.0</ele>
        <time>2013-06-30T15:11:37Z</time>
      </trkpt>
      <trkpt lat="40.103167" lon="-5.469600">
        <ele>1322.0</ele>
        <time>2013-06-30T15:11:38Z</time>
      </trkpt>
      <trkpt lat="40.103133" lon="-5.469733">
        <ele>1320.0</ele>
        <time>2013-06-30T15:11:39Z</time>
      </trkpt>
      <trkpt lat="40.103100" lon="-5.469867">
        <ele>1319.0</ele>
        <time>2013-06-30T15:11:40Z</time>
      </trkpt>
      <trkpt lat="40.103050" lon="-5.470000">
        <ele>1318.0</ele>
        <time>2013-06-30T15:11:41Z</time>
      </trkpt>
      <trkpt lat="40.103017" lon="-5.470117">
        <ele>1317.0</ele>
        <time>2013-06-30T15:11:42Z</time>
      </trkpt>
      <trkpt lat="40.102983" lon="-5.470233">
        <ele>1316.0</ele>
        <time>2013-06-30T15:11:43Z</time>
      </trkpt>
      <trkpt lat="40.102933" lon="-5.470350">
        <ele>1315.0</ele>
        <time>2013-06-30T15:11:44Z</time>
      </trkpt>
      <trkpt lat="40.102883" lon="-5.470450">
        <ele>1313.0</ele>
        <time>2013-06-30T15:11:45Z</time>
      </trkpt>
      <trkpt lat="40.102850" lon="-5.470567">
        <ele>1311.0</ele>
        <time>2013-06-30T15:11:46Z</time>
      </trkpt>
      <trkpt lat="40.102783" lon="-5.470700">
        <ele>1308.0</ele>
        <time>2013-06-30T15:11:47Z</time>
      </trkpt>
      <trkpt lat="40.102750" lon="-5.470833">
        <ele>1305.0</ele>
        <time>2013-06-30T15:11:48Z</time>
      </trkpt>
      <trkpt lat="40.102717" lon="-5.470950">
        <ele>1303.0</ele>
        <time>2013-06-30T15:11:49Z</time>
      </trkpt>
      <trkpt lat="40.102667" lon="-5.471050">
        <ele>1302.0</ele>
        <time>2013-06-30T15:11:50Z</time>
      </trkpt>
      <trkpt lat="40.102633" lon="-5.471167">
        <ele>1301.0</ele>
        <time>2013-06-30T15:11:51Z</time>
      </trkpt>
      <trkpt lat="40.102583" lon="-5.471267">
        <ele>1299.0</ele>
        <time>2013-06-30T15:11:52Z</time>
      </trkpt>
      <trkpt lat="40.102533" lon="-5.471383">
        <ele>1296.0</ele>
        <time>2013-06-30T15:11:53Z</time>
      </trkpt>
      <trkpt lat="40.102483" lon="-5.471500">
        <ele>1294.0</ele>
        <time>2013-06-30T15:11:54Z</time>
      </trkpt>
      <trkpt lat="40.102433" lon="-5.471600">
        <ele>1292.0</ele>
        <time>2013-06-30T15:11:55Z</time>
      </trkpt>
      <trkpt lat="40.102400" lon="-5.471700">
        <ele>1290.0</ele>
        <time>2013-06-30T15:11:56Z</time>
      </trkpt>
      <trkpt lat="40.102350" lon="-5.471800">
        <ele>1288.0</ele>
        <time>2013-06-30T15:11:57Z</time>
      </trkpt>
      <trkpt lat="40.102250" lon="-5.472033">
        <ele>1285.0</ele>
        <time>2013-06-30T15:11:59Z</time>
      </trkpt>
      <trkpt lat="40.102200" lon="-5.472150">
        <ele>1283.0</ele>
        <time>2013-06-30T15:12:00Z</time>
      </trkpt>
      <trkpt lat="40.102150" lon="-5.472250">
        <ele>1281.0</ele>
        <time>2013-06-30T15:12:01Z</time>
      </trkpt>
      <trkpt lat="40.102100" lon="-5.472367">
        <ele>1280.0</ele>
        <time>2013-06-30T15:12:02Z</time>
      </trkpt>
      <trkpt lat="40.102050" lon="-5.472467">
        <ele>1279.0</ele>
        <time>2013-06-30T15:12:03Z</time>
      </trkpt>
      <trkpt lat="40.102000" lon="-5.472583">
        <ele>1277.0</ele>
        <time>2013-06-30T15:12:04Z</time>
      </trkpt>
      <trkpt lat="40.101950" lon="-5.472700">
        <ele>1275.0</ele>
        <time>2013-06-30T15:12:05Z</time>
      </trkpt>
      <trkpt lat="40.101900" lon="-5.472800">
        <ele>1274.0</ele>
        <time>2013-06-30T15:12:06Z</time>
      </trkpt>
      <trkpt lat="40.101833" lon="-5.472900">
        <ele>1271.0</ele>
        <time>2013-06-30T15:12:07Z</time>
      </trkpt>
      <trkpt lat="40.101783" lon="-5.473000">
        <ele>1269.0</ele>
        <time>2013-06-30T15:12:08Z</time>
      </trkpt>
      <trkpt lat="40.101733" lon="-5.473100">
        <ele>1268.0</ele>
        <time>2013-06-30T15:12:09Z</time>
      </trkpt>
      <trkpt lat="40.101683" lon="-5.473200">
        <ele>1268.0</ele>
        <time>2013-06-30T15:12:10Z</time>
      </trkpt>
      <trkpt lat="40.101633" lon="-5.473283">
        <ele>1267.0</ele>
        <time>2013-06-30T15:12:11Z</time>
      </trkpt>
      <trkpt lat="40.101567" lon="-5.473367">
        <ele>1266.0</ele>
        <time>2013-06-30T15:12:12Z</time>
      </trkpt>
      <trkpt lat="40.101500" lon="-5.473450">
        <ele>1264.0</ele>
        <time>2013-06-30T15:12:13Z</time>
      </trkpt>
      <trkpt lat="40.101433" lon="-5.473533">
        <ele>1263.0</ele>
        <time>2013-06-30T15:12:14Z</time>
      </trkpt>
      <trkpt lat="40.101367" lon="-5.473633">
        <ele>1262.0</ele>
        <time>2013-06-30T15:12:15Z</time>
      </trkpt>
      <trkpt lat="40.101317" lon="-5.473717">
        <ele>1261.0</ele>
        <time>2013-06-30T15:12:16Z</time>
      </trkpt>
      <trkpt lat="40.101250" lon="-5.473800">
        <ele>1260.0</ele>
        <time>2013-06-30T15:12:17Z</time>
      </trkpt>
      <trkpt lat="40.101200" lon="-5.473883">
        <ele>1258.0</ele>
        <time>2013-06-30T15:12:18Z</time>
      </trkpt>
      <trkpt lat="40.101133" lon="-5.473983">
        <ele>1256.0</ele>
        <time>2013-06-30T15:12:19Z</time>
      </trkpt>
      <trkpt lat="40.101067" lon="-5.474083">
        <ele>1254.0</ele>
        <time>2013-06-30T15:12:20Z</time>
      </trkpt>
      <trkpt lat="40.101000" lon="-5.474183">
        <ele>1252.0</ele>
        <time>2013-06-30T15:12:21Z</time>
      </trkpt>
      <trkpt lat="40.100933" lon="-5.474267">
        <ele>1251.0</ele>
        <time>2013-06-30T15:12:22Z</time>
      </trkpt>
      <trkpt lat="40.100883" lon="-5.474350">
        <ele>1250.0</ele>
        <time>2013-06-30T15:12:23Z</time>
      </trkpt>
      <trkpt lat="40.100817" lon="-5.474433">
        <ele>1250.0</ele>
        <time>2013-06-30T15:12:24Z</time>
      </trkpt>
      <trkpt lat="40.100767" lon="-5.474517">
        <ele>1248.0</ele>
        <time>2013-06-30T15:12:25Z</time>
      </trkpt>
      <trkpt lat="40.100700" lon="-5.474617">
        <ele>1246.0</ele>
        <time>2013-06-30T15:12:26Z</time>
      </trkpt>
      <trkpt lat="40.100633" lon="-5.474717">
        <ele>1244.0</ele>
        <time>2013-06-30T15:12:27Z</time>
      </trkpt>
      <trkpt lat="40.100567" lon="-5.474800">
        <ele>1242.0</ele>
        <time>2013-06-30T15:12:28Z</time>
      </trkpt>
      <trkpt lat="40.100500" lon="-5.474883">
        <ele>1241.0</ele>
        <time>2013-06-30T15:12:29Z</time>
      </trkpt>
      <trkpt lat="40.100450" lon="-5.474967">
        <ele>1241.0</ele>
        <time>2013-06-30T15:12:30Z</time>
      </trkpt>
      <trkpt lat="40.100400" lon="-5.475033">
        <ele>1241.0</ele>
        <time>2013-06-30T15:12:31Z</time>
      </trkpt>
      <trkpt lat="40.100350" lon="-5.475117">
        <ele>1240.0</ele>
        <time>2013-06-30T15:12:32Z</time>
      </trkpt>
      <trkpt lat="40.100300" lon="-5.475200">
        <ele>1239.0</ele>
        <time>2013-06-30T15:12:33Z</time>
      </trkpt>
      <trkpt lat="40.100233" lon="-5.475283">
        <ele>1238.0</ele>
        <time>2013-06-30T15:12:34Z</time>
      </trkpt>
      <trkpt lat="40.100183" lon="-5.475367">
        <ele>1237.0</ele>
        <time>2013-06-30T15:12:35Z</time>
      </trkpt>
      <trkpt lat="40.100133" lon="-5.475450">
        <ele>1236.0</ele>
        <time>2013-06-30T15:12:36Z</time>
      </trkpt>
      <trkpt lat="40.099983" lon="-5.475700">
        <ele>1232.0</ele>
        <time>2013-06-30T15:12:39Z</time>
      </trkpt>
      <trkpt lat="40.099917" lon="-5.475767">
        <ele>1230.0</ele>
        <time>2013-06-30T15:12:40Z</time>
      </trkpt>
      <trkpt lat="40.099850" lon="-5.475833">
        <ele>1228.0</ele>
        <time>2013-06-30T15:12:41Z</time>
      </trkpt>
      <trkpt lat="40.099783" lon="-5.475883">
        <ele>1227.0</ele>
        <time>2013-06-30T15:12:42Z</time>
      </trkpt>
      <trkpt lat="40.099717" lon="-5.475950">
        <ele>1226.0</ele>
        <time>2013-06-30T15:12:43Z</time>
      </trkpt>
      <trkpt lat="40.099650" lon="-5.476017">
        <ele>1225.0</ele>
        <time>2013-06-30T15:12:44Z</time>
      </trkpt>
      <trkpt lat="40.099600" lon="-5.476083">
        <ele>1224.0</ele>
        <time>2013-06-30T15:12:45Z</time>
      </trkpt>
      <trkpt lat="40.099533" lon="-5.476150">
        <ele>1223.0</ele>
        <time>2013-06-30T15:12:46Z</time>
      </trkpt>
      <trkpt lat="40.099483" lon="-5.476200">
        <ele>1222.0</ele>
        <time>2013-06-30T15:12:47Z</time>
      </trkpt>
      <trkpt lat="40.099417" lon="-5.476250">
        <ele>1221.0</ele>
        <time>2013-06-30T15:12:48Z</time>
      </trkpt>
      <trkpt lat="40.099350" lon="-5.476317">
        <ele>1219.0</ele>
        <time>2013-06-30T15:12:49Z</time>
      </trkpt>
      <trkpt lat="40.099267" lon="-5.476383">
        <ele>1216.0</ele>
        <time>2013-06-30T15:12:50Z</time>
      </trkpt>
      <trkpt lat="40.099117" lon="-5.476567">
        <ele>1212.0</ele>
        <time>2013-06-30T15:12:52Z</time>
      </trkpt>
      <trkpt lat="40.099050" lon="-5.476650">
        <ele>1209.0</ele>
        <time>2013-06-30T15:12:53Z</time>
      </trkpt>
      <trkpt lat="40.098967" lon="-5.476733">
        <ele>1206.0</ele>
        <time>2013-06-30T15:12:54Z</time>
      </trkpt>
      <trkpt lat="40.098800" lon="-5.476933">
        <ele>1200.0</ele>
        <time>2013-06-30T15:12:56Z</time>
      </trkpt>
      <trkpt lat="40.098750" lon="-5.477033">
        <ele>1198.0</ele>
        <time>2013-06-30T15:12:57Z</time>
      </trkpt>
      <trkpt lat="40.098683" lon="-5.477133">
        <ele>1197.0</ele>
        <time>2013-06-30T15:12:58Z</time>
      </trkpt>
      <trkpt lat="40.098633" lon="-5.477217">
        <ele>1196.0</ele>
        <time>2013-06-30T15:12:59Z</time>
      </trkpt>
      <trkpt lat="40.098567" lon="-5.477300">
        <ele>1194.0</ele>
        <time>2013-06-30T15:13:00Z</time>
      </trkpt>
      <trkpt lat="40.098517" lon="-5.477383">
        <ele>1193.0</ele>
        <time>2013-06-30T15:13:01Z</time>
      </trkpt>
      <trkpt lat="40.098450" lon="-5.477483">
        <ele>1191.0</ele>
        <time>2013-06-30T15:13:02Z</time>
      </trkpt>
      <trkpt lat="40.098383" lon="-5.477583">
        <ele>1189.0</ele>
        <time>2013-06-30T15:13:03Z</time>
      </trkpt>
      <trkpt lat="40.098317" lon="-5.477683">
        <ele>1187.0</ele>
        <time>2013-06-30T15:13:04Z</time>
      </trkpt>
      <trkpt lat="40.098250" lon="-5.477783">
        <ele>1185.0</ele>
        <time>2013-06-30T15:13:05Z</time>
      </trkpt>
      <trkpt lat="40.098183" lon="-5.477883">
        <ele>1184.0</ele>
        <time>2013-06-30T15:13:06Z</time>
      </trkpt>
      <trkpt lat="40.098133" lon="-5.478000">
        <ele>1182.0</ele>
        <time>2013-06-30T15:13:07Z</time>
      </trkpt>
      <trkpt lat="40.098067" lon="-5.478100">
        <ele>1180.0</ele>
        <time>2013-06-30T15:13:08Z</time>
      </trkpt>
      <trkpt lat="40.097967" lon="-5.478300">
        <ele>1176.0</ele>
        <time>2013-06-30T15:13:10Z</time>
      </trkpt>
      <trkpt lat="40.097917" lon="-5.478400">
        <ele>1174.0</ele>
        <time>2013-06-30T15:13:11Z</time>
      </trkpt>
      <trkpt lat="40.097800" lon="-5.478600">
        <ele>1169.0</ele>
        <time>2013-06-30T15:13:13Z</time>
      </trkpt>
      <trkpt lat="40.097733" lon="-5.478700">
        <ele>1167.0</ele>
        <time>2013-06-30T15:13:14Z</time>
      </trkpt>
      <trkpt lat="40.097683" lon="-5.478783">
        <ele>1165.0</ele>
        <time>2013-06-30T15:13:15Z</time>
      </trkpt>
      <trkpt lat="40.097633" lon="-5.478883">
        <ele>1164.0</ele>
        <time>2013-06-30T15:13:16Z</time>
      </trkpt>
      <trkpt lat="40.097583" lon="-5.478967">
        <ele>1164.0</ele>
        <time>2013-06-30T15:13:17Z</time>
      </trkpt>
      <trkpt lat="40.097550" lon="-5.479050">
        <ele>1163.0</ele>
        <time>2013-06-30T15:13:18Z</time>
      </trkpt>
      <trkpt lat="40.097500" lon="-5.479133">
        <ele>1162.0</ele>
        <time>2013-06-30T15:13:19Z</time>
      </trkpt>
      <trkpt lat="40.097450" lon="-5.479217">
        <ele>1161.0</ele>
        <time>2013-06-30T15:13:20Z</time>
      </trkpt>
      <trkpt lat="40.097383" lon="-5.479317">
        <ele>1160.0</ele>
        <time>2013-06-30T15:13:21Z</time>
      </trkpt>
      <trkpt lat="40.097350" lon="-5.479400">
        <ele>1159.0</ele>
        <time>2013-06-30T15:13:22Z</time>
      </trkpt>
      <trkpt lat="40.097300" lon="-5.479467">
        <ele>1159.0</ele>
        <time>2013-06-30T15:13:23Z</time>
      </trkpt>
      <trkpt lat="40.097250" lon="-5.479550">
        <ele>1158.0</ele>
        <time>2013-06-30T15:13:24Z</time>
      </trkpt>
      <trkpt lat="40.097200" lon="-5.479650">
        <ele>1158.0</ele>
        <time>2013-06-30T15:13:25Z</time>
      </trkpt>
      <trkpt lat="40.097150" lon="-5.479733">
        <ele>1157.0</ele>
        <time>2013-06-30T15:13:26Z</time>
      </trkpt>
      <trkpt lat="40.097100" lon="-5.479800">
        <ele>1157.0</ele>
        <time>2013-06-30T15:13:27Z</time>
      </trkpt>
      <trkpt lat="40.097050" lon="-5.479867">
        <ele>1157.0</ele>
        <time>2013-06-30T15:13:28Z</time>
      </trkpt>
      <trkpt lat="40.097000" lon="-5.479950">
        <ele>1156.0</ele>
        <time>2013-06-30T15:13:29Z</time>
      </trkpt>
      <trkpt lat="40.096950" lon="-5.480017">
        <ele>1156.0</ele>
        <time>2013-06-30T15:13:30Z</time>
      </trkpt>
      <trkpt lat="40.096900" lon="-5.480083">
        <ele>1156.0</ele>
        <time>2013-06-30T15:13:31Z</time>
      </trkpt>
      <trkpt lat="40.096850" lon="-5.480150">
        <ele>1155.0</ele>
        <time>2013-06-30T15:13:32Z</time>
      </trkpt>
      <trkpt lat="40.096800" lon="-5.480233">
        <ele>1155.0</ele>
        <time>2013-06-30T15:13:33Z</time>
      </trkpt>
      <trkpt lat="40.096750" lon="-5.480317">
        <ele>1155.0</ele>
        <time>2013-06-30T15:13:34Z</time>
      </trkpt>
      <trkpt lat="40.096700" lon="-5.480417">
        <ele>1155.0</ele>
        <time>2013-06-30T15:13:35Z</time>
      </trkpt>
      <trkpt lat="40.096650" lon="-5.480500">
        <ele>1155.0</ele>
        <time>2013-06-30T15:13:36Z</time>
      </trkpt>
      <trkpt lat="40.096600" lon="-5.480583">
        <ele>1156.0</ele>
        <time>2013-06-30T15:13:37Z</time>
      </trkpt>
      <trkpt lat="40.096550" lon="-5.480650">
        <ele>1157.0</ele>
        <time>2013-06-30T15:13:38Z</time>
      </trkpt>
      <trkpt lat="40.096517" lon="-5.480717">
        <ele>1159.0</ele>
        <time>2013-06-30T15:13:39Z</time>
      </trkpt>
      <trkpt lat="40.096467" lon="-5.480783">
        <ele>1160.0</ele>
        <time>2013-06-30T15:13:40Z</time>
      </trkpt>
      <trkpt lat="40.096433" lon="-5.480867">
        <ele>1161.0</ele>
        <time>2013-06-30T15:13:41Z</time>
      </trkpt>
      <trkpt lat="40.096383" lon="-5.480933">
        <ele>1161.0</ele>
        <time>2013-06-30T15:13:42Z</time>
      </trkpt>
      <trkpt lat="40.096333" lon="-5.481100">
        <ele>1162.0</ele>
        <time>2013-06-30T15:13:44Z</time>
      </trkpt>
      <trkpt lat="40.096317" lon="-5.481183">
        <ele>1162.0</ele>
        <time>2013-06-30T15:13:45Z</time>
      </trkpt>
      <trkpt lat="40.096283" lon="-5.481367">
        <ele>1161.0</ele>
        <time>2013-06-30T15:13:47Z</time>
      </trkpt>
      <trkpt lat="40.096250" lon="-5.481500">
        <ele>1158.0</ele>
        <time>2013-06-30T15:13:48Z</time>
      </trkpt>
      <trkpt lat="40.096200" lon="-5.481617">
        <ele>1156.0</ele>
        <time>2013-06-30T15:13:49Z</time>
      </trkpt>
      <trkpt lat="40.096150" lon="-5.481733">
        <ele>1153.0</ele>
        <time>2013-06-30T15:13:50Z</time>
      </trkpt>
      <trkpt lat="40.096100" lon="-5.481850">
        <ele>1153.0</ele>
        <time>2013-06-30T15:13:51Z</time>
      </trkpt>
      <trkpt lat="40.096067" lon="-5.481950">
        <ele>1152.0</ele>
        <time>2013-06-30T15:13:52Z</time>
      </trkpt>
      <trkpt lat="40.096033" lon="-5.482050">
        <ele>1152.0</ele>
        <time>2013-06-30T15:13:53Z</time>
      </trkpt>
      <trkpt lat="40.096000" lon="-5.482133">
        <ele>1151.0</ele>
        <time>2013-06-30T15:13:54Z</time>
      </trkpt>
      <trkpt lat="40.095950" lon="-5.482233">
        <ele>1150.0</ele>
        <time>2013-06-30T15:13:55Z</time>
      </trkpt>
      <trkpt lat="40.095900" lon="-5.482350">
        <ele>1148.0</ele>
        <time>2013-06-30T15:13:56Z</time>
      </trkpt>
      <trkpt lat="40.095833" lon="-5.482467">
        <ele>1147.0</ele>
        <time>2013-06-30T15:13:57Z</time>
      </trkpt>
      <trkpt lat="40.095767" lon="-5.482567">
        <ele>1146.0</ele>
        <time>2013-06-30T15:13:58Z</time>
      </trkpt>
      <trkpt lat="40.095717" lon="-5.482683">
        <ele>1146.0</ele>
        <time>2013-06-30T15:13:59Z</time>
      </trkpt>
      <trkpt lat="40.095667" lon="-5.482800">
        <ele>1146.0</ele>
        <time>2013-06-30T15:14:00Z</time>
      </trkpt>
      <trkpt lat="40.095600" lon="-5.482883">
        <ele>1146.0</ele>
        <time>2013-06-30T15:14:01Z</time>
      </trkpt>
      <trkpt lat="40.095550" lon="-5.482983">
        <ele>1147.0</ele>
        <time>2013-06-30T15:14:02Z</time>
      </trkpt>
      <trkpt lat="40.095483" lon="-5.483083">
        <ele>1146.0</ele>
        <time>2013-06-30T15:14:03Z</time>
      </trkpt>
      <trkpt lat="40.095417" lon="-5.483200">
        <ele>1146.0</ele>
        <time>2013-06-30T15:14:04Z</time>
      </trkpt>
      <trkpt lat="40.095350" lon="-5.483300">
        <ele>1146.0</ele>
        <time>2013-06-30T15:14:05Z</time>
      </trkpt>
      <trkpt lat="40.095300" lon="-5.483400">
        <ele>1146.0</ele>
        <time>2013-06-30T15:14:06Z</time>
      </trkpt>
      <trkpt lat="40.095233" lon="-5.483500">
        <ele>1148.0</ele>
        <time>2013-06-30T15:14:07Z</time>
      </trkpt>
      <trkpt lat="40.095183" lon="-5.483600">
        <ele>1149.0</ele>
        <time>2013-06-30T15:14:08Z</time>
      </trkpt>
      <trkpt lat="40.095133" lon="-5.483717">
        <ele>1150.0</ele>
        <time>2013-06-30T15:14:09Z</time>
      </trkpt>
      <trkpt lat="40.095083" lon="-5.483817">
        <ele>1152.0</ele>
        <time>2013-06-30T15:14:10Z</time>
      </trkpt>
      <trkpt lat="40.095033" lon="-5.483950">
        <ele>1154.0</ele>
        <time>2013-06-30T15:14:11Z</time>
      </trkpt>
      <trkpt lat="40.094983" lon="-5.484067">
        <ele>1157.0</ele>
        <time>2013-06-30T15:14:12Z</time>
      </trkpt>
      <trkpt lat="40.094933" lon="-5.484167">
        <ele>1160.0</ele>
        <time>2013-06-30T15:14:13Z</time>
      </trkpt>
      <trkpt lat="40.094883" lon="-5.484283">
        <ele>1163.0</ele>
        <time>2013-06-30T15:14:14Z</time>
      </trkpt>
      <trkpt lat="40.094850" lon="-5.484400">
        <ele>1166.0</ele>
        <time>2013-06-30T15:14:15Z</time>
      </trkpt>
      <trkpt lat="40.094833" lon="-5.484533">
        <ele>1170.0</ele>
        <time>2013-06-30T15:14:16Z</time>
      </trkpt>
      <trkpt lat="40.094850" lon="-5.484667">
        <ele>1172.0</ele>
        <time>2013-06-30T15:14:17Z</time>
      </trkpt>
      <trkpt lat="40.094950" lon="-5.484917">
        <ele>1177.0</ele>
        <time>2013-06-30T15:14:19Z</time>
      </trkpt>
      <trkpt lat="40.095017" lon="-5.485017">
        <ele>1180.0</ele>
        <time>2013-06-30T15:14:20Z</time>
      </trkpt>
      <trkpt lat="40.095083" lon="-5.485067">
        <ele>1182.0</ele>
        <time>2013-06-30T15:14:21Z</time>
      </trkpt>
      <trkpt lat="40.095167" lon="-5.485100">
        <ele>1185.0</ele>
        <time>2013-06-30T15:14:22Z</time>
      </trkpt>
      <trkpt lat="40.095317" lon="-5.485100">
        <ele>1190.0</ele>
        <time>2013-06-30T15:14:24Z</time>
      </trkpt>
      <trkpt lat="40.095400" lon="-5.485067">
        <ele>1192.0</ele>
        <time>2013-06-30T15:14:25Z</time>
      </trkpt>
      <trkpt lat="40.095467" lon="-5.485033">
        <ele>1195.0</ele>
        <time>2013-06-30T15:14:26Z</time>
      </trkpt>
      <trkpt lat="40.095533" lon="-5.484983">
        <ele>1198.0</ele>
        <time>2013-06-30T15:14:27Z</time>
      </trkpt>
      <trkpt lat="40.095583" lon="-5.484933">
        <ele>1201.0</ele>
        <time>2013-06-30T15:14:28Z</time>
      </trkpt>
      <trkpt lat="40.095617" lon="-5.484867">
        <ele>1205.0</ele>
        <time>2013-06-30T15:14:29Z</time>
      </trkpt>
      <trkpt lat="40.095650" lon="-5.484800">
        <ele>1208.0</ele>
        <time>2013-06-30T15:14:30Z</time>
      </trkpt>
      <trkpt lat="40.095667" lon="-5.484717">
        <ele>1212.0</ele>
        <time>2013-06-30T15:14:31Z</time>
      </trkpt>
      <trkpt lat="40.095667" lon="-5.484633">
        <ele>1215.0</ele>
        <time>2013-06-30T15:14:32Z</time>
      </trkpt>
      <trkpt lat="40.095667" lon="-5.484550">
        <ele>1218.0</ele>
        <time>2013-06-30T15:14:33Z</time>
      </trkpt>
      <trkpt lat="40.095633" lon="-5.484467">
        <ele>1222.0</ele>
        <time>2013-06-30T15:14:34Z</time>
      </trkpt>
      <trkpt lat="40.095600" lon="-5.484400">
        <ele>1225.0</ele>
        <time>2013-06-30T15:14:35Z</time>
      </trkpt>
      <trkpt lat="40.095567" lon="-5.484333">
        <ele>1228.0</ele>
        <time>2013-06-30T15:14:36Z</time>
      </trkpt>
      <trkpt lat="40.095517" lon="-5.484283">
        <ele>1231.0</ele>
        <time>2013-06-30T15:14:37Z</time>
      </trkpt>
      <trkpt lat="40.095467" lon="-5.484267">
        <ele>1233.0</ele>
        <time>2013-06-30T15:14:38Z</time>
      </trkpt>
      <trkpt lat="40.095383" lon="-5.484267">
        <ele>1235.0</ele>
        <time>2013-06-30T15:14:39Z</time>
      </trkpt>
      <trkpt lat="40.095317" lon="-5.484300">
        <ele>1237.0</ele>
        <time>2013-06-30T15:14:40Z</time>
      </trkpt>
      <trkpt lat="40.095233" lon="-5.484350">
        <ele>1239.0</ele>
        <time>2013-06-30T15:14:41Z</time>
      </trkpt>
      <trkpt lat="40.095167" lon="-5.484400">
        <ele>1241.0</ele>
        <time>2013-06-30T15:14:42Z</time>
      </trkpt>
      <trkpt lat="40.095083" lon="-5.484450">
        <ele>1242.0</ele>
        <time>2013-06-30T15:14:43Z</time>
      </trkpt>
      <trkpt lat="40.095000" lon="-5.484517">
        <ele>1244.0</ele>
        <time>2013-06-30T15:14:44Z</time>
      </trkpt>
      <trkpt lat="40.094933" lon="-5.484600">
        <ele>1246.0</ele>
        <time>2013-06-30T15:14:45Z</time>
      </trkpt>
      <trkpt lat="40.094883" lon="-5.484700">
        <ele>1248.0</ele>
        <time>2013-06-30T15:14:46Z</time>
      </trkpt>
      <trkpt lat="40.094833" lon="-5.484817">
        <ele>1250.0</ele>
        <time>2013-06-30T15:14:47Z</time>
      </trkpt>
      <trkpt lat="40.094800" lon="-5.484950">
        <ele>1251.0</ele>
        <time>2013-06-30T15:14:48Z</time>
      </trkpt>
      <trkpt lat="40.094783" lon="-5.485100">
        <ele>1251.0</ele>
        <time>2013-06-30T15:14:49Z</time>
      </trkpt>
      <trkpt lat="40.094767" lon="-5.485250">
        <ele>1252.0</ele>
        <time>2013-06-30T15:14:50Z</time>
      </trkpt>
      <trkpt lat="40.094767" lon="-5.485383">
        <ele>1254.0</ele>
        <time>2013-06-30T15:14:51Z</time>
      </trkpt>
      <trkpt lat="40.094800" lon="-5.485517">
        <ele>1257.0</ele>
        <time>2013-06-30T15:14:52Z</time>
      </trkpt>
      <trkpt lat="40.094833" lon="-5.485650">
        <ele>1258.0</ele>
        <time>2013-06-30T15:14:53Z</time>
      </trkpt>
      <trkpt lat="40.094883" lon="-5.485767">
        <ele>1260.0</ele>
        <time>2013-06-30T15:14:54Z</time>
      </trkpt>
      <trkpt lat="40.094950" lon="-5.485900">
        <ele>1261.0</ele>
        <time>2013-06-30T15:14:55Z</time>
      </trkpt>
      <trkpt lat="40.095017" lon="-5.486017">
        <ele>1261.0</ele>
        <time>2013-06-30T15:14:56Z</time>
      </trkpt>
      <trkpt lat="40.095117" lon="-5.486117">
        <ele>1263.0</ele>
        <time>2013-06-30T15:14:57Z</time>
      </trkpt>
      <trkpt lat="40.095283" lon="-5.486250">
        <ele>1266.0</ele>
        <time>2013-06-30T15:14:59Z</time>
      </trkpt>
      <trkpt lat="40.095367" lon="-5.486300">
        <ele>1268.0</ele>
        <time>2013-06-30T15:15:00Z</time>
      </trkpt>
      <trkpt lat="40.095483" lon="-5.486333">
        <ele>1269.0</ele>
        <time>2013-06-30T15:15:01Z</time>
      </trkpt>
      <trkpt lat="40.095583" lon="-5.486350">
        <ele>1270.0</ele>
        <time>2013-06-30T15:15:02Z</time>
      </trkpt>
      <trkpt lat="40.095683" lon="-5.486350">
        <ele>1273.0</ele>
        <time>2013-06-30T15:15:03Z</time>
      </trkpt>
      <trkpt lat="40.095750" lon="-5.486333">
        <ele>1276.0</ele>
        <time>2013-06-30T15:15:04Z</time>
      </trkpt>
      <trkpt lat="40.095800" lon="-5.486300">
        <ele>1279.0</ele>
        <time>2013-06-30T15:15:05Z</time>
      </trkpt>
      <trkpt lat="40.095867" lon="-5.486250">
        <ele>1281.0</ele>
        <time>2013-06-30T15:15:06Z</time>
      </trkpt>
      <trkpt lat="40.095933" lon="-5.486200">
        <ele>1283.0</ele>
        <time>2013-06-30T15:15:07Z</time>
      </trkpt>
      <trkpt lat="40.096017" lon="-5.486133">
        <ele>1285.0</ele>
        <time>2013-06-30T15:15:08Z</time>
      </trkpt>
      <trkpt lat="40.096100" lon="-5.486067">
        <ele>1288.0</ele>
        <time>2013-06-30T15:15:09Z</time>
      </trkpt>
      <trkpt lat="40.096200" lon="-5.485933">
        <ele>1294.0</ele>
        <time>2013-06-30T15:15:11Z</time>
      </trkpt>
      <trkpt lat="40.096217" lon="-5.485850">
        <ele>1298.0</ele>
        <time>2013-06-30T15:15:12Z</time>
      </trkpt>
      <trkpt lat="40.096200" lon="-5.485750">
        <ele>1302.0</ele>
        <time>2013-06-30T15:15:13Z</time>
      </trkpt>
      <trkpt lat="40.096183" lon="-5.485650">
        <ele>1304.0</ele>
        <time>2013-06-30T15:15:14Z</time>
      </trkpt>
      <trkpt lat="40.096167" lon="-5.485567">
        <ele>1307.0</ele>
        <time>2013-06-30T15:15:15Z</time>
      </trkpt>
      <trkpt lat="40.096150" lon="-5.485483">
        <ele>1310.0</ele>
        <time>2013-06-30T15:15:16Z</time>
      </trkpt>
      <trkpt lat="40.096117" lon="-5.485400">
        <ele>1313.0</ele>
        <time>2013-06-30T15:15:17Z</time>
      </trkpt>
      <trkpt lat="40.096083" lon="-5.485350">
        <ele>1317.0</ele>
        <time>2013-06-30T15:15:18Z</time>
      </trkpt>
      <trkpt lat="40.096050" lon="-5.485300">
        <ele>1320.0</ele>
        <time>2013-06-30T15:15:19Z</time>
      </trkpt>
      <trkpt lat="40.096000" lon="-5.485267">
        <ele>1322.0</ele>
        <time>2013-06-30T15:15:20Z</time>
      </trkpt>
      <trkpt lat="40.095950" lon="-5.485233">
        <ele>1324.0</ele>
        <time>2013-06-30T15:15:21Z</time>
      </trkpt>
      <trkpt lat="40.095900" lon="-5.485183">
        <ele>1325.0</ele>
        <time>2013-06-30T15:15:22Z</time>
      </trkpt>
      <trkpt lat="40.095850" lon="-5.485133">
        <ele>1326.0</ele>
        <time>2013-06-30T15:15:23Z</time>
      </trkpt>
      <trkpt lat="40.095783" lon="-5.485133">
        <ele>1327.0</ele>
        <time>2013-06-30T15:15:24Z</time>
      </trkpt>
      <trkpt lat="40.095733" lon="-5.485150">
        <ele>1328.0</ele>
        <time>2013-06-30T15:15:25Z</time>
      </trkpt>
      <trkpt lat="40.095667" lon="-5.485200">
        <ele>1329.0</ele>
        <time>2013-06-30T15:15:26Z</time>
      </trkpt>
      <trkpt lat="40.095633" lon="-5.485283">
        <ele>1330.0</ele>
        <time>2013-06-30T15:15:27Z</time>
      </trkpt>
      <trkpt lat="40.095583" lon="-5.485367">
        <ele>1330.0</ele>
        <time>2013-06-30T15:15:28Z</time>
      </trkpt>
      <trkpt lat="40.095533" lon="-5.485467">
        <ele>1331.0</ele>
        <time>2013-06-30T15:15:29Z</time>
      </trkpt>
      <trkpt lat="40.095500" lon="-5.485567">
        <ele>1332.0</ele>
        <time>2013-06-30T15:15:30Z</time>
      </trkpt>
      <trkpt lat="40.095450" lon="-5.485667">
        <ele>1333.0</ele>
        <time>2013-06-30T15:15:31Z</time>
      </trkpt>
      <trkpt lat="40.095433" lon="-5.485800">
        <ele>1334.0</ele>
        <time>2013-06-30T15:15:32Z</time>
      </trkpt>
      <trkpt lat="40.095417" lon="-5.485933">
        <ele>1336.0</ele>
        <time>2013-06-30T15:15:33Z</time>
      </trkpt>
      <trkpt lat="40.095400" lon="-5.486067">
        <ele>1337.0</ele>
        <time>2013-06-30T15:15:34Z</time>
      </trkpt>
      <trkpt lat="40.095417" lon="-5.486200">
        <ele>1340.0</ele>
        <time>2013-06-30T15:15:35Z</time>
      </trkpt>
      <trkpt lat="40.095433" lon="-5.486350">
        <ele>1342.0</ele>
        <time>2013-06-30T15:15:36Z</time>
      </trkpt>
      <trkpt lat="40.095467" lon="-5.486483">
        <ele>1345.0</ele>
        <time>2013-06-30T15:15:37Z</time>
      </trkpt>
      <trkpt lat="40.095533" lon="-5.486600">
        <ele>1347.0</ele>
        <time>2013-06-30T15:15:38Z</time>
      </trkpt>
      <trkpt lat="40.095600" lon="-5.486700">
        <ele>1350.0</ele>
        <time>2013-06-30T15:15:39Z</time>
      </trkpt>
      <trkpt lat="40.095683" lon="-5.486767">
        <ele>1352.0</ele>
        <time>2013-06-30T15:15:40Z</time>
      </trkpt>
      <trkpt lat="40.095783" lon="-5.486833">
        <ele>1355.0</ele>
        <time>2013-06-30T15:15:41Z</time>
      </trkpt>
      <trkpt lat="40.095867" lon="-5.486867">
        <ele>1357.0</ele>
        <time>2013-06-30T15:15:42Z</time>
      </trkpt>
      <trkpt lat="40.095967" lon="-5.486883">
        <ele>1359.0</ele>
        <time>2013-06-30T15:15:43Z</time>
      </trkpt>
      <trkpt lat="40.096050" lon="-5.486883">
        <ele>1361.0</ele>
        <time>2013-06-30T15:15:44Z</time>
      </trkpt>
      <trkpt lat="40.096133" lon="-5.486867">
        <ele>1363.0</ele>
        <time>2013-06-30T15:15:45Z</time>
      </trkpt>
      <trkpt lat="40.096217" lon="-5.486833">
        <ele>1365.0</ele>
        <time>2013-06-30T15:15:46Z</time>
      </trkpt>
      <trkpt lat="40.096300" lon="-5.486800">
        <ele>1368.0</ele>
        <time>2013-06-30T15:15:47Z</time>
      </trkpt>
      <trkpt lat="40.096350" lon="-5.486750">
        <ele>1371.0</ele>
        <time>2013-06-30T15:15:48Z</time>
      </trkpt>
      <trkpt lat="40.096383" lon="-5.486700">
        <ele>1374.0</ele>
        <time>2013-06-30T15:15:49Z</time>
      </trkpt>
      <trkpt lat="40.096417" lon="-5.486617">
        <ele>1376.0</ele>
        <time>2013-06-30T15:15:50Z</time>
      </trkpt>
      <trkpt lat="40.096450" lon="-5.486517">
        <ele>1377.0</ele>
        <time>2013-06-30T15:15:51Z</time>
      </trkpt>
      <trkpt lat="40.096467" lon="-5.486417">
        <ele>1379.0</ele>
        <time>2013-06-30T15:15:52Z</time>
      </trkpt>
      <trkpt lat="40.096467" lon="-5.486317">
        <ele>1381.0</ele>
        <time>2013-06-30T15:15:53Z</time>
      </trkpt>
      <trkpt lat="40.096467" lon="-5.486233">
        <ele>1385.0</ele>
        <time>2013-06-30T15:15:54Z</time>
      </trkpt>
      <trkpt lat="40.096433" lon="-5.486167">
        <ele>1388.0</ele>
        <time>2013-06-30T15:15:55Z</time>
      </trkpt>
      <trkpt lat="40.096383" lon="-5.486117">
        <ele>1390.0</ele>
        <time>2013-06-30T15:15:56Z</time>
      </trkpt>
      <trkpt lat="40.096350" lon="-5.486067">
        <ele>1393.0</ele>
        <time>2013-06-30T15:15:57Z</time>
      </trkpt>
      <trkpt lat="40.096300" lon="-5.486033">
        <ele>1396.0</ele>
        <time>2013-06-30T15:15:58Z</time>
      </trkpt>
      <trkpt lat="40.096283" lon="-5.486033">
        <ele>1399.0</ele>
        <time>2013-06-30T15:15:59Z</time>
      </trkpt>
      <trkpt lat="40.096250" lon="-5.486033">
        <ele>1400.0</ele>
        <time>2013-06-30T15:16:00Z</time>
      </trkpt>
      <trkpt lat="40.096183" lon="-5.486017">
        <ele>1399.0</ele>
        <time>2013-06-30T15:16:01Z</time>
      </trkpt>
      <trkpt lat="40.096100" lon="-5.486017">
        <ele>1397.0</ele>
        <time>2013-06-30T15:16:02Z</time>
      </trkpt>
      <trkpt lat="40.096033" lon="-5.486050">
        <ele>1398.0</ele>
        <time>2013-06-30T15:16:03Z</time>
      </trkpt>
      <trkpt lat="40.095983" lon="-5.486117">
        <ele>1399.0</ele>
        <time>2013-06-30T15:16:04Z</time>
      </trkpt>
      <trkpt lat="40.095950" lon="-5.486217">
        <ele>1400.0</ele>
        <time>2013-06-30T15:16:05Z</time>
      </trkpt>
      <trkpt lat="40.095917" lon="-5.486317">
        <ele>1401.0</ele>
        <time>2013-06-30T15:16:06Z</time>
      </trkpt>
      <trkpt lat="40.095900" lon="-5.486417">
        <ele>1402.0</ele>
        <time>2013-06-30T15:16:07Z</time>
      </trkpt>
      <trkpt lat="40.095867" lon="-5.486533">
        <ele>1402.0</ele>
        <time>2013-06-30T15:16:08Z</time>
      </trkpt>
      <trkpt lat="40.095850" lon="-5.486667">
        <ele>1402.0</ele>
        <time>2013-06-30T15:16:09Z</time>
      </trkpt>
      <trkpt lat="40.095833" lon="-5.486800">
        <ele>1403.0</ele>
        <time>2013-06-30T15:16:10Z</time>
      </trkpt>
      <trkpt lat="40.095833" lon="-5.486933">
        <ele>1404.0</ele>
        <time>2013-06-30T15:16:11Z</time>
      </trkpt>
      <trkpt lat="40.095867" lon="-5.487067">
        <ele>1406.0</ele>
        <time>2013-06-30T15:16:12Z</time>
      </trkpt>
      <trkpt lat="40.095883" lon="-5.487167">
        <ele>1409.0</ele>
        <time>2013-06-30T15:16:13Z</time>
      </trkpt>
      <trkpt lat="40.095917" lon="-5.487267">
        <ele>1414.0</ele>
        <time>2013-06-30T15:16:14Z</time>
      </trkpt>
      <trkpt lat="40.095967" lon="-5.487367">
        <ele>1417.0</ele>
        <time>2013-06-30T15:16:15Z</time>
      </trkpt>
      <trkpt lat="40.096017" lon="-5.487467">
        <ele>1420.0</ele>
        <time>2013-06-30T15:16:16Z</time>
      </trkpt>
      <trkpt lat="40.096083" lon="-5.487550">
        <ele>1423.0</ele>
        <time>2013-06-30T15:16:17Z</time>
      </trkpt>
      <trkpt lat="40.096150" lon="-5.487617">
        <ele>1425.0</ele>
        <time>2013-06-30T15:16:18Z</time>
      </trkpt>
      <trkpt lat="40.096233" lon="-5.487650">
        <ele>1427.0</ele>
        <time>2013-06-30T15:16:19Z</time>
      </trkpt>
      <trkpt lat="40.096317" lon="-5.487650">
        <ele>1429.0</ele>
        <time>2013-06-30T15:16:20Z</time>
      </trkpt>
      <trkpt lat="40.096400" lon="-5.487633">
        <ele>1432.0</ele>
        <time>2013-06-30T15:16:21Z</time>
      </trkpt>
      <trkpt lat="40.096467" lon="-5.487617">
        <ele>1434.0</ele>
        <time>2013-06-30T15:16:22Z</time>
      </trkpt>
      <trkpt lat="40.096550" lon="-5.487583">
        <ele>1436.0</ele>
        <time>2013-06-30T15:16:23Z</time>
      </trkpt>
      <trkpt lat="40.096617" lon="-5.487533">
        <ele>1438.0</ele>
        <time>2013-06-30T15:16:24Z</time>
      </trkpt>
      <trkpt lat="40.096700" lon="-5.487483">
        <ele>1440.0</ele>
        <time>2013-06-30T15:16:25Z</time>
      </trkpt>
      <trkpt lat="40.096783" lon="-5.487433">
        <ele>1442.0</ele>
        <time>2013-06-30T15:16:26Z</time>
      </trkpt>
      <trkpt lat="40.096850" lon="-5.487367">
        <ele>1444.0</ele>
        <time>2013-06-30T15:16:27Z</time>
      </trkpt>
      <trkpt lat="40.096917" lon="-5.487300">
        <ele>1446.0</ele>
        <time>2013-06-30T15:16:28Z</time>
      </trkpt>
      <trkpt lat="40.097033" lon="-5.487150">
        <ele>1451.0</ele>
        <time>2013-06-30T15:16:30Z</time>
      </trkpt>
      <trkpt lat="40.097067" lon="-5.487050">
        <ele>1453.0</ele>
        <time>2013-06-30T15:16:31Z</time>
      </trkpt>
      <trkpt lat="40.097067" lon="-5.486950">
        <ele>1455.0</ele>
        <time>2013-06-30T15:16:32Z</time>
      </trkpt>
      <trkpt lat="40.097067" lon="-5.486850">
        <ele>1457.0</ele>
        <time>2013-06-30T15:16:33Z</time>
      </trkpt>
      <trkpt lat="40.097067" lon="-5.486750">
        <ele>1459.0</ele>
        <time>2013-06-30T15:16:34Z</time>
      </trkpt>
      <trkpt lat="40.097050" lon="-5.486667">
        <ele>1462.0</ele>
        <time>2013-06-30T15:16:35Z</time>
      </trkpt>
      <trkpt lat="40.097033" lon="-5.486600">
        <ele>1464.0</ele>
        <time>2013-06-30T15:16:36Z</time>
      </trkpt>
      <trkpt lat="40.097000" lon="-5.486550">
        <ele>1466.0</ele>
        <time>2013-06-30T15:16:37Z</time>
      </trkpt>
      <trkpt lat="40.096950" lon="-5.486500">
        <ele>1468.0</ele>
        <time>2013-06-30T15:16:38Z</time>
      </trkpt>
      <trkpt lat="40.096900" lon="-5.486450">
        <ele>1469.0</ele>
        <time>2013-06-30T15:16:39Z</time>
      </trkpt>
      <trkpt lat="40.096850" lon="-5.486433">
        <ele>1470.0</ele>
        <time>2013-06-30T15:16:40Z</time>
      </trkpt>
      <trkpt lat="40.096800" lon="-5.486433">
        <ele>1471.0</ele>
        <time>2013-06-30T15:16:41Z</time>
      </trkpt>
      <trkpt lat="40.096750" lon="-5.486433">
        <ele>1472.0</ele>
        <time>2013-06-30T15:16:42Z</time>
      </trkpt>
      <trkpt lat="40.096700" lon="-5.486467">
        <ele>1472.0</ele>
        <time>2013-06-30T15:16:43Z</time>
      </trkpt>
      <trkpt lat="40.096633" lon="-5.486500">
        <ele>1472.0</ele>
        <time>2013-06-30T15:16:44Z</time>
      </trkpt>
      <trkpt lat="40.096583" lon="-5.486533">
        <ele>1471.0</ele>
        <time>2013-06-30T15:16:45Z</time>
      </trkpt>
      <trkpt lat="40.096533" lon="-5.486600">
        <ele>1471.0</ele>
        <time>2013-06-30T15:16:46Z</time>
      </trkpt>
      <trkpt lat="40.096500" lon="-5.486683">
        <ele>1472.0</ele>
        <time>2013-06-30T15:16:47Z</time>
      </trkpt>
      <trkpt lat="40.096467" lon="-5.486783">
        <ele>1472.0</ele>
        <time>2013-06-30T15:16:48Z</time>
      </trkpt>
      <trkpt lat="40.096450" lon="-5.486900">
        <ele>1472.0</ele>
        <time>2013-06-30T15:16:49Z</time>
      </trkpt>
      <trkpt lat="40.096433" lon="-5.487017">
        <ele>1472.0</ele>
        <time>2013-06-30T15:16:50Z</time>
      </trkpt>
      <trkpt lat="40.096433" lon="-5.487150">
        <ele>1472.0</ele>
        <time>2013-06-30T15:16:51Z</time>
      </trkpt>
      <trkpt lat="40.096433" lon="-5.487267">
        <ele>1473.0</ele>
        <time>2013-06-30T15:16:52Z</time>
      </trkpt>
      <trkpt lat="40.096433" lon="-5.487400">
        <ele>1474.0</ele>
        <time>2013-06-30T15:16:53Z</time>
      </trkpt>
      <trkpt lat="40.096433" lon="-5.487533">
        <ele>1476.0</ele>
        <time>2013-06-30T15:16:54Z</time>
      </trkpt>
      <trkpt lat="40.096450" lon="-5.487650">
        <ele>1478.0</ele>
        <time>2013-06-30T15:16:55Z</time>
      </trkpt>
      <trkpt lat="40.096467" lon="-5.487783">
        <ele>1479.0</ele>
        <time>2013-06-30T15:16:56Z</time>
      </trkpt>
      <trkpt lat="40.096483" lon="-5.487900">
        <ele>1481.0</ele>
        <time>2013-06-30T15:16:57Z</time>
      </trkpt>
      <trkpt lat="40.096500" lon="-5.488033">
        <ele>1483.0</ele>
        <time>2013-06-30T15:16:58Z</time>
      </trkpt>
      <trkpt lat="40.096500" lon="-5.488150">
        <ele>1485.0</ele>
        <time>2013-06-30T15:16:59Z</time>
      </trkpt>
      <trkpt lat="40.096517" lon="-5.488250">
        <ele>1488.0</ele>
        <time>2013-06-30T15:17:00Z</time>
      </trkpt>
      <trkpt lat="40.096517" lon="-5.488350">
        <ele>1491.0</ele>
        <time>2013-06-30T15:17:01Z</time>
      </trkpt>
      <trkpt lat="40.096550" lon="-5.488450">
        <ele>1494.0</ele>
        <time>2013-06-30T15:17:02Z</time>
      </trkpt>
      <trkpt lat="40.096583" lon="-5.488567">
        <ele>1495.0</ele>
        <time>2013-06-30T15:17:03Z</time>
      </trkpt>
      <trkpt lat="40.096617" lon="-5.488683">
        <ele>1496.0</ele>
        <time>2013-06-30T15:17:04Z</time>
      </trkpt>
      <trkpt lat="40.096683" lon="-5.488800">
        <ele>1498.0</ele>
        <time>2013-06-30T15:17:05Z</time>
      </trkpt>
      <trkpt lat="40.096750" lon="-5.488900">
        <ele>1500.0</ele>
        <time>2013-06-30T15:17:06Z</time>
      </trkpt>
      <trkpt lat="40.096817" lon="-5.488983">
        <ele>1502.0</ele>
        <time>2013-06-30T15:17:07Z</time>
      </trkpt>
      <trkpt lat="40.096883" lon="-5.489033">
        <ele>1504.0</ele>
        <time>2013-06-30T15:17:08Z</time>
      </trkpt>
      <trkpt lat="40.096967" lon="-5.489067">
        <ele>1506.0</ele>
        <time>2013-06-30T15:17:09Z</time>
      </trkpt>
      <trkpt lat="40.097050" lon="-5.489083">
        <ele>1507.0</ele>
        <time>2013-06-30T15:17:10Z</time>
      </trkpt>
      <trkpt lat="40.097150" lon="-5.489117">
        <ele>1508.0</ele>
        <time>2013-06-30T15:17:11Z</time>
      </trkpt>
      <trkpt lat="40.097233" lon="-5.489117">
        <ele>1511.0</ele>
        <time>2013-06-30T15:17:12Z</time>
      </trkpt>
      <trkpt lat="40.097317" lon="-5.489100">
        <ele>1512.0</ele>
        <time>2013-06-30T15:17:13Z</time>
      </trkpt>
      <trkpt lat="40.097400" lon="-5.489050">
        <ele>1515.0</ele>
        <time>2013-06-30T15:17:14Z</time>
      </trkpt>
      <trkpt lat="40.097483" lon="-5.489000">
        <ele>1516.0</ele>
        <time>2013-06-30T15:17:15Z</time>
      </trkpt>
      <trkpt lat="40.097533" lon="-5.488967">
        <ele>1519.0</ele>
        <time>2013-06-30T15:17:16Z</time>
      </trkpt>
      <trkpt lat="40.097600" lon="-5.488917">
        <ele>1520.0</ele>
        <time>2013-06-30T15:17:17Z</time>
      </trkpt>
      <trkpt lat="40.097667" lon="-5.488867">
        <ele>1521.0</ele>
        <time>2013-06-30T15:17:18Z</time>
      </trkpt>
      <trkpt lat="40.097750" lon="-5.488783">
        <ele>1523.0</ele>
        <time>2013-06-30T15:17:19Z</time>
      </trkpt>
      <trkpt lat="40.097817" lon="-5.488700">
        <ele>1525.0</ele>
        <time>2013-06-30T15:17:20Z</time>
      </trkpt>
      <trkpt lat="40.097867" lon="-5.488600">
        <ele>1527.0</ele>
        <time>2013-06-30T15:17:21Z</time>
      </trkpt>
      <trkpt lat="40.097900" lon="-5.488500">
        <ele>1530.0</ele>
        <time>2013-06-30T15:17:22Z</time>
      </trkpt>
      <trkpt lat="40.097933" lon="-5.488400">
        <ele>1533.0</ele>
        <time>2013-06-30T15:17:23Z</time>
      </trkpt>
      <trkpt lat="40.097933" lon="-5.488283">
        <ele>1536.0</ele>
        <time>2013-06-30T15:17:24Z</time>
      </trkpt>
      <trkpt lat="40.097933" lon="-5.488183">
        <ele>1540.0</ele>
        <time>2013-06-30T15:17:25Z</time>
      </trkpt>
      <trkpt lat="40.097917" lon="-5.488067">
        <ele>1543.0</ele>
        <time>2013-06-30T15:17:26Z</time>
      </trkpt>
      <trkpt lat="40.097883" lon="-5.487967">
        <ele>1546.0</ele>
        <time>2013-06-30T15:17:27Z</time>
      </trkpt>
      <trkpt lat="40.097850" lon="-5.487883">
        <ele>1549.0</ele>
        <time>2013-06-30T15:17:28Z</time>
      </trkpt>
      <trkpt lat="40.097817" lon="-5.487817">
        <ele>1551.0</ele>
        <time>2013-06-30T15:17:29Z</time>
      </trkpt>
      <trkpt lat="40.097767" lon="-5.487767">
        <ele>1553.0</ele>
        <time>2013-06-30T15:17:30Z</time>
      </trkpt>
      <trkpt lat="40.097717" lon="-5.487733">
        <ele>1554.0</ele>
        <time>2013-06-30T15:17:31Z</time>
      </trkpt>
      <trkpt lat="40.097667" lon="-5.487683">
        <ele>1554.0</ele>
        <time>2013-06-30T15:17:32Z</time>
      </trkpt>
      <trkpt lat="40.097600" lon="-5.487667">
        <ele>1554.0</ele>
        <time>2013-06-30T15:17:33Z</time>
      </trkpt>
      <trkpt lat="40.097550" lon="-5.487650">
        <ele>1554.0</ele>
        <time>2013-06-30T15:17:34Z</time>
      </trkpt>
      <trkpt lat="40.097483" lon="-5.487667">
        <ele>1553.0</ele>
        <time>2013-06-30T15:17:35Z</time>
      </trkpt>
      <trkpt lat="40.097417" lon="-5.487717">
        <ele>1552.0</ele>
        <time>2013-06-30T15:17:36Z</time>
      </trkpt>
      <trkpt lat="40.097367" lon="-5.487817">
        <ele>1551.0</ele>
        <time>2013-06-30T15:17:37Z</time>
      </trkpt>
      <trkpt lat="40.097317" lon="-5.487900">
        <ele>1550.0</ele>
        <time>2013-06-30T15:17:38Z</time>
      </trkpt>
      <trkpt lat="40.097283" lon="-5.488000">
        <ele>1550.0</ele>
        <time>2013-06-30T15:17:39Z</time>
      </trkpt>
      <trkpt lat="40.097267" lon="-5.488100">
        <ele>1550.0</ele>
        <time>2013-06-30T15:17:40Z</time>
      </trkpt>
      <trkpt lat="40.097250" lon="-5.488200">
        <ele>1550.0</ele>
        <time>2013-06-30T15:17:41Z</time>
      </trkpt>
      <trkpt lat="40.097250" lon="-5.488333">
        <ele>1549.0</ele>
        <time>2013-06-30T15:17:42Z</time>
      </trkpt>
      <trkpt lat="40.097250" lon="-5.488467">
        <ele>1548.0</ele>
        <time>2013-06-30T15:17:43Z</time>
      </trkpt>
      <trkpt lat="40.097250" lon="-5.488617">
        <ele>1548.0</ele>
        <time>2013-06-30T15:17:44Z</time>
      </trkpt>
      <trkpt lat="40.097250" lon="-5.488767">
        <ele>1548.0</ele>
        <time>2013-06-30T15:17:45Z</time>
      </trkpt>
      <trkpt lat="40.097250" lon="-5.488900">
        <ele>1550.0</ele>
        <time>2013-06-30T15:17:46Z</time>
      </trkpt>
      <trkpt lat="40.097233" lon="-5.489017">
        <ele>1552.0</ele>
        <time>2013-06-30T15:17:47Z</time>
      </trkpt>
      <trkpt lat="40.097250" lon="-5.489133">
        <ele>1555.0</ele>
        <time>2013-06-30T15:17:48Z</time>
      </trkpt>
      <trkpt lat="40.097267" lon="-5.489267">
        <ele>1557.0</ele>
        <time>2013-06-30T15:17:49Z</time>
      </trkpt>
      <trkpt lat="40.097300" lon="-5.489383">
        <ele>1560.0</ele>
        <time>2013-06-30T15:17:50Z</time>
      </trkpt>
      <trkpt lat="40.097350" lon="-5.489483">
        <ele>1563.0</ele>
        <time>2013-06-30T15:17:51Z</time>
      </trkpt>
      <trkpt lat="40.097400" lon="-5.489567">
        <ele>1566.0</ele>
        <time>2013-06-30T15:17:52Z</time>
      </trkpt>
      <trkpt lat="40.097467" lon="-5.489617">
        <ele>1568.0</ele>
        <time>2013-06-30T15:17:53Z</time>
      </trkpt>
      <trkpt lat="40.097550" lon="-5.489683">
        <ele>1570.0</ele>
        <time>2013-06-30T15:17:54Z</time>
      </trkpt>
      <trkpt lat="40.097650" lon="-5.489733">
        <ele>1569.0</ele>
        <time>2013-06-30T15:17:55Z</time>
      </trkpt>
      <trkpt lat="40.097733" lon="-5.489767">
        <ele>1570.0</ele>
        <time>2013-06-30T15:17:56Z</time>
      </trkpt>
      <trkpt lat="40.097817" lon="-5.489783">
        <ele>1572.0</ele>
        <time>2013-06-30T15:17:57Z</time>
      </trkpt>
      <trkpt lat="40.097900" lon="-5.489783">
        <ele>1575.0</ele>
        <time>2013-06-30T15:17:58Z</time>
      </trkpt>
      <trkpt lat="40.097967" lon="-5.489733">
        <ele>1577.0</ele>
        <time>2013-06-30T15:17:59Z</time>
      </trkpt>
      <trkpt lat="40.098033" lon="-5.489683">
        <ele>1580.0</ele>
        <time>2013-06-30T15:18:00Z</time>
      </trkpt>
      <trkpt lat="40.098100" lon="-5.489633">
        <ele>1582.0</ele>
        <time>2013-06-30T15:18:01Z</time>
      </trkpt>
      <trkpt lat="40.098150" lon="-5.489567">
        <ele>1585.0</ele>
        <time>2013-06-30T15:18:02Z</time>
      </trkpt>
      <trkpt lat="40.098200" lon="-5.489500">
        <ele>1587.0</ele>
        <time>2013-06-30T15:18:03Z</time>
      </trkpt>
      <trkpt lat="40.098233" lon="-5.489417">
        <ele>1590.0</ele>
        <time>2013-06-30T15:18:04Z</time>
      </trkpt>
      <trkpt lat="40.098250" lon="-5.489333">
        <ele>1592.0</ele>
        <time>2013-06-30T15:18:05Z</time>
      </trkpt>
      <trkpt lat="40.098267" lon="-5.489233">
        <ele>1595.0</ele>
        <time>2013-06-30T15:18:06Z</time>
      </trkpt>
      <trkpt lat="40.098283" lon="-5.489150">
        <ele>1599.0</ele>
        <time>2013-06-30T15:18:07Z</time>
      </trkpt>
      <trkpt lat="40.098283" lon="-5.489050">
        <ele>1602.0</ele>
        <time>2013-06-30T15:18:08Z</time>
      </trkpt>
      <trkpt lat="40.098267" lon="-5.488950">
        <ele>1604.0</ele>
        <time>2013-06-30T15:18:09Z</time>
      </trkpt>
      <trkpt lat="40.098250" lon="-5.488867">
        <ele>1606.0</ele>
        <time>2013-06-30T15:18:10Z</time>
      </trkpt>
      <trkpt lat="40.098233" lon="-5.488783">
        <ele>1609.0</ele>
        <time>2013-06-30T15:18:11Z</time>
      </trkpt>
      <trkpt lat="40.098217" lon="-5.488717">
        <ele>1612.0</ele>
        <time>2013-06-30T15:18:12Z</time>
      </trkpt>
      <trkpt lat="40.098167" lon="-5.488650">
        <ele>1615.0</ele>
        <time>2013-06-30T15:18:13Z</time>
      </trkpt>
      <trkpt lat="40.098117" lon="-5.488600">
        <ele>1617.0</ele>
        <time>2013-06-30T15:18:14Z</time>
      </trkpt>
      <trkpt lat="40.098083" lon="-5.488567">
        <ele>1619.0</ele>
        <time>2013-06-30T15:18:15Z</time>
      </trkpt>
      <trkpt lat="40.098033" lon="-5.488550">
        <ele>1620.0</ele>
        <time>2013-06-30T15:18:16Z</time>
      </trkpt>
      <trkpt lat="40.098000" lon="-5.488533">
        <ele>1620.0</ele>
        <time>2013-06-30T15:18:17Z</time>
      </trkpt>
      <trkpt lat="40.097967" lon="-5.488517">
        <ele>1619.0</ele>
        <time>2013-06-30T15:18:18Z</time>
      </trkpt>
      <trkpt lat="40.097917" lon="-5.488517">
        <ele>1615.0</ele>
        <time>2013-06-30T15:18:19Z</time>
      </trkpt>
      <trkpt lat="40.097833" lon="-5.488533">
        <ele>1611.0</ele>
        <time>2013-06-30T15:18:20Z</time>
      </trkpt>
      <trkpt lat="40.097767" lon="-5.488583">
        <ele>1609.0</ele>
        <time>2013-06-30T15:18:21Z</time>
      </trkpt>
      <trkpt lat="40.097700" lon="-5.488650">
        <ele>1609.0</ele>
        <time>2013-06-30T15:18:22Z</time>
      </trkpt>
      <trkpt lat="40.097667" lon="-5.488717">
        <ele>1609.0</ele>
        <time>2013-06-30T15:18:23Z</time>
      </trkpt>
      <trkpt lat="40.097617" lon="-5.488783">
        <ele>1608.0</ele>
        <time>2013-06-30T15:18:24Z</time>
      </trkpt>
      <trkpt lat="40.097567" lon="-5.488850">
        <ele>1607.0</ele>
        <time>2013-06-30T15:18:25Z</time>
      </trkpt>
      <trkpt lat="40.097533" lon="-5.488950">
        <ele>1607.0</ele>
        <time>2013-06-30T15:18:26Z</time>
      </trkpt>
      <trkpt lat="40.097500" lon="-5.489067">
        <ele>1607.0</ele>
        <time>2013-06-30T15:18:27Z</time>
      </trkpt>
      <trkpt lat="40.097467" lon="-5.489183">
        <ele>1608.0</ele>
        <time>2013-06-30T15:18:28Z</time>
      </trkpt>
      <trkpt lat="40.097450" lon="-5.489300">
        <ele>1609.0</ele>
        <time>2013-06-30T15:18:29Z</time>
      </trkpt>
      <trkpt lat="40.097433" lon="-5.489383">
        <ele>1611.0</ele>
        <time>2013-06-30T15:18:30Z</time>
      </trkpt>
      <trkpt lat="40.097417" lon="-5.489483">
        <ele>1612.0</ele>
        <time>2013-06-30T15:18:31Z</time>
      </trkpt>
      <trkpt lat="40.097417" lon="-5.489600">
        <ele>1612.0</ele>
        <time>2013-06-30T15:18:32Z</time>
      </trkpt>
      <trkpt lat="40.097417" lon="-5.489733">
        <ele>1612.0</ele>
        <time>2013-06-30T15:18:33Z</time>
      </trkpt>
      <trkpt lat="40.097417" lon="-5.489883">
        <ele>1612.0</ele>
        <time>2013-06-30T15:18:34Z</time>
      </trkpt>
      <trkpt lat="40.097433" lon="-5.490017">
        <ele>1614.0</ele>
        <time>2013-06-30T15:18:35Z</time>
      </trkpt>
      <trkpt lat="40.097433" lon="-5.490133">
        <ele>1617.0</ele>
        <time>2013-06-30T15:18:36Z</time>
      </trkpt>
      <trkpt lat="40.097450" lon="-5.490250">
        <ele>1620.0</ele>
        <time>2013-06-30T15:18:37Z</time>
      </trkpt>
      <trkpt lat="40.097483" lon="-5.490350">
        <ele>1623.0</ele>
        <time>2013-06-30T15:18:38Z</time>
      </trkpt>
      <trkpt lat="40.097517" lon="-5.490450">
        <ele>1625.0</ele>
        <time>2013-06-30T15:18:39Z</time>
      </trkpt>
      <trkpt lat="40.097583" lon="-5.490567">
        <ele>1626.0</ele>
        <time>2013-06-30T15:18:40Z</time>
      </trkpt>
      <trkpt lat="40.097650" lon="-5.490683">
        <ele>1628.0</ele>
        <time>2013-06-30T15:18:41Z</time>
      </trkpt>
      <trkpt lat="40.097733" lon="-5.490750">
        <ele>1629.0</ele>
        <time>2013-06-30T15:18:42Z</time>
      </trkpt>
      <trkpt lat="40.097817" lon="-5.490800">
        <ele>1632.0</ele>
        <time>2013-06-30T15:18:43Z</time>
      </trkpt>
      <trkpt lat="40.097883" lon="-5.490817">
        <ele>1634.0</ele>
        <time>2013-06-30T15:18:44Z</time>
      </trkpt>
      <trkpt lat="40.097950" lon="-5.490833">
        <ele>1636.0</ele>
        <time>2013-06-30T15:18:45Z</time>
      </trkpt>
      <trkpt lat="40.098033" lon="-5.490867">
        <ele>1639.0</ele>
        <time>2013-06-30T15:18:46Z</time>
      </trkpt>
      <trkpt lat="40.098117" lon="-5.490867">
        <ele>1638.0</ele>
        <time>2013-06-30T15:18:47Z</time>
      </trkpt>
      <trkpt lat="40.098283" lon="-5.490867">
        <ele>1641.0</ele>
        <time>2013-06-30T15:18:49Z</time>
      </trkpt>
      <trkpt lat="40.098350" lon="-5.490817">
        <ele>1644.0</ele>
        <time>2013-06-30T15:18:50Z</time>
      </trkpt>
      <trkpt lat="40.098400" lon="-5.490767">
        <ele>1646.0</ele>
        <time>2013-06-30T15:18:51Z</time>
      </trkpt>
      <trkpt lat="40.098433" lon="-5.490700">
        <ele>1648.0</ele>
        <time>2013-06-30T15:18:52Z</time>
      </trkpt>
      <trkpt lat="40.098467" lon="-5.490633">
        <ele>1651.0</ele>
        <time>2013-06-30T15:18:53Z</time>
      </trkpt>
      <trkpt lat="40.098517" lon="-5.490567">
        <ele>1653.0</ele>
        <time>2013-06-30T15:18:54Z</time>
      </trkpt>
      <trkpt lat="40.098533" lon="-5.490500">
        <ele>1656.0</ele>
        <time>2013-06-30T15:18:55Z</time>
      </trkpt>
      <trkpt lat="40.098533" lon="-5.490433">
        <ele>1660.0</ele>
        <time>2013-06-30T15:18:56Z</time>
      </trkpt>
      <trkpt lat="40.098500" lon="-5.490350">
        <ele>1664.0</ele>
        <time>2013-06-30T15:18:57Z</time>
      </trkpt>
      <trkpt lat="40.098467" lon="-5.490267">
        <ele>1668.0</ele>
        <time>2013-06-30T15:18:58Z</time>
      </trkpt>
      <trkpt lat="40.098367" lon="-5.490150">
        <ele>1675.0</ele>
        <time>2013-06-30T15:19:00Z</time>
      </trkpt>
      <trkpt lat="40.098250" lon="-5.490083">
        <ele>1681.0</ele>
        <time>2013-06-30T15:19:02Z</time>
      </trkpt>
      <trkpt lat="40.098117" lon="-5.490083">
        <ele>1687.0</ele>
        <time>2013-06-30T15:19:04Z</time>
      </trkpt>
      <trkpt lat="40.098033" lon="-5.490117">
        <ele>1690.0</ele>
        <time>2013-06-30T15:19:05Z</time>
      </trkpt>
      <trkpt lat="40.097967" lon="-5.490167">
        <ele>1693.0</ele>
        <time>2013-06-30T15:19:06Z</time>
      </trkpt>
      <trkpt lat="40.097917" lon="-5.490217">
        <ele>1695.0</ele>
        <time>2013-06-30T15:19:07Z</time>
      </trkpt>
      <trkpt lat="40.097867" lon="-5.490283">
        <ele>1697.0</ele>
        <time>2013-06-30T15:19:08Z</time>
      </trkpt>
      <trkpt lat="40.097800" lon="-5.490383">
        <ele>1698.0</ele>
        <time>2013-06-30T15:19:09Z</time>
      </trkpt>
      <trkpt lat="40.097733" lon="-5.490483">
        <ele>1700.0</ele>
        <time>2013-06-30T15:19:10Z</time>
      </trkpt>
      <trkpt lat="40.097667" lon="-5.490583">
        <ele>1700.0</ele>
        <time>2013-06-30T15:19:11Z</time>
      </trkpt>
      <trkpt lat="40.097617" lon="-5.490683">
        <ele>1702.0</ele>
        <time>2013-06-30T15:19:12Z</time>
      </trkpt>
      <trkpt lat="40.097567" lon="-5.490783">
        <ele>1705.0</ele>
        <time>2013-06-30T15:19:13Z</time>
      </trkpt>
      <trkpt lat="40.097533" lon="-5.490900">
        <ele>1708.0</ele>
        <time>2013-06-30T15:19:14Z</time>
      </trkpt>
      <trkpt lat="40.097517" lon="-5.491033">
        <ele>1710.0</ele>
        <time>2013-06-30T15:19:15Z</time>
      </trkpt>
      <trkpt lat="40.097517" lon="-5.491167">
        <ele>1712.0</ele>
        <time>2013-06-30T15:19:16Z</time>
      </trkpt>
      <trkpt lat="40.097533" lon="-5.491300">
        <ele>1715.0</ele>
        <time>2013-06-30T15:19:17Z</time>
      </trkpt>
      <trkpt lat="40.097567" lon="-5.491433">
        <ele>1717.0</ele>
        <time>2013-06-30T15:19:18Z</time>
      </trkpt>
      <trkpt lat="40.097650" lon="-5.491650">
        <ele>1721.0</ele>
        <time>2013-06-30T15:19:20Z</time>
      </trkpt>
      <trkpt lat="40.097717" lon="-5.491750">
        <ele>1723.0</ele>
        <time>2013-06-30T15:19:21Z</time>
      </trkpt>
      <trkpt lat="40.097850" lon="-5.491883">
        <ele>1723.0</ele>
        <time>2013-06-30T15:19:23Z</time>
      </trkpt>
      <trkpt lat="40.097917" lon="-5.491933">
        <ele>1723.0</ele>
        <time>2013-06-30T15:19:24Z</time>
      </trkpt>
      <trkpt lat="40.097983" lon="-5.491950">
        <ele>1724.0</ele>
        <time>2013-06-30T15:19:25Z</time>
      </trkpt>
      <trkpt lat="40.098133" lon="-5.491900">
        <ele>1725.0</ele>
        <time>2013-06-30T15:19:27Z</time>
      </trkpt>
      <trkpt lat="40.098200" lon="-5.491867">
        <ele>1726.0</ele>
        <time>2013-06-30T15:19:28Z</time>
      </trkpt>
      <trkpt lat="40.098267" lon="-5.491850">
        <ele>1727.0</ele>
        <time>2013-06-30T15:19:29Z</time>
      </trkpt>
      <trkpt lat="40.098333" lon="-5.491800">
        <ele>1728.0</ele>
        <time>2013-06-30T15:19:30Z</time>
      </trkpt>
      <trkpt lat="40.098383" lon="-5.491750">
        <ele>1729.0</ele>
        <time>2013-06-30T15:19:31Z</time>
      </trkpt>
      <trkpt lat="40.098433" lon="-5.491667">
        <ele>1729.0</ele>
        <time>2013-06-30T15:19:32Z</time>
      </trkpt>
      <trkpt lat="40.098483" lon="-5.491583">
        <ele>1730.0</ele>
        <time>2013-06-30T15:19:33Z</time>
      </trkpt>
      <trkpt lat="40.098550" lon="-5.491517">
        <ele>1731.0</ele>
        <time>2013-06-30T15:19:34Z</time>
      </trkpt>
      <trkpt lat="40.098600" lon="-5.491433">
        <ele>1731.0</ele>
        <time>2013-06-30T15:19:35Z</time>
      </trkpt>
      <trkpt lat="40.098633" lon="-5.491350">
        <ele>1732.0</ele>
        <time>2013-06-30T15:19:36Z</time>
      </trkpt>
      <trkpt lat="40.098650" lon="-5.491267">
        <ele>1733.0</ele>
        <time>2013-06-30T15:19:37Z</time>
      </trkpt>
      <trkpt lat="40.098650" lon="-5.491167">
        <ele>1734.0</ele>
        <time>2013-06-30T15:19:38Z</time>
      </trkpt>
      <trkpt lat="40.098617" lon="-5.491083">
        <ele>1734.0</ele>
        <time>2013-06-30T15:19:39Z</time>
      </trkpt>
      <trkpt lat="40.098583" lon="-5.491000">
        <ele>1736.0</ele>
        <time>2013-06-30T15:19:40Z</time>
      </trkpt>
      <trkpt lat="40.098533" lon="-5.490933">
        <ele>1739.0</ele>
        <time>2013-06-30T15:19:41Z</time>
      </trkpt>
      <trkpt lat="40.098467" lon="-5.490867">
        <ele>1742.0</ele>
        <time>2013-06-30T15:19:42Z</time>
      </trkpt>
      <trkpt lat="40.098383" lon="-5.490800">
        <ele>1746.0</ele>
        <time>2013-06-30T15:19:43Z</time>
      </trkpt>
      <trkpt lat="40.098317" lon="-5.490750">
        <ele>1751.0</ele>
        <time>2013-06-30T15:19:44Z</time>
      </trkpt>
      <trkpt lat="40.098233" lon="-5.490733">
        <ele>1755.0</ele>
        <time>2013-06-30T15:19:45Z</time>
      </trkpt>
      <trkpt lat="40.098150" lon="-5.490733">
        <ele>1758.0</ele>
        <time>2013-06-30T15:19:46Z</time>
      </trkpt>
      <trkpt lat="40.098067" lon="-5.490750">
        <ele>1760.0</ele>
        <time>2013-06-30T15:19:47Z</time>
      </trkpt>
      <trkpt lat="40.097983" lon="-5.490783">
        <ele>1763.0</ele>
        <time>2013-06-30T15:19:48Z</time>
      </trkpt>
      <trkpt lat="40.097900" lon="-5.490833">
        <ele>1767.0</ele>
        <time>2013-06-30T15:19:49Z</time>
      </trkpt>
      <trkpt lat="40.097800" lon="-5.490883">
        <ele>1770.0</ele>
        <time>2013-06-30T15:19:50Z</time>
      </trkpt>
      <trkpt lat="40.097700" lon="-5.490967">
        <ele>1772.0</ele>
        <time>2013-06-30T15:19:51Z</time>
      </trkpt>
      <trkpt lat="40.097617" lon="-5.491033">
        <ele>1775.0</ele>
        <time>2013-06-30T15:19:52Z</time>
      </trkpt>
      <trkpt lat="40.097517" lon="-5.491133">
        <ele>1776.0</ele>
        <time>2013-06-30T15:19:53Z</time>
      </trkpt>
      <trkpt lat="40.097450" lon="-5.491233">
        <ele>1778.0</ele>
        <time>2013-06-30T15:19:54Z</time>
      </trkpt>
      <trkpt lat="40.097383" lon="-5.491350">
        <ele>1779.0</ele>
        <time>2013-06-30T15:19:55Z</time>
      </trkpt>
      <trkpt lat="40.097333" lon="-5.491467">
        <ele>1781.0</ele>
        <time>2013-06-30T15:19:56Z</time>
      </trkpt>
      <trkpt lat="40.097317" lon="-5.491600">
        <ele>1784.0</ele>
        <time>2013-06-30T15:19:57Z</time>
      </trkpt>
      <trkpt lat="40.097300" lon="-5.491717">
        <ele>1786.0</ele>
        <time>2013-06-30T15:19:58Z</time>
      </trkpt>
      <trkpt lat="40.097283" lon="-5.491850">
        <ele>1789.0</ele>
        <time>2013-06-30T15:19:59Z</time>
      </trkpt>
      <trkpt lat="40.097267" lon="-5.491950">
        <ele>1792.0</ele>
        <time>2013-06-30T15:20:00Z</time>
      </trkpt>
      <trkpt lat="40.097250" lon="-5.492067">
        <ele>1794.0</ele>
        <time>2013-06-30T15:20:01Z</time>
      </trkpt>
      <trkpt lat="40.097233" lon="-5.492183">
        <ele>1796.0</ele>
        <time>2013-06-30T15:20:02Z</time>
      </trkpt>
      <trkpt lat="40.097233" lon="-5.492300">
        <ele>1798.0</ele>
        <time>2013-06-30T15:20:03Z</time>
      </trkpt>
      <trkpt lat="40.097267" lon="-5.492417">
        <ele>1800.0</ele>
        <time>2013-06-30T15:20:04Z</time>
      </trkpt>
      <trkpt lat="40.097300" lon="-5.492517">
        <ele>1802.0</ele>
        <time>2013-06-30T15:20:05Z</time>
      </trkpt>
      <trkpt lat="40.097350" lon="-5.492600">
        <ele>1803.0</ele>
        <time>2013-06-30T15:20:06Z</time>
      </trkpt>
      <trkpt lat="40.097400" lon="-5.492700">
        <ele>1805.0</ele>
        <time>2013-06-30T15:20:07Z</time>
      </trkpt>
      <trkpt lat="40.097450" lon="-5.492767">
        <ele>1807.0</ele>
        <time>2013-06-30T15:20:08Z</time>
      </trkpt>
      <trkpt lat="40.097500" lon="-5.492833">
        <ele>1809.0</ele>
        <time>2013-06-30T15:20:09Z</time>
      </trkpt>
      <trkpt lat="40.097567" lon="-5.492883">
        <ele>1810.0</ele>
        <time>2013-06-30T15:20:10Z</time>
      </trkpt>
      <trkpt lat="40.097633" lon="-5.492900">
        <ele>1811.0</ele>
        <time>2013-06-30T15:20:11Z</time>
      </trkpt>
      <trkpt lat="40.097717" lon="-5.492917">
        <ele>1812.0</ele>
        <time>2013-06-30T15:20:12Z</time>
      </trkpt>
      <trkpt lat="40.097783" lon="-5.492933">
        <ele>1813.0</ele>
        <time>2013-06-30T15:20:13Z</time>
      </trkpt>
      <trkpt lat="40.097850" lon="-5.492933">
        <ele>1815.0</ele>
        <time>2013-06-30T15:20:14Z</time>
      </trkpt>
      <trkpt lat="40.097917" lon="-5.492933">
        <ele>1816.0</ele>
        <time>2013-06-30T15:20:15Z</time>
      </trkpt>
      <trkpt lat="40.097983" lon="-5.492917">
        <ele>1818.0</ele>
        <time>2013-06-30T15:20:16Z</time>
      </trkpt>
      <trkpt lat="40.098033" lon="-5.492883">
        <ele>1818.0</ele>
        <time>2013-06-30T15:20:17Z</time>
      </trkpt>
      <trkpt lat="40.098083" lon="-5.492833">
        <ele>1818.0</ele>
        <time>2013-06-30T15:20:18Z</time>
      </trkpt>
      <trkpt lat="40.098117" lon="-5.492767">
        <ele>1818.0</ele>
        <time>2013-06-30T15:20:19Z</time>
      </trkpt>
      <trkpt lat="40.098167" lon="-5.492683">
        <ele>1818.0</ele>
        <time>2013-06-30T15:20:20Z</time>
      </trkpt>
      <trkpt lat="40.098200" lon="-5.492600">
        <ele>1819.0</ele>
        <time>2013-06-30T15:20:21Z</time>
      </trkpt>
      <trkpt lat="40.098250" lon="-5.492517">
        <ele>1819.0</ele>
        <time>2013-06-30T15:20:22Z</time>
      </trkpt>
      <trkpt lat="40.098283" lon="-5.492417">
        <ele>1819.0</ele>
        <time>2013-06-30T15:20:23Z</time>
      </trkpt>
      <trkpt lat="40.098300" lon="-5.492333">
        <ele>1820.0</ele>
        <time>2013-06-30T15:20:24Z</time>
      </trkpt>
      <trkpt lat="40.098317" lon="-5.492233">
        <ele>1820.0</ele>
        <time>2013-06-30T15:20:25Z</time>
      </trkpt>
      <trkpt lat="40.098333" lon="-5.492150">
        <ele>1820.0</ele>
        <time>2013-06-30T15:20:26Z</time>
      </trkpt>
      <trkpt lat="40.098333" lon="-5.492033">
        <ele>1821.0</ele>
        <time>2013-06-30T15:20:27Z</time>
      </trkpt>
      <trkpt lat="40.098333" lon="-5.491917">
        <ele>1821.0</ele>
        <time>2013-06-30T15:20:28Z</time>
      </trkpt>
      <trkpt lat="40.098317" lon="-5.491800">
        <ele>1823.0</ele>
        <time>2013-06-30T15:20:29Z</time>
      </trkpt>
      <trkpt lat="40.098283" lon="-5.491700">
        <ele>1824.0</ele>
        <time>2013-06-30T15:20:30Z</time>
      </trkpt>
      <trkpt lat="40.098250" lon="-5.491600">
        <ele>1826.0</ele>
        <time>2013-06-30T15:20:31Z</time>
      </trkpt>
      <trkpt lat="40.098217" lon="-5.491500">
        <ele>1827.0</ele>
        <time>2013-06-30T15:20:32Z</time>
      </trkpt>
      <trkpt lat="40.098150" lon="-5.491417">
        <ele>1829.0</ele>
        <time>2013-06-30T15:20:33Z</time>
      </trkpt>
      <trkpt lat="40.098083" lon="-5.491350">
        <ele>1830.0</ele>
        <time>2013-06-30T15:20:34Z</time>
      </trkpt>
      <trkpt lat="40.098000" lon="-5.491317">
        <ele>1832.0</ele>
        <time>2013-06-30T15:20:35Z</time>
      </trkpt>
      <trkpt lat="40.097917" lon="-5.491283">
        <ele>1834.0</ele>
        <time>2013-06-30T15:20:36Z</time>
      </trkpt>
      <trkpt lat="40.097850" lon="-5.491283">
        <ele>1836.0</ele>
        <time>2013-06-30T15:20:37Z</time>
      </trkpt>
      <trkpt lat="40.097750" lon="-5.491300">
        <ele>1837.0</ele>
        <time>2013-06-30T15:20:38Z</time>
      </trkpt>
      <trkpt lat="40.097667" lon="-5.491350">
        <ele>1838.0</ele>
        <time>2013-06-30T15:20:39Z</time>
      </trkpt>
      <trkpt lat="40.097567" lon="-5.491400">
        <ele>1839.0</ele>
        <time>2013-06-30T15:20:40Z</time>
      </trkpt>
      <trkpt lat="40.097483" lon="-5.491467">
        <ele>1840.0</ele>
        <time>2013-06-30T15:20:41Z</time>
      </trkpt>
      <trkpt lat="40.097400" lon="-5.491550">
        <ele>1842.0</ele>
        <time>2013-06-30T15:20:42Z</time>
      </trkpt>
      <trkpt lat="40.097333" lon="-5.491633">
        <ele>1844.0</ele>
        <time>2013-06-30T15:20:43Z</time>
      </trkpt>
      <trkpt lat="40.097283" lon="-5.491750">
        <ele>1846.0</ele>
        <time>2013-06-30T15:20:44Z</time>
      </trkpt>
      <trkpt lat="40.097250" lon="-5.491850">
        <ele>1847.0</ele>
        <time>2013-06-30T15:20:45Z</time>
      </trkpt>
      <trkpt lat="40.097217" lon="-5.491967">
        <ele>1848.0</ele>
        <time>2013-06-30T15:20:46Z</time>
      </trkpt>
      <trkpt lat="40.097217" lon="-5.492100">
        <ele>1849.0</ele>
        <time>2013-06-30T15:20:47Z</time>
      </trkpt>
      <trkpt lat="40.097233" lon="-5.492200">
        <ele>1851.0</ele>
        <time>2013-06-30T15:20:48Z</time>
      </trkpt>
      <trkpt lat="40.097250" lon="-5.492300">
        <ele>1853.0</ele>
        <time>2013-06-30T15:20:49Z</time>
      </trkpt>
      <trkpt lat="40.097267" lon="-5.492400">
        <ele>1855.0</ele>
        <time>2013-06-30T15:20:50Z</time>
      </trkpt>
      <trkpt lat="40.097317" lon="-5.492483">
        <ele>1856.0</ele>
        <time>2013-06-30T15:20:51Z</time>
      </trkpt>
      <trkpt lat="40.097350" lon="-5.492567">
        <ele>1858.0</ele>
        <time>2013-06-30T15:20:52Z</time>
      </trkpt>
      <trkpt lat="40.097400" lon="-5.492633">
        <ele>1860.0</ele>
        <time>2013-06-30T15:20:53Z</time>
      </trkpt>
      <trkpt lat="40.097433" lon="-5.492700">
        <ele>1862.0</ele>
        <time>2013-06-30T15:20:54Z</time>
      </trkpt>
      <trkpt lat="40.097467" lon="-5.492750">
        <ele>1863.0</ele>
        <time>2013-06-30T15:20:55Z</time>
      </trkpt>
      <trkpt lat="40.097533" lon="-5.492800">
        <ele>1864.0</ele>
        <time>2013-06-30T15:20:56Z</time>
      </trkpt>
      <trkpt lat="40.097600" lon="-5.492833">
        <ele>1864.0</ele>
        <time>2013-06-30T15:20:57Z</time>
      </trkpt>
      <trkpt lat="40.097683" lon="-5.492833">
        <ele>1864.0</ele>
        <time>2013-06-30T15:20:58Z</time>
      </trkpt>
      <trkpt lat="40.097750" lon="-5.492800">
        <ele>1863.0</ele>
        <time>2013-06-30T15:20:59Z</time>
      </trkpt>
      <trkpt lat="40.097833" lon="-5.492767">
        <ele>1863.0</ele>
        <time>2013-06-30T15:21:00Z</time>
      </trkpt>
      <trkpt lat="40.097900" lon="-5.492700">
        <ele>1862.0</ele>
        <time>2013-06-30T15:21:01Z</time>
      </trkpt>
      <trkpt lat="40.097950" lon="-5.492633">
        <ele>1863.0</ele>
        <time>2013-06-30T15:21:02Z</time>
      </trkpt>
      <trkpt lat="40.098017" lon="-5.492567">
        <ele>1863.0</ele>
        <time>2013-06-30T15:21:03Z</time>
      </trkpt>
      <trkpt lat="40.098067" lon="-5.492500">
        <ele>1863.0</ele>
        <time>2013-06-30T15:21:04Z</time>
      </trkpt>
      <trkpt lat="40.098133" lon="-5.492433">
        <ele>1863.0</ele>
        <time>2013-06-30T15:21:05Z</time>
      </trkpt>
      <trkpt lat="40.098167" lon="-5.492367">
        <ele>1863.0</ele>
        <time>2013-06-30T15:21:06Z</time>
      </trkpt>
      <trkpt lat="40.098217" lon="-5.492183">
        <ele>1864.0</ele>
        <time>2013-06-30T15:21:08Z</time>
      </trkpt>
      <trkpt lat="40.098250" lon="-5.492100">
        <ele>1865.0</ele>
        <time>2013-06-30T15:21:09Z</time>
      </trkpt>
      <trkpt lat="40.098283" lon="-5.492017">
        <ele>1865.0</ele>
        <time>2013-06-30T15:21:10Z</time>
      </trkpt>
      <trkpt lat="40.098300" lon="-5.491933">
        <ele>1866.0</ele>
        <time>2013-06-30T15:21:11Z</time>
      </trkpt>
      <trkpt lat="40.098300" lon="-5.491850">
        <ele>1868.0</ele>
        <time>2013-06-30T15:21:12Z</time>
      </trkpt>
      <trkpt lat="40.098300" lon="-5.491750">
        <ele>1869.0</ele>
        <time>2013-06-30T15:21:13Z</time>
      </trkpt>
      <trkpt lat="40.098283" lon="-5.491650">
        <ele>1870.0</ele>
        <time>2013-06-30T15:21:14Z</time>
      </trkpt>
      <trkpt lat="40.098267" lon="-5.491533">
        <ele>1870.0</ele>
        <time>2013-06-30T15:21:15Z</time>
      </trkpt>
      <trkpt lat="40.098233" lon="-5.491417">
        <ele>1871.0</ele>
        <time>2013-06-30T15:21:16Z</time>
      </trkpt>
      <trkpt lat="40.098200" lon="-5.491333">
        <ele>1873.0</ele>
        <time>2013-06-30T15:21:17Z</time>
      </trkpt>
      <trkpt lat="40.098167" lon="-5.491250">
        <ele>1875.0</ele>
        <time>2013-06-30T15:21:18Z</time>
      </trkpt>
      <trkpt lat="40.098117" lon="-5.491183">
        <ele>1876.0</ele>
        <time>2013-06-30T15:21:19Z</time>
      </trkpt>
      <trkpt lat="40.098067" lon="-5.491117">
        <ele>1876.0</ele>
        <time>2013-06-30T15:21:20Z</time>
      </trkpt>
      <trkpt lat="40.098000" lon="-5.491050">
        <ele>1875.0</ele>
        <time>2013-06-30T15:21:21Z</time>
      </trkpt>
      <trkpt lat="40.097933" lon="-5.491000">
        <ele>1875.0</ele>
        <time>2013-06-30T15:21:22Z</time>
      </trkpt>
      <trkpt lat="40.097850" lon="-5.490950">
        <ele>1876.0</ele>
        <time>2013-06-30T15:21:23Z</time>
      </trkpt>
      <trkpt lat="40.097783" lon="-5.490950">
        <ele>1876.0</ele>
        <time>2013-06-30T15:21:24Z</time>
      </trkpt>
      <trkpt lat="40.097733" lon="-5.490967">
        <ele>1877.0</ele>
        <time>2013-06-30T15:21:25Z</time>
      </trkpt>
      <trkpt lat="40.097667" lon="-5.491000">
        <ele>1877.0</ele>
        <time>2013-06-30T15:21:26Z</time>
      </trkpt>
      <trkpt lat="40.097600" lon="-5.491033">
        <ele>1877.0</ele>
        <time>2013-06-30T15:21:27Z</time>
      </trkpt>
      <trkpt lat="40.097533" lon="-5.491083">
        <ele>1877.0</ele>
        <time>2013-06-30T15:21:28Z</time>
      </trkpt>
      <trkpt lat="40.097467" lon="-5.491150">
        <ele>1878.0</ele>
        <time>2013-06-30T15:21:29Z</time>
      </trkpt>
      <trkpt lat="40.097417" lon="-5.491217">
        <ele>1879.0</ele>
        <time>2013-06-30T15:21:30Z</time>
      </trkpt>
      <trkpt lat="40.097350" lon="-5.491300">
        <ele>1880.0</ele>
        <time>2013-06-30T15:21:31Z</time>
      </trkpt>
      <trkpt lat="40.097300" lon="-5.491383">
        <ele>1882.0</ele>
        <time>2013-06-30T15:21:32Z</time>
      </trkpt>
      <trkpt lat="40.097250" lon="-5.491450">
        <ele>1886.0</ele>
        <time>2013-06-30T15:21:33Z</time>
      </trkpt>
      <trkpt lat="40.097200" lon="-5.491517">
        <ele>1888.0</ele>
        <time>2013-06-30T15:21:34Z</time>
      </trkpt>
      <trkpt lat="40.097133" lon="-5.491583">
        <ele>1890.0</ele>
        <time>2013-06-30T15:21:35Z</time>
      </trkpt>
      <trkpt lat="40.097050" lon="-5.491650">
        <ele>1891.0</ele>
        <time>2013-06-30T15:21:36Z</time>
      </trkpt>
      <trkpt lat="40.096967" lon="-5.491733">
        <ele>1893.0</ele>
        <time>2013-06-30T15:21:37Z</time>
      </trkpt>
      <trkpt lat="40.096900" lon="-5.491817">
        <ele>1894.0</ele>
        <time>2013-06-30T15:21:38Z</time>
      </trkpt>
      <trkpt lat="40.096850" lon="-5.491883">
        <ele>1895.0</ele>
        <time>2013-06-30T15:21:39Z</time>
      </trkpt>
      <trkpt lat="40.096783" lon="-5.491983">
        <ele>1896.0</ele>
        <time>2013-06-30T15:21:40Z</time>
      </trkpt>
      <trkpt lat="40.096700" lon="-5.492100">
        <ele>1896.0</ele>
        <time>2013-06-30T15:21:41Z</time>
      </trkpt>
      <trkpt lat="40.096633" lon="-5.492250">
        <ele>1896.0</ele>
        <time>2013-06-30T15:21:42Z</time>
      </trkpt>
      <trkpt lat="40.096567" lon="-5.492383">
        <ele>1896.0</ele>
        <time>2013-06-30T15:21:43Z</time>
      </trkpt>
      <trkpt lat="40.096500" lon="-5.492517">
        <ele>1897.0</ele>
        <time>2013-06-30T15:21:44Z</time>
      </trkpt>
      <trkpt lat="40.096450" lon="-5.492633">
        <ele>1898.0</ele>
        <time>2013-06-30T15:21:45Z</time>
      </trkpt>
      <trkpt lat="40.096400" lon="-5.492733">
        <ele>1898.0</ele>
        <time>2013-06-30T15:21:46Z</time>
      </trkpt>
      <trkpt lat="40.096367" lon="-5.492850">
        <ele>1897.0</ele>
        <time>2013-06-30T15:21:47Z</time>
      </trkpt>
      <trkpt lat="40.096317" lon="-5.492983">
        <ele>1895.0</ele>
        <time>2013-06-30T15:21:48Z</time>
      </trkpt>
      <trkpt lat="40.096300" lon="-5.493133">
        <ele>1892.0</ele>
        <time>2013-06-30T15:21:49Z</time>
      </trkpt>
      <trkpt lat="40.096267" lon="-5.493283">
        <ele>1890.0</ele>
        <time>2013-06-30T15:21:50Z</time>
      </trkpt>
      <trkpt lat="40.096267" lon="-5.493450">
        <ele>1888.0</ele>
        <time>2013-06-30T15:21:51Z</time>
      </trkpt>
      <trkpt lat="40.096250" lon="-5.493600">
        <ele>1886.0</ele>
        <time>2013-06-30T15:21:52Z</time>
      </trkpt>
      <trkpt lat="40.096233" lon="-5.493767">
        <ele>1885.0</ele>
        <time>2013-06-30T15:21:53Z</time>
      </trkpt>
      <trkpt lat="40.096217" lon="-5.493933">
        <ele>1884.0</ele>
        <time>2013-06-30T15:21:54Z</time>
      </trkpt>
      <trkpt lat="40.096183" lon="-5.494067">
        <ele>1884.0</ele>
        <time>2013-06-30T15:21:55Z</time>
      </trkpt>
      <trkpt lat="40.096150" lon="-5.494183">
        <ele>1884.0</ele>
        <time>2013-06-30T15:21:56Z</time>
      </trkpt>
      <trkpt lat="40.096100" lon="-5.494283">
        <ele>1884.0</ele>
        <time>2013-06-30T15:21:57Z</time>
      </trkpt>
      <trkpt lat="40.096033" lon="-5.494417">
        <ele>1885.0</ele>
        <time>2013-06-30T15:21:58Z</time>
      </trkpt>
      <trkpt lat="40.095967" lon="-5.494583">
        <ele>1885.0</ele>
        <time>2013-06-30T15:21:59Z</time>
      </trkpt>
      <trkpt lat="40.095900" lon="-5.494717">
        <ele>1884.0</ele>
        <time>2013-06-30T15:22:00Z</time>
      </trkpt>
      <trkpt lat="40.095833" lon="-5.494833">
        <ele>1884.0</ele>
        <time>2013-06-30T15:22:01Z</time>
      </trkpt>
      <trkpt lat="40.095783" lon="-5.494933">
        <ele>1886.0</ele>
        <time>2013-06-30T15:22:02Z</time>
      </trkpt>
      <trkpt lat="40.095733" lon="-5.495017">
        <ele>1887.0</ele>
        <time>2013-06-30T15:22:03Z</time>
      </trkpt>
      <trkpt lat="40.095650" lon="-5.495133">
        <ele>1886.0</ele>
        <time>2013-06-30T15:22:04Z</time>
      </trkpt>
      <trkpt lat="40.095517" lon="-5.495417">
        <ele>1886.0</ele>
        <time>2013-06-30T15:22:06Z</time>
      </trkpt>
      <trkpt lat="40.095433" lon="-5.495550">
        <ele>1886.0</ele>
        <time>2013-06-30T15:22:07Z</time>
      </trkpt>
      <trkpt lat="40.095367" lon="-5.495683">
        <ele>1884.0</ele>
        <time>2013-06-30T15:22:08Z</time>
      </trkpt>
      <trkpt lat="40.095300" lon="-5.495833">
        <ele>1883.0</ele>
        <time>2013-06-30T15:22:09Z</time>
      </trkpt>
      <trkpt lat="40.095217" lon="-5.495967">
        <ele>1883.0</ele>
        <time>2013-06-30T15:22:10Z</time>
      </trkpt>
      <trkpt lat="40.095167" lon="-5.496083">
        <ele>1882.0</ele>
        <time>2013-06-30T15:22:11Z</time>
      </trkpt>
      <trkpt lat="40.095100" lon="-5.496183">
        <ele>1883.0</ele>
        <time>2013-06-30T15:22:12Z</time>
      </trkpt>
      <trkpt lat="40.095050" lon="-5.496283">
        <ele>1884.0</ele>
        <time>2013-06-30T15:22:13Z</time>
      </trkpt>
      <trkpt lat="40.095017" lon="-5.496367">
        <ele>1885.0</ele>
        <time>2013-06-30T15:22:14Z</time>
      </trkpt>
      <trkpt lat="40.094983" lon="-5.496483">
        <ele>1884.0</ele>
        <time>2013-06-30T15:22:15Z</time>
      </trkpt>
      <trkpt lat="40.094950" lon="-5.496600">
        <ele>1883.0</ele>
        <time>2013-06-30T15:22:16Z</time>
      </trkpt>
      <trkpt lat="40.094900" lon="-5.496733">
        <ele>1882.0</ele>
        <time>2013-06-30T15:22:17Z</time>
      </trkpt>
      <trkpt lat="40.094867" lon="-5.496867">
        <ele>1881.0</ele>
        <time>2013-06-30T15:22:18Z</time>
      </trkpt>
      <trkpt lat="40.094817" lon="-5.496983">
        <ele>1882.0</ele>
        <time>2013-06-30T15:22:19Z</time>
      </trkpt>
      <trkpt lat="40.094767" lon="-5.497083">
        <ele>1884.0</ele>
        <time>2013-06-30T15:22:20Z</time>
      </trkpt>
      <trkpt lat="40.094717" lon="-5.497150">
        <ele>1885.0</ele>
        <time>2013-06-30T15:22:21Z</time>
      </trkpt>
      <trkpt lat="40.094667" lon="-5.497250">
        <ele>1886.0</ele>
        <time>2013-06-30T15:22:22Z</time>
      </trkpt>
      <trkpt lat="40.094617" lon="-5.497350">
        <ele>1886.0</ele>
        <time>2013-06-30T15:22:23Z</time>
      </trkpt>
      <trkpt lat="40.094567" lon="-5.497467">
        <ele>1883.0</ele>
        <time>2013-06-30T15:22:24Z</time>
      </trkpt>
      <trkpt lat="40.094500" lon="-5.497567">
        <ele>1882.0</ele>
        <time>2013-06-30T15:22:25Z</time>
      </trkpt>
      <trkpt lat="40.094450" lon="-5.497667">
        <ele>1881.0</ele>
        <time>2013-06-30T15:22:26Z</time>
      </trkpt>
      <trkpt lat="40.094400" lon="-5.497767">
        <ele>1880.0</ele>
        <time>2013-06-30T15:22:27Z</time>
      </trkpt>
      <trkpt lat="40.094350" lon="-5.497867">
        <ele>1879.0</ele>
        <time>2013-06-30T15:22:28Z</time>
      </trkpt>
      <trkpt lat="40.094300" lon="-5.497983">
        <ele>1878.0</ele>
        <time>2013-06-30T15:22:29Z</time>
      </trkpt>
      <trkpt lat="40.094250" lon="-5.498100">
        <ele>1878.0</ele>
        <time>2013-06-30T15:22:30Z</time>
      </trkpt>
      <trkpt lat="40.094200" lon="-5.498200">
        <ele>1878.0</ele>
        <time>2013-06-30T15:22:31Z</time>
      </trkpt>
      <trkpt lat="40.094167" lon="-5.498283">
        <ele>1879.0</ele>
        <time>2013-06-30T15:22:32Z</time>
      </trkpt>
      <trkpt lat="40.094117" lon="-5.498400">
        <ele>1879.0</ele>
        <time>2013-06-30T15:22:33Z</time>
      </trkpt>
      <trkpt lat="40.094083" lon="-5.498517">
        <ele>1878.0</ele>
        <time>2013-06-30T15:22:34Z</time>
      </trkpt>
      <trkpt lat="40.094033" lon="-5.498633">
        <ele>1878.0</ele>
        <time>2013-06-30T15:22:35Z</time>
      </trkpt>
      <trkpt lat="40.093983" lon="-5.498767">
        <ele>1877.0</ele>
        <time>2013-06-30T15:22:36Z</time>
      </trkpt>
      <trkpt lat="40.093950" lon="-5.498883">
        <ele>1878.0</ele>
        <time>2013-06-30T15:22:37Z</time>
      </trkpt>
      <trkpt lat="40.093917" lon="-5.499000">
        <ele>1878.0</ele>
        <time>2013-06-30T15:22:38Z</time>
      </trkpt>
      <trkpt lat="40.093867" lon="-5.499117">
        <ele>1879.0</ele>
        <time>2013-06-30T15:22:39Z</time>
      </trkpt>
      <trkpt lat="40.093817" lon="-5.499233">
        <ele>1879.0</ele>
        <time>2013-06-30T15:22:40Z</time>
      </trkpt>
      <trkpt lat="40.093783" lon="-5.499367">
        <ele>1879.0</ele>
        <time>2013-06-30T15:22:41Z</time>
      </trkpt>
      <trkpt lat="40.093733" lon="-5.499500">
        <ele>1879.0</ele>
        <time>2013-06-30T15:22:42Z</time>
      </trkpt>
      <trkpt lat="40.093700" lon="-5.499650">
        <ele>1879.0</ele>
        <time>2013-06-30T15:22:43Z</time>
      </trkpt>
      <trkpt lat="40.093667" lon="-5.499783">
        <ele>1879.0</ele>
        <time>2013-06-30T15:22:44Z</time>
      </trkpt>
      <trkpt lat="40.093633" lon="-5.499917">
        <ele>1880.0</ele>
        <time>2013-06-30T15:22:45Z</time>
      </trkpt>
      <trkpt lat="40.093600" lon="-5.500050">
        <ele>1880.0</ele>
        <time>2013-06-30T15:22:46Z</time>
      </trkpt>
      <trkpt lat="40.093567" lon="-5.500183">
        <ele>1879.0</ele>
        <time>2013-06-30T15:22:47Z</time>
      </trkpt>
      <trkpt lat="40.093533" lon="-5.500317">
        <ele>1877.0</ele>
        <time>2013-06-30T15:22:48Z</time>
      </trkpt>
      <trkpt lat="40.093483" lon="-5.500467">
        <ele>1875.0</ele>
        <time>2013-06-30T15:22:49Z</time>
      </trkpt>
      <trkpt lat="40.093450" lon="-5.500617">
        <ele>1873.0</ele>
        <time>2013-06-30T15:22:50Z</time>
      </trkpt>
      <trkpt lat="40.093417" lon="-5.500750">
        <ele>1871.0</ele>
        <time>2013-06-30T15:22:51Z</time>
      </trkpt>
      <trkpt lat="40.093350" lon="-5.500867">
        <ele>1869.0</ele>
        <time>2013-06-30T15:22:52Z</time>
      </trkpt>
      <trkpt lat="40.093300" lon="-5.500983">
        <ele>1866.0</ele>
        <time>2013-06-30T15:22:53Z</time>
      </trkpt>
      <trkpt lat="40.093217" lon="-5.501117">
        <ele>1863.0</ele>
        <time>2013-06-30T15:22:54Z</time>
      </trkpt>
      <trkpt lat="40.093150" lon="-5.501250">
        <ele>1860.0</ele>
        <time>2013-06-30T15:22:55Z</time>
      </trkpt>
      <trkpt lat="40.093083" lon="-5.501383">
        <ele>1858.0</ele>
        <time>2013-06-30T15:22:56Z</time>
      </trkpt>
      <trkpt lat="40.093017" lon="-5.501500">
        <ele>1855.0</ele>
        <time>2013-06-30T15:22:57Z</time>
      </trkpt>
      <trkpt lat="40.092967" lon="-5.501633">
        <ele>1852.0</ele>
        <time>2013-06-30T15:22:58Z</time>
      </trkpt>
      <trkpt lat="40.092917" lon="-5.501767">
        <ele>1849.0</ele>
        <time>2013-06-30T15:22:59Z</time>
      </trkpt>
      <trkpt lat="40.092850" lon="-5.501900">
        <ele>1846.0</ele>
        <time>2013-06-30T15:23:00Z</time>
      </trkpt>
      <trkpt lat="40.092783" lon="-5.502033">
        <ele>1842.0</ele>
        <time>2013-06-30T15:23:01Z</time>
      </trkpt>
      <trkpt lat="40.092717" lon="-5.502167">
        <ele>1839.0</ele>
        <time>2013-06-30T15:23:02Z</time>
      </trkpt>
      <trkpt lat="40.092667" lon="-5.502283">
        <ele>1836.0</ele>
        <time>2013-06-30T15:23:03Z</time>
      </trkpt>
      <trkpt lat="40.092617" lon="-5.502383">
        <ele>1833.0</ele>
        <time>2013-06-30T15:23:04Z</time>
      </trkpt>
      <trkpt lat="40.092567" lon="-5.502500">
        <ele>1830.0</ele>
        <time>2013-06-30T15:23:05Z</time>
      </trkpt>
      <trkpt lat="40.092500" lon="-5.502633">
        <ele>1826.0</ele>
        <time>2013-06-30T15:23:06Z</time>
      </trkpt>
      <trkpt lat="40.092433" lon="-5.502767">
        <ele>1822.0</ele>
        <time>2013-06-30T15:23:07Z</time>
      </trkpt>
      <trkpt lat="40.092367" lon="-5.502900">
        <ele>1818.0</ele>
        <time>2013-06-30T15:23:08Z</time>
      </trkpt>
      <trkpt lat="40.092300" lon="-5.503017">
        <ele>1815.0</ele>
        <time>2013-06-30T15:23:09Z</time>
      </trkpt>
      <trkpt lat="40.092233" lon="-5.503133">
        <ele>1813.0</ele>
        <time>2013-06-30T15:23:10Z</time>
      </trkpt>
      <trkpt lat="40.092167" lon="-5.503217">
        <ele>1812.0</ele>
        <time>2013-06-30T15:23:11Z</time>
      </trkpt>
      <trkpt lat="40.092100" lon="-5.503333">
        <ele>1809.0</ele>
        <time>2013-06-30T15:23:12Z</time>
      </trkpt>
      <trkpt lat="40.092033" lon="-5.503450">
        <ele>1807.0</ele>
        <time>2013-06-30T15:23:13Z</time>
      </trkpt>
      <trkpt lat="40.091967" lon="-5.503567">
        <ele>1804.0</ele>
        <time>2013-06-30T15:23:14Z</time>
      </trkpt>
      <trkpt lat="40.091883" lon="-5.503667">
        <ele>1801.0</ele>
        <time>2013-06-30T15:23:15Z</time>
      </trkpt>
      <trkpt lat="40.091783" lon="-5.503733">
        <ele>1799.0</ele>
        <time>2013-06-30T15:23:16Z</time>
      </trkpt>
      <trkpt lat="40.091683" lon="-5.503783">
        <ele>1796.0</ele>
        <time>2013-06-30T15:23:17Z</time>
      </trkpt>
      <trkpt lat="40.091567" lon="-5.503833">
        <ele>1794.0</ele>
        <time>2013-06-30T15:23:18Z</time>
      </trkpt>
      <trkpt lat="40.091467" lon="-5.503917">
        <ele>1791.0</ele>
        <time>2013-06-30T15:23:19Z</time>
      </trkpt>
      <trkpt lat="40.091383" lon="-5.504017">
        <ele>1789.0</ele>
        <time>2013-06-30T15:23:20Z</time>
      </trkpt>
      <trkpt lat="40.091300" lon="-5.504117">
        <ele>1786.0</ele>
        <time>2013-06-30T15:23:21Z</time>
      </trkpt>
      <trkpt lat="40.091233" lon="-5.504217">
        <ele>1784.0</ele>
        <time>2013-06-30T15:23:22Z</time>
      </trkpt>
      <trkpt lat="40.091167" lon="-5.504317">
        <ele>1783.0</ele>
        <time>2013-06-30T15:23:23Z</time>
      </trkpt>
      <trkpt lat="40.091100" lon="-5.504417">
        <ele>1781.0</ele>
        <time>2013-06-30T15:23:24Z</time>
      </trkpt>
      <trkpt lat="40.091033" lon="-5.504533">
        <ele>1779.0</ele>
        <time>2013-06-30T15:23:25Z</time>
      </trkpt>
      <trkpt lat="40.090967" lon="-5.504650">
        <ele>1777.0</ele>
        <time>2013-06-30T15:23:26Z</time>
      </trkpt>
      <trkpt lat="40.090900" lon="-5.504767">
        <ele>1776.0</ele>
        <time>2013-06-30T15:23:27Z</time>
      </trkpt>
      <trkpt lat="40.090833" lon="-5.504883">
        <ele>1774.0</ele>
        <time>2013-06-30T15:23:28Z</time>
      </trkpt>
      <trkpt lat="40.090783" lon="-5.505017">
        <ele>1773.0</ele>
        <time>2013-06-30T15:23:29Z</time>
      </trkpt>
      <trkpt lat="40.090717" lon="-5.505133">
        <ele>1771.0</ele>
        <time>2013-06-30T15:23:30Z</time>
      </trkpt>
      <trkpt lat="40.090667" lon="-5.505267">
        <ele>1769.0</ele>
        <time>2013-06-30T15:23:31Z</time>
      </trkpt>
      <trkpt lat="40.090600" lon="-5.505400">
        <ele>1767.0</ele>
        <time>2013-06-30T15:23:32Z</time>
      </trkpt>
      <trkpt lat="40.090550" lon="-5.505533">
        <ele>1765.0</ele>
        <time>2013-06-30T15:23:33Z</time>
      </trkpt>
      <trkpt lat="40.090483" lon="-5.505667">
        <ele>1763.0</ele>
        <time>2013-06-30T15:23:34Z</time>
      </trkpt>
      <trkpt lat="40.090417" lon="-5.505783">
        <ele>1762.0</ele>
        <time>2013-06-30T15:23:35Z</time>
      </trkpt>
      <trkpt lat="40.090367" lon="-5.505917">
        <ele>1761.0</ele>
        <time>2013-06-30T15:23:36Z</time>
      </trkpt>
      <trkpt lat="40.090267" lon="-5.506167">
        <ele>1760.0</ele>
        <time>2013-06-30T15:23:38Z</time>
      </trkpt>
      <trkpt lat="40.090217" lon="-5.506283">
        <ele>1759.0</ele>
        <time>2013-06-30T15:23:39Z</time>
      </trkpt>
      <trkpt lat="40.090167" lon="-5.506400">
        <ele>1758.0</ele>
        <time>2013-06-30T15:23:40Z</time>
      </trkpt>
      <trkpt lat="40.090033" lon="-5.506633">
        <ele>1755.0</ele>
        <time>2013-06-30T15:23:42Z</time>
      </trkpt>
      <trkpt lat="40.089983" lon="-5.506767">
        <ele>1754.0</ele>
        <time>2013-06-30T15:23:43Z</time>
      </trkpt>
      <trkpt lat="40.089917" lon="-5.506883">
        <ele>1753.0</ele>
        <time>2013-06-30T15:23:44Z</time>
      </trkpt>
      <trkpt lat="40.089867" lon="-5.507017">
        <ele>1753.0</ele>
        <time>2013-06-30T15:23:45Z</time>
      </trkpt>
      <trkpt lat="40.089817" lon="-5.507133">
        <ele>1752.0</ele>
        <time>2013-06-30T15:23:46Z</time>
      </trkpt>
      <trkpt lat="40.089767" lon="-5.507250">
        <ele>1752.0</ele>
        <time>2013-06-30T15:23:47Z</time>
      </trkpt>
      <trkpt lat="40.089717" lon="-5.507367">
        <ele>1751.0</ele>
        <time>2013-06-30T15:23:48Z</time>
      </trkpt>
      <trkpt lat="40.089667" lon="-5.507500">
        <ele>1751.0</ele>
        <time>2013-06-30T15:23:49Z</time>
      </trkpt>
      <trkpt lat="40.089633" lon="-5.507617">
        <ele>1750.0</ele>
        <time>2013-06-30T15:23:50Z</time>
      </trkpt>
      <trkpt lat="40.089583" lon="-5.507733">
        <ele>1750.0</ele>
        <time>2013-06-30T15:23:51Z</time>
      </trkpt>
      <trkpt lat="40.089533" lon="-5.507867">
        <ele>1749.0</ele>
        <time>2013-06-30T15:23:52Z</time>
      </trkpt>
      <trkpt lat="40.089483" lon="-5.508000">
        <ele>1748.0</ele>
        <time>2013-06-30T15:23:53Z</time>
      </trkpt>
      <trkpt lat="40.089433" lon="-5.508133">
        <ele>1748.0</ele>
        <time>2013-06-30T15:23:54Z</time>
      </trkpt>
      <trkpt lat="40.089383" lon="-5.508250">
        <ele>1748.0</ele>
        <time>2013-06-30T15:23:55Z</time>
      </trkpt>
      <trkpt lat="40.089333" lon="-5.508367">
        <ele>1749.0</ele>
        <time>2013-06-30T15:23:56Z</time>
      </trkpt>
      <trkpt lat="40.089300" lon="-5.508467">
        <ele>1749.0</ele>
        <time>2013-06-30T15:23:57Z</time>
      </trkpt>
      <trkpt lat="40.089250" lon="-5.508583">
        <ele>1749.0</ele>
        <time>2013-06-30T15:23:58Z</time>
      </trkpt>
      <trkpt lat="40.089150" lon="-5.508850">
        <ele>1747.0</ele>
        <time>2013-06-30T15:24:00Z</time>
      </trkpt>
      <trkpt lat="40.089100" lon="-5.508983">
        <ele>1746.0</ele>
        <time>2013-06-30T15:24:01Z</time>
      </trkpt>
      <trkpt lat="40.089067" lon="-5.509100">
        <ele>1746.0</ele>
        <time>2013-06-30T15:24:02Z</time>
      </trkpt>
      <trkpt lat="40.089017" lon="-5.509217">
        <ele>1745.0</ele>
        <time>2013-06-30T15:24:03Z</time>
      </trkpt>
      <trkpt lat="40.088967" lon="-5.509333">
        <ele>1745.0</ele>
        <time>2013-06-30T15:24:04Z</time>
      </trkpt>
      <trkpt lat="40.088850" lon="-5.509683">
        <ele>1742.0</ele>
        <time>2013-06-30T15:24:07Z</time>
      </trkpt>
      <trkpt lat="40.088800" lon="-5.509800">
        <ele>1741.0</ele>
        <time>2013-06-30T15:24:08Z</time>
      </trkpt>
      <trkpt lat="40.088750" lon="-5.509917">
        <ele>1740.0</ele>
        <time>2013-06-30T15:24:09Z</time>
      </trkpt>
      <trkpt lat="40.088700" lon="-5.510017">
        <ele>1739.0</ele>
        <time>2013-06-30T15:24:10Z</time>
      </trkpt>
      <trkpt lat="40.088667" lon="-5.510133">
        <ele>1738.0</ele>
        <time>2013-06-30T15:24:11Z</time>
      </trkpt>
      <trkpt lat="40.088617" lon="-5.510250">
        <ele>1737.0</ele>
        <time>2013-06-30T15:24:12Z</time>
      </trkpt>
      <trkpt lat="40.088583" lon="-5.510367">
        <ele>1736.0</ele>
        <time>2013-06-30T15:24:13Z</time>
      </trkpt>
      <trkpt lat="40.088533" lon="-5.510500">
        <ele>1734.0</ele>
        <time>2013-06-30T15:24:14Z</time>
      </trkpt>
      <trkpt lat="40.088500" lon="-5.510650">
        <ele>1733.0</ele>
        <time>2013-06-30T15:24:15Z</time>
      </trkpt>
      <trkpt lat="40.088467" lon="-5.510783">
        <ele>1732.0</ele>
        <time>2013-06-30T15:24:16Z</time>
      </trkpt>
      <trkpt lat="40.088433" lon="-5.510917">
        <ele>1731.0</ele>
        <time>2013-06-30T15:24:17Z</time>
      </trkpt>
      <trkpt lat="40.088400" lon="-5.511050">
        <ele>1730.0</ele>
        <time>2013-06-30T15:24:18Z</time>
      </trkpt>
      <trkpt lat="40.088350" lon="-5.511183">
        <ele>1729.0</ele>
        <time>2013-06-30T15:24:19Z</time>
      </trkpt>
      <trkpt lat="40.088300" lon="-5.511333">
        <ele>1728.0</ele>
        <time>2013-06-30T15:24:20Z</time>
      </trkpt>
      <trkpt lat="40.088267" lon="-5.511467">
        <ele>1727.0</ele>
        <time>2013-06-30T15:24:21Z</time>
      </trkpt>
      <trkpt lat="40.088200" lon="-5.511733">
        <ele>1727.0</ele>
        <time>2013-06-30T15:24:23Z</time>
      </trkpt>
      <trkpt lat="40.088167" lon="-5.511850">
        <ele>1726.0</ele>
        <time>2013-06-30T15:24:24Z</time>
      </trkpt>
      <trkpt lat="40.088133" lon="-5.511967">
        <ele>1726.0</ele>
        <time>2013-06-30T15:24:25Z</time>
      </trkpt>
      <trkpt lat="40.088100" lon="-5.512100">
        <ele>1725.0</ele>
        <time>2013-06-30T15:24:26Z</time>
      </trkpt>
      <trkpt lat="40.088067" lon="-5.512233">
        <ele>1724.0</ele>
        <time>2013-06-30T15:24:27Z</time>
      </trkpt>
      <trkpt lat="40.088017" lon="-5.512367">
        <ele>1723.0</ele>
        <time>2013-06-30T15:24:28Z</time>
      </trkpt>
      <trkpt lat="40.087983" lon="-5.512500">
        <ele>1722.0</ele>
        <time>2013-06-30T15:24:29Z</time>
      </trkpt>
      <trkpt lat="40.087950" lon="-5.512650">
        <ele>1721.0</ele>
        <time>2013-06-30T15:24:30Z</time>
      </trkpt>
      <trkpt lat="40.087917" lon="-5.512800">
        <ele>1720.0</ele>
        <time>2013-06-30T15:24:31Z</time>
      </trkpt>
      <trkpt lat="40.087883" lon="-5.512950">
        <ele>1720.0</ele>
        <time>2013-06-30T15:24:32Z</time>
      </trkpt>
      <trkpt lat="40.087867" lon="-5.513067">
        <ele>1720.0</ele>
        <time>2013-06-30T15:24:33Z</time>
      </trkpt>
      <trkpt lat="40.087833" lon="-5.513183">
        <ele>1721.0</ele>
        <time>2013-06-30T15:24:34Z</time>
      </trkpt>
      <trkpt lat="40.087800" lon="-5.513317">
        <ele>1720.0</ele>
        <time>2013-06-30T15:24:35Z</time>
      </trkpt>
      <trkpt lat="40.087767" lon="-5.513450">
        <ele>1720.0</ele>
        <time>2013-06-30T15:24:36Z</time>
      </trkpt>
      <trkpt lat="40.087733" lon="-5.513600">
        <ele>1719.0</ele>
        <time>2013-06-30T15:24:37Z</time>
      </trkpt>
      <trkpt lat="40.087683" lon="-5.513733">
        <ele>1718.0</ele>
        <time>2013-06-30T15:24:38Z</time>
      </trkpt>
      <trkpt lat="40.087650" lon="-5.513867">
        <ele>1718.0</ele>
        <time>2013-06-30T15:24:39Z</time>
      </trkpt>
      <trkpt lat="40.087617" lon="-5.514000">
        <ele>1718.0</ele>
        <time>2013-06-30T15:24:40Z</time>
      </trkpt>
      <trkpt lat="40.087583" lon="-5.514117">
        <ele>1718.0</ele>
        <time>2013-06-30T15:24:41Z</time>
      </trkpt>
      <trkpt lat="40.087533" lon="-5.514250">
        <ele>1717.0</ele>
        <time>2013-06-30T15:24:42Z</time>
      </trkpt>
      <trkpt lat="40.087483" lon="-5.514400">
        <ele>1716.0</ele>
        <time>2013-06-30T15:24:43Z</time>
      </trkpt>
      <trkpt lat="40.087433" lon="-5.514533">
        <ele>1715.0</ele>
        <time>2013-06-30T15:24:44Z</time>
      </trkpt>
      <trkpt lat="40.087383" lon="-5.514650">
        <ele>1715.0</ele>
        <time>2013-06-30T15:24:45Z</time>
      </trkpt>
      <trkpt lat="40.087283" lon="-5.514867">
        <ele>1713.0</ele>
        <time>2013-06-30T15:24:47Z</time>
      </trkpt>
      <trkpt lat="40.087183" lon="-5.515117">
        <ele>1710.0</ele>
        <time>2013-06-30T15:24:49Z</time>
      </trkpt>
      <trkpt lat="40.087133" lon="-5.515233">
        <ele>1708.0</ele>
        <time>2013-06-30T15:24:50Z</time>
      </trkpt>
      <trkpt lat="40.087083" lon="-5.515350">
        <ele>1707.0</ele>
        <time>2013-06-30T15:24:51Z</time>
      </trkpt>
      <trkpt lat="40.087050" lon="-5.515450">
        <ele>1707.0</ele>
        <time>2013-06-30T15:24:52Z</time>
      </trkpt>
      <trkpt lat="40.087000" lon="-5.515550">
        <ele>1706.0</ele>
        <time>2013-06-30T15:24:53Z</time>
      </trkpt>
      <trkpt lat="40.086967" lon="-5.515667">
        <ele>1705.0</ele>
        <time>2013-06-30T15:24:54Z</time>
      </trkpt>
      <trkpt lat="40.086900" lon="-5.515783">
        <ele>1703.0</ele>
        <time>2013-06-30T15:24:55Z</time>
      </trkpt>
      <trkpt lat="40.086833" lon="-5.515900">
        <ele>1700.0</ele>
        <time>2013-06-30T15:24:56Z</time>
      </trkpt>
      <trkpt lat="40.086767" lon="-5.516033">
        <ele>1698.0</ele>
        <time>2013-06-30T15:24:57Z</time>
      </trkpt>
      <trkpt lat="40.086700" lon="-5.516150">
        <ele>1697.0</ele>
        <time>2013-06-30T15:24:58Z</time>
      </trkpt>
      <trkpt lat="40.086650" lon="-5.516267">
        <ele>1695.0</ele>
        <time>2013-06-30T15:24:59Z</time>
      </trkpt>
      <trkpt lat="40.086600" lon="-5.516383">
        <ele>1693.0</ele>
        <time>2013-06-30T15:25:00Z</time>
      </trkpt>
      <trkpt lat="40.086550" lon="-5.516483">
        <ele>1692.0</ele>
        <time>2013-06-30T15:25:01Z</time>
      </trkpt>
      <trkpt lat="40.086483" lon="-5.516617">
        <ele>1690.0</ele>
        <time>2013-06-30T15:25:02Z</time>
      </trkpt>
      <trkpt lat="40.086383" lon="-5.516850">
        <ele>1685.0</ele>
        <time>2013-06-30T15:25:04Z</time>
      </trkpt>
      <trkpt lat="40.086317" lon="-5.516950">
        <ele>1682.0</ele>
        <time>2013-06-30T15:25:05Z</time>
      </trkpt>
      <trkpt lat="40.086267" lon="-5.517067">
        <ele>1680.0</ele>
        <time>2013-06-30T15:25:06Z</time>
      </trkpt>
      <trkpt lat="40.086217" lon="-5.517183">
        <ele>1677.0</ele>
        <time>2013-06-30T15:25:07Z</time>
      </trkpt>
      <trkpt lat="40.086150" lon="-5.517317">
        <ele>1675.0</ele>
        <time>2013-06-30T15:25:08Z</time>
      </trkpt>
      <trkpt lat="40.086100" lon="-5.517433">
        <ele>1672.0</ele>
        <time>2013-06-30T15:25:09Z</time>
      </trkpt>
      <trkpt lat="40.086050" lon="-5.517550">
        <ele>1671.0</ele>
        <time>2013-06-30T15:25:10Z</time>
      </trkpt>
      <trkpt lat="40.086017" lon="-5.517650">
        <ele>1669.0</ele>
        <time>2013-06-30T15:25:11Z</time>
      </trkpt>
      <trkpt lat="40.085967" lon="-5.517767">
        <ele>1666.0</ele>
        <time>2013-06-30T15:25:12Z</time>
      </trkpt>
      <trkpt lat="40.085933" lon="-5.517883">
        <ele>1664.0</ele>
        <time>2013-06-30T15:25:13Z</time>
      </trkpt>
      <trkpt lat="40.085883" lon="-5.518000">
        <ele>1662.0</ele>
        <time>2013-06-30T15:25:14Z</time>
      </trkpt>
      <trkpt lat="40.085833" lon="-5.518117">
        <ele>1659.0</ele>
        <time>2013-06-30T15:25:15Z</time>
      </trkpt>
      <trkpt lat="40.085800" lon="-5.518233">
        <ele>1657.0</ele>
        <time>2013-06-30T15:25:16Z</time>
      </trkpt>
      <trkpt lat="40.085750" lon="-5.518350">
        <ele>1655.0</ele>
        <time>2013-06-30T15:25:17Z</time>
      </trkpt>
      <trkpt lat="40.085717" lon="-5.518467">
        <ele>1654.0</ele>
        <time>2013-06-30T15:25:18Z</time>
      </trkpt>
      <trkpt lat="40.085683" lon="-5.518600">
        <ele>1652.0</ele>
        <time>2013-06-30T15:25:19Z</time>
      </trkpt>
      <trkpt lat="40.085650" lon="-5.518717">
        <ele>1651.0</ele>
        <time>2013-06-30T15:25:20Z</time>
      </trkpt>
      <trkpt lat="40.085617" lon="-5.518850">
        <ele>1649.0</ele>
        <time>2013-06-30T15:25:21Z</time>
      </trkpt>
      <trkpt lat="40.085583" lon="-5.518967">
        <ele>1648.0</ele>
        <time>2013-06-30T15:25:22Z</time>
      </trkpt>
      <trkpt lat="40.085550" lon="-5.519100">
        <ele>1646.0</ele>
        <time>2013-06-30T15:25:23Z</time>
      </trkpt>
      <trkpt lat="40.085517" lon="-5.519217">
        <ele>1644.0</ele>
        <time>2013-06-30T15:25:24Z</time>
      </trkpt>
      <trkpt lat="40.085483" lon="-5.519350">
        <ele>1642.0</ele>
        <time>2013-06-30T15:25:25Z</time>
      </trkpt>
      <trkpt lat="40.085450" lon="-5.519483">
        <ele>1640.0</ele>
        <time>2013-06-30T15:25:26Z</time>
      </trkpt>
      <trkpt lat="40.085417" lon="-5.519617">
        <ele>1638.0</ele>
        <time>2013-06-30T15:25:27Z</time>
      </trkpt>
      <trkpt lat="40.085367" lon="-5.519750">
        <ele>1636.0</ele>
        <time>2013-06-30T15:25:28Z</time>
      </trkpt>
      <trkpt lat="40.085333" lon="-5.519883">
        <ele>1635.0</ele>
        <time>2013-06-30T15:25:29Z</time>
      </trkpt>
      <trkpt lat="40.085300" lon="-5.520017">
        <ele>1635.0</ele>
        <time>2013-06-30T15:25:30Z</time>
      </trkpt>
      <trkpt lat="40.085267" lon="-5.520117">
        <ele>1635.0</ele>
        <time>2013-06-30T15:25:31Z</time>
      </trkpt>
      <trkpt lat="40.085250" lon="-5.520233">
        <ele>1635.0</ele>
        <time>2013-06-30T15:25:32Z</time>
      </trkpt>
      <trkpt lat="40.085217" lon="-5.520367">
        <ele>1634.0</ele>
        <time>2013-06-30T15:25:33Z</time>
      </trkpt>
      <trkpt lat="40.085183" lon="-5.520500">
        <ele>1633.0</ele>
        <time>2013-06-30T15:25:34Z</time>
      </trkpt>
      <trkpt lat="40.085150" lon="-5.520633">
        <ele>1632.0</ele>
        <time>2013-06-30T15:25:35Z</time>
      </trkpt>
      <trkpt lat="40.085133" lon="-5.520767">
        <ele>1631.0</ele>
        <time>2013-06-30T15:25:36Z</time>
      </trkpt>
      <trkpt lat="40.085117" lon="-5.520883">
        <ele>1631.0</ele>
        <time>2013-06-30T15:25:37Z</time>
      </trkpt>
      <trkpt lat="40.085067" lon="-5.521233">
        <ele>1628.0</ele>
        <time>2013-06-30T15:25:40Z</time>
      </trkpt>
      <trkpt lat="40.085050" lon="-5.521367">
        <ele>1626.0</ele>
        <time>2013-06-30T15:25:41Z</time>
      </trkpt>
      <trkpt lat="40.085017" lon="-5.521500">
        <ele>1625.0</ele>
        <time>2013-06-30T15:25:42Z</time>
      </trkpt>
      <trkpt lat="40.085000" lon="-5.521617">
        <ele>1623.0</ele>
        <time>2013-06-30T15:25:43Z</time>
      </trkpt>
      <trkpt lat="40.084983" lon="-5.521733">
        <ele>1622.0</ele>
        <time>2013-06-30T15:25:44Z</time>
      </trkpt>
      <trkpt lat="40.084950" lon="-5.521850">
        <ele>1621.0</ele>
        <time>2013-06-30T15:25:45Z</time>
      </trkpt>
      <trkpt lat="40.084933" lon="-5.521983">
        <ele>1620.0</ele>
        <time>2013-06-30T15:25:46Z</time>
      </trkpt>
      <trkpt lat="40.084917" lon="-5.522100">
        <ele>1619.0</ele>
        <time>2013-06-30T15:25:47Z</time>
      </trkpt>
      <trkpt lat="40.084883" lon="-5.522233">
        <ele>1618.0</ele>
        <time>2013-06-30T15:25:48Z</time>
      </trkpt>
      <trkpt lat="40.084867" lon="-5.522367">
        <ele>1616.0</ele>
        <time>2013-06-30T15:25:49Z</time>
      </trkpt>
      <trkpt lat="40.084833" lon="-5.522500">
        <ele>1616.0</ele>
        <time>2013-06-30T15:25:50Z</time>
      </trkpt>
      <trkpt lat="40.084817" lon="-5.522617">
        <ele>1614.0</ele>
        <time>2013-06-30T15:25:51Z</time>
      </trkpt>
      <trkpt lat="40.084800" lon="-5.522733">
        <ele>1614.0</ele>
        <time>2013-06-30T15:25:52Z</time>
      </trkpt>
      <trkpt lat="40.084767" lon="-5.522850">
        <ele>1613.0</ele>
        <time>2013-06-30T15:25:53Z</time>
      </trkpt>
      <trkpt lat="40.084750" lon="-5.522983">
        <ele>1612.0</ele>
        <time>2013-06-30T15:25:54Z</time>
      </trkpt>
      <trkpt lat="40.084717" lon="-5.523100">
        <ele>1610.0</ele>
        <time>2013-06-30T15:25:55Z</time>
      </trkpt>
      <trkpt lat="40.084683" lon="-5.523233">
        <ele>1609.0</ele>
        <time>2013-06-30T15:25:56Z</time>
      </trkpt>
      <trkpt lat="40.084667" lon="-5.523350">
        <ele>1609.0</ele>
        <time>2013-06-30T15:25:57Z</time>
      </trkpt>
      <trkpt lat="40.084633" lon="-5.523467">
        <ele>1608.0</ele>
        <time>2013-06-30T15:25:58Z</time>
      </trkpt>
      <trkpt lat="40.084617" lon="-5.523583">
        <ele>1607.0</ele>
        <time>2013-06-30T15:25:59Z</time>
      </trkpt>
      <trkpt lat="40.084600" lon="-5.523717">
        <ele>1606.0</ele>
        <time>2013-06-30T15:26:00Z</time>
      </trkpt>
      <trkpt lat="40.084567" lon="-5.523833">
        <ele>1605.0</ele>
        <time>2013-06-30T15:26:01Z</time>
      </trkpt>
      <trkpt lat="40.084533" lon="-5.523950">
        <ele>1604.0</ele>
        <time>2013-06-30T15:26:02Z</time>
      </trkpt>
      <trkpt lat="40.084517" lon="-5.524083">
        <ele>1603.0</ele>
        <time>2013-06-30T15:26:03Z</time>
      </trkpt>
      <trkpt lat="40.084483" lon="-5.524200">
        <ele>1603.0</ele>
        <time>2013-06-30T15:26:04Z</time>
      </trkpt>
      <trkpt lat="40.084467" lon="-5.524317">
        <ele>1602.0</ele>
        <time>2013-06-30T15:26:05Z</time>
      </trkpt>
      <trkpt lat="40.084433" lon="-5.524433">
        <ele>1601.0</ele>
        <time>2013-06-30T15:26:06Z</time>
      </trkpt>
      <trkpt lat="40.084417" lon="-5.524550">
        <ele>1600.0</ele>
        <time>2013-06-30T15:26:07Z</time>
      </trkpt>
      <trkpt lat="40.084383" lon="-5.524667">
        <ele>1598.0</ele>
        <time>2013-06-30T15:26:08Z</time>
      </trkpt>
      <trkpt lat="40.084350" lon="-5.524783">
        <ele>1596.0</ele>
        <time>2013-06-30T15:26:09Z</time>
      </trkpt>
      <trkpt lat="40.084317" lon="-5.524900">
        <ele>1595.0</ele>
        <time>2013-06-30T15:26:10Z</time>
      </trkpt>
      <trkpt lat="40.084283" lon="-5.525000">
        <ele>1593.0</ele>
        <time>2013-06-30T15:26:11Z</time>
      </trkpt>
      <trkpt lat="40.084250" lon="-5.525117">
        <ele>1592.0</ele>
        <time>2013-06-30T15:26:12Z</time>
      </trkpt>
      <trkpt lat="40.084217" lon="-5.525233">
        <ele>1591.0</ele>
        <time>2013-06-30T15:26:13Z</time>
      </trkpt>
      <trkpt lat="40.084183" lon="-5.525350">
        <ele>1589.0</ele>
        <time>2013-06-30T15:26:14Z</time>
      </trkpt>
      <trkpt lat="40.084150" lon="-5.525450">
        <ele>1587.0</ele>
        <time>2013-06-30T15:26:15Z</time>
      </trkpt>
      <trkpt lat="40.084117" lon="-5.525567">
        <ele>1585.0</ele>
        <time>2013-06-30T15:26:16Z</time>
      </trkpt>
      <trkpt lat="40.084083" lon="-5.525683">
        <ele>1583.0</ele>
        <time>2013-06-30T15:26:17Z</time>
      </trkpt>
      <trkpt lat="40.084033" lon="-5.525783">
        <ele>1581.0</ele>
        <time>2013-06-30T15:26:18Z</time>
      </trkpt>
      <trkpt lat="40.084000" lon="-5.525883">
        <ele>1579.0</ele>
        <time>2013-06-30T15:26:19Z</time>
      </trkpt>
      <trkpt lat="40.083967" lon="-5.526000">
        <ele>1577.0</ele>
        <time>2013-06-30T15:26:20Z</time>
      </trkpt>
      <trkpt lat="40.083917" lon="-5.526100">
        <ele>1575.0</ele>
        <time>2013-06-30T15:26:21Z</time>
      </trkpt>
      <trkpt lat="40.083867" lon="-5.526217">
        <ele>1572.0</ele>
        <time>2013-06-30T15:26:22Z</time>
      </trkpt>
      <trkpt lat="40.083833" lon="-5.526333">
        <ele>1570.0</ele>
        <time>2013-06-30T15:26:23Z</time>
      </trkpt>
      <trkpt lat="40.083783" lon="-5.526433">
        <ele>1567.0</ele>
        <time>2013-06-30T15:26:24Z</time>
      </trkpt>
      <trkpt lat="40.083733" lon="-5.526517">
        <ele>1565.0</ele>
        <time>2013-06-30T15:26:25Z</time>
      </trkpt>
      <trkpt lat="40.083683" lon="-5.526617">
        <ele>1563.0</ele>
        <time>2013-06-30T15:26:26Z</time>
      </trkpt>
      <trkpt lat="40.083633" lon="-5.526717">
        <ele>1560.0</ele>
        <time>2013-06-30T15:26:27Z</time>
      </trkpt>
      <trkpt lat="40.083583" lon="-5.526817">
        <ele>1557.0</ele>
        <time>2013-06-30T15:26:28Z</time>
      </trkpt>
      <trkpt lat="40.083533" lon="-5.526917">
        <ele>1554.0</ele>
        <time>2013-06-30T15:26:29Z</time>
      </trkpt>
      <trkpt lat="40.083483" lon="-5.527033">
        <ele>1550.0</ele>
        <time>2013-06-30T15:26:30Z</time>
      </trkpt>
      <trkpt lat="40.083417" lon="-5.527133">
        <ele>1547.0</ele>
        <time>2013-06-30T15:26:31Z</time>
      </trkpt>
      <trkpt lat="40.083367" lon="-5.527233">
        <ele>1544.0</ele>
        <time>2013-06-30T15:26:32Z</time>
      </trkpt>
      <trkpt lat="40.083317" lon="-5.527317">
        <ele>1542.0</ele>
        <time>2013-06-30T15:26:33Z</time>
      </trkpt>
      <trkpt lat="40.083267" lon="-5.527417">
        <ele>1539.0</ele>
        <time>2013-06-30T15:26:34Z</time>
      </trkpt>
      <trkpt lat="40.083200" lon="-5.527533">
        <ele>1536.0</ele>
        <time>2013-06-30T15:26:35Z</time>
      </trkpt>
      <trkpt lat="40.083150" lon="-5.527633">
        <ele>1534.0</ele>
        <time>2013-06-30T15:26:36Z</time>
      </trkpt>
      <trkpt lat="40.083100" lon="-5.527750">
        <ele>1531.0</ele>
        <time>2013-06-30T15:26:37Z</time>
      </trkpt>
      <trkpt lat="40.083050" lon="-5.527850">
        <ele>1527.0</ele>
        <time>2013-06-30T15:26:38Z</time>
      </trkpt>
      <trkpt lat="40.083000" lon="-5.527967">
        <ele>1524.0</ele>
        <time>2013-06-30T15:26:39Z</time>
      </trkpt>
      <trkpt lat="40.082950" lon="-5.528083">
        <ele>1521.0</ele>
        <time>2013-06-30T15:26:40Z</time>
      </trkpt>
      <trkpt lat="40.082900" lon="-5.528183">
        <ele>1518.0</ele>
        <time>2013-06-30T15:26:41Z</time>
      </trkpt>
      <trkpt lat="40.082850" lon="-5.528300">
        <ele>1515.0</ele>
        <time>2013-06-30T15:26:42Z</time>
      </trkpt>
      <trkpt lat="40.082817" lon="-5.528400">
        <ele>1512.0</ele>
        <time>2013-06-30T15:26:43Z</time>
      </trkpt>
      <trkpt lat="40.082767" lon="-5.528533">
        <ele>1509.0</ele>
        <time>2013-06-30T15:26:44Z</time>
      </trkpt>
      <trkpt lat="40.082717" lon="-5.528650">
        <ele>1505.0</ele>
        <time>2013-06-30T15:26:45Z</time>
      </trkpt>
      <trkpt lat="40.082667" lon="-5.528767">
        <ele>1504.0</ele>
        <time>2013-06-30T15:26:46Z</time>
      </trkpt>
      <trkpt lat="40.082650" lon="-5.528867">
        <ele>1503.0</ele>
        <time>2013-06-30T15:26:47Z</time>
      </trkpt>
      <trkpt lat="40.082617" lon="-5.528967">
        <ele>1503.0</ele>
        <time>2013-06-30T15:26:48Z</time>
      </trkpt>
      <trkpt lat="40.082583" lon="-5.529067">
        <ele>1501.0</ele>
        <time>2013-06-30T15:26:49Z</time>
      </trkpt>
      <trkpt lat="40.082533" lon="-5.529183">
        <ele>1500.0</ele>
        <time>2013-06-30T15:26:50Z</time>
      </trkpt>
      <trkpt lat="40.082483" lon="-5.529317">
        <ele>1497.0</ele>
        <time>2013-06-30T15:26:51Z</time>
      </trkpt>
      <trkpt lat="40.082450" lon="-5.529450">
        <ele>1496.0</ele>
        <time>2013-06-30T15:26:52Z</time>
      </trkpt>
      <trkpt lat="40.082400" lon="-5.529583">
        <ele>1494.0</ele>
        <time>2013-06-30T15:26:53Z</time>
      </trkpt>
      <trkpt lat="40.082383" lon="-5.529683">
        <ele>1494.0</ele>
        <time>2013-06-30T15:26:54Z</time>
      </trkpt>
      <trkpt lat="40.082333" lon="-5.529800">
        <ele>1493.0</ele>
        <time>2013-06-30T15:26:55Z</time>
      </trkpt>
      <trkpt lat="40.082300" lon="-5.529917">
        <ele>1492.0</ele>
        <time>2013-06-30T15:26:56Z</time>
      </trkpt>
      <trkpt lat="40.082250" lon="-5.530017">
        <ele>1490.0</ele>
        <time>2013-06-30T15:26:57Z</time>
      </trkpt>
      <trkpt lat="40.082217" lon="-5.530150">
        <ele>1489.0</ele>
        <time>2013-06-30T15:26:58Z</time>
      </trkpt>
      <trkpt lat="40.082167" lon="-5.530267">
        <ele>1488.0</ele>
        <time>2013-06-30T15:26:59Z</time>
      </trkpt>
      <trkpt lat="40.082133" lon="-5.530383">
        <ele>1487.0</ele>
        <time>2013-06-30T15:27:00Z</time>
      </trkpt>
      <trkpt lat="40.082100" lon="-5.530500">
        <ele>1486.0</ele>
        <time>2013-06-30T15:27:01Z</time>
      </trkpt>
      <trkpt lat="40.082050" lon="-5.530617">
        <ele>1486.0</ele>
        <time>2013-06-30T15:27:02Z</time>
      </trkpt>
      <trkpt lat="40.082017" lon="-5.530733">
        <ele>1485.0</ele>
        <time>2013-06-30T15:27:03Z</time>
      </trkpt>
      <trkpt lat="40.081967" lon="-5.530833">
        <ele>1484.0</ele>
        <time>2013-06-30T15:27:04Z</time>
      </trkpt>
      <trkpt lat="40.081933" lon="-5.530950">
        <ele>1482.0</ele>
        <time>2013-06-30T15:27:05Z</time>
      </trkpt>
      <trkpt lat="40.081883" lon="-5.531050">
        <ele>1481.0</ele>
        <time>2013-06-30T15:27:06Z</time>
      </trkpt>
      <trkpt lat="40.081833" lon="-5.531133">
        <ele>1480.0</ele>
        <time>2013-06-30T15:27:07Z</time>
      </trkpt>
      <trkpt lat="40.081783" lon="-5.531233">
        <ele>1479.0</ele>
        <time>2013-06-30T15:27:08Z</time>
      </trkpt>
      <trkpt lat="40.081733" lon="-5.531333">
        <ele>1478.0</ele>
        <time>2013-06-30T15:27:09Z</time>
      </trkpt>
      <trkpt lat="40.081667" lon="-5.531433">
        <ele>1476.0</ele>
        <time>2013-06-30T15:27:10Z</time>
      </trkpt>
      <trkpt lat="40.081617" lon="-5.531533">
        <ele>1474.0</ele>
        <time>2013-06-30T15:27:11Z</time>
      </trkpt>
      <trkpt lat="40.081567" lon="-5.531633">
        <ele>1474.0</ele>
        <time>2013-06-30T15:27:12Z</time>
      </trkpt>
      <trkpt lat="40.081533" lon="-5.531717">
        <ele>1474.0</ele>
        <time>2013-06-30T15:27:13Z</time>
      </trkpt>
      <trkpt lat="40.081483" lon="-5.531783">
        <ele>1475.0</ele>
        <time>2013-06-30T15:27:14Z</time>
      </trkpt>
      <trkpt lat="40.081433" lon="-5.531883">
        <ele>1475.0</ele>
        <time>2013-06-30T15:27:15Z</time>
      </trkpt>
      <trkpt lat="40.081367" lon="-5.531967">
        <ele>1474.0</ele>
        <time>2013-06-30T15:27:16Z</time>
      </trkpt>
      <trkpt lat="40.081317" lon="-5.532067">
        <ele>1471.0</ele>
        <time>2013-06-30T15:27:17Z</time>
      </trkpt>
      <trkpt lat="40.081250" lon="-5.532183">
        <ele>1470.0</ele>
        <time>2013-06-30T15:27:18Z</time>
      </trkpt>
      <trkpt lat="40.081200" lon="-5.532283">
        <ele>1470.0</ele>
        <time>2013-06-30T15:27:19Z</time>
      </trkpt>
      <trkpt lat="40.081167" lon="-5.532367">
        <ele>1470.0</ele>
        <time>2013-06-30T15:27:20Z</time>
      </trkpt>
      <trkpt lat="40.081133" lon="-5.532467">
        <ele>1469.0</ele>
        <time>2013-06-30T15:27:21Z</time>
      </trkpt>
      <trkpt lat="40.081083" lon="-5.532567">
        <ele>1468.0</ele>
        <time>2013-06-30T15:27:22Z</time>
      </trkpt>
      <trkpt lat="40.081033" lon="-5.532667">
        <ele>1467.0</ele>
        <time>2013-06-30T15:27:23Z</time>
      </trkpt>
      <trkpt lat="40.080983" lon="-5.532783">
        <ele>1466.0</ele>
        <time>2013-06-30T15:27:24Z</time>
      </trkpt>
      <trkpt lat="40.080950" lon="-5.532900">
        <ele>1465.0</ele>
        <time>2013-06-30T15:27:25Z</time>
      </trkpt>
      <trkpt lat="40.080917" lon="-5.533000">
        <ele>1465.0</ele>
        <time>2013-06-30T15:27:26Z</time>
      </trkpt>
      <trkpt lat="40.080867" lon="-5.533083">
        <ele>1464.0</ele>
        <time>2013-06-30T15:27:27Z</time>
      </trkpt>
      <trkpt lat="40.080833" lon="-5.533167">
        <ele>1464.0</ele>
        <time>2013-06-30T15:27:28Z</time>
      </trkpt>
      <trkpt lat="40.080800" lon="-5.533250">
        <ele>1463.0</ele>
        <time>2013-06-30T15:27:29Z</time>
      </trkpt>
      <trkpt lat="40.080750" lon="-5.533350">
        <ele>1461.0</ele>
        <time>2013-06-30T15:27:30Z</time>
      </trkpt>
      <trkpt lat="40.080717" lon="-5.533467">
        <ele>1459.0</ele>
        <time>2013-06-30T15:27:31Z</time>
      </trkpt>
      <trkpt lat="40.080667" lon="-5.533583">
        <ele>1457.0</ele>
        <time>2013-06-30T15:27:32Z</time>
      </trkpt>
      <trkpt lat="40.080633" lon="-5.533700">
        <ele>1457.0</ele>
        <time>2013-06-30T15:27:33Z</time>
      </trkpt>
      <trkpt lat="40.080617" lon="-5.533800">
        <ele>1458.0</ele>
        <time>2013-06-30T15:27:34Z</time>
      </trkpt>
      <trkpt lat="40.080567" lon="-5.533900">
        <ele>1459.0</ele>
        <time>2013-06-30T15:27:35Z</time>
      </trkpt>
      <trkpt lat="40.080533" lon="-5.534000">
        <ele>1460.0</ele>
        <time>2013-06-30T15:27:36Z</time>
      </trkpt>
      <trkpt lat="40.080483" lon="-5.534117">
        <ele>1460.0</ele>
        <time>2013-06-30T15:27:37Z</time>
      </trkpt>
      <trkpt lat="40.080417" lon="-5.534217">
        <ele>1461.0</ele>
        <time>2013-06-30T15:27:38Z</time>
      </trkpt>
      <trkpt lat="40.080367" lon="-5.534317">
        <ele>1462.0</ele>
        <time>2013-06-30T15:27:39Z</time>
      </trkpt>
      <trkpt lat="40.080333" lon="-5.534417">
        <ele>1463.0</ele>
        <time>2013-06-30T15:27:40Z</time>
      </trkpt>
      <trkpt lat="40.080283" lon="-5.534483">
        <ele>1463.0</ele>
        <time>2013-06-30T15:27:41Z</time>
      </trkpt>
      <trkpt lat="40.080217" lon="-5.534567">
        <ele>1463.0</ele>
        <time>2013-06-30T15:27:42Z</time>
      </trkpt>
      <trkpt lat="40.080150" lon="-5.534633">
        <ele>1463.0</ele>
        <time>2013-06-30T15:27:43Z</time>
      </trkpt>
      <trkpt lat="40.080100" lon="-5.534717">
        <ele>1462.0</ele>
        <time>2013-06-30T15:27:44Z</time>
      </trkpt>
      <trkpt lat="40.080050" lon="-5.534800">
        <ele>1461.0</ele>
        <time>2013-06-30T15:27:45Z</time>
      </trkpt>
      <trkpt lat="40.080000" lon="-5.534900">
        <ele>1461.0</ele>
        <time>2013-06-30T15:27:46Z</time>
      </trkpt>
      <trkpt lat="40.079950" lon="-5.535000">
        <ele>1460.0</ele>
        <time>2013-06-30T15:27:47Z</time>
      </trkpt>
      <trkpt lat="40.079917" lon="-5.535100">
        <ele>1460.0</ele>
        <time>2013-06-30T15:27:48Z</time>
      </trkpt>
      <trkpt lat="40.079883" lon="-5.535200">
        <ele>1459.0</ele>
        <time>2013-06-30T15:27:49Z</time>
      </trkpt>
      <trkpt lat="40.079850" lon="-5.535283">
        <ele>1459.0</ele>
        <time>2013-06-30T15:27:50Z</time>
      </trkpt>
      <trkpt lat="40.079817" lon="-5.535400">
        <ele>1458.0</ele>
        <time>2013-06-30T15:27:51Z</time>
      </trkpt>
      <trkpt lat="40.079783" lon="-5.535500">
        <ele>1456.0</ele>
        <time>2013-06-30T15:27:52Z</time>
      </trkpt>
      <trkpt lat="40.079733" lon="-5.535617">
        <ele>1455.0</ele>
        <time>2013-06-30T15:27:53Z</time>
      </trkpt>
      <trkpt lat="40.079683" lon="-5.535717">
        <ele>1454.0</ele>
        <time>2013-06-30T15:27:54Z</time>
      </trkpt>
      <trkpt lat="40.079650" lon="-5.535800">
        <ele>1453.0</ele>
        <time>2013-06-30T15:27:55Z</time>
      </trkpt>
      <trkpt lat="40.079600" lon="-5.535883">
        <ele>1453.0</ele>
        <time>2013-06-30T15:27:56Z</time>
      </trkpt>
      <trkpt lat="40.079550" lon="-5.535967">
        <ele>1453.0</ele>
        <time>2013-06-30T15:27:57Z</time>
      </trkpt>
      <trkpt lat="40.079500" lon="-5.536050">
        <ele>1452.0</ele>
        <time>2013-06-30T15:27:58Z</time>
      </trkpt>
      <trkpt lat="40.079450" lon="-5.536133">
        <ele>1451.0</ele>
        <time>2013-06-30T15:27:59Z</time>
      </trkpt>
      <trkpt lat="40.079383" lon="-5.536217">
        <ele>1451.0</ele>
        <time>2013-06-30T15:28:00Z</time>
      </trkpt>
      <trkpt lat="40.079333" lon="-5.536317">
        <ele>1450.0</ele>
        <time>2013-06-30T15:28:01Z</time>
      </trkpt>
      <trkpt lat="40.079283" lon="-5.536400">
        <ele>1450.0</ele>
        <time>2013-06-30T15:28:02Z</time>
      </trkpt>
      <trkpt lat="40.079217" lon="-5.536467">
        <ele>1450.0</ele>
        <time>2013-06-30T15:28:03Z</time>
      </trkpt>
      <trkpt lat="40.079167" lon="-5.536533">
        <ele>1450.0</ele>
        <time>2013-06-30T15:28:04Z</time>
      </trkpt>
      <trkpt lat="40.079117" lon="-5.536583">
        <ele>1450.0</ele>
        <time>2013-06-30T15:28:05Z</time>
      </trkpt>
      <trkpt lat="40.079050" lon="-5.536633">
        <ele>1449.0</ele>
        <time>2013-06-30T15:28:06Z</time>
      </trkpt>
      <trkpt lat="40.078983" lon="-5.536683">
        <ele>1449.0</ele>
        <time>2013-06-30T15:28:07Z</time>
      </trkpt>
      <trkpt lat="40.078917" lon="-5.536717">
        <ele>1448.0</ele>
        <time>2013-06-30T15:28:08Z</time>
      </trkpt>
      <trkpt lat="40.078850" lon="-5.536767">
        <ele>1449.0</ele>
        <time>2013-06-30T15:28:09Z</time>
      </trkpt>
      <trkpt lat="40.078767" lon="-5.536833">
        <ele>1449.0</ele>
        <time>2013-06-30T15:28:10Z</time>
      </trkpt>
      <trkpt lat="40.078700" lon="-5.536900">
        <ele>1449.0</ele>
        <time>2013-06-30T15:28:11Z</time>
      </trkpt>
      <trkpt lat="40.078617" lon="-5.536967">
        <ele>1449.0</ele>
        <time>2013-06-30T15:28:12Z</time>
      </trkpt>
      <trkpt lat="40.078550" lon="-5.537017">
        <ele>1449.0</ele>
        <time>2013-06-30T15:28:13Z</time>
      </trkpt>
      <trkpt lat="40.078483" lon="-5.537083">
        <ele>1449.0</ele>
        <time>2013-06-30T15:28:14Z</time>
      </trkpt>
      <trkpt lat="40.078417" lon="-5.537133">
        <ele>1449.0</ele>
        <time>2013-06-30T15:28:15Z</time>
      </trkpt>
      <trkpt lat="40.078350" lon="-5.537183">
        <ele>1448.0</ele>
        <time>2013-06-30T15:28:16Z</time>
      </trkpt>
      <trkpt lat="40.078283" lon="-5.537250">
        <ele>1448.0</ele>
        <time>2013-06-30T15:28:17Z</time>
      </trkpt>
      <trkpt lat="40.078217" lon="-5.537317">
        <ele>1447.0</ele>
        <time>2013-06-30T15:28:18Z</time>
      </trkpt>
      <trkpt lat="40.078150" lon="-5.537383">
        <ele>1447.0</ele>
        <time>2013-06-30T15:28:19Z</time>
      </trkpt>
      <trkpt lat="40.078083" lon="-5.537417">
        <ele>1446.0</ele>
        <time>2013-06-30T15:28:20Z</time>
      </trkpt>
      <trkpt lat="40.078017" lon="-5.537433">
        <ele>1446.0</ele>
        <time>2013-06-30T15:28:21Z</time>
      </trkpt>
      <trkpt lat="40.077950" lon="-5.537450">
        <ele>1446.0</ele>
        <time>2013-06-30T15:28:22Z</time>
      </trkpt>
      <trkpt lat="40.077867" lon="-5.537450">
        <ele>1445.0</ele>
        <time>2013-06-30T15:28:23Z</time>
      </trkpt>
      <trkpt lat="40.077783" lon="-5.537450">
        <ele>1445.0</ele>
        <time>2013-06-30T15:28:24Z</time>
      </trkpt>
      <trkpt lat="40.077650" lon="-5.537450">
        <ele>1446.0</ele>
        <time>2013-06-30T15:28:26Z</time>
      </trkpt>
      <trkpt lat="40.077600" lon="-5.537450">
        <ele>1446.0</ele>
        <time>2013-06-30T15:28:27Z</time>
      </trkpt>
      <trkpt lat="40.077533" lon="-5.537433">
        <ele>1445.0</ele>
        <time>2013-06-30T15:28:28Z</time>
      </trkpt>
      <trkpt lat="40.077450" lon="-5.537400">
        <ele>1444.0</ele>
        <time>2013-06-30T15:28:29Z</time>
      </trkpt>
      <trkpt lat="40.077317" lon="-5.537300">
        <ele>1440.0</ele>
        <time>2013-06-30T15:28:31Z</time>
      </trkpt>
      <trkpt lat="40.077267" lon="-5.537250">
        <ele>1440.0</ele>
        <time>2013-06-30T15:28:32Z</time>
      </trkpt>
      <trkpt lat="40.077233" lon="-5.537200">
        <ele>1439.0</ele>
        <time>2013-06-30T15:28:33Z</time>
      </trkpt>
      <trkpt lat="40.077217" lon="-5.537133">
        <ele>1438.0</ele>
        <time>2013-06-30T15:28:34Z</time>
      </trkpt>
      <trkpt lat="40.077150" lon="-5.536967">
        <ele>1432.0</ele>
        <time>2013-06-30T15:28:36Z</time>
      </trkpt>
      <trkpt lat="40.077133" lon="-5.536883">
        <ele>1430.0</ele>
        <time>2013-06-30T15:28:37Z</time>
      </trkpt>
      <trkpt lat="40.077117" lon="-5.536633">
        <ele>1426.0</ele>
        <time>2013-06-30T15:28:40Z</time>
      </trkpt>
      <trkpt lat="40.077133" lon="-5.536550">
        <ele>1425.0</ele>
        <time>2013-06-30T15:28:41Z</time>
      </trkpt>
      <trkpt lat="40.077183" lon="-5.536467">
        <ele>1423.0</ele>
        <time>2013-06-30T15:28:42Z</time>
      </trkpt>
      <trkpt lat="40.077333" lon="-5.536333">
        <ele>1419.0</ele>
        <time>2013-06-30T15:28:44Z</time>
      </trkpt>
      <trkpt lat="40.077483" lon="-5.536267">
        <ele>1417.0</ele>
        <time>2013-06-30T15:28:46Z</time>
      </trkpt>
      <trkpt lat="40.077650" lon="-5.536233">
        <ele>1413.0</ele>
        <time>2013-06-30T15:28:48Z</time>
      </trkpt>
      <trkpt lat="40.077750" lon="-5.536250">
        <ele>1410.0</ele>
        <time>2013-06-30T15:28:49Z</time>
      </trkpt>
      <trkpt lat="40.077850" lon="-5.536283">
        <ele>1408.0</ele>
        <time>2013-06-30T15:28:50Z</time>
      </trkpt>
      <trkpt lat="40.077933" lon="-5.536350">
        <ele>1406.0</ele>
        <time>2013-06-30T15:28:51Z</time>
      </trkpt>
      <trkpt lat="40.078000" lon="-5.536433">
        <ele>1405.0</ele>
        <time>2013-06-30T15:28:52Z</time>
      </trkpt>
      <trkpt lat="40.078067" lon="-5.536533">
        <ele>1404.0</ele>
        <time>2013-06-30T15:28:53Z</time>
      </trkpt>
      <trkpt lat="40.078117" lon="-5.536633">
        <ele>1403.0</ele>
        <time>2013-06-30T15:28:54Z</time>
      </trkpt>
      <trkpt lat="40.078167" lon="-5.536750">
        <ele>1401.0</ele>
        <time>2013-06-30T15:28:55Z</time>
      </trkpt>
      <trkpt lat="40.078183" lon="-5.536867">
        <ele>1400.0</ele>
        <time>2013-06-30T15:28:56Z</time>
      </trkpt>
      <trkpt lat="40.078200" lon="-5.537000">
        <ele>1399.0</ele>
        <time>2013-06-30T15:28:57Z</time>
      </trkpt>
      <trkpt lat="40.078217" lon="-5.537117">
        <ele>1397.0</ele>
        <time>2013-06-30T15:28:58Z</time>
      </trkpt>
      <trkpt lat="40.078200" lon="-5.537250">
        <ele>1396.0</ele>
        <time>2013-06-30T15:28:59Z</time>
      </trkpt>
      <trkpt lat="40.078183" lon="-5.537350">
        <ele>1396.0</ele>
        <time>2013-06-30T15:29:00Z</time>
      </trkpt>
      <trkpt lat="40.078150" lon="-5.537450">
        <ele>1396.0</ele>
        <time>2013-06-30T15:29:01Z</time>
      </trkpt>
      <trkpt lat="40.078133" lon="-5.537550">
        <ele>1396.0</ele>
        <time>2013-06-30T15:29:02Z</time>
      </trkpt>
      <trkpt lat="40.078100" lon="-5.537667">
        <ele>1395.0</ele>
        <time>2013-06-30T15:29:03Z</time>
      </trkpt>
      <trkpt lat="40.078067" lon="-5.537800">
        <ele>1393.0</ele>
        <time>2013-06-30T15:29:04Z</time>
      </trkpt>
      <trkpt lat="40.078033" lon="-5.537917">
        <ele>1392.0</ele>
        <time>2013-06-30T15:29:05Z</time>
      </trkpt>
      <trkpt lat="40.078000" lon="-5.538033">
        <ele>1391.0</ele>
        <time>2013-06-30T15:29:06Z</time>
      </trkpt>
      <trkpt lat="40.077967" lon="-5.538133">
        <ele>1391.0</ele>
        <time>2013-06-30T15:29:07Z</time>
      </trkpt>
      <trkpt lat="40.077933" lon="-5.538217">
        <ele>1390.0</ele>
        <time>2013-06-30T15:29:08Z</time>
      </trkpt>
      <trkpt lat="40.077900" lon="-5.538317">
        <ele>1390.0</ele>
        <time>2013-06-30T15:29:09Z</time>
      </trkpt>
      <trkpt lat="40.077867" lon="-5.538433">
        <ele>1389.0</ele>
        <time>2013-06-30T15:29:10Z</time>
      </trkpt>
      <trkpt lat="40.077817" lon="-5.538533">
        <ele>1388.0</ele>
        <time>2013-06-30T15:29:11Z</time>
      </trkpt>
      <trkpt lat="40.077767" lon="-5.538650">
        <ele>1386.0</ele>
        <time>2013-06-30T15:29:12Z</time>
      </trkpt>
      <trkpt lat="40.077733" lon="-5.538733">
        <ele>1387.0</ele>
        <time>2013-06-30T15:29:13Z</time>
      </trkpt>
      <trkpt lat="40.077683" lon="-5.538817">
        <ele>1387.0</ele>
        <time>2013-06-30T15:29:14Z</time>
      </trkpt>
      <trkpt lat="40.077650" lon="-5.538883">
        <ele>1386.0</ele>
        <time>2013-06-30T15:29:15Z</time>
      </trkpt>
      <trkpt lat="40.077600" lon="-5.538983">
        <ele>1385.0</ele>
        <time>2013-06-30T15:29:16Z</time>
      </trkpt>
      <trkpt lat="40.077550" lon="-5.539083">
        <ele>1384.0</ele>
        <time>2013-06-30T15:29:17Z</time>
      </trkpt>
      <trkpt lat="40.077483" lon="-5.539200">
        <ele>1381.0</ele>
        <time>2013-06-30T15:29:18Z</time>
      </trkpt>
      <trkpt lat="40.077433" lon="-5.539300">
        <ele>1379.0</ele>
        <time>2013-06-30T15:29:19Z</time>
      </trkpt>
      <trkpt lat="40.077383" lon="-5.539400">
        <ele>1378.0</ele>
        <time>2013-06-30T15:29:20Z</time>
      </trkpt>
      <trkpt lat="40.077350" lon="-5.539483">
        <ele>1376.0</ele>
        <time>2013-06-30T15:29:21Z</time>
      </trkpt>
      <trkpt lat="40.077283" lon="-5.539567">
        <ele>1374.0</ele>
        <time>2013-06-30T15:29:22Z</time>
      </trkpt>
      <trkpt lat="40.077217" lon="-5.539667">
        <ele>1372.0</ele>
        <time>2013-06-30T15:29:23Z</time>
      </trkpt>
      <trkpt lat="40.077150" lon="-5.539750">
        <ele>1369.0</ele>
        <time>2013-06-30T15:29:24Z</time>
      </trkpt>
      <trkpt lat="40.077100" lon="-5.539833">
        <ele>1367.0</ele>
        <time>2013-06-30T15:29:25Z</time>
      </trkpt>
      <trkpt lat="40.077033" lon="-5.539917">
        <ele>1366.0</ele>
        <time>2013-06-30T15:29:26Z</time>
      </trkpt>
      <trkpt lat="40.076983" lon="-5.539983">
        <ele>1364.0</ele>
        <time>2013-06-30T15:29:27Z</time>
      </trkpt>
      <trkpt lat="40.076917" lon="-5.540067">
        <ele>1363.0</ele>
        <time>2013-06-30T15:29:28Z</time>
      </trkpt>
      <trkpt lat="40.076833" lon="-5.540133">
        <ele>1361.0</ele>
        <time>2013-06-30T15:29:29Z</time>
      </trkpt>
      <trkpt lat="40.076750" lon="-5.540217">
        <ele>1359.0</ele>
        <time>2013-06-30T15:29:30Z</time>
      </trkpt>
      <trkpt lat="40.076683" lon="-5.540283">
        <ele>1358.0</ele>
        <time>2013-06-30T15:29:31Z</time>
      </trkpt>
      <trkpt lat="40.076617" lon="-5.540367">
        <ele>1357.0</ele>
        <time>2013-06-30T15:29:32Z</time>
      </trkpt>
      <trkpt lat="40.076550" lon="-5.540433">
        <ele>1355.0</ele>
        <time>2013-06-30T15:29:33Z</time>
      </trkpt>
      <trkpt lat="40.076483" lon="-5.540500">
        <ele>1353.0</ele>
        <time>2013-06-30T15:29:34Z</time>
      </trkpt>
      <trkpt lat="40.076417" lon="-5.540567">
        <ele>1351.0</ele>
        <time>2013-06-30T15:29:35Z</time>
      </trkpt>
      <trkpt lat="40.076333" lon="-5.540633">
        <ele>1348.0</ele>
        <time>2013-06-30T15:29:36Z</time>
      </trkpt>
      <trkpt lat="40.076250" lon="-5.540700">
        <ele>1345.0</ele>
        <time>2013-06-30T15:29:37Z</time>
      </trkpt>
      <trkpt lat="40.076183" lon="-5.540767">
        <ele>1342.0</ele>
        <time>2013-06-30T15:29:38Z</time>
      </trkpt>
      <trkpt lat="40.076117" lon="-5.540833">
        <ele>1340.0</ele>
        <time>2013-06-30T15:29:39Z</time>
      </trkpt>
      <trkpt lat="40.076050" lon="-5.540900">
        <ele>1337.0</ele>
        <time>2013-06-30T15:29:40Z</time>
      </trkpt>
      <trkpt lat="40.075983" lon="-5.540967">
        <ele>1335.0</ele>
        <time>2013-06-30T15:29:41Z</time>
      </trkpt>
      <trkpt lat="40.075917" lon="-5.541033">
        <ele>1333.0</ele>
        <time>2013-06-30T15:29:42Z</time>
      </trkpt>
      <trkpt lat="40.075833" lon="-5.541100">
        <ele>1330.0</ele>
        <time>2013-06-30T15:29:43Z</time>
      </trkpt>
      <trkpt lat="40.075767" lon="-5.541167">
        <ele>1328.0</ele>
        <time>2013-06-30T15:29:44Z</time>
      </trkpt>
      <trkpt lat="40.075700" lon="-5.541233">
        <ele>1326.0</ele>
        <time>2013-06-30T15:29:45Z</time>
      </trkpt>
      <trkpt lat="40.075633" lon="-5.541283">
        <ele>1323.0</ele>
        <time>2013-06-30T15:29:46Z</time>
      </trkpt>
      <trkpt lat="40.075567" lon="-5.541350">
        <ele>1321.0</ele>
        <time>2013-06-30T15:29:47Z</time>
      </trkpt>
      <trkpt lat="40.075500" lon="-5.541400">
        <ele>1318.0</ele>
        <time>2013-06-30T15:29:48Z</time>
      </trkpt>
      <trkpt lat="40.075433" lon="-5.541450">
        <ele>1315.0</ele>
        <time>2013-06-30T15:29:49Z</time>
      </trkpt>
      <trkpt lat="40.075367" lon="-5.541500">
        <ele>1312.0</ele>
        <time>2013-06-30T15:29:50Z</time>
      </trkpt>
      <trkpt lat="40.075300" lon="-5.541550">
        <ele>1308.0</ele>
        <time>2013-06-30T15:29:51Z</time>
      </trkpt>
      <trkpt lat="40.075233" lon="-5.541633">
        <ele>1304.0</ele>
        <time>2013-06-30T15:29:52Z</time>
      </trkpt>
      <trkpt lat="40.075167" lon="-5.541733">
        <ele>1300.0</ele>
        <time>2013-06-30T15:29:53Z</time>
      </trkpt>
      <trkpt lat="40.075100" lon="-5.541833">
        <ele>1296.0</ele>
        <time>2013-06-30T15:29:54Z</time>
      </trkpt>
      <trkpt lat="40.075033" lon="-5.541933">
        <ele>1294.0</ele>
        <time>2013-06-30T15:29:55Z</time>
      </trkpt>
      <trkpt lat="40.075000" lon="-5.542033">
        <ele>1292.0</ele>
        <time>2013-06-30T15:29:56Z</time>
      </trkpt>
      <trkpt lat="40.074950" lon="-5.542133">
        <ele>1289.0</ele>
        <time>2013-06-30T15:29:57Z</time>
      </trkpt>
      <trkpt lat="40.074900" lon="-5.542233">
        <ele>1287.0</ele>
        <time>2013-06-30T15:29:58Z</time>
      </trkpt>
      <trkpt lat="40.074850" lon="-5.542350">
        <ele>1283.0</ele>
        <time>2013-06-30T15:29:59Z</time>
      </trkpt>
      <trkpt lat="40.074800" lon="-5.542500">
        <ele>1280.0</ele>
        <time>2013-06-30T15:30:00Z</time>
      </trkpt>
      <trkpt lat="40.074750" lon="-5.542633">
        <ele>1277.0</ele>
        <time>2013-06-30T15:30:01Z</time>
      </trkpt>
      <trkpt lat="40.074733" lon="-5.542750">
        <ele>1278.0</ele>
        <time>2013-06-30T15:30:02Z</time>
      </trkpt>
      <trkpt lat="40.074717" lon="-5.542850">
        <ele>1277.0</ele>
        <time>2013-06-30T15:30:03Z</time>
      </trkpt>
      <trkpt lat="40.074683" lon="-5.542967">
        <ele>1275.0</ele>
        <time>2013-06-30T15:30:04Z</time>
      </trkpt>
      <trkpt lat="40.074650" lon="-5.543083">
        <ele>1273.0</ele>
        <time>2013-06-30T15:30:05Z</time>
      </trkpt>
      <trkpt lat="40.074617" lon="-5.543183">
        <ele>1271.0</ele>
        <time>2013-06-30T15:30:06Z</time>
      </trkpt>
      <trkpt lat="40.074567" lon="-5.543300">
        <ele>1268.0</ele>
        <time>2013-06-30T15:30:07Z</time>
      </trkpt>
      <trkpt lat="40.074533" lon="-5.543417">
        <ele>1264.0</ele>
        <time>2013-06-30T15:30:08Z</time>
      </trkpt>
      <trkpt lat="40.074483" lon="-5.543533">
        <ele>1262.0</ele>
        <time>2013-06-30T15:30:09Z</time>
      </trkpt>
      <trkpt lat="40.074450" lon="-5.543650">
        <ele>1259.0</ele>
        <time>2013-06-30T15:30:10Z</time>
      </trkpt>
      <trkpt lat="40.074417" lon="-5.543750">
        <ele>1258.0</ele>
        <time>2013-06-30T15:30:11Z</time>
      </trkpt>
      <trkpt lat="40.074383" lon="-5.543850">
        <ele>1257.0</ele>
        <time>2013-06-30T15:30:12Z</time>
      </trkpt>
      <trkpt lat="40.074350" lon="-5.543950">
        <ele>1256.0</ele>
        <time>2013-06-30T15:30:13Z</time>
      </trkpt>
      <trkpt lat="40.074317" lon="-5.544067">
        <ele>1255.0</ele>
        <time>2013-06-30T15:30:14Z</time>
      </trkpt>
      <trkpt lat="40.074267" lon="-5.544183">
        <ele>1253.0</ele>
        <time>2013-06-30T15:30:15Z</time>
      </trkpt>
      <trkpt lat="40.074200" lon="-5.544283">
        <ele>1252.0</ele>
        <time>2013-06-30T15:30:16Z</time>
      </trkpt>
      <trkpt lat="40.074150" lon="-5.544383">
        <ele>1252.0</ele>
        <time>2013-06-30T15:30:17Z</time>
      </trkpt>
      <trkpt lat="40.074083" lon="-5.544467">
        <ele>1252.0</ele>
        <time>2013-06-30T15:30:18Z</time>
      </trkpt>
      <trkpt lat="40.074017" lon="-5.544550">
        <ele>1252.0</ele>
        <time>2013-06-30T15:30:19Z</time>
      </trkpt>
      <trkpt lat="40.073950" lon="-5.544667">
        <ele>1253.0</ele>
        <time>2013-06-30T15:30:20Z</time>
      </trkpt>
      <trkpt lat="40.073883" lon="-5.544783">
        <ele>1254.0</ele>
        <time>2013-06-30T15:30:21Z</time>
      </trkpt>
      <trkpt lat="40.073850" lon="-5.544883">
        <ele>1256.0</ele>
        <time>2013-06-30T15:30:22Z</time>
      </trkpt>
      <trkpt lat="40.073800" lon="-5.544967">
        <ele>1258.0</ele>
        <time>2013-06-30T15:30:23Z</time>
      </trkpt>
      <trkpt lat="40.073767" lon="-5.545067">
        <ele>1259.0</ele>
        <time>2013-06-30T15:30:24Z</time>
      </trkpt>
      <trkpt lat="40.073717" lon="-5.545167">
        <ele>1260.0</ele>
        <time>2013-06-30T15:30:25Z</time>
      </trkpt>
      <trkpt lat="40.073683" lon="-5.545267">
        <ele>1259.0</ele>
        <time>2013-06-30T15:30:26Z</time>
      </trkpt>
      <trkpt lat="40.073633" lon="-5.545367">
        <ele>1259.0</ele>
        <time>2013-06-30T15:30:27Z</time>
      </trkpt>
      <trkpt lat="40.073583" lon="-5.545450">
        <ele>1259.0</ele>
        <time>2013-06-30T15:30:28Z</time>
      </trkpt>
      <trkpt lat="40.073533" lon="-5.545533">
        <ele>1259.0</ele>
        <time>2013-06-30T15:30:29Z</time>
      </trkpt>
      <trkpt lat="40.073483" lon="-5.545617">
        <ele>1260.0</ele>
        <time>2013-06-30T15:30:30Z</time>
      </trkpt>
      <trkpt lat="40.073450" lon="-5.545700">
        <ele>1260.0</ele>
        <time>2013-06-30T15:30:31Z</time>
      </trkpt>
      <trkpt lat="40.073383" lon="-5.545800">
        <ele>1259.0</ele>
        <time>2013-06-30T15:30:32Z</time>
      </trkpt>
      <trkpt lat="40.073333" lon="-5.545883">
        <ele>1259.0</ele>
        <time>2013-06-30T15:30:33Z</time>
      </trkpt>
      <trkpt lat="40.073267" lon="-5.545967">
        <ele>1259.0</ele>
        <time>2013-06-30T15:30:34Z</time>
      </trkpt>
      <trkpt lat="40.073217" lon="-5.546033">
        <ele>1259.0</ele>
        <time>2013-06-30T15:30:35Z</time>
      </trkpt>
      <trkpt lat="40.073167" lon="-5.546083">
        <ele>1260.0</ele>
        <time>2013-06-30T15:30:36Z</time>
      </trkpt>
      <trkpt lat="40.073117" lon="-5.546150">
        <ele>1259.0</ele>
        <time>2013-06-30T15:30:37Z</time>
      </trkpt>
      <trkpt lat="40.073050" lon="-5.546217">
        <ele>1259.0</ele>
        <time>2013-06-30T15:30:38Z</time>
      </trkpt>
      <trkpt lat="40.072983" lon="-5.546283">
        <ele>1258.0</ele>
        <time>2013-06-30T15:30:39Z</time>
      </trkpt>
      <trkpt lat="40.072900" lon="-5.546333">
        <ele>1257.0</ele>
        <time>2013-06-30T15:30:40Z</time>
      </trkpt>
      <trkpt lat="40.072833" lon="-5.546383">
        <ele>1256.0</ele>
        <time>2013-06-30T15:30:41Z</time>
      </trkpt>
      <trkpt lat="40.072767" lon="-5.546417">
        <ele>1256.0</ele>
        <time>2013-06-30T15:30:42Z</time>
      </trkpt>
      <trkpt lat="40.072683" lon="-5.546450">
        <ele>1255.0</ele>
        <time>2013-06-30T15:30:43Z</time>
      </trkpt>
      <trkpt lat="40.072600" lon="-5.546483">
        <ele>1254.0</ele>
        <time>2013-06-30T15:30:44Z</time>
      </trkpt>
      <trkpt lat="40.072500" lon="-5.546533">
        <ele>1253.0</ele>
        <time>2013-06-30T15:30:45Z</time>
      </trkpt>
      <trkpt lat="40.072417" lon="-5.546550">
        <ele>1252.0</ele>
        <time>2013-06-30T15:30:46Z</time>
      </trkpt>
      <trkpt lat="40.072350" lon="-5.546567">
        <ele>1252.0</ele>
        <time>2013-06-30T15:30:47Z</time>
      </trkpt>
      <trkpt lat="40.072267" lon="-5.546550">
        <ele>1251.0</ele>
        <time>2013-06-30T15:30:48Z</time>
      </trkpt>
      <trkpt lat="40.072183" lon="-5.546517">
        <ele>1250.0</ele>
        <time>2013-06-30T15:30:49Z</time>
      </trkpt>
      <trkpt lat="40.072117" lon="-5.546483">
        <ele>1248.0</ele>
        <time>2013-06-30T15:30:50Z</time>
      </trkpt>
      <trkpt lat="40.072050" lon="-5.546417">
        <ele>1246.0</ele>
        <time>2013-06-30T15:30:51Z</time>
      </trkpt>
      <trkpt lat="40.072000" lon="-5.546350">
        <ele>1244.0</ele>
        <time>2013-06-30T15:30:52Z</time>
      </trkpt>
      <trkpt lat="40.071950" lon="-5.546267">
        <ele>1243.0</ele>
        <time>2013-06-30T15:30:53Z</time>
      </trkpt>
      <trkpt lat="40.071933" lon="-5.546183">
        <ele>1241.0</ele>
        <time>2013-06-30T15:30:54Z</time>
      </trkpt>
      <trkpt lat="40.071917" lon="-5.546100">
        <ele>1240.0</ele>
        <time>2013-06-30T15:30:55Z</time>
      </trkpt>
      <trkpt lat="40.071950" lon="-5.546000">
        <ele>1239.0</ele>
        <time>2013-06-30T15:30:56Z</time>
      </trkpt>
      <trkpt lat="40.071983" lon="-5.545917">
        <ele>1239.0</ele>
        <time>2013-06-30T15:30:57Z</time>
      </trkpt>
      <trkpt lat="40.072033" lon="-5.545850">
        <ele>1239.0</ele>
        <time>2013-06-30T15:30:58Z</time>
      </trkpt>
      <trkpt lat="40.072067" lon="-5.545800">
        <ele>1239.0</ele>
        <time>2013-06-30T15:30:59Z</time>
      </trkpt>
      <trkpt lat="40.072117" lon="-5.545750">
        <ele>1240.0</ele>
        <time>2013-06-30T15:31:00Z</time>
      </trkpt>
      <trkpt lat="40.072167" lon="-5.545717">
        <ele>1241.0</ele>
        <time>2013-06-30T15:31:01Z</time>
      </trkpt>
      <trkpt lat="40.072233" lon="-5.545667">
        <ele>1241.0</ele>
        <time>2013-06-30T15:31:02Z</time>
      </trkpt>
      <trkpt lat="40.072317" lon="-5.545633">
        <ele>1242.0</ele>
        <time>2013-06-30T15:31:03Z</time>
      </trkpt>
      <trkpt lat="40.072383" lon="-5.545617">
        <ele>1243.0</ele>
        <time>2013-06-30T15:31:04Z</time>
      </trkpt>
      <trkpt lat="40.072450" lon="-5.545633">
        <ele>1243.0</ele>
        <time>2013-06-30T15:31:05Z</time>
      </trkpt>
      <trkpt lat="40.072500" lon="-5.545683">
        <ele>1242.0</ele>
        <time>2013-06-30T15:31:06Z</time>
      </trkpt>
      <trkpt lat="40.072633" lon="-5.545817">
        <ele>1240.0</ele>
        <time>2013-06-30T15:31:08Z</time>
      </trkpt>
      <trkpt lat="40.072700" lon="-5.545883">
        <ele>1239.0</ele>
        <time>2013-06-30T15:31:09Z</time>
      </trkpt>
      <trkpt lat="40.072750" lon="-5.545983">
        <ele>1238.0</ele>
        <time>2013-06-30T15:31:10Z</time>
      </trkpt>
      <trkpt lat="40.072767" lon="-5.546083">
        <ele>1238.0</ele>
        <time>2013-06-30T15:31:11Z</time>
      </trkpt>
      <trkpt lat="40.072800" lon="-5.546200">
        <ele>1238.0</ele>
        <time>2013-06-30T15:31:12Z</time>
      </trkpt>
      <trkpt lat="40.072817" lon="-5.546317">
        <ele>1237.0</ele>
        <time>2013-06-30T15:31:13Z</time>
      </trkpt>
      <trkpt lat="40.072817" lon="-5.546417">
        <ele>1238.0</ele>
        <time>2013-06-30T15:31:14Z</time>
      </trkpt>
      <trkpt lat="40.072800" lon="-5.546500">
        <ele>1240.0</ele>
        <time>2013-06-30T15:31:15Z</time>
      </trkpt>
      <trkpt lat="40.072783" lon="-5.546600">
        <ele>1241.0</ele>
        <time>2013-06-30T15:31:16Z</time>
      </trkpt>
      <trkpt lat="40.072750" lon="-5.546700">
        <ele>1241.0</ele>
        <time>2013-06-30T15:31:17Z</time>
      </trkpt>
      <trkpt lat="40.072717" lon="-5.546800">
        <ele>1241.0</ele>
        <time>2013-06-30T15:31:18Z</time>
      </trkpt>
      <trkpt lat="40.072700" lon="-5.546917">
        <ele>1241.0</ele>
        <time>2013-06-30T15:31:19Z</time>
      </trkpt>
      <trkpt lat="40.072683" lon="-5.547033">
        <ele>1242.0</ele>
        <time>2013-06-30T15:31:20Z</time>
      </trkpt>
      <trkpt lat="40.072617" lon="-5.547200">
        <ele>1244.0</ele>
        <time>2013-06-30T15:31:22Z</time>
      </trkpt>
      <trkpt lat="40.072600" lon="-5.547283">
        <ele>1244.0</ele>
        <time>2013-06-30T15:31:23Z</time>
      </trkpt>
      <trkpt lat="40.072567" lon="-5.547367">
        <ele>1243.0</ele>
        <time>2013-06-30T15:31:24Z</time>
      </trkpt>
      <trkpt lat="40.072550" lon="-5.547483">
        <ele>1242.0</ele>
        <time>2013-06-30T15:31:25Z</time>
      </trkpt>
      <trkpt lat="40.072550" lon="-5.547600">
        <ele>1240.0</ele>
        <time>2013-06-30T15:31:26Z</time>
      </trkpt>
      <trkpt lat="40.072583" lon="-5.547733">
        <ele>1239.0</ele>
        <time>2013-06-30T15:31:27Z</time>
      </trkpt>
      <trkpt lat="40.072667" lon="-5.547917">
        <ele>1240.0</ele>
        <time>2013-06-30T15:31:29Z</time>
      </trkpt>
      <trkpt lat="40.072733" lon="-5.547967">
        <ele>1240.0</ele>
        <time>2013-06-30T15:31:30Z</time>
      </trkpt>
      <trkpt lat="40.072800" lon="-5.548017">
        <ele>1239.0</ele>
        <time>2013-06-30T15:31:31Z</time>
      </trkpt>
      <trkpt lat="40.072867" lon="-5.548067">
        <ele>1237.0</ele>
        <time>2013-06-30T15:31:32Z</time>
      </trkpt>
      <trkpt lat="40.073133" lon="-5.548117">
        <ele>1233.0</ele>
        <time>2013-06-30T15:31:35Z</time>
      </trkpt>
      <trkpt lat="40.073200" lon="-5.548083">
        <ele>1232.0</ele>
        <time>2013-06-30T15:31:36Z</time>
      </trkpt>
      <trkpt lat="40.073267" lon="-5.548050">
        <ele>1231.0</ele>
        <time>2013-06-30T15:31:37Z</time>
      </trkpt>
      <trkpt lat="40.073333" lon="-5.548000">
        <ele>1231.0</ele>
        <time>2013-06-30T15:31:38Z</time>
      </trkpt>
      <trkpt lat="40.073383" lon="-5.547950">
        <ele>1230.0</ele>
        <time>2013-06-30T15:31:39Z</time>
      </trkpt>
      <trkpt lat="40.073433" lon="-5.547883">
        <ele>1230.0</ele>
        <time>2013-06-30T15:31:40Z</time>
      </trkpt>
      <trkpt lat="40.073483" lon="-5.547800">
        <ele>1229.0</ele>
        <time>2013-06-30T15:31:41Z</time>
      </trkpt>
      <trkpt lat="40.073517" lon="-5.547717">
        <ele>1228.0</ele>
        <time>2013-06-30T15:31:42Z</time>
      </trkpt>
      <trkpt lat="40.073517" lon="-5.547633">
        <ele>1228.0</ele>
        <time>2013-06-30T15:31:43Z</time>
      </trkpt>
      <trkpt lat="40.073500" lon="-5.547450">
        <ele>1228.0</ele>
        <time>2013-06-30T15:31:45Z</time>
      </trkpt>
      <trkpt lat="40.073467" lon="-5.547367">
        <ele>1228.0</ele>
        <time>2013-06-30T15:31:46Z</time>
      </trkpt>
      <trkpt lat="40.073417" lon="-5.547283">
        <ele>1228.0</ele>
        <time>2013-06-30T15:31:47Z</time>
      </trkpt>
      <trkpt lat="40.073333" lon="-5.547217">
        <ele>1227.0</ele>
        <time>2013-06-30T15:31:48Z</time>
      </trkpt>
      <trkpt lat="40.073267" lon="-5.547183">
        <ele>1226.0</ele>
        <time>2013-06-30T15:31:49Z</time>
      </trkpt>
      <trkpt lat="40.073183" lon="-5.547150">
        <ele>1225.0</ele>
        <time>2013-06-30T15:31:50Z</time>
      </trkpt>
      <trkpt lat="40.073100" lon="-5.547133">
        <ele>1223.0</ele>
        <time>2013-06-30T15:31:51Z</time>
      </trkpt>
      <trkpt lat="40.073017" lon="-5.547117">
        <ele>1221.0</ele>
        <time>2013-06-30T15:31:52Z</time>
      </trkpt>
      <trkpt lat="40.072933" lon="-5.547117">
        <ele>1218.0</ele>
        <time>2013-06-30T15:31:53Z</time>
      </trkpt>
      <trkpt lat="40.072833" lon="-5.547117">
        <ele>1215.0</ele>
        <time>2013-06-30T15:31:54Z</time>
      </trkpt>
      <trkpt lat="40.072733" lon="-5.547133">
        <ele>1214.0</ele>
        <time>2013-06-30T15:31:55Z</time>
      </trkpt>
      <trkpt lat="40.072633" lon="-5.547150">
        <ele>1213.0</ele>
        <time>2013-06-30T15:31:56Z</time>
      </trkpt>
      <trkpt lat="40.072550" lon="-5.547167">
        <ele>1213.0</ele>
        <time>2013-06-30T15:31:57Z</time>
      </trkpt>
      <trkpt lat="40.072467" lon="-5.547183">
        <ele>1213.0</ele>
        <time>2013-06-30T15:31:58Z</time>
      </trkpt>
      <trkpt lat="40.072367" lon="-5.547217">
        <ele>1211.0</ele>
        <time>2013-06-30T15:31:59Z</time>
      </trkpt>
      <trkpt lat="40.072267" lon="-5.547250">
        <ele>1210.0</ele>
        <time>2013-06-30T15:32:00Z</time>
      </trkpt>
      <trkpt lat="40.072183" lon="-5.547283">
        <ele>1210.0</ele>
        <time>2013-06-30T15:32:01Z</time>
      </trkpt>
      <trkpt lat="40.072083" lon="-5.547317">
        <ele>1209.0</ele>
        <time>2013-06-30T15:32:02Z</time>
      </trkpt>
      <trkpt lat="40.072000" lon="-5.547333">
        <ele>1209.0</ele>
        <time>2013-06-30T15:32:03Z</time>
      </trkpt>
      <trkpt lat="40.071917" lon="-5.547350">
        <ele>1209.0</ele>
        <time>2013-06-30T15:32:04Z</time>
      </trkpt>
      <trkpt lat="40.071833" lon="-5.547367">
        <ele>1209.0</ele>
        <time>2013-06-30T15:32:05Z</time>
      </trkpt>
      <trkpt lat="40.071750" lon="-5.547383">
        <ele>1208.0</ele>
        <time>2013-06-30T15:32:06Z</time>
      </trkpt>
      <trkpt lat="40.071650" lon="-5.547417">
        <ele>1208.0</ele>
        <time>2013-06-30T15:32:07Z</time>
      </trkpt>
      <trkpt lat="40.071567" lon="-5.547433">
        <ele>1207.0</ele>
        <time>2013-06-30T15:32:08Z</time>
      </trkpt>
      <trkpt lat="40.071467" lon="-5.547467">
        <ele>1207.0</ele>
        <time>2013-06-30T15:32:09Z</time>
      </trkpt>
      <trkpt lat="40.071400" lon="-5.547467">
        <ele>1207.0</ele>
        <time>2013-06-30T15:32:10Z</time>
      </trkpt>
      <trkpt lat="40.071317" lon="-5.547483">
        <ele>1207.0</ele>
        <time>2013-06-30T15:32:11Z</time>
      </trkpt>
      <trkpt lat="40.071233" lon="-5.547483">
        <ele>1206.0</ele>
        <time>2013-06-30T15:32:12Z</time>
      </trkpt>
      <trkpt lat="40.071150" lon="-5.547500">
        <ele>1206.0</ele>
        <time>2013-06-30T15:32:13Z</time>
      </trkpt>
      <trkpt lat="40.071067" lon="-5.547517">
        <ele>1205.0</ele>
        <time>2013-06-30T15:32:14Z</time>
      </trkpt>
      <trkpt lat="40.070967" lon="-5.547533">
        <ele>1205.0</ele>
        <time>2013-06-30T15:32:15Z</time>
      </trkpt>
      <trkpt lat="40.070867" lon="-5.547550">
        <ele>1204.0</ele>
        <time>2013-06-30T15:32:16Z</time>
      </trkpt>
      <trkpt lat="40.070750" lon="-5.547567">
        <ele>1204.0</ele>
        <time>2013-06-30T15:32:17Z</time>
      </trkpt>
      <trkpt lat="40.070650" lon="-5.547583">
        <ele>1203.0</ele>
        <time>2013-06-30T15:32:18Z</time>
      </trkpt>
      <trkpt lat="40.070550" lon="-5.547600">
        <ele>1204.0</ele>
        <time>2013-06-30T15:32:19Z</time>
      </trkpt>
      <trkpt lat="40.070467" lon="-5.547617">
        <ele>1204.0</ele>
        <time>2013-06-30T15:32:20Z</time>
      </trkpt>
      <trkpt lat="40.070383" lon="-5.547650">
        <ele>1205.0</ele>
        <time>2013-06-30T15:32:21Z</time>
      </trkpt>
      <trkpt lat="40.070283" lon="-5.547683">
        <ele>1205.0</ele>
        <time>2013-06-30T15:32:22Z</time>
      </trkpt>
      <trkpt lat="40.070183" lon="-5.547700">
        <ele>1205.0</ele>
        <time>2013-06-30T15:32:23Z</time>
      </trkpt>
      <trkpt lat="40.070083" lon="-5.547733">
        <ele>1204.0</ele>
        <time>2013-06-30T15:32:24Z</time>
      </trkpt>
      <trkpt lat="40.070000" lon="-5.547750">
        <ele>1204.0</ele>
        <time>2013-06-30T15:32:25Z</time>
      </trkpt>
      <trkpt lat="40.069900" lon="-5.547783">
        <ele>1203.0</ele>
        <time>2013-06-30T15:32:26Z</time>
      </trkpt>
      <trkpt lat="40.069800" lon="-5.547817">
        <ele>1203.0</ele>
        <time>2013-06-30T15:32:27Z</time>
      </trkpt>
      <trkpt lat="40.069700" lon="-5.547833">
        <ele>1202.0</ele>
        <time>2013-06-30T15:32:28Z</time>
      </trkpt>
      <trkpt lat="40.069600" lon="-5.547883">
        <ele>1201.0</ele>
        <time>2013-06-30T15:32:29Z</time>
      </trkpt>
      <trkpt lat="40.069500" lon="-5.547917">
        <ele>1201.0</ele>
        <time>2013-06-30T15:32:30Z</time>
      </trkpt>
      <trkpt lat="40.069417" lon="-5.547950">
        <ele>1201.0</ele>
        <time>2013-06-30T15:32:31Z</time>
      </trkpt>
      <trkpt lat="40.069317" lon="-5.548000">
        <ele>1201.0</ele>
        <time>2013-06-30T15:32:32Z</time>
      </trkpt>
      <trkpt lat="40.069233" lon="-5.548033">
        <ele>1201.0</ele>
        <time>2013-06-30T15:32:33Z</time>
      </trkpt>
      <trkpt lat="40.069133" lon="-5.548083">
        <ele>1202.0</ele>
        <time>2013-06-30T15:32:34Z</time>
      </trkpt>
      <trkpt lat="40.069050" lon="-5.548133">
        <ele>1203.0</ele>
        <time>2013-06-30T15:32:35Z</time>
      </trkpt>
      <trkpt lat="40.068967" lon="-5.548167">
        <ele>1204.0</ele>
        <time>2013-06-30T15:32:36Z</time>
      </trkpt>
      <trkpt lat="40.068883" lon="-5.548200">
        <ele>1206.0</ele>
        <time>2013-06-30T15:32:37Z</time>
      </trkpt>
      <trkpt lat="40.068800" lon="-5.548233">
        <ele>1208.0</ele>
        <time>2013-06-30T15:32:38Z</time>
      </trkpt>
      <trkpt lat="40.068700" lon="-5.548250">
        <ele>1209.0</ele>
        <time>2013-06-30T15:32:39Z</time>
      </trkpt>
      <trkpt lat="40.068617" lon="-5.548283">
        <ele>1209.0</ele>
        <time>2013-06-30T15:32:40Z</time>
      </trkpt>
      <trkpt lat="40.068533" lon="-5.548317">
        <ele>1210.0</ele>
        <time>2013-06-30T15:32:41Z</time>
      </trkpt>
      <trkpt lat="40.068450" lon="-5.548367">
        <ele>1212.0</ele>
        <time>2013-06-30T15:32:42Z</time>
      </trkpt>
      <trkpt lat="40.068367" lon="-5.548400">
        <ele>1213.0</ele>
        <time>2013-06-30T15:32:43Z</time>
      </trkpt>
      <trkpt lat="40.068283" lon="-5.548433">
        <ele>1214.0</ele>
        <time>2013-06-30T15:32:44Z</time>
      </trkpt>
      <trkpt lat="40.068183" lon="-5.548483">
        <ele>1215.0</ele>
        <time>2013-06-30T15:32:45Z</time>
      </trkpt>
      <trkpt lat="40.068100" lon="-5.548517">
        <ele>1216.0</ele>
        <time>2013-06-30T15:32:46Z</time>
      </trkpt>
      <trkpt lat="40.068017" lon="-5.548550">
        <ele>1218.0</ele>
        <time>2013-06-30T15:32:47Z</time>
      </trkpt>
      <trkpt lat="40.067933" lon="-5.548600">
        <ele>1219.0</ele>
        <time>2013-06-30T15:32:48Z</time>
      </trkpt>
      <trkpt lat="40.067850" lon="-5.548650">
        <ele>1220.0</ele>
        <time>2013-06-30T15:32:49Z</time>
      </trkpt>
      <trkpt lat="40.067767" lon="-5.548700">
        <ele>1221.0</ele>
        <time>2013-06-30T15:32:50Z</time>
      </trkpt>
      <trkpt lat="40.067700" lon="-5.548767">
        <ele>1221.0</ele>
        <time>2013-06-30T15:32:51Z</time>
      </trkpt>
      <trkpt lat="40.067617" lon="-5.548833">
        <ele>1222.0</ele>
        <time>2013-06-30T15:32:52Z</time>
      </trkpt>
      <trkpt lat="40.067550" lon="-5.548933">
        <ele>1223.0</ele>
        <time>2013-06-30T15:32:53Z</time>
      </trkpt>
      <trkpt lat="40.067500" lon="-5.549033">
        <ele>1224.0</ele>
        <time>2013-06-30T15:32:54Z</time>
      </trkpt>
      <trkpt lat="40.067483" lon="-5.549150">
        <ele>1225.0</ele>
        <time>2013-06-30T15:32:55Z</time>
      </trkpt>
      <trkpt lat="40.067467" lon="-5.549283">
        <ele>1226.0</ele>
        <time>2013-06-30T15:32:56Z</time>
      </trkpt>
      <trkpt lat="40.067483" lon="-5.549417">
        <ele>1226.0</ele>
        <time>2013-06-30T15:32:57Z</time>
      </trkpt>
      <trkpt lat="40.067517" lon="-5.549533">
        <ele>1226.0</ele>
        <time>2013-06-30T15:32:58Z</time>
      </trkpt>
      <trkpt lat="40.067567" lon="-5.549633">
        <ele>1227.0</ele>
        <time>2013-06-30T15:32:59Z</time>
      </trkpt>
      <trkpt lat="40.067633" lon="-5.549700">
        <ele>1227.0</ele>
        <time>2013-06-30T15:33:00Z</time>
      </trkpt>
      <trkpt lat="40.067700" lon="-5.549750">
        <ele>1227.0</ele>
        <time>2013-06-30T15:33:01Z</time>
      </trkpt>
      <trkpt lat="40.067767" lon="-5.549783">
        <ele>1228.0</ele>
        <time>2013-06-30T15:33:02Z</time>
      </trkpt>
      <trkpt lat="40.067917" lon="-5.549767">
        <ele>1227.0</ele>
        <time>2013-06-30T15:33:04Z</time>
      </trkpt>
      <trkpt lat="40.067983" lon="-5.549717">
        <ele>1226.0</ele>
        <time>2013-06-30T15:33:05Z</time>
      </trkpt>
      <trkpt lat="40.068050" lon="-5.549650">
        <ele>1226.0</ele>
        <time>2013-06-30T15:33:06Z</time>
      </trkpt>
      <trkpt lat="40.068100" lon="-5.549567">
        <ele>1226.0</ele>
        <time>2013-06-30T15:33:07Z</time>
      </trkpt>
      <trkpt lat="40.068117" lon="-5.549483">
        <ele>1227.0</ele>
        <time>2013-06-30T15:33:08Z</time>
      </trkpt>
      <trkpt lat="40.068133" lon="-5.549383">
        <ele>1228.0</ele>
        <time>2013-06-30T15:33:09Z</time>
      </trkpt>
      <trkpt lat="40.068117" lon="-5.549300">
        <ele>1229.0</ele>
        <time>2013-06-30T15:33:10Z</time>
      </trkpt>
      <trkpt lat="40.068117" lon="-5.549200">
        <ele>1230.0</ele>
        <time>2013-06-30T15:33:11Z</time>
      </trkpt>
      <trkpt lat="40.068100" lon="-5.549100">
        <ele>1230.0</ele>
        <time>2013-06-30T15:33:12Z</time>
      </trkpt>
      <trkpt lat="40.068067" lon="-5.549000">
        <ele>1232.0</ele>
        <time>2013-06-30T15:33:13Z</time>
      </trkpt>
      <trkpt lat="40.068033" lon="-5.548917">
        <ele>1233.0</ele>
        <time>2013-06-30T15:33:14Z</time>
      </trkpt>
      <trkpt lat="40.067983" lon="-5.548833">
        <ele>1234.0</ele>
        <time>2013-06-30T15:33:15Z</time>
      </trkpt>
      <trkpt lat="40.067917" lon="-5.548767">
        <ele>1234.0</ele>
        <time>2013-06-30T15:33:16Z</time>
      </trkpt>
      <trkpt lat="40.067850" lon="-5.548717">
        <ele>1235.0</ele>
        <time>2013-06-30T15:33:17Z</time>
      </trkpt>
      <trkpt lat="40.067767" lon="-5.548667">
        <ele>1236.0</ele>
        <time>2013-06-30T15:33:18Z</time>
      </trkpt>
      <trkpt lat="40.067683" lon="-5.548633">
        <ele>1237.0</ele>
        <time>2013-06-30T15:33:19Z</time>
      </trkpt>
      <trkpt lat="40.067600" lon="-5.548633">
        <ele>1238.0</ele>
        <time>2013-06-30T15:33:20Z</time>
      </trkpt>
      <trkpt lat="40.067517" lon="-5.548633">
        <ele>1238.0</ele>
        <time>2013-06-30T15:33:21Z</time>
      </trkpt>
      <trkpt lat="40.067417" lon="-5.548667">
        <ele>1239.0</ele>
        <time>2013-06-30T15:33:22Z</time>
      </trkpt>
      <trkpt lat="40.067317" lon="-5.548717">
        <ele>1240.0</ele>
        <time>2013-06-30T15:33:23Z</time>
      </trkpt>
      <trkpt lat="40.067233" lon="-5.548783">
        <ele>1242.0</ele>
        <time>2013-06-30T15:33:24Z</time>
      </trkpt>
      <trkpt lat="40.067167" lon="-5.548867">
        <ele>1244.0</ele>
        <time>2013-06-30T15:33:25Z</time>
      </trkpt>
      <trkpt lat="40.067117" lon="-5.548950">
        <ele>1245.0</ele>
        <time>2013-06-30T15:33:26Z</time>
      </trkpt>
      <trkpt lat="40.067050" lon="-5.549067">
        <ele>1246.0</ele>
        <time>2013-06-30T15:33:27Z</time>
      </trkpt>
      <trkpt lat="40.067017" lon="-5.549183">
        <ele>1246.0</ele>
        <time>2013-06-30T15:33:28Z</time>
      </trkpt>
      <trkpt lat="40.067000" lon="-5.549317">
        <ele>1247.0</ele>
        <time>2013-06-30T15:33:29Z</time>
      </trkpt>
      <trkpt lat="40.066983" lon="-5.549450">
        <ele>1248.0</ele>
        <time>2013-06-30T15:33:30Z</time>
      </trkpt>
      <trkpt lat="40.067000" lon="-5.549567">
        <ele>1249.0</ele>
        <time>2013-06-30T15:33:31Z</time>
      </trkpt>
      <trkpt lat="40.067033" lon="-5.549683">
        <ele>1249.0</ele>
        <time>2013-06-30T15:33:32Z</time>
      </trkpt>
      <trkpt lat="40.067083" lon="-5.549783">
        <ele>1250.0</ele>
        <time>2013-06-30T15:33:33Z</time>
      </trkpt>
      <trkpt lat="40.067133" lon="-5.549867">
        <ele>1251.0</ele>
        <time>2013-06-30T15:33:34Z</time>
      </trkpt>
      <trkpt lat="40.067200" lon="-5.549933">
        <ele>1252.0</ele>
        <time>2013-06-30T15:33:35Z</time>
      </trkpt>
      <trkpt lat="40.067267" lon="-5.549967">
        <ele>1252.0</ele>
        <time>2013-06-30T15:33:36Z</time>
      </trkpt>
      <trkpt lat="40.067333" lon="-5.549983">
        <ele>1253.0</ele>
        <time>2013-06-30T15:33:37Z</time>
      </trkpt>
      <trkpt lat="40.067400" lon="-5.549983">
        <ele>1254.0</ele>
        <time>2013-06-30T15:33:38Z</time>
      </trkpt>
      <trkpt lat="40.067450" lon="-5.549967">
        <ele>1255.0</ele>
        <time>2013-06-30T15:33:39Z</time>
      </trkpt>
      <trkpt lat="40.067517" lon="-5.549933">
        <ele>1256.0</ele>
        <time>2013-06-30T15:33:40Z</time>
      </trkpt>
      <trkpt lat="40.067583" lon="-5.549883">
        <ele>1257.0</ele>
        <time>2013-06-30T15:33:41Z</time>
      </trkpt>
      <trkpt lat="40.067633" lon="-5.549833">
        <ele>1258.0</ele>
        <time>2013-06-30T15:33:42Z</time>
      </trkpt>
      <trkpt lat="40.067683" lon="-5.549767">
        <ele>1260.0</ele>
        <time>2013-06-30T15:33:43Z</time>
      </trkpt>
      <trkpt lat="40.067700" lon="-5.549717">
        <ele>1261.0</ele>
        <time>2013-06-30T15:33:44Z</time>
      </trkpt>
      <trkpt lat="40.067733" lon="-5.549550">
        <ele>1263.0</ele>
        <time>2013-06-30T15:33:46Z</time>
      </trkpt>
      <trkpt lat="40.067750" lon="-5.549450">
        <ele>1264.0</ele>
        <time>2013-06-30T15:33:47Z</time>
      </trkpt>
      <trkpt lat="40.067750" lon="-5.549350">
        <ele>1265.0</ele>
        <time>2013-06-30T15:33:48Z</time>
      </trkpt>
      <trkpt lat="40.067750" lon="-5.549250">
        <ele>1266.0</ele>
        <time>2013-06-30T15:33:49Z</time>
      </trkpt>
      <trkpt lat="40.067750" lon="-5.549167">
        <ele>1267.0</ele>
        <time>2013-06-30T15:33:50Z</time>
      </trkpt>
      <trkpt lat="40.067750" lon="-5.549083">
        <ele>1268.0</ele>
        <time>2013-06-30T15:33:51Z</time>
      </trkpt>
      <trkpt lat="40.067733" lon="-5.549000">
        <ele>1269.0</ele>
        <time>2013-06-30T15:33:52Z</time>
      </trkpt>
      <trkpt lat="40.067717" lon="-5.548900">
        <ele>1268.0</ele>
        <time>2013-06-30T15:33:53Z</time>
      </trkpt>
      <trkpt lat="40.067683" lon="-5.548800">
        <ele>1268.0</ele>
        <time>2013-06-30T15:33:54Z</time>
      </trkpt>
      <trkpt lat="40.067633" lon="-5.548700">
        <ele>1267.0</ele>
        <time>2013-06-30T15:33:55Z</time>
      </trkpt>
      <trkpt lat="40.067583" lon="-5.548633">
        <ele>1267.0</ele>
        <time>2013-06-30T15:33:56Z</time>
      </trkpt>
      <trkpt lat="40.067517" lon="-5.548567">
        <ele>1267.0</ele>
        <time>2013-06-30T15:33:57Z</time>
      </trkpt>
      <trkpt lat="40.067433" lon="-5.548517">
        <ele>1268.0</ele>
        <time>2013-06-30T15:33:58Z</time>
      </trkpt>
      <trkpt lat="40.067367" lon="-5.548467">
        <ele>1268.0</ele>
        <time>2013-06-30T15:33:59Z</time>
      </trkpt>
      <trkpt lat="40.067267" lon="-5.548450">
        <ele>1267.0</ele>
        <time>2013-06-30T15:34:00Z</time>
      </trkpt>
      <trkpt lat="40.067167" lon="-5.548417">
        <ele>1266.0</ele>
        <time>2013-06-30T15:34:01Z</time>
      </trkpt>
      <trkpt lat="40.067067" lon="-5.548400">
        <ele>1266.0</ele>
        <time>2013-06-30T15:34:02Z</time>
      </trkpt>
      <trkpt lat="40.066967" lon="-5.548383">
        <ele>1266.0</ele>
        <time>2013-06-30T15:34:03Z</time>
      </trkpt>
      <trkpt lat="40.066867" lon="-5.548383">
        <ele>1267.0</ele>
        <time>2013-06-30T15:34:04Z</time>
      </trkpt>
      <trkpt lat="40.066800" lon="-5.548400">
        <ele>1268.0</ele>
        <time>2013-06-30T15:34:05Z</time>
      </trkpt>
      <trkpt lat="40.066717" lon="-5.548400">
        <ele>1268.0</ele>
        <time>2013-06-30T15:34:06Z</time>
      </trkpt>
      <trkpt lat="40.066633" lon="-5.548417">
        <ele>1267.0</ele>
        <time>2013-06-30T15:34:07Z</time>
      </trkpt>
      <trkpt lat="40.066517" lon="-5.548417">
        <ele>1265.0</ele>
        <time>2013-06-30T15:34:08Z</time>
      </trkpt>
      <trkpt lat="40.066400" lon="-5.548450">
        <ele>1265.0</ele>
        <time>2013-06-30T15:34:09Z</time>
      </trkpt>
      <trkpt lat="40.066300" lon="-5.548467">
        <ele>1266.0</ele>
        <time>2013-06-30T15:34:10Z</time>
      </trkpt>
      <trkpt lat="40.066200" lon="-5.548467">
        <ele>1268.0</ele>
        <time>2013-06-30T15:34:11Z</time>
      </trkpt>
      <trkpt lat="40.066100" lon="-5.548483">
        <ele>1269.0</ele>
        <time>2013-06-30T15:34:12Z</time>
      </trkpt>
      <trkpt lat="40.066017" lon="-5.548500">
        <ele>1270.0</ele>
        <time>2013-06-30T15:34:13Z</time>
      </trkpt>
      <trkpt lat="40.065933" lon="-5.548517">
        <ele>1272.0</ele>
        <time>2013-06-30T15:34:14Z</time>
      </trkpt>
      <trkpt lat="40.065833" lon="-5.548550">
        <ele>1273.0</ele>
        <time>2013-06-30T15:34:15Z</time>
      </trkpt>
      <trkpt lat="40.065750" lon="-5.548600">
        <ele>1274.0</ele>
        <time>2013-06-30T15:34:16Z</time>
      </trkpt>
      <trkpt lat="40.065667" lon="-5.548633">
        <ele>1275.0</ele>
        <time>2013-06-30T15:34:17Z</time>
      </trkpt>
      <trkpt lat="40.065567" lon="-5.548700">
        <ele>1277.0</ele>
        <time>2013-06-30T15:34:18Z</time>
      </trkpt>
      <trkpt lat="40.065500" lon="-5.548767">
        <ele>1279.0</ele>
        <time>2013-06-30T15:34:19Z</time>
      </trkpt>
      <trkpt lat="40.065417" lon="-5.548850">
        <ele>1280.0</ele>
        <time>2013-06-30T15:34:20Z</time>
      </trkpt>
      <trkpt lat="40.065367" lon="-5.548933">
        <ele>1281.0</ele>
        <time>2013-06-30T15:34:21Z</time>
      </trkpt>
      <trkpt lat="40.065317" lon="-5.549050">
        <ele>1282.0</ele>
        <time>2013-06-30T15:34:22Z</time>
      </trkpt>
      <trkpt lat="40.065267" lon="-5.549167">
        <ele>1282.0</ele>
        <time>2013-06-30T15:34:23Z</time>
      </trkpt>
      <trkpt lat="40.065233" lon="-5.549300">
        <ele>1282.0</ele>
        <time>2013-06-30T15:34:24Z</time>
      </trkpt>
      <trkpt lat="40.065200" lon="-5.549433">
        <ele>1283.0</ele>
        <time>2013-06-30T15:34:25Z</time>
      </trkpt>
      <trkpt lat="40.065200" lon="-5.549567">
        <ele>1285.0</ele>
        <time>2013-06-30T15:34:26Z</time>
      </trkpt>
      <trkpt lat="40.065200" lon="-5.549683">
        <ele>1286.0</ele>
        <time>2013-06-30T15:34:27Z</time>
      </trkpt>
      <trkpt lat="40.065233" lon="-5.549800">
        <ele>1287.0</ele>
        <time>2013-06-30T15:34:28Z</time>
      </trkpt>
      <trkpt lat="40.065267" lon="-5.549933">
        <ele>1287.0</ele>
        <time>2013-06-30T15:34:29Z</time>
      </trkpt>
      <trkpt lat="40.065317" lon="-5.550050">
        <ele>1287.0</ele>
        <time>2013-06-30T15:34:30Z</time>
      </trkpt>
      <trkpt lat="40.065383" lon="-5.550150">
        <ele>1287.0</ele>
        <time>2013-06-30T15:34:31Z</time>
      </trkpt>
      <trkpt lat="40.065450" lon="-5.550250">
        <ele>1288.0</ele>
        <time>2013-06-30T15:34:32Z</time>
      </trkpt>
      <trkpt lat="40.065500" lon="-5.550317">
        <ele>1289.0</ele>
        <time>2013-06-30T15:34:33Z</time>
      </trkpt>
      <trkpt lat="40.065583" lon="-5.550350">
        <ele>1289.0</ele>
        <time>2013-06-30T15:34:34Z</time>
      </trkpt>
      <trkpt lat="40.065650" lon="-5.550383">
        <ele>1290.0</ele>
        <time>2013-06-30T15:34:35Z</time>
      </trkpt>
      <trkpt lat="40.065733" lon="-5.550383">
        <ele>1290.0</ele>
        <time>2013-06-30T15:34:36Z</time>
      </trkpt>
      <trkpt lat="40.065817" lon="-5.550367">
        <ele>1292.0</ele>
        <time>2013-06-30T15:34:37Z</time>
      </trkpt>
      <trkpt lat="40.065867" lon="-5.550333">
        <ele>1294.0</ele>
        <time>2013-06-30T15:34:38Z</time>
      </trkpt>
      <trkpt lat="40.065900" lon="-5.550283">
        <ele>1297.0</ele>
        <time>2013-06-30T15:34:39Z</time>
      </trkpt>
      <trkpt lat="40.065900" lon="-5.550217">
        <ele>1298.0</ele>
        <time>2013-06-30T15:34:40Z</time>
      </trkpt>
      <trkpt lat="40.065883" lon="-5.550150">
        <ele>1299.0</ele>
        <time>2013-06-30T15:34:41Z</time>
      </trkpt>
      <trkpt lat="40.065883" lon="-5.550050">
        <ele>1300.0</ele>
        <time>2013-06-30T15:34:42Z</time>
      </trkpt>
      <trkpt lat="40.065867" lon="-5.549950">
        <ele>1301.0</ele>
        <time>2013-06-30T15:34:43Z</time>
      </trkpt>
      <trkpt lat="40.065850" lon="-5.549833">
        <ele>1301.0</ele>
        <time>2013-06-30T15:34:44Z</time>
      </trkpt>
      <trkpt lat="40.065800" lon="-5.549750">
        <ele>1301.0</ele>
        <time>2013-06-30T15:34:45Z</time>
      </trkpt>
      <trkpt lat="40.065733" lon="-5.549683">
        <ele>1302.0</ele>
        <time>2013-06-30T15:34:46Z</time>
      </trkpt>
      <trkpt lat="40.065667" lon="-5.549617">
        <ele>1302.0</ele>
        <time>2013-06-30T15:34:47Z</time>
      </trkpt>
      <trkpt lat="40.065600" lon="-5.549567">
        <ele>1302.0</ele>
        <time>2013-06-30T15:34:48Z</time>
      </trkpt>
      <trkpt lat="40.065517" lon="-5.549500">
        <ele>1302.0</ele>
        <time>2013-06-30T15:34:49Z</time>
      </trkpt>
      <trkpt lat="40.065450" lon="-5.549433">
        <ele>1302.0</ele>
        <time>2013-06-30T15:34:50Z</time>
      </trkpt>
      <trkpt lat="40.065367" lon="-5.549383">
        <ele>1303.0</ele>
        <time>2013-06-30T15:34:51Z</time>
      </trkpt>
      <trkpt lat="40.065283" lon="-5.549333">
        <ele>1303.0</ele>
        <time>2013-06-30T15:34:52Z</time>
      </trkpt>
      <trkpt lat="40.065200" lon="-5.549317">
        <ele>1304.0</ele>
        <time>2013-06-30T15:34:53Z</time>
      </trkpt>
      <trkpt lat="40.065117" lon="-5.549300">
        <ele>1306.0</ele>
        <time>2013-06-30T15:34:54Z</time>
      </trkpt>
      <trkpt lat="40.065033" lon="-5.549300">
        <ele>1308.0</ele>
        <time>2013-06-30T15:34:55Z</time>
      </trkpt>
      <trkpt lat="40.064933" lon="-5.549333">
        <ele>1308.0</ele>
        <time>2013-06-30T15:34:56Z</time>
      </trkpt>
      <trkpt lat="40.064850" lon="-5.549400">
        <ele>1307.0</ele>
        <time>2013-06-30T15:34:57Z</time>
      </trkpt>
      <trkpt lat="40.064783" lon="-5.549517">
        <ele>1306.0</ele>
        <time>2013-06-30T15:34:58Z</time>
      </trkpt>
      <trkpt lat="40.064750" lon="-5.549667">
        <ele>1306.0</ele>
        <time>2013-06-30T15:34:59Z</time>
      </trkpt>
      <trkpt lat="40.064750" lon="-5.549800">
        <ele>1307.0</ele>
        <time>2013-06-30T15:35:00Z</time>
      </trkpt>
      <trkpt lat="40.064767" lon="-5.549933">
        <ele>1308.0</ele>
        <time>2013-06-30T15:35:01Z</time>
      </trkpt>
      <trkpt lat="40.064783" lon="-5.550033">
        <ele>1309.0</ele>
        <time>2013-06-30T15:35:02Z</time>
      </trkpt>
      <trkpt lat="40.064833" lon="-5.550133">
        <ele>1310.0</ele>
        <time>2013-06-30T15:35:03Z</time>
      </trkpt>
      <trkpt lat="40.064883" lon="-5.550233">
        <ele>1310.0</ele>
        <time>2013-06-30T15:35:04Z</time>
      </trkpt>
      <trkpt lat="40.064950" lon="-5.550317">
        <ele>1311.0</ele>
        <time>2013-06-30T15:35:05Z</time>
      </trkpt>
      <trkpt lat="40.065033" lon="-5.550383">
        <ele>1311.0</ele>
        <time>2013-06-30T15:35:06Z</time>
      </trkpt>
      <trkpt lat="40.065100" lon="-5.550417">
        <ele>1312.0</ele>
        <time>2013-06-30T15:35:07Z</time>
      </trkpt>
      <trkpt lat="40.065150" lon="-5.550417">
        <ele>1313.0</ele>
        <time>2013-06-30T15:35:08Z</time>
      </trkpt>
      <trkpt lat="40.065217" lon="-5.550433">
        <ele>1315.0</ele>
        <time>2013-06-30T15:35:09Z</time>
      </trkpt>
      <trkpt lat="40.065267" lon="-5.550450">
        <ele>1316.0</ele>
        <time>2013-06-30T15:35:10Z</time>
      </trkpt>
      <trkpt lat="40.065317" lon="-5.550467">
        <ele>1317.0</ele>
        <time>2013-06-30T15:35:11Z</time>
      </trkpt>
      <trkpt lat="40.065367" lon="-5.550467">
        <ele>1317.0</ele>
        <time>2013-06-30T15:35:12Z</time>
      </trkpt>
      <trkpt lat="40.065433" lon="-5.550450">
        <ele>1316.0</ele>
        <time>2013-06-30T15:35:13Z</time>
      </trkpt>
      <trkpt lat="40.065500" lon="-5.550433">
        <ele>1315.0</ele>
        <time>2013-06-30T15:35:14Z</time>
      </trkpt>
      <trkpt lat="40.065567" lon="-5.550367">
        <ele>1316.0</ele>
        <time>2013-06-30T15:35:16Z</time>
      </trkpt>
      <trkpt lat="40.065583" lon="-5.550300">
        <ele>1317.0</ele>
        <time>2013-06-30T15:35:17Z</time>
      </trkpt>
      <trkpt lat="40.065617" lon="-5.550050">
        <ele>1316.0</ele>
        <time>2013-06-30T15:35:20Z</time>
      </trkpt>
      <trkpt lat="40.065600" lon="-5.549967">
        <ele>1316.0</ele>
        <time>2013-06-30T15:35:21Z</time>
      </trkpt>
      <trkpt lat="40.065567" lon="-5.549883">
        <ele>1316.0</ele>
        <time>2013-06-30T15:35:22Z</time>
      </trkpt>
      <trkpt lat="40.065517" lon="-5.549817">
        <ele>1316.0</ele>
        <time>2013-06-30T15:35:23Z</time>
      </trkpt>
      <trkpt lat="40.065467" lon="-5.549717">
        <ele>1316.0</ele>
        <time>2013-06-30T15:35:24Z</time>
      </trkpt>
      <trkpt lat="40.065400" lon="-5.549633">
        <ele>1315.0</ele>
        <time>2013-06-30T15:35:25Z</time>
      </trkpt>
      <trkpt lat="40.065333" lon="-5.549567">
        <ele>1315.0</ele>
        <time>2013-06-30T15:35:26Z</time>
      </trkpt>
      <trkpt lat="40.065267" lon="-5.549500">
        <ele>1315.0</ele>
        <time>2013-06-30T15:35:27Z</time>
      </trkpt>
      <trkpt lat="40.065183" lon="-5.549433">
        <ele>1315.0</ele>
        <time>2013-06-30T15:35:28Z</time>
      </trkpt>
      <trkpt lat="40.065100" lon="-5.549400">
        <ele>1315.0</ele>
        <time>2013-06-30T15:35:29Z</time>
      </trkpt>
      <trkpt lat="40.065000" lon="-5.549383">
        <ele>1315.0</ele>
        <time>2013-06-30T15:35:30Z</time>
      </trkpt>
      <trkpt lat="40.064900" lon="-5.549367">
        <ele>1315.0</ele>
        <time>2013-06-30T15:35:31Z</time>
      </trkpt>
      <trkpt lat="40.064800" lon="-5.549367">
        <ele>1315.0</ele>
        <time>2013-06-30T15:35:32Z</time>
      </trkpt>
      <trkpt lat="40.064700" lon="-5.549400">
        <ele>1316.0</ele>
        <time>2013-06-30T15:35:33Z</time>
      </trkpt>
      <trkpt lat="40.064617" lon="-5.549433">
        <ele>1318.0</ele>
        <time>2013-06-30T15:35:34Z</time>
      </trkpt>
      <trkpt lat="40.064533" lon="-5.549483">
        <ele>1320.0</ele>
        <time>2013-06-30T15:35:35Z</time>
      </trkpt>
      <trkpt lat="40.064467" lon="-5.549550">
        <ele>1321.0</ele>
        <time>2013-06-30T15:35:36Z</time>
      </trkpt>
      <trkpt lat="40.064400" lon="-5.549633">
        <ele>1322.0</ele>
        <time>2013-06-30T15:35:37Z</time>
      </trkpt>
      <trkpt lat="40.064333" lon="-5.549733">
        <ele>1323.0</ele>
        <time>2013-06-30T15:35:38Z</time>
      </trkpt>
      <trkpt lat="40.064267" lon="-5.549850">
        <ele>1323.0</ele>
        <time>2013-06-30T15:35:39Z</time>
      </trkpt>
      <trkpt lat="40.064217" lon="-5.549950">
        <ele>1324.0</ele>
        <time>2013-06-30T15:35:40Z</time>
      </trkpt>
      <trkpt lat="40.064167" lon="-5.550050">
        <ele>1325.0</ele>
        <time>2013-06-30T15:35:41Z</time>
      </trkpt>
      <trkpt lat="40.064133" lon="-5.550167">
        <ele>1326.0</ele>
        <time>2013-06-30T15:35:42Z</time>
      </trkpt>
      <trkpt lat="40.064117" lon="-5.550283">
        <ele>1327.0</ele>
        <time>2013-06-30T15:35:43Z</time>
      </trkpt>
      <trkpt lat="40.064117" lon="-5.550417">
        <ele>1327.0</ele>
        <time>2013-06-30T15:35:44Z</time>
      </trkpt>
      <trkpt lat="40.064133" lon="-5.550550">
        <ele>1327.0</ele>
        <time>2013-06-30T15:35:45Z</time>
      </trkpt>
      <trkpt lat="40.064183" lon="-5.550650">
        <ele>1327.0</ele>
        <time>2013-06-30T15:35:46Z</time>
      </trkpt>
      <trkpt lat="40.064250" lon="-5.550733">
        <ele>1328.0</ele>
        <time>2013-06-30T15:35:47Z</time>
      </trkpt>
      <trkpt lat="40.064317" lon="-5.550800">
        <ele>1329.0</ele>
        <time>2013-06-30T15:35:48Z</time>
      </trkpt>
      <trkpt lat="40.064367" lon="-5.550850">
        <ele>1330.0</ele>
        <time>2013-06-30T15:35:49Z</time>
      </trkpt>
      <trkpt lat="40.064433" lon="-5.550867">
        <ele>1331.0</ele>
        <time>2013-06-30T15:35:50Z</time>
      </trkpt>
      <trkpt lat="40.064500" lon="-5.550883">
        <ele>1331.0</ele>
        <time>2013-06-30T15:35:51Z</time>
      </trkpt>
      <trkpt lat="40.064550" lon="-5.550867">
        <ele>1331.0</ele>
        <time>2013-06-30T15:35:52Z</time>
      </trkpt>
      <trkpt lat="40.064617" lon="-5.550817">
        <ele>1330.0</ele>
        <time>2013-06-30T15:35:53Z</time>
      </trkpt>
      <trkpt lat="40.064667" lon="-5.550750">
        <ele>1330.0</ele>
        <time>2013-06-30T15:35:54Z</time>
      </trkpt>
      <trkpt lat="40.064700" lon="-5.550700">
        <ele>1330.0</ele>
        <time>2013-06-30T15:35:55Z</time>
      </trkpt>
      <trkpt lat="40.064733" lon="-5.550633">
        <ele>1331.0</ele>
        <time>2013-06-30T15:35:56Z</time>
      </trkpt>
      <trkpt lat="40.064750" lon="-5.550550">
        <ele>1331.0</ele>
        <time>2013-06-30T15:35:57Z</time>
      </trkpt>
      <trkpt lat="40.064750" lon="-5.550467">
        <ele>1331.0</ele>
        <time>2013-06-30T15:35:58Z</time>
      </trkpt>
      <trkpt lat="40.064750" lon="-5.550383">
        <ele>1331.0</ele>
        <time>2013-06-30T15:35:59Z</time>
      </trkpt>
      <trkpt lat="40.064750" lon="-5.550283">
        <ele>1332.0</ele>
        <time>2013-06-30T15:36:00Z</time>
      </trkpt>
      <trkpt lat="40.064717" lon="-5.550183">
        <ele>1332.0</ele>
        <time>2013-06-30T15:36:01Z</time>
      </trkpt>
      <trkpt lat="40.064683" lon="-5.550117">
        <ele>1332.0</ele>
        <time>2013-06-30T15:36:02Z</time>
      </trkpt>
      <trkpt lat="40.064650" lon="-5.550033">
        <ele>1331.0</ele>
        <time>2013-06-30T15:36:03Z</time>
      </trkpt>
      <trkpt lat="40.064600" lon="-5.549967">
        <ele>1331.0</ele>
        <time>2013-06-30T15:36:04Z</time>
      </trkpt>
      <trkpt lat="40.064533" lon="-5.549900">
        <ele>1331.0</ele>
        <time>2013-06-30T15:36:05Z</time>
      </trkpt>
      <trkpt lat="40.064450" lon="-5.549833">
        <ele>1330.0</ele>
        <time>2013-06-30T15:36:06Z</time>
      </trkpt>
      <trkpt lat="40.064367" lon="-5.549783">
        <ele>1329.0</ele>
        <time>2013-06-30T15:36:07Z</time>
      </trkpt>
      <trkpt lat="40.064283" lon="-5.549733">
        <ele>1329.0</ele>
        <time>2013-06-30T15:36:08Z</time>
      </trkpt>
      <trkpt lat="40.064200" lon="-5.549683">
        <ele>1330.0</ele>
        <time>2013-06-30T15:36:09Z</time>
      </trkpt>
      <trkpt lat="40.064117" lon="-5.549667">
        <ele>1332.0</ele>
        <time>2013-06-30T15:36:10Z</time>
      </trkpt>
      <trkpt lat="40.064033" lon="-5.549650">
        <ele>1333.0</ele>
        <time>2013-06-30T15:36:11Z</time>
      </trkpt>
      <trkpt lat="40.063933" lon="-5.549617">
        <ele>1334.0</ele>
        <time>2013-06-30T15:36:12Z</time>
      </trkpt>
      <trkpt lat="40.063833" lon="-5.549600">
        <ele>1335.0</ele>
        <time>2013-06-30T15:36:13Z</time>
      </trkpt>
      <trkpt lat="40.063733" lon="-5.549567">
        <ele>1336.0</ele>
        <time>2013-06-30T15:36:14Z</time>
      </trkpt>
      <trkpt lat="40.063633" lon="-5.549533">
        <ele>1337.0</ele>
        <time>2013-06-30T15:36:15Z</time>
      </trkpt>
      <trkpt lat="40.063550" lon="-5.549533">
        <ele>1338.0</ele>
        <time>2013-06-30T15:36:16Z</time>
      </trkpt>
      <trkpt lat="40.063467" lon="-5.549567">
        <ele>1339.0</ele>
        <time>2013-06-30T15:36:17Z</time>
      </trkpt>
      <trkpt lat="40.063383" lon="-5.549633">
        <ele>1339.0</ele>
        <time>2013-06-30T15:36:18Z</time>
      </trkpt>
      <trkpt lat="40.063300" lon="-5.549717">
        <ele>1339.0</ele>
        <time>2013-06-30T15:36:19Z</time>
      </trkpt>
      <trkpt lat="40.063233" lon="-5.549817">
        <ele>1340.0</ele>
        <time>2013-06-30T15:36:20Z</time>
      </trkpt>
      <trkpt lat="40.063167" lon="-5.549917">
        <ele>1341.0</ele>
        <time>2013-06-30T15:36:21Z</time>
      </trkpt>
      <trkpt lat="40.063133" lon="-5.550017">
        <ele>1342.0</ele>
        <time>2013-06-30T15:36:22Z</time>
      </trkpt>
      <trkpt lat="40.063133" lon="-5.550133">
        <ele>1342.0</ele>
        <time>2013-06-30T15:36:23Z</time>
      </trkpt>
      <trkpt lat="40.063133" lon="-5.550233">
        <ele>1343.0</ele>
        <time>2013-06-30T15:36:24Z</time>
      </trkpt>
      <trkpt lat="40.063167" lon="-5.550350">
        <ele>1343.0</ele>
        <time>2013-06-30T15:36:25Z</time>
      </trkpt>
      <trkpt lat="40.063233" lon="-5.550417">
        <ele>1343.0</ele>
        <time>2013-06-30T15:36:26Z</time>
      </trkpt>
      <trkpt lat="40.063283" lon="-5.550483">
        <ele>1344.0</ele>
        <time>2013-06-30T15:36:27Z</time>
      </trkpt>
      <trkpt lat="40.063350" lon="-5.550517">
        <ele>1344.0</ele>
        <time>2013-06-30T15:36:28Z</time>
      </trkpt>
      <trkpt lat="40.063417" lon="-5.550533">
        <ele>1345.0</ele>
        <time>2013-06-30T15:36:29Z</time>
      </trkpt>
      <trkpt lat="40.063467" lon="-5.550533">
        <ele>1346.0</ele>
        <time>2013-06-30T15:36:30Z</time>
      </trkpt>
      <trkpt lat="40.063517" lon="-5.550500">
        <ele>1347.0</ele>
        <time>2013-06-30T15:36:31Z</time>
      </trkpt>
      <trkpt lat="40.063567" lon="-5.550467">
        <ele>1347.0</ele>
        <time>2013-06-30T15:36:32Z</time>
      </trkpt>
      <trkpt lat="40.063667" lon="-5.550333">
        <ele>1348.0</ele>
        <time>2013-06-30T15:36:34Z</time>
      </trkpt>
      <trkpt lat="40.063700" lon="-5.550267">
        <ele>1348.0</ele>
        <time>2013-06-30T15:36:35Z</time>
      </trkpt>
      <trkpt lat="40.063717" lon="-5.550183">
        <ele>1349.0</ele>
        <time>2013-06-30T15:36:36Z</time>
      </trkpt>
      <trkpt lat="40.063733" lon="-5.550100">
        <ele>1348.0</ele>
        <time>2013-06-30T15:36:37Z</time>
      </trkpt>
      <trkpt lat="40.063750" lon="-5.550033">
        <ele>1349.0</ele>
        <time>2013-06-30T15:36:38Z</time>
      </trkpt>
      <trkpt lat="40.063750" lon="-5.549967">
        <ele>1349.0</ele>
        <time>2013-06-30T15:36:39Z</time>
      </trkpt>
      <trkpt lat="40.063733" lon="-5.549883">
        <ele>1350.0</ele>
        <time>2013-06-30T15:36:40Z</time>
      </trkpt>
      <trkpt lat="40.063717" lon="-5.549783">
        <ele>1351.0</ele>
        <time>2013-06-30T15:36:41Z</time>
      </trkpt>
      <trkpt lat="40.063683" lon="-5.549683">
        <ele>1350.0</ele>
        <time>2013-06-30T15:36:42Z</time>
      </trkpt>
      <trkpt lat="40.063633" lon="-5.549583">
        <ele>1351.0</ele>
        <time>2013-06-30T15:36:43Z</time>
      </trkpt>
      <trkpt lat="40.063583" lon="-5.549483">
        <ele>1351.0</ele>
        <time>2013-06-30T15:36:44Z</time>
      </trkpt>
      <trkpt lat="40.063517" lon="-5.549400">
        <ele>1352.0</ele>
        <time>2013-06-30T15:36:45Z</time>
      </trkpt>
      <trkpt lat="40.063450" lon="-5.549317">
        <ele>1354.0</ele>
        <time>2013-06-30T15:36:46Z</time>
      </trkpt>
      <trkpt lat="40.063367" lon="-5.549267">
        <ele>1355.0</ele>
        <time>2013-06-30T15:36:47Z</time>
      </trkpt>
      <trkpt lat="40.063300" lon="-5.549200">
        <ele>1357.0</ele>
        <time>2013-06-30T15:36:48Z</time>
      </trkpt>
      <trkpt lat="40.063217" lon="-5.549150">
        <ele>1358.0</ele>
        <time>2013-06-30T15:36:49Z</time>
      </trkpt>
      <trkpt lat="40.063133" lon="-5.549100">
        <ele>1359.0</ele>
        <time>2013-06-30T15:36:50Z</time>
      </trkpt>
      <trkpt lat="40.063050" lon="-5.549050">
        <ele>1360.0</ele>
        <time>2013-06-30T15:36:51Z</time>
      </trkpt>
      <trkpt lat="40.062950" lon="-5.549000">
        <ele>1360.0</ele>
        <time>2013-06-30T15:36:52Z</time>
      </trkpt>
      <trkpt lat="40.062867" lon="-5.548983">
        <ele>1361.0</ele>
        <time>2013-06-30T15:36:53Z</time>
      </trkpt>
      <trkpt lat="40.062767" lon="-5.548983">
        <ele>1361.0</ele>
        <time>2013-06-30T15:36:54Z</time>
      </trkpt>
      <trkpt lat="40.062667" lon="-5.549017">
        <ele>1361.0</ele>
        <time>2013-06-30T15:36:55Z</time>
      </trkpt>
      <trkpt lat="40.062583" lon="-5.549067">
        <ele>1361.0</ele>
        <time>2013-06-30T15:36:56Z</time>
      </trkpt>
      <trkpt lat="40.062500" lon="-5.549150">
        <ele>1361.0</ele>
        <time>2013-06-30T15:36:57Z</time>
      </trkpt>
      <trkpt lat="40.062450" lon="-5.549250">
        <ele>1362.0</ele>
        <time>2013-06-30T15:36:58Z</time>
      </trkpt>
      <trkpt lat="40.062417" lon="-5.549367">
        <ele>1363.0</ele>
        <time>2013-06-30T15:36:59Z</time>
      </trkpt>
      <trkpt lat="40.062400" lon="-5.549483">
        <ele>1364.0</ele>
        <time>2013-06-30T15:37:00Z</time>
      </trkpt>
      <trkpt lat="40.062400" lon="-5.549617">
        <ele>1365.0</ele>
        <time>2013-06-30T15:37:01Z</time>
      </trkpt>
      <trkpt lat="40.062433" lon="-5.549717">
        <ele>1366.0</ele>
        <time>2013-06-30T15:37:02Z</time>
      </trkpt>
      <trkpt lat="40.062467" lon="-5.549817">
        <ele>1367.0</ele>
        <time>2013-06-30T15:37:03Z</time>
      </trkpt>
      <trkpt lat="40.062500" lon="-5.549900">
        <ele>1368.0</ele>
        <time>2013-06-30T15:37:04Z</time>
      </trkpt>
      <trkpt lat="40.062550" lon="-5.549967">
        <ele>1369.0</ele>
        <time>2013-06-30T15:37:05Z</time>
      </trkpt>
      <trkpt lat="40.062600" lon="-5.550033">
        <ele>1369.0</ele>
        <time>2013-06-30T15:37:06Z</time>
      </trkpt>
      <trkpt lat="40.062667" lon="-5.550067">
        <ele>1370.0</ele>
        <time>2013-06-30T15:37:07Z</time>
      </trkpt>
      <trkpt lat="40.062733" lon="-5.550083">
        <ele>1370.0</ele>
        <time>2013-06-30T15:37:08Z</time>
      </trkpt>
      <trkpt lat="40.062800" lon="-5.550083">
        <ele>1371.0</ele>
        <time>2013-06-30T15:37:09Z</time>
      </trkpt>
      <trkpt lat="40.062850" lon="-5.550083">
        <ele>1372.0</ele>
        <time>2013-06-30T15:37:10Z</time>
      </trkpt>
      <trkpt lat="40.062883" lon="-5.550067">
        <ele>1373.0</ele>
        <time>2013-06-30T15:37:11Z</time>
      </trkpt>
      <trkpt lat="40.062917" lon="-5.550033">
        <ele>1373.0</ele>
        <time>2013-06-30T15:37:12Z</time>
      </trkpt>
      <trkpt lat="40.062967" lon="-5.549967">
        <ele>1373.0</ele>
        <time>2013-06-30T15:37:13Z</time>
      </trkpt>
      <trkpt lat="40.063017" lon="-5.549900">
        <ele>1373.0</ele>
        <time>2013-06-30T15:37:14Z</time>
      </trkpt>
      <trkpt lat="40.063050" lon="-5.549833">
        <ele>1373.0</ele>
        <time>2013-06-30T15:37:15Z</time>
      </trkpt>
      <trkpt lat="40.063083" lon="-5.549767">
        <ele>1374.0</ele>
        <time>2013-06-30T15:37:16Z</time>
      </trkpt>
      <trkpt lat="40.063083" lon="-5.549683">
        <ele>1375.0</ele>
        <time>2013-06-30T15:37:17Z</time>
      </trkpt>
      <trkpt lat="40.063083" lon="-5.549600">
        <ele>1376.0</ele>
        <time>2013-06-30T15:37:18Z</time>
      </trkpt>
      <trkpt lat="40.063067" lon="-5.549500">
        <ele>1376.0</ele>
        <time>2013-06-30T15:37:19Z</time>
      </trkpt>
      <trkpt lat="40.063033" lon="-5.549383">
        <ele>1376.0</ele>
        <time>2013-06-30T15:37:20Z</time>
      </trkpt>
      <trkpt lat="40.063000" lon="-5.549283">
        <ele>1377.0</ele>
        <time>2013-06-30T15:37:21Z</time>
      </trkpt>
      <trkpt lat="40.062950" lon="-5.549200">
        <ele>1379.0</ele>
        <time>2013-06-30T15:37:22Z</time>
      </trkpt>
      <trkpt lat="40.062900" lon="-5.549117">
        <ele>1380.0</ele>
        <time>2013-06-30T15:37:23Z</time>
      </trkpt>
      <trkpt lat="40.062833" lon="-5.549050">
        <ele>1380.0</ele>
        <time>2013-06-30T15:37:24Z</time>
      </trkpt>
      <trkpt lat="40.062750" lon="-5.548967">
        <ele>1380.0</ele>
        <time>2013-06-30T15:37:25Z</time>
      </trkpt>
      <trkpt lat="40.062667" lon="-5.548917">
        <ele>1380.0</ele>
        <time>2013-06-30T15:37:26Z</time>
      </trkpt>
      <trkpt lat="40.062567" lon="-5.548883">
        <ele>1380.0</ele>
        <time>2013-06-30T15:37:27Z</time>
      </trkpt>
      <trkpt lat="40.062483" lon="-5.548850">
        <ele>1381.0</ele>
        <time>2013-06-30T15:37:28Z</time>
      </trkpt>
      <trkpt lat="40.062383" lon="-5.548850">
        <ele>1382.0</ele>
        <time>2013-06-30T15:37:29Z</time>
      </trkpt>
      <trkpt lat="40.062283" lon="-5.548850">
        <ele>1382.0</ele>
        <time>2013-06-30T15:37:30Z</time>
      </trkpt>
      <trkpt lat="40.062183" lon="-5.548883">
        <ele>1382.0</ele>
        <time>2013-06-30T15:37:31Z</time>
      </trkpt>
      <trkpt lat="40.062083" lon="-5.548917">
        <ele>1382.0</ele>
        <time>2013-06-30T15:37:32Z</time>
      </trkpt>
      <trkpt lat="40.062000" lon="-5.548950">
        <ele>1383.0</ele>
        <time>2013-06-30T15:37:33Z</time>
      </trkpt>
      <trkpt lat="40.061917" lon="-5.549000">
        <ele>1383.0</ele>
        <time>2013-06-30T15:37:34Z</time>
      </trkpt>
      <trkpt lat="40.061850" lon="-5.549050">
        <ele>1383.0</ele>
        <time>2013-06-30T15:37:35Z</time>
      </trkpt>
      <trkpt lat="40.061783" lon="-5.549133">
        <ele>1382.0</ele>
        <time>2013-06-30T15:37:36Z</time>
      </trkpt>
      <trkpt lat="40.061700" lon="-5.549233">
        <ele>1381.0</ele>
        <time>2013-06-30T15:37:37Z</time>
      </trkpt>
      <trkpt lat="40.061633" lon="-5.549333">
        <ele>1379.0</ele>
        <time>2013-06-30T15:37:38Z</time>
      </trkpt>
      <trkpt lat="40.061583" lon="-5.549433">
        <ele>1378.0</ele>
        <time>2013-06-30T15:37:39Z</time>
      </trkpt>
      <trkpt lat="40.061533" lon="-5.549533">
        <ele>1378.0</ele>
        <time>2013-06-30T15:37:40Z</time>
      </trkpt>
      <trkpt lat="40.061483" lon="-5.549617">
        <ele>1378.0</ele>
        <time>2013-06-30T15:37:41Z</time>
      </trkpt>
      <trkpt lat="40.061450" lon="-5.549717">
        <ele>1377.0</ele>
        <time>2013-06-30T15:37:42Z</time>
      </trkpt>
      <trkpt lat="40.061417" lon="-5.549817">
        <ele>1376.0</ele>
        <time>2013-06-30T15:37:43Z</time>
      </trkpt>
      <trkpt lat="40.061383" lon="-5.549933">
        <ele>1374.0</ele>
        <time>2013-06-30T15:37:44Z</time>
      </trkpt>
      <trkpt lat="40.061383" lon="-5.550067">
        <ele>1372.0</ele>
        <time>2013-06-30T15:37:45Z</time>
      </trkpt>
      <trkpt lat="40.061383" lon="-5.550200">
        <ele>1370.0</ele>
        <time>2013-06-30T15:37:46Z</time>
      </trkpt>
      <trkpt lat="40.061383" lon="-5.550300">
        <ele>1369.0</ele>
        <time>2013-06-30T15:37:47Z</time>
      </trkpt>
      <trkpt lat="40.061400" lon="-5.550400">
        <ele>1368.0</ele>
        <time>2013-06-30T15:37:48Z</time>
      </trkpt>
      <trkpt lat="40.061417" lon="-5.550500">
        <ele>1367.0</ele>
        <time>2013-06-30T15:37:49Z</time>
      </trkpt>
      <trkpt lat="40.061450" lon="-5.550600">
        <ele>1365.0</ele>
        <time>2013-06-30T15:37:50Z</time>
      </trkpt>
      <trkpt lat="40.061483" lon="-5.550717">
        <ele>1363.0</ele>
        <time>2013-06-30T15:37:51Z</time>
      </trkpt>
      <trkpt lat="40.061550" lon="-5.550817">
        <ele>1360.0</ele>
        <time>2013-06-30T15:37:52Z</time>
      </trkpt>
      <trkpt lat="40.061633" lon="-5.550883">
        <ele>1358.0</ele>
        <time>2013-06-30T15:37:53Z</time>
      </trkpt>
      <trkpt lat="40.061683" lon="-5.550917">
        <ele>1357.0</ele>
        <time>2013-06-30T15:37:54Z</time>
      </trkpt>
      <trkpt lat="40.061750" lon="-5.550917">
        <ele>1357.0</ele>
        <time>2013-06-30T15:37:55Z</time>
      </trkpt>
      <trkpt lat="40.061817" lon="-5.550917">
        <ele>1357.0</ele>
        <time>2013-06-30T15:37:56Z</time>
      </trkpt>
      <trkpt lat="40.061883" lon="-5.550917">
        <ele>1356.0</ele>
        <time>2013-06-30T15:37:57Z</time>
      </trkpt>
      <trkpt lat="40.061950" lon="-5.550900">
        <ele>1356.0</ele>
        <time>2013-06-30T15:37:58Z</time>
      </trkpt>
      <trkpt lat="40.062000" lon="-5.550883">
        <ele>1356.0</ele>
        <time>2013-06-30T15:37:59Z</time>
      </trkpt>
      <trkpt lat="40.062067" lon="-5.550833">
        <ele>1357.0</ele>
        <time>2013-06-30T15:38:00Z</time>
      </trkpt>
      <trkpt lat="40.062117" lon="-5.550800">
        <ele>1358.0</ele>
        <time>2013-06-30T15:38:01Z</time>
      </trkpt>
      <trkpt lat="40.062150" lon="-5.550750">
        <ele>1359.0</ele>
        <time>2013-06-30T15:38:02Z</time>
      </trkpt>
      <trkpt lat="40.062183" lon="-5.550683">
        <ele>1359.0</ele>
        <time>2013-06-30T15:38:03Z</time>
      </trkpt>
      <trkpt lat="40.062217" lon="-5.550617">
        <ele>1360.0</ele>
        <time>2013-06-30T15:38:04Z</time>
      </trkpt>
      <trkpt lat="40.062233" lon="-5.550533">
        <ele>1361.0</ele>
        <time>2013-06-30T15:38:05Z</time>
      </trkpt>
      <trkpt lat="40.062267" lon="-5.550450">
        <ele>1362.0</ele>
        <time>2013-06-30T15:38:06Z</time>
      </trkpt>
      <trkpt lat="40.062283" lon="-5.550367">
        <ele>1362.0</ele>
        <time>2013-06-30T15:38:07Z</time>
      </trkpt>
      <trkpt lat="40.062283" lon="-5.550283">
        <ele>1363.0</ele>
        <time>2013-06-30T15:38:08Z</time>
      </trkpt>
      <trkpt lat="40.062283" lon="-5.550183">
        <ele>1363.0</ele>
        <time>2013-06-30T15:38:09Z</time>
      </trkpt>
      <trkpt lat="40.062250" lon="-5.550083">
        <ele>1363.0</ele>
        <time>2013-06-30T15:38:10Z</time>
      </trkpt>
      <trkpt lat="40.062183" lon="-5.549983">
        <ele>1363.0</ele>
        <time>2013-06-30T15:38:11Z</time>
      </trkpt>
      <trkpt lat="40.062117" lon="-5.549917">
        <ele>1363.0</ele>
        <time>2013-06-30T15:38:12Z</time>
      </trkpt>
      <trkpt lat="40.062017" lon="-5.549867">
        <ele>1364.0</ele>
        <time>2013-06-30T15:38:13Z</time>
      </trkpt>
      <trkpt lat="40.061917" lon="-5.549867">
        <ele>1364.0</ele>
        <time>2013-06-30T15:38:14Z</time>
      </trkpt>
      <trkpt lat="40.061817" lon="-5.549867">
        <ele>1364.0</ele>
        <time>2013-06-30T15:38:15Z</time>
      </trkpt>
      <trkpt lat="40.061717" lon="-5.549900">
        <ele>1365.0</ele>
        <time>2013-06-30T15:38:16Z</time>
      </trkpt>
      <trkpt lat="40.061633" lon="-5.549950">
        <ele>1365.0</ele>
        <time>2013-06-30T15:38:17Z</time>
      </trkpt>
      <trkpt lat="40.061583" lon="-5.550017">
        <ele>1367.0</ele>
        <time>2013-06-30T15:38:18Z</time>
      </trkpt>
      <trkpt lat="40.061533" lon="-5.550100">
        <ele>1367.0</ele>
        <time>2013-06-30T15:38:19Z</time>
      </trkpt>
      <trkpt lat="40.061483" lon="-5.550200">
        <ele>1366.0</ele>
        <time>2013-06-30T15:38:20Z</time>
      </trkpt>
      <trkpt lat="40.061450" lon="-5.550317">
        <ele>1364.0</ele>
        <time>2013-06-30T15:38:21Z</time>
      </trkpt>
      <trkpt lat="40.061433" lon="-5.550433">
        <ele>1363.0</ele>
        <time>2013-06-30T15:38:22Z</time>
      </trkpt>
      <trkpt lat="40.061433" lon="-5.550550">
        <ele>1362.0</ele>
        <time>2013-06-30T15:38:23Z</time>
      </trkpt>
      <trkpt lat="40.061433" lon="-5.550667">
        <ele>1362.0</ele>
        <time>2013-06-30T15:38:24Z</time>
      </trkpt>
      <trkpt lat="40.061467" lon="-5.550750">
        <ele>1361.0</ele>
        <time>2013-06-30T15:38:25Z</time>
      </trkpt>
      <trkpt lat="40.061500" lon="-5.550833">
        <ele>1361.0</ele>
        <time>2013-06-30T15:38:26Z</time>
      </trkpt>
      <trkpt lat="40.061550" lon="-5.550917">
        <ele>1360.0</ele>
        <time>2013-06-30T15:38:27Z</time>
      </trkpt>
      <trkpt lat="40.061617" lon="-5.550967">
        <ele>1360.0</ele>
        <time>2013-06-30T15:38:28Z</time>
      </trkpt>
      <trkpt lat="40.061683" lon="-5.551000">
        <ele>1359.0</ele>
        <time>2013-06-30T15:38:29Z</time>
      </trkpt>
      <trkpt lat="40.061750" lon="-5.551033">
        <ele>1359.0</ele>
        <time>2013-06-30T15:38:30Z</time>
      </trkpt>
      <trkpt lat="40.061817" lon="-5.551033">
        <ele>1359.0</ele>
        <time>2013-06-30T15:38:31Z</time>
      </trkpt>
      <trkpt lat="40.061867" lon="-5.551033">
        <ele>1360.0</ele>
        <time>2013-06-30T15:38:32Z</time>
      </trkpt>
      <trkpt lat="40.061917" lon="-5.551000">
        <ele>1360.0</ele>
        <time>2013-06-30T15:38:33Z</time>
      </trkpt>
      <trkpt lat="40.061967" lon="-5.550983">
        <ele>1360.0</ele>
        <time>2013-06-30T15:38:34Z</time>
      </trkpt>
      <trkpt lat="40.062033" lon="-5.550950">
        <ele>1360.0</ele>
        <time>2013-06-30T15:38:35Z</time>
      </trkpt>
      <trkpt lat="40.062083" lon="-5.550917">
        <ele>1359.0</ele>
        <time>2013-06-30T15:38:36Z</time>
      </trkpt>
      <trkpt lat="40.062133" lon="-5.550867">
        <ele>1359.0</ele>
        <time>2013-06-30T15:38:37Z</time>
      </trkpt>
      <trkpt lat="40.062183" lon="-5.550817">
        <ele>1358.0</ele>
        <time>2013-06-30T15:38:38Z</time>
      </trkpt>
      <trkpt lat="40.062233" lon="-5.550767">
        <ele>1358.0</ele>
        <time>2013-06-30T15:38:39Z</time>
      </trkpt>
      <trkpt lat="40.062267" lon="-5.550700">
        <ele>1358.0</ele>
        <time>2013-06-30T15:38:40Z</time>
      </trkpt>
      <trkpt lat="40.062283" lon="-5.550617">
        <ele>1358.0</ele>
        <time>2013-06-30T15:38:41Z</time>
      </trkpt>
      <trkpt lat="40.062317" lon="-5.550533">
        <ele>1357.0</ele>
        <time>2013-06-30T15:38:42Z</time>
      </trkpt>
      <trkpt lat="40.062350" lon="-5.550450">
        <ele>1356.0</ele>
        <time>2013-06-30T15:38:43Z</time>
      </trkpt>
      <trkpt lat="40.062383" lon="-5.550367">
        <ele>1356.0</ele>
        <time>2013-06-30T15:38:44Z</time>
      </trkpt>
      <trkpt lat="40.062400" lon="-5.550267">
        <ele>1355.0</ele>
        <time>2013-06-30T15:38:45Z</time>
      </trkpt>
      <trkpt lat="40.062383" lon="-5.550167">
        <ele>1355.0</ele>
        <time>2013-06-30T15:38:46Z</time>
      </trkpt>
      <trkpt lat="40.062367" lon="-5.550067">
        <ele>1355.0</ele>
        <time>2013-06-30T15:38:47Z</time>
      </trkpt>
      <trkpt lat="40.062333" lon="-5.549967">
        <ele>1355.0</ele>
        <time>2013-06-30T15:38:48Z</time>
      </trkpt>
      <trkpt lat="40.062283" lon="-5.549883">
        <ele>1355.0</ele>
        <time>2013-06-30T15:38:49Z</time>
      </trkpt>
      <trkpt lat="40.062233" lon="-5.549800">
        <ele>1355.0</ele>
        <time>2013-06-30T15:38:50Z</time>
      </trkpt>
      <trkpt lat="40.062167" lon="-5.549717">
        <ele>1355.0</ele>
        <time>2013-06-30T15:38:51Z</time>
      </trkpt>
      <trkpt lat="40.062100" lon="-5.549667">
        <ele>1355.0</ele>
        <time>2013-06-30T15:38:52Z</time>
      </trkpt>
      <trkpt lat="40.062000" lon="-5.549617">
        <ele>1354.0</ele>
        <time>2013-06-30T15:38:53Z</time>
      </trkpt>
      <trkpt lat="40.061917" lon="-5.549583">
        <ele>1354.0</ele>
        <time>2013-06-30T15:38:54Z</time>
      </trkpt>
      <trkpt lat="40.061833" lon="-5.549567">
        <ele>1355.0</ele>
        <time>2013-06-30T15:38:55Z</time>
      </trkpt>
      <trkpt lat="40.061750" lon="-5.549567">
        <ele>1355.0</ele>
        <time>2013-06-30T15:38:56Z</time>
      </trkpt>
      <trkpt lat="40.061650" lon="-5.549583">
        <ele>1354.0</ele>
        <time>2013-06-30T15:38:57Z</time>
      </trkpt>
      <trkpt lat="40.061550" lon="-5.549617">
        <ele>1353.0</ele>
        <time>2013-06-30T15:38:58Z</time>
      </trkpt>
      <trkpt lat="40.061467" lon="-5.549667">
        <ele>1351.0</ele>
        <time>2013-06-30T15:38:59Z</time>
      </trkpt>
      <trkpt lat="40.061383" lon="-5.549750">
        <ele>1350.0</ele>
        <time>2013-06-30T15:39:00Z</time>
      </trkpt>
      <trkpt lat="40.061300" lon="-5.549833">
        <ele>1351.0</ele>
        <time>2013-06-30T15:39:01Z</time>
      </trkpt>
      <trkpt lat="40.061267" lon="-5.549933">
        <ele>1352.0</ele>
        <time>2013-06-30T15:39:02Z</time>
      </trkpt>
      <trkpt lat="40.061233" lon="-5.550033">
        <ele>1352.0</ele>
        <time>2013-06-30T15:39:03Z</time>
      </trkpt>
      <trkpt lat="40.061217" lon="-5.550150">
        <ele>1351.0</ele>
        <time>2013-06-30T15:39:04Z</time>
      </trkpt>
      <trkpt lat="40.061200" lon="-5.550267">
        <ele>1349.0</ele>
        <time>2013-06-30T15:39:05Z</time>
      </trkpt>
      <trkpt lat="40.061183" lon="-5.550383">
        <ele>1348.0</ele>
        <time>2013-06-30T15:39:06Z</time>
      </trkpt>
      <trkpt lat="40.061183" lon="-5.550500">
        <ele>1347.0</ele>
        <time>2013-06-30T15:39:07Z</time>
      </trkpt>
      <trkpt lat="40.061183" lon="-5.550617">
        <ele>1347.0</ele>
        <time>2013-06-30T15:39:08Z</time>
      </trkpt>
      <trkpt lat="40.061217" lon="-5.550700">
        <ele>1346.0</ele>
        <time>2013-06-30T15:39:09Z</time>
      </trkpt>
      <trkpt lat="40.061250" lon="-5.550783">
        <ele>1345.0</ele>
        <time>2013-06-30T15:39:10Z</time>
      </trkpt>
      <trkpt lat="40.061317" lon="-5.550850">
        <ele>1345.0</ele>
        <time>2013-06-30T15:39:11Z</time>
      </trkpt>
      <trkpt lat="40.061367" lon="-5.550900">
        <ele>1344.0</ele>
        <time>2013-06-30T15:39:12Z</time>
      </trkpt>
      <trkpt lat="40.061433" lon="-5.550933">
        <ele>1344.0</ele>
        <time>2013-06-30T15:39:13Z</time>
      </trkpt>
      <trkpt lat="40.061483" lon="-5.550967">
        <ele>1343.0</ele>
        <time>2013-06-30T15:39:14Z</time>
      </trkpt>
      <trkpt lat="40.061550" lon="-5.550967">
        <ele>1342.0</ele>
        <time>2013-06-30T15:39:15Z</time>
      </trkpt>
      <trkpt lat="40.061617" lon="-5.550950">
        <ele>1341.0</ele>
        <time>2013-06-30T15:39:16Z</time>
      </trkpt>
      <trkpt lat="40.061733" lon="-5.550850">
        <ele>1339.0</ele>
        <time>2013-06-30T15:39:18Z</time>
      </trkpt>
      <trkpt lat="40.061767" lon="-5.550800">
        <ele>1338.0</ele>
        <time>2013-06-30T15:39:19Z</time>
      </trkpt>
      <trkpt lat="40.061800" lon="-5.550750">
        <ele>1338.0</ele>
        <time>2013-06-30T15:39:20Z</time>
      </trkpt>
      <trkpt lat="40.061833" lon="-5.550683">
        <ele>1337.0</ele>
        <time>2013-06-30T15:39:21Z</time>
      </trkpt>
      <trkpt lat="40.061850" lon="-5.550583">
        <ele>1336.0</ele>
        <time>2013-06-30T15:39:22Z</time>
      </trkpt>
      <trkpt lat="40.061850" lon="-5.550483">
        <ele>1336.0</ele>
        <time>2013-06-30T15:39:23Z</time>
      </trkpt>
      <trkpt lat="40.061833" lon="-5.550383">
        <ele>1336.0</ele>
        <time>2013-06-30T15:39:24Z</time>
      </trkpt>
      <trkpt lat="40.061800" lon="-5.550283">
        <ele>1336.0</ele>
        <time>2013-06-30T15:39:25Z</time>
      </trkpt>
      <trkpt lat="40.061750" lon="-5.550217">
        <ele>1337.0</ele>
        <time>2013-06-30T15:39:26Z</time>
      </trkpt>
      <trkpt lat="40.061717" lon="-5.550133">
        <ele>1337.0</ele>
        <time>2013-06-30T15:39:27Z</time>
      </trkpt>
      <trkpt lat="40.061650" lon="-5.550067">
        <ele>1336.0</ele>
        <time>2013-06-30T15:39:28Z</time>
      </trkpt>
      <trkpt lat="40.061583" lon="-5.549983">
        <ele>1335.0</ele>
        <time>2013-06-30T15:39:29Z</time>
      </trkpt>
      <trkpt lat="40.061500" lon="-5.549917">
        <ele>1334.0</ele>
        <time>2013-06-30T15:39:30Z</time>
      </trkpt>
      <trkpt lat="40.061400" lon="-5.549867">
        <ele>1333.0</ele>
        <time>2013-06-30T15:39:31Z</time>
      </trkpt>
      <trkpt lat="40.061300" lon="-5.549850">
        <ele>1333.0</ele>
        <time>2013-06-30T15:39:32Z</time>
      </trkpt>
      <trkpt lat="40.061200" lon="-5.549850">
        <ele>1332.0</ele>
        <time>2013-06-30T15:39:33Z</time>
      </trkpt>
      <trkpt lat="40.061100" lon="-5.549850">
        <ele>1332.0</ele>
        <time>2013-06-30T15:39:34Z</time>
      </trkpt>
      <trkpt lat="40.061017" lon="-5.549883">
        <ele>1332.0</ele>
        <time>2013-06-30T15:39:35Z</time>
      </trkpt>
      <trkpt lat="40.060933" lon="-5.549917">
        <ele>1331.0</ele>
        <time>2013-06-30T15:39:36Z</time>
      </trkpt>
      <trkpt lat="40.060850" lon="-5.549950">
        <ele>1331.0</ele>
        <time>2013-06-30T15:39:37Z</time>
      </trkpt>
      <trkpt lat="40.060767" lon="-5.550017">
        <ele>1330.0</ele>
        <time>2013-06-30T15:39:38Z</time>
      </trkpt>
      <trkpt lat="40.060683" lon="-5.550083">
        <ele>1328.0</ele>
        <time>2013-06-30T15:39:39Z</time>
      </trkpt>
      <trkpt lat="40.060617" lon="-5.550167">
        <ele>1326.0</ele>
        <time>2013-06-30T15:39:40Z</time>
      </trkpt>
      <trkpt lat="40.060550" lon="-5.550267">
        <ele>1324.0</ele>
        <time>2013-06-30T15:39:41Z</time>
      </trkpt>
      <trkpt lat="40.060483" lon="-5.550350">
        <ele>1322.0</ele>
        <time>2013-06-30T15:39:42Z</time>
      </trkpt>
      <trkpt lat="40.060417" lon="-5.550450">
        <ele>1320.0</ele>
        <time>2013-06-30T15:39:43Z</time>
      </trkpt>
      <trkpt lat="40.060367" lon="-5.550550">
        <ele>1318.0</ele>
        <time>2013-06-30T15:39:44Z</time>
      </trkpt>
      <trkpt lat="40.060317" lon="-5.550667">
        <ele>1316.0</ele>
        <time>2013-06-30T15:39:45Z</time>
      </trkpt>
      <trkpt lat="40.060250" lon="-5.550767">
        <ele>1314.0</ele>
        <time>2013-06-30T15:39:46Z</time>
      </trkpt>
      <trkpt lat="40.060200" lon="-5.550883">
        <ele>1311.0</ele>
        <time>2013-06-30T15:39:47Z</time>
      </trkpt>
      <trkpt lat="40.060150" lon="-5.550983">
        <ele>1309.0</ele>
        <time>2013-06-30T15:39:48Z</time>
      </trkpt>
      <trkpt lat="40.060117" lon="-5.551100">
        <ele>1306.0</ele>
        <time>2013-06-30T15:39:49Z</time>
      </trkpt>
      <trkpt lat="40.060067" lon="-5.551217">
        <ele>1304.0</ele>
        <time>2013-06-30T15:39:50Z</time>
      </trkpt>
      <trkpt lat="40.060017" lon="-5.551333">
        <ele>1302.0</ele>
        <time>2013-06-30T15:39:51Z</time>
      </trkpt>
      <trkpt lat="40.059967" lon="-5.551450">
        <ele>1299.0</ele>
        <time>2013-06-30T15:39:52Z</time>
      </trkpt>
      <trkpt lat="40.059917" lon="-5.551567">
        <ele>1297.0</ele>
        <time>2013-06-30T15:39:53Z</time>
      </trkpt>
      <trkpt lat="40.059883" lon="-5.551667">
        <ele>1295.0</ele>
        <time>2013-06-30T15:39:54Z</time>
      </trkpt>
      <trkpt lat="40.059833" lon="-5.551783">
        <ele>1293.0</ele>
        <time>2013-06-30T15:39:55Z</time>
      </trkpt>
      <trkpt lat="40.059783" lon="-5.551917">
        <ele>1291.0</ele>
        <time>2013-06-30T15:39:56Z</time>
      </trkpt>
      <trkpt lat="40.059750" lon="-5.552033">
        <ele>1289.0</ele>
        <time>2013-06-30T15:39:57Z</time>
      </trkpt>
      <trkpt lat="40.059717" lon="-5.552150">
        <ele>1287.0</ele>
        <time>2013-06-30T15:39:58Z</time>
      </trkpt>
      <trkpt lat="40.059667" lon="-5.552267">
        <ele>1285.0</ele>
        <time>2013-06-30T15:39:59Z</time>
      </trkpt>
      <trkpt lat="40.059633" lon="-5.552383">
        <ele>1283.0</ele>
        <time>2013-06-30T15:40:00Z</time>
      </trkpt>
      <trkpt lat="40.059600" lon="-5.552500">
        <ele>1282.0</ele>
        <time>2013-06-30T15:40:01Z</time>
      </trkpt>
      <trkpt lat="40.059550" lon="-5.552617">
        <ele>1280.0</ele>
        <time>2013-06-30T15:40:02Z</time>
      </trkpt>
      <trkpt lat="40.059500" lon="-5.552750">
        <ele>1278.0</ele>
        <time>2013-06-30T15:40:03Z</time>
      </trkpt>
      <trkpt lat="40.059450" lon="-5.552867">
        <ele>1275.0</ele>
        <time>2013-06-30T15:40:04Z</time>
      </trkpt>
      <trkpt lat="40.059400" lon="-5.552983">
        <ele>1273.0</ele>
        <time>2013-06-30T15:40:05Z</time>
      </trkpt>
      <trkpt lat="40.059350" lon="-5.553100">
        <ele>1271.0</ele>
        <time>2013-06-30T15:40:06Z</time>
      </trkpt>
      <trkpt lat="40.059317" lon="-5.553217">
        <ele>1269.0</ele>
        <time>2013-06-30T15:40:07Z</time>
      </trkpt>
      <trkpt lat="40.059267" lon="-5.553333">
        <ele>1267.0</ele>
        <time>2013-06-30T15:40:08Z</time>
      </trkpt>
      <trkpt lat="40.059217" lon="-5.553450">
        <ele>1266.0</ele>
        <time>2013-06-30T15:40:09Z</time>
      </trkpt>
      <trkpt lat="40.059167" lon="-5.553567">
        <ele>1264.0</ele>
        <time>2013-06-30T15:40:10Z</time>
      </trkpt>
      <trkpt lat="40.059117" lon="-5.553683">
        <ele>1263.0</ele>
        <time>2013-06-30T15:40:11Z</time>
      </trkpt>
      <trkpt lat="40.059083" lon="-5.553783">
        <ele>1261.0</ele>
        <time>2013-06-30T15:40:12Z</time>
      </trkpt>
      <trkpt lat="40.059033" lon="-5.553900">
        <ele>1260.0</ele>
        <time>2013-06-30T15:40:13Z</time>
      </trkpt>
      <trkpt lat="40.059000" lon="-5.554017">
        <ele>1258.0</ele>
        <time>2013-06-30T15:40:14Z</time>
      </trkpt>
      <trkpt lat="40.058950" lon="-5.554133">
        <ele>1256.0</ele>
        <time>2013-06-30T15:40:15Z</time>
      </trkpt>
      <trkpt lat="40.058917" lon="-5.554250">
        <ele>1255.0</ele>
        <time>2013-06-30T15:40:16Z</time>
      </trkpt>
      <trkpt lat="40.058867" lon="-5.554383">
        <ele>1254.0</ele>
        <time>2013-06-30T15:40:17Z</time>
      </trkpt>
      <trkpt lat="40.058833" lon="-5.554500">
        <ele>1252.0</ele>
        <time>2013-06-30T15:40:18Z</time>
      </trkpt>
      <trkpt lat="40.058783" lon="-5.554617">
        <ele>1251.0</ele>
        <time>2013-06-30T15:40:19Z</time>
      </trkpt>
      <trkpt lat="40.058750" lon="-5.554750">
        <ele>1249.0</ele>
        <time>2013-06-30T15:40:20Z</time>
      </trkpt>
      <trkpt lat="40.058700" lon="-5.554883">
        <ele>1247.0</ele>
        <time>2013-06-30T15:40:21Z</time>
      </trkpt>
      <trkpt lat="40.058650" lon="-5.555017">
        <ele>1246.0</ele>
        <time>2013-06-30T15:40:22Z</time>
      </trkpt>
      <trkpt lat="40.058617" lon="-5.555150">
        <ele>1244.0</ele>
        <time>2013-06-30T15:40:23Z</time>
      </trkpt>
      <trkpt lat="40.058583" lon="-5.555267">
        <ele>1243.0</ele>
        <time>2013-06-30T15:40:24Z</time>
      </trkpt>
      <trkpt lat="40.058533" lon="-5.555400">
        <ele>1241.0</ele>
        <time>2013-06-30T15:40:25Z</time>
      </trkpt>
      <trkpt lat="40.058500" lon="-5.555533">
        <ele>1239.0</ele>
        <time>2013-06-30T15:40:26Z</time>
      </trkpt>
      <trkpt lat="40.058450" lon="-5.555667">
        <ele>1238.0</ele>
        <time>2013-06-30T15:40:27Z</time>
      </trkpt>
      <trkpt lat="40.058417" lon="-5.555800">
        <ele>1236.0</ele>
        <time>2013-06-30T15:40:28Z</time>
      </trkpt>
      <trkpt lat="40.058383" lon="-5.555933">
        <ele>1235.0</ele>
        <time>2013-06-30T15:40:29Z</time>
      </trkpt>
      <trkpt lat="40.058333" lon="-5.556067">
        <ele>1233.0</ele>
        <time>2013-06-30T15:40:30Z</time>
      </trkpt>
      <trkpt lat="40.058300" lon="-5.556200">
        <ele>1232.0</ele>
        <time>2013-06-30T15:40:31Z</time>
      </trkpt>
      <trkpt lat="40.058267" lon="-5.556317">
        <ele>1230.0</ele>
        <time>2013-06-30T15:40:32Z</time>
      </trkpt>
      <trkpt lat="40.058233" lon="-5.556450">
        <ele>1229.0</ele>
        <time>2013-06-30T15:40:33Z</time>
      </trkpt>
      <trkpt lat="40.058200" lon="-5.556583">
        <ele>1228.0</ele>
        <time>2013-06-30T15:40:34Z</time>
      </trkpt>
      <trkpt lat="40.058167" lon="-5.556717">
        <ele>1226.0</ele>
        <time>2013-06-30T15:40:35Z</time>
      </trkpt>
      <trkpt lat="40.058133" lon="-5.556850">
        <ele>1224.0</ele>
        <time>2013-06-30T15:40:36Z</time>
      </trkpt>
      <trkpt lat="40.058083" lon="-5.556983">
        <ele>1222.0</ele>
        <time>2013-06-30T15:40:37Z</time>
      </trkpt>
      <trkpt lat="40.058067" lon="-5.557100">
        <ele>1220.0</ele>
        <time>2013-06-30T15:40:38Z</time>
      </trkpt>
      <trkpt lat="40.058033" lon="-5.557233">
        <ele>1219.0</ele>
        <time>2013-06-30T15:40:39Z</time>
      </trkpt>
      <trkpt lat="40.058000" lon="-5.557350">
        <ele>1217.0</ele>
        <time>2013-06-30T15:40:40Z</time>
      </trkpt>
      <trkpt lat="40.057967" lon="-5.557483">
        <ele>1216.0</ele>
        <time>2013-06-30T15:40:41Z</time>
      </trkpt>
      <trkpt lat="40.057933" lon="-5.557617">
        <ele>1214.0</ele>
        <time>2013-06-30T15:40:42Z</time>
      </trkpt>
      <trkpt lat="40.057900" lon="-5.557750">
        <ele>1212.0</ele>
        <time>2013-06-30T15:40:43Z</time>
      </trkpt>
      <trkpt lat="40.057867" lon="-5.557883">
        <ele>1210.0</ele>
        <time>2013-06-30T15:40:44Z</time>
      </trkpt>
      <trkpt lat="40.057833" lon="-5.558017">
        <ele>1208.0</ele>
        <time>2013-06-30T15:40:45Z</time>
      </trkpt>
      <trkpt lat="40.057800" lon="-5.558133">
        <ele>1207.0</ele>
        <time>2013-06-30T15:40:46Z</time>
      </trkpt>
      <trkpt lat="40.057767" lon="-5.558233">
        <ele>1206.0</ele>
        <time>2013-06-30T15:40:47Z</time>
      </trkpt>
      <trkpt lat="40.057733" lon="-5.558367">
        <ele>1204.0</ele>
        <time>2013-06-30T15:40:48Z</time>
      </trkpt>
      <trkpt lat="40.057700" lon="-5.558500">
        <ele>1202.0</ele>
        <time>2013-06-30T15:40:49Z</time>
      </trkpt>
      <trkpt lat="40.057650" lon="-5.558633">
        <ele>1200.0</ele>
        <time>2013-06-30T15:40:50Z</time>
      </trkpt>
      <trkpt lat="40.057617" lon="-5.558750">
        <ele>1199.0</ele>
        <time>2013-06-30T15:40:51Z</time>
      </trkpt>
      <trkpt lat="40.057583" lon="-5.558867">
        <ele>1198.0</ele>
        <time>2013-06-30T15:40:52Z</time>
      </trkpt>
      <trkpt lat="40.057567" lon="-5.558983">
        <ele>1198.0</ele>
        <time>2013-06-30T15:40:53Z</time>
      </trkpt>
      <trkpt lat="40.057533" lon="-5.559100">
        <ele>1197.0</ele>
        <time>2013-06-30T15:40:54Z</time>
      </trkpt>
      <trkpt lat="40.057500" lon="-5.559233">
        <ele>1195.0</ele>
        <time>2013-06-30T15:40:55Z</time>
      </trkpt>
      <trkpt lat="40.057467" lon="-5.559383">
        <ele>1193.0</ele>
        <time>2013-06-30T15:40:56Z</time>
      </trkpt>
      <trkpt lat="40.057433" lon="-5.559517">
        <ele>1191.0</ele>
        <time>2013-06-30T15:40:57Z</time>
      </trkpt>
      <trkpt lat="40.057400" lon="-5.559650">
        <ele>1190.0</ele>
        <time>2013-06-30T15:40:58Z</time>
      </trkpt>
      <trkpt lat="40.057367" lon="-5.559767">
        <ele>1190.0</ele>
        <time>2013-06-30T15:40:59Z</time>
      </trkpt>
      <trkpt lat="40.057350" lon="-5.559883">
        <ele>1189.0</ele>
        <time>2013-06-30T15:41:00Z</time>
      </trkpt>
      <trkpt lat="40.057317" lon="-5.560017">
        <ele>1187.0</ele>
        <time>2013-06-30T15:41:01Z</time>
      </trkpt>
      <trkpt lat="40.057267" lon="-5.560150">
        <ele>1185.0</ele>
        <time>2013-06-30T15:41:02Z</time>
      </trkpt>
      <trkpt lat="40.057233" lon="-5.560300">
        <ele>1183.0</ele>
        <time>2013-06-30T15:41:03Z</time>
      </trkpt>
      <trkpt lat="40.057200" lon="-5.560433">
        <ele>1182.0</ele>
        <time>2013-06-30T15:41:04Z</time>
      </trkpt>
      <trkpt lat="40.057150" lon="-5.560550">
        <ele>1182.0</ele>
        <time>2013-06-30T15:41:05Z</time>
      </trkpt>
      <trkpt lat="40.057117" lon="-5.560667">
        <ele>1181.0</ele>
        <time>2013-06-30T15:41:06Z</time>
      </trkpt>
      <trkpt lat="40.057083" lon="-5.560783">
        <ele>1180.0</ele>
        <time>2013-06-30T15:41:07Z</time>
      </trkpt>
      <trkpt lat="40.057033" lon="-5.560900">
        <ele>1179.0</ele>
        <time>2013-06-30T15:41:08Z</time>
      </trkpt>
      <trkpt lat="40.056983" lon="-5.561033">
        <ele>1178.0</ele>
        <time>2013-06-30T15:41:09Z</time>
      </trkpt>
      <trkpt lat="40.056950" lon="-5.561167">
        <ele>1177.0</ele>
        <time>2013-06-30T15:41:10Z</time>
      </trkpt>
      <trkpt lat="40.056900" lon="-5.561283">
        <ele>1176.0</ele>
        <time>2013-06-30T15:41:11Z</time>
      </trkpt>
      <trkpt lat="40.056867" lon="-5.561400">
        <ele>1175.0</ele>
        <time>2013-06-30T15:41:12Z</time>
      </trkpt>
      <trkpt lat="40.056817" lon="-5.561517">
        <ele>1175.0</ele>
        <time>2013-06-30T15:41:13Z</time>
      </trkpt>
      <trkpt lat="40.056767" lon="-5.561650">
        <ele>1174.0</ele>
        <time>2013-06-30T15:41:14Z</time>
      </trkpt>
      <trkpt lat="40.056717" lon="-5.561767">
        <ele>1173.0</ele>
        <time>2013-06-30T15:41:15Z</time>
      </trkpt>
      <trkpt lat="40.056667" lon="-5.561900">
        <ele>1171.0</ele>
        <time>2013-06-30T15:41:16Z</time>
      </trkpt>
      <trkpt lat="40.056633" lon="-5.562017">
        <ele>1170.0</ele>
        <time>2013-06-30T15:41:17Z</time>
      </trkpt>
      <trkpt lat="40.056583" lon="-5.562150">
        <ele>1170.0</ele>
        <time>2013-06-30T15:41:18Z</time>
      </trkpt>
      <trkpt lat="40.056533" lon="-5.562267">
        <ele>1169.0</ele>
        <time>2013-06-30T15:41:19Z</time>
      </trkpt>
      <trkpt lat="40.056483" lon="-5.562383">
        <ele>1168.0</ele>
        <time>2013-06-30T15:41:20Z</time>
      </trkpt>
      <trkpt lat="40.056433" lon="-5.562517">
        <ele>1167.0</ele>
        <time>2013-06-30T15:41:21Z</time>
      </trkpt>
      <trkpt lat="40.056383" lon="-5.562633">
        <ele>1166.0</ele>
        <time>2013-06-30T15:41:22Z</time>
      </trkpt>
      <trkpt lat="40.056317" lon="-5.562750">
        <ele>1165.0</ele>
        <time>2013-06-30T15:41:23Z</time>
      </trkpt>
      <trkpt lat="40.056267" lon="-5.562867">
        <ele>1165.0</ele>
        <time>2013-06-30T15:41:24Z</time>
      </trkpt>
      <trkpt lat="40.056200" lon="-5.562983">
        <ele>1164.0</ele>
        <time>2013-06-30T15:41:25Z</time>
      </trkpt>
      <trkpt lat="40.056133" lon="-5.563100">
        <ele>1163.0</ele>
        <time>2013-06-30T15:41:26Z</time>
      </trkpt>
      <trkpt lat="40.056067" lon="-5.563200">
        <ele>1162.0</ele>
        <time>2013-06-30T15:41:27Z</time>
      </trkpt>
      <trkpt lat="40.056017" lon="-5.563317">
        <ele>1162.0</ele>
        <time>2013-06-30T15:41:28Z</time>
      </trkpt>
      <trkpt lat="40.055950" lon="-5.563417">
        <ele>1161.0</ele>
        <time>2013-06-30T15:41:29Z</time>
      </trkpt>
      <trkpt lat="40.055883" lon="-5.563533">
        <ele>1160.0</ele>
        <time>2013-06-30T15:41:30Z</time>
      </trkpt>
      <trkpt lat="40.055833" lon="-5.563650">
        <ele>1159.0</ele>
        <time>2013-06-30T15:41:31Z</time>
      </trkpt>
      <trkpt lat="40.055783" lon="-5.563767">
        <ele>1158.0</ele>
        <time>2013-06-30T15:41:32Z</time>
      </trkpt>
      <trkpt lat="40.055733" lon="-5.563883">
        <ele>1157.0</ele>
        <time>2013-06-30T15:41:33Z</time>
      </trkpt>
      <trkpt lat="40.055683" lon="-5.564017">
        <ele>1156.0</ele>
        <time>2013-06-30T15:41:34Z</time>
      </trkpt>
      <trkpt lat="40.055633" lon="-5.564133">
        <ele>1155.0</ele>
        <time>2013-06-30T15:41:35Z</time>
      </trkpt>
      <trkpt lat="40.055583" lon="-5.564250">
        <ele>1154.0</ele>
        <time>2013-06-30T15:41:36Z</time>
      </trkpt>
      <trkpt lat="40.055533" lon="-5.564350">
        <ele>1153.0</ele>
        <time>2013-06-30T15:41:37Z</time>
      </trkpt>
      <trkpt lat="40.055483" lon="-5.564467">
        <ele>1151.0</ele>
        <time>2013-06-30T15:41:38Z</time>
      </trkpt>
      <trkpt lat="40.055417" lon="-5.564567">
        <ele>1150.0</ele>
        <time>2013-06-30T15:41:39Z</time>
      </trkpt>
      <trkpt lat="40.055367" lon="-5.564683">
        <ele>1149.0</ele>
        <time>2013-06-30T15:41:40Z</time>
      </trkpt>
      <trkpt lat="40.055317" lon="-5.564783">
        <ele>1148.0</ele>
        <time>2013-06-30T15:41:41Z</time>
      </trkpt>
      <trkpt lat="40.055267" lon="-5.564900">
        <ele>1147.0</ele>
        <time>2013-06-30T15:41:42Z</time>
      </trkpt>
      <trkpt lat="40.055200" lon="-5.565000">
        <ele>1146.0</ele>
        <time>2013-06-30T15:41:43Z</time>
      </trkpt>
      <trkpt lat="40.055150" lon="-5.565100">
        <ele>1146.0</ele>
        <time>2013-06-30T15:41:44Z</time>
      </trkpt>
      <trkpt lat="40.055100" lon="-5.565200">
        <ele>1145.0</ele>
        <time>2013-06-30T15:41:45Z</time>
      </trkpt>
      <trkpt lat="40.055050" lon="-5.565300">
        <ele>1143.0</ele>
        <time>2013-06-30T15:41:46Z</time>
      </trkpt>
      <trkpt lat="40.055000" lon="-5.565400">
        <ele>1142.0</ele>
        <time>2013-06-30T15:41:47Z</time>
      </trkpt>
      <trkpt lat="40.054933" lon="-5.565500">
        <ele>1140.0</ele>
        <time>2013-06-30T15:41:48Z</time>
      </trkpt>
      <trkpt lat="40.054883" lon="-5.565600">
        <ele>1139.0</ele>
        <time>2013-06-30T15:41:49Z</time>
      </trkpt>
      <trkpt lat="40.054833" lon="-5.565700">
        <ele>1138.0</ele>
        <time>2013-06-30T15:41:50Z</time>
      </trkpt>
      <trkpt lat="40.054783" lon="-5.565800">
        <ele>1137.0</ele>
        <time>2013-06-30T15:41:51Z</time>
      </trkpt>
      <trkpt lat="40.054750" lon="-5.565900">
        <ele>1137.0</ele>
        <time>2013-06-30T15:41:52Z</time>
      </trkpt>
      <trkpt lat="40.054700" lon="-5.566000">
        <ele>1136.0</ele>
        <time>2013-06-30T15:41:53Z</time>
      </trkpt>
      <trkpt lat="40.054650" lon="-5.566117">
        <ele>1135.0</ele>
        <time>2013-06-30T15:41:54Z</time>
      </trkpt>
      <trkpt lat="40.054583" lon="-5.566217">
        <ele>1134.0</ele>
        <time>2013-06-30T15:41:55Z</time>
      </trkpt>
      <trkpt lat="40.054533" lon="-5.566317">
        <ele>1134.0</ele>
        <time>2013-06-30T15:41:56Z</time>
      </trkpt>
      <trkpt lat="40.054467" lon="-5.566417">
        <ele>1133.0</ele>
        <time>2013-06-30T15:41:57Z</time>
      </trkpt>
      <trkpt lat="40.054400" lon="-5.566517">
        <ele>1133.0</ele>
        <time>2013-06-30T15:41:58Z</time>
      </trkpt>
      <trkpt lat="40.054333" lon="-5.566617">
        <ele>1133.0</ele>
        <time>2013-06-30T15:41:59Z</time>
      </trkpt>
      <trkpt lat="40.054283" lon="-5.566717">
        <ele>1133.0</ele>
        <time>2013-06-30T15:42:00Z</time>
      </trkpt>
      <trkpt lat="40.054233" lon="-5.566833">
        <ele>1133.0</ele>
        <time>2013-06-30T15:42:01Z</time>
      </trkpt>
      <trkpt lat="40.054183" lon="-5.566933">
        <ele>1132.0</ele>
        <time>2013-06-30T15:42:02Z</time>
      </trkpt>
      <trkpt lat="40.054117" lon="-5.567033">
        <ele>1131.0</ele>
        <time>2013-06-30T15:42:03Z</time>
      </trkpt>
      <trkpt lat="40.054050" lon="-5.567133">
        <ele>1131.0</ele>
        <time>2013-06-30T15:42:04Z</time>
      </trkpt>
      <trkpt lat="40.054000" lon="-5.567250">
        <ele>1131.0</ele>
        <time>2013-06-30T15:42:05Z</time>
      </trkpt>
      <trkpt lat="40.053950" lon="-5.567350">
        <ele>1131.0</ele>
        <time>2013-06-30T15:42:06Z</time>
      </trkpt>
      <trkpt lat="40.053900" lon="-5.567450">
        <ele>1132.0</ele>
        <time>2013-06-30T15:42:07Z</time>
      </trkpt>
      <trkpt lat="40.053850" lon="-5.567567">
        <ele>1132.0</ele>
        <time>2013-06-30T15:42:08Z</time>
      </trkpt>
      <trkpt lat="40.053817" lon="-5.567667">
        <ele>1132.0</ele>
        <time>2013-06-30T15:42:09Z</time>
      </trkpt>
      <trkpt lat="40.053750" lon="-5.567767">
        <ele>1132.0</ele>
        <time>2013-06-30T15:42:10Z</time>
      </trkpt>
      <trkpt lat="40.053700" lon="-5.567883">
        <ele>1132.0</ele>
        <time>2013-06-30T15:42:11Z</time>
      </trkpt>
      <trkpt lat="40.053650" lon="-5.567983">
        <ele>1132.0</ele>
        <time>2013-06-30T15:42:12Z</time>
      </trkpt>
      <trkpt lat="40.053600" lon="-5.568100">
        <ele>1132.0</ele>
        <time>2013-06-30T15:42:13Z</time>
      </trkpt>
      <trkpt lat="40.053550" lon="-5.568200">
        <ele>1132.0</ele>
        <time>2013-06-30T15:42:14Z</time>
      </trkpt>
      <trkpt lat="40.053517" lon="-5.568300">
        <ele>1132.0</ele>
        <time>2013-06-30T15:42:15Z</time>
      </trkpt>
      <trkpt lat="40.053450" lon="-5.568417">
        <ele>1131.0</ele>
        <time>2013-06-30T15:42:16Z</time>
      </trkpt>
      <trkpt lat="40.053400" lon="-5.568517">
        <ele>1131.0</ele>
        <time>2013-06-30T15:42:17Z</time>
      </trkpt>
      <trkpt lat="40.053333" lon="-5.568633">
        <ele>1130.0</ele>
        <time>2013-06-30T15:42:18Z</time>
      </trkpt>
      <trkpt lat="40.053283" lon="-5.568733">
        <ele>1128.0</ele>
        <time>2013-06-30T15:42:19Z</time>
      </trkpt>
      <trkpt lat="40.053217" lon="-5.568850">
        <ele>1127.0</ele>
        <time>2013-06-30T15:42:20Z</time>
      </trkpt>
      <trkpt lat="40.053167" lon="-5.568967">
        <ele>1126.0</ele>
        <time>2013-06-30T15:42:21Z</time>
      </trkpt>
      <trkpt lat="40.053117" lon="-5.569067">
        <ele>1125.0</ele>
        <time>2013-06-30T15:42:22Z</time>
      </trkpt>
      <trkpt lat="40.053050" lon="-5.569267">
        <ele>1123.0</ele>
        <time>2013-06-30T15:42:24Z</time>
      </trkpt>
      <trkpt lat="40.053000" lon="-5.569367">
        <ele>1122.0</ele>
        <time>2013-06-30T15:42:25Z</time>
      </trkpt>
      <trkpt lat="40.052967" lon="-5.569483">
        <ele>1121.0</ele>
        <time>2013-06-30T15:42:26Z</time>
      </trkpt>
      <trkpt lat="40.052933" lon="-5.569583">
        <ele>1120.0</ele>
        <time>2013-06-30T15:42:27Z</time>
      </trkpt>
      <trkpt lat="40.052883" lon="-5.569683">
        <ele>1118.0</ele>
        <time>2013-06-30T15:42:28Z</time>
      </trkpt>
      <trkpt lat="40.052817" lon="-5.569883">
        <ele>1116.0</ele>
        <time>2013-06-30T15:42:30Z</time>
      </trkpt>
      <trkpt lat="40.052783" lon="-5.570000">
        <ele>1114.0</ele>
        <time>2013-06-30T15:42:31Z</time>
      </trkpt>
      <trkpt lat="40.052733" lon="-5.570100">
        <ele>1112.0</ele>
        <time>2013-06-30T15:42:32Z</time>
      </trkpt>
      <trkpt lat="40.052683" lon="-5.570200">
        <ele>1111.0</ele>
        <time>2013-06-30T15:42:33Z</time>
      </trkpt>
      <trkpt lat="40.052650" lon="-5.570300">
        <ele>1109.0</ele>
        <time>2013-06-30T15:42:34Z</time>
      </trkpt>
      <trkpt lat="40.052600" lon="-5.570400">
        <ele>1108.0</ele>
        <time>2013-06-30T15:42:35Z</time>
      </trkpt>
      <trkpt lat="40.052567" lon="-5.570500">
        <ele>1107.0</ele>
        <time>2013-06-30T15:42:36Z</time>
      </trkpt>
      <trkpt lat="40.052517" lon="-5.570600">
        <ele>1105.0</ele>
        <time>2013-06-30T15:42:37Z</time>
      </trkpt>
      <trkpt lat="40.052467" lon="-5.570717">
        <ele>1103.0</ele>
        <time>2013-06-30T15:42:38Z</time>
      </trkpt>
      <trkpt lat="40.052417" lon="-5.570817">
        <ele>1102.0</ele>
        <time>2013-06-30T15:42:39Z</time>
      </trkpt>
      <trkpt lat="40.052383" lon="-5.570933">
        <ele>1100.0</ele>
        <time>2013-06-30T15:42:40Z</time>
      </trkpt>
      <trkpt lat="40.052350" lon="-5.571017">
        <ele>1100.0</ele>
        <time>2013-06-30T15:42:41Z</time>
      </trkpt>
      <trkpt lat="40.052317" lon="-5.571117">
        <ele>1099.0</ele>
        <time>2013-06-30T15:42:42Z</time>
      </trkpt>
      <trkpt lat="40.052283" lon="-5.571217">
        <ele>1098.0</ele>
        <time>2013-06-30T15:42:43Z</time>
      </trkpt>
      <trkpt lat="40.052250" lon="-5.571333">
        <ele>1097.0</ele>
        <time>2013-06-30T15:42:44Z</time>
      </trkpt>
      <trkpt lat="40.052200" lon="-5.571433">
        <ele>1095.0</ele>
        <time>2013-06-30T15:42:45Z</time>
      </trkpt>
      <trkpt lat="40.052167" lon="-5.571550">
        <ele>1094.0</ele>
        <time>2013-06-30T15:42:46Z</time>
      </trkpt>
      <trkpt lat="40.052133" lon="-5.571650">
        <ele>1093.0</ele>
        <time>2013-06-30T15:42:47Z</time>
      </trkpt>
      <trkpt lat="40.052083" lon="-5.571767">
        <ele>1092.0</ele>
        <time>2013-06-30T15:42:48Z</time>
      </trkpt>
      <trkpt lat="40.052050" lon="-5.571867">
        <ele>1091.0</ele>
        <time>2013-06-30T15:42:49Z</time>
      </trkpt>
      <trkpt lat="40.052000" lon="-5.571967">
        <ele>1090.0</ele>
        <time>2013-06-30T15:42:50Z</time>
      </trkpt>
      <trkpt lat="40.051950" lon="-5.572067">
        <ele>1088.0</ele>
        <time>2013-06-30T15:42:51Z</time>
      </trkpt>
      <trkpt lat="40.051900" lon="-5.572167">
        <ele>1087.0</ele>
        <time>2013-06-30T15:42:52Z</time>
      </trkpt>
      <trkpt lat="40.051850" lon="-5.572267">
        <ele>1086.0</ele>
        <time>2013-06-30T15:42:53Z</time>
      </trkpt>
      <trkpt lat="40.051817" lon="-5.572367">
        <ele>1085.0</ele>
        <time>2013-06-30T15:42:54Z</time>
      </trkpt>
      <trkpt lat="40.051733" lon="-5.572600">
        <ele>1082.0</ele>
        <time>2013-06-30T15:42:56Z</time>
      </trkpt>
      <trkpt lat="40.051700" lon="-5.572717">
        <ele>1081.0</ele>
        <time>2013-06-30T15:42:57Z</time>
      </trkpt>
      <trkpt lat="40.051667" lon="-5.572833">
        <ele>1079.0</ele>
        <time>2013-06-30T15:42:58Z</time>
      </trkpt>
      <trkpt lat="40.051617" lon="-5.572950">
        <ele>1078.0</ele>
        <time>2013-06-30T15:42:59Z</time>
      </trkpt>
      <trkpt lat="40.051567" lon="-5.573050">
        <ele>1075.0</ele>
        <time>2013-06-30T15:43:00Z</time>
      </trkpt>
      <trkpt lat="40.051500" lon="-5.573167">
        <ele>1073.0</ele>
        <time>2013-06-30T15:43:01Z</time>
      </trkpt>
      <trkpt lat="40.051450" lon="-5.573283">
        <ele>1072.0</ele>
        <time>2013-06-30T15:43:02Z</time>
      </trkpt>
      <trkpt lat="40.051383" lon="-5.573383">
        <ele>1070.0</ele>
        <time>2013-06-30T15:43:03Z</time>
      </trkpt>
      <trkpt lat="40.051350" lon="-5.573483">
        <ele>1068.0</ele>
        <time>2013-06-30T15:43:04Z</time>
      </trkpt>
      <trkpt lat="40.051300" lon="-5.573600">
        <ele>1065.0</ele>
        <time>2013-06-30T15:43:05Z</time>
      </trkpt>
      <trkpt lat="40.051250" lon="-5.573717">
        <ele>1063.0</ele>
        <time>2013-06-30T15:43:06Z</time>
      </trkpt>
      <trkpt lat="40.051200" lon="-5.573817">
        <ele>1060.0</ele>
        <time>2013-06-30T15:43:07Z</time>
      </trkpt>
      <trkpt lat="40.051167" lon="-5.573933">
        <ele>1058.0</ele>
        <time>2013-06-30T15:43:08Z</time>
      </trkpt>
      <trkpt lat="40.051117" lon="-5.574033">
        <ele>1055.0</ele>
        <time>2013-06-30T15:43:09Z</time>
      </trkpt>
      <trkpt lat="40.051083" lon="-5.574150">
        <ele>1053.0</ele>
        <time>2013-06-30T15:43:10Z</time>
      </trkpt>
      <trkpt lat="40.051033" lon="-5.574250">
        <ele>1050.0</ele>
        <time>2013-06-30T15:43:11Z</time>
      </trkpt>
      <trkpt lat="40.050983" lon="-5.574367">
        <ele>1048.0</ele>
        <time>2013-06-30T15:43:12Z</time>
      </trkpt>
      <trkpt lat="40.050950" lon="-5.574483">
        <ele>1045.0</ele>
        <time>2013-06-30T15:43:13Z</time>
      </trkpt>
      <trkpt lat="40.050900" lon="-5.574600">
        <ele>1042.0</ele>
        <time>2013-06-30T15:43:14Z</time>
      </trkpt>
      <trkpt lat="40.050850" lon="-5.574700">
        <ele>1040.0</ele>
        <time>2013-06-30T15:43:15Z</time>
      </trkpt>
      <trkpt lat="40.050800" lon="-5.574817">
        <ele>1037.0</ele>
        <time>2013-06-30T15:43:16Z</time>
      </trkpt>
      <trkpt lat="40.050767" lon="-5.574933">
        <ele>1035.0</ele>
        <time>2013-06-30T15:43:17Z</time>
      </trkpt>
      <trkpt lat="40.050683" lon="-5.575167">
        <ele>1031.0</ele>
        <time>2013-06-30T15:43:19Z</time>
      </trkpt>
      <trkpt lat="40.050633" lon="-5.575283">
        <ele>1029.0</ele>
        <time>2013-06-30T15:43:20Z</time>
      </trkpt>
      <trkpt lat="40.050600" lon="-5.575400">
        <ele>1027.0</ele>
        <time>2013-06-30T15:43:21Z</time>
      </trkpt>
      <trkpt lat="40.050550" lon="-5.575533">
        <ele>1024.0</ele>
        <time>2013-06-30T15:43:22Z</time>
      </trkpt>
      <trkpt lat="40.050500" lon="-5.575650">
        <ele>1022.0</ele>
        <time>2013-06-30T15:43:23Z</time>
      </trkpt>
      <trkpt lat="40.050450" lon="-5.575767">
        <ele>1019.0</ele>
        <time>2013-06-30T15:43:24Z</time>
      </trkpt>
      <trkpt lat="40.050417" lon="-5.575883">
        <ele>1017.0</ele>
        <time>2013-06-30T15:43:25Z</time>
      </trkpt>
      <trkpt lat="40.050367" lon="-5.576000">
        <ele>1015.0</ele>
        <time>2013-06-30T15:43:26Z</time>
      </trkpt>
      <trkpt lat="40.050333" lon="-5.576117">
        <ele>1012.0</ele>
        <time>2013-06-30T15:43:27Z</time>
      </trkpt>
      <trkpt lat="40.050283" lon="-5.576233">
        <ele>1010.0</ele>
        <time>2013-06-30T15:43:28Z</time>
      </trkpt>
      <trkpt lat="40.050250" lon="-5.576350">
        <ele>1007.0</ele>
        <time>2013-06-30T15:43:29Z</time>
      </trkpt>
      <trkpt lat="40.050200" lon="-5.576467">
        <ele>1005.0</ele>
        <time>2013-06-30T15:43:30Z</time>
      </trkpt>
      <trkpt lat="40.050167" lon="-5.576583">
        <ele>1002.0</ele>
        <time>2013-06-30T15:43:31Z</time>
      </trkpt>
      <trkpt lat="40.050133" lon="-5.576683">
        <ele>999.0</ele>
        <time>2013-06-30T15:43:32Z</time>
      </trkpt>
      <trkpt lat="40.050100" lon="-5.576800">
        <ele>997.0</ele>
        <time>2013-06-30T15:43:33Z</time>
      </trkpt>
      <trkpt lat="40.050067" lon="-5.576900">
        <ele>994.0</ele>
        <time>2013-06-30T15:43:34Z</time>
      </trkpt>
      <trkpt lat="40.050033" lon="-5.577017">
        <ele>990.0</ele>
        <time>2013-06-30T15:43:35Z</time>
      </trkpt>
      <trkpt lat="40.050000" lon="-5.577150">
        <ele>987.0</ele>
        <time>2013-06-30T15:43:36Z</time>
      </trkpt>
      <trkpt lat="40.049950" lon="-5.577267">
        <ele>984.0</ele>
        <time>2013-06-30T15:43:37Z</time>
      </trkpt>
      <trkpt lat="40.049917" lon="-5.577383">
        <ele>981.0</ele>
        <time>2013-06-30T15:43:38Z</time>
      </trkpt>
      <trkpt lat="40.049883" lon="-5.577500">
        <ele>978.0</ele>
        <time>2013-06-30T15:43:39Z</time>
      </trkpt>
      <trkpt lat="40.049850" lon="-5.577633">
        <ele>974.0</ele>
        <time>2013-06-30T15:43:40Z</time>
      </trkpt>
      <trkpt lat="40.049800" lon="-5.577750">
        <ele>971.0</ele>
        <time>2013-06-30T15:43:41Z</time>
      </trkpt>
      <trkpt lat="40.049767" lon="-5.577850">
        <ele>968.0</ele>
        <time>2013-06-30T15:43:42Z</time>
      </trkpt>
      <trkpt lat="40.049733" lon="-5.577983">
        <ele>965.0</ele>
        <time>2013-06-30T15:43:43Z</time>
      </trkpt>
      <trkpt lat="40.049717" lon="-5.578100">
        <ele>962.0</ele>
        <time>2013-06-30T15:43:44Z</time>
      </trkpt>
      <trkpt lat="40.049683" lon="-5.578233">
        <ele>958.0</ele>
        <time>2013-06-30T15:43:45Z</time>
      </trkpt>
      <trkpt lat="40.049633" lon="-5.578367">
        <ele>955.0</ele>
        <time>2013-06-30T15:43:46Z</time>
      </trkpt>
      <trkpt lat="40.049617" lon="-5.578500">
        <ele>952.0</ele>
        <time>2013-06-30T15:43:47Z</time>
      </trkpt>
      <trkpt lat="40.049583" lon="-5.578617">
        <ele>950.0</ele>
        <time>2013-06-30T15:43:48Z</time>
      </trkpt>
      <trkpt lat="40.049567" lon="-5.578717">
        <ele>949.0</ele>
        <time>2013-06-30T15:43:49Z</time>
      </trkpt>
      <trkpt lat="40.049550" lon="-5.578833">
        <ele>947.0</ele>
        <time>2013-06-30T15:43:50Z</time>
      </trkpt>
      <trkpt lat="40.049533" lon="-5.578933">
        <ele>945.0</ele>
        <time>2013-06-30T15:43:51Z</time>
      </trkpt>
      <trkpt lat="40.049500" lon="-5.579067">
        <ele>942.0</ele>
        <time>2013-06-30T15:43:52Z</time>
      </trkpt>
      <trkpt lat="40.049467" lon="-5.579183">
        <ele>939.0</ele>
        <time>2013-06-30T15:43:53Z</time>
      </trkpt>
      <trkpt lat="40.049433" lon="-5.579300">
        <ele>936.0</ele>
        <time>2013-06-30T15:43:54Z</time>
      </trkpt>
      <trkpt lat="40.049417" lon="-5.579417">
        <ele>934.0</ele>
        <time>2013-06-30T15:43:55Z</time>
      </trkpt>
      <trkpt lat="40.049383" lon="-5.579533">
        <ele>932.0</ele>
        <time>2013-06-30T15:43:56Z</time>
      </trkpt>
      <trkpt lat="40.049350" lon="-5.579650">
        <ele>930.0</ele>
        <time>2013-06-30T15:43:57Z</time>
      </trkpt>
      <trkpt lat="40.049333" lon="-5.579767">
        <ele>927.0</ele>
        <time>2013-06-30T15:43:58Z</time>
      </trkpt>
      <trkpt lat="40.049300" lon="-5.579900">
        <ele>924.0</ele>
        <time>2013-06-30T15:43:59Z</time>
      </trkpt>
      <trkpt lat="40.049267" lon="-5.580000">
        <ele>921.0</ele>
        <time>2013-06-30T15:44:00Z</time>
      </trkpt>
      <trkpt lat="40.049233" lon="-5.580117">
        <ele>919.0</ele>
        <time>2013-06-30T15:44:01Z</time>
      </trkpt>
      <trkpt lat="40.049200" lon="-5.580233">
        <ele>917.0</ele>
        <time>2013-06-30T15:44:02Z</time>
      </trkpt>
      <trkpt lat="40.049167" lon="-5.580350">
        <ele>916.0</ele>
        <time>2013-06-30T15:44:03Z</time>
      </trkpt>
      <trkpt lat="40.049117" lon="-5.580467">
        <ele>914.0</ele>
        <time>2013-06-30T15:44:04Z</time>
      </trkpt>
      <trkpt lat="40.049083" lon="-5.580583">
        <ele>912.0</ele>
        <time>2013-06-30T15:44:05Z</time>
      </trkpt>
      <trkpt lat="40.049050" lon="-5.580683">
        <ele>911.0</ele>
        <time>2013-06-30T15:44:06Z</time>
      </trkpt>
      <trkpt lat="40.049017" lon="-5.580783">
        <ele>909.0</ele>
        <time>2013-06-30T15:44:07Z</time>
      </trkpt>
      <trkpt lat="40.048983" lon="-5.580900">
        <ele>907.0</ele>
        <time>2013-06-30T15:44:08Z</time>
      </trkpt>
      <trkpt lat="40.048950" lon="-5.581017">
        <ele>905.0</ele>
        <time>2013-06-30T15:44:09Z</time>
      </trkpt>
      <trkpt lat="40.048900" lon="-5.581150">
        <ele>903.0</ele>
        <time>2013-06-30T15:44:10Z</time>
      </trkpt>
      <trkpt lat="40.048867" lon="-5.581267">
        <ele>901.0</ele>
        <time>2013-06-30T15:44:11Z</time>
      </trkpt>
      <trkpt lat="40.048817" lon="-5.581383">
        <ele>900.0</ele>
        <time>2013-06-30T15:44:12Z</time>
      </trkpt>
      <trkpt lat="40.048733" lon="-5.581583">
        <ele>897.0</ele>
        <time>2013-06-30T15:44:14Z</time>
      </trkpt>
      <trkpt lat="40.048683" lon="-5.581717">
        <ele>894.0</ele>
        <time>2013-06-30T15:44:15Z</time>
      </trkpt>
      <trkpt lat="40.048633" lon="-5.581833">
        <ele>892.0</ele>
        <time>2013-06-30T15:44:16Z</time>
      </trkpt>
      <trkpt lat="40.048583" lon="-5.581950">
        <ele>891.0</ele>
        <time>2013-06-30T15:44:17Z</time>
      </trkpt>
      <trkpt lat="40.048550" lon="-5.582050">
        <ele>890.0</ele>
        <time>2013-06-30T15:44:18Z</time>
      </trkpt>
      <trkpt lat="40.048500" lon="-5.582167">
        <ele>889.0</ele>
        <time>2013-06-30T15:44:19Z</time>
      </trkpt>
      <trkpt lat="40.048450" lon="-5.582283">
        <ele>887.0</ele>
        <time>2013-06-30T15:44:20Z</time>
      </trkpt>
      <trkpt lat="40.048417" lon="-5.582383">
        <ele>886.0</ele>
        <time>2013-06-30T15:44:21Z</time>
      </trkpt>
      <trkpt lat="40.048367" lon="-5.582500">
        <ele>885.0</ele>
        <time>2013-06-30T15:44:22Z</time>
      </trkpt>
      <trkpt lat="40.048300" lon="-5.582600">
        <ele>883.0</ele>
        <time>2013-06-30T15:44:23Z</time>
      </trkpt>
      <trkpt lat="40.048250" lon="-5.582700">
        <ele>881.0</ele>
        <time>2013-06-30T15:44:24Z</time>
      </trkpt>
      <trkpt lat="40.048200" lon="-5.582817">
        <ele>880.0</ele>
        <time>2013-06-30T15:44:25Z</time>
      </trkpt>
      <trkpt lat="40.048150" lon="-5.582917">
        <ele>878.0</ele>
        <time>2013-06-30T15:44:26Z</time>
      </trkpt>
      <trkpt lat="40.048100" lon="-5.583017">
        <ele>877.0</ele>
        <time>2013-06-30T15:44:27Z</time>
      </trkpt>
      <trkpt lat="40.048050" lon="-5.583117">
        <ele>876.0</ele>
        <time>2013-06-30T15:44:28Z</time>
      </trkpt>
      <trkpt lat="40.048000" lon="-5.583217">
        <ele>874.0</ele>
        <time>2013-06-30T15:44:29Z</time>
      </trkpt>
      <trkpt lat="40.047950" lon="-5.583333">
        <ele>873.0</ele>
        <time>2013-06-30T15:44:30Z</time>
      </trkpt>
      <trkpt lat="40.047900" lon="-5.583433">
        <ele>872.0</ele>
        <time>2013-06-30T15:44:31Z</time>
      </trkpt>
      <trkpt lat="40.047850" lon="-5.583550">
        <ele>871.0</ele>
        <time>2013-06-30T15:44:32Z</time>
      </trkpt>
      <trkpt lat="40.047800" lon="-5.583650">
        <ele>870.0</ele>
        <time>2013-06-30T15:44:33Z</time>
      </trkpt>
      <trkpt lat="40.047700" lon="-5.583850">
        <ele>867.0</ele>
        <time>2013-06-30T15:44:35Z</time>
      </trkpt>
      <trkpt lat="40.047667" lon="-5.583950">
        <ele>866.0</ele>
        <time>2013-06-30T15:44:36Z</time>
      </trkpt>
      <trkpt lat="40.047617" lon="-5.584050">
        <ele>864.0</ele>
        <time>2013-06-30T15:44:37Z</time>
      </trkpt>
      <trkpt lat="40.047567" lon="-5.584167">
        <ele>862.0</ele>
        <time>2013-06-30T15:44:38Z</time>
      </trkpt>
      <trkpt lat="40.047517" lon="-5.584267">
        <ele>860.0</ele>
        <time>2013-06-30T15:44:39Z</time>
      </trkpt>
      <trkpt lat="40.047467" lon="-5.584383">
        <ele>858.0</ele>
        <time>2013-06-30T15:44:40Z</time>
      </trkpt>
      <trkpt lat="40.047417" lon="-5.584500">
        <ele>856.0</ele>
        <time>2013-06-30T15:44:41Z</time>
      </trkpt>
      <trkpt lat="40.047367" lon="-5.584633">
        <ele>854.0</ele>
        <time>2013-06-30T15:44:42Z</time>
      </trkpt>
      <trkpt lat="40.047317" lon="-5.584750">
        <ele>852.0</ele>
        <time>2013-06-30T15:44:43Z</time>
      </trkpt>
      <trkpt lat="40.047267" lon="-5.584850">
        <ele>850.0</ele>
        <time>2013-06-30T15:44:44Z</time>
      </trkpt>
      <trkpt lat="40.047217" lon="-5.584967">
        <ele>848.0</ele>
        <time>2013-06-30T15:44:45Z</time>
      </trkpt>
      <trkpt lat="40.047167" lon="-5.585083">
        <ele>846.0</ele>
        <time>2013-06-30T15:44:46Z</time>
      </trkpt>
      <trkpt lat="40.047117" lon="-5.585200">
        <ele>844.0</ele>
        <time>2013-06-30T15:44:47Z</time>
      </trkpt>
      <trkpt lat="40.046967" lon="-5.585500">
        <ele>839.0</ele>
        <time>2013-06-30T15:44:50Z</time>
      </trkpt>
      <trkpt lat="40.046933" lon="-5.585600">
        <ele>838.0</ele>
        <time>2013-06-30T15:44:51Z</time>
      </trkpt>
      <trkpt lat="40.046883" lon="-5.585700">
        <ele>837.0</ele>
        <time>2013-06-30T15:44:52Z</time>
      </trkpt>
      <trkpt lat="40.046767" lon="-5.585917">
        <ele>835.0</ele>
        <time>2013-06-30T15:44:54Z</time>
      </trkpt>
      <trkpt lat="40.046717" lon="-5.586033">
        <ele>835.0</ele>
        <time>2013-06-30T15:44:55Z</time>
      </trkpt>
      <trkpt lat="40.046667" lon="-5.586117">
        <ele>835.0</ele>
        <time>2013-06-30T15:44:56Z</time>
      </trkpt>
      <trkpt lat="40.046633" lon="-5.586217">
        <ele>835.0</ele>
        <time>2013-06-30T15:44:57Z</time>
      </trkpt>
      <trkpt lat="40.046583" lon="-5.586300">
        <ele>835.0</ele>
        <time>2013-06-30T15:44:58Z</time>
      </trkpt>
      <trkpt lat="40.046533" lon="-5.586383">
        <ele>834.0</ele>
        <time>2013-06-30T15:44:59Z</time>
      </trkpt>
      <trkpt lat="40.046483" lon="-5.586500">
        <ele>833.0</ele>
        <time>2013-06-30T15:45:00Z</time>
      </trkpt>
      <trkpt lat="40.046433" lon="-5.586600">
        <ele>833.0</ele>
        <time>2013-06-30T15:45:01Z</time>
      </trkpt>
      <trkpt lat="40.046383" lon="-5.586700">
        <ele>832.0</ele>
        <time>2013-06-30T15:45:02Z</time>
      </trkpt>
      <trkpt lat="40.046333" lon="-5.586783">
        <ele>832.0</ele>
        <time>2013-06-30T15:45:03Z</time>
      </trkpt>
      <trkpt lat="40.046283" lon="-5.586867">
        <ele>832.0</ele>
        <time>2013-06-30T15:45:04Z</time>
      </trkpt>
      <trkpt lat="40.046217" lon="-5.586950">
        <ele>831.0</ele>
        <time>2013-06-30T15:45:05Z</time>
      </trkpt>
      <trkpt lat="40.046167" lon="-5.587033">
        <ele>831.0</ele>
        <time>2013-06-30T15:45:06Z</time>
      </trkpt>
      <trkpt lat="40.046100" lon="-5.587133">
        <ele>830.0</ele>
        <time>2013-06-30T15:45:07Z</time>
      </trkpt>
      <trkpt lat="40.046050" lon="-5.587233">
        <ele>829.0</ele>
        <time>2013-06-30T15:45:08Z</time>
      </trkpt>
      <trkpt lat="40.046000" lon="-5.587333">
        <ele>829.0</ele>
        <time>2013-06-30T15:45:09Z</time>
      </trkpt>
      <trkpt lat="40.045950" lon="-5.587433">
        <ele>830.0</ele>
        <time>2013-06-30T15:45:10Z</time>
      </trkpt>
      <trkpt lat="40.045900" lon="-5.587533">
        <ele>830.0</ele>
        <time>2013-06-30T15:45:11Z</time>
      </trkpt>
      <trkpt lat="40.045833" lon="-5.587633">
        <ele>829.0</ele>
        <time>2013-06-30T15:45:12Z</time>
      </trkpt>
      <trkpt lat="40.045783" lon="-5.587750">
        <ele>829.0</ele>
        <time>2013-06-30T15:45:13Z</time>
      </trkpt>
      <trkpt lat="40.045717" lon="-5.587867">
        <ele>829.0</ele>
        <time>2013-06-30T15:45:14Z</time>
      </trkpt>
      <trkpt lat="40.045667" lon="-5.587967">
        <ele>829.0</ele>
        <time>2013-06-30T15:45:15Z</time>
      </trkpt>
      <trkpt lat="40.045617" lon="-5.588067">
        <ele>829.0</ele>
        <time>2013-06-30T15:45:16Z</time>
      </trkpt>
      <trkpt lat="40.045550" lon="-5.588150">
        <ele>828.0</ele>
        <time>2013-06-30T15:45:17Z</time>
      </trkpt>
      <trkpt lat="40.045500" lon="-5.588250">
        <ele>828.0</ele>
        <time>2013-06-30T15:45:18Z</time>
      </trkpt>
      <trkpt lat="40.045450" lon="-5.588350">
        <ele>828.0</ele>
        <time>2013-06-30T15:45:19Z</time>
      </trkpt>
      <trkpt lat="40.045400" lon="-5.588450">
        <ele>828.0</ele>
        <time>2013-06-30T15:45:20Z</time>
      </trkpt>
      <trkpt lat="40.045350" lon="-5.588533">
        <ele>828.0</ele>
        <time>2013-06-30T15:45:21Z</time>
      </trkpt>
      <trkpt lat="40.045300" lon="-5.588633">
        <ele>829.0</ele>
        <time>2013-06-30T15:45:22Z</time>
      </trkpt>
      <trkpt lat="40.045250" lon="-5.588733">
        <ele>829.0</ele>
        <time>2013-06-30T15:45:23Z</time>
      </trkpt>
      <trkpt lat="40.045200" lon="-5.588833">
        <ele>829.0</ele>
        <time>2013-06-30T15:45:24Z</time>
      </trkpt>
      <trkpt lat="40.045150" lon="-5.588933">
        <ele>828.0</ele>
        <time>2013-06-30T15:45:25Z</time>
      </trkpt>
      <trkpt lat="40.045100" lon="-5.589033">
        <ele>828.0</ele>
        <time>2013-06-30T15:45:26Z</time>
      </trkpt>
      <trkpt lat="40.045033" lon="-5.589117">
        <ele>828.0</ele>
        <time>2013-06-30T15:45:27Z</time>
      </trkpt>
      <trkpt lat="40.044983" lon="-5.589217">
        <ele>828.0</ele>
        <time>2013-06-30T15:45:28Z</time>
      </trkpt>
      <trkpt lat="40.044917" lon="-5.589317">
        <ele>828.0</ele>
        <time>2013-06-30T15:45:29Z</time>
      </trkpt>
      <trkpt lat="40.044867" lon="-5.589417">
        <ele>828.0</ele>
        <time>2013-06-30T15:45:30Z</time>
      </trkpt>
      <trkpt lat="40.044817" lon="-5.589500">
        <ele>828.0</ele>
        <time>2013-06-30T15:45:31Z</time>
      </trkpt>
      <trkpt lat="40.044783" lon="-5.589600">
        <ele>828.0</ele>
        <time>2013-06-30T15:45:32Z</time>
      </trkpt>
      <trkpt lat="40.044733" lon="-5.589700">
        <ele>827.0</ele>
        <time>2013-06-30T15:45:33Z</time>
      </trkpt>
      <trkpt lat="40.044683" lon="-5.589800">
        <ele>827.0</ele>
        <time>2013-06-30T15:45:34Z</time>
      </trkpt>
      <trkpt lat="40.044650" lon="-5.589883">
        <ele>827.0</ele>
        <time>2013-06-30T15:45:35Z</time>
      </trkpt>
      <trkpt lat="40.044600" lon="-5.589983">
        <ele>827.0</ele>
        <time>2013-06-30T15:45:36Z</time>
      </trkpt>
      <trkpt lat="40.044550" lon="-5.590083">
        <ele>827.0</ele>
        <time>2013-06-30T15:45:37Z</time>
      </trkpt>
      <trkpt lat="40.044500" lon="-5.590183">
        <ele>826.0</ele>
        <time>2013-06-30T15:45:38Z</time>
      </trkpt>
      <trkpt lat="40.044450" lon="-5.590283">
        <ele>826.0</ele>
        <time>2013-06-30T15:45:39Z</time>
      </trkpt>
      <trkpt lat="40.044383" lon="-5.590383">
        <ele>826.0</ele>
        <time>2013-06-30T15:45:40Z</time>
      </trkpt>
      <trkpt lat="40.044333" lon="-5.590483">
        <ele>825.0</ele>
        <time>2013-06-30T15:45:41Z</time>
      </trkpt>
      <trkpt lat="40.044283" lon="-5.590583">
        <ele>824.0</ele>
        <time>2013-06-30T15:45:42Z</time>
      </trkpt>
      <trkpt lat="40.044233" lon="-5.590683">
        <ele>823.0</ele>
        <time>2013-06-30T15:45:43Z</time>
      </trkpt>
      <trkpt lat="40.044167" lon="-5.590767">
        <ele>822.0</ele>
        <time>2013-06-30T15:45:44Z</time>
      </trkpt>
      <trkpt lat="40.044117" lon="-5.590850">
        <ele>822.0</ele>
        <time>2013-06-30T15:45:45Z</time>
      </trkpt>
      <trkpt lat="40.044067" lon="-5.590933">
        <ele>820.0</ele>
        <time>2013-06-30T15:45:46Z</time>
      </trkpt>
      <trkpt lat="40.044017" lon="-5.591033">
        <ele>819.0</ele>
        <time>2013-06-30T15:45:47Z</time>
      </trkpt>
      <trkpt lat="40.043967" lon="-5.591117">
        <ele>817.0</ele>
        <time>2013-06-30T15:45:48Z</time>
      </trkpt>
      <trkpt lat="40.043900" lon="-5.591200">
        <ele>815.0</ele>
        <time>2013-06-30T15:45:49Z</time>
      </trkpt>
      <trkpt lat="40.043850" lon="-5.591283">
        <ele>814.0</ele>
        <time>2013-06-30T15:45:50Z</time>
      </trkpt>
      <trkpt lat="40.043783" lon="-5.591383">
        <ele>813.0</ele>
        <time>2013-06-30T15:45:51Z</time>
      </trkpt>
      <trkpt lat="40.043733" lon="-5.591467">
        <ele>811.0</ele>
        <time>2013-06-30T15:45:52Z</time>
      </trkpt>
      <trkpt lat="40.043683" lon="-5.591567">
        <ele>810.0</ele>
        <time>2013-06-30T15:45:53Z</time>
      </trkpt>
      <trkpt lat="40.043633" lon="-5.591667">
        <ele>809.0</ele>
        <time>2013-06-30T15:45:54Z</time>
      </trkpt>
      <trkpt lat="40.043583" lon="-5.591767">
        <ele>808.0</ele>
        <time>2013-06-30T15:45:55Z</time>
      </trkpt>
      <trkpt lat="40.043533" lon="-5.591850">
        <ele>807.0</ele>
        <time>2013-06-30T15:45:56Z</time>
      </trkpt>
      <trkpt lat="40.043483" lon="-5.591950">
        <ele>807.0</ele>
        <time>2013-06-30T15:45:57Z</time>
      </trkpt>
      <trkpt lat="40.043450" lon="-5.592050">
        <ele>806.0</ele>
        <time>2013-06-30T15:45:58Z</time>
      </trkpt>
      <trkpt lat="40.043417" lon="-5.592150">
        <ele>805.0</ele>
        <time>2013-06-30T15:45:59Z</time>
      </trkpt>
      <trkpt lat="40.043383" lon="-5.592267">
        <ele>804.0</ele>
        <time>2013-06-30T15:46:00Z</time>
      </trkpt>
      <trkpt lat="40.043350" lon="-5.592383">
        <ele>803.0</ele>
        <time>2013-06-30T15:46:01Z</time>
      </trkpt>
      <trkpt lat="40.043350" lon="-5.592483">
        <ele>802.0</ele>
        <time>2013-06-30T15:46:02Z</time>
      </trkpt>
      <trkpt lat="40.043350" lon="-5.592600">
        <ele>802.0</ele>
        <time>2013-06-30T15:46:03Z</time>
      </trkpt>
      <trkpt lat="40.043367" lon="-5.592683">
        <ele>801.0</ele>
        <time>2013-06-30T15:46:04Z</time>
      </trkpt>
      <trkpt lat="40.043400" lon="-5.592767">
        <ele>800.0</ele>
        <time>2013-06-30T15:46:05Z</time>
      </trkpt>
      <trkpt lat="40.043450" lon="-5.592850">
        <ele>798.0</ele>
        <time>2013-06-30T15:46:06Z</time>
      </trkpt>
      <trkpt lat="40.043483" lon="-5.592933">
        <ele>797.0</ele>
        <time>2013-06-30T15:46:07Z</time>
      </trkpt>
      <trkpt lat="40.043533" lon="-5.593000">
        <ele>796.0</ele>
        <time>2013-06-30T15:46:08Z</time>
      </trkpt>
      <trkpt lat="40.043583" lon="-5.593067">
        <ele>795.0</ele>
        <time>2013-06-30T15:46:09Z</time>
      </trkpt>
      <trkpt lat="40.043633" lon="-5.593117">
        <ele>794.0</ele>
        <time>2013-06-30T15:46:10Z</time>
      </trkpt>
      <trkpt lat="40.043700" lon="-5.593183">
        <ele>793.0</ele>
        <time>2013-06-30T15:46:11Z</time>
      </trkpt>
      <trkpt lat="40.043750" lon="-5.593233">
        <ele>792.0</ele>
        <time>2013-06-30T15:46:12Z</time>
      </trkpt>
      <trkpt lat="40.043800" lon="-5.593283">
        <ele>792.0</ele>
        <time>2013-06-30T15:46:13Z</time>
      </trkpt>
      <trkpt lat="40.043850" lon="-5.593333">
        <ele>791.0</ele>
        <time>2013-06-30T15:46:14Z</time>
      </trkpt>
      <trkpt lat="40.043900" lon="-5.593383">
        <ele>790.0</ele>
        <time>2013-06-30T15:46:15Z</time>
      </trkpt>
      <trkpt lat="40.043967" lon="-5.593433">
        <ele>788.0</ele>
        <time>2013-06-30T15:46:16Z</time>
      </trkpt>
      <trkpt lat="40.044033" lon="-5.593483">
        <ele>788.0</ele>
        <time>2013-06-30T15:46:17Z</time>
      </trkpt>
      <trkpt lat="40.044083" lon="-5.593533">
        <ele>787.0</ele>
        <time>2013-06-30T15:46:18Z</time>
      </trkpt>
      <trkpt lat="40.044133" lon="-5.593583">
        <ele>786.0</ele>
        <time>2013-06-30T15:46:19Z</time>
      </trkpt>
      <trkpt lat="40.044200" lon="-5.593633">
        <ele>786.0</ele>
        <time>2013-06-30T15:46:20Z</time>
      </trkpt>
      <trkpt lat="40.044250" lon="-5.593683">
        <ele>785.0</ele>
        <time>2013-06-30T15:46:21Z</time>
      </trkpt>
      <trkpt lat="40.044317" lon="-5.593733">
        <ele>783.0</ele>
        <time>2013-06-30T15:46:22Z</time>
      </trkpt>
      <trkpt lat="40.044383" lon="-5.593783">
        <ele>782.0</ele>
        <time>2013-06-30T15:46:23Z</time>
      </trkpt>
      <trkpt lat="40.044433" lon="-5.593833">
        <ele>781.0</ele>
        <time>2013-06-30T15:46:24Z</time>
      </trkpt>
      <trkpt lat="40.044500" lon="-5.593867">
        <ele>781.0</ele>
        <time>2013-06-30T15:46:25Z</time>
      </trkpt>
      <trkpt lat="40.044567" lon="-5.593900">
        <ele>780.0</ele>
        <time>2013-06-30T15:46:26Z</time>
      </trkpt>
      <trkpt lat="40.044633" lon="-5.593917">
        <ele>779.0</ele>
        <time>2013-06-30T15:46:27Z</time>
      </trkpt>
      <trkpt lat="40.044917" lon="-5.593867">
        <ele>776.0</ele>
        <time>2013-06-30T15:46:31Z</time>
      </trkpt>
      <trkpt lat="40.044967" lon="-5.593833">
        <ele>775.0</ele>
        <time>2013-06-30T15:46:32Z</time>
      </trkpt>
      <trkpt lat="40.045033" lon="-5.593783">
        <ele>774.0</ele>
        <time>2013-06-30T15:46:33Z</time>
      </trkpt>
      <trkpt lat="40.045100" lon="-5.593733">
        <ele>772.0</ele>
        <time>2013-06-30T15:46:34Z</time>
      </trkpt>
      <trkpt lat="40.045167" lon="-5.593683">
        <ele>771.0</ele>
        <time>2013-06-30T15:46:35Z</time>
      </trkpt>
      <trkpt lat="40.045217" lon="-5.593633">
        <ele>771.0</ele>
        <time>2013-06-30T15:46:36Z</time>
      </trkpt>
      <trkpt lat="40.045267" lon="-5.593583">
        <ele>770.0</ele>
        <time>2013-06-30T15:46:37Z</time>
      </trkpt>
      <trkpt lat="40.045317" lon="-5.593517">
        <ele>769.0</ele>
        <time>2013-06-30T15:46:38Z</time>
      </trkpt>
      <trkpt lat="40.045367" lon="-5.593450">
        <ele>768.0</ele>
        <time>2013-06-30T15:46:39Z</time>
      </trkpt>
      <trkpt lat="40.045417" lon="-5.593383">
        <ele>768.0</ele>
        <time>2013-06-30T15:46:40Z</time>
      </trkpt>
      <trkpt lat="40.045467" lon="-5.593300">
        <ele>767.0</ele>
        <time>2013-06-30T15:46:41Z</time>
      </trkpt>
      <trkpt lat="40.045517" lon="-5.593233">
        <ele>766.0</ele>
        <time>2013-06-30T15:46:42Z</time>
      </trkpt>
      <trkpt lat="40.045567" lon="-5.593150">
        <ele>765.0</ele>
        <time>2013-06-30T15:46:43Z</time>
      </trkpt>
      <trkpt lat="40.045617" lon="-5.593067">
        <ele>765.0</ele>
        <time>2013-06-30T15:46:44Z</time>
      </trkpt>
      <trkpt lat="40.045650" lon="-5.592983">
        <ele>765.0</ele>
        <time>2013-06-30T15:46:45Z</time>
      </trkpt>
      <trkpt lat="40.045683" lon="-5.592900">
        <ele>765.0</ele>
        <time>2013-06-30T15:46:46Z</time>
      </trkpt>
      <trkpt lat="40.045717" lon="-5.592817">
        <ele>765.0</ele>
        <time>2013-06-30T15:46:47Z</time>
      </trkpt>
      <trkpt lat="40.045750" lon="-5.592717">
        <ele>765.0</ele>
        <time>2013-06-30T15:46:48Z</time>
      </trkpt>
      <trkpt lat="40.045783" lon="-5.592633">
        <ele>765.0</ele>
        <time>2013-06-30T15:46:49Z</time>
      </trkpt>
      <trkpt lat="40.045800" lon="-5.592533">
        <ele>765.0</ele>
        <time>2013-06-30T15:46:50Z</time>
      </trkpt>
      <trkpt lat="40.045817" lon="-5.592450">
        <ele>765.0</ele>
        <time>2013-06-30T15:46:51Z</time>
      </trkpt>
      <trkpt lat="40.045833" lon="-5.592350">
        <ele>766.0</ele>
        <time>2013-06-30T15:46:52Z</time>
      </trkpt>
      <trkpt lat="40.045850" lon="-5.592267">
        <ele>765.0</ele>
        <time>2013-06-30T15:46:53Z</time>
      </trkpt>
      <trkpt lat="40.045850" lon="-5.592167">
        <ele>765.0</ele>
        <time>2013-06-30T15:46:54Z</time>
      </trkpt>
      <trkpt lat="40.045867" lon="-5.591967">
        <ele>766.0</ele>
        <time>2013-06-30T15:46:56Z</time>
      </trkpt>
      <trkpt lat="40.045867" lon="-5.591883">
        <ele>766.0</ele>
        <time>2013-06-30T15:46:57Z</time>
      </trkpt>
      <trkpt lat="40.045883" lon="-5.591783">
        <ele>767.0</ele>
        <time>2013-06-30T15:46:58Z</time>
      </trkpt>
      <trkpt lat="40.045883" lon="-5.591700">
        <ele>768.0</ele>
        <time>2013-06-30T15:46:59Z</time>
      </trkpt>
      <trkpt lat="40.045900" lon="-5.591600">
        <ele>768.0</ele>
        <time>2013-06-30T15:47:00Z</time>
      </trkpt>
      <trkpt lat="40.045883" lon="-5.591517">
        <ele>769.0</ele>
        <time>2013-06-30T15:47:01Z</time>
      </trkpt>
      <trkpt lat="40.045867" lon="-5.591417">
        <ele>770.0</ele>
        <time>2013-06-30T15:47:02Z</time>
      </trkpt>
      <trkpt lat="40.045833" lon="-5.591333">
        <ele>770.0</ele>
        <time>2013-06-30T15:47:03Z</time>
      </trkpt>
      <trkpt lat="40.045783" lon="-5.591267">
        <ele>771.0</ele>
        <time>2013-06-30T15:47:04Z</time>
      </trkpt>
      <trkpt lat="40.045717" lon="-5.591217">
        <ele>772.0</ele>
        <time>2013-06-30T15:47:05Z</time>
      </trkpt>
      <trkpt lat="40.045633" lon="-5.591200">
        <ele>772.0</ele>
        <time>2013-06-30T15:47:06Z</time>
      </trkpt>
      <trkpt lat="40.045550" lon="-5.591217">
        <ele>773.0</ele>
        <time>2013-06-30T15:47:07Z</time>
      </trkpt>
      <trkpt lat="40.045483" lon="-5.591250">
        <ele>773.0</ele>
        <time>2013-06-30T15:47:08Z</time>
      </trkpt>
      <trkpt lat="40.045400" lon="-5.591317">
        <ele>773.0</ele>
        <time>2013-06-30T15:47:09Z</time>
      </trkpt>
      <trkpt lat="40.045350" lon="-5.591400">
        <ele>775.0</ele>
        <time>2013-06-30T15:47:10Z</time>
      </trkpt>
      <trkpt lat="40.045300" lon="-5.591467">
        <ele>776.0</ele>
        <time>2013-06-30T15:47:11Z</time>
      </trkpt>
      <trkpt lat="40.045267" lon="-5.591567">
        <ele>779.0</ele>
        <time>2013-06-30T15:47:12Z</time>
      </trkpt>
      <trkpt lat="40.045250" lon="-5.591683">
        <ele>780.0</ele>
        <time>2013-06-30T15:47:13Z</time>
      </trkpt>
      <trkpt lat="40.045233" lon="-5.591800">
        <ele>781.0</ele>
        <time>2013-06-30T15:47:14Z</time>
      </trkpt>
      <trkpt lat="40.045233" lon="-5.591933">
        <ele>782.0</ele>
        <time>2013-06-30T15:47:15Z</time>
      </trkpt>
      <trkpt lat="40.045267" lon="-5.592050">
        <ele>784.0</ele>
        <time>2013-06-30T15:47:16Z</time>
      </trkpt>
      <trkpt lat="40.045283" lon="-5.592150">
        <ele>785.0</ele>
        <time>2013-06-30T15:47:17Z</time>
      </trkpt>
      <trkpt lat="40.045317" lon="-5.592267">
        <ele>787.0</ele>
        <time>2013-06-30T15:47:18Z</time>
      </trkpt>
      <trkpt lat="40.045350" lon="-5.592367">
        <ele>788.0</ele>
        <time>2013-06-30T15:47:19Z</time>
      </trkpt>
      <trkpt lat="40.045400" lon="-5.592450">
        <ele>789.0</ele>
        <time>2013-06-30T15:47:20Z</time>
      </trkpt>
      <trkpt lat="40.045467" lon="-5.592533">
        <ele>789.0</ele>
        <time>2013-06-30T15:47:21Z</time>
      </trkpt>
      <trkpt lat="40.045533" lon="-5.592583">
        <ele>790.0</ele>
        <time>2013-06-30T15:47:22Z</time>
      </trkpt>
      <trkpt lat="40.045617" lon="-5.592617">
        <ele>790.0</ele>
        <time>2013-06-30T15:47:23Z</time>
      </trkpt>
      <trkpt lat="40.045700" lon="-5.592650">
        <ele>790.0</ele>
        <time>2013-06-30T15:47:24Z</time>
      </trkpt>
      <trkpt lat="40.045767" lon="-5.592650">
        <ele>790.0</ele>
        <time>2013-06-30T15:47:25Z</time>
      </trkpt>
      <trkpt lat="40.045850" lon="-5.592650">
        <ele>790.0</ele>
        <time>2013-06-30T15:47:26Z</time>
      </trkpt>
      <trkpt lat="40.045900" lon="-5.592633">
        <ele>790.0</ele>
        <time>2013-06-30T15:47:27Z</time>
      </trkpt>
      <trkpt lat="40.045983" lon="-5.592600">
        <ele>789.0</ele>
        <time>2013-06-30T15:47:28Z</time>
      </trkpt>
      <trkpt lat="40.046050" lon="-5.592567">
        <ele>787.0</ele>
        <time>2013-06-30T15:47:29Z</time>
      </trkpt>
      <trkpt lat="40.046117" lon="-5.592517">
        <ele>787.0</ele>
        <time>2013-06-30T15:47:30Z</time>
      </trkpt>
      <trkpt lat="40.046183" lon="-5.592450">
        <ele>786.0</ele>
        <time>2013-06-30T15:47:31Z</time>
      </trkpt>
      <trkpt lat="40.046233" lon="-5.592383">
        <ele>786.0</ele>
        <time>2013-06-30T15:47:32Z</time>
      </trkpt>
      <trkpt lat="40.046267" lon="-5.592317">
        <ele>786.0</ele>
        <time>2013-06-30T15:47:33Z</time>
      </trkpt>
      <trkpt lat="40.046300" lon="-5.592217">
        <ele>786.0</ele>
        <time>2013-06-30T15:47:34Z</time>
      </trkpt>
      <trkpt lat="40.046333" lon="-5.592133">
        <ele>785.0</ele>
        <time>2013-06-30T15:47:35Z</time>
      </trkpt>
      <trkpt lat="40.046333" lon="-5.592050">
        <ele>785.0</ele>
        <time>2013-06-30T15:47:36Z</time>
      </trkpt>
      <trkpt lat="40.046350" lon="-5.591950">
        <ele>785.0</ele>
        <time>2013-06-30T15:47:37Z</time>
      </trkpt>
      <trkpt lat="40.046333" lon="-5.591867">
        <ele>784.0</ele>
        <time>2013-06-30T15:47:38Z</time>
      </trkpt>
      <trkpt lat="40.046333" lon="-5.591783">
        <ele>784.0</ele>
        <time>2013-06-30T15:47:39Z</time>
      </trkpt>
      <trkpt lat="40.046317" lon="-5.591683">
        <ele>783.0</ele>
        <time>2013-06-30T15:47:40Z</time>
      </trkpt>
      <trkpt lat="40.046300" lon="-5.591583">
        <ele>782.0</ele>
        <time>2013-06-30T15:47:41Z</time>
      </trkpt>
      <trkpt lat="40.046267" lon="-5.591483">
        <ele>781.0</ele>
        <time>2013-06-30T15:47:42Z</time>
      </trkpt>
      <trkpt lat="40.046233" lon="-5.591400">
        <ele>781.0</ele>
        <time>2013-06-30T15:47:43Z</time>
      </trkpt>
      <trkpt lat="40.046200" lon="-5.591300">
        <ele>781.0</ele>
        <time>2013-06-30T15:47:44Z</time>
      </trkpt>
      <trkpt lat="40.046183" lon="-5.591217">
        <ele>780.0</ele>
        <time>2013-06-30T15:47:45Z</time>
      </trkpt>
      <trkpt lat="40.046150" lon="-5.591117">
        <ele>780.0</ele>
        <time>2013-06-30T15:47:46Z</time>
      </trkpt>
      <trkpt lat="40.046117" lon="-5.591033">
        <ele>780.0</ele>
        <time>2013-06-30T15:47:47Z</time>
      </trkpt>
      <trkpt lat="40.046083" lon="-5.590933">
        <ele>780.0</ele>
        <time>2013-06-30T15:47:48Z</time>
      </trkpt>
      <trkpt lat="40.046050" lon="-5.590850">
        <ele>780.0</ele>
        <time>2013-06-30T15:47:49Z</time>
      </trkpt>
      <trkpt lat="40.046017" lon="-5.590750">
        <ele>781.0</ele>
        <time>2013-06-30T15:47:50Z</time>
      </trkpt>
      <trkpt lat="40.045967" lon="-5.590667">
        <ele>781.0</ele>
        <time>2013-06-30T15:47:51Z</time>
      </trkpt>
      <trkpt lat="40.045933" lon="-5.590567">
        <ele>781.0</ele>
        <time>2013-06-30T15:47:52Z</time>
      </trkpt>
      <trkpt lat="40.045883" lon="-5.590467">
        <ele>781.0</ele>
        <time>2013-06-30T15:47:53Z</time>
      </trkpt>
      <trkpt lat="40.045833" lon="-5.590367">
        <ele>782.0</ele>
        <time>2013-06-30T15:47:54Z</time>
      </trkpt>
      <trkpt lat="40.045783" lon="-5.590283">
        <ele>782.0</ele>
        <time>2013-06-30T15:47:55Z</time>
      </trkpt>
      <trkpt lat="40.045733" lon="-5.590200">
        <ele>782.0</ele>
        <time>2013-06-30T15:47:56Z</time>
      </trkpt>
      <trkpt lat="40.045700" lon="-5.590100">
        <ele>783.0</ele>
        <time>2013-06-30T15:47:57Z</time>
      </trkpt>
      <trkpt lat="40.045650" lon="-5.590000">
        <ele>784.0</ele>
        <time>2013-06-30T15:47:58Z</time>
      </trkpt>
      <trkpt lat="40.045617" lon="-5.589917">
        <ele>784.0</ele>
        <time>2013-06-30T15:47:59Z</time>
      </trkpt>
      <trkpt lat="40.045583" lon="-5.589833">
        <ele>785.0</ele>
        <time>2013-06-30T15:48:00Z</time>
      </trkpt>
      <trkpt lat="40.045533" lon="-5.589750">
        <ele>785.0</ele>
        <time>2013-06-30T15:48:01Z</time>
      </trkpt>
      <trkpt lat="40.045500" lon="-5.589667">
        <ele>786.0</ele>
        <time>2013-06-30T15:48:02Z</time>
      </trkpt>
      <trkpt lat="40.045450" lon="-5.589567">
        <ele>786.0</ele>
        <time>2013-06-30T15:48:03Z</time>
      </trkpt>
      <trkpt lat="40.045383" lon="-5.589500">
        <ele>786.0</ele>
        <time>2013-06-30T15:48:04Z</time>
      </trkpt>
      <trkpt lat="40.045300" lon="-5.589433">
        <ele>785.0</ele>
        <time>2013-06-30T15:48:05Z</time>
      </trkpt>
      <trkpt lat="40.045233" lon="-5.589367">
        <ele>785.0</ele>
        <time>2013-06-30T15:48:06Z</time>
      </trkpt>
      <trkpt lat="40.045167" lon="-5.589333">
        <ele>785.0</ele>
        <time>2013-06-30T15:48:07Z</time>
      </trkpt>
      <trkpt lat="40.045083" lon="-5.589283">
        <ele>785.0</ele>
        <time>2013-06-30T15:48:08Z</time>
      </trkpt>
      <trkpt lat="40.045000" lon="-5.589267">
        <ele>785.0</ele>
        <time>2013-06-30T15:48:09Z</time>
      </trkpt>
      <trkpt lat="40.044917" lon="-5.589233">
        <ele>784.0</ele>
        <time>2013-06-30T15:48:10Z</time>
      </trkpt>
      <trkpt lat="40.044833" lon="-5.589233">
        <ele>783.0</ele>
        <time>2013-06-30T15:48:11Z</time>
      </trkpt>
      <trkpt lat="40.044733" lon="-5.589250">
        <ele>782.0</ele>
        <time>2013-06-30T15:48:12Z</time>
      </trkpt>
      <trkpt lat="40.044650" lon="-5.589267">
        <ele>781.0</ele>
        <time>2013-06-30T15:48:13Z</time>
      </trkpt>
      <trkpt lat="40.044567" lon="-5.589333">
        <ele>781.0</ele>
        <time>2013-06-30T15:48:14Z</time>
      </trkpt>
      <trkpt lat="40.044500" lon="-5.589383">
        <ele>780.0</ele>
        <time>2013-06-30T15:48:15Z</time>
      </trkpt>
      <trkpt lat="40.044433" lon="-5.589467">
        <ele>779.0</ele>
        <time>2013-06-30T15:48:16Z</time>
      </trkpt>
      <trkpt lat="40.044367" lon="-5.589550">
        <ele>779.0</ele>
        <time>2013-06-30T15:48:17Z</time>
      </trkpt>
      <trkpt lat="40.044317" lon="-5.589650">
        <ele>778.0</ele>
        <time>2013-06-30T15:48:18Z</time>
      </trkpt>
      <trkpt lat="40.044283" lon="-5.589767">
        <ele>778.0</ele>
        <time>2013-06-30T15:48:19Z</time>
      </trkpt>
      <trkpt lat="40.044267" lon="-5.589867">
        <ele>777.0</ele>
        <time>2013-06-30T15:48:20Z</time>
      </trkpt>
      <trkpt lat="40.044250" lon="-5.589983">
        <ele>776.0</ele>
        <time>2013-06-30T15:48:21Z</time>
      </trkpt>
      <trkpt lat="40.044250" lon="-5.590100">
        <ele>775.0</ele>
        <time>2013-06-30T15:48:22Z</time>
      </trkpt>
      <trkpt lat="40.044267" lon="-5.590217">
        <ele>774.0</ele>
        <time>2013-06-30T15:48:23Z</time>
      </trkpt>
      <trkpt lat="40.044283" lon="-5.590317">
        <ele>773.0</ele>
        <time>2013-06-30T15:48:24Z</time>
      </trkpt>
      <trkpt lat="40.044333" lon="-5.590417">
        <ele>772.0</ele>
        <time>2013-06-30T15:48:25Z</time>
      </trkpt>
      <trkpt lat="40.044383" lon="-5.590500">
        <ele>771.0</ele>
        <time>2013-06-30T15:48:26Z</time>
      </trkpt>
      <trkpt lat="40.044450" lon="-5.590583">
        <ele>770.0</ele>
        <time>2013-06-30T15:48:27Z</time>
      </trkpt>
      <trkpt lat="40.044500" lon="-5.590650">
        <ele>770.0</ele>
        <time>2013-06-30T15:48:28Z</time>
      </trkpt>
      <trkpt lat="40.044550" lon="-5.590700">
        <ele>770.0</ele>
        <time>2013-06-30T15:48:29Z</time>
      </trkpt>
      <trkpt lat="40.044617" lon="-5.590733">
        <ele>769.0</ele>
        <time>2013-06-30T15:48:30Z</time>
      </trkpt>
      <trkpt lat="40.044700" lon="-5.590767">
        <ele>768.0</ele>
        <time>2013-06-30T15:48:31Z</time>
      </trkpt>
      <trkpt lat="40.044783" lon="-5.590800">
        <ele>767.0</ele>
        <time>2013-06-30T15:48:32Z</time>
      </trkpt>
      <trkpt lat="40.044867" lon="-5.590800">
        <ele>766.0</ele>
        <time>2013-06-30T15:48:33Z</time>
      </trkpt>
      <trkpt lat="40.044933" lon="-5.590817">
        <ele>765.0</ele>
        <time>2013-06-30T15:48:34Z</time>
      </trkpt>
      <trkpt lat="40.045000" lon="-5.590817">
        <ele>765.0</ele>
        <time>2013-06-30T15:48:35Z</time>
      </trkpt>
      <trkpt lat="40.045067" lon="-5.590817">
        <ele>766.0</ele>
        <time>2013-06-30T15:48:36Z</time>
      </trkpt>
      <trkpt lat="40.045150" lon="-5.590800">
        <ele>765.0</ele>
        <time>2013-06-30T15:48:37Z</time>
      </trkpt>
      <trkpt lat="40.045233" lon="-5.590800">
        <ele>765.0</ele>
        <time>2013-06-30T15:48:38Z</time>
      </trkpt>
      <trkpt lat="40.045317" lon="-5.590783">
        <ele>764.0</ele>
        <time>2013-06-30T15:48:39Z</time>
      </trkpt>
      <trkpt lat="40.045383" lon="-5.590767">
        <ele>764.0</ele>
        <time>2013-06-30T15:48:40Z</time>
      </trkpt>
      <trkpt lat="40.045450" lon="-5.590733">
        <ele>765.0</ele>
        <time>2013-06-30T15:48:41Z</time>
      </trkpt>
      <trkpt lat="40.045517" lon="-5.590700">
        <ele>766.0</ele>
        <time>2013-06-30T15:48:42Z</time>
      </trkpt>
      <trkpt lat="40.045567" lon="-5.590667">
        <ele>766.0</ele>
        <time>2013-06-30T15:48:43Z</time>
      </trkpt>
      <trkpt lat="40.045633" lon="-5.590633">
        <ele>766.0</ele>
        <time>2013-06-30T15:48:44Z</time>
      </trkpt>
      <trkpt lat="40.045700" lon="-5.590583">
        <ele>766.0</ele>
        <time>2013-06-30T15:48:45Z</time>
      </trkpt>
      <trkpt lat="40.045750" lon="-5.590533">
        <ele>766.0</ele>
        <time>2013-06-30T15:48:46Z</time>
      </trkpt>
      <trkpt lat="40.045800" lon="-5.590500">
        <ele>767.0</ele>
        <time>2013-06-30T15:48:47Z</time>
      </trkpt>
      <trkpt lat="40.045833" lon="-5.590450">
        <ele>768.0</ele>
        <time>2013-06-30T15:48:48Z</time>
      </trkpt>
      <trkpt lat="40.045850" lon="-5.590383">
        <ele>767.0</ele>
        <time>2013-06-30T15:48:49Z</time>
      </trkpt>
      <trkpt lat="40.045867" lon="-5.590317">
        <ele>767.0</ele>
        <time>2013-06-30T15:48:50Z</time>
      </trkpt>
      <trkpt lat="40.045900" lon="-5.590233">
        <ele>766.0</ele>
        <time>2013-06-30T15:48:51Z</time>
      </trkpt>
      <trkpt lat="40.045917" lon="-5.590133">
        <ele>765.0</ele>
        <time>2013-06-30T15:48:52Z</time>
      </trkpt>
      <trkpt lat="40.045917" lon="-5.590050">
        <ele>765.0</ele>
        <time>2013-06-30T15:48:53Z</time>
      </trkpt>
      <trkpt lat="40.045917" lon="-5.589967">
        <ele>764.0</ele>
        <time>2013-06-30T15:48:54Z</time>
      </trkpt>
      <trkpt lat="40.045917" lon="-5.589867">
        <ele>764.0</ele>
        <time>2013-06-30T15:48:55Z</time>
      </trkpt>
      <trkpt lat="40.045900" lon="-5.589767">
        <ele>763.0</ele>
        <time>2013-06-30T15:48:56Z</time>
      </trkpt>
      <trkpt lat="40.045883" lon="-5.589667">
        <ele>763.0</ele>
        <time>2013-06-30T15:48:57Z</time>
      </trkpt>
      <trkpt lat="40.045867" lon="-5.589567">
        <ele>762.0</ele>
        <time>2013-06-30T15:48:58Z</time>
      </trkpt>
      <trkpt lat="40.045833" lon="-5.589467">
        <ele>762.0</ele>
        <time>2013-06-30T15:48:59Z</time>
      </trkpt>
      <trkpt lat="40.045800" lon="-5.589383">
        <ele>762.0</ele>
        <time>2013-06-30T15:49:00Z</time>
      </trkpt>
      <trkpt lat="40.045750" lon="-5.589300">
        <ele>760.0</ele>
        <time>2013-06-30T15:49:01Z</time>
      </trkpt>
      <trkpt lat="40.045683" lon="-5.589200">
        <ele>759.0</ele>
        <time>2013-06-30T15:49:02Z</time>
      </trkpt>
      <trkpt lat="40.045600" lon="-5.589117">
        <ele>758.0</ele>
        <time>2013-06-30T15:49:03Z</time>
      </trkpt>
      <trkpt lat="40.045533" lon="-5.589067">
        <ele>759.0</ele>
        <time>2013-06-30T15:49:04Z</time>
      </trkpt>
      <trkpt lat="40.045467" lon="-5.589033">
        <ele>760.0</ele>
        <time>2013-06-30T15:49:05Z</time>
      </trkpt>
      <trkpt lat="40.045400" lon="-5.589000">
        <ele>761.0</ele>
        <time>2013-06-30T15:49:06Z</time>
      </trkpt>
      <trkpt lat="40.045317" lon="-5.588967">
        <ele>761.0</ele>
        <time>2013-06-30T15:49:07Z</time>
      </trkpt>
      <trkpt lat="40.045233" lon="-5.588967">
        <ele>761.0</ele>
        <time>2013-06-30T15:49:08Z</time>
      </trkpt>
      <trkpt lat="40.045133" lon="-5.589000">
        <ele>759.0</ele>
        <time>2013-06-30T15:49:09Z</time>
      </trkpt>
      <trkpt lat="40.045050" lon="-5.589050">
        <ele>758.0</ele>
        <time>2013-06-30T15:49:10Z</time>
      </trkpt>
      <trkpt lat="40.044983" lon="-5.589133">
        <ele>757.0</ele>
        <time>2013-06-30T15:49:11Z</time>
      </trkpt>
      <trkpt lat="40.044933" lon="-5.589233">
        <ele>756.0</ele>
        <time>2013-06-30T15:49:12Z</time>
      </trkpt>
      <trkpt lat="40.044883" lon="-5.589333">
        <ele>755.0</ele>
        <time>2013-06-30T15:49:13Z</time>
      </trkpt>
      <trkpt lat="40.044833" lon="-5.589433">
        <ele>755.0</ele>
        <time>2013-06-30T15:49:14Z</time>
      </trkpt>
      <trkpt lat="40.044783" lon="-5.589533">
        <ele>754.0</ele>
        <time>2013-06-30T15:49:15Z</time>
      </trkpt>
      <trkpt lat="40.044750" lon="-5.589650">
        <ele>753.0</ele>
        <time>2013-06-30T15:49:16Z</time>
      </trkpt>
      <trkpt lat="40.044717" lon="-5.589750">
        <ele>752.0</ele>
        <time>2013-06-30T15:49:17Z</time>
      </trkpt>
      <trkpt lat="40.044700" lon="-5.589867">
        <ele>752.0</ele>
        <time>2013-06-30T15:49:18Z</time>
      </trkpt>
      <trkpt lat="40.044700" lon="-5.589967">
        <ele>752.0</ele>
        <time>2013-06-30T15:49:19Z</time>
      </trkpt>
      <trkpt lat="40.044700" lon="-5.590083">
        <ele>751.0</ele>
        <time>2013-06-30T15:49:20Z</time>
      </trkpt>
      <trkpt lat="40.044717" lon="-5.590200">
        <ele>750.0</ele>
        <time>2013-06-30T15:49:21Z</time>
      </trkpt>
      <trkpt lat="40.044733" lon="-5.590317">
        <ele>749.0</ele>
        <time>2013-06-30T15:49:22Z</time>
      </trkpt>
      <trkpt lat="40.044733" lon="-5.590417">
        <ele>749.0</ele>
        <time>2013-06-30T15:49:23Z</time>
      </trkpt>
      <trkpt lat="40.044767" lon="-5.590517">
        <ele>750.0</ele>
        <time>2013-06-30T15:49:24Z</time>
      </trkpt>
      <trkpt lat="40.044800" lon="-5.590600">
        <ele>750.0</ele>
        <time>2013-06-30T15:49:25Z</time>
      </trkpt>
      <trkpt lat="40.044833" lon="-5.590683">
        <ele>749.0</ele>
        <time>2013-06-30T15:49:26Z</time>
      </trkpt>
      <trkpt lat="40.044900" lon="-5.590767">
        <ele>748.0</ele>
        <time>2013-06-30T15:49:27Z</time>
      </trkpt>
      <trkpt lat="40.044967" lon="-5.590833">
        <ele>747.0</ele>
        <time>2013-06-30T15:49:28Z</time>
      </trkpt>
      <trkpt lat="40.045033" lon="-5.590900">
        <ele>747.0</ele>
        <time>2013-06-30T15:49:29Z</time>
      </trkpt>
      <trkpt lat="40.045100" lon="-5.590950">
        <ele>747.0</ele>
        <time>2013-06-30T15:49:30Z</time>
      </trkpt>
      <trkpt lat="40.045167" lon="-5.590983">
        <ele>747.0</ele>
        <time>2013-06-30T15:49:31Z</time>
      </trkpt>
      <trkpt lat="40.045250" lon="-5.591017">
        <ele>747.0</ele>
        <time>2013-06-30T15:49:32Z</time>
      </trkpt>
      <trkpt lat="40.045317" lon="-5.591033">
        <ele>747.0</ele>
        <time>2013-06-30T15:49:33Z</time>
      </trkpt>
      <trkpt lat="40.045400" lon="-5.591033">
        <ele>747.0</ele>
        <time>2013-06-30T15:49:34Z</time>
      </trkpt>
      <trkpt lat="40.045483" lon="-5.591033">
        <ele>746.0</ele>
        <time>2013-06-30T15:49:35Z</time>
      </trkpt>
      <trkpt lat="40.045567" lon="-5.591033">
        <ele>746.0</ele>
        <time>2013-06-30T15:49:36Z</time>
      </trkpt>
      <trkpt lat="40.045633" lon="-5.591000">
        <ele>747.0</ele>
        <time>2013-06-30T15:49:37Z</time>
      </trkpt>
      <trkpt lat="40.045700" lon="-5.590967">
        <ele>747.0</ele>
        <time>2013-06-30T15:49:38Z</time>
      </trkpt>
      <trkpt lat="40.045767" lon="-5.590900">
        <ele>747.0</ele>
        <time>2013-06-30T15:49:39Z</time>
      </trkpt>
      <trkpt lat="40.045817" lon="-5.590833">
        <ele>746.0</ele>
        <time>2013-06-30T15:49:40Z</time>
      </trkpt>
      <trkpt lat="40.045867" lon="-5.590750">
        <ele>746.0</ele>
        <time>2013-06-30T15:49:41Z</time>
      </trkpt>
      <trkpt lat="40.045917" lon="-5.590667">
        <ele>746.0</ele>
        <time>2013-06-30T15:49:42Z</time>
      </trkpt>
      <trkpt lat="40.045950" lon="-5.590583">
        <ele>746.0</ele>
        <time>2013-06-30T15:49:43Z</time>
      </trkpt>
      <trkpt lat="40.045967" lon="-5.590483">
        <ele>746.0</ele>
        <time>2013-06-30T15:49:44Z</time>
      </trkpt>
      <trkpt lat="40.045983" lon="-5.590383">
        <ele>746.0</ele>
        <time>2013-06-30T15:49:45Z</time>
      </trkpt>
      <trkpt lat="40.045983" lon="-5.590267">
        <ele>745.0</ele>
        <time>2013-06-30T15:49:46Z</time>
      </trkpt>
      <trkpt lat="40.045983" lon="-5.590167">
        <ele>745.0</ele>
        <time>2013-06-30T15:49:47Z</time>
      </trkpt>
      <trkpt lat="40.045983" lon="-5.590067">
        <ele>745.0</ele>
        <time>2013-06-30T15:49:48Z</time>
      </trkpt>
      <trkpt lat="40.045983" lon="-5.589950">
        <ele>745.0</ele>
        <time>2013-06-30T15:49:49Z</time>
      </trkpt>
      <trkpt lat="40.045967" lon="-5.589850">
        <ele>745.0</ele>
        <time>2013-06-30T15:49:50Z</time>
      </trkpt>
      <trkpt lat="40.045967" lon="-5.589733">
        <ele>745.0</ele>
        <time>2013-06-30T15:49:51Z</time>
      </trkpt>
      <trkpt lat="40.045950" lon="-5.589633">
        <ele>745.0</ele>
        <time>2013-06-30T15:49:52Z</time>
      </trkpt>
      <trkpt lat="40.045933" lon="-5.589533">
        <ele>746.0</ele>
        <time>2013-06-30T15:49:53Z</time>
      </trkpt>
      <trkpt lat="40.045933" lon="-5.589433">
        <ele>746.0</ele>
        <time>2013-06-30T15:49:54Z</time>
      </trkpt>
      <trkpt lat="40.045933" lon="-5.589317">
        <ele>746.0</ele>
        <time>2013-06-30T15:49:55Z</time>
      </trkpt>
      <trkpt lat="40.045933" lon="-5.589200">
        <ele>746.0</ele>
        <time>2013-06-30T15:49:56Z</time>
      </trkpt>
      <trkpt lat="40.045933" lon="-5.589083">
        <ele>747.0</ele>
        <time>2013-06-30T15:49:57Z</time>
      </trkpt>
      <trkpt lat="40.045933" lon="-5.588983">
        <ele>749.0</ele>
        <time>2013-06-30T15:49:58Z</time>
      </trkpt>
      <trkpt lat="40.045933" lon="-5.588883">
        <ele>750.0</ele>
        <time>2013-06-30T15:49:59Z</time>
      </trkpt>
      <trkpt lat="40.045933" lon="-5.588783">
        <ele>751.0</ele>
        <time>2013-06-30T15:50:00Z</time>
      </trkpt>
      <trkpt lat="40.045933" lon="-5.588667">
        <ele>750.0</ele>
        <time>2013-06-30T15:50:01Z</time>
      </trkpt>
      <trkpt lat="40.045933" lon="-5.588550">
        <ele>750.0</ele>
        <time>2013-06-30T15:50:02Z</time>
      </trkpt>
      <trkpt lat="40.045933" lon="-5.588450">
        <ele>751.0</ele>
        <time>2013-06-30T15:50:03Z</time>
      </trkpt>
      <trkpt lat="40.045950" lon="-5.588350">
        <ele>751.0</ele>
        <time>2013-06-30T15:50:04Z</time>
      </trkpt>
      <trkpt lat="40.045983" lon="-5.588250">
        <ele>752.0</ele>
        <time>2013-06-30T15:50:05Z</time>
      </trkpt>
      <trkpt lat="40.046033" lon="-5.588150">
        <ele>751.0</ele>
        <time>2013-06-30T15:50:06Z</time>
      </trkpt>
      <trkpt lat="40.046100" lon="-5.588050">
        <ele>750.0</ele>
        <time>2013-06-30T15:50:07Z</time>
      </trkpt>
      <trkpt lat="40.046167" lon="-5.587983">
        <ele>750.0</ele>
        <time>2013-06-30T15:50:08Z</time>
      </trkpt>
      <trkpt lat="40.046250" lon="-5.587933">
        <ele>751.0</ele>
        <time>2013-06-30T15:50:09Z</time>
      </trkpt>
      <trkpt lat="40.046400" lon="-5.587883">
        <ele>750.0</ele>
        <time>2013-06-30T15:50:11Z</time>
      </trkpt>
      <trkpt lat="40.046500" lon="-5.587883">
        <ele>750.0</ele>
        <time>2013-06-30T15:50:12Z</time>
      </trkpt>
      <trkpt lat="40.046583" lon="-5.587883">
        <ele>749.0</ele>
        <time>2013-06-30T15:50:13Z</time>
      </trkpt>
      <trkpt lat="40.046650" lon="-5.587900">
        <ele>748.0</ele>
        <time>2013-06-30T15:50:14Z</time>
      </trkpt>
      <trkpt lat="40.046733" lon="-5.587950">
        <ele>747.0</ele>
        <time>2013-06-30T15:50:15Z</time>
      </trkpt>
      <trkpt lat="40.046800" lon="-5.588017">
        <ele>747.0</ele>
        <time>2013-06-30T15:50:16Z</time>
      </trkpt>
      <trkpt lat="40.046867" lon="-5.588100">
        <ele>746.0</ele>
        <time>2013-06-30T15:50:17Z</time>
      </trkpt>
      <trkpt lat="40.046917" lon="-5.588167">
        <ele>746.0</ele>
        <time>2013-06-30T15:50:18Z</time>
      </trkpt>
      <trkpt lat="40.046967" lon="-5.588233">
        <ele>746.0</ele>
        <time>2013-06-30T15:50:19Z</time>
      </trkpt>
      <trkpt lat="40.047000" lon="-5.588317">
        <ele>746.0</ele>
        <time>2013-06-30T15:50:20Z</time>
      </trkpt>
      <trkpt lat="40.047033" lon="-5.588417">
        <ele>746.0</ele>
        <time>2013-06-30T15:50:21Z</time>
      </trkpt>
      <trkpt lat="40.047050" lon="-5.588517">
        <ele>745.0</ele>
        <time>2013-06-30T15:50:22Z</time>
      </trkpt>
      <trkpt lat="40.047067" lon="-5.588617">
        <ele>745.0</ele>
        <time>2013-06-30T15:50:23Z</time>
      </trkpt>
      <trkpt lat="40.047067" lon="-5.588717">
        <ele>745.0</ele>
        <time>2013-06-30T15:50:24Z</time>
      </trkpt>
      <trkpt lat="40.047050" lon="-5.588800">
        <ele>745.0</ele>
        <time>2013-06-30T15:50:25Z</time>
      </trkpt>
      <trkpt lat="40.047033" lon="-5.588900">
        <ele>745.0</ele>
        <time>2013-06-30T15:50:26Z</time>
      </trkpt>
      <trkpt lat="40.046983" lon="-5.588983">
        <ele>745.0</ele>
        <time>2013-06-30T15:50:27Z</time>
      </trkpt>
      <trkpt lat="40.046933" lon="-5.589083">
        <ele>744.0</ele>
        <time>2013-06-30T15:50:28Z</time>
      </trkpt>
      <trkpt lat="40.046883" lon="-5.589183">
        <ele>744.0</ele>
        <time>2013-06-30T15:50:29Z</time>
      </trkpt>
      <trkpt lat="40.046833" lon="-5.589267">
        <ele>744.0</ele>
        <time>2013-06-30T15:50:30Z</time>
      </trkpt>
      <trkpt lat="40.046767" lon="-5.589333">
        <ele>744.0</ele>
        <time>2013-06-30T15:50:31Z</time>
      </trkpt>
      <trkpt lat="40.046717" lon="-5.589400">
        <ele>745.0</ele>
        <time>2013-06-30T15:50:32Z</time>
      </trkpt>
      <trkpt lat="40.046650" lon="-5.589450">
        <ele>745.0</ele>
        <time>2013-06-30T15:50:33Z</time>
      </trkpt>
      <trkpt lat="40.046583" lon="-5.589517">
        <ele>745.0</ele>
        <time>2013-06-30T15:50:34Z</time>
      </trkpt>
      <trkpt lat="40.046517" lon="-5.589567">
        <ele>745.0</ele>
        <time>2013-06-30T15:50:35Z</time>
      </trkpt>
      <trkpt lat="40.046467" lon="-5.589617">
        <ele>746.0</ele>
        <time>2013-06-30T15:50:36Z</time>
      </trkpt>
      <trkpt lat="40.046417" lon="-5.589667">
        <ele>747.0</ele>
        <time>2013-06-30T15:50:37Z</time>
      </trkpt>
      <trkpt lat="40.046350" lon="-5.589700">
        <ele>747.0</ele>
        <time>2013-06-30T15:50:38Z</time>
      </trkpt>
      <trkpt lat="40.046300" lon="-5.589750">
        <ele>747.0</ele>
        <time>2013-06-30T15:50:39Z</time>
      </trkpt>
      <trkpt lat="40.046233" lon="-5.589800">
        <ele>746.0</ele>
        <time>2013-06-30T15:50:40Z</time>
      </trkpt>
      <trkpt lat="40.046150" lon="-5.589833">
        <ele>745.0</ele>
        <time>2013-06-30T15:50:41Z</time>
      </trkpt>
      <trkpt lat="40.046083" lon="-5.589883">
        <ele>745.0</ele>
        <time>2013-06-30T15:50:42Z</time>
      </trkpt>
      <trkpt lat="40.046017" lon="-5.589917">
        <ele>744.0</ele>
        <time>2013-06-30T15:50:43Z</time>
      </trkpt>
      <trkpt lat="40.045950" lon="-5.589950">
        <ele>744.0</ele>
        <time>2013-06-30T15:50:44Z</time>
      </trkpt>
      <trkpt lat="40.045867" lon="-5.589983">
        <ele>743.0</ele>
        <time>2013-06-30T15:50:45Z</time>
      </trkpt>
      <trkpt lat="40.045800" lon="-5.590033">
        <ele>743.0</ele>
        <time>2013-06-30T15:50:46Z</time>
      </trkpt>
      <trkpt lat="40.045733" lon="-5.590083">
        <ele>743.0</ele>
        <time>2013-06-30T15:50:47Z</time>
      </trkpt>
      <trkpt lat="40.045683" lon="-5.590133">
        <ele>743.0</ele>
        <time>2013-06-30T15:50:48Z</time>
      </trkpt>
      <trkpt lat="40.045617" lon="-5.590200">
        <ele>742.0</ele>
        <time>2013-06-30T15:50:49Z</time>
      </trkpt>
      <trkpt lat="40.045567" lon="-5.590250">
        <ele>742.0</ele>
        <time>2013-06-30T15:50:50Z</time>
      </trkpt>
      <trkpt lat="40.045500" lon="-5.590317">
        <ele>741.0</ele>
        <time>2013-06-30T15:50:51Z</time>
      </trkpt>
      <trkpt lat="40.045450" lon="-5.590383">
        <ele>742.0</ele>
        <time>2013-06-30T15:50:52Z</time>
      </trkpt>
      <trkpt lat="40.045383" lon="-5.590467">
        <ele>741.0</ele>
        <time>2013-06-30T15:50:53Z</time>
      </trkpt>
      <trkpt lat="40.045333" lon="-5.590533">
        <ele>742.0</ele>
        <time>2013-06-30T15:50:54Z</time>
      </trkpt>
      <trkpt lat="40.045267" lon="-5.590633">
        <ele>742.0</ele>
        <time>2013-06-30T15:50:55Z</time>
      </trkpt>
      <trkpt lat="40.045217" lon="-5.590717">
        <ele>743.0</ele>
        <time>2013-06-30T15:50:56Z</time>
      </trkpt>
      <trkpt lat="40.045167" lon="-5.590800">
        <ele>744.0</ele>
        <time>2013-06-30T15:50:57Z</time>
      </trkpt>
      <trkpt lat="40.045117" lon="-5.590883">
        <ele>745.0</ele>
        <time>2013-06-30T15:50:58Z</time>
      </trkpt>
      <trkpt lat="40.045067" lon="-5.590967">
        <ele>746.0</ele>
        <time>2013-06-30T15:50:59Z</time>
      </trkpt>
      <trkpt lat="40.045017" lon="-5.591050">
        <ele>746.0</ele>
        <time>2013-06-30T15:51:00Z</time>
      </trkpt>
      <trkpt lat="40.044967" lon="-5.591133">
        <ele>747.0</ele>
        <time>2013-06-30T15:51:01Z</time>
      </trkpt>
      <trkpt lat="40.044917" lon="-5.591217">
        <ele>748.0</ele>
        <time>2013-06-30T15:51:02Z</time>
      </trkpt>
      <trkpt lat="40.044867" lon="-5.591300">
        <ele>748.0</ele>
        <time>2013-06-30T15:51:03Z</time>
      </trkpt>
      <trkpt lat="40.044800" lon="-5.591383">
        <ele>748.0</ele>
        <time>2013-06-30T15:51:04Z</time>
      </trkpt>
      <trkpt lat="40.044750" lon="-5.591467">
        <ele>748.0</ele>
        <time>2013-06-30T15:51:05Z</time>
      </trkpt>
      <trkpt lat="40.044700" lon="-5.591550">
        <ele>749.0</ele>
        <time>2013-06-30T15:51:06Z</time>
      </trkpt>
      <trkpt lat="40.044667" lon="-5.591633">
        <ele>749.0</ele>
        <time>2013-06-30T15:51:07Z</time>
      </trkpt>
      <trkpt lat="40.044633" lon="-5.591733">
        <ele>750.0</ele>
        <time>2013-06-30T15:51:08Z</time>
      </trkpt>
      <trkpt lat="40.044617" lon="-5.591833">
        <ele>750.0</ele>
        <time>2013-06-30T15:51:09Z</time>
      </trkpt>
      <trkpt lat="40.044617" lon="-5.591967">
        <ele>749.0</ele>
        <time>2013-06-30T15:51:10Z</time>
      </trkpt>
      <trkpt lat="40.044617" lon="-5.592083">
        <ele>749.0</ele>
        <time>2013-06-30T15:51:11Z</time>
      </trkpt>
      <trkpt lat="40.044650" lon="-5.592183">
        <ele>748.0</ele>
        <time>2013-06-30T15:51:12Z</time>
      </trkpt>
      <trkpt lat="40.044700" lon="-5.592283">
        <ele>747.0</ele>
        <time>2013-06-30T15:51:13Z</time>
      </trkpt>
      <trkpt lat="40.044783" lon="-5.592367">
        <ele>746.0</ele>
        <time>2013-06-30T15:51:14Z</time>
      </trkpt>
      <trkpt lat="40.044867" lon="-5.592433">
        <ele>745.0</ele>
        <time>2013-06-30T15:51:15Z</time>
      </trkpt>
      <trkpt lat="40.044933" lon="-5.592483">
        <ele>745.0</ele>
        <time>2013-06-30T15:51:16Z</time>
      </trkpt>
      <trkpt lat="40.045000" lon="-5.592517">
        <ele>745.0</ele>
        <time>2013-06-30T15:51:17Z</time>
      </trkpt>
      <trkpt lat="40.045083" lon="-5.592533">
        <ele>745.0</ele>
        <time>2013-06-30T15:51:18Z</time>
      </trkpt>
      <trkpt lat="40.045250" lon="-5.592500">
        <ele>743.0</ele>
        <time>2013-06-30T15:51:20Z</time>
      </trkpt>
      <trkpt lat="40.045333" lon="-5.592467">
        <ele>741.0</ele>
        <time>2013-06-30T15:51:21Z</time>
      </trkpt>
      <trkpt lat="40.045383" lon="-5.592400">
        <ele>741.0</ele>
        <time>2013-06-30T15:51:22Z</time>
      </trkpt>
      <trkpt lat="40.045433" lon="-5.592350">
        <ele>740.0</ele>
        <time>2013-06-30T15:51:23Z</time>
      </trkpt>
      <trkpt lat="40.045467" lon="-5.592300">
        <ele>740.0</ele>
        <time>2013-06-30T15:51:24Z</time>
      </trkpt>
      <trkpt lat="40.045500" lon="-5.592233">
        <ele>739.0</ele>
        <time>2013-06-30T15:51:25Z</time>
      </trkpt>
      <trkpt lat="40.045533" lon="-5.592150">
        <ele>737.0</ele>
        <time>2013-06-30T15:51:26Z</time>
      </trkpt>
      <trkpt lat="40.045567" lon="-5.592050">
        <ele>735.0</ele>
        <time>2013-06-30T15:51:27Z</time>
      </trkpt>
      <trkpt lat="40.045583" lon="-5.591950">
        <ele>735.0</ele>
        <time>2013-06-30T15:51:28Z</time>
      </trkpt>
      <trkpt lat="40.045600" lon="-5.591850">
        <ele>735.0</ele>
        <time>2013-06-30T15:51:29Z</time>
      </trkpt>
      <trkpt lat="40.045600" lon="-5.591767">
        <ele>735.0</ele>
        <time>2013-06-30T15:51:30Z</time>
      </trkpt>
      <trkpt lat="40.045600" lon="-5.591700">
        <ele>736.0</ele>
        <time>2013-06-30T15:51:31Z</time>
      </trkpt>
      <trkpt lat="40.045600" lon="-5.591600">
        <ele>735.0</ele>
        <time>2013-06-30T15:51:32Z</time>
      </trkpt>
      <trkpt lat="40.045600" lon="-5.591500">
        <ele>735.0</ele>
        <time>2013-06-30T15:51:33Z</time>
      </trkpt>
      <trkpt lat="40.045600" lon="-5.591383">
        <ele>735.0</ele>
        <time>2013-06-30T15:51:34Z</time>
      </trkpt>
      <trkpt lat="40.045600" lon="-5.591200">
        <ele>735.0</ele>
        <time>2013-06-30T15:51:36Z</time>
      </trkpt>
      <trkpt lat="40.045583" lon="-5.591133">
        <ele>736.0</ele>
        <time>2013-06-30T15:51:37Z</time>
      </trkpt>
      <trkpt lat="40.045567" lon="-5.591050">
        <ele>736.0</ele>
        <time>2013-06-30T15:51:38Z</time>
      </trkpt>
      <trkpt lat="40.045533" lon="-5.590950">
        <ele>736.0</ele>
        <time>2013-06-30T15:51:39Z</time>
      </trkpt>
      <trkpt lat="40.045483" lon="-5.590867">
        <ele>734.0</ele>
        <time>2013-06-30T15:51:40Z</time>
      </trkpt>
      <trkpt lat="40.045417" lon="-5.590783">
        <ele>733.0</ele>
        <time>2013-06-30T15:51:41Z</time>
      </trkpt>
      <trkpt lat="40.045350" lon="-5.590733">
        <ele>734.0</ele>
        <time>2013-06-30T15:51:42Z</time>
      </trkpt>
      <trkpt lat="40.045283" lon="-5.590700">
        <ele>735.0</ele>
        <time>2013-06-30T15:51:43Z</time>
      </trkpt>
      <trkpt lat="40.045217" lon="-5.590683">
        <ele>735.0</ele>
        <time>2013-06-30T15:51:44Z</time>
      </trkpt>
      <trkpt lat="40.045133" lon="-5.590667">
        <ele>736.0</ele>
        <time>2013-06-30T15:51:45Z</time>
      </trkpt>
      <trkpt lat="40.045067" lon="-5.590650">
        <ele>736.0</ele>
        <time>2013-06-30T15:51:46Z</time>
      </trkpt>
      <trkpt lat="40.044983" lon="-5.590633">
        <ele>735.0</ele>
        <time>2013-06-30T15:51:47Z</time>
      </trkpt>
      <trkpt lat="40.044883" lon="-5.590617">
        <ele>735.0</ele>
        <time>2013-06-30T15:51:48Z</time>
      </trkpt>
      <trkpt lat="40.044800" lon="-5.590617">
        <ele>736.0</ele>
        <time>2013-06-30T15:51:49Z</time>
      </trkpt>
      <trkpt lat="40.044733" lon="-5.590650">
        <ele>738.0</ele>
        <time>2013-06-30T15:51:50Z</time>
      </trkpt>
      <trkpt lat="40.044667" lon="-5.590717">
        <ele>737.0</ele>
        <time>2013-06-30T15:51:51Z</time>
      </trkpt>
      <trkpt lat="40.044617" lon="-5.590817">
        <ele>737.0</ele>
        <time>2013-06-30T15:51:52Z</time>
      </trkpt>
      <trkpt lat="40.044583" lon="-5.590917">
        <ele>736.0</ele>
        <time>2013-06-30T15:51:53Z</time>
      </trkpt>
      <trkpt lat="40.044583" lon="-5.591033">
        <ele>736.0</ele>
        <time>2013-06-30T15:51:54Z</time>
      </trkpt>
      <trkpt lat="40.044583" lon="-5.591150">
        <ele>737.0</ele>
        <time>2013-06-30T15:51:55Z</time>
      </trkpt>
      <trkpt lat="40.044617" lon="-5.591233">
        <ele>737.0</ele>
        <time>2013-06-30T15:51:56Z</time>
      </trkpt>
      <trkpt lat="40.044667" lon="-5.591317">
        <ele>737.0</ele>
        <time>2013-06-30T15:51:57Z</time>
      </trkpt>
      <trkpt lat="40.044717" lon="-5.591383">
        <ele>737.0</ele>
        <time>2013-06-30T15:51:58Z</time>
      </trkpt>
      <trkpt lat="40.044800" lon="-5.591433">
        <ele>738.0</ele>
        <time>2013-06-30T15:51:59Z</time>
      </trkpt>
      <trkpt lat="40.044867" lon="-5.591450">
        <ele>738.0</ele>
        <time>2013-06-30T15:52:00Z</time>
      </trkpt>
      <trkpt lat="40.044950" lon="-5.591450">
        <ele>738.0</ele>
        <time>2013-06-30T15:52:01Z</time>
      </trkpt>
      <trkpt lat="40.045017" lon="-5.591433">
        <ele>737.0</ele>
        <time>2013-06-30T15:52:02Z</time>
      </trkpt>
      <trkpt lat="40.045100" lon="-5.591400">
        <ele>737.0</ele>
        <time>2013-06-30T15:52:03Z</time>
      </trkpt>
      <trkpt lat="40.045167" lon="-5.591333">
        <ele>738.0</ele>
        <time>2013-06-30T15:52:04Z</time>
      </trkpt>
      <trkpt lat="40.045217" lon="-5.591267">
        <ele>739.0</ele>
        <time>2013-06-30T15:52:05Z</time>
      </trkpt>
      <trkpt lat="40.045267" lon="-5.591200">
        <ele>740.0</ele>
        <time>2013-06-30T15:52:06Z</time>
      </trkpt>
      <trkpt lat="40.045283" lon="-5.591133">
        <ele>741.0</ele>
        <time>2013-06-30T15:52:07Z</time>
      </trkpt>
      <trkpt lat="40.045300" lon="-5.591033">
        <ele>742.0</ele>
        <time>2013-06-30T15:52:08Z</time>
      </trkpt>
      <trkpt lat="40.045333" lon="-5.590933">
        <ele>742.0</ele>
        <time>2013-06-30T15:52:09Z</time>
      </trkpt>
      <trkpt lat="40.045350" lon="-5.590850">
        <ele>743.0</ele>
        <time>2013-06-30T15:52:10Z</time>
      </trkpt>
      <trkpt lat="40.045367" lon="-5.590750">
        <ele>743.0</ele>
        <time>2013-06-30T15:52:11Z</time>
      </trkpt>
      <trkpt lat="40.045383" lon="-5.590650">
        <ele>744.0</ele>
        <time>2013-06-30T15:52:12Z</time>
      </trkpt>
      <trkpt lat="40.045383" lon="-5.590567">
        <ele>745.0</ele>
        <time>2013-06-30T15:52:13Z</time>
      </trkpt>
      <trkpt lat="40.045383" lon="-5.590467">
        <ele>745.0</ele>
        <time>2013-06-30T15:52:14Z</time>
      </trkpt>
      <trkpt lat="40.045367" lon="-5.590367">
        <ele>745.0</ele>
        <time>2013-06-30T15:52:15Z</time>
      </trkpt>
      <trkpt lat="40.045333" lon="-5.590267">
        <ele>745.0</ele>
        <time>2013-06-30T15:52:16Z</time>
      </trkpt>
      <trkpt lat="40.045317" lon="-5.590150">
        <ele>746.0</ele>
        <time>2013-06-30T15:52:17Z</time>
      </trkpt>
      <trkpt lat="40.045283" lon="-5.590050">
        <ele>747.0</ele>
        <time>2013-06-30T15:52:18Z</time>
      </trkpt>
      <trkpt lat="40.045250" lon="-5.589967">
        <ele>749.0</ele>
        <time>2013-06-30T15:52:19Z</time>
      </trkpt>
      <trkpt lat="40.045217" lon="-5.589900">
        <ele>751.0</ele>
        <time>2013-06-30T15:52:20Z</time>
      </trkpt>
      <trkpt lat="40.045183" lon="-5.589833">
        <ele>753.0</ele>
        <time>2013-06-30T15:52:21Z</time>
      </trkpt>
      <trkpt lat="40.045150" lon="-5.589750">
        <ele>754.0</ele>
        <time>2013-06-30T15:52:22Z</time>
      </trkpt>
      <trkpt lat="40.045100" lon="-5.589683">
        <ele>755.0</ele>
        <time>2013-06-30T15:52:23Z</time>
      </trkpt>
      <trkpt lat="40.045050" lon="-5.589617">
        <ele>756.0</ele>
        <time>2013-06-30T15:52:24Z</time>
      </trkpt>
      <trkpt lat="40.044983" lon="-5.589550">
        <ele>757.0</ele>
        <time>2013-06-30T15:52:25Z</time>
      </trkpt>
      <trkpt lat="40.044917" lon="-5.589500">
        <ele>759.0</ele>
        <time>2013-06-30T15:52:26Z</time>
      </trkpt>
      <trkpt lat="40.044867" lon="-5.589433">
        <ele>760.0</ele>
        <time>2013-06-30T15:52:27Z</time>
      </trkpt>
      <trkpt lat="40.044800" lon="-5.589367">
        <ele>763.0</ele>
        <time>2013-06-30T15:52:28Z</time>
      </trkpt>
      <trkpt lat="40.044767" lon="-5.589283">
        <ele>765.0</ele>
        <time>2013-06-30T15:52:29Z</time>
      </trkpt>
      <trkpt lat="40.044733" lon="-5.589167">
        <ele>767.0</ele>
        <time>2013-06-30T15:52:30Z</time>
      </trkpt>
      <trkpt lat="40.044733" lon="-5.589067">
        <ele>770.0</ele>
        <time>2013-06-30T15:52:31Z</time>
      </trkpt>
      <trkpt lat="40.044733" lon="-5.588967">
        <ele>772.0</ele>
        <time>2013-06-30T15:52:32Z</time>
      </trkpt>
      <trkpt lat="40.044750" lon="-5.588883">
        <ele>774.0</ele>
        <time>2013-06-30T15:52:33Z</time>
      </trkpt>
      <trkpt lat="40.044767" lon="-5.588800">
        <ele>776.0</ele>
        <time>2013-06-30T15:52:34Z</time>
      </trkpt>
      <trkpt lat="40.044800" lon="-5.588733">
        <ele>777.0</ele>
        <time>2013-06-30T15:52:35Z</time>
      </trkpt>
      <trkpt lat="40.044867" lon="-5.588650">
        <ele>778.0</ele>
        <time>2013-06-30T15:52:36Z</time>
      </trkpt>
      <trkpt lat="40.044917" lon="-5.588600">
        <ele>779.0</ele>
        <time>2013-06-30T15:52:37Z</time>
      </trkpt>
      <trkpt lat="40.045000" lon="-5.588567">
        <ele>781.0</ele>
        <time>2013-06-30T15:52:38Z</time>
      </trkpt>
      <trkpt lat="40.045067" lon="-5.588550">
        <ele>782.0</ele>
        <time>2013-06-30T15:52:39Z</time>
      </trkpt>
      <trkpt lat="40.045133" lon="-5.588567">
        <ele>783.0</ele>
        <time>2013-06-30T15:52:40Z</time>
      </trkpt>
      <trkpt lat="40.045217" lon="-5.588600">
        <ele>783.0</ele>
        <time>2013-06-30T15:52:41Z</time>
      </trkpt>
      <trkpt lat="40.045283" lon="-5.588650">
        <ele>783.0</ele>
        <time>2013-06-30T15:52:42Z</time>
      </trkpt>
      <trkpt lat="40.045367" lon="-5.588733">
        <ele>782.0</ele>
        <time>2013-06-30T15:52:43Z</time>
      </trkpt>
      <trkpt lat="40.045417" lon="-5.588817">
        <ele>782.0</ele>
        <time>2013-06-30T15:52:44Z</time>
      </trkpt>
      <trkpt lat="40.045450" lon="-5.588900">
        <ele>783.0</ele>
        <time>2013-06-30T15:52:45Z</time>
      </trkpt>
      <trkpt lat="40.045483" lon="-5.589000">
        <ele>784.0</ele>
        <time>2013-06-30T15:52:46Z</time>
      </trkpt>
      <trkpt lat="40.045500" lon="-5.589117">
        <ele>785.0</ele>
        <time>2013-06-30T15:52:47Z</time>
      </trkpt>
      <trkpt lat="40.045533" lon="-5.589233">
        <ele>784.0</ele>
        <time>2013-06-30T15:52:48Z</time>
      </trkpt>
      <trkpt lat="40.045533" lon="-5.589350">
        <ele>785.0</ele>
        <time>2013-06-30T15:52:49Z</time>
      </trkpt>
      <trkpt lat="40.045533" lon="-5.589467">
        <ele>786.0</ele>
        <time>2013-06-30T15:52:50Z</time>
      </trkpt>
      <trkpt lat="40.045517" lon="-5.589567">
        <ele>788.0</ele>
        <time>2013-06-30T15:52:51Z</time>
      </trkpt>
      <trkpt lat="40.045483" lon="-5.589650">
        <ele>790.0</ele>
        <time>2013-06-30T15:52:52Z</time>
      </trkpt>
      <trkpt lat="40.045433" lon="-5.589750">
        <ele>791.0</ele>
        <time>2013-06-30T15:52:53Z</time>
      </trkpt>
      <trkpt lat="40.045383" lon="-5.589833">
        <ele>793.0</ele>
        <time>2013-06-30T15:52:54Z</time>
      </trkpt>
      <trkpt lat="40.045350" lon="-5.589917">
        <ele>796.0</ele>
        <time>2013-06-30T15:52:55Z</time>
      </trkpt>
      <trkpt lat="40.045300" lon="-5.589967">
        <ele>798.0</ele>
        <time>2013-06-30T15:52:56Z</time>
      </trkpt>
      <trkpt lat="40.045250" lon="-5.590033">
        <ele>800.0</ele>
        <time>2013-06-30T15:52:57Z</time>
      </trkpt>
      <trkpt lat="40.045183" lon="-5.590083">
        <ele>801.0</ele>
        <time>2013-06-30T15:52:58Z</time>
      </trkpt>
      <trkpt lat="40.045117" lon="-5.590133">
        <ele>802.0</ele>
        <time>2013-06-30T15:52:59Z</time>
      </trkpt>
      <trkpt lat="40.045033" lon="-5.590167">
        <ele>802.0</ele>
        <time>2013-06-30T15:53:00Z</time>
      </trkpt>
      <trkpt lat="40.044950" lon="-5.590200">
        <ele>804.0</ele>
        <time>2013-06-30T15:53:01Z</time>
      </trkpt>
      <trkpt lat="40.044883" lon="-5.590200">
        <ele>805.0</ele>
        <time>2013-06-30T15:53:02Z</time>
      </trkpt>
      <trkpt lat="40.044800" lon="-5.590183">
        <ele>806.0</ele>
        <time>2013-06-30T15:53:03Z</time>
      </trkpt>
      <trkpt lat="40.044717" lon="-5.590167">
        <ele>807.0</ele>
        <time>2013-06-30T15:53:04Z</time>
      </trkpt>
      <trkpt lat="40.044633" lon="-5.590150">
        <ele>807.0</ele>
        <time>2013-06-30T15:53:05Z</time>
      </trkpt>
      <trkpt lat="40.044550" lon="-5.590117">
        <ele>808.0</ele>
        <time>2013-06-30T15:53:06Z</time>
      </trkpt>
      <trkpt lat="40.044483" lon="-5.590050">
        <ele>807.0</ele>
        <time>2013-06-30T15:53:07Z</time>
      </trkpt>
      <trkpt lat="40.044417" lon="-5.589983">
        <ele>807.0</ele>
        <time>2013-06-30T15:53:08Z</time>
      </trkpt>
      <trkpt lat="40.044367" lon="-5.589917">
        <ele>807.0</ele>
        <time>2013-06-30T15:53:09Z</time>
      </trkpt>
      <trkpt lat="40.044300" lon="-5.589833">
        <ele>807.0</ele>
        <time>2013-06-30T15:53:10Z</time>
      </trkpt>
      <trkpt lat="40.044250" lon="-5.589733">
        <ele>806.0</ele>
        <time>2013-06-30T15:53:11Z</time>
      </trkpt>
      <trkpt lat="40.044200" lon="-5.589633">
        <ele>806.0</ele>
        <time>2013-06-30T15:53:12Z</time>
      </trkpt>
      <trkpt lat="40.044167" lon="-5.589533">
        <ele>807.0</ele>
        <time>2013-06-30T15:53:13Z</time>
      </trkpt>
      <trkpt lat="40.044150" lon="-5.589433">
        <ele>807.0</ele>
        <time>2013-06-30T15:53:14Z</time>
      </trkpt>
      <trkpt lat="40.044133" lon="-5.589333">
        <ele>808.0</ele>
        <time>2013-06-30T15:53:15Z</time>
      </trkpt>
      <trkpt lat="40.044133" lon="-5.589250">
        <ele>809.0</ele>
        <time>2013-06-30T15:53:16Z</time>
      </trkpt>
      <trkpt lat="40.044100" lon="-5.589150">
        <ele>811.0</ele>
        <time>2013-06-30T15:53:17Z</time>
      </trkpt>
      <trkpt lat="40.044083" lon="-5.589067">
        <ele>813.0</ele>
        <time>2013-06-30T15:53:18Z</time>
      </trkpt>
      <trkpt lat="40.044050" lon="-5.588967">
        <ele>815.0</ele>
        <time>2013-06-30T15:53:19Z</time>
      </trkpt>
      <trkpt lat="40.044067" lon="-5.588883">
        <ele>817.0</ele>
        <time>2013-06-30T15:53:20Z</time>
      </trkpt>
      <trkpt lat="40.044083" lon="-5.588783">
        <ele>819.0</ele>
        <time>2013-06-30T15:53:21Z</time>
      </trkpt>
      <trkpt lat="40.044133" lon="-5.588717">
        <ele>820.0</ele>
        <time>2013-06-30T15:53:22Z</time>
      </trkpt>
      <trkpt lat="40.044183" lon="-5.588650">
        <ele>822.0</ele>
        <time>2013-06-30T15:53:23Z</time>
      </trkpt>
      <trkpt lat="40.044250" lon="-5.588600">
        <ele>824.0</ele>
        <time>2013-06-30T15:53:24Z</time>
      </trkpt>
      <trkpt lat="40.044300" lon="-5.588567">
        <ele>826.0</ele>
        <time>2013-06-30T15:53:25Z</time>
      </trkpt>
      <trkpt lat="40.044433" lon="-5.588567">
        <ele>828.0</ele>
        <time>2013-06-30T15:53:27Z</time>
      </trkpt>
      <trkpt lat="40.044500" lon="-5.588583">
        <ele>830.0</ele>
        <time>2013-06-30T15:53:28Z</time>
      </trkpt>
      <trkpt lat="40.044567" lon="-5.588617">
        <ele>831.0</ele>
        <time>2013-06-30T15:53:29Z</time>
      </trkpt>
      <trkpt lat="40.044617" lon="-5.588667">
        <ele>832.0</ele>
        <time>2013-06-30T15:53:30Z</time>
      </trkpt>
      <trkpt lat="40.044667" lon="-5.588733">
        <ele>832.0</ele>
        <time>2013-06-30T15:53:31Z</time>
      </trkpt>
      <trkpt lat="40.044717" lon="-5.588800">
        <ele>832.0</ele>
        <time>2013-06-30T15:53:32Z</time>
      </trkpt>
      <trkpt lat="40.044783" lon="-5.588883">
        <ele>832.0</ele>
        <time>2013-06-30T15:53:33Z</time>
      </trkpt>
      <trkpt lat="40.044833" lon="-5.588967">
        <ele>832.0</ele>
        <time>2013-06-30T15:53:34Z</time>
      </trkpt>
      <trkpt lat="40.044867" lon="-5.589067">
        <ele>833.0</ele>
        <time>2013-06-30T15:53:35Z</time>
      </trkpt>
      <trkpt lat="40.044883" lon="-5.589167">
        <ele>835.0</ele>
        <time>2013-06-30T15:53:36Z</time>
      </trkpt>
      <trkpt lat="40.044883" lon="-5.589283">
        <ele>835.0</ele>
        <time>2013-06-30T15:53:37Z</time>
      </trkpt>
      <trkpt lat="40.044883" lon="-5.589400">
        <ele>835.0</ele>
        <time>2013-06-30T15:53:38Z</time>
      </trkpt>
      <trkpt lat="40.044850" lon="-5.589533">
        <ele>835.0</ele>
        <time>2013-06-30T15:53:39Z</time>
      </trkpt>
      <trkpt lat="40.044817" lon="-5.589667">
        <ele>836.0</ele>
        <time>2013-06-30T15:53:40Z</time>
      </trkpt>
      <trkpt lat="40.044783" lon="-5.589767">
        <ele>838.0</ele>
        <time>2013-06-30T15:53:41Z</time>
      </trkpt>
      <trkpt lat="40.044733" lon="-5.589867">
        <ele>842.0</ele>
        <time>2013-06-30T15:53:42Z</time>
      </trkpt>
      <trkpt lat="40.044667" lon="-5.589933">
        <ele>844.0</ele>
        <time>2013-06-30T15:53:43Z</time>
      </trkpt>
      <trkpt lat="40.044600" lon="-5.590017">
        <ele>846.0</ele>
        <time>2013-06-30T15:53:44Z</time>
      </trkpt>
      <trkpt lat="40.044533" lon="-5.590100">
        <ele>848.0</ele>
        <time>2013-06-30T15:53:45Z</time>
      </trkpt>
      <trkpt lat="40.044450" lon="-5.590167">
        <ele>848.0</ele>
        <time>2013-06-30T15:53:46Z</time>
      </trkpt>
      <trkpt lat="40.044367" lon="-5.590233">
        <ele>850.0</ele>
        <time>2013-06-30T15:53:47Z</time>
      </trkpt>
      <trkpt lat="40.044283" lon="-5.590250">
        <ele>852.0</ele>
        <time>2013-06-30T15:53:48Z</time>
      </trkpt>
      <trkpt lat="40.044217" lon="-5.590267">
        <ele>853.0</ele>
        <time>2013-06-30T15:53:49Z</time>
      </trkpt>
      <trkpt lat="40.044117" lon="-5.590283">
        <ele>853.0</ele>
        <time>2013-06-30T15:53:50Z</time>
      </trkpt>
      <trkpt lat="40.044033" lon="-5.590283">
        <ele>853.0</ele>
        <time>2013-06-30T15:53:51Z</time>
      </trkpt>
      <trkpt lat="40.043950" lon="-5.590283">
        <ele>854.0</ele>
        <time>2013-06-30T15:53:52Z</time>
      </trkpt>
      <trkpt lat="40.043867" lon="-5.590267">
        <ele>856.0</ele>
        <time>2013-06-30T15:53:53Z</time>
      </trkpt>
      <trkpt lat="40.043800" lon="-5.590217">
        <ele>858.0</ele>
        <time>2013-06-30T15:53:54Z</time>
      </trkpt>
      <trkpt lat="40.043750" lon="-5.590167">
        <ele>859.0</ele>
        <time>2013-06-30T15:53:55Z</time>
      </trkpt>
      <trkpt lat="40.043683" lon="-5.590117">
        <ele>859.0</ele>
        <time>2013-06-30T15:53:56Z</time>
      </trkpt>
      <trkpt lat="40.043617" lon="-5.590050">
        <ele>860.0</ele>
        <time>2013-06-30T15:53:57Z</time>
      </trkpt>
      <trkpt lat="40.043567" lon="-5.589983">
        <ele>861.0</ele>
        <time>2013-06-30T15:53:58Z</time>
      </trkpt>
      <trkpt lat="40.043517" lon="-5.589917">
        <ele>862.0</ele>
        <time>2013-06-30T15:53:59Z</time>
      </trkpt>
      <trkpt lat="40.043483" lon="-5.589850">
        <ele>863.0</ele>
        <time>2013-06-30T15:54:00Z</time>
      </trkpt>
      <trkpt lat="40.043433" lon="-5.589767">
        <ele>863.0</ele>
        <time>2013-06-30T15:54:01Z</time>
      </trkpt>
      <trkpt lat="40.043400" lon="-5.589683">
        <ele>864.0</ele>
        <time>2013-06-30T15:54:02Z</time>
      </trkpt>
      <trkpt lat="40.043367" lon="-5.589583">
        <ele>864.0</ele>
        <time>2013-06-30T15:54:03Z</time>
      </trkpt>
      <trkpt lat="40.043333" lon="-5.589500">
        <ele>865.0</ele>
        <time>2013-06-30T15:54:04Z</time>
      </trkpt>
      <trkpt lat="40.043317" lon="-5.589417">
        <ele>866.0</ele>
        <time>2013-06-30T15:54:05Z</time>
      </trkpt>
      <trkpt lat="40.043300" lon="-5.589333">
        <ele>868.0</ele>
        <time>2013-06-30T15:54:06Z</time>
      </trkpt>
      <trkpt lat="40.043300" lon="-5.589250">
        <ele>869.0</ele>
        <time>2013-06-30T15:54:07Z</time>
      </trkpt>
      <trkpt lat="40.043300" lon="-5.589167">
        <ele>869.0</ele>
        <time>2013-06-30T15:54:08Z</time>
      </trkpt>
      <trkpt lat="40.043300" lon="-5.589067">
        <ele>870.0</ele>
        <time>2013-06-30T15:54:09Z</time>
      </trkpt>
      <trkpt lat="40.043300" lon="-5.588967">
        <ele>871.0</ele>
        <time>2013-06-30T15:54:10Z</time>
      </trkpt>
      <trkpt lat="40.043333" lon="-5.588867">
        <ele>872.0</ele>
        <time>2013-06-30T15:54:11Z</time>
      </trkpt>
      <trkpt lat="40.043350" lon="-5.588783">
        <ele>874.0</ele>
        <time>2013-06-30T15:54:12Z</time>
      </trkpt>
      <trkpt lat="40.043383" lon="-5.588733">
        <ele>876.0</ele>
        <time>2013-06-30T15:54:13Z</time>
      </trkpt>
      <trkpt lat="40.043417" lon="-5.588683">
        <ele>878.0</ele>
        <time>2013-06-30T15:54:14Z</time>
      </trkpt>
      <trkpt lat="40.043450" lon="-5.588650">
        <ele>878.0</ele>
        <time>2013-06-30T15:54:15Z</time>
      </trkpt>
      <trkpt lat="40.043500" lon="-5.588617">
        <ele>877.0</ele>
        <time>2013-06-30T15:54:16Z</time>
      </trkpt>
      <trkpt lat="40.043567" lon="-5.588600">
        <ele>877.0</ele>
        <time>2013-06-30T15:54:17Z</time>
      </trkpt>
      <trkpt lat="40.043683" lon="-5.588600">
        <ele>879.0</ele>
        <time>2013-06-30T15:54:19Z</time>
      </trkpt>
      <trkpt lat="40.043733" lon="-5.588617">
        <ele>880.0</ele>
        <time>2013-06-30T15:54:20Z</time>
      </trkpt>
      <trkpt lat="40.043783" lon="-5.588650">
        <ele>880.0</ele>
        <time>2013-06-30T15:54:21Z</time>
      </trkpt>
      <trkpt lat="40.043850" lon="-5.588700">
        <ele>879.0</ele>
        <time>2013-06-30T15:54:22Z</time>
      </trkpt>
      <trkpt lat="40.043917" lon="-5.588750">
        <ele>878.0</ele>
        <time>2013-06-30T15:54:23Z</time>
      </trkpt>
      <trkpt lat="40.043967" lon="-5.588833">
        <ele>877.0</ele>
        <time>2013-06-30T15:54:24Z</time>
      </trkpt>
      <trkpt lat="40.044017" lon="-5.588917">
        <ele>876.0</ele>
        <time>2013-06-30T15:54:25Z</time>
      </trkpt>
      <trkpt lat="40.044083" lon="-5.589017">
        <ele>876.0</ele>
        <time>2013-06-30T15:54:26Z</time>
      </trkpt>
      <trkpt lat="40.044117" lon="-5.589117">
        <ele>876.0</ele>
        <time>2013-06-30T15:54:27Z</time>
      </trkpt>
      <trkpt lat="40.044133" lon="-5.589217">
        <ele>876.0</ele>
        <time>2013-06-30T15:54:28Z</time>
      </trkpt>
      <trkpt lat="40.044167" lon="-5.589333">
        <ele>876.0</ele>
        <time>2013-06-30T15:54:29Z</time>
      </trkpt>
      <trkpt lat="40.044183" lon="-5.589467">
        <ele>875.0</ele>
        <time>2013-06-30T15:54:30Z</time>
      </trkpt>
      <trkpt lat="40.044183" lon="-5.589600">
        <ele>875.0</ele>
        <time>2013-06-30T15:54:31Z</time>
      </trkpt>
      <trkpt lat="40.044150" lon="-5.589850">
        <ele>877.0</ele>
        <time>2013-06-30T15:54:33Z</time>
      </trkpt>
      <trkpt lat="40.044117" lon="-5.589950">
        <ele>879.0</ele>
        <time>2013-06-30T15:54:34Z</time>
      </trkpt>
      <trkpt lat="40.044083" lon="-5.590050">
        <ele>881.0</ele>
        <time>2013-06-30T15:54:35Z</time>
      </trkpt>
      <trkpt lat="40.044033" lon="-5.590167">
        <ele>882.0</ele>
        <time>2013-06-30T15:54:36Z</time>
      </trkpt>
      <trkpt lat="40.044000" lon="-5.590267">
        <ele>883.0</ele>
        <time>2013-06-30T15:54:37Z</time>
      </trkpt>
      <trkpt lat="40.043950" lon="-5.590383">
        <ele>883.0</ele>
        <time>2013-06-30T15:54:38Z</time>
      </trkpt>
      <trkpt lat="40.043883" lon="-5.590483">
        <ele>883.0</ele>
        <time>2013-06-30T15:54:39Z</time>
      </trkpt>
      <trkpt lat="40.043833" lon="-5.590583">
        <ele>884.0</ele>
        <time>2013-06-30T15:54:40Z</time>
      </trkpt>
      <trkpt lat="40.043783" lon="-5.590683">
        <ele>885.0</ele>
        <time>2013-06-30T15:54:41Z</time>
      </trkpt>
      <trkpt lat="40.043717" lon="-5.590783">
        <ele>886.0</ele>
        <time>2013-06-30T15:54:42Z</time>
      </trkpt>
      <trkpt lat="40.043650" lon="-5.590867">
        <ele>886.0</ele>
        <time>2013-06-30T15:54:43Z</time>
      </trkpt>
      <trkpt lat="40.043583" lon="-5.590950">
        <ele>887.0</ele>
        <time>2013-06-30T15:54:44Z</time>
      </trkpt>
      <trkpt lat="40.043500" lon="-5.591033">
        <ele>887.0</ele>
        <time>2013-06-30T15:54:45Z</time>
      </trkpt>
      <trkpt lat="40.043433" lon="-5.591117">
        <ele>887.0</ele>
        <time>2013-06-30T15:54:46Z</time>
      </trkpt>
      <trkpt lat="40.043367" lon="-5.591183">
        <ele>888.0</ele>
        <time>2013-06-30T15:54:47Z</time>
      </trkpt>
      <trkpt lat="40.043300" lon="-5.591233">
        <ele>888.0</ele>
        <time>2013-06-30T15:54:48Z</time>
      </trkpt>
      <trkpt lat="40.043217" lon="-5.591300">
        <ele>888.0</ele>
        <time>2013-06-30T15:54:49Z</time>
      </trkpt>
      <trkpt lat="40.043117" lon="-5.591333">
        <ele>886.0</ele>
        <time>2013-06-30T15:54:50Z</time>
      </trkpt>
      <trkpt lat="40.043033" lon="-5.591350">
        <ele>886.0</ele>
        <time>2013-06-30T15:54:51Z</time>
      </trkpt>
      <trkpt lat="40.042950" lon="-5.591350">
        <ele>885.0</ele>
        <time>2013-06-30T15:54:52Z</time>
      </trkpt>
      <trkpt lat="40.042867" lon="-5.591317">
        <ele>884.0</ele>
        <time>2013-06-30T15:54:53Z</time>
      </trkpt>
      <trkpt lat="40.042783" lon="-5.591267">
        <ele>883.0</ele>
        <time>2013-06-30T15:54:54Z</time>
      </trkpt>
      <trkpt lat="40.042717" lon="-5.591217">
        <ele>882.0</ele>
        <time>2013-06-30T15:54:55Z</time>
      </trkpt>
      <trkpt lat="40.042650" lon="-5.591167">
        <ele>882.0</ele>
        <time>2013-06-30T15:54:56Z</time>
      </trkpt>
      <trkpt lat="40.042583" lon="-5.591117">
        <ele>881.0</ele>
        <time>2013-06-30T15:54:57Z</time>
      </trkpt>
      <trkpt lat="40.042517" lon="-5.591050">
        <ele>880.0</ele>
        <time>2013-06-30T15:54:58Z</time>
      </trkpt>
      <trkpt lat="40.042367" lon="-5.590900">
        <ele>876.0</ele>
        <time>2013-06-30T15:55:00Z</time>
      </trkpt>
      <trkpt lat="40.042317" lon="-5.590817">
        <ele>876.0</ele>
        <time>2013-06-30T15:55:01Z</time>
      </trkpt>
      <trkpt lat="40.042283" lon="-5.590733">
        <ele>875.0</ele>
        <time>2013-06-30T15:55:02Z</time>
      </trkpt>
      <trkpt lat="40.042250" lon="-5.590667">
        <ele>875.0</ele>
        <time>2013-06-30T15:55:03Z</time>
      </trkpt>
      <trkpt lat="40.042200" lon="-5.590600">
        <ele>874.0</ele>
        <time>2013-06-30T15:55:04Z</time>
      </trkpt>
      <trkpt lat="40.042167" lon="-5.590500">
        <ele>873.0</ele>
        <time>2013-06-30T15:55:05Z</time>
      </trkpt>
      <trkpt lat="40.042117" lon="-5.590400">
        <ele>871.0</ele>
        <time>2013-06-30T15:55:06Z</time>
      </trkpt>
      <trkpt lat="40.042083" lon="-5.590300">
        <ele>870.0</ele>
        <time>2013-06-30T15:55:07Z</time>
      </trkpt>
      <trkpt lat="40.042067" lon="-5.590200">
        <ele>870.0</ele>
        <time>2013-06-30T15:55:08Z</time>
      </trkpt>
      <trkpt lat="40.042050" lon="-5.590117">
        <ele>869.0</ele>
        <time>2013-06-30T15:55:09Z</time>
      </trkpt>
      <trkpt lat="40.042050" lon="-5.589950">
        <ele>867.0</ele>
        <time>2013-06-30T15:55:11Z</time>
      </trkpt>
      <trkpt lat="40.042067" lon="-5.589850">
        <ele>866.0</ele>
        <time>2013-06-30T15:55:12Z</time>
      </trkpt>
      <trkpt lat="40.042100" lon="-5.589750">
        <ele>864.0</ele>
        <time>2013-06-30T15:55:13Z</time>
      </trkpt>
      <trkpt lat="40.042117" lon="-5.589667">
        <ele>863.0</ele>
        <time>2013-06-30T15:55:14Z</time>
      </trkpt>
      <trkpt lat="40.042167" lon="-5.589600">
        <ele>863.0</ele>
        <time>2013-06-30T15:55:15Z</time>
      </trkpt>
      <trkpt lat="40.042200" lon="-5.589567">
        <ele>862.0</ele>
        <time>2013-06-30T15:55:16Z</time>
      </trkpt>
      <trkpt lat="40.042250" lon="-5.589533">
        <ele>861.0</ele>
        <time>2013-06-30T15:55:17Z</time>
      </trkpt>
      <trkpt lat="40.042317" lon="-5.589500">
        <ele>860.0</ele>
        <time>2013-06-30T15:55:18Z</time>
      </trkpt>
      <trkpt lat="40.042383" lon="-5.589467">
        <ele>859.0</ele>
        <time>2013-06-30T15:55:19Z</time>
      </trkpt>
      <trkpt lat="40.042433" lon="-5.589433">
        <ele>858.0</ele>
        <time>2013-06-30T15:55:20Z</time>
      </trkpt>
      <trkpt lat="40.042500" lon="-5.589433">
        <ele>858.0</ele>
        <time>2013-06-30T15:55:21Z</time>
      </trkpt>
      <trkpt lat="40.042550" lon="-5.589450">
        <ele>858.0</ele>
        <time>2013-06-30T15:55:22Z</time>
      </trkpt>
      <trkpt lat="40.042617" lon="-5.589467">
        <ele>857.0</ele>
        <time>2013-06-30T15:55:23Z</time>
      </trkpt>
      <trkpt lat="40.042683" lon="-5.589483">
        <ele>857.0</ele>
        <time>2013-06-30T15:55:24Z</time>
      </trkpt>
      <trkpt lat="40.042750" lon="-5.589517">
        <ele>856.0</ele>
        <time>2013-06-30T15:55:25Z</time>
      </trkpt>
      <trkpt lat="40.042867" lon="-5.589600">
        <ele>858.0</ele>
        <time>2013-06-30T15:55:27Z</time>
      </trkpt>
      <trkpt lat="40.042900" lon="-5.589650">
        <ele>859.0</ele>
        <time>2013-06-30T15:55:28Z</time>
      </trkpt>
      <trkpt lat="40.042950" lon="-5.589717">
        <ele>857.0</ele>
        <time>2013-06-30T15:55:29Z</time>
      </trkpt>
      <trkpt lat="40.043017" lon="-5.589800">
        <ele>855.0</ele>
        <time>2013-06-30T15:55:30Z</time>
      </trkpt>
      <trkpt lat="40.043067" lon="-5.589883">
        <ele>853.0</ele>
        <time>2013-06-30T15:55:31Z</time>
      </trkpt>
      <trkpt lat="40.043117" lon="-5.589983">
        <ele>852.0</ele>
        <time>2013-06-30T15:55:32Z</time>
      </trkpt>
      <trkpt lat="40.043150" lon="-5.590083">
        <ele>851.0</ele>
        <time>2013-06-30T15:55:33Z</time>
      </trkpt>
      <trkpt lat="40.043183" lon="-5.590183">
        <ele>850.0</ele>
        <time>2013-06-30T15:55:34Z</time>
      </trkpt>
      <trkpt lat="40.043217" lon="-5.590300">
        <ele>848.0</ele>
        <time>2013-06-30T15:55:35Z</time>
      </trkpt>
      <trkpt lat="40.043267" lon="-5.590417">
        <ele>847.0</ele>
        <time>2013-06-30T15:55:36Z</time>
      </trkpt>
      <trkpt lat="40.043300" lon="-5.590533">
        <ele>846.0</ele>
        <time>2013-06-30T15:55:37Z</time>
      </trkpt>
      <trkpt lat="40.043333" lon="-5.590650">
        <ele>846.0</ele>
        <time>2013-06-30T15:55:38Z</time>
      </trkpt>
      <trkpt lat="40.043367" lon="-5.590750">
        <ele>847.0</ele>
        <time>2013-06-30T15:55:39Z</time>
      </trkpt>
      <trkpt lat="40.043383" lon="-5.590833">
        <ele>848.0</ele>
        <time>2013-06-30T15:55:40Z</time>
      </trkpt>
      <trkpt lat="40.043400" lon="-5.590933">
        <ele>848.0</ele>
        <time>2013-06-30T15:55:41Z</time>
      </trkpt>
      <trkpt lat="40.043433" lon="-5.591033">
        <ele>847.0</ele>
        <time>2013-06-30T15:55:42Z</time>
      </trkpt>
      <trkpt lat="40.043500" lon="-5.591250">
        <ele>846.0</ele>
        <time>2013-06-30T15:55:44Z</time>
      </trkpt>
      <trkpt lat="40.043517" lon="-5.591367">
        <ele>846.0</ele>
        <time>2013-06-30T15:55:45Z</time>
      </trkpt>
      <trkpt lat="40.043533" lon="-5.591467">
        <ele>847.0</ele>
        <time>2013-06-30T15:55:46Z</time>
      </trkpt>
      <trkpt lat="40.043550" lon="-5.591583">
        <ele>847.0</ele>
        <time>2013-06-30T15:55:47Z</time>
      </trkpt>
      <trkpt lat="40.043533" lon="-5.591700">
        <ele>846.0</ele>
        <time>2013-06-30T15:55:48Z</time>
      </trkpt>
      <trkpt lat="40.043517" lon="-5.591917">
        <ele>845.0</ele>
        <time>2013-06-30T15:55:50Z</time>
      </trkpt>
      <trkpt lat="40.043483" lon="-5.592033">
        <ele>845.0</ele>
        <time>2013-06-30T15:55:51Z</time>
      </trkpt>
      <trkpt lat="40.043450" lon="-5.592150">
        <ele>845.0</ele>
        <time>2013-06-30T15:55:52Z</time>
      </trkpt>
      <trkpt lat="40.043417" lon="-5.592250">
        <ele>844.0</ele>
        <time>2013-06-30T15:55:53Z</time>
      </trkpt>
      <trkpt lat="40.043383" lon="-5.592350">
        <ele>843.0</ele>
        <time>2013-06-30T15:55:54Z</time>
      </trkpt>
      <trkpt lat="40.043333" lon="-5.592467">
        <ele>841.0</ele>
        <time>2013-06-30T15:55:55Z</time>
      </trkpt>
      <trkpt lat="40.043267" lon="-5.592567">
        <ele>839.0</ele>
        <time>2013-06-30T15:55:56Z</time>
      </trkpt>
      <trkpt lat="40.043200" lon="-5.592667">
        <ele>838.0</ele>
        <time>2013-06-30T15:55:57Z</time>
      </trkpt>
      <trkpt lat="40.043150" lon="-5.592733">
        <ele>837.0</ele>
        <time>2013-06-30T15:55:58Z</time>
      </trkpt>
      <trkpt lat="40.043083" lon="-5.592800">
        <ele>837.0</ele>
        <time>2013-06-30T15:55:59Z</time>
      </trkpt>
      <trkpt lat="40.043000" lon="-5.592867">
        <ele>835.0</ele>
        <time>2013-06-30T15:56:00Z</time>
      </trkpt>
      <trkpt lat="40.042933" lon="-5.592933">
        <ele>833.0</ele>
        <time>2013-06-30T15:56:01Z</time>
      </trkpt>
      <trkpt lat="40.042850" lon="-5.593017">
        <ele>831.0</ele>
        <time>2013-06-30T15:56:02Z</time>
      </trkpt>
      <trkpt lat="40.042767" lon="-5.593083">
        <ele>829.0</ele>
        <time>2013-06-30T15:56:03Z</time>
      </trkpt>
      <trkpt lat="40.042700" lon="-5.593133">
        <ele>829.0</ele>
        <time>2013-06-30T15:56:04Z</time>
      </trkpt>
      <trkpt lat="40.042617" lon="-5.593167">
        <ele>828.0</ele>
        <time>2013-06-30T15:56:05Z</time>
      </trkpt>
      <trkpt lat="40.042550" lon="-5.593217">
        <ele>825.0</ele>
        <time>2013-06-30T15:56:06Z</time>
      </trkpt>
      <trkpt lat="40.042467" lon="-5.593250">
        <ele>823.0</ele>
        <time>2013-06-30T15:56:07Z</time>
      </trkpt>
      <trkpt lat="40.042367" lon="-5.593300">
        <ele>819.0</ele>
        <time>2013-06-30T15:56:08Z</time>
      </trkpt>
      <trkpt lat="40.042283" lon="-5.593333">
        <ele>816.0</ele>
        <time>2013-06-30T15:56:09Z</time>
      </trkpt>
      <trkpt lat="40.042200" lon="-5.593367">
        <ele>814.0</ele>
        <time>2013-06-30T15:56:10Z</time>
      </trkpt>
      <trkpt lat="40.042117" lon="-5.593400">
        <ele>812.0</ele>
        <time>2013-06-30T15:56:11Z</time>
      </trkpt>
      <trkpt lat="40.042033" lon="-5.593433">
        <ele>810.0</ele>
        <time>2013-06-30T15:56:12Z</time>
      </trkpt>
      <trkpt lat="40.041967" lon="-5.593500">
        <ele>808.0</ele>
        <time>2013-06-30T15:56:13Z</time>
      </trkpt>
      <trkpt lat="40.041883" lon="-5.593567">
        <ele>806.0</ele>
        <time>2013-06-30T15:56:14Z</time>
      </trkpt>
      <trkpt lat="40.041817" lon="-5.593633">
        <ele>804.0</ele>
        <time>2013-06-30T15:56:15Z</time>
      </trkpt>
      <trkpt lat="40.041750" lon="-5.593700">
        <ele>801.0</ele>
        <time>2013-06-30T15:56:16Z</time>
      </trkpt>
      <trkpt lat="40.041683" lon="-5.593783">
        <ele>799.0</ele>
        <time>2013-06-30T15:56:17Z</time>
      </trkpt>
      <trkpt lat="40.041600" lon="-5.593850">
        <ele>796.0</ele>
        <time>2013-06-30T15:56:18Z</time>
      </trkpt>
      <trkpt lat="40.041533" lon="-5.593933">
        <ele>794.0</ele>
        <time>2013-06-30T15:56:19Z</time>
      </trkpt>
      <trkpt lat="40.041467" lon="-5.594000">
        <ele>791.0</ele>
        <time>2013-06-30T15:56:20Z</time>
      </trkpt>
      <trkpt lat="40.041400" lon="-5.594083">
        <ele>787.0</ele>
        <time>2013-06-30T15:56:21Z</time>
      </trkpt>
      <trkpt lat="40.041333" lon="-5.594167">
        <ele>784.0</ele>
        <time>2013-06-30T15:56:22Z</time>
      </trkpt>
      <trkpt lat="40.041283" lon="-5.594250">
        <ele>780.0</ele>
        <time>2013-06-30T15:56:23Z</time>
      </trkpt>
      <trkpt lat="40.041217" lon="-5.594333">
        <ele>777.0</ele>
        <time>2013-06-30T15:56:24Z</time>
      </trkpt>
      <trkpt lat="40.041150" lon="-5.594417">
        <ele>774.0</ele>
        <time>2013-06-30T15:56:25Z</time>
      </trkpt>
      <trkpt lat="40.041083" lon="-5.594500">
        <ele>771.0</ele>
        <time>2013-06-30T15:56:26Z</time>
      </trkpt>
      <trkpt lat="40.041017" lon="-5.594583">
        <ele>768.0</ele>
        <time>2013-06-30T15:56:27Z</time>
      </trkpt>
      <trkpt lat="40.040950" lon="-5.594667">
        <ele>765.0</ele>
        <time>2013-06-30T15:56:28Z</time>
      </trkpt>
      <trkpt lat="40.040883" lon="-5.594767">
        <ele>762.0</ele>
        <time>2013-06-30T15:56:29Z</time>
      </trkpt>
      <trkpt lat="40.040833" lon="-5.594867">
        <ele>759.0</ele>
        <time>2013-06-30T15:56:30Z</time>
      </trkpt>
      <trkpt lat="40.040783" lon="-5.594967">
        <ele>756.0</ele>
        <time>2013-06-30T15:56:31Z</time>
      </trkpt>
      <trkpt lat="40.040733" lon="-5.595067">
        <ele>753.0</ele>
        <time>2013-06-30T15:56:32Z</time>
      </trkpt>
      <trkpt lat="40.040667" lon="-5.595167">
        <ele>750.0</ele>
        <time>2013-06-30T15:56:33Z</time>
      </trkpt>
      <trkpt lat="40.040617" lon="-5.595267">
        <ele>747.0</ele>
        <time>2013-06-30T15:56:34Z</time>
      </trkpt>
      <trkpt lat="40.040567" lon="-5.595367">
        <ele>744.0</ele>
        <time>2013-06-30T15:56:35Z</time>
      </trkpt>
      <trkpt lat="40.040517" lon="-5.595483">
        <ele>740.0</ele>
        <time>2013-06-30T15:56:36Z</time>
      </trkpt>
      <trkpt lat="40.040450" lon="-5.595583">
        <ele>738.0</ele>
        <time>2013-06-30T15:56:37Z</time>
      </trkpt>
      <trkpt lat="40.040400" lon="-5.595683">
        <ele>735.0</ele>
        <time>2013-06-30T15:56:38Z</time>
      </trkpt>
      <trkpt lat="40.040333" lon="-5.595783">
        <ele>732.0</ele>
        <time>2013-06-30T15:56:39Z</time>
      </trkpt>
      <trkpt lat="40.040283" lon="-5.595900">
        <ele>729.0</ele>
        <time>2013-06-30T15:56:40Z</time>
      </trkpt>
      <trkpt lat="40.040217" lon="-5.596000">
        <ele>727.0</ele>
        <time>2013-06-30T15:56:41Z</time>
      </trkpt>
      <trkpt lat="40.040150" lon="-5.596117">
        <ele>724.0</ele>
        <time>2013-06-30T15:56:42Z</time>
      </trkpt>
      <trkpt lat="40.040083" lon="-5.596217">
        <ele>722.0</ele>
        <time>2013-06-30T15:56:43Z</time>
      </trkpt>
      <trkpt lat="40.039967" lon="-5.596400">
        <ele>718.0</ele>
        <time>2013-06-30T15:56:45Z</time>
      </trkpt>
      <trkpt lat="40.039900" lon="-5.596500">
        <ele>715.0</ele>
        <time>2013-06-30T15:56:46Z</time>
      </trkpt>
      <trkpt lat="40.039850" lon="-5.596583">
        <ele>713.0</ele>
        <time>2013-06-30T15:56:47Z</time>
      </trkpt>
      <trkpt lat="40.039783" lon="-5.596683">
        <ele>710.0</ele>
        <time>2013-06-30T15:56:48Z</time>
      </trkpt>
      <trkpt lat="40.039733" lon="-5.596783">
        <ele>707.0</ele>
        <time>2013-06-30T15:56:49Z</time>
      </trkpt>
      <trkpt lat="40.039683" lon="-5.596883">
        <ele>705.0</ele>
        <time>2013-06-30T15:56:50Z</time>
      </trkpt>
      <trkpt lat="40.039617" lon="-5.596983">
        <ele>702.0</ele>
        <time>2013-06-30T15:56:51Z</time>
      </trkpt>
      <trkpt lat="40.039567" lon="-5.597083">
        <ele>700.0</ele>
        <time>2013-06-30T15:56:52Z</time>
      </trkpt>
      <trkpt lat="40.039500" lon="-5.597183">
        <ele>697.0</ele>
        <time>2013-06-30T15:56:53Z</time>
      </trkpt>
      <trkpt lat="40.039433" lon="-5.597267">
        <ele>694.0</ele>
        <time>2013-06-30T15:56:54Z</time>
      </trkpt>
      <trkpt lat="40.039383" lon="-5.597367">
        <ele>691.0</ele>
        <time>2013-06-30T15:56:55Z</time>
      </trkpt>
      <trkpt lat="40.039317" lon="-5.597467">
        <ele>689.0</ele>
        <time>2013-06-30T15:56:56Z</time>
      </trkpt>
      <trkpt lat="40.039250" lon="-5.597567">
        <ele>686.0</ele>
        <time>2013-06-30T15:56:57Z</time>
      </trkpt>
      <trkpt lat="40.039183" lon="-5.597667">
        <ele>684.0</ele>
        <time>2013-06-30T15:56:58Z</time>
      </trkpt>
      <trkpt lat="40.039117" lon="-5.597750">
        <ele>682.0</ele>
        <time>2013-06-30T15:56:59Z</time>
      </trkpt>
      <trkpt lat="40.039067" lon="-5.597833">
        <ele>680.0</ele>
        <time>2013-06-30T15:57:00Z</time>
      </trkpt>
      <trkpt lat="40.039000" lon="-5.597917">
        <ele>678.0</ele>
        <time>2013-06-30T15:57:01Z</time>
      </trkpt>
      <trkpt lat="40.038950" lon="-5.598017">
        <ele>675.0</ele>
        <time>2013-06-30T15:57:02Z</time>
      </trkpt>
      <trkpt lat="40.038883" lon="-5.598100">
        <ele>673.0</ele>
        <time>2013-06-30T15:57:03Z</time>
      </trkpt>
      <trkpt lat="40.038817" lon="-5.598200">
        <ele>670.0</ele>
        <time>2013-06-30T15:57:04Z</time>
      </trkpt>
      <trkpt lat="40.038767" lon="-5.598300">
        <ele>668.0</ele>
        <time>2013-06-30T15:57:05Z</time>
      </trkpt>
      <trkpt lat="40.038717" lon="-5.598400">
        <ele>666.0</ele>
        <time>2013-06-30T15:57:06Z</time>
      </trkpt>
      <trkpt lat="40.038650" lon="-5.598483">
        <ele>665.0</ele>
        <time>2013-06-30T15:57:07Z</time>
      </trkpt>
      <trkpt lat="40.038583" lon="-5.598583">
        <ele>663.0</ele>
        <time>2013-06-30T15:57:08Z</time>
      </trkpt>
      <trkpt lat="40.038517" lon="-5.598683">
        <ele>661.0</ele>
        <time>2013-06-30T15:57:09Z</time>
      </trkpt>
      <trkpt lat="40.038450" lon="-5.598783">
        <ele>659.0</ele>
        <time>2013-06-30T15:57:10Z</time>
      </trkpt>
      <trkpt lat="40.038400" lon="-5.598867">
        <ele>658.0</ele>
        <time>2013-06-30T15:57:11Z</time>
      </trkpt>
      <trkpt lat="40.038333" lon="-5.598950">
        <ele>657.0</ele>
        <time>2013-06-30T15:57:12Z</time>
      </trkpt>
      <trkpt lat="40.038283" lon="-5.599033">
        <ele>656.0</ele>
        <time>2013-06-30T15:57:13Z</time>
      </trkpt>
      <trkpt lat="40.038233" lon="-5.599100">
        <ele>655.0</ele>
        <time>2013-06-30T15:57:14Z</time>
      </trkpt>
      <trkpt lat="40.038183" lon="-5.599183">
        <ele>654.0</ele>
        <time>2013-06-30T15:57:15Z</time>
      </trkpt>
      <trkpt lat="40.038133" lon="-5.599267">
        <ele>651.0</ele>
        <time>2013-06-30T15:57:16Z</time>
      </trkpt>
      <trkpt lat="40.038067" lon="-5.599367">
        <ele>650.0</ele>
        <time>2013-06-30T15:57:17Z</time>
      </trkpt>
      <trkpt lat="40.038017" lon="-5.599450">
        <ele>649.0</ele>
        <time>2013-06-30T15:57:18Z</time>
      </trkpt>
      <trkpt lat="40.037967" lon="-5.599533">
        <ele>647.0</ele>
        <time>2013-06-30T15:57:19Z</time>
      </trkpt>
      <trkpt lat="40.037917" lon="-5.599633">
        <ele>646.0</ele>
        <time>2013-06-30T15:57:20Z</time>
      </trkpt>
      <trkpt lat="40.037867" lon="-5.599717">
        <ele>644.0</ele>
        <time>2013-06-30T15:57:21Z</time>
      </trkpt>
      <trkpt lat="40.037817" lon="-5.599800">
        <ele>641.0</ele>
        <time>2013-06-30T15:57:22Z</time>
      </trkpt>
      <trkpt lat="40.037767" lon="-5.599883">
        <ele>640.0</ele>
        <time>2013-06-30T15:57:23Z</time>
      </trkpt>
      <trkpt lat="40.037700" lon="-5.599983">
        <ele>638.0</ele>
        <time>2013-06-30T15:57:24Z</time>
      </trkpt>
      <trkpt lat="40.037650" lon="-5.600067">
        <ele>637.0</ele>
        <time>2013-06-30T15:57:25Z</time>
      </trkpt>
      <trkpt lat="40.037600" lon="-5.600150">
        <ele>636.0</ele>
        <time>2013-06-30T15:57:26Z</time>
      </trkpt>
      <trkpt lat="40.037550" lon="-5.600233">
        <ele>635.0</ele>
        <time>2013-06-30T15:57:27Z</time>
      </trkpt>
      <trkpt lat="40.037483" lon="-5.600317">
        <ele>634.0</ele>
        <time>2013-06-30T15:57:28Z</time>
      </trkpt>
      <trkpt lat="40.037433" lon="-5.600417">
        <ele>633.0</ele>
        <time>2013-06-30T15:57:29Z</time>
      </trkpt>
      <trkpt lat="40.037383" lon="-5.600500">
        <ele>632.0</ele>
        <time>2013-06-30T15:57:30Z</time>
      </trkpt>
      <trkpt lat="40.037333" lon="-5.600583">
        <ele>631.0</ele>
        <time>2013-06-30T15:57:31Z</time>
      </trkpt>
      <trkpt lat="40.037283" lon="-5.600667">
        <ele>630.0</ele>
        <time>2013-06-30T15:57:32Z</time>
      </trkpt>
      <trkpt lat="40.037217" lon="-5.600767">
        <ele>629.0</ele>
        <time>2013-06-30T15:57:33Z</time>
      </trkpt>
      <trkpt lat="40.037167" lon="-5.600850">
        <ele>628.0</ele>
        <time>2013-06-30T15:57:34Z</time>
      </trkpt>
      <trkpt lat="40.037083" lon="-5.601033">
        <ele>626.0</ele>
        <time>2013-06-30T15:57:36Z</time>
      </trkpt>
      <trkpt lat="40.037033" lon="-5.601117">
        <ele>624.0</ele>
        <time>2013-06-30T15:57:37Z</time>
      </trkpt>
      <trkpt lat="40.036983" lon="-5.601217">
        <ele>622.0</ele>
        <time>2013-06-30T15:57:38Z</time>
      </trkpt>
      <trkpt lat="40.036917" lon="-5.601300">
        <ele>620.0</ele>
        <time>2013-06-30T15:57:39Z</time>
      </trkpt>
      <trkpt lat="40.036867" lon="-5.601400">
        <ele>618.0</ele>
        <time>2013-06-30T15:57:40Z</time>
      </trkpt>
      <trkpt lat="40.036833" lon="-5.601483">
        <ele>617.0</ele>
        <time>2013-06-30T15:57:41Z</time>
      </trkpt>
      <trkpt lat="40.036783" lon="-5.601567">
        <ele>616.0</ele>
        <time>2013-06-30T15:57:42Z</time>
      </trkpt>
      <trkpt lat="40.036733" lon="-5.601667">
        <ele>614.0</ele>
        <time>2013-06-30T15:57:43Z</time>
      </trkpt>
      <trkpt lat="40.036650" lon="-5.601833">
        <ele>609.0</ele>
        <time>2013-06-30T15:57:45Z</time>
      </trkpt>
      <trkpt lat="40.036550" lon="-5.602017">
        <ele>606.0</ele>
        <time>2013-06-30T15:57:47Z</time>
      </trkpt>
      <trkpt lat="40.036500" lon="-5.602100">
        <ele>604.0</ele>
        <time>2013-06-30T15:57:48Z</time>
      </trkpt>
      <trkpt lat="40.036417" lon="-5.602283">
        <ele>600.0</ele>
        <time>2013-06-30T15:57:50Z</time>
      </trkpt>
      <trkpt lat="40.036350" lon="-5.602383">
        <ele>597.0</ele>
        <time>2013-06-30T15:57:51Z</time>
      </trkpt>
      <trkpt lat="40.036300" lon="-5.602483">
        <ele>596.0</ele>
        <time>2013-06-30T15:57:52Z</time>
      </trkpt>
      <trkpt lat="40.036267" lon="-5.602567">
        <ele>594.0</ele>
        <time>2013-06-30T15:57:53Z</time>
      </trkpt>
      <trkpt lat="40.036217" lon="-5.602667">
        <ele>593.0</ele>
        <time>2013-06-30T15:57:54Z</time>
      </trkpt>
      <trkpt lat="40.036183" lon="-5.602750">
        <ele>592.0</ele>
        <time>2013-06-30T15:57:55Z</time>
      </trkpt>
      <trkpt lat="40.036133" lon="-5.602850">
        <ele>590.0</ele>
        <time>2013-06-30T15:57:56Z</time>
      </trkpt>
      <trkpt lat="40.036083" lon="-5.602950">
        <ele>587.0</ele>
        <time>2013-06-30T15:57:57Z</time>
      </trkpt>
      <trkpt lat="40.036050" lon="-5.603050">
        <ele>586.0</ele>
        <time>2013-06-30T15:57:58Z</time>
      </trkpt>
      <trkpt lat="40.036000" lon="-5.603150">
        <ele>584.0</ele>
        <time>2013-06-30T15:57:59Z</time>
      </trkpt>
      <trkpt lat="40.035967" lon="-5.603233">
        <ele>583.0</ele>
        <time>2013-06-30T15:58:00Z</time>
      </trkpt>
      <trkpt lat="40.035917" lon="-5.603317">
        <ele>582.0</ele>
        <time>2013-06-30T15:58:01Z</time>
      </trkpt>
      <trkpt lat="40.035867" lon="-5.603400">
        <ele>580.0</ele>
        <time>2013-06-30T15:58:02Z</time>
      </trkpt>
      <trkpt lat="40.035817" lon="-5.603500">
        <ele>577.0</ele>
        <time>2013-06-30T15:58:03Z</time>
      </trkpt>
      <trkpt lat="40.035767" lon="-5.603600">
        <ele>575.0</ele>
        <time>2013-06-30T15:58:04Z</time>
      </trkpt>
      <trkpt lat="40.035667" lon="-5.603800">
        <ele>571.0</ele>
        <time>2013-06-30T15:58:06Z</time>
      </trkpt>
      <trkpt lat="40.035617" lon="-5.603883">
        <ele>570.0</ele>
        <time>2013-06-30T15:58:07Z</time>
      </trkpt>
      <trkpt lat="40.035567" lon="-5.603967">
        <ele>568.0</ele>
        <time>2013-06-30T15:58:08Z</time>
      </trkpt>
      <trkpt lat="40.035517" lon="-5.604050">
        <ele>566.0</ele>
        <time>2013-06-30T15:58:09Z</time>
      </trkpt>
      <trkpt lat="40.035467" lon="-5.604133">
        <ele>564.0</ele>
        <time>2013-06-30T15:58:10Z</time>
      </trkpt>
      <trkpt lat="40.035400" lon="-5.604233">
        <ele>561.0</ele>
        <time>2013-06-30T15:58:11Z</time>
      </trkpt>
      <trkpt lat="40.035350" lon="-5.604333">
        <ele>560.0</ele>
        <time>2013-06-30T15:58:12Z</time>
      </trkpt>
      <trkpt lat="40.035300" lon="-5.604433">
        <ele>559.0</ele>
        <time>2013-06-30T15:58:13Z</time>
      </trkpt>
      <trkpt lat="40.035217" lon="-5.604617">
        <ele>555.0</ele>
        <time>2013-06-30T15:58:15Z</time>
      </trkpt>
      <trkpt lat="40.035167" lon="-5.604717">
        <ele>554.0</ele>
        <time>2013-06-30T15:58:16Z</time>
      </trkpt>
      <trkpt lat="40.035117" lon="-5.604817">
        <ele>552.0</ele>
        <time>2013-06-30T15:58:17Z</time>
      </trkpt>
      <trkpt lat="40.035067" lon="-5.604900">
        <ele>550.0</ele>
        <time>2013-06-30T15:58:18Z</time>
      </trkpt>
      <trkpt lat="40.035017" lon="-5.605000">
        <ele>549.0</ele>
        <time>2013-06-30T15:58:19Z</time>
      </trkpt>
      <trkpt lat="40.034967" lon="-5.605083">
        <ele>547.0</ele>
        <time>2013-06-30T15:58:20Z</time>
      </trkpt>
      <trkpt lat="40.034917" lon="-5.605183">
        <ele>545.0</ele>
        <time>2013-06-30T15:58:21Z</time>
      </trkpt>
      <trkpt lat="40.034867" lon="-5.605283">
        <ele>543.0</ele>
        <time>2013-06-30T15:58:22Z</time>
      </trkpt>
      <trkpt lat="40.034817" lon="-5.605383">
        <ele>541.0</ele>
        <time>2013-06-30T15:58:23Z</time>
      </trkpt>
      <trkpt lat="40.034783" lon="-5.605467">
        <ele>539.0</ele>
        <time>2013-06-30T15:58:24Z</time>
      </trkpt>
      <trkpt lat="40.034733" lon="-5.605567">
        <ele>538.0</ele>
        <time>2013-06-30T15:58:25Z</time>
      </trkpt>
      <trkpt lat="40.034683" lon="-5.605650">
        <ele>537.0</ele>
        <time>2013-06-30T15:58:26Z</time>
      </trkpt>
      <trkpt lat="40.034600" lon="-5.605833">
        <ele>534.0</ele>
        <time>2013-06-30T15:58:28Z</time>
      </trkpt>
      <trkpt lat="40.034550" lon="-5.605933">
        <ele>531.0</ele>
        <time>2013-06-30T15:58:29Z</time>
      </trkpt>
      <trkpt lat="40.034500" lon="-5.606017">
        <ele>529.0</ele>
        <time>2013-06-30T15:58:30Z</time>
      </trkpt>
      <trkpt lat="40.034450" lon="-5.606117">
        <ele>527.0</ele>
        <time>2013-06-30T15:58:31Z</time>
      </trkpt>
      <trkpt lat="40.034400" lon="-5.606217">
        <ele>526.0</ele>
        <time>2013-06-30T15:58:32Z</time>
      </trkpt>
      <trkpt lat="40.034367" lon="-5.606317">
        <ele>525.0</ele>
        <time>2013-06-30T15:58:33Z</time>
      </trkpt>
      <trkpt lat="40.034317" lon="-5.606417">
        <ele>524.0</ele>
        <time>2013-06-30T15:58:34Z</time>
      </trkpt>
      <trkpt lat="40.034267" lon="-5.606517">
        <ele>522.0</ele>
        <time>2013-06-30T15:58:35Z</time>
      </trkpt>
      <trkpt lat="40.034233" lon="-5.606633">
        <ele>520.0</ele>
        <time>2013-06-30T15:58:36Z</time>
      </trkpt>
      <trkpt lat="40.034200" lon="-5.606733">
        <ele>519.0</ele>
        <time>2013-06-30T15:58:37Z</time>
      </trkpt>
      <trkpt lat="40.034167" lon="-5.606817">
        <ele>518.0</ele>
        <time>2013-06-30T15:58:38Z</time>
      </trkpt>
      <trkpt lat="40.034133" lon="-5.606917">
        <ele>517.0</ele>
        <time>2013-06-30T15:58:39Z</time>
      </trkpt>
      <trkpt lat="40.034100" lon="-5.607033">
        <ele>516.0</ele>
        <time>2013-06-30T15:58:40Z</time>
      </trkpt>
      <trkpt lat="40.034067" lon="-5.607133">
        <ele>515.0</ele>
        <time>2013-06-30T15:58:41Z</time>
      </trkpt>
      <trkpt lat="40.034033" lon="-5.607233">
        <ele>513.0</ele>
        <time>2013-06-30T15:58:42Z</time>
      </trkpt>
      <trkpt lat="40.033967" lon="-5.607450">
        <ele>509.0</ele>
        <time>2013-06-30T15:58:44Z</time>
      </trkpt>
      <trkpt lat="40.033933" lon="-5.607550">
        <ele>508.0</ele>
        <time>2013-06-30T15:58:45Z</time>
      </trkpt>
      <trkpt lat="40.033883" lon="-5.607733">
        <ele>505.0</ele>
        <time>2013-06-30T15:58:47Z</time>
      </trkpt>
      <trkpt lat="40.033850" lon="-5.607817">
        <ele>503.0</ele>
        <time>2013-06-30T15:58:48Z</time>
      </trkpt>
      <trkpt lat="40.033817" lon="-5.607900">
        <ele>502.0</ele>
        <time>2013-06-30T15:58:49Z</time>
      </trkpt>
      <trkpt lat="40.033783" lon="-5.607983">
        <ele>501.0</ele>
        <time>2013-06-30T15:58:50Z</time>
      </trkpt>
      <trkpt lat="40.033750" lon="-5.608050">
        <ele>499.0</ele>
        <time>2013-06-30T15:58:51Z</time>
      </trkpt>
      <trkpt lat="40.033700" lon="-5.608117">
        <ele>498.0</ele>
        <time>2013-06-30T15:58:52Z</time>
      </trkpt>
      <trkpt lat="40.033650" lon="-5.608200">
        <ele>496.0</ele>
        <time>2013-06-30T15:58:53Z</time>
      </trkpt>
      <trkpt lat="40.033617" lon="-5.608283">
        <ele>494.0</ele>
        <time>2013-06-30T15:58:54Z</time>
      </trkpt>
      <trkpt lat="40.033550" lon="-5.608450">
        <ele>493.0</ele>
        <time>2013-06-30T15:58:56Z</time>
      </trkpt>
      <trkpt lat="40.033517" lon="-5.608533">
        <ele>492.0</ele>
        <time>2013-06-30T15:58:57Z</time>
      </trkpt>
      <trkpt lat="40.033483" lon="-5.608617">
        <ele>492.0</ele>
        <time>2013-06-30T15:58:58Z</time>
      </trkpt>
      <trkpt lat="40.033450" lon="-5.608717">
        <ele>492.0</ele>
        <time>2013-06-30T15:58:59Z</time>
      </trkpt>
      <trkpt lat="40.033417" lon="-5.608817">
        <ele>491.0</ele>
        <time>2013-06-30T15:59:00Z</time>
      </trkpt>
      <trkpt lat="40.033383" lon="-5.608900">
        <ele>491.0</ele>
        <time>2013-06-30T15:59:01Z</time>
      </trkpt>
      <trkpt lat="40.033350" lon="-5.608983">
        <ele>492.0</ele>
        <time>2013-06-30T15:59:02Z</time>
      </trkpt>
      <trkpt lat="40.033333" lon="-5.609050">
        <ele>493.0</ele>
        <time>2013-06-30T15:59:03Z</time>
      </trkpt>
      <trkpt lat="40.033300" lon="-5.609117">
        <ele>493.0</ele>
        <time>2013-06-30T15:59:04Z</time>
      </trkpt>
      <trkpt lat="40.033267" lon="-5.609217">
        <ele>492.0</ele>
        <time>2013-06-30T15:59:05Z</time>
      </trkpt>
      <trkpt lat="40.033250" lon="-5.609317">
        <ele>490.0</ele>
        <time>2013-06-30T15:59:06Z</time>
      </trkpt>
      <trkpt lat="40.033267" lon="-5.609417">
        <ele>488.0</ele>
        <time>2013-06-30T15:59:07Z</time>
      </trkpt>
      <trkpt lat="40.033283" lon="-5.609533">
        <ele>487.0</ele>
        <time>2013-06-30T15:59:08Z</time>
      </trkpt>
      <trkpt lat="40.033333" lon="-5.609633">
        <ele>485.0</ele>
        <time>2013-06-30T15:59:09Z</time>
      </trkpt>
      <trkpt lat="40.033383" lon="-5.609717">
        <ele>484.0</ele>
        <time>2013-06-30T15:59:10Z</time>
      </trkpt>
      <trkpt lat="40.033417" lon="-5.609800">
        <ele>483.0</ele>
        <time>2013-06-30T15:59:11Z</time>
      </trkpt>
      <trkpt lat="40.033433" lon="-5.609900">
        <ele>481.0</ele>
        <time>2013-06-30T15:59:12Z</time>
      </trkpt>
      <trkpt lat="40.033450" lon="-5.610017">
        <ele>479.0</ele>
        <time>2013-06-30T15:59:13Z</time>
      </trkpt>
      <trkpt lat="40.033450" lon="-5.610133">
        <ele>477.0</ele>
        <time>2013-06-30T15:59:14Z</time>
      </trkpt>
      <trkpt lat="40.033433" lon="-5.610250">
        <ele>475.0</ele>
        <time>2013-06-30T15:59:15Z</time>
      </trkpt>
      <trkpt lat="40.033433" lon="-5.610350">
        <ele>475.0</ele>
        <time>2013-06-30T15:59:16Z</time>
      </trkpt>
      <trkpt lat="40.033400" lon="-5.610433">
        <ele>474.0</ele>
        <time>2013-06-30T15:59:17Z</time>
      </trkpt>
      <trkpt lat="40.033383" lon="-5.610533">
        <ele>473.0</ele>
        <time>2013-06-30T15:59:18Z</time>
      </trkpt>
      <trkpt lat="40.033350" lon="-5.610633">
        <ele>471.0</ele>
        <time>2013-06-30T15:59:19Z</time>
      </trkpt>
      <trkpt lat="40.033317" lon="-5.610717">
        <ele>470.0</ele>
        <time>2013-06-30T15:59:20Z</time>
      </trkpt>
      <trkpt lat="40.033267" lon="-5.610783">
        <ele>469.0</ele>
        <time>2013-06-30T15:59:21Z</time>
      </trkpt>
      <trkpt lat="40.033217" lon="-5.610867">
        <ele>468.0</ele>
        <time>2013-06-30T15:59:22Z</time>
      </trkpt>
      <trkpt lat="40.033167" lon="-5.610933">
        <ele>467.0</ele>
        <time>2013-06-30T15:59:23Z</time>
      </trkpt>
      <trkpt lat="40.033100" lon="-5.611000">
        <ele>465.0</ele>
        <time>2013-06-30T15:59:24Z</time>
      </trkpt>
      <trkpt lat="40.033033" lon="-5.611067">
        <ele>465.0</ele>
        <time>2013-06-30T15:59:25Z</time>
      </trkpt>
      <trkpt lat="40.032983" lon="-5.611133">
        <ele>464.0</ele>
        <time>2013-06-30T15:59:26Z</time>
      </trkpt>
      <trkpt lat="40.032917" lon="-5.611200">
        <ele>463.0</ele>
        <time>2013-06-30T15:59:27Z</time>
      </trkpt>
      <trkpt lat="40.032867" lon="-5.611267">
        <ele>462.0</ele>
        <time>2013-06-30T15:59:28Z</time>
      </trkpt>
      <trkpt lat="40.032800" lon="-5.611333">
        <ele>461.0</ele>
        <time>2013-06-30T15:59:29Z</time>
      </trkpt>
      <trkpt lat="40.032750" lon="-5.611400">
        <ele>459.0</ele>
        <time>2013-06-30T15:59:30Z</time>
      </trkpt>
      <trkpt lat="40.032683" lon="-5.611450">
        <ele>459.0</ele>
        <time>2013-06-30T15:59:31Z</time>
      </trkpt>
      <trkpt lat="40.032633" lon="-5.611500">
        <ele>458.0</ele>
        <time>2013-06-30T15:59:32Z</time>
      </trkpt>
      <trkpt lat="40.032583" lon="-5.611550">
        <ele>457.0</ele>
        <time>2013-06-30T15:59:33Z</time>
      </trkpt>
      <trkpt lat="40.032450" lon="-5.611683">
        <ele>452.0</ele>
        <time>2013-06-30T15:59:35Z</time>
      </trkpt>
      <trkpt lat="40.032383" lon="-5.611733">
        <ele>450.0</ele>
        <time>2013-06-30T15:59:36Z</time>
      </trkpt>
      <trkpt lat="40.032317" lon="-5.611800">
        <ele>449.0</ele>
        <time>2013-06-30T15:59:37Z</time>
      </trkpt>
      <trkpt lat="40.032250" lon="-5.611850">
        <ele>447.0</ele>
        <time>2013-06-30T15:59:38Z</time>
      </trkpt>
      <trkpt lat="40.032183" lon="-5.611900">
        <ele>446.0</ele>
        <time>2013-06-30T15:59:39Z</time>
      </trkpt>
      <trkpt lat="40.032117" lon="-5.611933">
        <ele>444.0</ele>
        <time>2013-06-30T15:59:40Z</time>
      </trkpt>
      <trkpt lat="40.032050" lon="-5.611967">
        <ele>443.0</ele>
        <time>2013-06-30T15:59:41Z</time>
      </trkpt>
      <trkpt lat="40.031983" lon="-5.612017">
        <ele>441.0</ele>
        <time>2013-06-30T15:59:42Z</time>
      </trkpt>
      <trkpt lat="40.031900" lon="-5.612050">
        <ele>439.0</ele>
        <time>2013-06-30T15:59:43Z</time>
      </trkpt>
      <trkpt lat="40.031833" lon="-5.612083">
        <ele>437.0</ele>
        <time>2013-06-30T15:59:44Z</time>
      </trkpt>
      <trkpt lat="40.031750" lon="-5.612117">
        <ele>435.0</ele>
        <time>2013-06-30T15:59:45Z</time>
      </trkpt>
      <trkpt lat="40.031683" lon="-5.612167">
        <ele>433.0</ele>
        <time>2013-06-30T15:59:46Z</time>
      </trkpt>
      <trkpt lat="40.031617" lon="-5.612200">
        <ele>433.0</ele>
        <time>2013-06-30T15:59:47Z</time>
      </trkpt>
      <trkpt lat="40.031550" lon="-5.612233">
        <ele>432.0</ele>
        <time>2013-06-30T15:59:48Z</time>
      </trkpt>
      <trkpt lat="40.031483" lon="-5.612283">
        <ele>431.0</ele>
        <time>2013-06-30T15:59:49Z</time>
      </trkpt>
      <trkpt lat="40.031417" lon="-5.612317">
        <ele>429.0</ele>
        <time>2013-06-30T15:59:50Z</time>
      </trkpt>
      <trkpt lat="40.031333" lon="-5.612350">
        <ele>428.0</ele>
        <time>2013-06-30T15:59:51Z</time>
      </trkpt>
      <trkpt lat="40.031267" lon="-5.612383">
        <ele>425.0</ele>
        <time>2013-06-30T15:59:52Z</time>
      </trkpt>
      <trkpt lat="40.031183" lon="-5.612433">
        <ele>424.0</ele>
        <time>2013-06-30T15:59:53Z</time>
      </trkpt>
      <trkpt lat="40.031117" lon="-5.612483">
        <ele>422.0</ele>
        <time>2013-06-30T15:59:54Z</time>
      </trkpt>
      <trkpt lat="40.031050" lon="-5.612533">
        <ele>421.0</ele>
        <time>2013-06-30T15:59:55Z</time>
      </trkpt>
      <trkpt lat="40.030983" lon="-5.612583">
        <ele>420.0</ele>
        <time>2013-06-30T15:59:56Z</time>
      </trkpt>
      <trkpt lat="40.030917" lon="-5.612650">
        <ele>419.0</ele>
        <time>2013-06-30T15:59:57Z</time>
      </trkpt>
      <trkpt lat="40.030850" lon="-5.612717">
        <ele>417.0</ele>
        <time>2013-06-30T15:59:58Z</time>
      </trkpt>
      <trkpt lat="40.030783" lon="-5.612783">
        <ele>416.0</ele>
        <time>2013-06-30T15:59:59Z</time>
      </trkpt>
      <trkpt lat="40.030733" lon="-5.612850">
        <ele>415.0</ele>
        <time>2013-06-30T16:00:00Z</time>
      </trkpt>
      <trkpt lat="40.030667" lon="-5.612900">
        <ele>414.0</ele>
        <time>2013-06-30T16:00:01Z</time>
      </trkpt>
      <trkpt lat="40.030600" lon="-5.612967">
        <ele>412.0</ele>
        <time>2013-06-30T16:00:02Z</time>
      </trkpt>
      <trkpt lat="40.030517" lon="-5.613000">
        <ele>410.0</ele>
        <time>2013-06-30T16:00:03Z</time>
      </trkpt>
      <trkpt lat="40.030450" lon="-5.613050">
        <ele>408.0</ele>
        <time>2013-06-30T16:00:04Z</time>
      </trkpt>
      <trkpt lat="40.030367" lon="-5.613100">
        <ele>406.0</ele>
        <time>2013-06-30T16:00:05Z</time>
      </trkpt>
      <trkpt lat="40.030300" lon="-5.613133">
        <ele>404.0</ele>
        <time>2013-06-30T16:00:06Z</time>
      </trkpt>
      <trkpt lat="40.030217" lon="-5.613167">
        <ele>403.0</ele>
        <time>2013-06-30T16:00:07Z</time>
      </trkpt>
      <trkpt lat="40.030150" lon="-5.613200">
        <ele>401.0</ele>
        <time>2013-06-30T16:00:08Z</time>
      </trkpt>
      <trkpt lat="40.030067" lon="-5.613233">
        <ele>399.0</ele>
        <time>2013-06-30T16:00:09Z</time>
      </trkpt>
      <trkpt lat="40.029983" lon="-5.613283">
        <ele>396.0</ele>
        <time>2013-06-30T16:00:10Z</time>
      </trkpt>
      <trkpt lat="40.029900" lon="-5.613317">
        <ele>393.0</ele>
        <time>2013-06-30T16:00:11Z</time>
      </trkpt>
      <trkpt lat="40.029817" lon="-5.613350">
        <ele>391.0</ele>
        <time>2013-06-30T16:00:12Z</time>
      </trkpt>
      <trkpt lat="40.029750" lon="-5.613383">
        <ele>389.0</ele>
        <time>2013-06-30T16:00:13Z</time>
      </trkpt>
      <trkpt lat="40.029667" lon="-5.613433">
        <ele>386.0</ele>
        <time>2013-06-30T16:00:14Z</time>
      </trkpt>
      <trkpt lat="40.029583" lon="-5.613483">
        <ele>383.0</ele>
        <time>2013-06-30T16:00:15Z</time>
      </trkpt>
      <trkpt lat="40.029500" lon="-5.613550">
        <ele>381.0</ele>
        <time>2013-06-30T16:00:16Z</time>
      </trkpt>
      <trkpt lat="40.029433" lon="-5.613617">
        <ele>378.0</ele>
        <time>2013-06-30T16:00:17Z</time>
      </trkpt>
      <trkpt lat="40.029367" lon="-5.613683">
        <ele>376.0</ele>
        <time>2013-06-30T16:00:18Z</time>
      </trkpt>
      <trkpt lat="40.029300" lon="-5.613750">
        <ele>374.0</ele>
        <time>2013-06-30T16:00:19Z</time>
      </trkpt>
      <trkpt lat="40.029250" lon="-5.613833">
        <ele>372.0</ele>
        <time>2013-06-30T16:00:20Z</time>
      </trkpt>
      <trkpt lat="40.029200" lon="-5.613933">
        <ele>369.0</ele>
        <time>2013-06-30T16:00:21Z</time>
      </trkpt>
      <trkpt lat="40.029167" lon="-5.614033">
        <ele>366.0</ele>
        <time>2013-06-30T16:00:22Z</time>
      </trkpt>
      <trkpt lat="40.029150" lon="-5.614150">
        <ele>363.0</ele>
        <time>2013-06-30T16:00:23Z</time>
      </trkpt>
      <trkpt lat="40.029133" lon="-5.614267">
        <ele>361.0</ele>
        <time>2013-06-30T16:00:24Z</time>
      </trkpt>
      <trkpt lat="40.029117" lon="-5.614367">
        <ele>359.0</ele>
        <time>2013-06-30T16:00:25Z</time>
      </trkpt>
      <trkpt lat="40.029117" lon="-5.614583">
        <ele>354.0</ele>
        <time>2013-06-30T16:00:27Z</time>
      </trkpt>
      <trkpt lat="40.029100" lon="-5.614700">
        <ele>352.0</ele>
        <time>2013-06-30T16:00:28Z</time>
      </trkpt>
      <trkpt lat="40.029100" lon="-5.614817">
        <ele>350.0</ele>
        <time>2013-06-30T16:00:29Z</time>
      </trkpt>
      <trkpt lat="40.029117" lon="-5.615033">
        <ele>346.0</ele>
        <time>2013-06-30T16:00:31Z</time>
      </trkpt>
      <trkpt lat="40.029133" lon="-5.615133">
        <ele>345.0</ele>
        <time>2013-06-30T16:00:32Z</time>
      </trkpt>
      <trkpt lat="40.029133" lon="-5.615250">
        <ele>345.0</ele>
        <time>2013-06-30T16:00:33Z</time>
      </trkpt>
      <trkpt lat="40.029150" lon="-5.615367">
        <ele>344.0</ele>
        <time>2013-06-30T16:00:34Z</time>
      </trkpt>
      <trkpt lat="40.029183" lon="-5.615583">
        <ele>342.0</ele>
        <time>2013-06-30T16:00:36Z</time>
      </trkpt>
      <trkpt lat="40.029200" lon="-5.615683">
        <ele>342.0</ele>
        <time>2013-06-30T16:00:37Z</time>
      </trkpt>
      <trkpt lat="40.029217" lon="-5.615783">
        <ele>343.0</ele>
        <time>2013-06-30T16:00:38Z</time>
      </trkpt>
      <trkpt lat="40.029233" lon="-5.615883">
        <ele>343.0</ele>
        <time>2013-06-30T16:00:39Z</time>
      </trkpt>
      <trkpt lat="40.029250" lon="-5.616017">
        <ele>343.0</ele>
        <time>2013-06-30T16:00:40Z</time>
      </trkpt>
      <trkpt lat="40.029267" lon="-5.616150">
        <ele>342.0</ele>
        <time>2013-06-30T16:00:41Z</time>
      </trkpt>
      <trkpt lat="40.029283" lon="-5.616267">
        <ele>342.0</ele>
        <time>2013-06-30T16:00:42Z</time>
      </trkpt>
      <trkpt lat="40.029283" lon="-5.616367">
        <ele>342.0</ele>
        <time>2013-06-30T16:00:43Z</time>
      </trkpt>
      <trkpt lat="40.029267" lon="-5.616450">
        <ele>342.0</ele>
        <time>2013-06-30T16:00:44Z</time>
      </trkpt>
      <trkpt lat="40.029233" lon="-5.616550">
        <ele>340.0</ele>
        <time>2013-06-30T16:00:45Z</time>
      </trkpt>
      <trkpt lat="40.029167" lon="-5.616767">
        <ele>333.0</ele>
        <time>2013-06-30T16:00:47Z</time>
      </trkpt>
      <trkpt lat="40.029133" lon="-5.616883">
        <ele>330.0</ele>
        <time>2013-06-30T16:00:48Z</time>
      </trkpt>
      <trkpt lat="40.029083" lon="-5.616983">
        <ele>328.0</ele>
        <time>2013-06-30T16:00:49Z</time>
      </trkpt>
      <trkpt lat="40.029000" lon="-5.617050">
        <ele>327.0</ele>
        <time>2013-06-30T16:00:50Z</time>
      </trkpt>
      <trkpt lat="40.028933" lon="-5.617100">
        <ele>324.0</ele>
        <time>2013-06-30T16:00:51Z</time>
      </trkpt>
      <trkpt lat="40.028833" lon="-5.617133">
        <ele>322.0</ele>
        <time>2013-06-30T16:00:52Z</time>
      </trkpt>
      <trkpt lat="40.028683" lon="-5.617183">
        <ele>319.0</ele>
        <time>2013-06-30T16:00:54Z</time>
      </trkpt>
      <trkpt lat="40.028600" lon="-5.617183">
        <ele>317.0</ele>
        <time>2013-06-30T16:00:55Z</time>
      </trkpt>
      <trkpt lat="40.028500" lon="-5.617183">
        <ele>316.0</ele>
        <time>2013-06-30T16:00:56Z</time>
      </trkpt>
      <trkpt lat="40.028417" lon="-5.617150">
        <ele>315.0</ele>
        <time>2013-06-30T16:00:57Z</time>
      </trkpt>
      <trkpt lat="40.028317" lon="-5.617117">
        <ele>314.0</ele>
        <time>2013-06-30T16:00:58Z</time>
      </trkpt>
      <trkpt lat="40.028250" lon="-5.617083">
        <ele>313.0</ele>
        <time>2013-06-30T16:00:59Z</time>
      </trkpt>
      <trkpt lat="40.028183" lon="-5.617033">
        <ele>313.0</ele>
        <time>2013-06-30T16:01:00Z</time>
      </trkpt>
      <trkpt lat="40.028100" lon="-5.616967">
        <ele>312.0</ele>
        <time>2013-06-30T16:01:01Z</time>
      </trkpt>
      <trkpt lat="40.028050" lon="-5.616883">
        <ele>312.0</ele>
        <time>2013-06-30T16:01:02Z</time>
      </trkpt>
      <trkpt lat="40.028183" lon="-5.616450">
        <ele>303.0</ele>
        <time>2013-06-30T16:01:07Z</time>
      </trkpt>
      <trkpt lat="40.028233" lon="-5.616450">
        <ele>303.0</ele>
        <time>2013-06-30T16:01:08Z</time>
      </trkpt>
      <trkpt lat="40.028300" lon="-5.616433">
        <ele>303.0</ele>
        <time>2013-06-30T16:01:09Z</time>
      </trkpt>
      <trkpt lat="40.028350" lon="-5.616417">
        <ele>303.0</ele>
        <time>2013-06-30T16:01:10Z</time>
      </trkpt>
      <trkpt lat="40.028417" lon="-5.616400">
        <ele>301.0</ele>
        <time>2013-06-30T16:01:11Z</time>
      </trkpt>
      <trkpt lat="40.028500" lon="-5.616400">
        <ele>300.0</ele>
        <time>2013-06-30T16:01:12Z</time>
      </trkpt>
      <trkpt lat="40.028567" lon="-5.616433">
        <ele>298.0</ele>
        <time>2013-06-30T16:01:13Z</time>
      </trkpt>
      <trkpt lat="40.028633" lon="-5.616467">
        <ele>296.0</ele>
        <time>2013-06-30T16:01:14Z</time>
      </trkpt>
      <trkpt lat="40.028683" lon="-5.616467">
        <ele>295.0</ele>
        <time>2013-06-30T16:01:15Z</time>
      </trkpt>
      <trkpt lat="40.028750" lon="-5.616417">
        <ele>293.0</ele>
        <time>2013-06-30T16:01:16Z</time>
      </trkpt>
      <trkpt lat="40.028800" lon="-5.616333">
        <ele>291.0</ele>
        <time>2013-06-30T16:01:17Z</time>
      </trkpt>
      <trkpt lat="40.028817" lon="-5.616217">
        <ele>289.0</ele>
        <time>2013-06-30T16:01:18Z</time>
      </trkpt>
      <trkpt lat="40.028800" lon="-5.616117">
        <ele>288.0</ele>
        <time>2013-06-30T16:01:19Z</time>
      </trkpt>
      <trkpt lat="40.028750" lon="-5.616033">
        <ele>287.0</ele>
        <time>2013-06-30T16:01:20Z</time>
      </trkpt>
      <trkpt lat="40.028683" lon="-5.615967">
        <ele>286.0</ele>
        <time>2013-06-30T16:01:21Z</time>
      </trkpt>
      <trkpt lat="40.028617" lon="-5.615900">
        <ele>287.0</ele>
        <time>2013-06-30T16:01:22Z</time>
      </trkpt>
      <trkpt lat="40.028567" lon="-5.615833">
        <ele>289.0</ele>
        <time>2013-06-30T16:01:23Z</time>
      </trkpt>
      <trkpt lat="40.028550" lon="-5.615767">
        <ele>289.0</ele>
        <time>2013-06-30T16:01:24Z</time>
      </trkpt>
      <trkpt lat="40.028533" lon="-5.615683">
        <ele>289.0</ele>
        <time>2013-06-30T16:01:25Z</time>
      </trkpt>
      <trkpt lat="40.028533" lon="-5.615600">
        <ele>288.0</ele>
        <time>2013-06-30T16:01:26Z</time>
      </trkpt>
      <trkpt lat="40.028567" lon="-5.615517">
        <ele>287.0</ele>
        <time>2013-06-30T16:01:27Z</time>
      </trkpt>
      <trkpt lat="40.028633" lon="-5.615467">
        <ele>286.0</ele>
        <time>2013-06-30T16:01:28Z</time>
      </trkpt>
      <trkpt lat="40.028700" lon="-5.615450">
        <ele>285.0</ele>
        <time>2013-06-30T16:01:29Z</time>
      </trkpt>
      <trkpt lat="40.028783" lon="-5.615483">
        <ele>283.0</ele>
        <time>2013-06-30T16:01:30Z</time>
      </trkpt>
      <trkpt lat="40.028867" lon="-5.615533">
        <ele>281.0</ele>
        <time>2013-06-30T16:01:31Z</time>
      </trkpt>
      <trkpt lat="40.028917" lon="-5.615617">
        <ele>280.0</ele>
        <time>2013-06-30T16:01:32Z</time>
      </trkpt>
      <trkpt lat="40.028967" lon="-5.615683">
        <ele>279.0</ele>
        <time>2013-06-30T16:01:33Z</time>
      </trkpt>
      <trkpt lat="40.029033" lon="-5.615750">
        <ele>279.0</ele>
        <time>2013-06-30T16:01:34Z</time>
      </trkpt>
      <trkpt lat="40.029083" lon="-5.615767">
        <ele>278.0</ele>
        <time>2013-06-30T16:01:35Z</time>
      </trkpt>
      <trkpt lat="40.029150" lon="-5.615750">
        <ele>278.0</ele>
        <time>2013-06-30T16:01:36Z</time>
      </trkpt>
      <trkpt lat="40.029200" lon="-5.615700">
        <ele>276.0</ele>
        <time>2013-06-30T16:01:37Z</time>
      </trkpt>
      <trkpt lat="40.029217" lon="-5.615483">
        <ele>273.0</ele>
        <time>2013-06-30T16:01:39Z</time>
      </trkpt>
      <trkpt lat="40.029200" lon="-5.615400">
        <ele>272.0</ele>
        <time>2013-06-30T16:01:40Z</time>
      </trkpt>
      <trkpt lat="40.029250" lon="-5.615283">
        <ele>273.0</ele>
        <time>2013-06-30T16:01:42Z</time>
      </trkpt>
      <trkpt lat="40.029300" lon="-5.615217">
        <ele>272.0</ele>
        <time>2013-06-30T16:01:43Z</time>
      </trkpt>
      <trkpt lat="40.029350" lon="-5.615150">
        <ele>270.0</ele>
        <time>2013-06-30T16:01:44Z</time>
      </trkpt>
      <trkpt lat="40.029367" lon="-5.615083">
        <ele>269.0</ele>
        <time>2013-06-30T16:01:45Z</time>
      </trkpt>
      <trkpt lat="40.029383" lon="-5.615017">
        <ele>268.0</ele>
        <time>2013-06-30T16:01:46Z</time>
      </trkpt>
      <trkpt lat="40.029417" lon="-5.614967">
        <ele>267.0</ele>
        <time>2013-06-30T16:01:47Z</time>
      </trkpt>
      <trkpt lat="40.029450" lon="-5.614950">
        <ele>265.0</ele>
        <time>2013-06-30T16:01:49Z</time>
      </trkpt>
      <trkpt lat="40.029450" lon="-5.614950">
        <ele>264.0</ele>
        <time>2013-06-30T16:01:50Z</time>
      </trkpt>
      <trkpt lat="40.029450" lon="-5.614933">
        <ele>264.0</ele>
        <time>2013-06-30T16:01:52Z</time>
      </trkpt>
      <trkpt lat="40.029467" lon="-5.614933">
        <ele>264.0</ele>
        <time>2013-06-30T16:01:53Z</time>
      </trkpt>
      <trkpt lat="40.029450" lon="-5.614933">
        <ele>263.0</ele>
        <time>2013-06-30T16:01:54Z</time>
      </trkpt>
      <trkpt lat="40.029450" lon="-5.614933">
        <ele>264.0</ele>
        <time>2013-06-30T16:01:56Z</time>
      </trkpt>
      <trkpt lat="40.029450" lon="-5.614933">
        <ele>264.0</ele>
        <time>2013-06-30T16:01:57Z</time>
      </trkpt>
      <trkpt lat="40.029450" lon="-5.614950">
        <ele>264.0</ele>
        <time>2013-06-30T16:01:59Z</time>
      </trkpt>
      <trkpt lat="40.029450" lon="-5.614950">
        <ele>264.0</ele>
        <time>2013-06-30T16:02:00Z</time>
      </trkpt>
      <trkpt lat="40.029467" lon="-5.614950">
        <ele>264.0</ele>
        <time>2013-06-30T16:02:01Z</time>
      </trkpt>
      <trkpt lat="40.029450" lon="-5.614950">
        <ele>264.0</ele>
        <time>2013-06-30T16:02:02Z</time>
      </trkpt>
      <trkpt lat="40.029467" lon="-5.614950">
        <ele>265.0</ele>
        <time>2013-06-30T16:02:03Z</time>
      </trkpt>
      <trkpt lat="40.029467" lon="-5.614950">
        <ele>264.0</ele>
        <time>2013-06-30T16:02:04Z</time>
      </trkpt>
      <trkpt lat="40.029467" lon="-5.614950">
        <ele>264.0</ele>
        <time>2013-06-30T16:02:05Z</time>
      </trkpt>
      <trkpt lat="40.029467" lon="-5.614950">
        <ele>264.0</ele>
        <time>2013-06-30T16:02:06Z</time>
      </trkpt>
      <trkpt lat="40.029467" lon="-5.614950">
        <ele>264.0</ele>
        <time>2013-06-30T16:02:07Z</time>
      </trkpt>
      <trkpt lat="40.029467" lon="-5.614950">
        <ele>263.0</ele>
        <time>2013-06-30T16:02:08Z</time>
      </trkpt>
      <trkpt lat="40.029467" lon="-5.614950">
        <ele>264.0</ele>
        <time>2013-06-30T16:02:09Z</time>
      </trkpt>
      <trkpt lat="40.029467" lon="-5.614950">
        <ele>264.0</ele>
        <time>2013-06-30T16:02:10Z</time>
      </trkpt>
      <trkpt lat="40.029450" lon="-5.614967">
        <ele>263.0</ele>
        <time>2013-06-30T16:02:11Z</time>
      </trkpt>
      <trkpt lat="40.029450" lon="-5.614950">
        <ele>264.0</ele>
        <time>2013-06-30T16:02:12Z</time>
      </trkpt>
      <trkpt lat="40.029450" lon="-5.614950">
        <ele>264.0</ele>
        <time>2013-06-30T16:02:13Z</time>
      </trkpt>
      <trkpt lat="40.029450" lon="-5.614950">
        <ele>264.0</ele>
        <time>2013-06-30T16:02:14Z</time>
      </trkpt>
      <trkpt lat="40.029450" lon="-5.614950">
        <ele>264.0</ele>
        <time>2013-06-30T16:02:15Z</time>
      </trkpt>
      <trkpt lat="40.029467" lon="-5.614933">
        <ele>264.0</ele>
        <time>2013-06-30T16:02:16Z</time>
      </trkpt>
      <trkpt lat="40.029467" lon="-5.614933">
        <ele>263.0</ele>
        <time>2013-06-30T16:02:17Z</time>
      </trkpt>
      <trkpt lat="40.029467" lon="-5.614933">
        <ele>263.0</ele>
        <time>2013-06-30T16:02:18Z</time>
      </trkpt>
      <trkpt lat="40.029467" lon="-5.614933">
        <ele>263.0</ele>
        <time>2013-06-30T16:02:19Z</time>
      </trkpt>
      <trkpt lat="40.029467" lon="-5.614933">
        <ele>263.0</ele>
        <time>2013-06-30T16:02:20Z</time>
      </trkpt>
      <trkpt lat="40.029467" lon="-5.614933">
        <ele>263.0</ele>
        <time>2013-06-30T16:02:21Z</time>
      </trkpt>
      <trkpt lat="40.029467" lon="-5.614933">
        <ele>263.0</ele>
        <time>2013-06-30T16:02:22Z</time>
      </trkpt>
      <trkpt lat="40.029467" lon="-5.614933">
        <ele>263.0</ele>
        <time>2013-06-30T16:02:23Z</time>
      </trkpt>
      <trkpt lat="40.029467" lon="-5.614933">
        <ele>263.0</ele>
        <time>2013-06-30T16:02:24Z</time>
      </trkpt>
      <trkpt lat="40.029467" lon="-5.614933">
        <ele>263.0</ele>
        <time>2013-06-30T16:02:25Z</time>
      </trkpt>
      <trkpt lat="40.029467" lon="-5.614950">
        <ele>263.0</ele>
        <time>2013-06-30T16:02:26Z</time>
      </trkpt>
      <trkpt lat="40.029450" lon="-5.614950">
        <ele>263.0</ele>
        <time>2013-06-30T16:02:27Z</time>
      </trkpt>
      <trkpt lat="40.029450" lon="-5.614950">
        <ele>263.0</ele>
        <time>2013-06-30T16:02:28Z</time>
      </trkpt>
      <trkpt lat="40.029450" lon="-5.614950">
        <ele>264.0</ele>
        <time>2013-06-30T16:02:29Z</time>
      </trkpt>
      <trkpt lat="40.029433" lon="-5.614967">
        <ele>264.0</ele>
        <time>2013-06-30T16:02:30Z</time>
      </trkpt>
      <trkpt lat="40.029433" lon="-5.614967">
        <ele>264.0</ele>
        <time>2013-06-30T16:02:31Z</time>
      </trkpt>
      <trkpt lat="40.029433" lon="-5.614967">
        <ele>263.0</ele>
        <time>2013-06-30T16:02:32Z</time>
      </trkpt>
      <trkpt lat="40.029433" lon="-5.614967">
        <ele>263.0</ele>
        <time>2013-06-30T16:02:33Z</time>
      </trkpt>
      <trkpt lat="40.029433" lon="-5.614950">
        <ele>263.0</ele>
        <time>2013-06-30T16:02:34Z</time>
      </trkpt>
      <trkpt lat="40.029433" lon="-5.614950">
        <ele>263.0</ele>
        <time>2013-06-30T16:02:35Z</time>
      </trkpt>
      <trkpt lat="40.029433" lon="-5.614950">
        <ele>264.0</ele>
        <time>2013-06-30T16:02:36Z</time>
      </trkpt>
      <trkpt lat="40.029433" lon="-5.614950">
        <ele>264.0</ele>
        <time>2013-06-30T16:02:37Z</time>
      </trkpt>
      <trkpt lat="40.029433" lon="-5.614950">
        <ele>263.0</ele>
        <time>2013-06-30T16:02:38Z</time>
      </trkpt>
      <trkpt lat="40.029433" lon="-5.614950">
        <ele>263.0</ele>
        <time>2013-06-30T16:02:39Z</time>
      </trkpt>
      <trkpt lat="40.029417" lon="-5.614967">
        <ele>263.0</ele>
        <time>2013-06-30T16:02:40Z</time>
      </trkpt>
      <trkpt lat="40.029417" lon="-5.614983">
        <ele>263.0</ele>
        <time>2013-06-30T16:02:41Z</time>
      </trkpt>
      <trkpt lat="40.029417" lon="-5.615000">
        <ele>263.0</ele>
        <time>2013-06-30T16:02:42Z</time>
      </trkpt>
      <trkpt lat="40.029400" lon="-5.615000">
        <ele>263.0</ele>
        <time>2013-06-30T16:02:43Z</time>
      </trkpt>
      <trkpt lat="40.029400" lon="-5.615017">
        <ele>263.0</ele>
        <time>2013-06-30T16:02:44Z</time>
      </trkpt>
      <trkpt lat="40.029383" lon="-5.615017">
        <ele>263.0</ele>
        <time>2013-06-30T16:02:45Z</time>
      </trkpt>
      <trkpt lat="40.029383" lon="-5.615033">
        <ele>263.0</ele>
        <time>2013-06-30T16:02:46Z</time>
      </trkpt>
      <trkpt lat="40.029383" lon="-5.615033">
        <ele>263.0</ele>
        <time>2013-06-30T16:02:47Z</time>
      </trkpt>
      <trkpt lat="40.029383" lon="-5.615033">
        <ele>263.0</ele>
        <time>2013-06-30T16:02:48Z</time>
      </trkpt>
      <trkpt lat="40.029383" lon="-5.615033">
        <ele>263.0</ele>
        <time>2013-06-30T16:02:49Z</time>
      </trkpt>
      <trkpt lat="40.029383" lon="-5.615033">
        <ele>263.0</ele>
        <time>2013-06-30T16:02:50Z</time>
      </trkpt>
      <trkpt lat="40.029383" lon="-5.615033">
        <ele>263.0</ele>
        <time>2013-06-30T16:02:51Z</time>
      </trkpt>
      <trkpt lat="40.029383" lon="-5.615033">
        <ele>263.0</ele>
        <time>2013-06-30T16:02:52Z</time>
      </trkpt>
      <trkpt lat="40.029367" lon="-5.615033">
        <ele>263.0</ele>
        <time>2013-06-30T16:02:53Z</time>
      </trkpt>
      <trkpt lat="40.029367" lon="-5.615050">
        <ele>263.0</ele>
        <time>2013-06-30T16:02:54Z</time>
      </trkpt>
      <trkpt lat="40.029367" lon="-5.615050">
        <ele>263.0</ele>
        <time>2013-06-30T16:02:55Z</time>
      </trkpt>
      <trkpt lat="40.029350" lon="-5.615067">
        <ele>263.0</ele>
        <time>2013-06-30T16:02:56Z</time>
      </trkpt>
      <trkpt lat="40.029350" lon="-5.615067">
        <ele>263.0</ele>
        <time>2013-06-30T16:02:57Z</time>
      </trkpt>
      <trkpt lat="40.029350" lon="-5.615067">
        <ele>263.0</ele>
        <time>2013-06-30T16:02:58Z</time>
      </trkpt>
      <trkpt lat="40.029350" lon="-5.615083">
        <ele>263.0</ele>
        <time>2013-06-30T16:02:59Z</time>
      </trkpt>
      <trkpt lat="40.029333" lon="-5.615083">
        <ele>263.0</ele>
        <time>2013-06-30T16:03:00Z</time>
      </trkpt>
      <trkpt lat="40.029333" lon="-5.615100">
        <ele>263.0</ele>
        <time>2013-06-30T16:03:01Z</time>
      </trkpt>
      <trkpt lat="40.029333" lon="-5.615100">
        <ele>262.0</ele>
        <time>2013-06-30T16:03:02Z</time>
      </trkpt>
      <trkpt lat="40.029333" lon="-5.615117">
        <ele>262.0</ele>
        <time>2013-06-30T16:03:03Z</time>
      </trkpt>
      <trkpt lat="40.029317" lon="-5.615117">
        <ele>262.0</ele>
        <time>2013-06-30T16:03:04Z</time>
      </trkpt>
      <trkpt lat="40.029317" lon="-5.615117">
        <ele>262.0</ele>
        <time>2013-06-30T16:03:05Z</time>
      </trkpt>
      <trkpt lat="40.029300" lon="-5.615133">
        <ele>262.0</ele>
        <time>2013-06-30T16:03:06Z</time>
      </trkpt>
      <trkpt lat="40.029300" lon="-5.615133">
        <ele>262.0</ele>
        <time>2013-06-30T16:03:07Z</time>
      </trkpt>
      <trkpt lat="40.029300" lon="-5.615150">
        <ele>262.0</ele>
        <time>2013-06-30T16:03:08Z</time>
      </trkpt>
      <trkpt lat="40.029300" lon="-5.615150">
        <ele>262.0</ele>
        <time>2013-06-30T16:03:09Z</time>
      </trkpt>
      <trkpt lat="40.029283" lon="-5.615167">
        <ele>262.0</ele>
        <time>2013-06-30T16:03:10Z</time>
      </trkpt>
      <trkpt lat="40.029283" lon="-5.615167">
        <ele>262.0</ele>
        <time>2013-06-30T16:03:11Z</time>
      </trkpt>
      <trkpt lat="40.029283" lon="-5.615183">
        <ele>262.0</ele>
        <time>2013-06-30T16:03:12Z</time>
      </trkpt>
      <trkpt lat="40.029267" lon="-5.615183">
        <ele>262.0</ele>
        <time>2013-06-30T16:03:13Z</time>
      </trkpt>
      <trkpt lat="40.029267" lon="-5.615200">
        <ele>262.0</ele>
        <time>2013-06-30T16:03:14Z</time>
      </trkpt>
      <trkpt lat="40.029250" lon="-5.615200">
        <ele>262.0</ele>
        <time>2013-06-30T16:03:15Z</time>
      </trkpt>
      <trkpt lat="40.029250" lon="-5.615217">
        <ele>262.0</ele>
        <time>2013-06-30T16:03:16Z</time>
      </trkpt>
      <trkpt lat="40.029250" lon="-5.615217">
        <ele>263.0</ele>
        <time>2013-06-30T16:03:17Z</time>
      </trkpt>
      <trkpt lat="40.029233" lon="-5.615233">
        <ele>263.0</ele>
        <time>2013-06-30T16:03:18Z</time>
      </trkpt>
      <trkpt lat="40.029233" lon="-5.615250">
        <ele>263.0</ele>
        <time>2013-06-30T16:03:19Z</time>
      </trkpt>
      <trkpt lat="40.029233" lon="-5.615250">
        <ele>263.0</ele>
        <time>2013-06-30T16:03:20Z</time>
      </trkpt>
      <trkpt lat="40.029217" lon="-5.615267">
        <ele>264.0</ele>
        <time>2013-06-30T16:03:21Z</time>
      </trkpt>
      <trkpt lat="40.029217" lon="-5.615283">
        <ele>264.0</ele>
        <time>2013-06-30T16:03:22Z</time>
      </trkpt>
      <trkpt lat="40.029217" lon="-5.615283">
        <ele>264.0</ele>
        <time>2013-06-30T16:03:23Z</time>
      </trkpt>
      <trkpt lat="40.029200" lon="-5.615300">
        <ele>265.0</ele>
        <time>2013-06-30T16:03:24Z</time>
      </trkpt>
      <trkpt lat="40.029200" lon="-5.615300">
        <ele>265.0</ele>
        <time>2013-06-30T16:03:25Z</time>
      </trkpt>
      <trkpt lat="40.029200" lon="-5.615300">
        <ele>265.0</ele>
        <time>2013-06-30T16:03:26Z</time>
      </trkpt>
      <trkpt lat="40.029200" lon="-5.615300">
        <ele>265.0</ele>
        <time>2013-06-30T16:03:27Z</time>
      </trkpt>
      <trkpt lat="40.029200" lon="-5.615317">
        <ele>266.0</ele>
        <time>2013-06-30T16:03:28Z</time>
      </trkpt>
      <trkpt lat="40.029200" lon="-5.615317">
        <ele>266.0</ele>
        <time>2013-06-30T16:03:29Z</time>
      </trkpt>
      <trkpt lat="40.029183" lon="-5.615333">
        <ele>266.0</ele>
        <time>2013-06-30T16:03:30Z</time>
      </trkpt>
      <trkpt lat="40.029183" lon="-5.615350">
        <ele>266.0</ele>
        <time>2013-06-30T16:03:31Z</time>
      </trkpt>
      <trkpt lat="40.029183" lon="-5.615350">
        <ele>266.0</ele>
        <time>2013-06-30T16:03:32Z</time>
      </trkpt>
      <trkpt lat="40.029183" lon="-5.615367">
        <ele>266.0</ele>
        <time>2013-06-30T16:03:33Z</time>
      </trkpt>
      <trkpt lat="40.029183" lon="-5.615367">
        <ele>266.0</ele>
        <time>2013-06-30T16:03:34Z</time>
      </trkpt>
      <trkpt lat="40.029183" lon="-5.615367">
        <ele>266.0</ele>
        <time>2013-06-30T16:03:35Z</time>
      </trkpt>
      <trkpt lat="40.029183" lon="-5.615367">
        <ele>266.0</ele>
        <time>2013-06-30T16:03:36Z</time>
      </trkpt>
      <trkpt lat="40.029183" lon="-5.615367">
        <ele>266.0</ele>
        <time>2013-06-30T16:03:37Z</time>
      </trkpt>
      <trkpt lat="40.029183" lon="-5.615367">
        <ele>267.0</ele>
        <time>2013-06-30T16:03:38Z</time>
      </trkpt>
      <trkpt lat="40.029183" lon="-5.615367">
        <ele>267.0</ele>
        <time>2013-06-30T16:03:39Z</time>
      </trkpt>
      <trkpt lat="40.029183" lon="-5.615367">
        <ele>267.0</ele>
        <time>2013-06-30T16:03:40Z</time>
      </trkpt>
      <trkpt lat="40.029167" lon="-5.615367">
        <ele>268.0</ele>
        <time>2013-06-30T16:03:41Z</time>
      </trkpt>
      <trkpt lat="40.029183" lon="-5.615367">
        <ele>267.0</ele>
        <time>2013-06-30T16:03:42Z</time>
      </trkpt>
      <trkpt lat="40.029167" lon="-5.615383">
        <ele>267.0</ele>
        <time>2013-06-30T16:03:43Z</time>
      </trkpt>
      <trkpt lat="40.029167" lon="-5.615383">
        <ele>267.0</ele>
        <time>2013-06-30T16:03:44Z</time>
      </trkpt>
      <trkpt lat="40.029150" lon="-5.615383">
        <ele>267.0</ele>
        <time>2013-06-30T16:03:45Z</time>
      </trkpt>
      <trkpt lat="40.029150" lon="-5.615400">
        <ele>267.0</ele>
        <time>2013-06-30T16:03:46Z</time>
      </trkpt>
      <trkpt lat="40.029133" lon="-5.615400">
        <ele>267.0</ele>
        <time>2013-06-30T16:03:47Z</time>
      </trkpt>
      <trkpt lat="40.029133" lon="-5.615417">
        <ele>267.0</ele>
        <time>2013-06-30T16:03:48Z</time>
      </trkpt>
      <trkpt lat="40.029133" lon="-5.615433">
        <ele>266.0</ele>
        <time>2013-06-30T16:03:49Z</time>
      </trkpt>
      <trkpt lat="40.029133" lon="-5.615433">
        <ele>266.0</ele>
        <time>2013-06-30T16:03:50Z</time>
      </trkpt>
      <trkpt lat="40.029133" lon="-5.615433">
        <ele>266.0</ele>
        <time>2013-06-30T16:03:51Z</time>
      </trkpt>
      <trkpt lat="40.029117" lon="-5.615433">
        <ele>266.0</ele>
        <time>2013-06-30T16:03:52Z</time>
      </trkpt>
      <trkpt lat="40.029117" lon="-5.615433">
        <ele>266.0</ele>
        <time>2013-06-30T16:03:53Z</time>
      </trkpt>
      <trkpt lat="40.029117" lon="-5.615433">
        <ele>266.0</ele>
        <time>2013-06-30T16:03:54Z</time>
      </trkpt>
      <trkpt lat="40.029117" lon="-5.615433">
        <ele>266.0</ele>
        <time>2013-06-30T16:03:55Z</time>
      </trkpt>
      <trkpt lat="40.029117" lon="-5.615433">
        <ele>266.0</ele>
        <time>2013-06-30T16:03:56Z</time>
      </trkpt>
      <trkpt lat="40.029133" lon="-5.615433">
        <ele>266.0</ele>
        <time>2013-06-30T16:03:57Z</time>
      </trkpt>
      <trkpt lat="40.029133" lon="-5.615417">
        <ele>266.0</ele>
        <time>2013-06-30T16:03:58Z</time>
      </trkpt>
      <trkpt lat="40.029133" lon="-5.615433">
        <ele>266.0</ele>
        <time>2013-06-30T16:03:59Z</time>
      </trkpt>
      <trkpt lat="40.029133" lon="-5.615433">
        <ele>266.0</ele>
        <time>2013-06-30T16:04:00Z</time>
      </trkpt>
      <trkpt lat="40.029133" lon="-5.615433">
        <ele>266.0</ele>
        <time>2013-06-30T16:04:01Z</time>
      </trkpt>
      <trkpt lat="40.029117" lon="-5.615450">
        <ele>266.0</ele>
        <time>2013-06-30T16:04:02Z</time>
      </trkpt>
      <trkpt lat="40.029117" lon="-5.615450">
        <ele>266.0</ele>
        <time>2013-06-30T16:04:03Z</time>
      </trkpt>
      <trkpt lat="40.029117" lon="-5.615467">
        <ele>266.0</ele>
        <time>2013-06-30T16:04:04Z</time>
      </trkpt>
      <trkpt lat="40.029100" lon="-5.615467">
        <ele>266.0</ele>
        <time>2013-06-30T16:04:05Z</time>
      </trkpt>
      <trkpt lat="40.029100" lon="-5.615483">
        <ele>266.0</ele>
        <time>2013-06-30T16:04:06Z</time>
      </trkpt>
      <trkpt lat="40.029100" lon="-5.615483">
        <ele>266.0</ele>
        <time>2013-06-30T16:04:07Z</time>
      </trkpt>
      <trkpt lat="40.029083" lon="-5.615500">
        <ele>266.0</ele>
        <time>2013-06-30T16:04:08Z</time>
      </trkpt>
      <trkpt lat="40.029083" lon="-5.615500">
        <ele>266.0</ele>
        <time>2013-06-30T16:04:09Z</time>
      </trkpt>
      <trkpt lat="40.029083" lon="-5.615517">
        <ele>266.0</ele>
        <time>2013-06-30T16:04:10Z</time>
      </trkpt>
      <trkpt lat="40.029067" lon="-5.615517">
        <ele>266.0</ele>
        <time>2013-06-30T16:04:11Z</time>
      </trkpt>
      <trkpt lat="40.029067" lon="-5.615517">
        <ele>267.0</ele>
        <time>2013-06-30T16:04:12Z</time>
      </trkpt>
      <trkpt lat="40.029067" lon="-5.615517">
        <ele>267.0</ele>
        <time>2013-06-30T16:04:13Z</time>
      </trkpt>
      <trkpt lat="40.029067" lon="-5.615517">
        <ele>266.0</ele>
        <time>2013-06-30T16:04:14Z</time>
      </trkpt>
      <trkpt lat="40.029067" lon="-5.615517">
        <ele>266.0</ele>
        <time>2013-06-30T16:04:15Z</time>
      </trkpt>
      <trkpt lat="40.029067" lon="-5.615517">
        <ele>266.0</ele>
        <time>2013-06-30T16:04:16Z</time>
      </trkpt>
      <trkpt lat="40.029067" lon="-5.615517">
        <ele>266.0</ele>
        <time>2013-06-30T16:04:17Z</time>
      </trkpt>
      <trkpt lat="40.029067" lon="-5.615533">
        <ele>266.0</ele>
        <time>2013-06-30T16:04:18Z</time>
      </trkpt>
      <trkpt lat="40.029067" lon="-5.615533">
        <ele>266.0</ele>
        <time>2013-06-30T16:04:19Z</time>
      </trkpt>
      <trkpt lat="40.029050" lon="-5.615533">
        <ele>266.0</ele>
        <time>2013-06-30T16:04:20Z</time>
      </trkpt>
      <trkpt lat="40.029050" lon="-5.615550">
        <ele>266.0</ele>
        <time>2013-06-30T16:04:21Z</time>
      </trkpt>
      <trkpt lat="40.029050" lon="-5.615550">
        <ele>267.0</ele>
        <time>2013-06-30T16:04:22Z</time>
      </trkpt>
      <trkpt lat="40.029050" lon="-5.615567">
        <ele>267.0</ele>
        <time>2013-06-30T16:04:23Z</time>
      </trkpt>
      <trkpt lat="40.029033" lon="-5.615567">
        <ele>266.0</ele>
        <time>2013-06-30T16:04:24Z</time>
      </trkpt>
      <trkpt lat="40.029033" lon="-5.615567">
        <ele>266.0</ele>
        <time>2013-06-30T16:04:25Z</time>
      </trkpt>
      <trkpt lat="40.029033" lon="-5.615567">
        <ele>266.0</ele>
        <time>2013-06-30T16:04:26Z</time>
      </trkpt>
      <trkpt lat="40.029033" lon="-5.615567">
        <ele>266.0</ele>
        <time>2013-06-30T16:04:27Z</time>
      </trkpt>
      <trkpt lat="40.029033" lon="-5.615583">
        <ele>266.0</ele>
        <time>2013-06-30T16:04:28Z</time>
      </trkpt>
      <trkpt lat="40.029033" lon="-5.615583">
        <ele>266.0</ele>
        <time>2013-06-30T16:04:29Z</time>
      </trkpt>
      <trkpt lat="40.029033" lon="-5.615600">
        <ele>266.0</ele>
        <time>2013-06-30T16:04:30Z</time>
      </trkpt>
      <trkpt lat="40.029017" lon="-5.615600">
        <ele>266.0</ele>
        <time>2013-06-30T16:04:31Z</time>
      </trkpt>
      <trkpt lat="40.029017" lon="-5.615617">
        <ele>266.0</ele>
        <time>2013-06-30T16:04:32Z</time>
      </trkpt>
      <trkpt lat="40.029017" lon="-5.615617">
        <ele>266.0</ele>
        <time>2013-06-30T16:04:33Z</time>
      </trkpt>
      <trkpt lat="40.029000" lon="-5.615633">
        <ele>266.0</ele>
        <time>2013-06-30T16:04:34Z</time>
      </trkpt>
      <trkpt lat="40.029000" lon="-5.615633">
        <ele>266.0</ele>
        <time>2013-06-30T16:04:35Z</time>
      </trkpt>
      <trkpt lat="40.029000" lon="-5.615633">
        <ele>266.0</ele>
        <time>2013-06-30T16:04:36Z</time>
      </trkpt>
      <trkpt lat="40.029000" lon="-5.615633">
        <ele>266.0</ele>
        <time>2013-06-30T16:04:37Z</time>
      </trkpt>
      <trkpt lat="40.029000" lon="-5.615633">
        <ele>266.0</ele>
        <time>2013-06-30T16:04:38Z</time>
      </trkpt>
      <trkpt lat="40.029000" lon="-5.615633">
        <ele>266.0</ele>
        <time>2013-06-30T16:04:39Z</time>
      </trkpt>
      <trkpt lat="40.029000" lon="-5.615633">
        <ele>266.0</ele>
        <time>2013-06-30T16:04:40Z</time>
      </trkpt>
      <trkpt lat="40.029000" lon="-5.615633">
        <ele>266.0</ele>
        <time>2013-06-30T16:04:42Z</time>
      </trkpt>
      <trkpt lat="40.029000" lon="-5.615633">
        <ele>266.0</ele>
        <time>2013-06-30T16:04:43Z</time>
      </trkpt>
      <trkpt lat="40.029000" lon="-5.615650">
        <ele>266.0</ele>
        <time>2013-06-30T16:04:44Z</time>
      </trkpt>
      <trkpt lat="40.028983" lon="-5.615650">
        <ele>266.0</ele>
        <time>2013-06-30T16:04:45Z</time>
      </trkpt>
      <trkpt lat="40.028983" lon="-5.615667">
        <ele>266.0</ele>
        <time>2013-06-30T16:04:46Z</time>
      </trkpt>
      <trkpt lat="40.028967" lon="-5.615667">
        <ele>266.0</ele>
        <time>2013-06-30T16:04:47Z</time>
      </trkpt>
      <trkpt lat="40.028967" lon="-5.615683">
        <ele>267.0</ele>
        <time>2013-06-30T16:04:48Z</time>
      </trkpt>
      <trkpt lat="40.028967" lon="-5.615683">
        <ele>266.0</ele>
        <time>2013-06-30T16:04:49Z</time>
      </trkpt>
      <trkpt lat="40.028950" lon="-5.615683">
        <ele>266.0</ele>
        <time>2013-06-30T16:04:50Z</time>
      </trkpt>
      <trkpt lat="40.028950" lon="-5.615700">
        <ele>266.0</ele>
        <time>2013-06-30T16:04:51Z</time>
      </trkpt>
      <trkpt lat="40.028950" lon="-5.615700">
        <ele>266.0</ele>
        <time>2013-06-30T16:04:52Z</time>
      </trkpt>
      <trkpt lat="40.028950" lon="-5.615700">
        <ele>266.0</ele>
        <time>2013-06-30T16:04:53Z</time>
      </trkpt>
      <trkpt lat="40.028950" lon="-5.615700">
        <ele>266.0</ele>
        <time>2013-06-30T16:04:54Z</time>
      </trkpt>
      <trkpt lat="40.028950" lon="-5.615683">
        <ele>265.0</ele>
        <time>2013-06-30T16:04:55Z</time>
      </trkpt>
      <trkpt lat="40.028950" lon="-5.615683">
        <ele>265.0</ele>
        <time>2013-06-30T16:04:56Z</time>
      </trkpt>
      <trkpt lat="40.028950" lon="-5.615683">
        <ele>265.0</ele>
        <time>2013-06-30T16:04:57Z</time>
      </trkpt>
      <trkpt lat="40.028950" lon="-5.615683">
        <ele>264.0</ele>
        <time>2013-06-30T16:04:58Z</time>
      </trkpt>
      <trkpt lat="40.028950" lon="-5.615683">
        <ele>264.0</ele>
        <time>2013-06-30T16:04:59Z</time>
      </trkpt>
      <trkpt lat="40.028950" lon="-5.615683">
        <ele>264.0</ele>
        <time>2013-06-30T16:05:00Z</time>
      </trkpt>
      <trkpt lat="40.028950" lon="-5.615700">
        <ele>264.0</ele>
        <time>2013-06-30T16:05:01Z</time>
      </trkpt>
      <trkpt lat="40.028933" lon="-5.615700">
        <ele>264.0</ele>
        <time>2013-06-30T16:05:02Z</time>
      </trkpt>
      <trkpt lat="40.028933" lon="-5.615717">
        <ele>264.0</ele>
        <time>2013-06-30T16:05:03Z</time>
      </trkpt>
      <trkpt lat="40.028933" lon="-5.615717">
        <ele>264.0</ele>
        <time>2013-06-30T16:05:04Z</time>
      </trkpt>
      <trkpt lat="40.028917" lon="-5.615733">
        <ele>264.0</ele>
        <time>2013-06-30T16:05:05Z</time>
      </trkpt>
      <trkpt lat="40.028917" lon="-5.615733">
        <ele>264.0</ele>
        <time>2013-06-30T16:05:06Z</time>
      </trkpt>
      <trkpt lat="40.028917" lon="-5.615733">
        <ele>265.0</ele>
        <time>2013-06-30T16:05:07Z</time>
      </trkpt>
      <trkpt lat="40.028917" lon="-5.615733">
        <ele>266.0</ele>
        <time>2013-06-30T16:05:08Z</time>
      </trkpt>
      <trkpt lat="40.028917" lon="-5.615733">
        <ele>266.0</ele>
        <time>2013-06-30T16:05:09Z</time>
      </trkpt>
      <trkpt lat="40.028917" lon="-5.615733">
        <ele>265.0</ele>
        <time>2013-06-30T16:05:10Z</time>
      </trkpt>
      <trkpt lat="40.028917" lon="-5.615733">
        <ele>265.0</ele>
        <time>2013-06-30T16:05:11Z</time>
      </trkpt>
      <trkpt lat="40.028917" lon="-5.615733">
        <ele>265.0</ele>
        <time>2013-06-30T16:05:12Z</time>
      </trkpt>
      <trkpt lat="40.028917" lon="-5.615733">
        <ele>265.0</ele>
        <time>2013-06-30T16:05:13Z</time>
      </trkpt>
      <trkpt lat="40.028917" lon="-5.615750">
        <ele>265.0</ele>
        <time>2013-06-30T16:05:14Z</time>
      </trkpt>
      <trkpt lat="40.028900" lon="-5.615767">
        <ele>265.0</ele>
        <time>2013-06-30T16:05:15Z</time>
      </trkpt>
      <trkpt lat="40.028900" lon="-5.615767">
        <ele>265.0</ele>
        <time>2013-06-30T16:05:16Z</time>
      </trkpt>
      <trkpt lat="40.028900" lon="-5.615767">
        <ele>265.0</ele>
        <time>2013-06-30T16:05:17Z</time>
      </trkpt>
      <trkpt lat="40.028883" lon="-5.615783">
        <ele>265.0</ele>
        <time>2013-06-30T16:05:18Z</time>
      </trkpt>
      <trkpt lat="40.028883" lon="-5.615783">
        <ele>265.0</ele>
        <time>2013-06-30T16:05:19Z</time>
      </trkpt>
      <trkpt lat="40.028883" lon="-5.615800">
        <ele>265.0</ele>
        <time>2013-06-30T16:05:20Z</time>
      </trkpt>
      <trkpt lat="40.028900" lon="-5.615800">
        <ele>266.0</ele>
        <time>2013-06-30T16:05:21Z</time>
      </trkpt>
      <trkpt lat="40.028900" lon="-5.615800">
        <ele>266.0</ele>
        <time>2013-06-30T16:05:22Z</time>
      </trkpt>
      <trkpt lat="40.028900" lon="-5.615800">
        <ele>266.0</ele>
        <time>2013-06-30T16:05:23Z</time>
      </trkpt>
      <trkpt lat="40.028900" lon="-5.615783">
        <ele>266.0</ele>
        <time>2013-06-30T16:05:24Z</time>
      </trkpt>
      <trkpt lat="40.028900" lon="-5.615783">
        <ele>266.0</ele>
        <time>2013-06-30T16:05:25Z</time>
      </trkpt>
      <trkpt lat="40.028883" lon="-5.615783">
        <ele>266.0</ele>
        <time>2013-06-30T16:05:26Z</time>
      </trkpt>
      <trkpt lat="40.028883" lon="-5.615800">
        <ele>266.0</ele>
        <time>2013-06-30T16:05:27Z</time>
      </trkpt>
      <trkpt lat="40.028883" lon="-5.615800">
        <ele>266.0</ele>
        <time>2013-06-30T16:05:28Z</time>
      </trkpt>
      <trkpt lat="40.028867" lon="-5.615817">
        <ele>266.0</ele>
        <time>2013-06-30T16:05:29Z</time>
      </trkpt>
      <trkpt lat="40.028867" lon="-5.615817">
        <ele>266.0</ele>
        <time>2013-06-30T16:05:30Z</time>
      </trkpt>
      <trkpt lat="40.028850" lon="-5.615833">
        <ele>266.0</ele>
        <time>2013-06-30T16:05:31Z</time>
      </trkpt>
      <trkpt lat="40.028850" lon="-5.615850">
        <ele>266.0</ele>
        <time>2013-06-30T16:05:32Z</time>
      </trkpt>
      <trkpt lat="40.028833" lon="-5.615850">
        <ele>265.0</ele>
        <time>2013-06-30T16:05:33Z</time>
      </trkpt>
      <trkpt lat="40.028833" lon="-5.615867">
        <ele>265.0</ele>
        <time>2013-06-30T16:05:34Z</time>
      </trkpt>
      <trkpt lat="40.028833" lon="-5.615867">
        <ele>265.0</ele>
        <time>2013-06-30T16:05:35Z</time>
      </trkpt>
      <trkpt lat="40.028817" lon="-5.615883">
        <ele>265.0</ele>
        <time>2013-06-30T16:05:36Z</time>
      </trkpt>
      <trkpt lat="40.028817" lon="-5.615883">
        <ele>265.0</ele>
        <time>2013-06-30T16:05:37Z</time>
      </trkpt>
      <trkpt lat="40.028817" lon="-5.615900">
        <ele>265.0</ele>
        <time>2013-06-30T16:05:38Z</time>
      </trkpt>
      <trkpt lat="40.028800" lon="-5.615900">
        <ele>266.0</ele>
        <time>2013-06-30T16:05:39Z</time>
      </trkpt>
      <trkpt lat="40.028800" lon="-5.615900">
        <ele>266.0</ele>
        <time>2013-06-30T16:05:40Z</time>
      </trkpt>
      <trkpt lat="40.028800" lon="-5.615917">
        <ele>266.0</ele>
        <time>2013-06-30T16:05:41Z</time>
      </trkpt>
      <trkpt lat="40.028800" lon="-5.615917">
        <ele>266.0</ele>
        <time>2013-06-30T16:05:42Z</time>
      </trkpt>
      <trkpt lat="40.028800" lon="-5.615917">
        <ele>266.0</ele>
        <time>2013-06-30T16:05:43Z</time>
      </trkpt>
      <trkpt lat="40.028800" lon="-5.615917">
        <ele>266.0</ele>
        <time>2013-06-30T16:05:44Z</time>
      </trkpt>
      <trkpt lat="40.028800" lon="-5.615900">
        <ele>266.0</ele>
        <time>2013-06-30T16:05:45Z</time>
      </trkpt>
      <trkpt lat="40.028800" lon="-5.615900">
        <ele>266.0</ele>
        <time>2013-06-30T16:05:46Z</time>
      </trkpt>
      <trkpt lat="40.028800" lon="-5.615917">
        <ele>266.0</ele>
        <time>2013-06-30T16:05:47Z</time>
      </trkpt>
      <trkpt lat="40.028783" lon="-5.615917">
        <ele>266.0</ele>
        <time>2013-06-30T16:05:48Z</time>
      </trkpt>
      <trkpt lat="40.028783" lon="-5.615933">
        <ele>266.0</ele>
        <time>2013-06-30T16:05:49Z</time>
      </trkpt>
      <trkpt lat="40.028783" lon="-5.615933">
        <ele>266.0</ele>
        <time>2013-06-30T16:05:50Z</time>
      </trkpt>
      <trkpt lat="40.028767" lon="-5.615950">
        <ele>266.0</ele>
        <time>2013-06-30T16:05:51Z</time>
      </trkpt>
      <trkpt lat="40.028767" lon="-5.615950">
        <ele>266.0</ele>
        <time>2013-06-30T16:05:52Z</time>
      </trkpt>
      <trkpt lat="40.028750" lon="-5.615967">
        <ele>266.0</ele>
        <time>2013-06-30T16:05:53Z</time>
      </trkpt>
      <trkpt lat="40.028750" lon="-5.615967">
        <ele>266.0</ele>
        <time>2013-06-30T16:05:54Z</time>
      </trkpt>
      <trkpt lat="40.028750" lon="-5.615967">
        <ele>266.0</ele>
        <time>2013-06-30T16:05:55Z</time>
      </trkpt>
      <trkpt lat="40.028750" lon="-5.615967">
        <ele>266.0</ele>
        <time>2013-06-30T16:05:56Z</time>
      </trkpt>
      <trkpt lat="40.028750" lon="-5.615967">
        <ele>265.0</ele>
        <time>2013-06-30T16:05:58Z</time>
      </trkpt>
      <trkpt lat="40.028750" lon="-5.615967">
        <ele>265.0</ele>
        <time>2013-06-30T16:05:59Z</time>
      </trkpt>
      <trkpt lat="40.028750" lon="-5.615967">
        <ele>265.0</ele>
        <time>2013-06-30T16:06:00Z</time>
      </trkpt>
      <trkpt lat="40.028750" lon="-5.615983">
        <ele>265.0</ele>
        <time>2013-06-30T16:06:01Z</time>
      </trkpt>
      <trkpt lat="40.028733" lon="-5.615983">
        <ele>265.0</ele>
        <time>2013-06-30T16:06:02Z</time>
      </trkpt>
      <trkpt lat="40.028733" lon="-5.616000">
        <ele>266.0</ele>
        <time>2013-06-30T16:06:03Z</time>
      </trkpt>
      <trkpt lat="40.028717" lon="-5.616000">
        <ele>266.0</ele>
        <time>2013-06-30T16:06:04Z</time>
      </trkpt>
      <trkpt lat="40.028717" lon="-5.616017">
        <ele>266.0</ele>
        <time>2013-06-30T16:06:05Z</time>
      </trkpt>
      <trkpt lat="40.028717" lon="-5.616017">
        <ele>266.0</ele>
        <time>2013-06-30T16:06:06Z</time>
      </trkpt>
      <trkpt lat="40.028700" lon="-5.616017">
        <ele>265.0</ele>
        <time>2013-06-30T16:06:07Z</time>
      </trkpt>
      <trkpt lat="40.028700" lon="-5.616033">
        <ele>265.0</ele>
        <time>2013-06-30T16:06:08Z</time>
      </trkpt>
      <trkpt lat="40.028700" lon="-5.616033">
        <ele>265.0</ele>
        <time>2013-06-30T16:06:09Z</time>
      </trkpt>
      <trkpt lat="40.028683" lon="-5.616050">
        <ele>265.0</ele>
        <time>2013-06-30T16:06:10Z</time>
      </trkpt>
      <trkpt lat="40.028683" lon="-5.616067">
        <ele>265.0</ele>
        <time>2013-06-30T16:06:11Z</time>
      </trkpt>
      <trkpt lat="40.028683" lon="-5.616067">
        <ele>265.0</ele>
        <time>2013-06-30T16:06:12Z</time>
      </trkpt>
      <trkpt lat="40.028683" lon="-5.616067">
        <ele>265.0</ele>
        <time>2013-06-30T16:06:13Z</time>
      </trkpt>
      <trkpt lat="40.028683" lon="-5.616067">
        <ele>265.0</ele>
        <time>2013-06-30T16:06:14Z</time>
      </trkpt>
      <trkpt lat="40.028683" lon="-5.616067">
        <ele>265.0</ele>
        <time>2013-06-30T16:06:15Z</time>
      </trkpt>
      <trkpt lat="40.028683" lon="-5.616067">
        <ele>264.0</ele>
        <time>2013-06-30T16:06:16Z</time>
      </trkpt>
      <trkpt lat="40.028700" lon="-5.616067">
        <ele>264.0</ele>
        <time>2013-06-30T16:06:17Z</time>
      </trkpt>
      <trkpt lat="40.028700" lon="-5.616067">
        <ele>264.0</ele>
        <time>2013-06-30T16:06:18Z</time>
      </trkpt>
      <trkpt lat="40.028700" lon="-5.616067">
        <ele>264.0</ele>
        <time>2013-06-30T16:06:19Z</time>
      </trkpt>
      <trkpt lat="40.028700" lon="-5.616067">
        <ele>264.0</ele>
        <time>2013-06-30T16:06:20Z</time>
      </trkpt>
      <trkpt lat="40.028700" lon="-5.616067">
        <ele>264.0</ele>
        <time>2013-06-30T16:06:21Z</time>
      </trkpt>
      <trkpt lat="40.028700" lon="-5.616067">
        <ele>264.0</ele>
        <time>2013-06-30T16:06:22Z</time>
      </trkpt>
      <trkpt lat="40.028700" lon="-5.616067">
        <ele>264.0</ele>
        <time>2013-06-30T16:06:23Z</time>
      </trkpt>
      <trkpt lat="40.028700" lon="-5.616067">
        <ele>264.0</ele>
        <time>2013-06-30T16:06:24Z</time>
      </trkpt>
    </trkseg>
  </trk>
</gpx>
